<?xml version="1.0" encoding="UTF-8" standalone="no" ?>
<gpx xmlns="http://www.topografix.com/GPX/1/1" xmlns:xsi="http://www.w3.org/2001/XMLSchema-instance" xsi:schemaLocation="http://www.topografix.com/GPX/1/1 http://www.topografix.com/GPX/1/1/gpx.xsd" version="1.1" creator="VisuGPX - https://www.visugpx.com">
  <metadata>
    <name>MRT EVAUX LES BAINS 4</name>
    <desc><![CDATA[EVAUX,ST JULIEN LA GENETE]]></desc>
  </metadata>
  <trk>
    <name><![CDATA[MRT EVAUX LES BAINS 4_1]]></name>
    <trkseg>
      <trkpt lat="46.17868" lon="2.48908">
        <ele>469</ele>
        <time>2015-04-10T12:32:34Z</time>
      </trkpt>
      <trkpt lat="46.17871" lon="2.48949">
        <ele>472</ele>
        <time>2015-04-10T12:32:54Z</time>
      </trkpt>
      <trkpt lat="46.17873" lon="2.48953">
        <ele>472</ele>
        <time>2015-04-10T12:32:56Z</time>
      </trkpt>
      <trkpt lat="46.17874" lon="2.48956">
        <ele>472</ele>
        <time>2015-04-10T12:32:58Z</time>
      </trkpt>
      <trkpt lat="46.17874" lon="2.4896">
        <ele>472</ele>
        <time>2015-04-10T12:33:01Z</time>
      </trkpt>
      <trkpt lat="46.17875" lon="2.48965">
        <ele>472</ele>
        <time>2015-04-10T12:33:04Z</time>
      </trkpt>
      <trkpt lat="46.17875" lon="2.48969">
        <ele>472</ele>
        <time>2015-04-10T12:33:06Z</time>
      </trkpt>
      <trkpt lat="46.17873" lon="2.48971">
        <ele>472</ele>
        <time>2015-04-10T12:33:08Z</time>
      </trkpt>
      <trkpt lat="46.17871" lon="2.48973">
        <ele>472</ele>
        <time>2015-04-10T12:33:10Z</time>
      </trkpt>
      <trkpt lat="46.1787" lon="2.48976">
        <ele>471</ele>
        <time>2015-04-10T12:33:12Z</time>
      </trkpt>
      <trkpt lat="46.17868" lon="2.48978">
        <ele>470</ele>
        <time>2015-04-10T12:33:14Z</time>
      </trkpt>
      <trkpt lat="46.17865" lon="2.48982">
        <ele>469</ele>
        <time>2015-04-10T12:33:17Z</time>
      </trkpt>
      <trkpt lat="46.17862" lon="2.48986">
        <ele>469</ele>
        <time>2015-04-10T12:33:20Z</time>
      </trkpt>
      <trkpt lat="46.17861" lon="2.4899">
        <ele>468</ele>
        <time>2015-04-10T12:33:22Z</time>
      </trkpt>
      <trkpt lat="46.1786" lon="2.48995">
        <ele>468</ele>
        <time>2015-04-10T12:33:24Z</time>
      </trkpt>
      <trkpt lat="46.17857" lon="2.48998">
        <ele>468</ele>
        <time>2015-04-10T12:33:26Z</time>
      </trkpt>
      <trkpt lat="46.17855" lon="2.49">
        <ele>468</ele>
        <time>2015-04-10T12:33:28Z</time>
      </trkpt>
      <trkpt lat="46.17856" lon="2.49">
        <ele>468</ele>
        <time>2015-04-10T12:33:33Z</time>
      </trkpt>
      <trkpt lat="46.17854" lon="2.49001">
        <ele>468</ele>
        <time>2015-04-10T12:33:35Z</time>
      </trkpt>
      <trkpt lat="46.17851" lon="2.49003">
        <ele>468</ele>
        <time>2015-04-10T12:33:37Z</time>
      </trkpt>
      <trkpt lat="46.17849" lon="2.49004">
        <ele>468</ele>
        <time>2015-04-10T12:33:39Z</time>
      </trkpt>
      <trkpt lat="46.17845" lon="2.49006">
        <ele>468</ele>
        <time>2015-04-10T12:33:41Z</time>
      </trkpt>
      <trkpt lat="46.17841" lon="2.49008">
        <ele>467</ele>
        <time>2015-04-10T12:33:44Z</time>
      </trkpt>
      <trkpt lat="46.17836" lon="2.49009">
        <ele>467</ele>
        <time>2015-04-10T12:33:47Z</time>
      </trkpt>
      <trkpt lat="46.17834" lon="2.4901">
        <ele>467</ele>
        <time>2015-04-10T12:33:49Z</time>
      </trkpt>
      <trkpt lat="46.17833" lon="2.49011">
        <ele>466</ele>
        <time>2015-04-10T12:33:51Z</time>
      </trkpt>
      <trkpt lat="46.17831" lon="2.49011">
        <ele>466</ele>
        <time>2015-04-10T12:33:53Z</time>
      </trkpt>
      <trkpt lat="46.17828" lon="2.49011">
        <ele>466</ele>
        <time>2015-04-10T12:33:55Z</time>
      </trkpt>
      <trkpt lat="46.17824" lon="2.49011">
        <ele>466</ele>
        <time>2015-04-10T12:33:57Z</time>
      </trkpt>
      <trkpt lat="46.17822" lon="2.4901">
        <ele>465</ele>
        <time>2015-04-10T12:33:59Z</time>
      </trkpt>
      <trkpt lat="46.17819" lon="2.49008">
        <ele>465</ele>
        <time>2015-04-10T12:34:02Z</time>
      </trkpt>
      <trkpt lat="46.17817" lon="2.49007">
        <ele>465</ele>
        <time>2015-04-10T12:34:04Z</time>
      </trkpt>
      <trkpt lat="46.17814" lon="2.49006">
        <ele>465</ele>
        <time>2015-04-10T12:34:06Z</time>
      </trkpt>
      <trkpt lat="46.17809" lon="2.49004">
        <ele>465</ele>
        <time>2015-04-10T12:34:08Z</time>
      </trkpt>
      <trkpt lat="46.17806" lon="2.49002">
        <ele>465</ele>
        <time>2015-04-10T12:34:10Z</time>
      </trkpt>
      <trkpt lat="46.17805" lon="2.49">
        <ele>465</ele>
        <time>2015-04-10T12:34:12Z</time>
      </trkpt>
      <trkpt lat="46.17801" lon="2.48996">
        <ele>465</ele>
        <time>2015-04-10T12:34:14Z</time>
      </trkpt>
      <trkpt lat="46.17798" lon="2.48991">
        <ele>465</ele>
        <time>2015-04-10T12:34:17Z</time>
      </trkpt>
      <trkpt lat="46.17798" lon="2.48989">
        <ele>465</ele>
        <time>2015-04-10T12:34:19Z</time>
      </trkpt>
      <trkpt lat="46.17797" lon="2.48987">
        <ele>465</ele>
        <time>2015-04-10T12:34:21Z</time>
      </trkpt>
      <trkpt lat="46.17796" lon="2.48984">
        <ele>465</ele>
        <time>2015-04-10T12:34:23Z</time>
      </trkpt>
      <trkpt lat="46.17795" lon="2.4898">
        <ele>465</ele>
        <time>2015-04-10T12:34:25Z</time>
      </trkpt>
      <trkpt lat="46.17794" lon="2.48976">
        <ele>465</ele>
        <time>2015-04-10T12:34:27Z</time>
      </trkpt>
      <trkpt lat="46.17793" lon="2.48972">
        <ele>465</ele>
        <time>2015-04-10T12:34:29Z</time>
      </trkpt>
      <trkpt lat="46.17793" lon="2.48968">
        <ele>465</ele>
        <time>2015-04-10T12:34:31Z</time>
      </trkpt>
      <trkpt lat="46.17793" lon="2.48964">
        <ele>465</ele>
        <time>2015-04-10T12:34:33Z</time>
      </trkpt>
      <trkpt lat="46.17794" lon="2.4896">
        <ele>464</ele>
        <time>2015-04-10T12:34:35Z</time>
      </trkpt>
      <trkpt lat="46.17794" lon="2.48956">
        <ele>464</ele>
        <time>2015-04-10T12:34:37Z</time>
      </trkpt>
      <trkpt lat="46.17794" lon="2.48952">
        <ele>464</ele>
        <time>2015-04-10T12:34:39Z</time>
      </trkpt>
      <trkpt lat="46.17793" lon="2.48947">
        <ele>464</ele>
        <time>2015-04-10T12:34:41Z</time>
      </trkpt>
      <trkpt lat="46.17793" lon="2.48943">
        <ele>464</ele>
        <time>2015-04-10T12:34:43Z</time>
      </trkpt>
      <trkpt lat="46.17792" lon="2.48938">
        <ele>464</ele>
        <time>2015-04-10T12:34:45Z</time>
      </trkpt>
      <trkpt lat="46.17792" lon="2.48934">
        <ele>464</ele>
        <time>2015-04-10T12:34:47Z</time>
      </trkpt>
      <trkpt lat="46.17791" lon="2.48929">
        <ele>464</ele>
        <time>2015-04-10T12:34:49Z</time>
      </trkpt>
      <trkpt lat="46.17791" lon="2.48925">
        <ele>464</ele>
        <time>2015-04-10T12:34:51Z</time>
      </trkpt>
      <trkpt lat="46.17791" lon="2.4892">
        <ele>464</ele>
        <time>2015-04-10T12:34:53Z</time>
      </trkpt>
      <trkpt lat="46.17789" lon="2.48914">
        <ele>464</ele>
        <time>2015-04-10T12:34:55Z</time>
      </trkpt>
      <trkpt lat="46.17789" lon="2.4891">
        <ele>464</ele>
        <time>2015-04-10T12:34:57Z</time>
      </trkpt>
      <trkpt lat="46.17789" lon="2.48905">
        <ele>464</ele>
        <time>2015-04-10T12:34:59Z</time>
      </trkpt>
      <trkpt lat="46.17788" lon="2.489">
        <ele>464</ele>
        <time>2015-04-10T12:35:01Z</time>
      </trkpt>
      <trkpt lat="46.17786" lon="2.48896">
        <ele>464</ele>
        <time>2015-04-10T12:35:03Z</time>
      </trkpt>
      <trkpt lat="46.17784" lon="2.4889">
        <ele>464</ele>
        <time>2015-04-10T12:35:06Z</time>
      </trkpt>
      <trkpt lat="46.17782" lon="2.48886">
        <ele>464</ele>
        <time>2015-04-10T12:35:08Z</time>
      </trkpt>
      <trkpt lat="46.1778" lon="2.48883">
        <ele>464</ele>
        <time>2015-04-10T12:35:10Z</time>
      </trkpt>
      <trkpt lat="46.17778" lon="2.4888">
        <ele>464</ele>
        <time>2015-04-10T12:35:12Z</time>
      </trkpt>
      <trkpt lat="46.17777" lon="2.48876">
        <ele>464</ele>
        <time>2015-04-10T12:35:14Z</time>
      </trkpt>
      <trkpt lat="46.17774" lon="2.48872">
        <ele>464</ele>
        <time>2015-04-10T12:35:16Z</time>
      </trkpt>
      <trkpt lat="46.1777" lon="2.48869">
        <ele>464</ele>
        <time>2015-04-10T12:35:18Z</time>
      </trkpt>
      <trkpt lat="46.17767" lon="2.48865">
        <ele>464</ele>
        <time>2015-04-10T12:35:21Z</time>
      </trkpt>
      <trkpt lat="46.17765" lon="2.48862">
        <ele>464</ele>
        <time>2015-04-10T12:35:23Z</time>
      </trkpt>
      <trkpt lat="46.17763" lon="2.48859">
        <ele>464</ele>
        <time>2015-04-10T12:35:25Z</time>
      </trkpt>
      <trkpt lat="46.17762" lon="2.48857">
        <ele>464</ele>
        <time>2015-04-10T12:35:27Z</time>
      </trkpt>
      <trkpt lat="46.17758" lon="2.48853">
        <ele>464</ele>
        <time>2015-04-10T12:35:30Z</time>
      </trkpt>
      <trkpt lat="46.17756" lon="2.48851">
        <ele>464</ele>
        <time>2015-04-10T12:35:32Z</time>
      </trkpt>
      <trkpt lat="46.17754" lon="2.48848">
        <ele>464</ele>
        <time>2015-04-10T12:35:34Z</time>
      </trkpt>
      <trkpt lat="46.17752" lon="2.48845">
        <ele>464</ele>
        <time>2015-04-10T12:35:36Z</time>
      </trkpt>
      <trkpt lat="46.1775" lon="2.48842">
        <ele>464</ele>
        <time>2015-04-10T12:35:38Z</time>
      </trkpt>
      <trkpt lat="46.17749" lon="2.48838">
        <ele>464</ele>
        <time>2015-04-10T12:35:40Z</time>
      </trkpt>
      <trkpt lat="46.17747" lon="2.48835">
        <ele>464</ele>
        <time>2015-04-10T12:35:42Z</time>
      </trkpt>
      <trkpt lat="46.17746" lon="2.48832">
        <ele>464</ele>
        <time>2015-04-10T12:35:44Z</time>
      </trkpt>
      <trkpt lat="46.17744" lon="2.48829">
        <ele>464</ele>
        <time>2015-04-10T12:35:46Z</time>
      </trkpt>
      <trkpt lat="46.17742" lon="2.48826">
        <ele>464</ele>
        <time>2015-04-10T12:35:48Z</time>
      </trkpt>
      <trkpt lat="46.17739" lon="2.48823">
        <ele>464</ele>
        <time>2015-04-10T12:35:50Z</time>
      </trkpt>
      <trkpt lat="46.17738" lon="2.48819">
        <ele>464</ele>
        <time>2015-04-10T12:35:52Z</time>
      </trkpt>
      <trkpt lat="46.17736" lon="2.48816">
        <ele>464</ele>
        <time>2015-04-10T12:35:54Z</time>
      </trkpt>
      <trkpt lat="46.17736" lon="2.48812">
        <ele>464</ele>
        <time>2015-04-10T12:35:56Z</time>
      </trkpt>
      <trkpt lat="46.17735" lon="2.48809">
        <ele>464</ele>
        <time>2015-04-10T12:35:58Z</time>
      </trkpt>
      <trkpt lat="46.17734" lon="2.48805">
        <ele>464</ele>
        <time>2015-04-10T12:36:00Z</time>
      </trkpt>
      <trkpt lat="46.17733" lon="2.48801">
        <ele>464</ele>
        <time>2015-04-10T12:36:02Z</time>
      </trkpt>
      <trkpt lat="46.17733" lon="2.48796">
        <ele>464</ele>
        <time>2015-04-10T12:36:04Z</time>
      </trkpt>
      <trkpt lat="46.17733" lon="2.48792">
        <ele>464</ele>
        <time>2015-04-10T12:36:06Z</time>
      </trkpt>
      <trkpt lat="46.17732" lon="2.48788">
        <ele>464</ele>
        <time>2015-04-10T12:36:08Z</time>
      </trkpt>
      <trkpt lat="46.17732" lon="2.48784">
        <ele>464</ele>
        <time>2015-04-10T12:36:10Z</time>
      </trkpt>
      <trkpt lat="46.1773" lon="2.4878">
        <ele>464</ele>
        <time>2015-04-10T12:36:12Z</time>
      </trkpt>
      <trkpt lat="46.1773" lon="2.48776">
        <ele>464</ele>
        <time>2015-04-10T12:36:14Z</time>
      </trkpt>
      <trkpt lat="46.17729" lon="2.48772">
        <ele>464</ele>
        <time>2015-04-10T12:36:16Z</time>
      </trkpt>
      <trkpt lat="46.17729" lon="2.48768">
        <ele>464</ele>
        <time>2015-04-10T12:36:18Z</time>
      </trkpt>
      <trkpt lat="46.17728" lon="2.48763">
        <ele>465</ele>
        <time>2015-04-10T12:36:20Z</time>
      </trkpt>
      <trkpt lat="46.17728" lon="2.48759">
        <ele>465</ele>
        <time>2015-04-10T12:36:22Z</time>
      </trkpt>
      <trkpt lat="46.17728" lon="2.48754">
        <ele>465</ele>
        <time>2015-04-10T12:36:24Z</time>
      </trkpt>
      <trkpt lat="46.17727" lon="2.4875">
        <ele>466</ele>
        <time>2015-04-10T12:36:26Z</time>
      </trkpt>
      <trkpt lat="46.17726" lon="2.48746">
        <ele>466</ele>
        <time>2015-04-10T12:36:28Z</time>
      </trkpt>
      <trkpt lat="46.17725" lon="2.48742">
        <ele>466</ele>
        <time>2015-04-10T12:36:30Z</time>
      </trkpt>
      <trkpt lat="46.17724" lon="2.48738">
        <ele>466</ele>
        <time>2015-04-10T12:36:32Z</time>
      </trkpt>
      <trkpt lat="46.17722" lon="2.48735">
        <ele>466</ele>
        <time>2015-04-10T12:36:34Z</time>
      </trkpt>
      <trkpt lat="46.17721" lon="2.48731">
        <ele>466</ele>
        <time>2015-04-10T12:36:36Z</time>
      </trkpt>
      <trkpt lat="46.1772" lon="2.48727">
        <ele>466</ele>
        <time>2015-04-10T12:36:38Z</time>
      </trkpt>
      <trkpt lat="46.17719" lon="2.48724">
        <ele>466</ele>
        <time>2015-04-10T12:36:40Z</time>
      </trkpt>
      <trkpt lat="46.17717" lon="2.48719">
        <ele>466</ele>
        <time>2015-04-10T12:36:42Z</time>
      </trkpt>
      <trkpt lat="46.17716" lon="2.48714">
        <ele>466</ele>
        <time>2015-04-10T12:36:44Z</time>
      </trkpt>
      <trkpt lat="46.17714" lon="2.4871">
        <ele>466</ele>
        <time>2015-04-10T12:36:46Z</time>
      </trkpt>
      <trkpt lat="46.17713" lon="2.48706">
        <ele>466</ele>
        <time>2015-04-10T12:36:48Z</time>
      </trkpt>
      <trkpt lat="46.17714" lon="2.48702">
        <ele>466</ele>
        <time>2015-04-10T12:36:50Z</time>
      </trkpt>
      <trkpt lat="46.17714" lon="2.48697">
        <ele>466</ele>
        <time>2015-04-10T12:36:52Z</time>
      </trkpt>
      <trkpt lat="46.17714" lon="2.48692">
        <ele>466</ele>
        <time>2015-04-10T12:36:54Z</time>
      </trkpt>
      <trkpt lat="46.17713" lon="2.48688">
        <ele>466</ele>
        <time>2015-04-10T12:36:56Z</time>
      </trkpt>
      <trkpt lat="46.17714" lon="2.48685">
        <ele>466</ele>
        <time>2015-04-10T12:36:58Z</time>
      </trkpt>
      <trkpt lat="46.17712" lon="2.4868">
        <ele>466</ele>
        <time>2015-04-10T12:37:00Z</time>
      </trkpt>
      <trkpt lat="46.17712" lon="2.48676">
        <ele>466</ele>
        <time>2015-04-10T12:37:02Z</time>
      </trkpt>
      <trkpt lat="46.17712" lon="2.48672">
        <ele>466</ele>
        <time>2015-04-10T12:37:04Z</time>
      </trkpt>
      <trkpt lat="46.17711" lon="2.48667">
        <ele>466</ele>
        <time>2015-04-10T12:37:06Z</time>
      </trkpt>
      <trkpt lat="46.1771" lon="2.48663">
        <ele>466</ele>
        <time>2015-04-10T12:37:08Z</time>
      </trkpt>
      <trkpt lat="46.17709" lon="2.48659">
        <ele>466</ele>
        <time>2015-04-10T12:37:10Z</time>
      </trkpt>
      <trkpt lat="46.17709" lon="2.48655">
        <ele>466</ele>
        <time>2015-04-10T12:37:12Z</time>
      </trkpt>
      <trkpt lat="46.17709" lon="2.48651">
        <ele>466</ele>
        <time>2015-04-10T12:37:14Z</time>
      </trkpt>
      <trkpt lat="46.17709" lon="2.48647">
        <ele>466</ele>
        <time>2015-04-10T12:37:16Z</time>
      </trkpt>
      <trkpt lat="46.17708" lon="2.48643">
        <ele>466</ele>
        <time>2015-04-10T12:37:18Z</time>
      </trkpt>
      <trkpt lat="46.17708" lon="2.48639">
        <ele>466</ele>
        <time>2015-04-10T12:37:20Z</time>
      </trkpt>
      <trkpt lat="46.17709" lon="2.48635">
        <ele>466</ele>
        <time>2015-04-10T12:37:22Z</time>
      </trkpt>
      <trkpt lat="46.17708" lon="2.4863">
        <ele>466</ele>
        <time>2015-04-10T12:37:24Z</time>
      </trkpt>
      <trkpt lat="46.17708" lon="2.48624">
        <ele>466</ele>
        <time>2015-04-10T12:37:26Z</time>
      </trkpt>
      <trkpt lat="46.17709" lon="2.4862">
        <ele>466</ele>
        <time>2015-04-10T12:37:28Z</time>
      </trkpt>
      <trkpt lat="46.17709" lon="2.48615">
        <ele>466</ele>
        <time>2015-04-10T12:37:30Z</time>
      </trkpt>
      <trkpt lat="46.1771" lon="2.48611">
        <ele>466</ele>
        <time>2015-04-10T12:37:32Z</time>
      </trkpt>
      <trkpt lat="46.17711" lon="2.48606">
        <ele>466</ele>
        <time>2015-04-10T12:37:34Z</time>
      </trkpt>
      <trkpt lat="46.17712" lon="2.48602">
        <ele>467</ele>
        <time>2015-04-10T12:37:36Z</time>
      </trkpt>
      <trkpt lat="46.17712" lon="2.48598">
        <ele>467</ele>
        <time>2015-04-10T12:37:38Z</time>
      </trkpt>
      <trkpt lat="46.17712" lon="2.48594">
        <ele>467</ele>
        <time>2015-04-10T12:37:40Z</time>
      </trkpt>
      <trkpt lat="46.1771" lon="2.48589">
        <ele>467</ele>
        <time>2015-04-10T12:37:42Z</time>
      </trkpt>
      <trkpt lat="46.17708" lon="2.48586">
        <ele>467</ele>
        <time>2015-04-10T12:37:44Z</time>
      </trkpt>
      <trkpt lat="46.17705" lon="2.48581">
        <ele>467</ele>
        <time>2015-04-10T12:37:47Z</time>
      </trkpt>
      <trkpt lat="46.17702" lon="2.48578">
        <ele>467</ele>
        <time>2015-04-10T12:37:49Z</time>
      </trkpt>
      <trkpt lat="46.17701" lon="2.48576">
        <ele>468</ele>
        <time>2015-04-10T12:37:51Z</time>
      </trkpt>
      <trkpt lat="46.17698" lon="2.48573">
        <ele>469</ele>
        <time>2015-04-10T12:37:53Z</time>
      </trkpt>
      <trkpt lat="46.17695" lon="2.48571">
        <ele>469</ele>
        <time>2015-04-10T12:37:55Z</time>
      </trkpt>
      <trkpt lat="46.17693" lon="2.48568">
        <ele>470</ele>
        <time>2015-04-10T12:37:57Z</time>
      </trkpt>
      <trkpt lat="46.1769" lon="2.48566">
        <ele>470</ele>
        <time>2015-04-10T12:37:59Z</time>
      </trkpt>
      <trkpt lat="46.17687" lon="2.48565">
        <ele>470</ele>
        <time>2015-04-10T12:38:02Z</time>
      </trkpt>
      <trkpt lat="46.17684" lon="2.48563">
        <ele>470</ele>
        <time>2015-04-10T12:38:04Z</time>
      </trkpt>
      <trkpt lat="46.17681" lon="2.48561">
        <ele>470</ele>
        <time>2015-04-10T12:38:06Z</time>
      </trkpt>
      <trkpt lat="46.17678" lon="2.48559">
        <ele>470</ele>
        <time>2015-04-10T12:38:08Z</time>
      </trkpt>
      <trkpt lat="46.17675" lon="2.48557">
        <ele>470</ele>
        <time>2015-04-10T12:38:10Z</time>
      </trkpt>
      <trkpt lat="46.17673" lon="2.48555">
        <ele>470</ele>
        <time>2015-04-10T12:38:12Z</time>
      </trkpt>
      <trkpt lat="46.1767" lon="2.48555">
        <ele>470</ele>
        <time>2015-04-10T12:38:14Z</time>
      </trkpt>
      <trkpt lat="46.17668" lon="2.48554">
        <ele>471</ele>
        <time>2015-04-10T12:38:16Z</time>
      </trkpt>
      <trkpt lat="46.17665" lon="2.48554">
        <ele>471</ele>
        <time>2015-04-10T12:38:18Z</time>
      </trkpt>
      <trkpt lat="46.17663" lon="2.48553">
        <ele>471</ele>
        <time>2015-04-10T12:38:20Z</time>
      </trkpt>
      <trkpt lat="46.17661" lon="2.48553">
        <ele>471</ele>
        <time>2015-04-10T12:38:22Z</time>
      </trkpt>
      <trkpt lat="46.17658" lon="2.48552">
        <ele>471</ele>
        <time>2015-04-10T12:38:24Z</time>
      </trkpt>
      <trkpt lat="46.17655" lon="2.48552">
        <ele>471</ele>
        <time>2015-04-10T12:38:26Z</time>
      </trkpt>
      <trkpt lat="46.17653" lon="2.48552">
        <ele>471</ele>
        <time>2015-04-10T12:38:28Z</time>
      </trkpt>
      <trkpt lat="46.1765" lon="2.48551">
        <ele>471</ele>
        <time>2015-04-10T12:38:30Z</time>
      </trkpt>
      <trkpt lat="46.17647" lon="2.4855">
        <ele>471</ele>
        <time>2015-04-10T12:38:32Z</time>
      </trkpt>
      <trkpt lat="46.17644" lon="2.48549">
        <ele>471</ele>
        <time>2015-04-10T12:38:34Z</time>
      </trkpt>
      <trkpt lat="46.17641" lon="2.48547">
        <ele>471</ele>
        <time>2015-04-10T12:38:36Z</time>
      </trkpt>
      <trkpt lat="46.17637" lon="2.48545">
        <ele>471</ele>
        <time>2015-04-10T12:38:38Z</time>
      </trkpt>
      <trkpt lat="46.17635" lon="2.48544">
        <ele>471</ele>
        <time>2015-04-10T12:38:40Z</time>
      </trkpt>
      <trkpt lat="46.17632" lon="2.48544">
        <ele>471</ele>
        <time>2015-04-10T12:38:42Z</time>
      </trkpt>
      <trkpt lat="46.17628" lon="2.48544">
        <ele>471</ele>
        <time>2015-04-10T12:38:44Z</time>
      </trkpt>
      <trkpt lat="46.17626" lon="2.48544">
        <ele>471</ele>
        <time>2015-04-10T12:38:46Z</time>
      </trkpt>
      <trkpt lat="46.17623" lon="2.48544">
        <ele>471</ele>
        <time>2015-04-10T12:38:48Z</time>
      </trkpt>
      <trkpt lat="46.17621" lon="2.48544">
        <ele>471</ele>
        <time>2015-04-10T12:38:50Z</time>
      </trkpt>
      <trkpt lat="46.17618" lon="2.48542">
        <ele>471</ele>
        <time>2015-04-10T12:38:52Z</time>
      </trkpt>
      <trkpt lat="46.17614" lon="2.48541">
        <ele>471</ele>
        <time>2015-04-10T12:38:54Z</time>
      </trkpt>
      <trkpt lat="46.17611" lon="2.4854">
        <ele>471</ele>
        <time>2015-04-10T12:38:56Z</time>
      </trkpt>
      <trkpt lat="46.17608" lon="2.48539">
        <ele>471</ele>
        <time>2015-04-10T12:38:58Z</time>
      </trkpt>
      <trkpt lat="46.17605" lon="2.48539">
        <ele>471</ele>
        <time>2015-04-10T12:39:00Z</time>
      </trkpt>
      <trkpt lat="46.17601" lon="2.4854">
        <ele>471</ele>
        <time>2015-04-10T12:39:03Z</time>
      </trkpt>
      <trkpt lat="46.17597" lon="2.48539">
        <ele>471</ele>
        <time>2015-04-10T12:39:05Z</time>
      </trkpt>
      <trkpt lat="46.17594" lon="2.4854">
        <ele>471</ele>
        <time>2015-04-10T12:39:07Z</time>
      </trkpt>
      <trkpt lat="46.17591" lon="2.48538">
        <ele>471</ele>
        <time>2015-04-10T12:39:09Z</time>
      </trkpt>
      <trkpt lat="46.17588" lon="2.48537">
        <ele>471</ele>
        <time>2015-04-10T12:39:11Z</time>
      </trkpt>
      <trkpt lat="46.17585" lon="2.48537">
        <ele>471</ele>
        <time>2015-04-10T12:39:14Z</time>
      </trkpt>
      <trkpt lat="46.17581" lon="2.48536">
        <ele>471</ele>
        <time>2015-04-10T12:39:16Z</time>
      </trkpt>
      <trkpt lat="46.17577" lon="2.48537">
        <ele>471</ele>
        <time>2015-04-10T12:39:18Z</time>
      </trkpt>
      <trkpt lat="46.17574" lon="2.48536">
        <ele>471</ele>
        <time>2015-04-10T12:39:21Z</time>
      </trkpt>
      <trkpt lat="46.17571" lon="2.48535">
        <ele>470</ele>
        <time>2015-04-10T12:39:23Z</time>
      </trkpt>
      <trkpt lat="46.17567" lon="2.48536">
        <ele>469</ele>
        <time>2015-04-10T12:39:25Z</time>
      </trkpt>
      <trkpt lat="46.17563" lon="2.48537">
        <ele>469</ele>
        <time>2015-04-10T12:39:28Z</time>
      </trkpt>
      <trkpt lat="46.1756" lon="2.48536">
        <ele>469</ele>
        <time>2015-04-10T12:39:30Z</time>
      </trkpt>
      <trkpt lat="46.17557" lon="2.48535">
        <ele>469</ele>
        <time>2015-04-10T12:39:32Z</time>
      </trkpt>
      <trkpt lat="46.17552" lon="2.48535">
        <ele>469</ele>
        <time>2015-04-10T12:39:34Z</time>
      </trkpt>
      <trkpt lat="46.17548" lon="2.48534">
        <ele>469</ele>
        <time>2015-04-10T12:39:36Z</time>
      </trkpt>
      <trkpt lat="46.17545" lon="2.48534">
        <ele>469</ele>
        <time>2015-04-10T12:39:38Z</time>
      </trkpt>
      <trkpt lat="46.17543" lon="2.48534">
        <ele>469</ele>
        <time>2015-04-10T12:39:40Z</time>
      </trkpt>
      <trkpt lat="46.17539" lon="2.48534">
        <ele>469</ele>
        <time>2015-04-10T12:39:42Z</time>
      </trkpt>
      <trkpt lat="46.17536" lon="2.48535">
        <ele>469</ele>
        <time>2015-04-10T12:39:44Z</time>
      </trkpt>
      <trkpt lat="46.17534" lon="2.48534">
        <ele>469</ele>
        <time>2015-04-10T12:39:46Z</time>
      </trkpt>
      <trkpt lat="46.1753" lon="2.48534">
        <ele>469</ele>
        <time>2015-04-10T12:39:48Z</time>
      </trkpt>
      <trkpt lat="46.17527" lon="2.48534">
        <ele>469</ele>
        <time>2015-04-10T12:39:50Z</time>
      </trkpt>
      <trkpt lat="46.17525" lon="2.48534">
        <ele>469</ele>
        <time>2015-04-10T12:39:52Z</time>
      </trkpt>
      <trkpt lat="46.17521" lon="2.48535">
        <ele>469</ele>
        <time>2015-04-10T12:39:55Z</time>
      </trkpt>
      <trkpt lat="46.17518" lon="2.48535">
        <ele>469</ele>
        <time>2015-04-10T12:39:57Z</time>
      </trkpt>
      <trkpt lat="46.17516" lon="2.48536">
        <ele>469</ele>
        <time>2015-04-10T12:39:59Z</time>
      </trkpt>
      <trkpt lat="46.17513" lon="2.48536">
        <ele>469</ele>
        <time>2015-04-10T12:40:01Z</time>
      </trkpt>
      <trkpt lat="46.17509" lon="2.48536">
        <ele>469</ele>
        <time>2015-04-10T12:40:03Z</time>
      </trkpt>
      <trkpt lat="46.17506" lon="2.48535">
        <ele>469</ele>
        <time>2015-04-10T12:40:05Z</time>
      </trkpt>
      <trkpt lat="46.17504" lon="2.48536">
        <ele>469</ele>
        <time>2015-04-10T12:40:07Z</time>
      </trkpt>
      <trkpt lat="46.17501" lon="2.48536">
        <ele>469</ele>
        <time>2015-04-10T12:40:09Z</time>
      </trkpt>
      <trkpt lat="46.17498" lon="2.48536">
        <ele>469</ele>
        <time>2015-04-10T12:40:11Z</time>
      </trkpt>
      <trkpt lat="46.17495" lon="2.48536">
        <ele>469</ele>
        <time>2015-04-10T12:40:13Z</time>
      </trkpt>
      <trkpt lat="46.17492" lon="2.48536">
        <ele>469</ele>
        <time>2015-04-10T12:40:15Z</time>
      </trkpt>
      <trkpt lat="46.17489" lon="2.48535">
        <ele>469</ele>
        <time>2015-04-10T12:40:17Z</time>
      </trkpt>
      <trkpt lat="46.17485" lon="2.48535">
        <ele>469</ele>
        <time>2015-04-10T12:40:19Z</time>
      </trkpt>
      <trkpt lat="46.17482" lon="2.48535">
        <ele>469</ele>
        <time>2015-04-10T12:40:21Z</time>
      </trkpt>
      <trkpt lat="46.17479" lon="2.48535">
        <ele>469</ele>
        <time>2015-04-10T12:40:23Z</time>
      </trkpt>
      <trkpt lat="46.17477" lon="2.48535">
        <ele>469</ele>
        <time>2015-04-10T12:40:25Z</time>
      </trkpt>
      <trkpt lat="46.17474" lon="2.48535">
        <ele>469</ele>
        <time>2015-04-10T12:40:27Z</time>
      </trkpt>
      <trkpt lat="46.1747" lon="2.48534">
        <ele>469</ele>
        <time>2015-04-10T12:40:29Z</time>
      </trkpt>
      <trkpt lat="46.17467" lon="2.48535">
        <ele>469</ele>
        <time>2015-04-10T12:40:31Z</time>
      </trkpt>
      <trkpt lat="46.17464" lon="2.48535">
        <ele>469</ele>
        <time>2015-04-10T12:40:33Z</time>
      </trkpt>
      <trkpt lat="46.1746" lon="2.48534">
        <ele>469</ele>
        <time>2015-04-10T12:40:36Z</time>
      </trkpt>
      <trkpt lat="46.17457" lon="2.48534">
        <ele>469</ele>
        <time>2015-04-10T12:40:39Z</time>
      </trkpt>
      <trkpt lat="46.17455" lon="2.48533">
        <ele>469</ele>
        <time>2015-04-10T12:40:41Z</time>
      </trkpt>
      <trkpt lat="46.17453" lon="2.48532">
        <ele>469</ele>
        <time>2015-04-10T12:40:43Z</time>
      </trkpt>
      <trkpt lat="46.17451" lon="2.48532">
        <ele>469</ele>
        <time>2015-04-10T12:40:45Z</time>
      </trkpt>
      <trkpt lat="46.17448" lon="2.48531">
        <ele>469</ele>
        <time>2015-04-10T12:40:47Z</time>
      </trkpt>
      <trkpt lat="46.17445" lon="2.48532">
        <ele>469</ele>
        <time>2015-04-10T12:40:49Z</time>
      </trkpt>
      <trkpt lat="46.17443" lon="2.48533">
        <ele>469</ele>
        <time>2015-04-10T12:40:51Z</time>
      </trkpt>
      <trkpt lat="46.1744" lon="2.48534">
        <ele>469</ele>
        <time>2015-04-10T12:40:53Z</time>
      </trkpt>
      <trkpt lat="46.17438" lon="2.48535">
        <ele>469</ele>
        <time>2015-04-10T12:40:55Z</time>
      </trkpt>
      <trkpt lat="46.17437" lon="2.48534">
        <ele>469</ele>
        <time>2015-04-10T12:40:58Z</time>
      </trkpt>
      <trkpt lat="46.17438" lon="2.48528">
        <ele>469</ele>
        <time>2015-04-10T12:41:00Z</time>
      </trkpt>
      <trkpt lat="46.17436" lon="2.48521">
        <ele>469</ele>
        <time>2015-04-10T12:41:02Z</time>
      </trkpt>
      <trkpt lat="46.17435" lon="2.48516">
        <ele>469</ele>
        <time>2015-04-10T12:41:04Z</time>
      </trkpt>
      <trkpt lat="46.17436" lon="2.4851">
        <ele>469</ele>
        <time>2015-04-10T12:41:06Z</time>
      </trkpt>
      <trkpt lat="46.17436" lon="2.48503">
        <ele>469</ele>
        <time>2015-04-10T12:41:08Z</time>
      </trkpt>
      <trkpt lat="46.17437" lon="2.48497">
        <ele>469</ele>
        <time>2015-04-10T12:41:10Z</time>
      </trkpt>
      <trkpt lat="46.17437" lon="2.48491">
        <ele>470</ele>
        <time>2015-04-10T12:41:12Z</time>
      </trkpt>
      <trkpt lat="46.17438" lon="2.48487">
        <ele>472</ele>
        <time>2015-04-10T12:41:14Z</time>
      </trkpt>
      <trkpt lat="46.17439" lon="2.48482">
        <ele>472</ele>
        <time>2015-04-10T12:41:16Z</time>
      </trkpt>
      <trkpt lat="46.17439" lon="2.48477">
        <ele>473</ele>
        <time>2015-04-10T12:41:18Z</time>
      </trkpt>
      <trkpt lat="46.17441" lon="2.48473">
        <ele>473</ele>
        <time>2015-04-10T12:41:20Z</time>
      </trkpt>
      <trkpt lat="46.17441" lon="2.48469">
        <ele>473</ele>
        <time>2015-04-10T12:41:22Z</time>
      </trkpt>
      <trkpt lat="46.17443" lon="2.48465">
        <ele>473</ele>
        <time>2015-04-10T12:41:24Z</time>
      </trkpt>
      <trkpt lat="46.17445" lon="2.48461">
        <ele>473</ele>
        <time>2015-04-10T12:41:27Z</time>
      </trkpt>
      <trkpt lat="46.17445" lon="2.48456">
        <ele>473</ele>
        <time>2015-04-10T12:41:29Z</time>
      </trkpt>
      <trkpt lat="46.17446" lon="2.48452">
        <ele>473</ele>
        <time>2015-04-10T12:41:32Z</time>
      </trkpt>
      <trkpt lat="46.17448" lon="2.4845">
        <ele>473</ele>
        <time>2015-04-10T12:41:34Z</time>
      </trkpt>
      <trkpt lat="46.17449" lon="2.48447">
        <ele>472</ele>
        <time>2015-04-10T12:41:36Z</time>
      </trkpt>
      <trkpt lat="46.1745" lon="2.48443">
        <ele>472</ele>
        <time>2015-04-10T12:41:38Z</time>
      </trkpt>
      <trkpt lat="46.17451" lon="2.48439">
        <ele>471</ele>
        <time>2015-04-10T12:41:40Z</time>
      </trkpt>
      <trkpt lat="46.17452" lon="2.48435">
        <ele>471</ele>
        <time>2015-04-10T12:41:42Z</time>
      </trkpt>
      <trkpt lat="46.17451" lon="2.48432">
        <ele>471</ele>
        <time>2015-04-10T12:41:44Z</time>
      </trkpt>
      <trkpt lat="46.17451" lon="2.48428">
        <ele>471</ele>
        <time>2015-04-10T12:41:46Z</time>
      </trkpt>
      <trkpt lat="46.17451" lon="2.48424">
        <ele>470</ele>
        <time>2015-04-10T12:41:48Z</time>
      </trkpt>
      <trkpt lat="46.17451" lon="2.4842">
        <ele>470</ele>
        <time>2015-04-10T12:41:50Z</time>
      </trkpt>
      <trkpt lat="46.17451" lon="2.48416">
        <ele>470</ele>
        <time>2015-04-10T12:41:52Z</time>
      </trkpt>
      <trkpt lat="46.17451" lon="2.48412">
        <ele>470</ele>
        <time>2015-04-10T12:41:54Z</time>
      </trkpt>
      <trkpt lat="46.1745" lon="2.48408">
        <ele>470</ele>
        <time>2015-04-10T12:41:56Z</time>
      </trkpt>
      <trkpt lat="46.1745" lon="2.48404">
        <ele>470</ele>
        <time>2015-04-10T12:41:58Z</time>
      </trkpt>
      <trkpt lat="46.17449" lon="2.484">
        <ele>470</ele>
        <time>2015-04-10T12:42:00Z</time>
      </trkpt>
      <trkpt lat="46.17449" lon="2.48396">
        <ele>470</ele>
        <time>2015-04-10T12:42:02Z</time>
      </trkpt>
      <trkpt lat="46.1745" lon="2.48392">
        <ele>470</ele>
        <time>2015-04-10T12:42:04Z</time>
      </trkpt>
      <trkpt lat="46.1745" lon="2.48388">
        <ele>470</ele>
        <time>2015-04-10T12:42:06Z</time>
      </trkpt>
      <trkpt lat="46.17449" lon="2.48383">
        <ele>470</ele>
        <time>2015-04-10T12:42:08Z</time>
      </trkpt>
      <trkpt lat="46.17448" lon="2.48379">
        <ele>470</ele>
        <time>2015-04-10T12:42:10Z</time>
      </trkpt>
      <trkpt lat="46.17448" lon="2.48375">
        <ele>470</ele>
        <time>2015-04-10T12:42:12Z</time>
      </trkpt>
      <trkpt lat="46.17448" lon="2.4837">
        <ele>470</ele>
        <time>2015-04-10T12:42:14Z</time>
      </trkpt>
      <trkpt lat="46.17448" lon="2.48366">
        <ele>470</ele>
        <time>2015-04-10T12:42:16Z</time>
      </trkpt>
      <trkpt lat="46.17446" lon="2.48362">
        <ele>470</ele>
        <time>2015-04-10T12:42:18Z</time>
      </trkpt>
      <trkpt lat="46.17445" lon="2.48358">
        <ele>470</ele>
        <time>2015-04-10T12:42:20Z</time>
      </trkpt>
      <trkpt lat="46.17445" lon="2.48354">
        <ele>470</ele>
        <time>2015-04-10T12:42:22Z</time>
      </trkpt>
      <trkpt lat="46.17443" lon="2.48349">
        <ele>470</ele>
        <time>2015-04-10T12:42:24Z</time>
      </trkpt>
      <trkpt lat="46.17441" lon="2.48344">
        <ele>470</ele>
        <time>2015-04-10T12:42:26Z</time>
      </trkpt>
      <trkpt lat="46.1744" lon="2.4834">
        <ele>470</ele>
        <time>2015-04-10T12:42:28Z</time>
      </trkpt>
      <trkpt lat="46.17441" lon="2.48336">
        <ele>471</ele>
        <time>2015-04-10T12:42:30Z</time>
      </trkpt>
      <trkpt lat="46.1744" lon="2.48332">
        <ele>471</ele>
        <time>2015-04-10T12:42:32Z</time>
      </trkpt>
      <trkpt lat="46.17439" lon="2.48329">
        <ele>472</ele>
        <time>2015-04-10T12:42:34Z</time>
      </trkpt>
      <trkpt lat="46.17437" lon="2.48324">
        <ele>472</ele>
        <time>2015-04-10T12:42:36Z</time>
      </trkpt>
      <trkpt lat="46.17436" lon="2.4832">
        <ele>472</ele>
        <time>2015-04-10T12:42:38Z</time>
      </trkpt>
      <trkpt lat="46.17436" lon="2.48317">
        <ele>472</ele>
        <time>2015-04-10T12:42:40Z</time>
      </trkpt>
      <trkpt lat="46.17435" lon="2.48313">
        <ele>472</ele>
        <time>2015-04-10T12:42:42Z</time>
      </trkpt>
      <trkpt lat="46.17434" lon="2.48308">
        <ele>472</ele>
        <time>2015-04-10T12:42:44Z</time>
      </trkpt>
      <trkpt lat="46.17435" lon="2.48304">
        <ele>472</ele>
        <time>2015-04-10T12:42:46Z</time>
      </trkpt>
      <trkpt lat="46.17434" lon="2.48299">
        <ele>472</ele>
        <time>2015-04-10T12:42:48Z</time>
      </trkpt>
      <trkpt lat="46.17433" lon="2.48295">
        <ele>472</ele>
        <time>2015-04-10T12:42:50Z</time>
      </trkpt>
      <trkpt lat="46.17431" lon="2.48292">
        <ele>472</ele>
        <time>2015-04-10T12:42:52Z</time>
      </trkpt>
      <trkpt lat="46.1743" lon="2.48289">
        <ele>472</ele>
        <time>2015-04-10T12:42:54Z</time>
      </trkpt>
      <trkpt lat="46.17429" lon="2.48285">
        <ele>472</ele>
        <time>2015-04-10T12:42:56Z</time>
      </trkpt>
      <trkpt lat="46.17427" lon="2.4828">
        <ele>472</ele>
        <time>2015-04-10T12:42:59Z</time>
      </trkpt>
      <trkpt lat="46.17427" lon="2.48276">
        <ele>472</ele>
        <time>2015-04-10T12:43:01Z</time>
      </trkpt>
      <trkpt lat="46.17426" lon="2.48273">
        <ele>472</ele>
        <time>2015-04-10T12:43:03Z</time>
      </trkpt>
      <trkpt lat="46.17421" lon="2.48266">
        <ele>472</ele>
        <time>2015-04-10T12:43:06Z</time>
      </trkpt>
      <trkpt lat="46.17421" lon="2.48261">
        <ele>472</ele>
        <time>2015-04-10T12:43:08Z</time>
      </trkpt>
      <trkpt lat="46.17418" lon="2.48257">
        <ele>472</ele>
        <time>2015-04-10T12:43:10Z</time>
      </trkpt>
      <trkpt lat="46.17417" lon="2.48252">
        <ele>471</ele>
        <time>2015-04-10T12:43:12Z</time>
      </trkpt>
      <trkpt lat="46.17415" lon="2.48247">
        <ele>471</ele>
        <time>2015-04-10T12:43:14Z</time>
      </trkpt>
      <trkpt lat="46.17414" lon="2.48243">
        <ele>471</ele>
        <time>2015-04-10T12:43:16Z</time>
      </trkpt>
      <trkpt lat="46.17413" lon="2.48238">
        <ele>471</ele>
        <time>2015-04-10T12:43:19Z</time>
      </trkpt>
      <trkpt lat="46.17414" lon="2.48234">
        <ele>471</ele>
        <time>2015-04-10T12:43:21Z</time>
      </trkpt>
      <trkpt lat="46.17413" lon="2.4823">
        <ele>471</ele>
        <time>2015-04-10T12:43:23Z</time>
      </trkpt>
      <trkpt lat="46.17414" lon="2.48225">
        <ele>471</ele>
        <time>2015-04-10T12:43:25Z</time>
      </trkpt>
      <trkpt lat="46.17414" lon="2.4822">
        <ele>471</ele>
        <time>2015-04-10T12:43:27Z</time>
      </trkpt>
      <trkpt lat="46.17414" lon="2.48217">
        <ele>471</ele>
        <time>2015-04-10T12:43:29Z</time>
      </trkpt>
      <trkpt lat="46.17411" lon="2.48214">
        <ele>471</ele>
        <time>2015-04-10T12:43:32Z</time>
      </trkpt>
      <trkpt lat="46.17408" lon="2.48215">
        <ele>471</ele>
        <time>2015-04-10T12:43:34Z</time>
      </trkpt>
      <trkpt lat="46.17405" lon="2.48215">
        <ele>471</ele>
        <time>2015-04-10T12:43:36Z</time>
      </trkpt>
      <trkpt lat="46.17401" lon="2.48214">
        <ele>471</ele>
        <time>2015-04-10T12:43:38Z</time>
      </trkpt>
      <trkpt lat="46.17398" lon="2.48213">
        <ele>471</ele>
        <time>2015-04-10T12:43:40Z</time>
      </trkpt>
      <trkpt lat="46.17394" lon="2.48212">
        <ele>471</ele>
        <time>2015-04-10T12:43:42Z</time>
      </trkpt>
      <trkpt lat="46.1739" lon="2.48211">
        <ele>471</ele>
        <time>2015-04-10T12:43:44Z</time>
      </trkpt>
      <trkpt lat="46.17387" lon="2.4821">
        <ele>471</ele>
        <time>2015-04-10T12:43:46Z</time>
      </trkpt>
      <trkpt lat="46.17384" lon="2.48209">
        <ele>471</ele>
        <time>2015-04-10T12:43:48Z</time>
      </trkpt>
      <trkpt lat="46.17381" lon="2.48207">
        <ele>471</ele>
        <time>2015-04-10T12:43:50Z</time>
      </trkpt>
      <trkpt lat="46.17379" lon="2.48207">
        <ele>471</ele>
        <time>2015-04-10T12:43:52Z</time>
      </trkpt>
      <trkpt lat="46.17376" lon="2.48206">
        <ele>471</ele>
        <time>2015-04-10T12:43:54Z</time>
      </trkpt>
      <trkpt lat="46.17372" lon="2.48205">
        <ele>471</ele>
        <time>2015-04-10T12:43:56Z</time>
      </trkpt>
      <trkpt lat="46.17369" lon="2.48204">
        <ele>471</ele>
        <time>2015-04-10T12:43:58Z</time>
      </trkpt>
      <trkpt lat="46.17366" lon="2.48203">
        <ele>471</ele>
        <time>2015-04-10T12:44:00Z</time>
      </trkpt>
      <trkpt lat="46.17363" lon="2.48202">
        <ele>471</ele>
        <time>2015-04-10T12:44:02Z</time>
      </trkpt>
      <trkpt lat="46.17361" lon="2.48201">
        <ele>471</ele>
        <time>2015-04-10T12:44:04Z</time>
      </trkpt>
      <trkpt lat="46.17357" lon="2.48201">
        <ele>471</ele>
        <time>2015-04-10T12:44:06Z</time>
      </trkpt>
      <trkpt lat="46.17353" lon="2.482">
        <ele>471</ele>
        <time>2015-04-10T12:44:08Z</time>
      </trkpt>
      <trkpt lat="46.17351" lon="2.48197">
        <ele>471</ele>
        <time>2015-04-10T12:44:10Z</time>
      </trkpt>
      <trkpt lat="46.17348" lon="2.48196">
        <ele>471</ele>
        <time>2015-04-10T12:44:12Z</time>
      </trkpt>
      <trkpt lat="46.17345" lon="2.48196">
        <ele>471</ele>
        <time>2015-04-10T12:44:14Z</time>
      </trkpt>
      <trkpt lat="46.17342" lon="2.48197">
        <ele>471</ele>
        <time>2015-04-10T12:44:16Z</time>
      </trkpt>
      <trkpt lat="46.17338" lon="2.48197">
        <ele>471</ele>
        <time>2015-04-10T12:44:18Z</time>
      </trkpt>
      <trkpt lat="46.17335" lon="2.48197">
        <ele>471</ele>
        <time>2015-04-10T12:44:20Z</time>
      </trkpt>
      <trkpt lat="46.17332" lon="2.48198">
        <ele>471</ele>
        <time>2015-04-10T12:44:22Z</time>
      </trkpt>
      <trkpt lat="46.17328" lon="2.48197">
        <ele>471</ele>
        <time>2015-04-10T12:44:24Z</time>
      </trkpt>
      <trkpt lat="46.17325" lon="2.48197">
        <ele>471</ele>
        <time>2015-04-10T12:44:26Z</time>
      </trkpt>
      <trkpt lat="46.17323" lon="2.48197">
        <ele>471</ele>
        <time>2015-04-10T12:44:28Z</time>
      </trkpt>
      <trkpt lat="46.1732" lon="2.48198">
        <ele>471</ele>
        <time>2015-04-10T12:44:30Z</time>
      </trkpt>
      <trkpt lat="46.17318" lon="2.482">
        <ele>471</ele>
        <time>2015-04-10T12:44:32Z</time>
      </trkpt>
      <trkpt lat="46.17315" lon="2.48201">
        <ele>471</ele>
        <time>2015-04-10T12:44:34Z</time>
      </trkpt>
      <trkpt lat="46.17311" lon="2.48202">
        <ele>471</ele>
        <time>2015-04-10T12:44:36Z</time>
      </trkpt>
      <trkpt lat="46.17308" lon="2.48203">
        <ele>471</ele>
        <time>2015-04-10T12:44:38Z</time>
      </trkpt>
      <trkpt lat="46.17306" lon="2.48204">
        <ele>471</ele>
        <time>2015-04-10T12:44:40Z</time>
      </trkpt>
      <trkpt lat="46.17303" lon="2.48204">
        <ele>471</ele>
        <time>2015-04-10T12:44:42Z</time>
      </trkpt>
      <trkpt lat="46.173" lon="2.48205">
        <ele>471</ele>
        <time>2015-04-10T12:44:44Z</time>
      </trkpt>
      <trkpt lat="46.17297" lon="2.48205">
        <ele>471</ele>
        <time>2015-04-10T12:44:46Z</time>
      </trkpt>
      <trkpt lat="46.17295" lon="2.48206">
        <ele>471</ele>
        <time>2015-04-10T12:44:48Z</time>
      </trkpt>
      <trkpt lat="46.17292" lon="2.48207">
        <ele>471</ele>
        <time>2015-04-10T12:44:50Z</time>
      </trkpt>
      <trkpt lat="46.1729" lon="2.48207">
        <ele>471</ele>
        <time>2015-04-10T12:44:52Z</time>
      </trkpt>
      <trkpt lat="46.17287" lon="2.48207">
        <ele>471</ele>
        <time>2015-04-10T12:44:54Z</time>
      </trkpt>
      <trkpt lat="46.17285" lon="2.48209">
        <ele>471</ele>
        <time>2015-04-10T12:44:56Z</time>
      </trkpt>
      <trkpt lat="46.17282" lon="2.48209">
        <ele>471</ele>
        <time>2015-04-10T12:44:58Z</time>
      </trkpt>
      <trkpt lat="46.17279" lon="2.48209">
        <ele>471</ele>
        <time>2015-04-10T12:45:00Z</time>
      </trkpt>
      <trkpt lat="46.17277" lon="2.4821">
        <ele>471</ele>
        <time>2015-04-10T12:45:02Z</time>
      </trkpt>
      <trkpt lat="46.17274" lon="2.4821">
        <ele>471</ele>
        <time>2015-04-10T12:45:04Z</time>
      </trkpt>
      <trkpt lat="46.17271" lon="2.4821">
        <ele>471</ele>
        <time>2015-04-10T12:45:06Z</time>
      </trkpt>
      <trkpt lat="46.17268" lon="2.48211">
        <ele>471</ele>
        <time>2015-04-10T12:45:08Z</time>
      </trkpt>
      <trkpt lat="46.17265" lon="2.48211">
        <ele>471</ele>
        <time>2015-04-10T12:45:10Z</time>
      </trkpt>
      <trkpt lat="46.17262" lon="2.4821">
        <ele>471</ele>
        <time>2015-04-10T12:45:12Z</time>
      </trkpt>
      <trkpt lat="46.1726" lon="2.48209">
        <ele>471</ele>
        <time>2015-04-10T12:45:14Z</time>
      </trkpt>
      <trkpt lat="46.17257" lon="2.48208">
        <ele>471</ele>
        <time>2015-04-10T12:45:16Z</time>
      </trkpt>
      <trkpt lat="46.17253" lon="2.48206">
        <ele>471</ele>
        <time>2015-04-10T12:45:18Z</time>
      </trkpt>
      <trkpt lat="46.1725" lon="2.48204">
        <ele>471</ele>
        <time>2015-04-10T12:45:20Z</time>
      </trkpt>
      <trkpt lat="46.17247" lon="2.48202">
        <ele>471</ele>
        <time>2015-04-10T12:45:22Z</time>
      </trkpt>
      <trkpt lat="46.17244" lon="2.48201">
        <ele>471</ele>
        <time>2015-04-10T12:45:24Z</time>
      </trkpt>
      <trkpt lat="46.17241" lon="2.482">
        <ele>471</ele>
        <time>2015-04-10T12:45:26Z</time>
      </trkpt>
      <trkpt lat="46.17239" lon="2.48198">
        <ele>471</ele>
        <time>2015-04-10T12:45:28Z</time>
      </trkpt>
      <trkpt lat="46.17235" lon="2.48197">
        <ele>471</ele>
        <time>2015-04-10T12:45:30Z</time>
      </trkpt>
      <trkpt lat="46.17233" lon="2.48196">
        <ele>471</ele>
        <time>2015-04-10T12:45:32Z</time>
      </trkpt>
      <trkpt lat="46.1723" lon="2.48196">
        <ele>471</ele>
        <time>2015-04-10T12:45:34Z</time>
      </trkpt>
      <trkpt lat="46.17228" lon="2.48195">
        <ele>471</ele>
        <time>2015-04-10T12:45:36Z</time>
      </trkpt>
      <trkpt lat="46.17225" lon="2.48194">
        <ele>471</ele>
        <time>2015-04-10T12:45:38Z</time>
      </trkpt>
      <trkpt lat="46.17222" lon="2.48193">
        <ele>470</ele>
        <time>2015-04-10T12:45:40Z</time>
      </trkpt>
      <trkpt lat="46.1722" lon="2.48192">
        <ele>470</ele>
        <time>2015-04-10T12:45:42Z</time>
      </trkpt>
      <trkpt lat="46.17217" lon="2.48191">
        <ele>470</ele>
        <time>2015-04-10T12:45:44Z</time>
      </trkpt>
      <trkpt lat="46.17214" lon="2.4819">
        <ele>469</ele>
        <time>2015-04-10T12:45:46Z</time>
      </trkpt>
      <trkpt lat="46.17211" lon="2.48189">
        <ele>469</ele>
        <time>2015-04-10T12:45:48Z</time>
      </trkpt>
      <trkpt lat="46.17208" lon="2.48188">
        <ele>469</ele>
        <time>2015-04-10T12:45:50Z</time>
      </trkpt>
      <trkpt lat="46.17206" lon="2.48188">
        <ele>469</ele>
        <time>2015-04-10T12:45:52Z</time>
      </trkpt>
      <trkpt lat="46.17203" lon="2.48187">
        <ele>469</ele>
        <time>2015-04-10T12:45:54Z</time>
      </trkpt>
      <trkpt lat="46.172" lon="2.48185">
        <ele>469</ele>
        <time>2015-04-10T12:45:56Z</time>
      </trkpt>
      <trkpt lat="46.17197" lon="2.48184">
        <ele>469</ele>
        <time>2015-04-10T12:45:58Z</time>
      </trkpt>
      <trkpt lat="46.17194" lon="2.48183">
        <ele>468</ele>
        <time>2015-04-10T12:46:00Z</time>
      </trkpt>
      <trkpt lat="46.17192" lon="2.48182">
        <ele>468</ele>
        <time>2015-04-10T12:46:02Z</time>
      </trkpt>
      <trkpt lat="46.17189" lon="2.48182">
        <ele>468</ele>
        <time>2015-04-10T12:46:04Z</time>
      </trkpt>
      <trkpt lat="46.17186" lon="2.48181">
        <ele>468</ele>
        <time>2015-04-10T12:46:06Z</time>
      </trkpt>
      <trkpt lat="46.17184" lon="2.4818">
        <ele>468</ele>
        <time>2015-04-10T12:46:08Z</time>
      </trkpt>
      <trkpt lat="46.17181" lon="2.48178">
        <ele>468</ele>
        <time>2015-04-10T12:46:10Z</time>
      </trkpt>
      <trkpt lat="46.17178" lon="2.48177">
        <ele>467</ele>
        <time>2015-04-10T12:46:12Z</time>
      </trkpt>
      <trkpt lat="46.17174" lon="2.48176">
        <ele>467</ele>
        <time>2015-04-10T12:46:14Z</time>
      </trkpt>
      <trkpt lat="46.17171" lon="2.48174">
        <ele>467</ele>
        <time>2015-04-10T12:46:16Z</time>
      </trkpt>
      <trkpt lat="46.17169" lon="2.48173">
        <ele>467</ele>
        <time>2015-04-10T12:46:18Z</time>
      </trkpt>
      <trkpt lat="46.17166" lon="2.48172">
        <ele>467</ele>
        <time>2015-04-10T12:46:20Z</time>
      </trkpt>
      <trkpt lat="46.17163" lon="2.48171">
        <ele>467</ele>
        <time>2015-04-10T12:46:22Z</time>
      </trkpt>
      <trkpt lat="46.1716" lon="2.48169">
        <ele>467</ele>
        <time>2015-04-10T12:46:24Z</time>
      </trkpt>
      <trkpt lat="46.17157" lon="2.48169">
        <ele>467</ele>
        <time>2015-04-10T12:46:26Z</time>
      </trkpt>
      <trkpt lat="46.17154" lon="2.48167">
        <ele>467</ele>
        <time>2015-04-10T12:46:28Z</time>
      </trkpt>
      <trkpt lat="46.17152" lon="2.48166">
        <ele>467</ele>
        <time>2015-04-10T12:46:30Z</time>
      </trkpt>
      <trkpt lat="46.17149" lon="2.48165">
        <ele>467</ele>
        <time>2015-04-10T12:46:32Z</time>
      </trkpt>
      <trkpt lat="46.17147" lon="2.48164">
        <ele>467</ele>
        <time>2015-04-10T12:46:34Z</time>
      </trkpt>
      <trkpt lat="46.17144" lon="2.48163">
        <ele>467</ele>
        <time>2015-04-10T12:46:36Z</time>
      </trkpt>
      <trkpt lat="46.17141" lon="2.48162">
        <ele>467</ele>
        <time>2015-04-10T12:46:38Z</time>
      </trkpt>
      <trkpt lat="46.17138" lon="2.48161">
        <ele>467</ele>
        <time>2015-04-10T12:46:40Z</time>
      </trkpt>
      <trkpt lat="46.17135" lon="2.4816">
        <ele>467</ele>
        <time>2015-04-10T12:46:42Z</time>
      </trkpt>
      <trkpt lat="46.17132" lon="2.48159">
        <ele>467</ele>
        <time>2015-04-10T12:46:44Z</time>
      </trkpt>
      <trkpt lat="46.17129" lon="2.48158">
        <ele>467</ele>
        <time>2015-04-10T12:46:46Z</time>
      </trkpt>
      <trkpt lat="46.17125" lon="2.48156">
        <ele>467</ele>
        <time>2015-04-10T12:46:48Z</time>
      </trkpt>
      <trkpt lat="46.17123" lon="2.48155">
        <ele>467</ele>
        <time>2015-04-10T12:46:50Z</time>
      </trkpt>
      <trkpt lat="46.17119" lon="2.48154">
        <ele>467</ele>
        <time>2015-04-10T12:46:52Z</time>
      </trkpt>
      <trkpt lat="46.17117" lon="2.48153">
        <ele>467</ele>
        <time>2015-04-10T12:46:54Z</time>
      </trkpt>
      <trkpt lat="46.17114" lon="2.48152">
        <ele>467</ele>
        <time>2015-04-10T12:46:56Z</time>
      </trkpt>
      <trkpt lat="46.17111" lon="2.48151">
        <ele>467</ele>
        <time>2015-04-10T12:46:58Z</time>
      </trkpt>
      <trkpt lat="46.17108" lon="2.4815">
        <ele>467</ele>
        <time>2015-04-10T12:47:00Z</time>
      </trkpt>
      <trkpt lat="46.17105" lon="2.48149">
        <ele>467</ele>
        <time>2015-04-10T12:47:02Z</time>
      </trkpt>
      <trkpt lat="46.17102" lon="2.48147">
        <ele>467</ele>
        <time>2015-04-10T12:47:04Z</time>
      </trkpt>
      <trkpt lat="46.17099" lon="2.48144">
        <ele>467</ele>
        <time>2015-04-10T12:47:06Z</time>
      </trkpt>
      <trkpt lat="46.17096" lon="2.48144">
        <ele>467</ele>
        <time>2015-04-10T12:47:08Z</time>
      </trkpt>
      <trkpt lat="46.17093" lon="2.48142">
        <ele>467</ele>
        <time>2015-04-10T12:47:10Z</time>
      </trkpt>
      <trkpt lat="46.17091" lon="2.48141">
        <ele>467</ele>
        <time>2015-04-10T12:47:12Z</time>
      </trkpt>
      <trkpt lat="46.17088" lon="2.4814">
        <ele>467</ele>
        <time>2015-04-10T12:47:14Z</time>
      </trkpt>
      <trkpt lat="46.17085" lon="2.48139">
        <ele>467</ele>
        <time>2015-04-10T12:47:16Z</time>
      </trkpt>
      <trkpt lat="46.17083" lon="2.48138">
        <ele>467</ele>
        <time>2015-04-10T12:47:18Z</time>
      </trkpt>
      <trkpt lat="46.1708" lon="2.48137">
        <ele>467</ele>
        <time>2015-04-10T12:47:20Z</time>
      </trkpt>
      <trkpt lat="46.17076" lon="2.48136">
        <ele>467</ele>
        <time>2015-04-10T12:47:23Z</time>
      </trkpt>
      <trkpt lat="46.17072" lon="2.48134">
        <ele>467</ele>
        <time>2015-04-10T12:47:25Z</time>
      </trkpt>
      <trkpt lat="46.17068" lon="2.48133">
        <ele>467</ele>
        <time>2015-04-10T12:47:27Z</time>
      </trkpt>
      <trkpt lat="46.17066" lon="2.48132">
        <ele>467</ele>
        <time>2015-04-10T12:47:29Z</time>
      </trkpt>
      <trkpt lat="46.17063" lon="2.48132">
        <ele>467</ele>
        <time>2015-04-10T12:47:31Z</time>
      </trkpt>
      <trkpt lat="46.1706" lon="2.48131">
        <ele>467</ele>
        <time>2015-04-10T12:47:33Z</time>
      </trkpt>
      <trkpt lat="46.17057" lon="2.4813">
        <ele>467</ele>
        <time>2015-04-10T12:47:35Z</time>
      </trkpt>
      <trkpt lat="46.17054" lon="2.4813">
        <ele>467</ele>
        <time>2015-04-10T12:47:37Z</time>
      </trkpt>
      <trkpt lat="46.17052" lon="2.48129">
        <ele>467</ele>
        <time>2015-04-10T12:47:39Z</time>
      </trkpt>
      <trkpt lat="46.17049" lon="2.48128">
        <ele>467</ele>
        <time>2015-04-10T12:47:41Z</time>
      </trkpt>
      <trkpt lat="46.17045" lon="2.48126">
        <ele>467</ele>
        <time>2015-04-10T12:47:44Z</time>
      </trkpt>
      <trkpt lat="46.17043" lon="2.48126">
        <ele>467</ele>
        <time>2015-04-10T12:47:46Z</time>
      </trkpt>
      <trkpt lat="46.17039" lon="2.48125">
        <ele>467</ele>
        <time>2015-04-10T12:47:48Z</time>
      </trkpt>
      <trkpt lat="46.17037" lon="2.48124">
        <ele>467</ele>
        <time>2015-04-10T12:47:50Z</time>
      </trkpt>
      <trkpt lat="46.17034" lon="2.48122">
        <ele>467</ele>
        <time>2015-04-10T12:47:52Z</time>
      </trkpt>
      <trkpt lat="46.17031" lon="2.48122">
        <ele>467</ele>
        <time>2015-04-10T12:47:54Z</time>
      </trkpt>
      <trkpt lat="46.17028" lon="2.4812">
        <ele>467</ele>
        <time>2015-04-10T12:47:56Z</time>
      </trkpt>
      <trkpt lat="46.17025" lon="2.48119">
        <ele>467</ele>
        <time>2015-04-10T12:47:58Z</time>
      </trkpt>
      <trkpt lat="46.17022" lon="2.48117">
        <ele>467</ele>
        <time>2015-04-10T12:48:00Z</time>
      </trkpt>
      <trkpt lat="46.17019" lon="2.48117">
        <ele>467</ele>
        <time>2015-04-10T12:48:02Z</time>
      </trkpt>
      <trkpt lat="46.17017" lon="2.48116">
        <ele>467</ele>
        <time>2015-04-10T12:48:04Z</time>
      </trkpt>
      <trkpt lat="46.17014" lon="2.48115">
        <ele>467</ele>
        <time>2015-04-10T12:48:06Z</time>
      </trkpt>
      <trkpt lat="46.17011" lon="2.48114">
        <ele>467</ele>
        <time>2015-04-10T12:48:08Z</time>
      </trkpt>
      <trkpt lat="46.17008" lon="2.48114">
        <ele>467</ele>
        <time>2015-04-10T12:48:10Z</time>
      </trkpt>
      <trkpt lat="46.17005" lon="2.48113">
        <ele>467</ele>
        <time>2015-04-10T12:48:12Z</time>
      </trkpt>
      <trkpt lat="46.17002" lon="2.48112">
        <ele>467</ele>
        <time>2015-04-10T12:48:14Z</time>
      </trkpt>
      <trkpt lat="46.17" lon="2.4811">
        <ele>467</ele>
        <time>2015-04-10T12:48:16Z</time>
      </trkpt>
      <trkpt lat="46.16997" lon="2.48109">
        <ele>467</ele>
        <time>2015-04-10T12:48:18Z</time>
      </trkpt>
      <trkpt lat="46.16994" lon="2.48108">
        <ele>467</ele>
        <time>2015-04-10T12:48:20Z</time>
      </trkpt>
      <trkpt lat="46.16991" lon="2.48107">
        <ele>467</ele>
        <time>2015-04-10T12:48:22Z</time>
      </trkpt>
      <trkpt lat="46.16988" lon="2.48105">
        <ele>467</ele>
        <time>2015-04-10T12:48:24Z</time>
      </trkpt>
      <trkpt lat="46.16985" lon="2.48103">
        <ele>467</ele>
        <time>2015-04-10T12:48:26Z</time>
      </trkpt>
      <trkpt lat="46.16981" lon="2.48102">
        <ele>467</ele>
        <time>2015-04-10T12:48:28Z</time>
      </trkpt>
      <trkpt lat="46.16979" lon="2.48102">
        <ele>467</ele>
        <time>2015-04-10T12:48:30Z</time>
      </trkpt>
      <trkpt lat="46.16976" lon="2.48102">
        <ele>467</ele>
        <time>2015-04-10T12:48:32Z</time>
      </trkpt>
      <trkpt lat="46.16973" lon="2.48101">
        <ele>467</ele>
        <time>2015-04-10T12:48:34Z</time>
      </trkpt>
      <trkpt lat="46.16969" lon="2.481">
        <ele>467</ele>
        <time>2015-04-10T12:48:36Z</time>
      </trkpt>
      <trkpt lat="46.16966" lon="2.481">
        <ele>467</ele>
        <time>2015-04-10T12:48:38Z</time>
      </trkpt>
      <trkpt lat="46.16964" lon="2.481">
        <ele>467</ele>
        <time>2015-04-10T12:48:40Z</time>
      </trkpt>
      <trkpt lat="46.1696" lon="2.481">
        <ele>467</ele>
        <time>2015-04-10T12:48:42Z</time>
      </trkpt>
      <trkpt lat="46.16957" lon="2.481">
        <ele>467</ele>
        <time>2015-04-10T12:48:44Z</time>
      </trkpt>
      <trkpt lat="46.16954" lon="2.48099">
        <ele>467</ele>
        <time>2015-04-10T12:48:46Z</time>
      </trkpt>
      <trkpt lat="46.16951" lon="2.48098">
        <ele>467</ele>
        <time>2015-04-10T12:48:48Z</time>
      </trkpt>
      <trkpt lat="46.16948" lon="2.48099">
        <ele>467</ele>
        <time>2015-04-10T12:48:50Z</time>
      </trkpt>
      <trkpt lat="46.16946" lon="2.48099">
        <ele>467</ele>
        <time>2015-04-10T12:48:52Z</time>
      </trkpt>
      <trkpt lat="46.16943" lon="2.48098">
        <ele>467</ele>
        <time>2015-04-10T12:48:54Z</time>
      </trkpt>
      <trkpt lat="46.1694" lon="2.48098">
        <ele>467</ele>
        <time>2015-04-10T12:48:56Z</time>
      </trkpt>
      <trkpt lat="46.16937" lon="2.48098">
        <ele>467</ele>
        <time>2015-04-10T12:48:58Z</time>
      </trkpt>
      <trkpt lat="46.16935" lon="2.48098">
        <ele>467</ele>
        <time>2015-04-10T12:49:00Z</time>
      </trkpt>
      <trkpt lat="46.16932" lon="2.48098">
        <ele>467</ele>
        <time>2015-04-10T12:49:02Z</time>
      </trkpt>
      <trkpt lat="46.1693" lon="2.48098">
        <ele>467</ele>
        <time>2015-04-10T12:49:04Z</time>
      </trkpt>
      <trkpt lat="46.16926" lon="2.48098">
        <ele>467</ele>
        <time>2015-04-10T12:49:06Z</time>
      </trkpt>
      <trkpt lat="46.16922" lon="2.48097">
        <ele>467</ele>
        <time>2015-04-10T12:49:08Z</time>
      </trkpt>
      <trkpt lat="46.16919" lon="2.48097">
        <ele>467</ele>
        <time>2015-04-10T12:49:10Z</time>
      </trkpt>
      <trkpt lat="46.16916" lon="2.48096">
        <ele>467</ele>
        <time>2015-04-10T12:49:12Z</time>
      </trkpt>
      <trkpt lat="46.16914" lon="2.48096">
        <ele>467</ele>
        <time>2015-04-10T12:49:14Z</time>
      </trkpt>
      <trkpt lat="46.16911" lon="2.48096">
        <ele>467</ele>
        <time>2015-04-10T12:49:16Z</time>
      </trkpt>
      <trkpt lat="46.16908" lon="2.48096">
        <ele>467</ele>
        <time>2015-04-10T12:49:18Z</time>
      </trkpt>
      <trkpt lat="46.16905" lon="2.48096">
        <ele>467</ele>
        <time>2015-04-10T12:49:20Z</time>
      </trkpt>
      <trkpt lat="46.16903" lon="2.48096">
        <ele>467</ele>
        <time>2015-04-10T12:49:22Z</time>
      </trkpt>
      <trkpt lat="46.169" lon="2.48095">
        <ele>467</ele>
        <time>2015-04-10T12:49:24Z</time>
      </trkpt>
      <trkpt lat="46.16898" lon="2.48095">
        <ele>467</ele>
        <time>2015-04-10T12:49:26Z</time>
      </trkpt>
      <trkpt lat="46.16893" lon="2.48094">
        <ele>467</ele>
        <time>2015-04-10T12:49:29Z</time>
      </trkpt>
      <trkpt lat="46.1689" lon="2.48093">
        <ele>467</ele>
        <time>2015-04-10T12:49:31Z</time>
      </trkpt>
      <trkpt lat="46.16887" lon="2.48093">
        <ele>467</ele>
        <time>2015-04-10T12:49:33Z</time>
      </trkpt>
      <trkpt lat="46.16884" lon="2.48093">
        <ele>467</ele>
        <time>2015-04-10T12:49:35Z</time>
      </trkpt>
      <trkpt lat="46.16881" lon="2.48093">
        <ele>467</ele>
        <time>2015-04-10T12:49:37Z</time>
      </trkpt>
      <trkpt lat="46.16878" lon="2.48092">
        <ele>467</ele>
        <time>2015-04-10T12:49:39Z</time>
      </trkpt>
      <trkpt lat="46.16874" lon="2.48091">
        <ele>467</ele>
        <time>2015-04-10T12:49:41Z</time>
      </trkpt>
      <trkpt lat="46.16872" lon="2.48091">
        <ele>467</ele>
        <time>2015-04-10T12:49:43Z</time>
      </trkpt>
      <trkpt lat="46.16869" lon="2.48091">
        <ele>467</ele>
        <time>2015-04-10T12:49:45Z</time>
      </trkpt>
      <trkpt lat="46.16866" lon="2.4809">
        <ele>467</ele>
        <time>2015-04-10T12:49:48Z</time>
      </trkpt>
      <trkpt lat="46.16864" lon="2.4809">
        <ele>467</ele>
        <time>2015-04-10T12:49:50Z</time>
      </trkpt>
      <trkpt lat="46.16861" lon="2.48089">
        <ele>467</ele>
        <time>2015-04-10T12:49:52Z</time>
      </trkpt>
      <trkpt lat="46.16857" lon="2.48089">
        <ele>467</ele>
        <time>2015-04-10T12:49:54Z</time>
      </trkpt>
      <trkpt lat="46.16854" lon="2.48089">
        <ele>467</ele>
        <time>2015-04-10T12:49:56Z</time>
      </trkpt>
      <trkpt lat="46.1685" lon="2.48088">
        <ele>467</ele>
        <time>2015-04-10T12:49:58Z</time>
      </trkpt>
      <trkpt lat="46.16847" lon="2.48088">
        <ele>467</ele>
        <time>2015-04-10T12:50:00Z</time>
      </trkpt>
      <trkpt lat="46.16845" lon="2.48088">
        <ele>467</ele>
        <time>2015-04-10T12:50:02Z</time>
      </trkpt>
      <trkpt lat="46.16842" lon="2.48087">
        <ele>467</ele>
        <time>2015-04-10T12:50:04Z</time>
      </trkpt>
      <trkpt lat="46.16838" lon="2.48087">
        <ele>467</ele>
        <time>2015-04-10T12:50:06Z</time>
      </trkpt>
      <trkpt lat="46.16835" lon="2.48087">
        <ele>467</ele>
        <time>2015-04-10T12:50:08Z</time>
      </trkpt>
      <trkpt lat="46.16832" lon="2.48087">
        <ele>467</ele>
        <time>2015-04-10T12:50:10Z</time>
      </trkpt>
      <trkpt lat="46.16829" lon="2.48087">
        <ele>467</ele>
        <time>2015-04-10T12:50:12Z</time>
      </trkpt>
      <trkpt lat="46.16826" lon="2.48086">
        <ele>467</ele>
        <time>2015-04-10T12:50:14Z</time>
      </trkpt>
      <trkpt lat="46.16823" lon="2.48086">
        <ele>467</ele>
        <time>2015-04-10T12:50:16Z</time>
      </trkpt>
      <trkpt lat="46.16821" lon="2.48087">
        <ele>467</ele>
        <time>2015-04-10T12:50:18Z</time>
      </trkpt>
      <trkpt lat="46.16817" lon="2.48086">
        <ele>467</ele>
        <time>2015-04-10T12:50:20Z</time>
      </trkpt>
      <trkpt lat="46.16814" lon="2.48086">
        <ele>467</ele>
        <time>2015-04-10T12:50:22Z</time>
      </trkpt>
      <trkpt lat="46.16812" lon="2.48086">
        <ele>466</ele>
        <time>2015-04-10T12:50:24Z</time>
      </trkpt>
      <trkpt lat="46.16809" lon="2.48087">
        <ele>466</ele>
        <time>2015-04-10T12:50:26Z</time>
      </trkpt>
      <trkpt lat="46.16806" lon="2.48087">
        <ele>465</ele>
        <time>2015-04-10T12:50:28Z</time>
      </trkpt>
      <trkpt lat="46.16803" lon="2.48087">
        <ele>465</ele>
        <time>2015-04-10T12:50:30Z</time>
      </trkpt>
      <trkpt lat="46.168" lon="2.48087">
        <ele>465</ele>
        <time>2015-04-10T12:50:32Z</time>
      </trkpt>
      <trkpt lat="46.16797" lon="2.48087">
        <ele>465</ele>
        <time>2015-04-10T12:50:34Z</time>
      </trkpt>
      <trkpt lat="46.16793" lon="2.48086">
        <ele>465</ele>
        <time>2015-04-10T12:50:36Z</time>
      </trkpt>
      <trkpt lat="46.16791" lon="2.48085">
        <ele>465</ele>
        <time>2015-04-10T12:50:38Z</time>
      </trkpt>
      <trkpt lat="46.16787" lon="2.48085">
        <ele>465</ele>
        <time>2015-04-10T12:50:40Z</time>
      </trkpt>
      <trkpt lat="46.16785" lon="2.48084">
        <ele>465</ele>
        <time>2015-04-10T12:50:42Z</time>
      </trkpt>
      <trkpt lat="46.16782" lon="2.48084">
        <ele>465</ele>
        <time>2015-04-10T12:50:44Z</time>
      </trkpt>
      <trkpt lat="46.16779" lon="2.48084">
        <ele>465</ele>
        <time>2015-04-10T12:50:46Z</time>
      </trkpt>
      <trkpt lat="46.16776" lon="2.48084">
        <ele>465</ele>
        <time>2015-04-10T12:50:48Z</time>
      </trkpt>
      <trkpt lat="46.16773" lon="2.48083">
        <ele>465</ele>
        <time>2015-04-10T12:50:50Z</time>
      </trkpt>
      <trkpt lat="46.1677" lon="2.48083">
        <ele>465</ele>
        <time>2015-04-10T12:50:52Z</time>
      </trkpt>
      <trkpt lat="46.16767" lon="2.48082">
        <ele>465</ele>
        <time>2015-04-10T12:50:54Z</time>
      </trkpt>
      <trkpt lat="46.16763" lon="2.48081">
        <ele>465</ele>
        <time>2015-04-10T12:50:56Z</time>
      </trkpt>
      <trkpt lat="46.1676" lon="2.4808">
        <ele>465</ele>
        <time>2015-04-10T12:50:58Z</time>
      </trkpt>
      <trkpt lat="46.16757" lon="2.4808">
        <ele>465</ele>
        <time>2015-04-10T12:51:00Z</time>
      </trkpt>
      <trkpt lat="46.16754" lon="2.48079">
        <ele>465</ele>
        <time>2015-04-10T12:51:02Z</time>
      </trkpt>
      <trkpt lat="46.16751" lon="2.48079">
        <ele>465</ele>
        <time>2015-04-10T12:51:04Z</time>
      </trkpt>
      <trkpt lat="46.16748" lon="2.48079">
        <ele>465</ele>
        <time>2015-04-10T12:51:06Z</time>
      </trkpt>
      <trkpt lat="46.16746" lon="2.48079">
        <ele>465</ele>
        <time>2015-04-10T12:51:08Z</time>
      </trkpt>
      <trkpt lat="46.16742" lon="2.48078">
        <ele>465</ele>
        <time>2015-04-10T12:51:10Z</time>
      </trkpt>
      <trkpt lat="46.1674" lon="2.48078">
        <ele>465</ele>
        <time>2015-04-10T12:51:12Z</time>
      </trkpt>
      <trkpt lat="46.16736" lon="2.48078">
        <ele>465</ele>
        <time>2015-04-10T12:51:14Z</time>
      </trkpt>
      <trkpt lat="46.16732" lon="2.48078">
        <ele>465</ele>
        <time>2015-04-10T12:51:16Z</time>
      </trkpt>
      <trkpt lat="46.16729" lon="2.48079">
        <ele>465</ele>
        <time>2015-04-10T12:51:18Z</time>
      </trkpt>
      <trkpt lat="46.16726" lon="2.48078">
        <ele>465</ele>
        <time>2015-04-10T12:51:21Z</time>
      </trkpt>
      <trkpt lat="46.16724" lon="2.48078">
        <ele>465</ele>
        <time>2015-04-10T12:51:23Z</time>
      </trkpt>
      <trkpt lat="46.16721" lon="2.48078">
        <ele>465</ele>
        <time>2015-04-10T12:51:25Z</time>
      </trkpt>
      <trkpt lat="46.16718" lon="2.48078">
        <ele>465</ele>
        <time>2015-04-10T12:51:27Z</time>
      </trkpt>
      <trkpt lat="46.16716" lon="2.48078">
        <ele>465</ele>
        <time>2015-04-10T12:51:29Z</time>
      </trkpt>
      <trkpt lat="46.16713" lon="2.48078">
        <ele>465</ele>
        <time>2015-04-10T12:51:31Z</time>
      </trkpt>
      <trkpt lat="46.1671" lon="2.48078">
        <ele>465</ele>
        <time>2015-04-10T12:51:33Z</time>
      </trkpt>
      <trkpt lat="46.16708" lon="2.48078">
        <ele>465</ele>
        <time>2015-04-10T12:51:35Z</time>
      </trkpt>
      <trkpt lat="46.16705" lon="2.48078">
        <ele>465</ele>
        <time>2015-04-10T12:51:37Z</time>
      </trkpt>
      <trkpt lat="46.16702" lon="2.48079">
        <ele>465</ele>
        <time>2015-04-10T12:51:39Z</time>
      </trkpt>
      <trkpt lat="46.167" lon="2.48078">
        <ele>465</ele>
        <time>2015-04-10T12:51:41Z</time>
      </trkpt>
      <trkpt lat="46.16697" lon="2.48078">
        <ele>465</ele>
        <time>2015-04-10T12:51:43Z</time>
      </trkpt>
      <trkpt lat="46.16694" lon="2.48077">
        <ele>465</ele>
        <time>2015-04-10T12:51:45Z</time>
      </trkpt>
      <trkpt lat="46.16691" lon="2.48076">
        <ele>465</ele>
        <time>2015-04-10T12:51:47Z</time>
      </trkpt>
      <trkpt lat="46.16688" lon="2.48075">
        <ele>465</ele>
        <time>2015-04-10T12:51:49Z</time>
      </trkpt>
      <trkpt lat="46.16685" lon="2.48075">
        <ele>465</ele>
        <time>2015-04-10T12:51:51Z</time>
      </trkpt>
      <trkpt lat="46.16682" lon="2.48074">
        <ele>465</ele>
        <time>2015-04-10T12:51:53Z</time>
      </trkpt>
      <trkpt lat="46.16679" lon="2.48074">
        <ele>465</ele>
        <time>2015-04-10T12:51:55Z</time>
      </trkpt>
      <trkpt lat="46.16676" lon="2.48073">
        <ele>465</ele>
        <time>2015-04-10T12:51:57Z</time>
      </trkpt>
      <trkpt lat="46.16673" lon="2.48073">
        <ele>465</ele>
        <time>2015-04-10T12:51:59Z</time>
      </trkpt>
      <trkpt lat="46.1667" lon="2.48072">
        <ele>465</ele>
        <time>2015-04-10T12:52:01Z</time>
      </trkpt>
      <trkpt lat="46.16667" lon="2.48073">
        <ele>465</ele>
        <time>2015-04-10T12:52:03Z</time>
      </trkpt>
      <trkpt lat="46.16664" lon="2.48073">
        <ele>465</ele>
        <time>2015-04-10T12:52:05Z</time>
      </trkpt>
      <trkpt lat="46.16661" lon="2.48073">
        <ele>465</ele>
        <time>2015-04-10T12:52:07Z</time>
      </trkpt>
      <trkpt lat="46.16658" lon="2.48073">
        <ele>465</ele>
        <time>2015-04-10T12:52:09Z</time>
      </trkpt>
      <trkpt lat="46.16656" lon="2.48072">
        <ele>465</ele>
        <time>2015-04-10T12:52:11Z</time>
      </trkpt>
      <trkpt lat="46.16653" lon="2.48072">
        <ele>465</ele>
        <time>2015-04-10T12:52:13Z</time>
      </trkpt>
      <trkpt lat="46.1665" lon="2.48072">
        <ele>465</ele>
        <time>2015-04-10T12:52:15Z</time>
      </trkpt>
      <trkpt lat="46.16647" lon="2.48072">
        <ele>465</ele>
        <time>2015-04-10T12:52:17Z</time>
      </trkpt>
      <trkpt lat="46.16644" lon="2.48071">
        <ele>465</ele>
        <time>2015-04-10T12:52:19Z</time>
      </trkpt>
      <trkpt lat="46.16641" lon="2.48071">
        <ele>465</ele>
        <time>2015-04-10T12:52:21Z</time>
      </trkpt>
      <trkpt lat="46.16638" lon="2.4807">
        <ele>465</ele>
        <time>2015-04-10T12:52:23Z</time>
      </trkpt>
      <trkpt lat="46.16636" lon="2.48071">
        <ele>465</ele>
        <time>2015-04-10T12:52:25Z</time>
      </trkpt>
      <trkpt lat="46.16633" lon="2.4807">
        <ele>465</ele>
        <time>2015-04-10T12:52:27Z</time>
      </trkpt>
      <trkpt lat="46.1663" lon="2.48069">
        <ele>465</ele>
        <time>2015-04-10T12:52:29Z</time>
      </trkpt>
      <trkpt lat="46.16627" lon="2.48067">
        <ele>465</ele>
        <time>2015-04-10T12:52:31Z</time>
      </trkpt>
      <trkpt lat="46.16624" lon="2.48065">
        <ele>465</ele>
        <time>2015-04-10T12:52:33Z</time>
      </trkpt>
      <trkpt lat="46.16621" lon="2.48062">
        <ele>465</ele>
        <time>2015-04-10T12:52:35Z</time>
      </trkpt>
      <trkpt lat="46.16619" lon="2.48059">
        <ele>465</ele>
        <time>2015-04-10T12:52:37Z</time>
      </trkpt>
      <trkpt lat="46.16616" lon="2.48055">
        <ele>465</ele>
        <time>2015-04-10T12:52:39Z</time>
      </trkpt>
      <trkpt lat="46.16614" lon="2.48052">
        <ele>465</ele>
        <time>2015-04-10T12:52:41Z</time>
      </trkpt>
      <trkpt lat="46.16611" lon="2.48048">
        <ele>466</ele>
        <time>2015-04-10T12:52:43Z</time>
      </trkpt>
      <trkpt lat="46.16609" lon="2.48045">
        <ele>466</ele>
        <time>2015-04-10T12:52:45Z</time>
      </trkpt>
      <trkpt lat="46.16607" lon="2.48041">
        <ele>466</ele>
        <time>2015-04-10T12:52:47Z</time>
      </trkpt>
      <trkpt lat="46.16604" lon="2.48038">
        <ele>466</ele>
        <time>2015-04-10T12:52:49Z</time>
      </trkpt>
      <trkpt lat="46.16602" lon="2.48035">
        <ele>466</ele>
        <time>2015-04-10T12:52:51Z</time>
      </trkpt>
      <trkpt lat="46.166" lon="2.48032">
        <ele>466</ele>
        <time>2015-04-10T12:52:53Z</time>
      </trkpt>
      <trkpt lat="46.16598" lon="2.48029">
        <ele>466</ele>
        <time>2015-04-10T12:52:55Z</time>
      </trkpt>
      <trkpt lat="46.16595" lon="2.48027">
        <ele>466</ele>
        <time>2015-04-10T12:52:57Z</time>
      </trkpt>
      <trkpt lat="46.16593" lon="2.48025">
        <ele>466</ele>
        <time>2015-04-10T12:52:59Z</time>
      </trkpt>
      <trkpt lat="46.1659" lon="2.48023">
        <ele>466</ele>
        <time>2015-04-10T12:53:01Z</time>
      </trkpt>
      <trkpt lat="46.16588" lon="2.4802">
        <ele>466</ele>
        <time>2015-04-10T12:53:03Z</time>
      </trkpt>
      <trkpt lat="46.16586" lon="2.48018">
        <ele>466</ele>
        <time>2015-04-10T12:53:05Z</time>
      </trkpt>
      <trkpt lat="46.16584" lon="2.48016">
        <ele>466</ele>
        <time>2015-04-10T12:53:07Z</time>
      </trkpt>
      <trkpt lat="46.16581" lon="2.48014">
        <ele>466</ele>
        <time>2015-04-10T12:53:09Z</time>
      </trkpt>
      <trkpt lat="46.16579" lon="2.48011">
        <ele>466</ele>
        <time>2015-04-10T12:53:11Z</time>
      </trkpt>
      <trkpt lat="46.16577" lon="2.48009">
        <ele>466</ele>
        <time>2015-04-10T12:53:13Z</time>
      </trkpt>
      <trkpt lat="46.16574" lon="2.48008">
        <ele>466</ele>
        <time>2015-04-10T12:53:15Z</time>
      </trkpt>
      <trkpt lat="46.16571" lon="2.48007">
        <ele>466</ele>
        <time>2015-04-10T12:53:17Z</time>
      </trkpt>
      <trkpt lat="46.16568" lon="2.48006">
        <ele>466</ele>
        <time>2015-04-10T12:53:19Z</time>
      </trkpt>
      <trkpt lat="46.16566" lon="2.48004">
        <ele>466</ele>
        <time>2015-04-10T12:53:21Z</time>
      </trkpt>
      <trkpt lat="46.16562" lon="2.48">
        <ele>466</ele>
        <time>2015-04-10T12:53:24Z</time>
      </trkpt>
      <trkpt lat="46.16559" lon="2.47997">
        <ele>466</ele>
        <time>2015-04-10T12:53:26Z</time>
      </trkpt>
      <trkpt lat="46.16556" lon="2.47994">
        <ele>466</ele>
        <time>2015-04-10T12:53:28Z</time>
      </trkpt>
      <trkpt lat="46.16553" lon="2.47992">
        <ele>467</ele>
        <time>2015-04-10T12:53:30Z</time>
      </trkpt>
      <trkpt lat="46.16551" lon="2.4799">
        <ele>467</ele>
        <time>2015-04-10T12:53:32Z</time>
      </trkpt>
      <trkpt lat="46.16548" lon="2.47988">
        <ele>467</ele>
        <time>2015-04-10T12:53:34Z</time>
      </trkpt>
      <trkpt lat="46.16546" lon="2.47986">
        <ele>467</ele>
        <time>2015-04-10T12:53:36Z</time>
      </trkpt>
      <trkpt lat="46.16543" lon="2.47984">
        <ele>467</ele>
        <time>2015-04-10T12:53:38Z</time>
      </trkpt>
      <trkpt lat="46.16541" lon="2.47982">
        <ele>467</ele>
        <time>2015-04-10T12:53:40Z</time>
      </trkpt>
      <trkpt lat="46.16538" lon="2.4798">
        <ele>467</ele>
        <time>2015-04-10T12:53:42Z</time>
      </trkpt>
      <trkpt lat="46.16535" lon="2.47977">
        <ele>467</ele>
        <time>2015-04-10T12:53:44Z</time>
      </trkpt>
      <trkpt lat="46.16533" lon="2.47975">
        <ele>467</ele>
        <time>2015-04-10T12:53:46Z</time>
      </trkpt>
      <trkpt lat="46.1653" lon="2.47973">
        <ele>468</ele>
        <time>2015-04-10T12:53:48Z</time>
      </trkpt>
      <trkpt lat="46.16527" lon="2.47971">
        <ele>468</ele>
        <time>2015-04-10T12:53:50Z</time>
      </trkpt>
      <trkpt lat="46.16525" lon="2.47969">
        <ele>468</ele>
        <time>2015-04-10T12:53:52Z</time>
      </trkpt>
      <trkpt lat="46.16522" lon="2.47967">
        <ele>468</ele>
        <time>2015-04-10T12:53:54Z</time>
      </trkpt>
      <trkpt lat="46.1652" lon="2.47965">
        <ele>468</ele>
        <time>2015-04-10T12:53:56Z</time>
      </trkpt>
      <trkpt lat="46.16517" lon="2.47963">
        <ele>468</ele>
        <time>2015-04-10T12:53:58Z</time>
      </trkpt>
      <trkpt lat="46.16514" lon="2.47961">
        <ele>468</ele>
        <time>2015-04-10T12:54:00Z</time>
      </trkpt>
      <trkpt lat="46.16512" lon="2.47959">
        <ele>468</ele>
        <time>2015-04-10T12:54:02Z</time>
      </trkpt>
      <trkpt lat="46.1651" lon="2.47957">
        <ele>468</ele>
        <time>2015-04-10T12:54:04Z</time>
      </trkpt>
      <trkpt lat="46.16507" lon="2.47955">
        <ele>468</ele>
        <time>2015-04-10T12:54:06Z</time>
      </trkpt>
      <trkpt lat="46.16505" lon="2.47953">
        <ele>468</ele>
        <time>2015-04-10T12:54:08Z</time>
      </trkpt>
      <trkpt lat="46.16502" lon="2.47951">
        <ele>468</ele>
        <time>2015-04-10T12:54:10Z</time>
      </trkpt>
      <trkpt lat="46.165" lon="2.47949">
        <ele>468</ele>
        <time>2015-04-10T12:54:12Z</time>
      </trkpt>
      <trkpt lat="46.16497" lon="2.47945">
        <ele>468</ele>
        <time>2015-04-10T12:54:15Z</time>
      </trkpt>
      <trkpt lat="46.16494" lon="2.47941">
        <ele>468</ele>
        <time>2015-04-10T12:54:17Z</time>
      </trkpt>
      <trkpt lat="46.16492" lon="2.47938">
        <ele>468</ele>
        <time>2015-04-10T12:54:19Z</time>
      </trkpt>
      <trkpt lat="46.1649" lon="2.47935">
        <ele>468</ele>
        <time>2015-04-10T12:54:21Z</time>
      </trkpt>
      <trkpt lat="46.16488" lon="2.47931">
        <ele>468</ele>
        <time>2015-04-10T12:54:23Z</time>
      </trkpt>
      <trkpt lat="46.16486" lon="2.47927">
        <ele>468</ele>
        <time>2015-04-10T12:54:25Z</time>
      </trkpt>
      <trkpt lat="46.16484" lon="2.47922">
        <ele>468</ele>
        <time>2015-04-10T12:54:27Z</time>
      </trkpt>
      <trkpt lat="46.16483" lon="2.47919">
        <ele>469</ele>
        <time>2015-04-10T12:54:29Z</time>
      </trkpt>
      <trkpt lat="46.16482" lon="2.47915">
        <ele>469</ele>
        <time>2015-04-10T12:54:31Z</time>
      </trkpt>
      <trkpt lat="46.1648" lon="2.4791">
        <ele>469</ele>
        <time>2015-04-10T12:54:33Z</time>
      </trkpt>
      <trkpt lat="46.16479" lon="2.47907">
        <ele>469</ele>
        <time>2015-04-10T12:54:35Z</time>
      </trkpt>
      <trkpt lat="46.16478" lon="2.47903">
        <ele>470</ele>
        <time>2015-04-10T12:54:37Z</time>
      </trkpt>
      <trkpt lat="46.16477" lon="2.479">
        <ele>470</ele>
        <time>2015-04-10T12:54:39Z</time>
      </trkpt>
      <trkpt lat="46.16476" lon="2.47896">
        <ele>470</ele>
        <time>2015-04-10T12:54:41Z</time>
      </trkpt>
      <trkpt lat="46.16474" lon="2.47892">
        <ele>470</ele>
        <time>2015-04-10T12:54:43Z</time>
      </trkpt>
      <trkpt lat="46.16472" lon="2.47888">
        <ele>470</ele>
        <time>2015-04-10T12:54:45Z</time>
      </trkpt>
      <trkpt lat="46.16469" lon="2.47885">
        <ele>470</ele>
        <time>2015-04-10T12:54:48Z</time>
      </trkpt>
      <trkpt lat="46.16467" lon="2.47883">
        <ele>470</ele>
        <time>2015-04-10T12:54:50Z</time>
      </trkpt>
      <trkpt lat="46.16464" lon="2.47882">
        <ele>470</ele>
        <time>2015-04-10T12:54:52Z</time>
      </trkpt>
      <trkpt lat="46.16461" lon="2.47881">
        <ele>470</ele>
        <time>2015-04-10T12:54:54Z</time>
      </trkpt>
      <trkpt lat="46.16458" lon="2.47881">
        <ele>470</ele>
        <time>2015-04-10T12:54:56Z</time>
      </trkpt>
      <trkpt lat="46.16455" lon="2.4788">
        <ele>470</ele>
        <time>2015-04-10T12:54:58Z</time>
      </trkpt>
      <trkpt lat="46.16452" lon="2.47881">
        <ele>470</ele>
        <time>2015-04-10T12:55:00Z</time>
      </trkpt>
      <trkpt lat="46.16449" lon="2.47882">
        <ele>470</ele>
        <time>2015-04-10T12:55:02Z</time>
      </trkpt>
      <trkpt lat="46.16446" lon="2.47883">
        <ele>470</ele>
        <time>2015-04-10T12:55:04Z</time>
      </trkpt>
      <trkpt lat="46.16443" lon="2.47884">
        <ele>470</ele>
        <time>2015-04-10T12:55:06Z</time>
      </trkpt>
      <trkpt lat="46.1644" lon="2.47887">
        <ele>470</ele>
        <time>2015-04-10T12:55:08Z</time>
      </trkpt>
      <trkpt lat="46.16437" lon="2.47889">
        <ele>470</ele>
        <time>2015-04-10T12:55:10Z</time>
      </trkpt>
      <trkpt lat="46.16434" lon="2.47891">
        <ele>470</ele>
        <time>2015-04-10T12:55:12Z</time>
      </trkpt>
      <trkpt lat="46.16431" lon="2.47892">
        <ele>470</ele>
        <time>2015-04-10T12:55:14Z</time>
      </trkpt>
      <trkpt lat="46.16429" lon="2.47894">
        <ele>470</ele>
        <time>2015-04-10T12:55:16Z</time>
      </trkpt>
      <trkpt lat="46.16426" lon="2.47895">
        <ele>470</ele>
        <time>2015-04-10T12:55:18Z</time>
      </trkpt>
      <trkpt lat="46.16423" lon="2.47896">
        <ele>470</ele>
        <time>2015-04-10T12:55:20Z</time>
      </trkpt>
      <trkpt lat="46.1642" lon="2.47897">
        <ele>470</ele>
        <time>2015-04-10T12:55:22Z</time>
      </trkpt>
      <trkpt lat="46.16417" lon="2.47897">
        <ele>470</ele>
        <time>2015-04-10T12:55:24Z</time>
      </trkpt>
      <trkpt lat="46.16414" lon="2.47897">
        <ele>470</ele>
        <time>2015-04-10T12:55:26Z</time>
      </trkpt>
      <trkpt lat="46.16411" lon="2.47896">
        <ele>470</ele>
        <time>2015-04-10T12:55:28Z</time>
      </trkpt>
      <trkpt lat="46.16408" lon="2.47895">
        <ele>470</ele>
        <time>2015-04-10T12:55:30Z</time>
      </trkpt>
      <trkpt lat="46.16406" lon="2.47894">
        <ele>470</ele>
        <time>2015-04-10T12:55:32Z</time>
      </trkpt>
      <trkpt lat="46.16403" lon="2.47894">
        <ele>470</ele>
        <time>2015-04-10T12:55:34Z</time>
      </trkpt>
      <trkpt lat="46.164" lon="2.47893">
        <ele>470</ele>
        <time>2015-04-10T12:55:36Z</time>
      </trkpt>
      <trkpt lat="46.16398" lon="2.47892">
        <ele>470</ele>
        <time>2015-04-10T12:55:38Z</time>
      </trkpt>
      <trkpt lat="46.16395" lon="2.47891">
        <ele>470</ele>
        <time>2015-04-10T12:55:40Z</time>
      </trkpt>
      <trkpt lat="46.16392" lon="2.47889">
        <ele>470</ele>
        <time>2015-04-10T12:55:42Z</time>
      </trkpt>
      <trkpt lat="46.16389" lon="2.47888">
        <ele>470</ele>
        <time>2015-04-10T12:55:44Z</time>
      </trkpt>
      <trkpt lat="46.16386" lon="2.47888">
        <ele>470</ele>
        <time>2015-04-10T12:55:46Z</time>
      </trkpt>
      <trkpt lat="46.16383" lon="2.47886">
        <ele>470</ele>
        <time>2015-04-10T12:55:48Z</time>
      </trkpt>
      <trkpt lat="46.16381" lon="2.47884">
        <ele>470</ele>
        <time>2015-04-10T12:55:50Z</time>
      </trkpt>
      <trkpt lat="46.16378" lon="2.47883">
        <ele>470</ele>
        <time>2015-04-10T12:55:52Z</time>
      </trkpt>
      <trkpt lat="46.16375" lon="2.47881">
        <ele>470</ele>
        <time>2015-04-10T12:55:54Z</time>
      </trkpt>
      <trkpt lat="46.16373" lon="2.47879">
        <ele>470</ele>
        <time>2015-04-10T12:55:56Z</time>
      </trkpt>
      <trkpt lat="46.1637" lon="2.47878">
        <ele>470</ele>
        <time>2015-04-10T12:55:58Z</time>
      </trkpt>
      <trkpt lat="46.16367" lon="2.47876">
        <ele>470</ele>
        <time>2015-04-10T12:56:00Z</time>
      </trkpt>
      <trkpt lat="46.16364" lon="2.47875">
        <ele>470</ele>
        <time>2015-04-10T12:56:02Z</time>
      </trkpt>
      <trkpt lat="46.16361" lon="2.47873">
        <ele>470</ele>
        <time>2015-04-10T12:56:04Z</time>
      </trkpt>
      <trkpt lat="46.16359" lon="2.47871">
        <ele>470</ele>
        <time>2015-04-10T12:56:06Z</time>
      </trkpt>
      <trkpt lat="46.16356" lon="2.4787">
        <ele>470</ele>
        <time>2015-04-10T12:56:08Z</time>
      </trkpt>
      <trkpt lat="46.16353" lon="2.47868">
        <ele>470</ele>
        <time>2015-04-10T12:56:10Z</time>
      </trkpt>
      <trkpt lat="46.1635" lon="2.47867">
        <ele>470</ele>
        <time>2015-04-10T12:56:12Z</time>
      </trkpt>
      <trkpt lat="46.16348" lon="2.47865">
        <ele>470</ele>
        <time>2015-04-10T12:56:14Z</time>
      </trkpt>
      <trkpt lat="46.16344" lon="2.47864">
        <ele>470</ele>
        <time>2015-04-10T12:56:16Z</time>
      </trkpt>
      <trkpt lat="46.16341" lon="2.47861">
        <ele>470</ele>
        <time>2015-04-10T12:56:18Z</time>
      </trkpt>
      <trkpt lat="46.16338" lon="2.4786">
        <ele>470</ele>
        <time>2015-04-10T12:56:20Z</time>
      </trkpt>
      <trkpt lat="46.16335" lon="2.47859">
        <ele>470</ele>
        <time>2015-04-10T12:56:22Z</time>
      </trkpt>
      <trkpt lat="46.16333" lon="2.47857">
        <ele>470</ele>
        <time>2015-04-10T12:56:24Z</time>
      </trkpt>
      <trkpt lat="46.1633" lon="2.47856">
        <ele>470</ele>
        <time>2015-04-10T12:56:26Z</time>
      </trkpt>
      <trkpt lat="46.16327" lon="2.47855">
        <ele>470</ele>
        <time>2015-04-10T12:56:28Z</time>
      </trkpt>
      <trkpt lat="46.16324" lon="2.47853">
        <ele>470</ele>
        <time>2015-04-10T12:56:30Z</time>
      </trkpt>
      <trkpt lat="46.16322" lon="2.47852">
        <ele>470</ele>
        <time>2015-04-10T12:56:32Z</time>
      </trkpt>
      <trkpt lat="46.16319" lon="2.47851">
        <ele>470</ele>
        <time>2015-04-10T12:56:34Z</time>
      </trkpt>
      <trkpt lat="46.16316" lon="2.4785">
        <ele>470</ele>
        <time>2015-04-10T12:56:36Z</time>
      </trkpt>
      <trkpt lat="46.16313" lon="2.47849">
        <ele>470</ele>
        <time>2015-04-10T12:56:38Z</time>
      </trkpt>
      <trkpt lat="46.1631" lon="2.47847">
        <ele>470</ele>
        <time>2015-04-10T12:56:40Z</time>
      </trkpt>
      <trkpt lat="46.16307" lon="2.47846">
        <ele>470</ele>
        <time>2015-04-10T12:56:42Z</time>
      </trkpt>
      <trkpt lat="46.16305" lon="2.47846">
        <ele>470</ele>
        <time>2015-04-10T12:56:44Z</time>
      </trkpt>
      <trkpt lat="46.16302" lon="2.47844">
        <ele>470</ele>
        <time>2015-04-10T12:56:46Z</time>
      </trkpt>
      <trkpt lat="46.16299" lon="2.47843">
        <ele>470</ele>
        <time>2015-04-10T12:56:48Z</time>
      </trkpt>
      <trkpt lat="46.16296" lon="2.47843">
        <ele>470</ele>
        <time>2015-04-10T12:56:50Z</time>
      </trkpt>
      <trkpt lat="46.16293" lon="2.47842">
        <ele>470</ele>
        <time>2015-04-10T12:56:52Z</time>
      </trkpt>
      <trkpt lat="46.1629" lon="2.47841">
        <ele>470</ele>
        <time>2015-04-10T12:56:54Z</time>
      </trkpt>
      <trkpt lat="46.16287" lon="2.4784">
        <ele>470</ele>
        <time>2015-04-10T12:56:56Z</time>
      </trkpt>
      <trkpt lat="46.16285" lon="2.47839">
        <ele>470</ele>
        <time>2015-04-10T12:56:58Z</time>
      </trkpt>
      <trkpt lat="46.16282" lon="2.47838">
        <ele>470</ele>
        <time>2015-04-10T12:57:00Z</time>
      </trkpt>
      <trkpt lat="46.16278" lon="2.47837">
        <ele>470</ele>
        <time>2015-04-10T12:57:02Z</time>
      </trkpt>
      <trkpt lat="46.16275" lon="2.47836">
        <ele>470</ele>
        <time>2015-04-10T12:57:04Z</time>
      </trkpt>
      <trkpt lat="46.16272" lon="2.47835">
        <ele>470</ele>
        <time>2015-04-10T12:57:06Z</time>
      </trkpt>
      <trkpt lat="46.1627" lon="2.47834">
        <ele>470</ele>
        <time>2015-04-10T12:57:08Z</time>
      </trkpt>
      <trkpt lat="46.16267" lon="2.47833">
        <ele>470</ele>
        <time>2015-04-10T12:57:10Z</time>
      </trkpt>
      <trkpt lat="46.16264" lon="2.47832">
        <ele>470</ele>
        <time>2015-04-10T12:57:12Z</time>
      </trkpt>
      <trkpt lat="46.16261" lon="2.4783">
        <ele>470</ele>
        <time>2015-04-10T12:57:14Z</time>
      </trkpt>
      <trkpt lat="46.16257" lon="2.47829">
        <ele>470</ele>
        <time>2015-04-10T12:57:16Z</time>
      </trkpt>
      <trkpt lat="46.16254" lon="2.47827">
        <ele>470</ele>
        <time>2015-04-10T12:57:18Z</time>
      </trkpt>
      <trkpt lat="46.16251" lon="2.47826">
        <ele>470</ele>
        <time>2015-04-10T12:57:20Z</time>
      </trkpt>
      <trkpt lat="46.16249" lon="2.47824">
        <ele>470</ele>
        <time>2015-04-10T12:57:22Z</time>
      </trkpt>
      <trkpt lat="46.16246" lon="2.47822">
        <ele>470</ele>
        <time>2015-04-10T12:57:24Z</time>
      </trkpt>
      <trkpt lat="46.16242" lon="2.47821">
        <ele>470</ele>
        <time>2015-04-10T12:57:26Z</time>
      </trkpt>
      <trkpt lat="46.16239" lon="2.47819">
        <ele>470</ele>
        <time>2015-04-10T12:57:28Z</time>
      </trkpt>
      <trkpt lat="46.16236" lon="2.47817">
        <ele>470</ele>
        <time>2015-04-10T12:57:30Z</time>
      </trkpt>
      <trkpt lat="46.16233" lon="2.47815">
        <ele>470</ele>
        <time>2015-04-10T12:57:32Z</time>
      </trkpt>
      <trkpt lat="46.16231" lon="2.47813">
        <ele>470</ele>
        <time>2015-04-10T12:57:34Z</time>
      </trkpt>
      <trkpt lat="46.16228" lon="2.47812">
        <ele>470</ele>
        <time>2015-04-10T12:57:36Z</time>
      </trkpt>
      <trkpt lat="46.16225" lon="2.47811">
        <ele>470</ele>
        <time>2015-04-10T12:57:38Z</time>
      </trkpt>
      <trkpt lat="46.16222" lon="2.47809">
        <ele>470</ele>
        <time>2015-04-10T12:57:40Z</time>
      </trkpt>
      <trkpt lat="46.16219" lon="2.47808">
        <ele>470</ele>
        <time>2015-04-10T12:57:42Z</time>
      </trkpt>
      <trkpt lat="46.16216" lon="2.47806">
        <ele>470</ele>
        <time>2015-04-10T12:57:44Z</time>
      </trkpt>
      <trkpt lat="46.16213" lon="2.47804">
        <ele>470</ele>
        <time>2015-04-10T12:57:46Z</time>
      </trkpt>
      <trkpt lat="46.1621" lon="2.47802">
        <ele>470</ele>
        <time>2015-04-10T12:57:48Z</time>
      </trkpt>
      <trkpt lat="46.16208" lon="2.47801">
        <ele>470</ele>
        <time>2015-04-10T12:57:50Z</time>
      </trkpt>
      <trkpt lat="46.16205" lon="2.478">
        <ele>470</ele>
        <time>2015-04-10T12:57:52Z</time>
      </trkpt>
      <trkpt lat="46.16202" lon="2.47798">
        <ele>470</ele>
        <time>2015-04-10T12:57:54Z</time>
      </trkpt>
      <trkpt lat="46.16199" lon="2.47797">
        <ele>470</ele>
        <time>2015-04-10T12:57:56Z</time>
      </trkpt>
      <trkpt lat="46.16196" lon="2.47796">
        <ele>470</ele>
        <time>2015-04-10T12:57:58Z</time>
      </trkpt>
      <trkpt lat="46.16193" lon="2.47795">
        <ele>470</ele>
        <time>2015-04-10T12:58:00Z</time>
      </trkpt>
      <trkpt lat="46.1619" lon="2.47794">
        <ele>470</ele>
        <time>2015-04-10T12:58:02Z</time>
      </trkpt>
      <trkpt lat="46.16188" lon="2.47793">
        <ele>470</ele>
        <time>2015-04-10T12:58:04Z</time>
      </trkpt>
      <trkpt lat="46.16185" lon="2.47791">
        <ele>470</ele>
        <time>2015-04-10T12:58:06Z</time>
      </trkpt>
      <trkpt lat="46.16181" lon="2.4779">
        <ele>470</ele>
        <time>2015-04-10T12:58:08Z</time>
      </trkpt>
      <trkpt lat="46.16179" lon="2.47789">
        <ele>470</ele>
        <time>2015-04-10T12:58:10Z</time>
      </trkpt>
      <trkpt lat="46.16176" lon="2.47787">
        <ele>470</ele>
        <time>2015-04-10T12:58:12Z</time>
      </trkpt>
      <trkpt lat="46.16173" lon="2.47785">
        <ele>470</ele>
        <time>2015-04-10T12:58:14Z</time>
      </trkpt>
      <trkpt lat="46.1617" lon="2.47784">
        <ele>470</ele>
        <time>2015-04-10T12:58:16Z</time>
      </trkpt>
      <trkpt lat="46.16167" lon="2.47783">
        <ele>470</ele>
        <time>2015-04-10T12:58:18Z</time>
      </trkpt>
      <trkpt lat="46.16164" lon="2.47781">
        <ele>470</ele>
        <time>2015-04-10T12:58:20Z</time>
      </trkpt>
      <trkpt lat="46.16161" lon="2.4778">
        <ele>470</ele>
        <time>2015-04-10T12:58:22Z</time>
      </trkpt>
      <trkpt lat="46.16159" lon="2.47779">
        <ele>470</ele>
        <time>2015-04-10T12:58:24Z</time>
      </trkpt>
      <trkpt lat="46.16156" lon="2.47778">
        <ele>470</ele>
        <time>2015-04-10T12:58:26Z</time>
      </trkpt>
      <trkpt lat="46.16154" lon="2.47777">
        <ele>470</ele>
        <time>2015-04-10T12:58:28Z</time>
      </trkpt>
      <trkpt lat="46.16151" lon="2.47776">
        <ele>470</ele>
        <time>2015-04-10T12:58:30Z</time>
      </trkpt>
      <trkpt lat="46.16148" lon="2.47774">
        <ele>470</ele>
        <time>2015-04-10T12:58:32Z</time>
      </trkpt>
      <trkpt lat="46.16145" lon="2.47773">
        <ele>470</ele>
        <time>2015-04-10T12:58:34Z</time>
      </trkpt>
      <trkpt lat="46.16143" lon="2.47772">
        <ele>470</ele>
        <time>2015-04-10T12:58:36Z</time>
      </trkpt>
      <trkpt lat="46.1614" lon="2.4777">
        <ele>470</ele>
        <time>2015-04-10T12:58:38Z</time>
      </trkpt>
      <trkpt lat="46.16137" lon="2.47769">
        <ele>470</ele>
        <time>2015-04-10T12:58:40Z</time>
      </trkpt>
      <trkpt lat="46.16134" lon="2.47769">
        <ele>470</ele>
        <time>2015-04-10T12:58:42Z</time>
      </trkpt>
      <trkpt lat="46.16132" lon="2.47768">
        <ele>470</ele>
        <time>2015-04-10T12:58:44Z</time>
      </trkpt>
      <trkpt lat="46.16129" lon="2.47767">
        <ele>470</ele>
        <time>2015-04-10T12:58:46Z</time>
      </trkpt>
      <trkpt lat="46.16126" lon="2.47765">
        <ele>470</ele>
        <time>2015-04-10T12:58:48Z</time>
      </trkpt>
      <trkpt lat="46.16123" lon="2.47763">
        <ele>470</ele>
        <time>2015-04-10T12:58:50Z</time>
      </trkpt>
      <trkpt lat="46.16121" lon="2.47762">
        <ele>470</ele>
        <time>2015-04-10T12:58:52Z</time>
      </trkpt>
      <trkpt lat="46.16118" lon="2.47761">
        <ele>470</ele>
        <time>2015-04-10T12:58:54Z</time>
      </trkpt>
      <trkpt lat="46.16115" lon="2.4776">
        <ele>470</ele>
        <time>2015-04-10T12:58:56Z</time>
      </trkpt>
      <trkpt lat="46.16112" lon="2.47759">
        <ele>470</ele>
        <time>2015-04-10T12:58:58Z</time>
      </trkpt>
      <trkpt lat="46.16109" lon="2.47758">
        <ele>470</ele>
        <time>2015-04-10T12:59:00Z</time>
      </trkpt>
      <trkpt lat="46.16107" lon="2.47757">
        <ele>470</ele>
        <time>2015-04-10T12:59:02Z</time>
      </trkpt>
      <trkpt lat="46.16104" lon="2.47756">
        <ele>470</ele>
        <time>2015-04-10T12:59:04Z</time>
      </trkpt>
      <trkpt lat="46.16102" lon="2.47755">
        <ele>470</ele>
        <time>2015-04-10T12:59:06Z</time>
      </trkpt>
      <trkpt lat="46.16099" lon="2.47754">
        <ele>470</ele>
        <time>2015-04-10T12:59:08Z</time>
      </trkpt>
      <trkpt lat="46.16096" lon="2.47754">
        <ele>470</ele>
        <time>2015-04-10T12:59:10Z</time>
      </trkpt>
      <trkpt lat="46.16093" lon="2.47753">
        <ele>470</ele>
        <time>2015-04-10T12:59:12Z</time>
      </trkpt>
      <trkpt lat="46.1609" lon="2.47752">
        <ele>470</ele>
        <time>2015-04-10T12:59:14Z</time>
      </trkpt>
      <trkpt lat="46.16088" lon="2.47751">
        <ele>470</ele>
        <time>2015-04-10T12:59:16Z</time>
      </trkpt>
      <trkpt lat="46.16085" lon="2.4775">
        <ele>470</ele>
        <time>2015-04-10T12:59:18Z</time>
      </trkpt>
      <trkpt lat="46.16082" lon="2.4775">
        <ele>470</ele>
        <time>2015-04-10T12:59:20Z</time>
      </trkpt>
      <trkpt lat="46.16079" lon="2.47749">
        <ele>470</ele>
        <time>2015-04-10T12:59:22Z</time>
      </trkpt>
      <trkpt lat="46.16076" lon="2.47748">
        <ele>470</ele>
        <time>2015-04-10T12:59:24Z</time>
      </trkpt>
      <trkpt lat="46.16074" lon="2.47747">
        <ele>470</ele>
        <time>2015-04-10T12:59:26Z</time>
      </trkpt>
      <trkpt lat="46.16071" lon="2.47746">
        <ele>470</ele>
        <time>2015-04-10T12:59:28Z</time>
      </trkpt>
      <trkpt lat="46.16068" lon="2.47745">
        <ele>470</ele>
        <time>2015-04-10T12:59:30Z</time>
      </trkpt>
      <trkpt lat="46.16064" lon="2.47745">
        <ele>470</ele>
        <time>2015-04-10T12:59:32Z</time>
      </trkpt>
      <trkpt lat="46.16061" lon="2.47744">
        <ele>470</ele>
        <time>2015-04-10T12:59:34Z</time>
      </trkpt>
      <trkpt lat="46.16059" lon="2.47744">
        <ele>470</ele>
        <time>2015-04-10T12:59:36Z</time>
      </trkpt>
      <trkpt lat="46.16056" lon="2.47743">
        <ele>470</ele>
        <time>2015-04-10T12:59:38Z</time>
      </trkpt>
      <trkpt lat="46.16053" lon="2.47742">
        <ele>470</ele>
        <time>2015-04-10T12:59:40Z</time>
      </trkpt>
      <trkpt lat="46.1605" lon="2.47741">
        <ele>470</ele>
        <time>2015-04-10T12:59:42Z</time>
      </trkpt>
      <trkpt lat="46.16047" lon="2.47741">
        <ele>470</ele>
        <time>2015-04-10T12:59:44Z</time>
      </trkpt>
      <trkpt lat="46.16044" lon="2.4774">
        <ele>470</ele>
        <time>2015-04-10T12:59:46Z</time>
      </trkpt>
      <trkpt lat="46.16041" lon="2.47738">
        <ele>470</ele>
        <time>2015-04-10T12:59:48Z</time>
      </trkpt>
      <trkpt lat="46.16039" lon="2.47737">
        <ele>470</ele>
        <time>2015-04-10T12:59:50Z</time>
      </trkpt>
      <trkpt lat="46.16036" lon="2.47736">
        <ele>470</ele>
        <time>2015-04-10T12:59:52Z</time>
      </trkpt>
      <trkpt lat="46.16033" lon="2.47735">
        <ele>470</ele>
        <time>2015-04-10T12:59:54Z</time>
      </trkpt>
      <trkpt lat="46.16031" lon="2.47734">
        <ele>470</ele>
        <time>2015-04-10T12:59:56Z</time>
      </trkpt>
      <trkpt lat="46.16028" lon="2.47733">
        <ele>470</ele>
        <time>2015-04-10T12:59:58Z</time>
      </trkpt>
      <trkpt lat="46.16025" lon="2.47731">
        <ele>470</ele>
        <time>2015-04-10T13:00:00Z</time>
      </trkpt>
      <trkpt lat="46.16023" lon="2.47729">
        <ele>470</ele>
        <time>2015-04-10T13:00:02Z</time>
      </trkpt>
      <trkpt lat="46.16021" lon="2.47727">
        <ele>470</ele>
        <time>2015-04-10T13:00:04Z</time>
      </trkpt>
      <trkpt lat="46.16018" lon="2.47725">
        <ele>470</ele>
        <time>2015-04-10T13:00:06Z</time>
      </trkpt>
      <trkpt lat="46.16015" lon="2.47722">
        <ele>470</ele>
        <time>2015-04-10T13:00:08Z</time>
      </trkpt>
      <trkpt lat="46.16013" lon="2.4772">
        <ele>470</ele>
        <time>2015-04-10T13:00:10Z</time>
      </trkpt>
      <trkpt lat="46.16011" lon="2.47716">
        <ele>470</ele>
        <time>2015-04-10T13:00:12Z</time>
      </trkpt>
      <trkpt lat="46.16008" lon="2.47713">
        <ele>470</ele>
        <time>2015-04-10T13:00:14Z</time>
      </trkpt>
      <trkpt lat="46.16006" lon="2.47711">
        <ele>470</ele>
        <time>2015-04-10T13:00:16Z</time>
      </trkpt>
      <trkpt lat="46.16004" lon="2.47707">
        <ele>471</ele>
        <time>2015-04-10T13:00:18Z</time>
      </trkpt>
      <trkpt lat="46.16002" lon="2.47704">
        <ele>472</ele>
        <time>2015-04-10T13:00:20Z</time>
      </trkpt>
      <trkpt lat="46.16" lon="2.477">
        <ele>473</ele>
        <time>2015-04-10T13:00:22Z</time>
      </trkpt>
      <trkpt lat="46.15999" lon="2.47696">
        <ele>474</ele>
        <time>2015-04-10T13:00:24Z</time>
      </trkpt>
      <trkpt lat="46.15997" lon="2.47693">
        <ele>475</ele>
        <time>2015-04-10T13:00:26Z</time>
      </trkpt>
      <trkpt lat="46.15995" lon="2.4769">
        <ele>475</ele>
        <time>2015-04-10T13:00:28Z</time>
      </trkpt>
      <trkpt lat="46.15992" lon="2.47687">
        <ele>476</ele>
        <time>2015-04-10T13:00:30Z</time>
      </trkpt>
      <trkpt lat="46.1599" lon="2.47684">
        <ele>476</ele>
        <time>2015-04-10T13:00:32Z</time>
      </trkpt>
      <trkpt lat="46.15987" lon="2.47681">
        <ele>476</ele>
        <time>2015-04-10T13:00:34Z</time>
      </trkpt>
      <trkpt lat="46.15984" lon="2.47678">
        <ele>476</ele>
        <time>2015-04-10T13:00:36Z</time>
      </trkpt>
      <trkpt lat="46.15982" lon="2.47675">
        <ele>476</ele>
        <time>2015-04-10T13:00:38Z</time>
      </trkpt>
      <trkpt lat="46.1598" lon="2.47673">
        <ele>476</ele>
        <time>2015-04-10T13:00:40Z</time>
      </trkpt>
      <trkpt lat="46.15978" lon="2.4767">
        <ele>476</ele>
        <time>2015-04-10T13:00:42Z</time>
      </trkpt>
      <trkpt lat="46.15976" lon="2.47668">
        <ele>476</ele>
        <time>2015-04-10T13:00:44Z</time>
      </trkpt>
      <trkpt lat="46.15974" lon="2.47666">
        <ele>476</ele>
        <time>2015-04-10T13:00:46Z</time>
      </trkpt>
      <trkpt lat="46.15971" lon="2.47662">
        <ele>476</ele>
        <time>2015-04-10T13:00:48Z</time>
      </trkpt>
      <trkpt lat="46.15969" lon="2.4766">
        <ele>476</ele>
        <time>2015-04-10T13:00:50Z</time>
      </trkpt>
      <trkpt lat="46.15966" lon="2.47659">
        <ele>476</ele>
        <time>2015-04-10T13:00:52Z</time>
      </trkpt>
      <trkpt lat="46.15964" lon="2.47657">
        <ele>476</ele>
        <time>2015-04-10T13:00:54Z</time>
      </trkpt>
      <trkpt lat="46.15961" lon="2.47654">
        <ele>476</ele>
        <time>2015-04-10T13:00:57Z</time>
      </trkpt>
      <trkpt lat="46.15959" lon="2.47652">
        <ele>476</ele>
        <time>2015-04-10T13:00:59Z</time>
      </trkpt>
      <trkpt lat="46.15956" lon="2.47651">
        <ele>476</ele>
        <time>2015-04-10T13:01:01Z</time>
      </trkpt>
      <trkpt lat="46.15953" lon="2.47649">
        <ele>476</ele>
        <time>2015-04-10T13:01:03Z</time>
      </trkpt>
      <trkpt lat="46.15951" lon="2.47647">
        <ele>476</ele>
        <time>2015-04-10T13:01:05Z</time>
      </trkpt>
      <trkpt lat="46.15947" lon="2.47645">
        <ele>476</ele>
        <time>2015-04-10T13:01:08Z</time>
      </trkpt>
      <trkpt lat="46.15945" lon="2.47643">
        <ele>476</ele>
        <time>2015-04-10T13:01:10Z</time>
      </trkpt>
      <trkpt lat="46.15942" lon="2.47642">
        <ele>476</ele>
        <time>2015-04-10T13:01:12Z</time>
      </trkpt>
      <trkpt lat="46.15939" lon="2.4764">
        <ele>476</ele>
        <time>2015-04-10T13:01:14Z</time>
      </trkpt>
      <trkpt lat="46.15937" lon="2.47639">
        <ele>476</ele>
        <time>2015-04-10T13:01:16Z</time>
      </trkpt>
      <trkpt lat="46.15935" lon="2.47638">
        <ele>476</ele>
        <time>2015-04-10T13:01:18Z</time>
      </trkpt>
      <trkpt lat="46.15932" lon="2.47636">
        <ele>476</ele>
        <time>2015-04-10T13:01:20Z</time>
      </trkpt>
      <trkpt lat="46.15929" lon="2.47635">
        <ele>476</ele>
        <time>2015-04-10T13:01:22Z</time>
      </trkpt>
      <trkpt lat="46.15926" lon="2.47632">
        <ele>476</ele>
        <time>2015-04-10T13:01:24Z</time>
      </trkpt>
      <trkpt lat="46.15924" lon="2.47631">
        <ele>476</ele>
        <time>2015-04-10T13:01:26Z</time>
      </trkpt>
      <trkpt lat="46.15921" lon="2.47629">
        <ele>476</ele>
        <time>2015-04-10T13:01:28Z</time>
      </trkpt>
      <trkpt lat="46.15918" lon="2.47627">
        <ele>476</ele>
        <time>2015-04-10T13:01:30Z</time>
      </trkpt>
      <trkpt lat="46.15915" lon="2.47626">
        <ele>476</ele>
        <time>2015-04-10T13:01:32Z</time>
      </trkpt>
      <trkpt lat="46.15913" lon="2.47624">
        <ele>476</ele>
        <time>2015-04-10T13:01:34Z</time>
      </trkpt>
      <trkpt lat="46.1591" lon="2.47623">
        <ele>476</ele>
        <time>2015-04-10T13:01:36Z</time>
      </trkpt>
      <trkpt lat="46.15908" lon="2.47621">
        <ele>476</ele>
        <time>2015-04-10T13:01:38Z</time>
      </trkpt>
      <trkpt lat="46.15905" lon="2.4762">
        <ele>476</ele>
        <time>2015-04-10T13:01:40Z</time>
      </trkpt>
      <trkpt lat="46.15902" lon="2.47619">
        <ele>476</ele>
        <time>2015-04-10T13:01:42Z</time>
      </trkpt>
      <trkpt lat="46.159" lon="2.47618">
        <ele>476</ele>
        <time>2015-04-10T13:01:44Z</time>
      </trkpt>
      <trkpt lat="46.15898" lon="2.47617">
        <ele>476</ele>
        <time>2015-04-10T13:01:46Z</time>
      </trkpt>
      <trkpt lat="46.15895" lon="2.47615">
        <ele>476</ele>
        <time>2015-04-10T13:01:48Z</time>
      </trkpt>
      <trkpt lat="46.15892" lon="2.47614">
        <ele>476</ele>
        <time>2015-04-10T13:01:50Z</time>
      </trkpt>
      <trkpt lat="46.15889" lon="2.47611">
        <ele>476</ele>
        <time>2015-04-10T13:01:52Z</time>
      </trkpt>
      <trkpt lat="46.15887" lon="2.4761">
        <ele>476</ele>
        <time>2015-04-10T13:01:54Z</time>
      </trkpt>
      <trkpt lat="46.15884" lon="2.47608">
        <ele>476</ele>
        <time>2015-04-10T13:01:56Z</time>
      </trkpt>
      <trkpt lat="46.15881" lon="2.47607">
        <ele>476</ele>
        <time>2015-04-10T13:01:58Z</time>
      </trkpt>
      <trkpt lat="46.15879" lon="2.47605">
        <ele>476</ele>
        <time>2015-04-10T13:02:00Z</time>
      </trkpt>
      <trkpt lat="46.15876" lon="2.47604">
        <ele>476</ele>
        <time>2015-04-10T13:02:02Z</time>
      </trkpt>
      <trkpt lat="46.15873" lon="2.47603">
        <ele>476</ele>
        <time>2015-04-10T13:02:04Z</time>
      </trkpt>
      <trkpt lat="46.15871" lon="2.47601">
        <ele>476</ele>
        <time>2015-04-10T13:02:06Z</time>
      </trkpt>
      <trkpt lat="46.15868" lon="2.47599">
        <ele>476</ele>
        <time>2015-04-10T13:02:08Z</time>
      </trkpt>
      <trkpt lat="46.15865" lon="2.47597">
        <ele>476</ele>
        <time>2015-04-10T13:02:10Z</time>
      </trkpt>
      <trkpt lat="46.15863" lon="2.47596">
        <ele>476</ele>
        <time>2015-04-10T13:02:12Z</time>
      </trkpt>
      <trkpt lat="46.1586" lon="2.47594">
        <ele>476</ele>
        <time>2015-04-10T13:02:14Z</time>
      </trkpt>
      <trkpt lat="46.15857" lon="2.47592">
        <ele>476</ele>
        <time>2015-04-10T13:02:16Z</time>
      </trkpt>
      <trkpt lat="46.15854" lon="2.4759">
        <ele>476</ele>
        <time>2015-04-10T13:02:18Z</time>
      </trkpt>
      <trkpt lat="46.15851" lon="2.47589">
        <ele>476</ele>
        <time>2015-04-10T13:02:20Z</time>
      </trkpt>
      <trkpt lat="46.15848" lon="2.47587">
        <ele>476</ele>
        <time>2015-04-10T13:02:22Z</time>
      </trkpt>
      <trkpt lat="46.15845" lon="2.47586">
        <ele>476</ele>
        <time>2015-04-10T13:02:24Z</time>
      </trkpt>
      <trkpt lat="46.15842" lon="2.47585">
        <ele>476</ele>
        <time>2015-04-10T13:02:26Z</time>
      </trkpt>
      <trkpt lat="46.15839" lon="2.47583">
        <ele>476</ele>
        <time>2015-04-10T13:02:28Z</time>
      </trkpt>
      <trkpt lat="46.15837" lon="2.47582">
        <ele>476</ele>
        <time>2015-04-10T13:02:30Z</time>
      </trkpt>
      <trkpt lat="46.15834" lon="2.47579">
        <ele>476</ele>
        <time>2015-04-10T13:02:32Z</time>
      </trkpt>
      <trkpt lat="46.15831" lon="2.47578">
        <ele>476</ele>
        <time>2015-04-10T13:02:34Z</time>
      </trkpt>
      <trkpt lat="46.15829" lon="2.47576">
        <ele>476</ele>
        <time>2015-04-10T13:02:36Z</time>
      </trkpt>
      <trkpt lat="46.15826" lon="2.47575">
        <ele>476</ele>
        <time>2015-04-10T13:02:38Z</time>
      </trkpt>
      <trkpt lat="46.15823" lon="2.47574">
        <ele>476</ele>
        <time>2015-04-10T13:02:40Z</time>
      </trkpt>
      <trkpt lat="46.15821" lon="2.47572">
        <ele>476</ele>
        <time>2015-04-10T13:02:42Z</time>
      </trkpt>
      <trkpt lat="46.15818" lon="2.4757">
        <ele>476</ele>
        <time>2015-04-10T13:02:44Z</time>
      </trkpt>
      <trkpt lat="46.15816" lon="2.47568">
        <ele>476</ele>
        <time>2015-04-10T13:02:46Z</time>
      </trkpt>
      <trkpt lat="46.15813" lon="2.47566">
        <ele>476</ele>
        <time>2015-04-10T13:02:48Z</time>
      </trkpt>
      <trkpt lat="46.1581" lon="2.47564">
        <ele>476</ele>
        <time>2015-04-10T13:02:50Z</time>
      </trkpt>
      <trkpt lat="46.15807" lon="2.47561">
        <ele>476</ele>
        <time>2015-04-10T13:02:52Z</time>
      </trkpt>
      <trkpt lat="46.15804" lon="2.4756">
        <ele>476</ele>
        <time>2015-04-10T13:02:54Z</time>
      </trkpt>
      <trkpt lat="46.15801" lon="2.47559">
        <ele>476</ele>
        <time>2015-04-10T13:02:56Z</time>
      </trkpt>
      <trkpt lat="46.15799" lon="2.47558">
        <ele>476</ele>
        <time>2015-04-10T13:02:58Z</time>
      </trkpt>
      <trkpt lat="46.15796" lon="2.47555">
        <ele>476</ele>
        <time>2015-04-10T13:03:00Z</time>
      </trkpt>
      <trkpt lat="46.15794" lon="2.47553">
        <ele>476</ele>
        <time>2015-04-10T13:03:02Z</time>
      </trkpt>
      <trkpt lat="46.15791" lon="2.47551">
        <ele>476</ele>
        <time>2015-04-10T13:03:04Z</time>
      </trkpt>
      <trkpt lat="46.15789" lon="2.4755">
        <ele>476</ele>
        <time>2015-04-10T13:03:06Z</time>
      </trkpt>
      <trkpt lat="46.15786" lon="2.47549">
        <ele>476</ele>
        <time>2015-04-10T13:03:08Z</time>
      </trkpt>
      <trkpt lat="46.15784" lon="2.47547">
        <ele>476</ele>
        <time>2015-04-10T13:03:10Z</time>
      </trkpt>
      <trkpt lat="46.15782" lon="2.47545">
        <ele>476</ele>
        <time>2015-04-10T13:03:12Z</time>
      </trkpt>
      <trkpt lat="46.1578" lon="2.47544">
        <ele>476</ele>
        <time>2015-04-10T13:03:14Z</time>
      </trkpt>
      <trkpt lat="46.15778" lon="2.47542">
        <ele>476</ele>
        <time>2015-04-10T13:03:16Z</time>
      </trkpt>
      <trkpt lat="46.15775" lon="2.47539">
        <ele>476</ele>
        <time>2015-04-10T13:03:18Z</time>
      </trkpt>
      <trkpt lat="46.15772" lon="2.47535">
        <ele>476</ele>
        <time>2015-04-10T13:03:21Z</time>
      </trkpt>
      <trkpt lat="46.1577" lon="2.47533">
        <ele>476</ele>
        <time>2015-04-10T13:03:23Z</time>
      </trkpt>
      <trkpt lat="46.15768" lon="2.47531">
        <ele>476</ele>
        <time>2015-04-10T13:03:25Z</time>
      </trkpt>
      <trkpt lat="46.15765" lon="2.47527">
        <ele>476</ele>
        <time>2015-04-10T13:03:28Z</time>
      </trkpt>
      <trkpt lat="46.15763" lon="2.47526">
        <ele>476</ele>
        <time>2015-04-10T13:03:30Z</time>
      </trkpt>
      <trkpt lat="46.15762" lon="2.47524">
        <ele>477</ele>
        <time>2015-04-10T13:03:36Z</time>
      </trkpt>
      <trkpt lat="46.15761" lon="2.47523">
        <ele>479</ele>
        <time>2015-04-10T13:03:49Z</time>
      </trkpt>
      <trkpt lat="46.15759" lon="2.47521">
        <ele>479</ele>
        <time>2015-04-10T13:03:51Z</time>
      </trkpt>
      <trkpt lat="46.15757" lon="2.47519">
        <ele>479</ele>
        <time>2015-04-10T13:03:53Z</time>
      </trkpt>
      <trkpt lat="46.15754" lon="2.47517">
        <ele>479</ele>
        <time>2015-04-10T13:03:55Z</time>
      </trkpt>
      <trkpt lat="46.15752" lon="2.47514">
        <ele>480</ele>
        <time>2015-04-10T13:03:57Z</time>
      </trkpt>
      <trkpt lat="46.1575" lon="2.47512">
        <ele>480</ele>
        <time>2015-04-10T13:03:59Z</time>
      </trkpt>
      <trkpt lat="46.15747" lon="2.47509">
        <ele>480</ele>
        <time>2015-04-10T13:04:02Z</time>
      </trkpt>
      <trkpt lat="46.15744" lon="2.47506">
        <ele>480</ele>
        <time>2015-04-10T13:04:04Z</time>
      </trkpt>
      <trkpt lat="46.15741" lon="2.47503">
        <ele>481</ele>
        <time>2015-04-10T13:04:07Z</time>
      </trkpt>
      <trkpt lat="46.15739" lon="2.47502">
        <ele>481</ele>
        <time>2015-04-10T13:04:09Z</time>
      </trkpt>
      <trkpt lat="46.15739" lon="2.47501">
        <ele>482</ele>
        <time>2015-04-10T13:04:11Z</time>
      </trkpt>
      <trkpt lat="46.15737" lon="2.47499">
        <ele>482</ele>
        <time>2015-04-10T13:04:13Z</time>
      </trkpt>
      <trkpt lat="46.15735" lon="2.47497">
        <ele>482</ele>
        <time>2015-04-10T13:04:15Z</time>
      </trkpt>
      <trkpt lat="46.15731" lon="2.47493">
        <ele>482</ele>
        <time>2015-04-10T13:04:18Z</time>
      </trkpt>
      <trkpt lat="46.15728" lon="2.4749">
        <ele>483</ele>
        <time>2015-04-10T13:04:21Z</time>
      </trkpt>
      <trkpt lat="46.15726" lon="2.47487">
        <ele>483</ele>
        <time>2015-04-10T13:04:23Z</time>
      </trkpt>
      <trkpt lat="46.15723" lon="2.47485">
        <ele>483</ele>
        <time>2015-04-10T13:04:25Z</time>
      </trkpt>
      <trkpt lat="46.15721" lon="2.47483">
        <ele>483</ele>
        <time>2015-04-10T13:04:27Z</time>
      </trkpt>
      <trkpt lat="46.15719" lon="2.47481">
        <ele>483</ele>
        <time>2015-04-10T13:04:29Z</time>
      </trkpt>
      <trkpt lat="46.15716" lon="2.47479">
        <ele>483</ele>
        <time>2015-04-10T13:04:31Z</time>
      </trkpt>
      <trkpt lat="46.15714" lon="2.47476">
        <ele>483</ele>
        <time>2015-04-10T13:04:33Z</time>
      </trkpt>
      <trkpt lat="46.15711" lon="2.47474">
        <ele>483</ele>
        <time>2015-04-10T13:04:35Z</time>
      </trkpt>
      <trkpt lat="46.15709" lon="2.47471">
        <ele>483</ele>
        <time>2015-04-10T13:04:37Z</time>
      </trkpt>
      <trkpt lat="46.15707" lon="2.47469">
        <ele>483</ele>
        <time>2015-04-10T13:04:39Z</time>
      </trkpt>
      <trkpt lat="46.15704" lon="2.47467">
        <ele>483</ele>
        <time>2015-04-10T13:04:41Z</time>
      </trkpt>
      <trkpt lat="46.15702" lon="2.47464">
        <ele>483</ele>
        <time>2015-04-10T13:04:43Z</time>
      </trkpt>
      <trkpt lat="46.15699" lon="2.4746">
        <ele>483</ele>
        <time>2015-04-10T13:04:46Z</time>
      </trkpt>
      <trkpt lat="46.15696" lon="2.47458">
        <ele>484</ele>
        <time>2015-04-10T13:04:48Z</time>
      </trkpt>
      <trkpt lat="46.15694" lon="2.47457">
        <ele>484</ele>
        <time>2015-04-10T13:04:50Z</time>
      </trkpt>
      <trkpt lat="46.15691" lon="2.47455">
        <ele>484</ele>
        <time>2015-04-10T13:04:52Z</time>
      </trkpt>
      <trkpt lat="46.15689" lon="2.47452">
        <ele>484</ele>
        <time>2015-04-10T13:04:54Z</time>
      </trkpt>
      <trkpt lat="46.15686" lon="2.47447">
        <ele>484</ele>
        <time>2015-04-10T13:04:56Z</time>
      </trkpt>
      <trkpt lat="46.15683" lon="2.47444">
        <ele>484</ele>
        <time>2015-04-10T13:04:58Z</time>
      </trkpt>
      <trkpt lat="46.1568" lon="2.47441">
        <ele>484</ele>
        <time>2015-04-10T13:05:01Z</time>
      </trkpt>
      <trkpt lat="46.15678" lon="2.47439">
        <ele>484</ele>
        <time>2015-04-10T13:05:03Z</time>
      </trkpt>
      <trkpt lat="46.15675" lon="2.47437">
        <ele>484</ele>
        <time>2015-04-10T13:05:05Z</time>
      </trkpt>
      <trkpt lat="46.15673" lon="2.47434">
        <ele>484</ele>
        <time>2015-04-10T13:05:07Z</time>
      </trkpt>
      <trkpt lat="46.15669" lon="2.4743">
        <ele>484</ele>
        <time>2015-04-10T13:05:10Z</time>
      </trkpt>
      <trkpt lat="46.15666" lon="2.47427">
        <ele>484</ele>
        <time>2015-04-10T13:05:12Z</time>
      </trkpt>
      <trkpt lat="46.15663" lon="2.47425">
        <ele>484</ele>
        <time>2015-04-10T13:05:14Z</time>
      </trkpt>
      <trkpt lat="46.1566" lon="2.47423">
        <ele>484</ele>
        <time>2015-04-10T13:05:16Z</time>
      </trkpt>
      <trkpt lat="46.15658" lon="2.47421">
        <ele>484</ele>
        <time>2015-04-10T13:05:18Z</time>
      </trkpt>
      <trkpt lat="46.15656" lon="2.47418">
        <ele>484</ele>
        <time>2015-04-10T13:05:20Z</time>
      </trkpt>
      <trkpt lat="46.15653" lon="2.47415">
        <ele>484</ele>
        <time>2015-04-10T13:05:22Z</time>
      </trkpt>
      <trkpt lat="46.1565" lon="2.47413">
        <ele>484</ele>
        <time>2015-04-10T13:05:24Z</time>
      </trkpt>
      <trkpt lat="46.15648" lon="2.47411">
        <ele>484</ele>
        <time>2015-04-10T13:05:26Z</time>
      </trkpt>
      <trkpt lat="46.15645" lon="2.47408">
        <ele>484</ele>
        <time>2015-04-10T13:05:28Z</time>
      </trkpt>
      <trkpt lat="46.15642" lon="2.47404">
        <ele>484</ele>
        <time>2015-04-10T13:05:31Z</time>
      </trkpt>
      <trkpt lat="46.15639" lon="2.47401">
        <ele>484</ele>
        <time>2015-04-10T13:05:33Z</time>
      </trkpt>
      <trkpt lat="46.15637" lon="2.47398">
        <ele>484</ele>
        <time>2015-04-10T13:05:35Z</time>
      </trkpt>
      <trkpt lat="46.15635" lon="2.47396">
        <ele>484</ele>
        <time>2015-04-10T13:05:37Z</time>
      </trkpt>
      <trkpt lat="46.15633" lon="2.47394">
        <ele>484</ele>
        <time>2015-04-10T13:05:39Z</time>
      </trkpt>
      <trkpt lat="46.1563" lon="2.47391">
        <ele>484</ele>
        <time>2015-04-10T13:05:42Z</time>
      </trkpt>
      <trkpt lat="46.15628" lon="2.47389">
        <ele>484</ele>
        <time>2015-04-10T13:05:44Z</time>
      </trkpt>
      <trkpt lat="46.15624" lon="2.47385">
        <ele>484</ele>
        <time>2015-04-10T13:05:47Z</time>
      </trkpt>
      <trkpt lat="46.15621" lon="2.47382">
        <ele>484</ele>
        <time>2015-04-10T13:05:50Z</time>
      </trkpt>
      <trkpt lat="46.15619" lon="2.4738">
        <ele>484</ele>
        <time>2015-04-10T13:05:52Z</time>
      </trkpt>
      <trkpt lat="46.15616" lon="2.47377">
        <ele>484</ele>
        <time>2015-04-10T13:05:54Z</time>
      </trkpt>
      <trkpt lat="46.15614" lon="2.47375">
        <ele>484</ele>
        <time>2015-04-10T13:05:56Z</time>
      </trkpt>
      <trkpt lat="46.15612" lon="2.47373">
        <ele>484</ele>
        <time>2015-04-10T13:05:58Z</time>
      </trkpt>
      <trkpt lat="46.15609" lon="2.47371">
        <ele>484</ele>
        <time>2015-04-10T13:06:00Z</time>
      </trkpt>
      <trkpt lat="46.15607" lon="2.47368">
        <ele>484</ele>
        <time>2015-04-10T13:06:02Z</time>
      </trkpt>
      <trkpt lat="46.15604" lon="2.47366">
        <ele>484</ele>
        <time>2015-04-10T13:06:04Z</time>
      </trkpt>
      <trkpt lat="46.15602" lon="2.47364">
        <ele>484</ele>
        <time>2015-04-10T13:06:06Z</time>
      </trkpt>
      <trkpt lat="46.15599" lon="2.47361">
        <ele>484</ele>
        <time>2015-04-10T13:06:08Z</time>
      </trkpt>
      <trkpt lat="46.15597" lon="2.47359">
        <ele>484</ele>
        <time>2015-04-10T13:06:10Z</time>
      </trkpt>
      <trkpt lat="46.15594" lon="2.47357">
        <ele>484</ele>
        <time>2015-04-10T13:06:12Z</time>
      </trkpt>
      <trkpt lat="46.15592" lon="2.47355">
        <ele>484</ele>
        <time>2015-04-10T13:06:14Z</time>
      </trkpt>
      <trkpt lat="46.15589" lon="2.47353">
        <ele>484</ele>
        <time>2015-04-10T13:06:16Z</time>
      </trkpt>
      <trkpt lat="46.15587" lon="2.47352">
        <ele>484</ele>
        <time>2015-04-10T13:06:18Z</time>
      </trkpt>
      <trkpt lat="46.15583" lon="2.47349">
        <ele>484</ele>
        <time>2015-04-10T13:06:20Z</time>
      </trkpt>
      <trkpt lat="46.1558" lon="2.47347">
        <ele>484</ele>
        <time>2015-04-10T13:06:22Z</time>
      </trkpt>
      <trkpt lat="46.15577" lon="2.47345">
        <ele>484</ele>
        <time>2015-04-10T13:06:24Z</time>
      </trkpt>
      <trkpt lat="46.15575" lon="2.47344">
        <ele>484</ele>
        <time>2015-04-10T13:06:26Z</time>
      </trkpt>
      <trkpt lat="46.15571" lon="2.47343">
        <ele>484</ele>
        <time>2015-04-10T13:06:28Z</time>
      </trkpt>
      <trkpt lat="46.15569" lon="2.47342">
        <ele>484</ele>
        <time>2015-04-10T13:06:30Z</time>
      </trkpt>
      <trkpt lat="46.15566" lon="2.4734">
        <ele>484</ele>
        <time>2015-04-10T13:06:32Z</time>
      </trkpt>
      <trkpt lat="46.15563" lon="2.47339">
        <ele>484</ele>
        <time>2015-04-10T13:06:34Z</time>
      </trkpt>
      <trkpt lat="46.1556" lon="2.47338">
        <ele>484</ele>
        <time>2015-04-10T13:06:36Z</time>
      </trkpt>
      <trkpt lat="46.15557" lon="2.47337">
        <ele>484</ele>
        <time>2015-04-10T13:06:38Z</time>
      </trkpt>
      <trkpt lat="46.15554" lon="2.47336">
        <ele>484</ele>
        <time>2015-04-10T13:06:40Z</time>
      </trkpt>
      <trkpt lat="46.15552" lon="2.47335">
        <ele>484</ele>
        <time>2015-04-10T13:06:42Z</time>
      </trkpt>
      <trkpt lat="46.15549" lon="2.47334">
        <ele>484</ele>
        <time>2015-04-10T13:06:44Z</time>
      </trkpt>
      <trkpt lat="46.15547" lon="2.47334">
        <ele>484</ele>
        <time>2015-04-10T13:06:46Z</time>
      </trkpt>
      <trkpt lat="46.15544" lon="2.47333">
        <ele>484</ele>
        <time>2015-04-10T13:06:48Z</time>
      </trkpt>
      <trkpt lat="46.15541" lon="2.47332">
        <ele>484</ele>
        <time>2015-04-10T13:06:50Z</time>
      </trkpt>
      <trkpt lat="46.15538" lon="2.47331">
        <ele>484</ele>
        <time>2015-04-10T13:06:52Z</time>
      </trkpt>
      <trkpt lat="46.15536" lon="2.4733">
        <ele>484</ele>
        <time>2015-04-10T13:06:54Z</time>
      </trkpt>
      <trkpt lat="46.15533" lon="2.47329">
        <ele>484</ele>
        <time>2015-04-10T13:06:56Z</time>
      </trkpt>
      <trkpt lat="46.1553" lon="2.47327">
        <ele>484</ele>
        <time>2015-04-10T13:06:58Z</time>
      </trkpt>
      <trkpt lat="46.15527" lon="2.47326">
        <ele>484</ele>
        <time>2015-04-10T13:07:00Z</time>
      </trkpt>
      <trkpt lat="46.15525" lon="2.47325">
        <ele>484</ele>
        <time>2015-04-10T13:07:02Z</time>
      </trkpt>
      <trkpt lat="46.15522" lon="2.47323">
        <ele>484</ele>
        <time>2015-04-10T13:07:04Z</time>
      </trkpt>
      <trkpt lat="46.15519" lon="2.47322">
        <ele>484</ele>
        <time>2015-04-10T13:07:06Z</time>
      </trkpt>
      <trkpt lat="46.15516" lon="2.4732">
        <ele>484</ele>
        <time>2015-04-10T13:07:08Z</time>
      </trkpt>
      <trkpt lat="46.15513" lon="2.47319">
        <ele>484</ele>
        <time>2015-04-10T13:07:10Z</time>
      </trkpt>
      <trkpt lat="46.1551" lon="2.47318">
        <ele>484</ele>
        <time>2015-04-10T13:07:12Z</time>
      </trkpt>
      <trkpt lat="46.15505" lon="2.47317">
        <ele>484</ele>
        <time>2015-04-10T13:07:15Z</time>
      </trkpt>
      <trkpt lat="46.15502" lon="2.47316">
        <ele>484</ele>
        <time>2015-04-10T13:07:17Z</time>
      </trkpt>
      <trkpt lat="46.15498" lon="2.47314">
        <ele>484</ele>
        <time>2015-04-10T13:07:20Z</time>
      </trkpt>
      <trkpt lat="46.15495" lon="2.47313">
        <ele>484</ele>
        <time>2015-04-10T13:07:22Z</time>
      </trkpt>
      <trkpt lat="46.15492" lon="2.47312">
        <ele>484</ele>
        <time>2015-04-10T13:07:24Z</time>
      </trkpt>
      <trkpt lat="46.15489" lon="2.47311">
        <ele>484</ele>
        <time>2015-04-10T13:07:26Z</time>
      </trkpt>
      <trkpt lat="46.15487" lon="2.4731">
        <ele>484</ele>
        <time>2015-04-10T13:07:28Z</time>
      </trkpt>
      <trkpt lat="46.15483" lon="2.47309">
        <ele>484</ele>
        <time>2015-04-10T13:07:30Z</time>
      </trkpt>
      <trkpt lat="46.15479" lon="2.47307">
        <ele>484</ele>
        <time>2015-04-10T13:07:33Z</time>
      </trkpt>
      <trkpt lat="46.15476" lon="2.47306">
        <ele>484</ele>
        <time>2015-04-10T13:07:35Z</time>
      </trkpt>
      <trkpt lat="46.15473" lon="2.47305">
        <ele>484</ele>
        <time>2015-04-10T13:07:37Z</time>
      </trkpt>
      <trkpt lat="46.1547" lon="2.47304">
        <ele>484</ele>
        <time>2015-04-10T13:07:39Z</time>
      </trkpt>
      <trkpt lat="46.15467" lon="2.47303">
        <ele>484</ele>
        <time>2015-04-10T13:07:41Z</time>
      </trkpt>
      <trkpt lat="46.15464" lon="2.47302">
        <ele>484</ele>
        <time>2015-04-10T13:07:43Z</time>
      </trkpt>
      <trkpt lat="46.15461" lon="2.47302">
        <ele>484</ele>
        <time>2015-04-10T13:07:45Z</time>
      </trkpt>
      <trkpt lat="46.15459" lon="2.473">
        <ele>484</ele>
        <time>2015-04-10T13:07:47Z</time>
      </trkpt>
      <trkpt lat="46.15456" lon="2.47299">
        <ele>484</ele>
        <time>2015-04-10T13:07:49Z</time>
      </trkpt>
      <trkpt lat="46.15453" lon="2.47298">
        <ele>484</ele>
        <time>2015-04-10T13:07:51Z</time>
      </trkpt>
      <trkpt lat="46.1545" lon="2.47297">
        <ele>484</ele>
        <time>2015-04-10T13:07:53Z</time>
      </trkpt>
      <trkpt lat="46.15447" lon="2.47296">
        <ele>483</ele>
        <time>2015-04-10T13:07:55Z</time>
      </trkpt>
      <trkpt lat="46.15444" lon="2.47295">
        <ele>483</ele>
        <time>2015-04-10T13:07:57Z</time>
      </trkpt>
      <trkpt lat="46.15441" lon="2.47294">
        <ele>483</ele>
        <time>2015-04-10T13:07:59Z</time>
      </trkpt>
      <trkpt lat="46.15438" lon="2.47293">
        <ele>483</ele>
        <time>2015-04-10T13:08:01Z</time>
      </trkpt>
      <trkpt lat="46.15435" lon="2.47292">
        <ele>482</ele>
        <time>2015-04-10T13:08:03Z</time>
      </trkpt>
      <trkpt lat="46.15432" lon="2.47291">
        <ele>482</ele>
        <time>2015-04-10T13:08:05Z</time>
      </trkpt>
      <trkpt lat="46.1543" lon="2.4729">
        <ele>482</ele>
        <time>2015-04-10T13:08:07Z</time>
      </trkpt>
      <trkpt lat="46.15425" lon="2.47289">
        <ele>481</ele>
        <time>2015-04-10T13:08:10Z</time>
      </trkpt>
      <trkpt lat="46.15422" lon="2.47288">
        <ele>481</ele>
        <time>2015-04-10T13:08:12Z</time>
      </trkpt>
      <trkpt lat="46.15418" lon="2.47287">
        <ele>481</ele>
        <time>2015-04-10T13:08:14Z</time>
      </trkpt>
      <trkpt lat="46.15415" lon="2.47285">
        <ele>481</ele>
        <time>2015-04-10T13:08:16Z</time>
      </trkpt>
      <trkpt lat="46.15413" lon="2.47284">
        <ele>481</ele>
        <time>2015-04-10T13:08:18Z</time>
      </trkpt>
      <trkpt lat="46.1541" lon="2.47283">
        <ele>481</ele>
        <time>2015-04-10T13:08:20Z</time>
      </trkpt>
      <trkpt lat="46.15407" lon="2.47282">
        <ele>481</ele>
        <time>2015-04-10T13:08:22Z</time>
      </trkpt>
      <trkpt lat="46.15404" lon="2.47281">
        <ele>480</ele>
        <time>2015-04-10T13:08:24Z</time>
      </trkpt>
      <trkpt lat="46.15401" lon="2.47281">
        <ele>480</ele>
        <time>2015-04-10T13:08:26Z</time>
      </trkpt>
      <trkpt lat="46.15398" lon="2.4728">
        <ele>480</ele>
        <time>2015-04-10T13:08:28Z</time>
      </trkpt>
      <trkpt lat="46.15395" lon="2.47279">
        <ele>480</ele>
        <time>2015-04-10T13:08:30Z</time>
      </trkpt>
      <trkpt lat="46.15392" lon="2.47278">
        <ele>480</ele>
        <time>2015-04-10T13:08:32Z</time>
      </trkpt>
      <trkpt lat="46.15389" lon="2.47276">
        <ele>480</ele>
        <time>2015-04-10T13:08:34Z</time>
      </trkpt>
      <trkpt lat="46.15387" lon="2.47275">
        <ele>480</ele>
        <time>2015-04-10T13:08:36Z</time>
      </trkpt>
      <trkpt lat="46.15384" lon="2.47274">
        <ele>480</ele>
        <time>2015-04-10T13:08:38Z</time>
      </trkpt>
      <trkpt lat="46.15381" lon="2.47273">
        <ele>480</ele>
        <time>2015-04-10T13:08:40Z</time>
      </trkpt>
      <trkpt lat="46.15378" lon="2.47272">
        <ele>480</ele>
        <time>2015-04-10T13:08:42Z</time>
      </trkpt>
      <trkpt lat="46.15374" lon="2.47271">
        <ele>479</ele>
        <time>2015-04-10T13:08:45Z</time>
      </trkpt>
      <trkpt lat="46.15371" lon="2.4727">
        <ele>479</ele>
        <time>2015-04-10T13:08:47Z</time>
      </trkpt>
      <trkpt lat="46.15368" lon="2.47269">
        <ele>479</ele>
        <time>2015-04-10T13:08:49Z</time>
      </trkpt>
      <trkpt lat="46.15366" lon="2.47268">
        <ele>479</ele>
        <time>2015-04-10T13:08:51Z</time>
      </trkpt>
      <trkpt lat="46.15363" lon="2.47267">
        <ele>479</ele>
        <time>2015-04-10T13:08:53Z</time>
      </trkpt>
      <trkpt lat="46.1536" lon="2.47266">
        <ele>479</ele>
        <time>2015-04-10T13:08:55Z</time>
      </trkpt>
      <trkpt lat="46.15357" lon="2.47265">
        <ele>479</ele>
        <time>2015-04-10T13:08:57Z</time>
      </trkpt>
      <trkpt lat="46.15354" lon="2.47264">
        <ele>478</ele>
        <time>2015-04-10T13:08:59Z</time>
      </trkpt>
      <trkpt lat="46.15351" lon="2.47264">
        <ele>478</ele>
        <time>2015-04-10T13:09:01Z</time>
      </trkpt>
      <trkpt lat="46.15348" lon="2.47263">
        <ele>478</ele>
        <time>2015-04-10T13:09:03Z</time>
      </trkpt>
      <trkpt lat="46.15345" lon="2.47262">
        <ele>477</ele>
        <time>2015-04-10T13:09:05Z</time>
      </trkpt>
      <trkpt lat="46.15343" lon="2.4726">
        <ele>477</ele>
        <time>2015-04-10T13:09:07Z</time>
      </trkpt>
      <trkpt lat="46.1534" lon="2.4726">
        <ele>477</ele>
        <time>2015-04-10T13:09:09Z</time>
      </trkpt>
      <trkpt lat="46.15337" lon="2.4726">
        <ele>477</ele>
        <time>2015-04-10T13:09:11Z</time>
      </trkpt>
      <trkpt lat="46.15334" lon="2.4726">
        <ele>476</ele>
        <time>2015-04-10T13:09:13Z</time>
      </trkpt>
      <trkpt lat="46.15329" lon="2.47261">
        <ele>476</ele>
        <time>2015-04-10T13:09:15Z</time>
      </trkpt>
      <trkpt lat="46.15327" lon="2.47262">
        <ele>476</ele>
        <time>2015-04-10T13:09:18Z</time>
      </trkpt>
      <trkpt lat="46.15323" lon="2.47265">
        <ele>476</ele>
        <time>2015-04-10T13:09:21Z</time>
      </trkpt>
      <trkpt lat="46.1532" lon="2.47267">
        <ele>476</ele>
        <time>2015-04-10T13:09:23Z</time>
      </trkpt>
      <trkpt lat="46.15318" lon="2.47269">
        <ele>476</ele>
        <time>2015-04-10T13:09:25Z</time>
      </trkpt>
      <trkpt lat="46.15316" lon="2.47271">
        <ele>476</ele>
        <time>2015-04-10T13:09:27Z</time>
      </trkpt>
      <trkpt lat="46.15313" lon="2.47273">
        <ele>476</ele>
        <time>2015-04-10T13:09:29Z</time>
      </trkpt>
      <trkpt lat="46.1531" lon="2.47277">
        <ele>476</ele>
        <time>2015-04-10T13:09:31Z</time>
      </trkpt>
      <trkpt lat="46.15308" lon="2.4728">
        <ele>476</ele>
        <time>2015-04-10T13:09:34Z</time>
      </trkpt>
      <trkpt lat="46.15306" lon="2.47283">
        <ele>476</ele>
        <time>2015-04-10T13:09:36Z</time>
      </trkpt>
      <trkpt lat="46.15303" lon="2.47288">
        <ele>476</ele>
        <time>2015-04-10T13:09:39Z</time>
      </trkpt>
      <trkpt lat="46.153" lon="2.47292">
        <ele>476</ele>
        <time>2015-04-10T13:09:42Z</time>
      </trkpt>
      <trkpt lat="46.15296" lon="2.47297">
        <ele>476</ele>
        <time>2015-04-10T13:09:45Z</time>
      </trkpt>
      <trkpt lat="46.15295" lon="2.473">
        <ele>476</ele>
        <time>2015-04-10T13:09:47Z</time>
      </trkpt>
      <trkpt lat="46.15295" lon="2.47304">
        <ele>476</ele>
        <time>2015-04-10T13:09:49Z</time>
      </trkpt>
      <trkpt lat="46.15294" lon="2.47307">
        <ele>476</ele>
        <time>2015-04-10T13:09:51Z</time>
      </trkpt>
      <trkpt lat="46.15294" lon="2.47311">
        <ele>476</ele>
        <time>2015-04-10T13:09:53Z</time>
      </trkpt>
      <trkpt lat="46.15295" lon="2.47315">
        <ele>476</ele>
        <time>2015-04-10T13:09:55Z</time>
      </trkpt>
      <trkpt lat="46.15295" lon="2.47316">
        <ele>476</ele>
        <time>2015-04-10T13:10:01Z</time>
      </trkpt>
      <trkpt lat="46.15295" lon="2.47319">
        <ele>476</ele>
        <time>2015-04-10T13:10:03Z</time>
      </trkpt>
      <trkpt lat="46.15296" lon="2.47322">
        <ele>476</ele>
        <time>2015-04-10T13:10:05Z</time>
      </trkpt>
      <trkpt lat="46.15298" lon="2.47326">
        <ele>476</ele>
        <time>2015-04-10T13:10:08Z</time>
      </trkpt>
      <trkpt lat="46.15298" lon="2.47327">
        <ele>476</ele>
        <time>2015-04-10T13:10:16Z</time>
      </trkpt>
      <trkpt lat="46.153" lon="2.47331">
        <ele>477</ele>
        <time>2015-04-10T13:10:26Z</time>
      </trkpt>
      <trkpt lat="46.15302" lon="2.47336">
        <ele>478</ele>
        <time>2015-04-10T13:10:29Z</time>
      </trkpt>
      <trkpt lat="46.15303" lon="2.47339">
        <ele>478</ele>
        <time>2015-04-10T13:10:32Z</time>
      </trkpt>
      <trkpt lat="46.15305" lon="2.47344">
        <ele>478</ele>
        <time>2015-04-10T13:10:35Z</time>
      </trkpt>
      <trkpt lat="46.15305" lon="2.47348">
        <ele>478</ele>
        <time>2015-04-10T13:10:38Z</time>
      </trkpt>
      <trkpt lat="46.15307" lon="2.47354">
        <ele>478</ele>
        <time>2015-04-10T13:10:40Z</time>
      </trkpt>
      <trkpt lat="46.15307" lon="2.47357">
        <ele>478</ele>
        <time>2015-04-10T13:10:43Z</time>
      </trkpt>
      <trkpt lat="46.15306" lon="2.47363">
        <ele>478</ele>
        <time>2015-04-10T13:10:46Z</time>
      </trkpt>
      <trkpt lat="46.15305" lon="2.47368">
        <ele>478</ele>
        <time>2015-04-10T13:10:49Z</time>
      </trkpt>
      <trkpt lat="46.153" lon="2.47374">
        <ele>478</ele>
        <time>2015-04-10T13:10:52Z</time>
      </trkpt>
      <trkpt lat="46.15297" lon="2.47376">
        <ele>478</ele>
        <time>2015-04-10T13:10:54Z</time>
      </trkpt>
      <trkpt lat="46.15294" lon="2.47378">
        <ele>478</ele>
        <time>2015-04-10T13:10:56Z</time>
      </trkpt>
      <trkpt lat="46.15291" lon="2.47379">
        <ele>478</ele>
        <time>2015-04-10T13:10:59Z</time>
      </trkpt>
      <trkpt lat="46.15287" lon="2.47379">
        <ele>478</ele>
        <time>2015-04-10T13:11:01Z</time>
      </trkpt>
      <trkpt lat="46.15284" lon="2.4738">
        <ele>478</ele>
        <time>2015-04-10T13:11:04Z</time>
      </trkpt>
      <trkpt lat="46.1528" lon="2.4738">
        <ele>478</ele>
        <time>2015-04-10T13:11:06Z</time>
      </trkpt>
      <trkpt lat="46.15278" lon="2.4738">
        <ele>478</ele>
        <time>2015-04-10T13:11:09Z</time>
      </trkpt>
      <trkpt lat="46.15274" lon="2.4738">
        <ele>478</ele>
        <time>2015-04-10T13:11:11Z</time>
      </trkpt>
      <trkpt lat="46.15271" lon="2.47379">
        <ele>478</ele>
        <time>2015-04-10T13:11:14Z</time>
      </trkpt>
      <trkpt lat="46.15267" lon="2.47376">
        <ele>478</ele>
        <time>2015-04-10T13:11:16Z</time>
      </trkpt>
      <trkpt lat="46.15265" lon="2.47374">
        <ele>478</ele>
        <time>2015-04-10T13:11:19Z</time>
      </trkpt>
      <trkpt lat="46.15261" lon="2.4737">
        <ele>478</ele>
        <time>2015-04-10T13:11:22Z</time>
      </trkpt>
      <trkpt lat="46.1526" lon="2.47367">
        <ele>478</ele>
        <time>2015-04-10T13:11:24Z</time>
      </trkpt>
      <trkpt lat="46.15258" lon="2.47362">
        <ele>478</ele>
        <time>2015-04-10T13:11:27Z</time>
      </trkpt>
      <trkpt lat="46.15256" lon="2.47359">
        <ele>478</ele>
        <time>2015-04-10T13:11:29Z</time>
      </trkpt>
      <trkpt lat="46.15254" lon="2.47354">
        <ele>478</ele>
        <time>2015-04-10T13:11:31Z</time>
      </trkpt>
      <trkpt lat="46.15252" lon="2.47351">
        <ele>478</ele>
        <time>2015-04-10T13:11:34Z</time>
      </trkpt>
      <trkpt lat="46.1525" lon="2.47346">
        <ele>478</ele>
        <time>2015-04-10T13:11:37Z</time>
      </trkpt>
      <trkpt lat="46.15247" lon="2.47341">
        <ele>478</ele>
        <time>2015-04-10T13:11:40Z</time>
      </trkpt>
      <trkpt lat="46.15244" lon="2.47337">
        <ele>477</ele>
        <time>2015-04-10T13:11:42Z</time>
      </trkpt>
      <trkpt lat="46.15242" lon="2.47334">
        <ele>477</ele>
        <time>2015-04-10T13:11:45Z</time>
      </trkpt>
      <trkpt lat="46.15238" lon="2.4733">
        <ele>476</ele>
        <time>2015-04-10T13:11:47Z</time>
      </trkpt>
      <trkpt lat="46.15236" lon="2.47328">
        <ele>476</ele>
        <time>2015-04-10T13:11:50Z</time>
      </trkpt>
      <trkpt lat="46.15232" lon="2.47325">
        <ele>475</ele>
        <time>2015-04-10T13:11:52Z</time>
      </trkpt>
      <trkpt lat="46.15229" lon="2.47324">
        <ele>475</ele>
        <time>2015-04-10T13:11:55Z</time>
      </trkpt>
      <trkpt lat="46.15226" lon="2.47323">
        <ele>475</ele>
        <time>2015-04-10T13:11:57Z</time>
      </trkpt>
      <trkpt lat="46.15221" lon="2.47323">
        <ele>475</ele>
        <time>2015-04-10T13:12:00Z</time>
      </trkpt>
      <trkpt lat="46.15217" lon="2.47323">
        <ele>475</ele>
        <time>2015-04-10T13:12:02Z</time>
      </trkpt>
      <trkpt lat="46.15213" lon="2.47323">
        <ele>475</ele>
        <time>2015-04-10T13:12:05Z</time>
      </trkpt>
      <trkpt lat="46.15208" lon="2.47323">
        <ele>475</ele>
        <time>2015-04-10T13:12:07Z</time>
      </trkpt>
      <trkpt lat="46.15206" lon="2.47323">
        <ele>475</ele>
        <time>2015-04-10T13:12:10Z</time>
      </trkpt>
      <trkpt lat="46.15201" lon="2.47323">
        <ele>475</ele>
        <time>2015-04-10T13:12:12Z</time>
      </trkpt>
      <trkpt lat="46.15199" lon="2.47322">
        <ele>475</ele>
        <time>2015-04-10T13:12:15Z</time>
      </trkpt>
      <trkpt lat="46.15194" lon="2.47322">
        <ele>475</ele>
        <time>2015-04-10T13:12:17Z</time>
      </trkpt>
      <trkpt lat="46.15192" lon="2.47321">
        <ele>475</ele>
        <time>2015-04-10T13:12:20Z</time>
      </trkpt>
      <trkpt lat="46.15187" lon="2.4732">
        <ele>475</ele>
        <time>2015-04-10T13:12:22Z</time>
      </trkpt>
      <trkpt lat="46.15184" lon="2.47319">
        <ele>475</ele>
        <time>2015-04-10T13:12:25Z</time>
      </trkpt>
      <trkpt lat="46.1518" lon="2.47318">
        <ele>475</ele>
        <time>2015-04-10T13:12:27Z</time>
      </trkpt>
      <trkpt lat="46.15177" lon="2.47317">
        <ele>475</ele>
        <time>2015-04-10T13:12:30Z</time>
      </trkpt>
      <trkpt lat="46.15173" lon="2.47315">
        <ele>475</ele>
        <time>2015-04-10T13:12:32Z</time>
      </trkpt>
      <trkpt lat="46.1517" lon="2.47314">
        <ele>475</ele>
        <time>2015-04-10T13:12:35Z</time>
      </trkpt>
      <trkpt lat="46.15165" lon="2.47313">
        <ele>475</ele>
        <time>2015-04-10T13:12:37Z</time>
      </trkpt>
      <trkpt lat="46.15163" lon="2.47312">
        <ele>474</ele>
        <time>2015-04-10T13:12:40Z</time>
      </trkpt>
      <trkpt lat="46.15158" lon="2.4731">
        <ele>474</ele>
        <time>2015-04-10T13:12:42Z</time>
      </trkpt>
      <trkpt lat="46.15155" lon="2.47309">
        <ele>474</ele>
        <time>2015-04-10T13:12:45Z</time>
      </trkpt>
      <trkpt lat="46.15151" lon="2.47308">
        <ele>474</ele>
        <time>2015-04-10T13:12:47Z</time>
      </trkpt>
      <trkpt lat="46.15148" lon="2.47307">
        <ele>474</ele>
        <time>2015-04-10T13:12:50Z</time>
      </trkpt>
      <trkpt lat="46.15144" lon="2.47307">
        <ele>474</ele>
        <time>2015-04-10T13:12:52Z</time>
      </trkpt>
      <trkpt lat="46.15141" lon="2.47307">
        <ele>474</ele>
        <time>2015-04-10T13:12:55Z</time>
      </trkpt>
      <trkpt lat="46.15136" lon="2.47306">
        <ele>474</ele>
        <time>2015-04-10T13:12:57Z</time>
      </trkpt>
      <trkpt lat="46.15133" lon="2.47305">
        <ele>474</ele>
        <time>2015-04-10T13:13:00Z</time>
      </trkpt>
      <trkpt lat="46.15128" lon="2.47306">
        <ele>474</ele>
        <time>2015-04-10T13:13:02Z</time>
      </trkpt>
      <trkpt lat="46.15125" lon="2.47306">
        <ele>474</ele>
        <time>2015-04-10T13:13:05Z</time>
      </trkpt>
      <trkpt lat="46.15121" lon="2.47307">
        <ele>474</ele>
        <time>2015-04-10T13:13:07Z</time>
      </trkpt>
      <trkpt lat="46.15118" lon="2.47307">
        <ele>474</ele>
        <time>2015-04-10T13:13:10Z</time>
      </trkpt>
      <trkpt lat="46.15114" lon="2.47307">
        <ele>474</ele>
        <time>2015-04-10T13:13:12Z</time>
      </trkpt>
      <trkpt lat="46.15111" lon="2.47308">
        <ele>474</ele>
        <time>2015-04-10T13:13:15Z</time>
      </trkpt>
      <trkpt lat="46.15107" lon="2.47308">
        <ele>474</ele>
        <time>2015-04-10T13:13:17Z</time>
      </trkpt>
      <trkpt lat="46.15104" lon="2.47308">
        <ele>474</ele>
        <time>2015-04-10T13:13:20Z</time>
      </trkpt>
      <trkpt lat="46.151" lon="2.47308">
        <ele>473</ele>
        <time>2015-04-10T13:13:22Z</time>
      </trkpt>
      <trkpt lat="46.15097" lon="2.47308">
        <ele>473</ele>
        <time>2015-04-10T13:13:25Z</time>
      </trkpt>
      <trkpt lat="46.15092" lon="2.47307">
        <ele>473</ele>
        <time>2015-04-10T13:13:27Z</time>
      </trkpt>
      <trkpt lat="46.15089" lon="2.47307">
        <ele>473</ele>
        <time>2015-04-10T13:13:30Z</time>
      </trkpt>
      <trkpt lat="46.15085" lon="2.47307">
        <ele>472</ele>
        <time>2015-04-10T13:13:32Z</time>
      </trkpt>
      <trkpt lat="46.15082" lon="2.47306">
        <ele>472</ele>
        <time>2015-04-10T13:13:35Z</time>
      </trkpt>
      <trkpt lat="46.15078" lon="2.47305">
        <ele>472</ele>
        <time>2015-04-10T13:13:37Z</time>
      </trkpt>
      <trkpt lat="46.15075" lon="2.47305">
        <ele>471</ele>
        <time>2015-04-10T13:13:40Z</time>
      </trkpt>
      <trkpt lat="46.1507" lon="2.47304">
        <ele>471</ele>
        <time>2015-04-10T13:13:42Z</time>
      </trkpt>
      <trkpt lat="46.15067" lon="2.47304">
        <ele>471</ele>
        <time>2015-04-10T13:13:45Z</time>
      </trkpt>
      <trkpt lat="46.15063" lon="2.47303">
        <ele>470</ele>
        <time>2015-04-10T13:13:47Z</time>
      </trkpt>
      <trkpt lat="46.1506" lon="2.47303">
        <ele>470</ele>
        <time>2015-04-10T13:13:50Z</time>
      </trkpt>
      <trkpt lat="46.15055" lon="2.47302">
        <ele>469</ele>
        <time>2015-04-10T13:13:52Z</time>
      </trkpt>
      <trkpt lat="46.15052" lon="2.47302">
        <ele>469</ele>
        <time>2015-04-10T13:13:55Z</time>
      </trkpt>
      <trkpt lat="46.15048" lon="2.47301">
        <ele>469</ele>
        <time>2015-04-10T13:13:57Z</time>
      </trkpt>
      <trkpt lat="46.15045" lon="2.47301">
        <ele>468</ele>
        <time>2015-04-10T13:14:00Z</time>
      </trkpt>
      <trkpt lat="46.15041" lon="2.47299">
        <ele>468</ele>
        <time>2015-04-10T13:14:02Z</time>
      </trkpt>
      <trkpt lat="46.15038" lon="2.47299">
        <ele>468</ele>
        <time>2015-04-10T13:14:05Z</time>
      </trkpt>
      <trkpt lat="46.15033" lon="2.47297">
        <ele>467</ele>
        <time>2015-04-10T13:14:07Z</time>
      </trkpt>
      <trkpt lat="46.1503" lon="2.47295">
        <ele>467</ele>
        <time>2015-04-10T13:14:09Z</time>
      </trkpt>
      <trkpt lat="46.15027" lon="2.47294">
        <ele>467</ele>
        <time>2015-04-10T13:14:11Z</time>
      </trkpt>
      <trkpt lat="46.15024" lon="2.47293">
        <ele>466</ele>
        <time>2015-04-10T13:14:13Z</time>
      </trkpt>
      <trkpt lat="46.15022" lon="2.47292">
        <ele>466</ele>
        <time>2015-04-10T13:14:15Z</time>
      </trkpt>
      <trkpt lat="46.15019" lon="2.4729">
        <ele>465</ele>
        <time>2015-04-10T13:14:17Z</time>
      </trkpt>
      <trkpt lat="46.15016" lon="2.47289">
        <ele>464</ele>
        <time>2015-04-10T13:14:20Z</time>
      </trkpt>
      <trkpt lat="46.15012" lon="2.47287">
        <ele>464</ele>
        <time>2015-04-10T13:14:22Z</time>
      </trkpt>
      <trkpt lat="46.1501" lon="2.47286">
        <ele>463</ele>
        <time>2015-04-10T13:14:25Z</time>
      </trkpt>
      <trkpt lat="46.15005" lon="2.47284">
        <ele>462</ele>
        <time>2015-04-10T13:14:27Z</time>
      </trkpt>
      <trkpt lat="46.15002" lon="2.47282">
        <ele>462</ele>
        <time>2015-04-10T13:14:30Z</time>
      </trkpt>
      <trkpt lat="46.14998" lon="2.47279">
        <ele>462</ele>
        <time>2015-04-10T13:14:32Z</time>
      </trkpt>
      <trkpt lat="46.14994" lon="2.47276">
        <ele>462</ele>
        <time>2015-04-10T13:14:35Z</time>
      </trkpt>
      <trkpt lat="46.14989" lon="2.47271">
        <ele>462</ele>
        <time>2015-04-10T13:14:37Z</time>
      </trkpt>
      <trkpt lat="46.14985" lon="2.47269">
        <ele>462</ele>
        <time>2015-04-10T13:14:40Z</time>
      </trkpt>
      <trkpt lat="46.1498" lon="2.47268">
        <ele>462</ele>
        <time>2015-04-10T13:14:42Z</time>
      </trkpt>
      <trkpt lat="46.14978" lon="2.47268">
        <ele>462</ele>
        <time>2015-04-10T13:14:45Z</time>
      </trkpt>
      <trkpt lat="46.14973" lon="2.47268">
        <ele>462</ele>
        <time>2015-04-10T13:14:47Z</time>
      </trkpt>
      <trkpt lat="46.1497" lon="2.47268">
        <ele>462</ele>
        <time>2015-04-10T13:14:50Z</time>
      </trkpt>
      <trkpt lat="46.14965" lon="2.47269">
        <ele>462</ele>
        <time>2015-04-10T13:14:53Z</time>
      </trkpt>
      <trkpt lat="46.14961" lon="2.4727">
        <ele>462</ele>
        <time>2015-04-10T13:14:55Z</time>
      </trkpt>
      <trkpt lat="46.14958" lon="2.47271">
        <ele>462</ele>
        <time>2015-04-10T13:14:57Z</time>
      </trkpt>
      <trkpt lat="46.14955" lon="2.47272">
        <ele>461</ele>
        <time>2015-04-10T13:15:00Z</time>
      </trkpt>
      <trkpt lat="46.14951" lon="2.47274">
        <ele>461</ele>
        <time>2015-04-10T13:15:02Z</time>
      </trkpt>
      <trkpt lat="46.14948" lon="2.47275">
        <ele>460</ele>
        <time>2015-04-10T13:15:05Z</time>
      </trkpt>
      <trkpt lat="46.14943" lon="2.47278">
        <ele>460</ele>
        <time>2015-04-10T13:15:07Z</time>
      </trkpt>
      <trkpt lat="46.1494" lon="2.4728">
        <ele>460</ele>
        <time>2015-04-10T13:15:09Z</time>
      </trkpt>
      <trkpt lat="46.14937" lon="2.47282">
        <ele>460</ele>
        <time>2015-04-10T13:15:11Z</time>
      </trkpt>
      <trkpt lat="46.14935" lon="2.47284">
        <ele>460</ele>
        <time>2015-04-10T13:15:13Z</time>
      </trkpt>
      <trkpt lat="46.14932" lon="2.47286">
        <ele>459</ele>
        <time>2015-04-10T13:15:15Z</time>
      </trkpt>
      <trkpt lat="46.14929" lon="2.47288">
        <ele>459</ele>
        <time>2015-04-10T13:15:17Z</time>
      </trkpt>
      <trkpt lat="46.14927" lon="2.47289">
        <ele>459</ele>
        <time>2015-04-10T13:15:19Z</time>
      </trkpt>
      <trkpt lat="46.14924" lon="2.47292">
        <ele>459</ele>
        <time>2015-04-10T13:15:21Z</time>
      </trkpt>
      <trkpt lat="46.14922" lon="2.47294">
        <ele>459</ele>
        <time>2015-04-10T13:15:23Z</time>
      </trkpt>
      <trkpt lat="46.14919" lon="2.47297">
        <ele>458</ele>
        <time>2015-04-10T13:15:25Z</time>
      </trkpt>
      <trkpt lat="46.14917" lon="2.47299">
        <ele>458</ele>
        <time>2015-04-10T13:15:27Z</time>
      </trkpt>
      <trkpt lat="46.14914" lon="2.47302">
        <ele>458</ele>
        <time>2015-04-10T13:15:29Z</time>
      </trkpt>
      <trkpt lat="46.14912" lon="2.47304">
        <ele>458</ele>
        <time>2015-04-10T13:15:31Z</time>
      </trkpt>
      <trkpt lat="46.14909" lon="2.47306">
        <ele>458</ele>
        <time>2015-04-10T13:15:33Z</time>
      </trkpt>
      <trkpt lat="46.14906" lon="2.47307">
        <ele>458</ele>
        <time>2015-04-10T13:15:35Z</time>
      </trkpt>
      <trkpt lat="46.14903" lon="2.47309">
        <ele>458</ele>
        <time>2015-04-10T13:15:37Z</time>
      </trkpt>
      <trkpt lat="46.14901" lon="2.47309">
        <ele>457</ele>
        <time>2015-04-10T13:15:39Z</time>
      </trkpt>
      <trkpt lat="46.14898" lon="2.47309">
        <ele>457</ele>
        <time>2015-04-10T13:15:41Z</time>
      </trkpt>
      <trkpt lat="46.14895" lon="2.4731">
        <ele>457</ele>
        <time>2015-04-10T13:15:43Z</time>
      </trkpt>
      <trkpt lat="46.14892" lon="2.47309">
        <ele>457</ele>
        <time>2015-04-10T13:15:45Z</time>
      </trkpt>
      <trkpt lat="46.14889" lon="2.47308">
        <ele>456</ele>
        <time>2015-04-10T13:15:47Z</time>
      </trkpt>
      <trkpt lat="46.14886" lon="2.47307">
        <ele>456</ele>
        <time>2015-04-10T13:15:50Z</time>
      </trkpt>
      <trkpt lat="46.14882" lon="2.47305">
        <ele>455</ele>
        <time>2015-04-10T13:15:52Z</time>
      </trkpt>
      <trkpt lat="46.1488" lon="2.47302">
        <ele>455</ele>
        <time>2015-04-10T13:15:54Z</time>
      </trkpt>
      <trkpt lat="46.14877" lon="2.473">
        <ele>454</ele>
        <time>2015-04-10T13:15:56Z</time>
      </trkpt>
      <trkpt lat="46.14874" lon="2.47296">
        <ele>454</ele>
        <time>2015-04-10T13:15:59Z</time>
      </trkpt>
      <trkpt lat="46.14872" lon="2.47293">
        <ele>453</ele>
        <time>2015-04-10T13:16:01Z</time>
      </trkpt>
      <trkpt lat="46.1487" lon="2.47289">
        <ele>453</ele>
        <time>2015-04-10T13:16:03Z</time>
      </trkpt>
      <trkpt lat="46.14869" lon="2.47285">
        <ele>453</ele>
        <time>2015-04-10T13:16:05Z</time>
      </trkpt>
      <trkpt lat="46.14867" lon="2.47281">
        <ele>453</ele>
        <time>2015-04-10T13:16:07Z</time>
      </trkpt>
      <trkpt lat="46.14866" lon="2.47276">
        <ele>453</ele>
        <time>2015-04-10T13:16:10Z</time>
      </trkpt>
      <trkpt lat="46.14864" lon="2.4727">
        <ele>452</ele>
        <time>2015-04-10T13:16:12Z</time>
      </trkpt>
      <trkpt lat="46.14864" lon="2.47265">
        <ele>452</ele>
        <time>2015-04-10T13:16:15Z</time>
      </trkpt>
      <trkpt lat="46.14863" lon="2.47258">
        <ele>452</ele>
        <time>2015-04-10T13:16:17Z</time>
      </trkpt>
      <trkpt lat="46.14862" lon="2.47254">
        <ele>452</ele>
        <time>2015-04-10T13:16:19Z</time>
      </trkpt>
      <trkpt lat="46.14862" lon="2.47249">
        <ele>451</ele>
        <time>2015-04-10T13:16:21Z</time>
      </trkpt>
      <trkpt lat="46.1486" lon="2.47245">
        <ele>451</ele>
        <time>2015-04-10T13:16:23Z</time>
      </trkpt>
      <trkpt lat="46.14859" lon="2.47241">
        <ele>451</ele>
        <time>2015-04-10T13:16:25Z</time>
      </trkpt>
      <trkpt lat="46.14858" lon="2.47237">
        <ele>450</ele>
        <time>2015-04-10T13:16:27Z</time>
      </trkpt>
      <trkpt lat="46.14856" lon="2.47233">
        <ele>450</ele>
        <time>2015-04-10T13:16:30Z</time>
      </trkpt>
      <trkpt lat="46.14853" lon="2.47228">
        <ele>449</ele>
        <time>2015-04-10T13:16:32Z</time>
      </trkpt>
      <trkpt lat="46.14851" lon="2.47226">
        <ele>449</ele>
        <time>2015-04-10T13:16:34Z</time>
      </trkpt>
      <trkpt lat="46.14848" lon="2.47223">
        <ele>448</ele>
        <time>2015-04-10T13:16:36Z</time>
      </trkpt>
      <trkpt lat="46.14845" lon="2.4722">
        <ele>448</ele>
        <time>2015-04-10T13:16:38Z</time>
      </trkpt>
      <trkpt lat="46.14842" lon="2.47218">
        <ele>448</ele>
        <time>2015-04-10T13:16:40Z</time>
      </trkpt>
      <trkpt lat="46.14839" lon="2.47217">
        <ele>448</ele>
        <time>2015-04-10T13:16:42Z</time>
      </trkpt>
      <trkpt lat="46.14836" lon="2.47216">
        <ele>448</ele>
        <time>2015-04-10T13:16:45Z</time>
      </trkpt>
      <trkpt lat="46.14832" lon="2.47215">
        <ele>448</ele>
        <time>2015-04-10T13:16:47Z</time>
      </trkpt>
      <trkpt lat="46.14829" lon="2.47215">
        <ele>448</ele>
        <time>2015-04-10T13:16:49Z</time>
      </trkpt>
      <trkpt lat="46.14826" lon="2.47215">
        <ele>447</ele>
        <time>2015-04-10T13:16:51Z</time>
      </trkpt>
      <trkpt lat="46.14823" lon="2.47216">
        <ele>447</ele>
        <time>2015-04-10T13:16:53Z</time>
      </trkpt>
      <trkpt lat="46.1482" lon="2.47217">
        <ele>446</ele>
        <time>2015-04-10T13:16:55Z</time>
      </trkpt>
      <trkpt lat="46.14817" lon="2.47218">
        <ele>446</ele>
        <time>2015-04-10T13:16:57Z</time>
      </trkpt>
      <trkpt lat="46.14815" lon="2.4722">
        <ele>446</ele>
        <time>2015-04-10T13:16:59Z</time>
      </trkpt>
      <trkpt lat="46.14812" lon="2.47221">
        <ele>446</ele>
        <time>2015-04-10T13:17:01Z</time>
      </trkpt>
      <trkpt lat="46.14809" lon="2.47222">
        <ele>446</ele>
        <time>2015-04-10T13:17:03Z</time>
      </trkpt>
      <trkpt lat="46.14806" lon="2.47224">
        <ele>445</ele>
        <time>2015-04-10T13:17:05Z</time>
      </trkpt>
      <trkpt lat="46.14803" lon="2.47226">
        <ele>445</ele>
        <time>2015-04-10T13:17:07Z</time>
      </trkpt>
      <trkpt lat="46.148" lon="2.47228">
        <ele>445</ele>
        <time>2015-04-10T13:17:09Z</time>
      </trkpt>
      <trkpt lat="46.14798" lon="2.47229">
        <ele>444</ele>
        <time>2015-04-10T13:17:11Z</time>
      </trkpt>
      <trkpt lat="46.14795" lon="2.47231">
        <ele>444</ele>
        <time>2015-04-10T13:17:13Z</time>
      </trkpt>
      <trkpt lat="46.14792" lon="2.47233">
        <ele>443</ele>
        <time>2015-04-10T13:17:15Z</time>
      </trkpt>
      <trkpt lat="46.14789" lon="2.47235">
        <ele>443</ele>
        <time>2015-04-10T13:17:17Z</time>
      </trkpt>
      <trkpt lat="46.14786" lon="2.47237">
        <ele>443</ele>
        <time>2015-04-10T13:17:19Z</time>
      </trkpt>
      <trkpt lat="46.14783" lon="2.47238">
        <ele>443</ele>
        <time>2015-04-10T13:17:21Z</time>
      </trkpt>
      <trkpt lat="46.14781" lon="2.4724">
        <ele>443</ele>
        <time>2015-04-10T13:17:23Z</time>
      </trkpt>
      <trkpt lat="46.14778" lon="2.47242">
        <ele>443</ele>
        <time>2015-04-10T13:17:25Z</time>
      </trkpt>
      <trkpt lat="46.14775" lon="2.47243">
        <ele>442</ele>
        <time>2015-04-10T13:17:27Z</time>
      </trkpt>
      <trkpt lat="46.14772" lon="2.47246">
        <ele>442</ele>
        <time>2015-04-10T13:17:29Z</time>
      </trkpt>
      <trkpt lat="46.14769" lon="2.47247">
        <ele>442</ele>
        <time>2015-04-10T13:17:31Z</time>
      </trkpt>
      <trkpt lat="46.14766" lon="2.4725">
        <ele>442</ele>
        <time>2015-04-10T13:17:33Z</time>
      </trkpt>
      <trkpt lat="46.14763" lon="2.47252">
        <ele>442</ele>
        <time>2015-04-10T13:17:35Z</time>
      </trkpt>
      <trkpt lat="46.14761" lon="2.47253">
        <ele>442</ele>
        <time>2015-04-10T13:17:37Z</time>
      </trkpt>
      <trkpt lat="46.14758" lon="2.47255">
        <ele>442</ele>
        <time>2015-04-10T13:17:39Z</time>
      </trkpt>
      <trkpt lat="46.14755" lon="2.47257">
        <ele>442</ele>
        <time>2015-04-10T13:17:41Z</time>
      </trkpt>
      <trkpt lat="46.14752" lon="2.47259">
        <ele>441</ele>
        <time>2015-04-10T13:17:43Z</time>
      </trkpt>
      <trkpt lat="46.14749" lon="2.47261">
        <ele>441</ele>
        <time>2015-04-10T13:17:45Z</time>
      </trkpt>
      <trkpt lat="46.14746" lon="2.47263">
        <ele>441</ele>
        <time>2015-04-10T13:17:47Z</time>
      </trkpt>
      <trkpt lat="46.14743" lon="2.47265">
        <ele>441</ele>
        <time>2015-04-10T13:17:49Z</time>
      </trkpt>
      <trkpt lat="46.14741" lon="2.47267">
        <ele>441</ele>
        <time>2015-04-10T13:17:51Z</time>
      </trkpt>
      <trkpt lat="46.14738" lon="2.47269">
        <ele>441</ele>
        <time>2015-04-10T13:17:53Z</time>
      </trkpt>
      <trkpt lat="46.14735" lon="2.47271">
        <ele>440</ele>
        <time>2015-04-10T13:17:55Z</time>
      </trkpt>
      <trkpt lat="46.14733" lon="2.47273">
        <ele>440</ele>
        <time>2015-04-10T13:17:57Z</time>
      </trkpt>
      <trkpt lat="46.1473" lon="2.47275">
        <ele>440</ele>
        <time>2015-04-10T13:17:59Z</time>
      </trkpt>
      <trkpt lat="46.14727" lon="2.47277">
        <ele>440</ele>
        <time>2015-04-10T13:18:01Z</time>
      </trkpt>
      <trkpt lat="46.14724" lon="2.4728">
        <ele>440</ele>
        <time>2015-04-10T13:18:03Z</time>
      </trkpt>
      <trkpt lat="46.14722" lon="2.47282">
        <ele>440</ele>
        <time>2015-04-10T13:18:05Z</time>
      </trkpt>
      <trkpt lat="46.14719" lon="2.47284">
        <ele>440</ele>
        <time>2015-04-10T13:18:07Z</time>
      </trkpt>
      <trkpt lat="46.14717" lon="2.47287">
        <ele>440</ele>
        <time>2015-04-10T13:18:09Z</time>
      </trkpt>
      <trkpt lat="46.14714" lon="2.4729">
        <ele>440</ele>
        <time>2015-04-10T13:18:11Z</time>
      </trkpt>
      <trkpt lat="46.14712" lon="2.47292">
        <ele>440</ele>
        <time>2015-04-10T13:18:13Z</time>
      </trkpt>
      <trkpt lat="46.1471" lon="2.47295">
        <ele>439</ele>
        <time>2015-04-10T13:18:15Z</time>
      </trkpt>
      <trkpt lat="46.14707" lon="2.47298">
        <ele>439</ele>
        <time>2015-04-10T13:18:17Z</time>
      </trkpt>
      <trkpt lat="46.14704" lon="2.47303">
        <ele>439</ele>
        <time>2015-04-10T13:18:20Z</time>
      </trkpt>
      <trkpt lat="46.14702" lon="2.47306">
        <ele>439</ele>
        <time>2015-04-10T13:18:22Z</time>
      </trkpt>
      <trkpt lat="46.147" lon="2.47309">
        <ele>439</ele>
        <time>2015-04-10T13:18:24Z</time>
      </trkpt>
      <trkpt lat="46.14697" lon="2.47313">
        <ele>439</ele>
        <time>2015-04-10T13:18:26Z</time>
      </trkpt>
      <trkpt lat="46.14695" lon="2.47316">
        <ele>439</ele>
        <time>2015-04-10T13:18:28Z</time>
      </trkpt>
      <trkpt lat="46.14693" lon="2.47319">
        <ele>439</ele>
        <time>2015-04-10T13:18:30Z</time>
      </trkpt>
      <trkpt lat="46.14691" lon="2.47323">
        <ele>438</ele>
        <time>2015-04-10T13:18:32Z</time>
      </trkpt>
      <trkpt lat="46.1469" lon="2.47326">
        <ele>438</ele>
        <time>2015-04-10T13:18:34Z</time>
      </trkpt>
      <trkpt lat="46.14688" lon="2.47329">
        <ele>437</ele>
        <time>2015-04-10T13:18:36Z</time>
      </trkpt>
      <trkpt lat="46.14686" lon="2.47333">
        <ele>437</ele>
        <time>2015-04-10T13:18:38Z</time>
      </trkpt>
      <trkpt lat="46.14685" lon="2.47337">
        <ele>436</ele>
        <time>2015-04-10T13:18:40Z</time>
      </trkpt>
      <trkpt lat="46.14683" lon="2.4734">
        <ele>435</ele>
        <time>2015-04-10T13:18:42Z</time>
      </trkpt>
      <trkpt lat="46.14681" lon="2.47344">
        <ele>434</ele>
        <time>2015-04-10T13:18:44Z</time>
      </trkpt>
      <trkpt lat="46.14679" lon="2.47346">
        <ele>434</ele>
        <time>2015-04-10T13:18:46Z</time>
      </trkpt>
      <trkpt lat="46.14677" lon="2.4735">
        <ele>433</ele>
        <time>2015-04-10T13:18:48Z</time>
      </trkpt>
      <trkpt lat="46.14673" lon="2.47354">
        <ele>432</ele>
        <time>2015-04-10T13:18:51Z</time>
      </trkpt>
      <trkpt lat="46.14671" lon="2.47356">
        <ele>431</ele>
        <time>2015-04-10T13:18:53Z</time>
      </trkpt>
      <trkpt lat="46.14668" lon="2.47358">
        <ele>430</ele>
        <time>2015-04-10T13:18:55Z</time>
      </trkpt>
      <trkpt lat="46.14666" lon="2.4736">
        <ele>430</ele>
        <time>2015-04-10T13:18:57Z</time>
      </trkpt>
      <trkpt lat="46.14663" lon="2.47361">
        <ele>430</ele>
        <time>2015-04-10T13:18:59Z</time>
      </trkpt>
      <trkpt lat="46.1466" lon="2.47362">
        <ele>430</ele>
        <time>2015-04-10T13:19:01Z</time>
      </trkpt>
      <trkpt lat="46.14657" lon="2.47363">
        <ele>429</ele>
        <time>2015-04-10T13:19:03Z</time>
      </trkpt>
      <trkpt lat="46.14653" lon="2.47363">
        <ele>429</ele>
        <time>2015-04-10T13:19:05Z</time>
      </trkpt>
      <trkpt lat="46.14651" lon="2.47364">
        <ele>429</ele>
        <time>2015-04-10T13:19:07Z</time>
      </trkpt>
      <trkpt lat="46.14647" lon="2.47363">
        <ele>429</ele>
        <time>2015-04-10T13:19:09Z</time>
      </trkpt>
      <trkpt lat="46.14644" lon="2.47363">
        <ele>429</ele>
        <time>2015-04-10T13:19:11Z</time>
      </trkpt>
      <trkpt lat="46.1464" lon="2.47363">
        <ele>429</ele>
        <time>2015-04-10T13:19:13Z</time>
      </trkpt>
      <trkpt lat="46.14637" lon="2.47363">
        <ele>429</ele>
        <time>2015-04-10T13:19:15Z</time>
      </trkpt>
      <trkpt lat="46.14633" lon="2.47363">
        <ele>429</ele>
        <time>2015-04-10T13:19:17Z</time>
      </trkpt>
      <trkpt lat="46.1463" lon="2.47363">
        <ele>429</ele>
        <time>2015-04-10T13:19:19Z</time>
      </trkpt>
      <trkpt lat="46.14627" lon="2.47364">
        <ele>429</ele>
        <time>2015-04-10T13:19:21Z</time>
      </trkpt>
      <trkpt lat="46.14623" lon="2.47364">
        <ele>429</ele>
        <time>2015-04-10T13:19:23Z</time>
      </trkpt>
      <trkpt lat="46.1462" lon="2.47364">
        <ele>429</ele>
        <time>2015-04-10T13:19:25Z</time>
      </trkpt>
      <trkpt lat="46.14617" lon="2.47365">
        <ele>429</ele>
        <time>2015-04-10T13:19:27Z</time>
      </trkpt>
      <trkpt lat="46.14614" lon="2.47365">
        <ele>429</ele>
        <time>2015-04-10T13:19:29Z</time>
      </trkpt>
      <trkpt lat="46.14611" lon="2.47367">
        <ele>429</ele>
        <time>2015-04-10T13:19:31Z</time>
      </trkpt>
      <trkpt lat="46.14608" lon="2.47368">
        <ele>429</ele>
        <time>2015-04-10T13:19:33Z</time>
      </trkpt>
      <trkpt lat="46.14604" lon="2.47369">
        <ele>429</ele>
        <time>2015-04-10T13:19:35Z</time>
      </trkpt>
      <trkpt lat="46.14601" lon="2.47371">
        <ele>429</ele>
        <time>2015-04-10T13:19:37Z</time>
      </trkpt>
      <trkpt lat="46.14598" lon="2.47372">
        <ele>429</ele>
        <time>2015-04-10T13:19:39Z</time>
      </trkpt>
      <trkpt lat="46.14596" lon="2.47374">
        <ele>429</ele>
        <time>2015-04-10T13:19:41Z</time>
      </trkpt>
      <trkpt lat="46.14593" lon="2.47376">
        <ele>429</ele>
        <time>2015-04-10T13:19:43Z</time>
      </trkpt>
      <trkpt lat="46.14589" lon="2.47379">
        <ele>429</ele>
        <time>2015-04-10T13:19:45Z</time>
      </trkpt>
      <trkpt lat="46.14587" lon="2.47381">
        <ele>429</ele>
        <time>2015-04-10T13:19:47Z</time>
      </trkpt>
      <trkpt lat="46.14585" lon="2.47383">
        <ele>429</ele>
        <time>2015-04-10T13:19:49Z</time>
      </trkpt>
      <trkpt lat="46.14583" lon="2.47386">
        <ele>429</ele>
        <time>2015-04-10T13:19:51Z</time>
      </trkpt>
      <trkpt lat="46.14581" lon="2.47388">
        <ele>429</ele>
        <time>2015-04-10T13:19:53Z</time>
      </trkpt>
      <trkpt lat="46.14579" lon="2.47391">
        <ele>429</ele>
        <time>2015-04-10T13:19:55Z</time>
      </trkpt>
      <trkpt lat="46.14577" lon="2.47394">
        <ele>429</ele>
        <time>2015-04-10T13:19:57Z</time>
      </trkpt>
      <trkpt lat="46.14574" lon="2.47397">
        <ele>429</ele>
        <time>2015-04-10T13:19:59Z</time>
      </trkpt>
      <trkpt lat="46.14572" lon="2.474">
        <ele>429</ele>
        <time>2015-04-10T13:20:01Z</time>
      </trkpt>
      <trkpt lat="46.1457" lon="2.47403">
        <ele>429</ele>
        <time>2015-04-10T13:20:03Z</time>
      </trkpt>
      <trkpt lat="46.14568" lon="2.47406">
        <ele>429</ele>
        <time>2015-04-10T13:20:05Z</time>
      </trkpt>
      <trkpt lat="46.14566" lon="2.47409">
        <ele>429</ele>
        <time>2015-04-10T13:20:07Z</time>
      </trkpt>
      <trkpt lat="46.14563" lon="2.47412">
        <ele>429</ele>
        <time>2015-04-10T13:20:09Z</time>
      </trkpt>
      <trkpt lat="46.14561" lon="2.47415">
        <ele>430</ele>
        <time>2015-04-10T13:20:11Z</time>
      </trkpt>
      <trkpt lat="46.14558" lon="2.47417">
        <ele>430</ele>
        <time>2015-04-10T13:20:13Z</time>
      </trkpt>
      <trkpt lat="46.14556" lon="2.47421">
        <ele>430</ele>
        <time>2015-04-10T13:20:15Z</time>
      </trkpt>
      <trkpt lat="46.14554" lon="2.47423">
        <ele>430</ele>
        <time>2015-04-10T13:20:17Z</time>
      </trkpt>
      <trkpt lat="46.14551" lon="2.47425">
        <ele>430</ele>
        <time>2015-04-10T13:20:19Z</time>
      </trkpt>
      <trkpt lat="46.14549" lon="2.47427">
        <ele>430</ele>
        <time>2015-04-10T13:20:21Z</time>
      </trkpt>
      <trkpt lat="46.14546" lon="2.47429">
        <ele>431</ele>
        <time>2015-04-10T13:20:23Z</time>
      </trkpt>
      <trkpt lat="46.14544" lon="2.47431">
        <ele>431</ele>
        <time>2015-04-10T13:20:25Z</time>
      </trkpt>
      <trkpt lat="46.14541" lon="2.47433">
        <ele>432</ele>
        <time>2015-04-10T13:20:27Z</time>
      </trkpt>
      <trkpt lat="46.14539" lon="2.47434">
        <ele>432</ele>
        <time>2015-04-10T13:20:29Z</time>
      </trkpt>
      <trkpt lat="46.14535" lon="2.47437">
        <ele>432</ele>
        <time>2015-04-10T13:20:32Z</time>
      </trkpt>
      <trkpt lat="46.14533" lon="2.47439">
        <ele>432</ele>
        <time>2015-04-10T13:20:34Z</time>
      </trkpt>
      <trkpt lat="46.14531" lon="2.47442">
        <ele>432</ele>
        <time>2015-04-10T13:20:36Z</time>
      </trkpt>
      <trkpt lat="46.14528" lon="2.47443">
        <ele>432</ele>
        <time>2015-04-10T13:20:38Z</time>
      </trkpt>
      <trkpt lat="46.14526" lon="2.47444">
        <ele>432</ele>
        <time>2015-04-10T13:20:40Z</time>
      </trkpt>
      <trkpt lat="46.14523" lon="2.47445">
        <ele>432</ele>
        <time>2015-04-10T13:20:42Z</time>
      </trkpt>
      <trkpt lat="46.14521" lon="2.47446">
        <ele>432</ele>
        <time>2015-04-10T13:20:44Z</time>
      </trkpt>
      <trkpt lat="46.14518" lon="2.47447">
        <ele>432</ele>
        <time>2015-04-10T13:20:46Z</time>
      </trkpt>
      <trkpt lat="46.14516" lon="2.47448">
        <ele>432</ele>
        <time>2015-04-10T13:20:48Z</time>
      </trkpt>
      <trkpt lat="46.14513" lon="2.47449">
        <ele>432</ele>
        <time>2015-04-10T13:20:50Z</time>
      </trkpt>
      <trkpt lat="46.1451" lon="2.4745">
        <ele>432</ele>
        <time>2015-04-10T13:20:52Z</time>
      </trkpt>
      <trkpt lat="46.14508" lon="2.47451">
        <ele>432</ele>
        <time>2015-04-10T13:20:54Z</time>
      </trkpt>
      <trkpt lat="46.14505" lon="2.47452">
        <ele>432</ele>
        <time>2015-04-10T13:20:56Z</time>
      </trkpt>
      <trkpt lat="46.14502" lon="2.47452">
        <ele>432</ele>
        <time>2015-04-10T13:20:58Z</time>
      </trkpt>
      <trkpt lat="46.14499" lon="2.47453">
        <ele>433</ele>
        <time>2015-04-10T13:21:00Z</time>
      </trkpt>
      <trkpt lat="46.14496" lon="2.47453">
        <ele>433</ele>
        <time>2015-04-10T13:21:02Z</time>
      </trkpt>
      <trkpt lat="46.14494" lon="2.47453">
        <ele>433</ele>
        <time>2015-04-10T13:21:04Z</time>
      </trkpt>
      <trkpt lat="46.14491" lon="2.47452">
        <ele>434</ele>
        <time>2015-04-10T13:21:06Z</time>
      </trkpt>
      <trkpt lat="46.14488" lon="2.47451">
        <ele>434</ele>
        <time>2015-04-10T13:21:08Z</time>
      </trkpt>
      <trkpt lat="46.14486" lon="2.47451">
        <ele>435</ele>
        <time>2015-04-10T13:21:10Z</time>
      </trkpt>
      <trkpt lat="46.14483" lon="2.4745">
        <ele>435</ele>
        <time>2015-04-10T13:21:12Z</time>
      </trkpt>
      <trkpt lat="46.1448" lon="2.47449">
        <ele>435</ele>
        <time>2015-04-10T13:21:14Z</time>
      </trkpt>
      <trkpt lat="46.14478" lon="2.47448">
        <ele>435</ele>
        <time>2015-04-10T13:21:16Z</time>
      </trkpt>
      <trkpt lat="46.14475" lon="2.47448">
        <ele>435</ele>
        <time>2015-04-10T13:21:18Z</time>
      </trkpt>
      <trkpt lat="46.14472" lon="2.47447">
        <ele>435</ele>
        <time>2015-04-10T13:21:20Z</time>
      </trkpt>
      <trkpt lat="46.14469" lon="2.47447">
        <ele>436</ele>
        <time>2015-04-10T13:21:22Z</time>
      </trkpt>
      <trkpt lat="46.14467" lon="2.47446">
        <ele>436</ele>
        <time>2015-04-10T13:21:24Z</time>
      </trkpt>
      <trkpt lat="46.14464" lon="2.47446">
        <ele>436</ele>
        <time>2015-04-10T13:21:26Z</time>
      </trkpt>
      <trkpt lat="46.14461" lon="2.47446">
        <ele>436</ele>
        <time>2015-04-10T13:21:28Z</time>
      </trkpt>
      <trkpt lat="46.14458" lon="2.47446">
        <ele>437</ele>
        <time>2015-04-10T13:21:30Z</time>
      </trkpt>
      <trkpt lat="46.14455" lon="2.47447">
        <ele>437</ele>
        <time>2015-04-10T13:21:32Z</time>
      </trkpt>
      <trkpt lat="46.14452" lon="2.47448">
        <ele>438</ele>
        <time>2015-04-10T13:21:34Z</time>
      </trkpt>
      <trkpt lat="46.14449" lon="2.47449">
        <ele>438</ele>
        <time>2015-04-10T13:21:36Z</time>
      </trkpt>
      <trkpt lat="46.14447" lon="2.47451">
        <ele>439</ele>
        <time>2015-04-10T13:21:38Z</time>
      </trkpt>
      <trkpt lat="46.14444" lon="2.47453">
        <ele>439</ele>
        <time>2015-04-10T13:21:40Z</time>
      </trkpt>
      <trkpt lat="46.14442" lon="2.47456">
        <ele>440</ele>
        <time>2015-04-10T13:21:42Z</time>
      </trkpt>
      <trkpt lat="46.1444" lon="2.47458">
        <ele>440</ele>
        <time>2015-04-10T13:21:44Z</time>
      </trkpt>
      <trkpt lat="46.14438" lon="2.47461">
        <ele>440</ele>
        <time>2015-04-10T13:21:46Z</time>
      </trkpt>
      <trkpt lat="46.14434" lon="2.47465">
        <ele>441</ele>
        <time>2015-04-10T13:21:49Z</time>
      </trkpt>
      <trkpt lat="46.14432" lon="2.47467">
        <ele>441</ele>
        <time>2015-04-10T13:21:51Z</time>
      </trkpt>
      <trkpt lat="46.1443" lon="2.4747">
        <ele>441</ele>
        <time>2015-04-10T13:21:53Z</time>
      </trkpt>
      <trkpt lat="46.14427" lon="2.47472">
        <ele>442</ele>
        <time>2015-04-10T13:21:55Z</time>
      </trkpt>
      <trkpt lat="46.14425" lon="2.47473">
        <ele>442</ele>
        <time>2015-04-10T13:21:57Z</time>
      </trkpt>
      <trkpt lat="46.14423" lon="2.47475">
        <ele>442</ele>
        <time>2015-04-10T13:21:59Z</time>
      </trkpt>
      <trkpt lat="46.1442" lon="2.47475">
        <ele>442</ele>
        <time>2015-04-10T13:22:01Z</time>
      </trkpt>
      <trkpt lat="46.14417" lon="2.47475">
        <ele>442</ele>
        <time>2015-04-10T13:22:03Z</time>
      </trkpt>
      <trkpt lat="46.14415" lon="2.47475">
        <ele>442</ele>
        <time>2015-04-10T13:22:05Z</time>
      </trkpt>
      <trkpt lat="46.14412" lon="2.47475">
        <ele>442</ele>
        <time>2015-04-10T13:22:07Z</time>
      </trkpt>
      <trkpt lat="46.14409" lon="2.47475">
        <ele>442</ele>
        <time>2015-04-10T13:22:09Z</time>
      </trkpt>
      <trkpt lat="46.14407" lon="2.47474">
        <ele>442</ele>
        <time>2015-04-10T13:22:11Z</time>
      </trkpt>
      <trkpt lat="46.14404" lon="2.47473">
        <ele>442</ele>
        <time>2015-04-10T13:22:13Z</time>
      </trkpt>
      <trkpt lat="46.14401" lon="2.47472">
        <ele>442</ele>
        <time>2015-04-10T13:22:15Z</time>
      </trkpt>
      <trkpt lat="46.14399" lon="2.47471">
        <ele>443</ele>
        <time>2015-04-10T13:22:17Z</time>
      </trkpt>
      <trkpt lat="46.14396" lon="2.4747">
        <ele>443</ele>
        <time>2015-04-10T13:22:19Z</time>
      </trkpt>
      <trkpt lat="46.14394" lon="2.4747">
        <ele>443</ele>
        <time>2015-04-10T13:22:21Z</time>
      </trkpt>
      <trkpt lat="46.14391" lon="2.47469">
        <ele>444</ele>
        <time>2015-04-10T13:22:23Z</time>
      </trkpt>
      <trkpt lat="46.14388" lon="2.47468">
        <ele>444</ele>
        <time>2015-04-10T13:22:25Z</time>
      </trkpt>
      <trkpt lat="46.14385" lon="2.47467">
        <ele>444</ele>
        <time>2015-04-10T13:22:27Z</time>
      </trkpt>
      <trkpt lat="46.14382" lon="2.47467">
        <ele>444</ele>
        <time>2015-04-10T13:22:29Z</time>
      </trkpt>
      <trkpt lat="46.1438" lon="2.47466">
        <ele>444</ele>
        <time>2015-04-10T13:22:31Z</time>
      </trkpt>
      <trkpt lat="46.14376" lon="2.47465">
        <ele>444</ele>
        <time>2015-04-10T13:22:33Z</time>
      </trkpt>
      <trkpt lat="46.14373" lon="2.47465">
        <ele>445</ele>
        <time>2015-04-10T13:22:35Z</time>
      </trkpt>
      <trkpt lat="46.1437" lon="2.47464">
        <ele>445</ele>
        <time>2015-04-10T13:22:37Z</time>
      </trkpt>
      <trkpt lat="46.14368" lon="2.47464">
        <ele>446</ele>
        <time>2015-04-10T13:22:39Z</time>
      </trkpt>
      <trkpt lat="46.14365" lon="2.47464">
        <ele>446</ele>
        <time>2015-04-10T13:22:41Z</time>
      </trkpt>
      <trkpt lat="46.14362" lon="2.47464">
        <ele>446</ele>
        <time>2015-04-10T13:22:44Z</time>
      </trkpt>
      <trkpt lat="46.14359" lon="2.47465">
        <ele>447</ele>
        <time>2015-04-10T13:22:46Z</time>
      </trkpt>
      <trkpt lat="46.14357" lon="2.47465">
        <ele>447</ele>
        <time>2015-04-10T13:22:48Z</time>
      </trkpt>
      <trkpt lat="46.14354" lon="2.47466">
        <ele>447</ele>
        <time>2015-04-10T13:22:50Z</time>
      </trkpt>
      <trkpt lat="46.14351" lon="2.47466">
        <ele>447</ele>
        <time>2015-04-10T13:22:52Z</time>
      </trkpt>
      <trkpt lat="46.14348" lon="2.47466">
        <ele>447</ele>
        <time>2015-04-10T13:22:54Z</time>
      </trkpt>
      <trkpt lat="46.14346" lon="2.47466">
        <ele>447</ele>
        <time>2015-04-10T13:22:56Z</time>
      </trkpt>
      <trkpt lat="46.14342" lon="2.47466">
        <ele>447</ele>
        <time>2015-04-10T13:22:58Z</time>
      </trkpt>
      <trkpt lat="46.1434" lon="2.47465">
        <ele>447</ele>
        <time>2015-04-10T13:23:00Z</time>
      </trkpt>
      <trkpt lat="46.14337" lon="2.47466">
        <ele>448</ele>
        <time>2015-04-10T13:23:02Z</time>
      </trkpt>
      <trkpt lat="46.14336" lon="2.47467">
        <ele>448</ele>
        <time>2015-04-10T13:23:07Z</time>
      </trkpt>
      <trkpt lat="46.14334" lon="2.47466">
        <ele>450</ele>
        <time>2015-04-10T13:23:16Z</time>
      </trkpt>
      <trkpt lat="46.14331" lon="2.47467">
        <ele>450</ele>
        <time>2015-04-10T13:23:18Z</time>
      </trkpt>
      <trkpt lat="46.14328" lon="2.47467">
        <ele>450</ele>
        <time>2015-04-10T13:23:20Z</time>
      </trkpt>
      <trkpt lat="46.14325" lon="2.47467">
        <ele>451</ele>
        <time>2015-04-10T13:23:22Z</time>
      </trkpt>
      <trkpt lat="46.14322" lon="2.47468">
        <ele>452</ele>
        <time>2015-04-10T13:23:24Z</time>
      </trkpt>
      <trkpt lat="46.1432" lon="2.47468">
        <ele>452</ele>
        <time>2015-04-10T13:23:26Z</time>
      </trkpt>
      <trkpt lat="46.14316" lon="2.47469">
        <ele>453</ele>
        <time>2015-04-10T13:23:28Z</time>
      </trkpt>
      <trkpt lat="46.14315" lon="2.4747">
        <ele>453</ele>
        <time>2015-04-10T13:23:30Z</time>
      </trkpt>
      <trkpt lat="46.14313" lon="2.4747">
        <ele>454</ele>
        <time>2015-04-10T13:23:40Z</time>
      </trkpt>
      <trkpt lat="46.14311" lon="2.47471">
        <ele>454</ele>
        <time>2015-04-10T13:23:42Z</time>
      </trkpt>
      <trkpt lat="46.14308" lon="2.47473">
        <ele>454</ele>
        <time>2015-04-10T13:23:44Z</time>
      </trkpt>
      <trkpt lat="46.14305" lon="2.47474">
        <ele>454</ele>
        <time>2015-04-10T13:23:46Z</time>
      </trkpt>
      <trkpt lat="46.14303" lon="2.47475">
        <ele>454</ele>
        <time>2015-04-10T13:23:48Z</time>
      </trkpt>
      <trkpt lat="46.143" lon="2.47477">
        <ele>454</ele>
        <time>2015-04-10T13:23:50Z</time>
      </trkpt>
      <trkpt lat="46.14297" lon="2.47478">
        <ele>454</ele>
        <time>2015-04-10T13:23:52Z</time>
      </trkpt>
      <trkpt lat="46.14295" lon="2.4748">
        <ele>455</ele>
        <time>2015-04-10T13:23:54Z</time>
      </trkpt>
      <trkpt lat="46.14293" lon="2.47482">
        <ele>455</ele>
        <time>2015-04-10T13:23:56Z</time>
      </trkpt>
      <trkpt lat="46.1429" lon="2.47484">
        <ele>455</ele>
        <time>2015-04-10T13:23:58Z</time>
      </trkpt>
      <trkpt lat="46.14287" lon="2.47485">
        <ele>455</ele>
        <time>2015-04-10T13:24:00Z</time>
      </trkpt>
      <trkpt lat="46.14285" lon="2.47487">
        <ele>455</ele>
        <time>2015-04-10T13:24:02Z</time>
      </trkpt>
      <trkpt lat="46.14282" lon="2.47488">
        <ele>455</ele>
        <time>2015-04-10T13:24:04Z</time>
      </trkpt>
      <trkpt lat="46.1428" lon="2.4749">
        <ele>455</ele>
        <time>2015-04-10T13:24:06Z</time>
      </trkpt>
      <trkpt lat="46.14277" lon="2.47492">
        <ele>455</ele>
        <time>2015-04-10T13:24:08Z</time>
      </trkpt>
      <trkpt lat="46.14274" lon="2.47494">
        <ele>455</ele>
        <time>2015-04-10T13:24:10Z</time>
      </trkpt>
      <trkpt lat="46.14271" lon="2.47496">
        <ele>455</ele>
        <time>2015-04-10T13:24:13Z</time>
      </trkpt>
      <trkpt lat="46.14269" lon="2.47497">
        <ele>455</ele>
        <time>2015-04-10T13:24:15Z</time>
      </trkpt>
      <trkpt lat="46.14266" lon="2.47498">
        <ele>455</ele>
        <time>2015-04-10T13:24:17Z</time>
      </trkpt>
      <trkpt lat="46.14264" lon="2.475">
        <ele>455</ele>
        <time>2015-04-10T13:24:19Z</time>
      </trkpt>
      <trkpt lat="46.14261" lon="2.47501">
        <ele>455</ele>
        <time>2015-04-10T13:24:21Z</time>
      </trkpt>
      <trkpt lat="46.14259" lon="2.47502">
        <ele>456</ele>
        <time>2015-04-10T13:24:23Z</time>
      </trkpt>
      <trkpt lat="46.14257" lon="2.47503">
        <ele>456</ele>
        <time>2015-04-10T13:24:25Z</time>
      </trkpt>
      <trkpt lat="46.14254" lon="2.47504">
        <ele>456</ele>
        <time>2015-04-10T13:24:28Z</time>
      </trkpt>
      <trkpt lat="46.14252" lon="2.47505">
        <ele>456</ele>
        <time>2015-04-10T13:24:30Z</time>
      </trkpt>
      <trkpt lat="46.14249" lon="2.47506">
        <ele>457</ele>
        <time>2015-04-10T13:24:32Z</time>
      </trkpt>
      <trkpt lat="46.14246" lon="2.47509">
        <ele>457</ele>
        <time>2015-04-10T13:24:35Z</time>
      </trkpt>
      <trkpt lat="46.14243" lon="2.4751">
        <ele>457</ele>
        <time>2015-04-10T13:24:37Z</time>
      </trkpt>
      <trkpt lat="46.14241" lon="2.47511">
        <ele>457</ele>
        <time>2015-04-10T13:24:39Z</time>
      </trkpt>
      <trkpt lat="46.14238" lon="2.47512">
        <ele>458</ele>
        <time>2015-04-10T13:24:41Z</time>
      </trkpt>
      <trkpt lat="46.14235" lon="2.47513">
        <ele>458</ele>
        <time>2015-04-10T13:24:43Z</time>
      </trkpt>
      <trkpt lat="46.14233" lon="2.47514">
        <ele>458</ele>
        <time>2015-04-10T13:24:45Z</time>
      </trkpt>
      <trkpt lat="46.1423" lon="2.47515">
        <ele>458</ele>
        <time>2015-04-10T13:24:47Z</time>
      </trkpt>
      <trkpt lat="46.14227" lon="2.47516">
        <ele>458</ele>
        <time>2015-04-10T13:24:49Z</time>
      </trkpt>
      <trkpt lat="46.14225" lon="2.47517">
        <ele>459</ele>
        <time>2015-04-10T13:24:51Z</time>
      </trkpt>
      <trkpt lat="46.14222" lon="2.47517">
        <ele>459</ele>
        <time>2015-04-10T13:24:53Z</time>
      </trkpt>
      <trkpt lat="46.14219" lon="2.47519">
        <ele>459</ele>
        <time>2015-04-10T13:24:55Z</time>
      </trkpt>
      <trkpt lat="46.14216" lon="2.4752">
        <ele>459</ele>
        <time>2015-04-10T13:24:57Z</time>
      </trkpt>
      <trkpt lat="46.14214" lon="2.47521">
        <ele>460</ele>
        <time>2015-04-10T13:24:59Z</time>
      </trkpt>
      <trkpt lat="46.14211" lon="2.47522">
        <ele>460</ele>
        <time>2015-04-10T13:25:01Z</time>
      </trkpt>
      <trkpt lat="46.14209" lon="2.47524">
        <ele>460</ele>
        <time>2015-04-10T13:25:03Z</time>
      </trkpt>
      <trkpt lat="46.14206" lon="2.47525">
        <ele>460</ele>
        <time>2015-04-10T13:25:05Z</time>
      </trkpt>
      <trkpt lat="46.14204" lon="2.47526">
        <ele>461</ele>
        <time>2015-04-10T13:25:07Z</time>
      </trkpt>
      <trkpt lat="46.14201" lon="2.47528">
        <ele>461</ele>
        <time>2015-04-10T13:25:09Z</time>
      </trkpt>
      <trkpt lat="46.14199" lon="2.47529">
        <ele>461</ele>
        <time>2015-04-10T13:25:11Z</time>
      </trkpt>
      <trkpt lat="46.14196" lon="2.4753">
        <ele>461</ele>
        <time>2015-04-10T13:25:13Z</time>
      </trkpt>
      <trkpt lat="46.14194" lon="2.47532">
        <ele>462</ele>
        <time>2015-04-10T13:25:15Z</time>
      </trkpt>
      <trkpt lat="46.14191" lon="2.47533">
        <ele>462</ele>
        <time>2015-04-10T13:25:17Z</time>
      </trkpt>
      <trkpt lat="46.14188" lon="2.47535">
        <ele>462</ele>
        <time>2015-04-10T13:25:19Z</time>
      </trkpt>
      <trkpt lat="46.14186" lon="2.47536">
        <ele>462</ele>
        <time>2015-04-10T13:25:21Z</time>
      </trkpt>
      <trkpt lat="46.14184" lon="2.47538">
        <ele>462</ele>
        <time>2015-04-10T13:25:23Z</time>
      </trkpt>
      <trkpt lat="46.14181" lon="2.4754">
        <ele>462</ele>
        <time>2015-04-10T13:25:25Z</time>
      </trkpt>
      <trkpt lat="46.14178" lon="2.47541">
        <ele>462</ele>
        <time>2015-04-10T13:25:27Z</time>
      </trkpt>
      <trkpt lat="46.14176" lon="2.47543">
        <ele>463</ele>
        <time>2015-04-10T13:25:29Z</time>
      </trkpt>
      <trkpt lat="46.14173" lon="2.47545">
        <ele>463</ele>
        <time>2015-04-10T13:25:31Z</time>
      </trkpt>
      <trkpt lat="46.14171" lon="2.47547">
        <ele>463</ele>
        <time>2015-04-10T13:25:33Z</time>
      </trkpt>
      <trkpt lat="46.14168" lon="2.47548">
        <ele>463</ele>
        <time>2015-04-10T13:25:35Z</time>
      </trkpt>
      <trkpt lat="46.14166" lon="2.4755">
        <ele>464</ele>
        <time>2015-04-10T13:25:37Z</time>
      </trkpt>
      <trkpt lat="46.14163" lon="2.47551">
        <ele>464</ele>
        <time>2015-04-10T13:25:39Z</time>
      </trkpt>
      <trkpt lat="46.14161" lon="2.47553">
        <ele>464</ele>
        <time>2015-04-10T13:25:41Z</time>
      </trkpt>
      <trkpt lat="46.14158" lon="2.47554">
        <ele>464</ele>
        <time>2015-04-10T13:25:43Z</time>
      </trkpt>
      <trkpt lat="46.14156" lon="2.47555">
        <ele>464</ele>
        <time>2015-04-10T13:25:45Z</time>
      </trkpt>
      <trkpt lat="46.14153" lon="2.47557">
        <ele>464</ele>
        <time>2015-04-10T13:25:47Z</time>
      </trkpt>
      <trkpt lat="46.14151" lon="2.47558">
        <ele>464</ele>
        <time>2015-04-10T13:25:49Z</time>
      </trkpt>
      <trkpt lat="46.14148" lon="2.4756">
        <ele>464</ele>
        <time>2015-04-10T13:25:51Z</time>
      </trkpt>
      <trkpt lat="46.14145" lon="2.47562">
        <ele>464</ele>
        <time>2015-04-10T13:25:53Z</time>
      </trkpt>
      <trkpt lat="46.14142" lon="2.47563">
        <ele>465</ele>
        <time>2015-04-10T13:25:55Z</time>
      </trkpt>
      <trkpt lat="46.14139" lon="2.47564">
        <ele>465</ele>
        <time>2015-04-10T13:25:57Z</time>
      </trkpt>
      <trkpt lat="46.14136" lon="2.47565">
        <ele>465</ele>
        <time>2015-04-10T13:25:59Z</time>
      </trkpt>
      <trkpt lat="46.14133" lon="2.47567">
        <ele>465</ele>
        <time>2015-04-10T13:26:01Z</time>
      </trkpt>
      <trkpt lat="46.1413" lon="2.47568">
        <ele>465</ele>
        <time>2015-04-10T13:26:03Z</time>
      </trkpt>
      <trkpt lat="46.14127" lon="2.47569">
        <ele>465</ele>
        <time>2015-04-10T13:26:05Z</time>
      </trkpt>
      <trkpt lat="46.14124" lon="2.4757">
        <ele>465</ele>
        <time>2015-04-10T13:26:07Z</time>
      </trkpt>
      <trkpt lat="46.14122" lon="2.47571">
        <ele>465</ele>
        <time>2015-04-10T13:26:09Z</time>
      </trkpt>
      <trkpt lat="46.14119" lon="2.47573">
        <ele>465</ele>
        <time>2015-04-10T13:26:11Z</time>
      </trkpt>
      <trkpt lat="46.14116" lon="2.47574">
        <ele>465</ele>
        <time>2015-04-10T13:26:13Z</time>
      </trkpt>
      <trkpt lat="46.14113" lon="2.47576">
        <ele>465</ele>
        <time>2015-04-10T13:26:15Z</time>
      </trkpt>
      <trkpt lat="46.14111" lon="2.47577">
        <ele>465</ele>
        <time>2015-04-10T13:26:17Z</time>
      </trkpt>
      <trkpt lat="46.14108" lon="2.47579">
        <ele>465</ele>
        <time>2015-04-10T13:26:19Z</time>
      </trkpt>
      <trkpt lat="46.14105" lon="2.4758">
        <ele>465</ele>
        <time>2015-04-10T13:26:21Z</time>
      </trkpt>
      <trkpt lat="46.14102" lon="2.47582">
        <ele>465</ele>
        <time>2015-04-10T13:26:23Z</time>
      </trkpt>
      <trkpt lat="46.141" lon="2.47583">
        <ele>465</ele>
        <time>2015-04-10T13:26:25Z</time>
      </trkpt>
      <trkpt lat="46.14097" lon="2.47583">
        <ele>465</ele>
        <time>2015-04-10T13:26:27Z</time>
      </trkpt>
      <trkpt lat="46.14095" lon="2.47583">
        <ele>465</ele>
        <time>2015-04-10T13:26:29Z</time>
      </trkpt>
      <trkpt lat="46.14093" lon="2.47581">
        <ele>465</ele>
        <time>2015-04-10T13:26:31Z</time>
      </trkpt>
      <trkpt lat="46.14092" lon="2.47578">
        <ele>465</ele>
        <time>2015-04-10T13:26:33Z</time>
      </trkpt>
      <trkpt lat="46.14092" lon="2.47574">
        <ele>465</ele>
        <time>2015-04-10T13:26:35Z</time>
      </trkpt>
      <trkpt lat="46.14092" lon="2.4757">
        <ele>466</ele>
        <time>2015-04-10T13:26:37Z</time>
      </trkpt>
      <trkpt lat="46.14093" lon="2.47566">
        <ele>466</ele>
        <time>2015-04-10T13:26:39Z</time>
      </trkpt>
      <trkpt lat="46.14093" lon="2.47562">
        <ele>466</ele>
        <time>2015-04-10T13:26:41Z</time>
      </trkpt>
      <trkpt lat="46.14094" lon="2.47558">
        <ele>466</ele>
        <time>2015-04-10T13:26:43Z</time>
      </trkpt>
      <trkpt lat="46.14095" lon="2.47555">
        <ele>466</ele>
        <time>2015-04-10T13:26:45Z</time>
      </trkpt>
      <trkpt lat="46.14095" lon="2.47551">
        <ele>466</ele>
        <time>2015-04-10T13:26:47Z</time>
      </trkpt>
      <trkpt lat="46.14096" lon="2.47548">
        <ele>467</ele>
        <time>2015-04-10T13:26:49Z</time>
      </trkpt>
      <trkpt lat="46.14098" lon="2.47544">
        <ele>467</ele>
        <time>2015-04-10T13:26:51Z</time>
      </trkpt>
      <trkpt lat="46.14099" lon="2.4754">
        <ele>467</ele>
        <time>2015-04-10T13:26:53Z</time>
      </trkpt>
      <trkpt lat="46.141" lon="2.47537">
        <ele>467</ele>
        <time>2015-04-10T13:26:55Z</time>
      </trkpt>
      <trkpt lat="46.14101" lon="2.47533">
        <ele>467</ele>
        <time>2015-04-10T13:26:57Z</time>
      </trkpt>
      <trkpt lat="46.14102" lon="2.4753">
        <ele>467</ele>
        <time>2015-04-10T13:26:59Z</time>
      </trkpt>
      <trkpt lat="46.14104" lon="2.47527">
        <ele>468</ele>
        <time>2015-04-10T13:27:01Z</time>
      </trkpt>
      <trkpt lat="46.14105" lon="2.47523">
        <ele>468</ele>
        <time>2015-04-10T13:27:03Z</time>
      </trkpt>
      <trkpt lat="46.14106" lon="2.4752">
        <ele>468</ele>
        <time>2015-04-10T13:27:05Z</time>
      </trkpt>
      <trkpt lat="46.14108" lon="2.47517">
        <ele>468</ele>
        <time>2015-04-10T13:27:07Z</time>
      </trkpt>
      <trkpt lat="46.14109" lon="2.47513">
        <ele>468</ele>
        <time>2015-04-10T13:27:09Z</time>
      </trkpt>
      <trkpt lat="46.14111" lon="2.4751">
        <ele>468</ele>
        <time>2015-04-10T13:27:11Z</time>
      </trkpt>
      <trkpt lat="46.14112" lon="2.47507">
        <ele>468</ele>
        <time>2015-04-10T13:27:13Z</time>
      </trkpt>
      <trkpt lat="46.14114" lon="2.47503">
        <ele>468</ele>
        <time>2015-04-10T13:27:15Z</time>
      </trkpt>
      <trkpt lat="46.14115" lon="2.475">
        <ele>468</ele>
        <time>2015-04-10T13:27:17Z</time>
      </trkpt>
      <trkpt lat="46.14117" lon="2.47497">
        <ele>468</ele>
        <time>2015-04-10T13:27:19Z</time>
      </trkpt>
      <trkpt lat="46.14118" lon="2.47493">
        <ele>469</ele>
        <time>2015-04-10T13:27:21Z</time>
      </trkpt>
      <trkpt lat="46.14119" lon="2.4749">
        <ele>469</ele>
        <time>2015-04-10T13:27:23Z</time>
      </trkpt>
      <trkpt lat="46.14121" lon="2.47486">
        <ele>469</ele>
        <time>2015-04-10T13:27:25Z</time>
      </trkpt>
      <trkpt lat="46.14122" lon="2.47482">
        <ele>469</ele>
        <time>2015-04-10T13:27:27Z</time>
      </trkpt>
      <trkpt lat="46.14124" lon="2.47478">
        <ele>470</ele>
        <time>2015-04-10T13:27:29Z</time>
      </trkpt>
      <trkpt lat="46.14125" lon="2.47475">
        <ele>470</ele>
        <time>2015-04-10T13:27:31Z</time>
      </trkpt>
      <trkpt lat="46.14126" lon="2.47471">
        <ele>470</ele>
        <time>2015-04-10T13:27:33Z</time>
      </trkpt>
      <trkpt lat="46.14127" lon="2.47467">
        <ele>470</ele>
        <time>2015-04-10T13:27:35Z</time>
      </trkpt>
      <trkpt lat="46.14127" lon="2.47463">
        <ele>471</ele>
        <time>2015-04-10T13:27:37Z</time>
      </trkpt>
      <trkpt lat="46.14128" lon="2.47459">
        <ele>471</ele>
        <time>2015-04-10T13:27:39Z</time>
      </trkpt>
      <trkpt lat="46.14128" lon="2.47455">
        <ele>472</ele>
        <time>2015-04-10T13:27:41Z</time>
      </trkpt>
      <trkpt lat="46.14128" lon="2.47451">
        <ele>472</ele>
        <time>2015-04-10T13:27:43Z</time>
      </trkpt>
      <trkpt lat="46.14128" lon="2.47447">
        <ele>472</ele>
        <time>2015-04-10T13:27:45Z</time>
      </trkpt>
      <trkpt lat="46.14127" lon="2.47444">
        <ele>473</ele>
        <time>2015-04-10T13:27:47Z</time>
      </trkpt>
      <trkpt lat="46.14127" lon="2.4744">
        <ele>473</ele>
        <time>2015-04-10T13:27:49Z</time>
      </trkpt>
      <trkpt lat="46.14127" lon="2.47436">
        <ele>473</ele>
        <time>2015-04-10T13:27:51Z</time>
      </trkpt>
      <trkpt lat="46.14126" lon="2.47433">
        <ele>473</ele>
        <time>2015-04-10T13:27:53Z</time>
      </trkpt>
      <trkpt lat="46.14126" lon="2.47429">
        <ele>474</ele>
        <time>2015-04-10T13:27:55Z</time>
      </trkpt>
      <trkpt lat="46.14125" lon="2.47426">
        <ele>474</ele>
        <time>2015-04-10T13:27:57Z</time>
      </trkpt>
      <trkpt lat="46.14124" lon="2.47422">
        <ele>474</ele>
        <time>2015-04-10T13:27:59Z</time>
      </trkpt>
      <trkpt lat="46.14123" lon="2.47419">
        <ele>474</ele>
        <time>2015-04-10T13:28:01Z</time>
      </trkpt>
      <trkpt lat="46.14122" lon="2.47416">
        <ele>474</ele>
        <time>2015-04-10T13:28:03Z</time>
      </trkpt>
      <trkpt lat="46.14121" lon="2.47412">
        <ele>474</ele>
        <time>2015-04-10T13:28:05Z</time>
      </trkpt>
      <trkpt lat="46.1412" lon="2.47409">
        <ele>474</ele>
        <time>2015-04-10T13:28:07Z</time>
      </trkpt>
      <trkpt lat="46.14119" lon="2.47406">
        <ele>474</ele>
        <time>2015-04-10T13:28:09Z</time>
      </trkpt>
      <trkpt lat="46.14119" lon="2.47402">
        <ele>475</ele>
        <time>2015-04-10T13:28:11Z</time>
      </trkpt>
      <trkpt lat="46.14118" lon="2.47399">
        <ele>475</ele>
        <time>2015-04-10T13:28:13Z</time>
      </trkpt>
      <trkpt lat="46.14117" lon="2.47395">
        <ele>476</ele>
        <time>2015-04-10T13:28:15Z</time>
      </trkpt>
      <trkpt lat="46.14117" lon="2.47391">
        <ele>476</ele>
        <time>2015-04-10T13:28:17Z</time>
      </trkpt>
      <trkpt lat="46.14116" lon="2.47388">
        <ele>477</ele>
        <time>2015-04-10T13:28:19Z</time>
      </trkpt>
      <trkpt lat="46.14115" lon="2.47384">
        <ele>477</ele>
        <time>2015-04-10T13:28:21Z</time>
      </trkpt>
      <trkpt lat="46.14114" lon="2.47381">
        <ele>478</ele>
        <time>2015-04-10T13:28:23Z</time>
      </trkpt>
      <trkpt lat="46.14114" lon="2.47377">
        <ele>478</ele>
        <time>2015-04-10T13:28:25Z</time>
      </trkpt>
      <trkpt lat="46.14113" lon="2.47373">
        <ele>478</ele>
        <time>2015-04-10T13:28:27Z</time>
      </trkpt>
      <trkpt lat="46.14112" lon="2.47369">
        <ele>479</ele>
        <time>2015-04-10T13:28:29Z</time>
      </trkpt>
      <trkpt lat="46.14111" lon="2.47364">
        <ele>479</ele>
        <time>2015-04-10T13:28:31Z</time>
      </trkpt>
      <trkpt lat="46.14111" lon="2.4736">
        <ele>479</ele>
        <time>2015-04-10T13:28:33Z</time>
      </trkpt>
      <trkpt lat="46.1411" lon="2.47356">
        <ele>479</ele>
        <time>2015-04-10T13:28:35Z</time>
      </trkpt>
      <trkpt lat="46.14109" lon="2.47352">
        <ele>479</ele>
        <time>2015-04-10T13:28:37Z</time>
      </trkpt>
      <trkpt lat="46.14108" lon="2.47348">
        <ele>479</ele>
        <time>2015-04-10T13:28:39Z</time>
      </trkpt>
      <trkpt lat="46.14108" lon="2.47344">
        <ele>479</ele>
        <time>2015-04-10T13:28:41Z</time>
      </trkpt>
      <trkpt lat="46.14107" lon="2.4734">
        <ele>479</ele>
        <time>2015-04-10T13:28:43Z</time>
      </trkpt>
      <trkpt lat="46.14106" lon="2.47336">
        <ele>479</ele>
        <time>2015-04-10T13:28:45Z</time>
      </trkpt>
      <trkpt lat="46.14105" lon="2.47332">
        <ele>479</ele>
        <time>2015-04-10T13:28:47Z</time>
      </trkpt>
      <trkpt lat="46.14104" lon="2.47328">
        <ele>479</ele>
        <time>2015-04-10T13:28:49Z</time>
      </trkpt>
      <trkpt lat="46.14103" lon="2.47324">
        <ele>479</ele>
        <time>2015-04-10T13:28:51Z</time>
      </trkpt>
      <trkpt lat="46.14102" lon="2.4732">
        <ele>480</ele>
        <time>2015-04-10T13:28:53Z</time>
      </trkpt>
      <trkpt lat="46.14101" lon="2.47317">
        <ele>480</ele>
        <time>2015-04-10T13:28:55Z</time>
      </trkpt>
      <trkpt lat="46.141" lon="2.47313">
        <ele>480</ele>
        <time>2015-04-10T13:28:57Z</time>
      </trkpt>
      <trkpt lat="46.141" lon="2.47309">
        <ele>480</ele>
        <time>2015-04-10T13:28:59Z</time>
      </trkpt>
      <trkpt lat="46.14099" lon="2.47305">
        <ele>480</ele>
        <time>2015-04-10T13:29:01Z</time>
      </trkpt>
      <trkpt lat="46.14098" lon="2.47302">
        <ele>480</ele>
        <time>2015-04-10T13:29:03Z</time>
      </trkpt>
      <trkpt lat="46.14097" lon="2.47298">
        <ele>480</ele>
        <time>2015-04-10T13:29:05Z</time>
      </trkpt>
      <trkpt lat="46.14096" lon="2.47294">
        <ele>480</ele>
        <time>2015-04-10T13:29:07Z</time>
      </trkpt>
      <trkpt lat="46.14096" lon="2.4729">
        <ele>480</ele>
        <time>2015-04-10T13:29:09Z</time>
      </trkpt>
      <trkpt lat="46.14095" lon="2.47286">
        <ele>480</ele>
        <time>2015-04-10T13:29:11Z</time>
      </trkpt>
      <trkpt lat="46.14094" lon="2.47282">
        <ele>480</ele>
        <time>2015-04-10T13:29:13Z</time>
      </trkpt>
      <trkpt lat="46.14093" lon="2.47278">
        <ele>480</ele>
        <time>2015-04-10T13:29:15Z</time>
      </trkpt>
      <trkpt lat="46.14092" lon="2.47274">
        <ele>480</ele>
        <time>2015-04-10T13:29:17Z</time>
      </trkpt>
      <trkpt lat="46.14091" lon="2.47271">
        <ele>480</ele>
        <time>2015-04-10T13:29:19Z</time>
      </trkpt>
      <trkpt lat="46.1409" lon="2.47267">
        <ele>480</ele>
        <time>2015-04-10T13:29:21Z</time>
      </trkpt>
      <trkpt lat="46.14089" lon="2.47264">
        <ele>480</ele>
        <time>2015-04-10T13:29:23Z</time>
      </trkpt>
      <trkpt lat="46.14088" lon="2.4726">
        <ele>480</ele>
        <time>2015-04-10T13:29:25Z</time>
      </trkpt>
      <trkpt lat="46.14087" lon="2.47256">
        <ele>480</ele>
        <time>2015-04-10T13:29:27Z</time>
      </trkpt>
      <trkpt lat="46.14085" lon="2.47253">
        <ele>480</ele>
        <time>2015-04-10T13:29:29Z</time>
      </trkpt>
      <trkpt lat="46.14085" lon="2.47249">
        <ele>480</ele>
        <time>2015-04-10T13:29:31Z</time>
      </trkpt>
      <trkpt lat="46.14083" lon="2.47245">
        <ele>480</ele>
        <time>2015-04-10T13:29:33Z</time>
      </trkpt>
      <trkpt lat="46.14083" lon="2.47242">
        <ele>480</ele>
        <time>2015-04-10T13:29:35Z</time>
      </trkpt>
      <trkpt lat="46.14082" lon="2.47238">
        <ele>480</ele>
        <time>2015-04-10T13:29:37Z</time>
      </trkpt>
      <trkpt lat="46.14081" lon="2.47235">
        <ele>480</ele>
        <time>2015-04-10T13:29:39Z</time>
      </trkpt>
      <trkpt lat="46.1408" lon="2.47231">
        <ele>480</ele>
        <time>2015-04-10T13:29:41Z</time>
      </trkpt>
      <trkpt lat="46.14079" lon="2.4723">
        <ele>480</ele>
        <time>2015-04-10T13:29:43Z</time>
      </trkpt>
      <trkpt lat="46.14078" lon="2.47228">
        <ele>480</ele>
        <time>2015-04-10T13:30:05Z</time>
      </trkpt>
      <trkpt lat="46.14077" lon="2.47225">
        <ele>480</ele>
        <time>2015-04-10T13:30:07Z</time>
      </trkpt>
      <trkpt lat="46.14078" lon="2.47226">
        <ele>480</ele>
        <time>2015-04-10T13:30:12Z</time>
      </trkpt>
      <trkpt lat="46.14081" lon="2.47228">
        <ele>480</ele>
        <time>2015-04-10T13:30:14Z</time>
      </trkpt>
      <trkpt lat="46.14083" lon="2.4723">
        <ele>480</ele>
        <time>2015-04-10T13:30:16Z</time>
      </trkpt>
      <trkpt lat="46.14086" lon="2.47231">
        <ele>480</ele>
        <time>2015-04-10T13:30:18Z</time>
      </trkpt>
      <trkpt lat="46.14089" lon="2.47231">
        <ele>480</ele>
        <time>2015-04-10T13:30:20Z</time>
      </trkpt>
      <trkpt lat="46.14091" lon="2.4723">
        <ele>480</ele>
        <time>2015-04-10T13:30:22Z</time>
      </trkpt>
      <trkpt lat="46.14093" lon="2.47229">
        <ele>480</ele>
        <time>2015-04-10T13:30:24Z</time>
      </trkpt>
      <trkpt lat="46.14096" lon="2.47229">
        <ele>480</ele>
        <time>2015-04-10T13:30:26Z</time>
      </trkpt>
      <trkpt lat="46.14099" lon="2.47228">
        <ele>480</ele>
        <time>2015-04-10T13:30:28Z</time>
      </trkpt>
      <trkpt lat="46.14101" lon="2.47229">
        <ele>480</ele>
        <time>2015-04-10T13:30:30Z</time>
      </trkpt>
      <trkpt lat="46.14104" lon="2.47229">
        <ele>480</ele>
        <time>2015-04-10T13:30:32Z</time>
      </trkpt>
      <trkpt lat="46.14106" lon="2.47229">
        <ele>480</ele>
        <time>2015-04-10T13:30:34Z</time>
      </trkpt>
      <trkpt lat="46.14109" lon="2.47229">
        <ele>480</ele>
        <time>2015-04-10T13:30:36Z</time>
      </trkpt>
      <trkpt lat="46.14112" lon="2.4723">
        <ele>480</ele>
        <time>2015-04-10T13:30:38Z</time>
      </trkpt>
      <trkpt lat="46.14115" lon="2.47229">
        <ele>480</ele>
        <time>2015-04-10T13:30:40Z</time>
      </trkpt>
      <trkpt lat="46.14117" lon="2.47229">
        <ele>480</ele>
        <time>2015-04-10T13:30:42Z</time>
      </trkpt>
      <trkpt lat="46.1412" lon="2.47228">
        <ele>479</ele>
        <time>2015-04-10T13:30:44Z</time>
      </trkpt>
      <trkpt lat="46.14123" lon="2.47228">
        <ele>479</ele>
        <time>2015-04-10T13:30:46Z</time>
      </trkpt>
      <trkpt lat="46.14126" lon="2.47228">
        <ele>479</ele>
        <time>2015-04-10T13:30:48Z</time>
      </trkpt>
      <trkpt lat="46.14129" lon="2.47227">
        <ele>479</ele>
        <time>2015-04-10T13:30:50Z</time>
      </trkpt>
      <trkpt lat="46.14131" lon="2.47227">
        <ele>479</ele>
        <time>2015-04-10T13:30:52Z</time>
      </trkpt>
      <trkpt lat="46.14134" lon="2.47227">
        <ele>479</ele>
        <time>2015-04-10T13:30:54Z</time>
      </trkpt>
      <trkpt lat="46.14136" lon="2.47227">
        <ele>479</ele>
        <time>2015-04-10T13:30:56Z</time>
      </trkpt>
      <trkpt lat="46.14139" lon="2.47227">
        <ele>479</ele>
        <time>2015-04-10T13:30:58Z</time>
      </trkpt>
      <trkpt lat="46.14141" lon="2.47228">
        <ele>479</ele>
        <time>2015-04-10T13:31:00Z</time>
      </trkpt>
      <trkpt lat="46.14143" lon="2.47228">
        <ele>479</ele>
        <time>2015-04-10T13:31:02Z</time>
      </trkpt>
      <trkpt lat="46.14145" lon="2.47228">
        <ele>478</ele>
        <time>2015-04-10T13:31:04Z</time>
      </trkpt>
      <trkpt lat="46.14146" lon="2.47228">
        <ele>478</ele>
        <time>2015-04-10T13:31:06Z</time>
      </trkpt>
      <trkpt lat="46.14148" lon="2.47228">
        <ele>478</ele>
        <time>2015-04-10T13:31:08Z</time>
      </trkpt>
      <trkpt lat="46.14151" lon="2.47229">
        <ele>478</ele>
        <time>2015-04-10T13:31:10Z</time>
      </trkpt>
      <trkpt lat="46.14154" lon="2.47229">
        <ele>478</ele>
        <time>2015-04-10T13:31:12Z</time>
      </trkpt>
      <trkpt lat="46.14156" lon="2.47229">
        <ele>478</ele>
        <time>2015-04-10T13:31:14Z</time>
      </trkpt>
      <trkpt lat="46.14159" lon="2.47229">
        <ele>478</ele>
        <time>2015-04-10T13:31:16Z</time>
      </trkpt>
      <trkpt lat="46.14161" lon="2.47229">
        <ele>478</ele>
        <time>2015-04-10T13:31:18Z</time>
      </trkpt>
      <trkpt lat="46.14164" lon="2.47229">
        <ele>478</ele>
        <time>2015-04-10T13:31:20Z</time>
      </trkpt>
      <trkpt lat="46.14166" lon="2.47228">
        <ele>478</ele>
        <time>2015-04-10T13:31:22Z</time>
      </trkpt>
      <trkpt lat="46.14168" lon="2.47227">
        <ele>478</ele>
        <time>2015-04-10T13:31:24Z</time>
      </trkpt>
      <trkpt lat="46.14171" lon="2.47226">
        <ele>478</ele>
        <time>2015-04-10T13:31:26Z</time>
      </trkpt>
      <trkpt lat="46.14174" lon="2.47225">
        <ele>477</ele>
        <time>2015-04-10T13:31:28Z</time>
      </trkpt>
      <trkpt lat="46.14173" lon="2.47224">
        <ele>477</ele>
        <time>2015-04-10T13:31:33Z</time>
      </trkpt>
      <trkpt lat="46.1417" lon="2.47226">
        <ele>477</ele>
        <time>2015-04-10T13:31:35Z</time>
      </trkpt>
      <trkpt lat="46.14168" lon="2.47227">
        <ele>477</ele>
        <time>2015-04-10T13:31:37Z</time>
      </trkpt>
      <trkpt lat="46.14165" lon="2.47228">
        <ele>477</ele>
        <time>2015-04-10T13:31:39Z</time>
      </trkpt>
      <trkpt lat="46.14163" lon="2.47229">
        <ele>477</ele>
        <time>2015-04-10T13:31:41Z</time>
      </trkpt>
      <trkpt lat="46.1416" lon="2.47229">
        <ele>477</ele>
        <time>2015-04-10T13:31:43Z</time>
      </trkpt>
      <trkpt lat="46.14157" lon="2.47229">
        <ele>477</ele>
        <time>2015-04-10T13:31:45Z</time>
      </trkpt>
      <trkpt lat="46.14155" lon="2.47229">
        <ele>477</ele>
        <time>2015-04-10T13:31:47Z</time>
      </trkpt>
      <trkpt lat="46.14152" lon="2.47228">
        <ele>477</ele>
        <time>2015-04-10T13:31:49Z</time>
      </trkpt>
      <trkpt lat="46.14149" lon="2.47228">
        <ele>477</ele>
        <time>2015-04-10T13:31:51Z</time>
      </trkpt>
      <trkpt lat="46.14146" lon="2.47227">
        <ele>477</ele>
        <time>2015-04-10T13:31:53Z</time>
      </trkpt>
      <trkpt lat="46.14144" lon="2.47226">
        <ele>477</ele>
        <time>2015-04-10T13:31:55Z</time>
      </trkpt>
      <trkpt lat="46.14141" lon="2.47225">
        <ele>477</ele>
        <time>2015-04-10T13:31:57Z</time>
      </trkpt>
      <trkpt lat="46.14137" lon="2.47225">
        <ele>477</ele>
        <time>2015-04-10T13:31:59Z</time>
      </trkpt>
      <trkpt lat="46.14134" lon="2.47225">
        <ele>477</ele>
        <time>2015-04-10T13:32:01Z</time>
      </trkpt>
      <trkpt lat="46.14131" lon="2.47226">
        <ele>477</ele>
        <time>2015-04-10T13:32:03Z</time>
      </trkpt>
      <trkpt lat="46.14128" lon="2.47227">
        <ele>477</ele>
        <time>2015-04-10T13:32:05Z</time>
      </trkpt>
      <trkpt lat="46.14126" lon="2.47228">
        <ele>477</ele>
        <time>2015-04-10T13:32:07Z</time>
      </trkpt>
      <trkpt lat="46.14123" lon="2.47229">
        <ele>477</ele>
        <time>2015-04-10T13:32:09Z</time>
      </trkpt>
      <trkpt lat="46.1412" lon="2.4723">
        <ele>477</ele>
        <time>2015-04-10T13:32:11Z</time>
      </trkpt>
      <trkpt lat="46.14117" lon="2.47231">
        <ele>477</ele>
        <time>2015-04-10T13:32:13Z</time>
      </trkpt>
      <trkpt lat="46.14115" lon="2.47233">
        <ele>477</ele>
        <time>2015-04-10T13:32:15Z</time>
      </trkpt>
      <trkpt lat="46.14112" lon="2.47234">
        <ele>477</ele>
        <time>2015-04-10T13:32:17Z</time>
      </trkpt>
      <trkpt lat="46.14109" lon="2.47234">
        <ele>477</ele>
        <time>2015-04-10T13:32:19Z</time>
      </trkpt>
      <trkpt lat="46.14106" lon="2.47234">
        <ele>477</ele>
        <time>2015-04-10T13:32:21Z</time>
      </trkpt>
      <trkpt lat="46.14103" lon="2.47234">
        <ele>477</ele>
        <time>2015-04-10T13:32:23Z</time>
      </trkpt>
      <trkpt lat="46.14101" lon="2.47234">
        <ele>477</ele>
        <time>2015-04-10T13:32:25Z</time>
      </trkpt>
      <trkpt lat="46.14098" lon="2.47234">
        <ele>477</ele>
        <time>2015-04-10T13:32:27Z</time>
      </trkpt>
      <trkpt lat="46.14096" lon="2.47234">
        <ele>477</ele>
        <time>2015-04-10T13:32:29Z</time>
      </trkpt>
      <trkpt lat="46.14093" lon="2.47233">
        <ele>477</ele>
        <time>2015-04-10T13:32:31Z</time>
      </trkpt>
      <trkpt lat="46.1409" lon="2.47233">
        <ele>477</ele>
        <time>2015-04-10T13:32:33Z</time>
      </trkpt>
      <trkpt lat="46.14087" lon="2.47233">
        <ele>477</ele>
        <time>2015-04-10T13:32:35Z</time>
      </trkpt>
      <trkpt lat="46.14084" lon="2.47233">
        <ele>477</ele>
        <time>2015-04-10T13:32:37Z</time>
      </trkpt>
      <trkpt lat="46.1408" lon="2.47232">
        <ele>477</ele>
        <time>2015-04-10T13:32:40Z</time>
      </trkpt>
      <trkpt lat="46.14079" lon="2.47229">
        <ele>477</ele>
        <time>2015-04-10T13:32:42Z</time>
      </trkpt>
      <trkpt lat="46.14078" lon="2.47227">
        <ele>477</ele>
        <time>2015-04-10T13:32:44Z</time>
      </trkpt>
      <trkpt lat="46.14077" lon="2.47225">
        <ele>477</ele>
        <time>2015-04-10T13:32:48Z</time>
      </trkpt>
      <trkpt lat="46.14076" lon="2.47221">
        <ele>477</ele>
        <time>2015-04-10T13:32:50Z</time>
      </trkpt>
      <trkpt lat="46.14074" lon="2.47217">
        <ele>477</ele>
        <time>2015-04-10T13:32:52Z</time>
      </trkpt>
      <trkpt lat="46.14072" lon="2.47214">
        <ele>477</ele>
        <time>2015-04-10T13:32:54Z</time>
      </trkpt>
      <trkpt lat="46.14071" lon="2.4721">
        <ele>477</ele>
        <time>2015-04-10T13:32:56Z</time>
      </trkpt>
      <trkpt lat="46.14067" lon="2.47206">
        <ele>477</ele>
        <time>2015-04-10T13:32:59Z</time>
      </trkpt>
      <trkpt lat="46.14065" lon="2.47205">
        <ele>477</ele>
        <time>2015-04-10T13:33:01Z</time>
      </trkpt>
      <trkpt lat="46.14062" lon="2.47203">
        <ele>477</ele>
        <time>2015-04-10T13:33:03Z</time>
      </trkpt>
      <trkpt lat="46.14059" lon="2.47201">
        <ele>477</ele>
        <time>2015-04-10T13:33:05Z</time>
      </trkpt>
      <trkpt lat="46.14057" lon="2.472">
        <ele>477</ele>
        <time>2015-04-10T13:33:07Z</time>
      </trkpt>
      <trkpt lat="46.14054" lon="2.47198">
        <ele>477</ele>
        <time>2015-04-10T13:33:09Z</time>
      </trkpt>
      <trkpt lat="46.14052" lon="2.47197">
        <ele>477</ele>
        <time>2015-04-10T13:33:11Z</time>
      </trkpt>
      <trkpt lat="46.14049" lon="2.47196">
        <ele>477</ele>
        <time>2015-04-10T13:33:13Z</time>
      </trkpt>
      <trkpt lat="46.14047" lon="2.47195">
        <ele>477</ele>
        <time>2015-04-10T13:33:15Z</time>
      </trkpt>
      <trkpt lat="46.14044" lon="2.47194">
        <ele>477</ele>
        <time>2015-04-10T13:33:17Z</time>
      </trkpt>
      <trkpt lat="46.14042" lon="2.47193">
        <ele>478</ele>
        <time>2015-04-10T13:33:19Z</time>
      </trkpt>
      <trkpt lat="46.1404" lon="2.47192">
        <ele>478</ele>
        <time>2015-04-10T13:33:21Z</time>
      </trkpt>
      <trkpt lat="46.14037" lon="2.4719">
        <ele>478</ele>
        <time>2015-04-10T13:33:23Z</time>
      </trkpt>
      <trkpt lat="46.14035" lon="2.47189">
        <ele>478</ele>
        <time>2015-04-10T13:33:25Z</time>
      </trkpt>
      <trkpt lat="46.14032" lon="2.47187">
        <ele>478</ele>
        <time>2015-04-10T13:33:27Z</time>
      </trkpt>
      <trkpt lat="46.14029" lon="2.47184">
        <ele>478</ele>
        <time>2015-04-10T13:33:30Z</time>
      </trkpt>
      <trkpt lat="46.14027" lon="2.47182">
        <ele>478</ele>
        <time>2015-04-10T13:33:32Z</time>
      </trkpt>
      <trkpt lat="46.14024" lon="2.47181">
        <ele>478</ele>
        <time>2015-04-10T13:33:34Z</time>
      </trkpt>
      <trkpt lat="46.14021" lon="2.47177">
        <ele>478</ele>
        <time>2015-04-10T13:33:37Z</time>
      </trkpt>
      <trkpt lat="46.14018" lon="2.47175">
        <ele>478</ele>
        <time>2015-04-10T13:33:39Z</time>
      </trkpt>
      <trkpt lat="46.14016" lon="2.47173">
        <ele>478</ele>
        <time>2015-04-10T13:33:41Z</time>
      </trkpt>
      <trkpt lat="46.14013" lon="2.47171">
        <ele>478</ele>
        <time>2015-04-10T13:33:43Z</time>
      </trkpt>
      <trkpt lat="46.14009" lon="2.47168">
        <ele>478</ele>
        <time>2015-04-10T13:33:46Z</time>
      </trkpt>
      <trkpt lat="46.14007" lon="2.47167">
        <ele>478</ele>
        <time>2015-04-10T13:33:48Z</time>
      </trkpt>
      <trkpt lat="46.14005" lon="2.47165">
        <ele>478</ele>
        <time>2015-04-10T13:33:50Z</time>
      </trkpt>
      <trkpt lat="46.14003" lon="2.47164">
        <ele>478</ele>
        <time>2015-04-10T13:33:52Z</time>
      </trkpt>
      <trkpt lat="46.14001" lon="2.47162">
        <ele>478</ele>
        <time>2015-04-10T13:33:54Z</time>
      </trkpt>
      <trkpt lat="46.13998" lon="2.47161">
        <ele>478</ele>
        <time>2015-04-10T13:33:56Z</time>
      </trkpt>
      <trkpt lat="46.13996" lon="2.47159">
        <ele>478</ele>
        <time>2015-04-10T13:33:58Z</time>
      </trkpt>
      <trkpt lat="46.13994" lon="2.47157">
        <ele>478</ele>
        <time>2015-04-10T13:34:00Z</time>
      </trkpt>
      <trkpt lat="46.13991" lon="2.47155">
        <ele>478</ele>
        <time>2015-04-10T13:34:02Z</time>
      </trkpt>
      <trkpt lat="46.13989" lon="2.47154">
        <ele>478</ele>
        <time>2015-04-10T13:34:04Z</time>
      </trkpt>
      <trkpt lat="46.13986" lon="2.47152">
        <ele>478</ele>
        <time>2015-04-10T13:34:06Z</time>
      </trkpt>
      <trkpt lat="46.13984" lon="2.4715">
        <ele>478</ele>
        <time>2015-04-10T13:34:08Z</time>
      </trkpt>
      <trkpt lat="46.13981" lon="2.47148">
        <ele>478</ele>
        <time>2015-04-10T13:34:10Z</time>
      </trkpt>
      <trkpt lat="46.13978" lon="2.47146">
        <ele>478</ele>
        <time>2015-04-10T13:34:12Z</time>
      </trkpt>
      <trkpt lat="46.13976" lon="2.47145">
        <ele>478</ele>
        <time>2015-04-10T13:34:14Z</time>
      </trkpt>
      <trkpt lat="46.13973" lon="2.47143">
        <ele>478</ele>
        <time>2015-04-10T13:34:16Z</time>
      </trkpt>
      <trkpt lat="46.1397" lon="2.47141">
        <ele>478</ele>
        <time>2015-04-10T13:34:18Z</time>
      </trkpt>
      <trkpt lat="46.13967" lon="2.47139">
        <ele>478</ele>
        <time>2015-04-10T13:34:20Z</time>
      </trkpt>
      <trkpt lat="46.13964" lon="2.47137">
        <ele>478</ele>
        <time>2015-04-10T13:34:22Z</time>
      </trkpt>
      <trkpt lat="46.13961" lon="2.47136">
        <ele>478</ele>
        <time>2015-04-10T13:34:24Z</time>
      </trkpt>
      <trkpt lat="46.13958" lon="2.47134">
        <ele>478</ele>
        <time>2015-04-10T13:34:26Z</time>
      </trkpt>
      <trkpt lat="46.13956" lon="2.47133">
        <ele>478</ele>
        <time>2015-04-10T13:34:28Z</time>
      </trkpt>
      <trkpt lat="46.13953" lon="2.47131">
        <ele>478</ele>
        <time>2015-04-10T13:34:30Z</time>
      </trkpt>
      <trkpt lat="46.1395" lon="2.47129">
        <ele>478</ele>
        <time>2015-04-10T13:34:32Z</time>
      </trkpt>
      <trkpt lat="46.13947" lon="2.47127">
        <ele>478</ele>
        <time>2015-04-10T13:34:34Z</time>
      </trkpt>
      <trkpt lat="46.13945" lon="2.47126">
        <ele>478</ele>
        <time>2015-04-10T13:34:36Z</time>
      </trkpt>
      <trkpt lat="46.13942" lon="2.47124">
        <ele>478</ele>
        <time>2015-04-10T13:34:38Z</time>
      </trkpt>
      <trkpt lat="46.13939" lon="2.47123">
        <ele>478</ele>
        <time>2015-04-10T13:34:40Z</time>
      </trkpt>
      <trkpt lat="46.13937" lon="2.47121">
        <ele>478</ele>
        <time>2015-04-10T13:34:42Z</time>
      </trkpt>
      <trkpt lat="46.13934" lon="2.47119">
        <ele>478</ele>
        <time>2015-04-10T13:34:44Z</time>
      </trkpt>
      <trkpt lat="46.13932" lon="2.47116">
        <ele>478</ele>
        <time>2015-04-10T13:34:46Z</time>
      </trkpt>
      <trkpt lat="46.13931" lon="2.47112">
        <ele>478</ele>
        <time>2015-04-10T13:34:49Z</time>
      </trkpt>
      <trkpt lat="46.1393" lon="2.47107">
        <ele>478</ele>
        <time>2015-04-10T13:34:51Z</time>
      </trkpt>
      <trkpt lat="46.1393" lon="2.47102">
        <ele>478</ele>
        <time>2015-04-10T13:34:53Z</time>
      </trkpt>
      <trkpt lat="46.1393" lon="2.47098">
        <ele>478</ele>
        <time>2015-04-10T13:34:55Z</time>
      </trkpt>
      <trkpt lat="46.13929" lon="2.47094">
        <ele>478</ele>
        <time>2015-04-10T13:34:57Z</time>
      </trkpt>
      <trkpt lat="46.13929" lon="2.4709">
        <ele>478</ele>
        <time>2015-04-10T13:34:59Z</time>
      </trkpt>
      <trkpt lat="46.13929" lon="2.47086">
        <ele>478</ele>
        <time>2015-04-10T13:35:01Z</time>
      </trkpt>
      <trkpt lat="46.13929" lon="2.47082">
        <ele>478</ele>
        <time>2015-04-10T13:35:03Z</time>
      </trkpt>
      <trkpt lat="46.13929" lon="2.47079">
        <ele>478</ele>
        <time>2015-04-10T13:35:05Z</time>
      </trkpt>
      <trkpt lat="46.13929" lon="2.47075">
        <ele>478</ele>
        <time>2015-04-10T13:35:07Z</time>
      </trkpt>
      <trkpt lat="46.13929" lon="2.47071">
        <ele>478</ele>
        <time>2015-04-10T13:35:09Z</time>
      </trkpt>
      <trkpt lat="46.13929" lon="2.47067">
        <ele>478</ele>
        <time>2015-04-10T13:35:11Z</time>
      </trkpt>
      <trkpt lat="46.13929" lon="2.47063">
        <ele>478</ele>
        <time>2015-04-10T13:35:13Z</time>
      </trkpt>
      <trkpt lat="46.13929" lon="2.47059">
        <ele>478</ele>
        <time>2015-04-10T13:35:15Z</time>
      </trkpt>
      <trkpt lat="46.13929" lon="2.47055">
        <ele>478</ele>
        <time>2015-04-10T13:35:17Z</time>
      </trkpt>
      <trkpt lat="46.13929" lon="2.4705">
        <ele>478</ele>
        <time>2015-04-10T13:35:19Z</time>
      </trkpt>
      <trkpt lat="46.13929" lon="2.47045">
        <ele>478</ele>
        <time>2015-04-10T13:35:21Z</time>
      </trkpt>
      <trkpt lat="46.13929" lon="2.47041">
        <ele>478</ele>
        <time>2015-04-10T13:35:23Z</time>
      </trkpt>
      <trkpt lat="46.13929" lon="2.47037">
        <ele>478</ele>
        <time>2015-04-10T13:35:25Z</time>
      </trkpt>
      <trkpt lat="46.13929" lon="2.47031">
        <ele>478</ele>
        <time>2015-04-10T13:35:27Z</time>
      </trkpt>
      <trkpt lat="46.13929" lon="2.47026">
        <ele>478</ele>
        <time>2015-04-10T13:35:29Z</time>
      </trkpt>
      <trkpt lat="46.13929" lon="2.47021">
        <ele>477</ele>
        <time>2015-04-10T13:35:31Z</time>
      </trkpt>
      <trkpt lat="46.13929" lon="2.47017">
        <ele>477</ele>
        <time>2015-04-10T13:35:33Z</time>
      </trkpt>
      <trkpt lat="46.13929" lon="2.47012">
        <ele>476</ele>
        <time>2015-04-10T13:35:35Z</time>
      </trkpt>
      <trkpt lat="46.13929" lon="2.47008">
        <ele>476</ele>
        <time>2015-04-10T13:35:37Z</time>
      </trkpt>
      <trkpt lat="46.13929" lon="2.47004">
        <ele>475</ele>
        <time>2015-04-10T13:35:39Z</time>
      </trkpt>
      <trkpt lat="46.13929" lon="2.46999">
        <ele>475</ele>
        <time>2015-04-10T13:35:41Z</time>
      </trkpt>
      <trkpt lat="46.13929" lon="2.46995">
        <ele>474</ele>
        <time>2015-04-10T13:35:43Z</time>
      </trkpt>
      <trkpt lat="46.13929" lon="2.4699">
        <ele>474</ele>
        <time>2015-04-10T13:35:45Z</time>
      </trkpt>
      <trkpt lat="46.13929" lon="2.46987">
        <ele>474</ele>
        <time>2015-04-10T13:35:47Z</time>
      </trkpt>
      <trkpt lat="46.13929" lon="2.46982">
        <ele>473</ele>
        <time>2015-04-10T13:35:49Z</time>
      </trkpt>
      <trkpt lat="46.13929" lon="2.46978">
        <ele>473</ele>
        <time>2015-04-10T13:35:51Z</time>
      </trkpt>
      <trkpt lat="46.13929" lon="2.46974">
        <ele>473</ele>
        <time>2015-04-10T13:35:53Z</time>
      </trkpt>
      <trkpt lat="46.13929" lon="2.4697">
        <ele>472</ele>
        <time>2015-04-10T13:35:55Z</time>
      </trkpt>
      <trkpt lat="46.13928" lon="2.46966">
        <ele>472</ele>
        <time>2015-04-10T13:35:57Z</time>
      </trkpt>
      <trkpt lat="46.13928" lon="2.46961">
        <ele>472</ele>
        <time>2015-04-10T13:35:59Z</time>
      </trkpt>
      <trkpt lat="46.13929" lon="2.46957">
        <ele>471</ele>
        <time>2015-04-10T13:36:01Z</time>
      </trkpt>
      <trkpt lat="46.13929" lon="2.46954">
        <ele>471</ele>
        <time>2015-04-10T13:36:03Z</time>
      </trkpt>
      <trkpt lat="46.13929" lon="2.46949">
        <ele>471</ele>
        <time>2015-04-10T13:36:05Z</time>
      </trkpt>
      <trkpt lat="46.13929" lon="2.46945">
        <ele>471</ele>
        <time>2015-04-10T13:36:07Z</time>
      </trkpt>
      <trkpt lat="46.13929" lon="2.4694">
        <ele>471</ele>
        <time>2015-04-10T13:36:09Z</time>
      </trkpt>
      <trkpt lat="46.13929" lon="2.46936">
        <ele>471</ele>
        <time>2015-04-10T13:36:11Z</time>
      </trkpt>
      <trkpt lat="46.13928" lon="2.46931">
        <ele>471</ele>
        <time>2015-04-10T13:36:13Z</time>
      </trkpt>
      <trkpt lat="46.13927" lon="2.46927">
        <ele>471</ele>
        <time>2015-04-10T13:36:15Z</time>
      </trkpt>
      <trkpt lat="46.13925" lon="2.46922">
        <ele>471</ele>
        <time>2015-04-10T13:36:17Z</time>
      </trkpt>
      <trkpt lat="46.13923" lon="2.46919">
        <ele>471</ele>
        <time>2015-04-10T13:36:19Z</time>
      </trkpt>
      <trkpt lat="46.13921" lon="2.46917">
        <ele>471</ele>
        <time>2015-04-10T13:36:21Z</time>
      </trkpt>
      <trkpt lat="46.13918" lon="2.46915">
        <ele>471</ele>
        <time>2015-04-10T13:36:23Z</time>
      </trkpt>
      <trkpt lat="46.13915" lon="2.46913">
        <ele>471</ele>
        <time>2015-04-10T13:36:25Z</time>
      </trkpt>
      <trkpt lat="46.13912" lon="2.46913">
        <ele>470</ele>
        <time>2015-04-10T13:36:27Z</time>
      </trkpt>
      <trkpt lat="46.13909" lon="2.46913">
        <ele>470</ele>
        <time>2015-04-10T13:36:29Z</time>
      </trkpt>
      <trkpt lat="46.13906" lon="2.46912">
        <ele>469</ele>
        <time>2015-04-10T13:36:31Z</time>
      </trkpt>
      <trkpt lat="46.13903" lon="2.46911">
        <ele>469</ele>
        <time>2015-04-10T13:36:33Z</time>
      </trkpt>
      <trkpt lat="46.13901" lon="2.4691">
        <ele>468</ele>
        <time>2015-04-10T13:36:35Z</time>
      </trkpt>
      <trkpt lat="46.13899" lon="2.46908">
        <ele>468</ele>
        <time>2015-04-10T13:36:37Z</time>
      </trkpt>
      <trkpt lat="46.13897" lon="2.46905">
        <ele>467</ele>
        <time>2015-04-10T13:36:39Z</time>
      </trkpt>
      <trkpt lat="46.13895" lon="2.46902">
        <ele>467</ele>
        <time>2015-04-10T13:36:41Z</time>
      </trkpt>
      <trkpt lat="46.13894" lon="2.46899">
        <ele>466</ele>
        <time>2015-04-10T13:36:43Z</time>
      </trkpt>
      <trkpt lat="46.13893" lon="2.46895">
        <ele>465</ele>
        <time>2015-04-10T13:36:45Z</time>
      </trkpt>
      <trkpt lat="46.13892" lon="2.4689">
        <ele>465</ele>
        <time>2015-04-10T13:36:47Z</time>
      </trkpt>
      <trkpt lat="46.13892" lon="2.46885">
        <ele>465</ele>
        <time>2015-04-10T13:36:49Z</time>
      </trkpt>
      <trkpt lat="46.13892" lon="2.46881">
        <ele>464</ele>
        <time>2015-04-10T13:36:51Z</time>
      </trkpt>
      <trkpt lat="46.13891" lon="2.46876">
        <ele>464</ele>
        <time>2015-04-10T13:36:53Z</time>
      </trkpt>
      <trkpt lat="46.13891" lon="2.46872">
        <ele>463</ele>
        <time>2015-04-10T13:36:55Z</time>
      </trkpt>
      <trkpt lat="46.1389" lon="2.46868">
        <ele>463</ele>
        <time>2015-04-10T13:36:57Z</time>
      </trkpt>
      <trkpt lat="46.1389" lon="2.46864">
        <ele>463</ele>
        <time>2015-04-10T13:36:59Z</time>
      </trkpt>
      <trkpt lat="46.13889" lon="2.4686">
        <ele>462</ele>
        <time>2015-04-10T13:37:01Z</time>
      </trkpt>
      <trkpt lat="46.13888" lon="2.46856">
        <ele>462</ele>
        <time>2015-04-10T13:37:03Z</time>
      </trkpt>
      <trkpt lat="46.13887" lon="2.46852">
        <ele>461</ele>
        <time>2015-04-10T13:37:05Z</time>
      </trkpt>
      <trkpt lat="46.13886" lon="2.46848">
        <ele>461</ele>
        <time>2015-04-10T13:37:07Z</time>
      </trkpt>
      <trkpt lat="46.13885" lon="2.46844">
        <ele>461</ele>
        <time>2015-04-10T13:37:09Z</time>
      </trkpt>
      <trkpt lat="46.13885" lon="2.4684">
        <ele>461</ele>
        <time>2015-04-10T13:37:11Z</time>
      </trkpt>
      <trkpt lat="46.13884" lon="2.46836">
        <ele>461</ele>
        <time>2015-04-10T13:37:13Z</time>
      </trkpt>
      <trkpt lat="46.13883" lon="2.46832">
        <ele>461</ele>
        <time>2015-04-10T13:37:15Z</time>
      </trkpt>
      <trkpt lat="46.13882" lon="2.46829">
        <ele>460</ele>
        <time>2015-04-10T13:37:17Z</time>
      </trkpt>
      <trkpt lat="46.13882" lon="2.46825">
        <ele>459</ele>
        <time>2015-04-10T13:37:19Z</time>
      </trkpt>
      <trkpt lat="46.13883" lon="2.46821">
        <ele>458</ele>
        <time>2015-04-10T13:37:21Z</time>
      </trkpt>
      <trkpt lat="46.13883" lon="2.46817">
        <ele>458</ele>
        <time>2015-04-10T13:37:23Z</time>
      </trkpt>
      <trkpt lat="46.13884" lon="2.46813">
        <ele>457</ele>
        <time>2015-04-10T13:37:25Z</time>
      </trkpt>
      <trkpt lat="46.13884" lon="2.46809">
        <ele>457</ele>
        <time>2015-04-10T13:37:27Z</time>
      </trkpt>
      <trkpt lat="46.13885" lon="2.46805">
        <ele>456</ele>
        <time>2015-04-10T13:37:29Z</time>
      </trkpt>
      <trkpt lat="46.13887" lon="2.46801">
        <ele>456</ele>
        <time>2015-04-10T13:37:31Z</time>
      </trkpt>
      <trkpt lat="46.13888" lon="2.46798">
        <ele>456</ele>
        <time>2015-04-10T13:37:33Z</time>
      </trkpt>
      <trkpt lat="46.1389" lon="2.46795">
        <ele>456</ele>
        <time>2015-04-10T13:37:35Z</time>
      </trkpt>
      <trkpt lat="46.13891" lon="2.46792">
        <ele>456</ele>
        <time>2015-04-10T13:37:37Z</time>
      </trkpt>
      <trkpt lat="46.13892" lon="2.46788">
        <ele>456</ele>
        <time>2015-04-10T13:37:39Z</time>
      </trkpt>
      <trkpt lat="46.13893" lon="2.46785">
        <ele>455</ele>
        <time>2015-04-10T13:37:41Z</time>
      </trkpt>
      <trkpt lat="46.13895" lon="2.46781">
        <ele>455</ele>
        <time>2015-04-10T13:37:43Z</time>
      </trkpt>
      <trkpt lat="46.13895" lon="2.46778">
        <ele>454</ele>
        <time>2015-04-10T13:37:45Z</time>
      </trkpt>
      <trkpt lat="46.13897" lon="2.46774">
        <ele>453</ele>
        <time>2015-04-10T13:37:48Z</time>
      </trkpt>
      <trkpt lat="46.13898" lon="2.46771">
        <ele>453</ele>
        <time>2015-04-10T13:37:50Z</time>
      </trkpt>
      <trkpt lat="46.13899" lon="2.46769">
        <ele>452</ele>
        <time>2015-04-10T13:37:52Z</time>
      </trkpt>
      <trkpt lat="46.13901" lon="2.46767">
        <ele>452</ele>
        <time>2015-04-10T13:37:54Z</time>
      </trkpt>
      <trkpt lat="46.13904" lon="2.46765">
        <ele>451</ele>
        <time>2015-04-10T13:37:56Z</time>
      </trkpt>
      <trkpt lat="46.13907" lon="2.46764">
        <ele>451</ele>
        <time>2015-04-10T13:37:58Z</time>
      </trkpt>
      <trkpt lat="46.13909" lon="2.46762">
        <ele>451</ele>
        <time>2015-04-10T13:38:00Z</time>
      </trkpt>
      <trkpt lat="46.13911" lon="2.46758">
        <ele>450</ele>
        <time>2015-04-10T13:38:03Z</time>
      </trkpt>
      <trkpt lat="46.13913" lon="2.46756">
        <ele>449</ele>
        <time>2015-04-10T13:38:05Z</time>
      </trkpt>
      <trkpt lat="46.13914" lon="2.46752">
        <ele>448</ele>
        <time>2015-04-10T13:38:08Z</time>
      </trkpt>
      <trkpt lat="46.13916" lon="2.4675">
        <ele>447</ele>
        <time>2015-04-10T13:38:10Z</time>
      </trkpt>
      <trkpt lat="46.13916" lon="2.46746">
        <ele>447</ele>
        <time>2015-04-10T13:38:12Z</time>
      </trkpt>
      <trkpt lat="46.13914" lon="2.46744">
        <ele>446</ele>
        <time>2015-04-10T13:38:14Z</time>
      </trkpt>
      <trkpt lat="46.13913" lon="2.46744">
        <ele>446</ele>
        <time>2015-04-10T13:38:16Z</time>
      </trkpt>
      <trkpt lat="46.13911" lon="2.46744">
        <ele>446</ele>
        <time>2015-04-10T13:38:20Z</time>
      </trkpt>
      <trkpt lat="46.1391" lon="2.46744">
        <ele>446</ele>
        <time>2015-04-10T13:38:22Z</time>
      </trkpt>
      <trkpt lat="46.13908" lon="2.46744">
        <ele>446</ele>
        <time>2015-04-10T13:38:24Z</time>
      </trkpt>
      <trkpt lat="46.13907" lon="2.46743">
        <ele>446</ele>
        <time>2015-04-10T13:38:29Z</time>
      </trkpt>
      <trkpt lat="46.13906" lon="2.46742">
        <ele>446</ele>
        <time>2015-04-10T13:38:34Z</time>
      </trkpt>
      <trkpt lat="46.13905" lon="2.4674">
        <ele>446</ele>
        <time>2015-04-10T13:38:42Z</time>
      </trkpt>
      <trkpt lat="46.13906" lon="2.46738">
        <ele>446</ele>
        <time>2015-04-10T13:38:44Z</time>
      </trkpt>
      <trkpt lat="46.13904" lon="2.46737">
        <ele>446</ele>
        <time>2015-04-10T13:38:46Z</time>
      </trkpt>
      <trkpt lat="46.13903" lon="2.46736">
        <ele>446</ele>
        <time>2015-04-10T13:38:48Z</time>
      </trkpt>
      <trkpt lat="46.13903" lon="2.46734">
        <ele>446</ele>
        <time>2015-04-10T13:38:50Z</time>
      </trkpt>
      <trkpt lat="46.13902" lon="2.46731">
        <ele>446</ele>
        <time>2015-04-10T13:38:52Z</time>
      </trkpt>
      <trkpt lat="46.13901" lon="2.4673">
        <ele>446</ele>
        <time>2015-04-10T13:38:57Z</time>
      </trkpt>
      <trkpt lat="46.139" lon="2.46728">
        <ele>446</ele>
        <time>2015-04-10T13:39:01Z</time>
      </trkpt>
      <trkpt lat="46.13899" lon="2.46726">
        <ele>446</ele>
        <time>2015-04-10T13:39:03Z</time>
      </trkpt>
      <trkpt lat="46.13898" lon="2.46724">
        <ele>446</ele>
        <time>2015-04-10T13:39:05Z</time>
      </trkpt>
      <trkpt lat="46.13896" lon="2.46723">
        <ele>446</ele>
        <time>2015-04-10T13:39:08Z</time>
      </trkpt>
      <trkpt lat="46.13897" lon="2.46725">
        <ele>446</ele>
        <time>2015-04-10T13:39:13Z</time>
      </trkpt>
      <trkpt lat="46.13895" lon="2.46726">
        <ele>446</ele>
        <time>2015-04-10T13:39:23Z</time>
      </trkpt>
      <trkpt lat="46.13895" lon="2.46724">
        <ele>446</ele>
        <time>2015-04-10T13:39:26Z</time>
      </trkpt>
      <trkpt lat="46.13894" lon="2.46721">
        <ele>446</ele>
        <time>2015-04-10T13:39:28Z</time>
      </trkpt>
      <trkpt lat="46.13893" lon="2.46719">
        <ele>446</ele>
        <time>2015-04-10T13:39:30Z</time>
      </trkpt>
      <trkpt lat="46.13892" lon="2.46716">
        <ele>446</ele>
        <time>2015-04-10T13:39:32Z</time>
      </trkpt>
      <trkpt lat="46.13891" lon="2.46713">
        <ele>446</ele>
        <time>2015-04-10T13:39:34Z</time>
      </trkpt>
      <trkpt lat="46.1389" lon="2.46711">
        <ele>446</ele>
        <time>2015-04-10T13:39:36Z</time>
      </trkpt>
      <trkpt lat="46.13891" lon="2.46713">
        <ele>446</ele>
        <time>2015-04-10T13:39:42Z</time>
      </trkpt>
      <trkpt lat="46.13892" lon="2.46715">
        <ele>446</ele>
        <time>2015-04-10T13:39:44Z</time>
      </trkpt>
      <trkpt lat="46.13892" lon="2.46717">
        <ele>446</ele>
        <time>2015-04-10T13:39:46Z</time>
      </trkpt>
      <trkpt lat="46.13892" lon="2.46715">
        <ele>446</ele>
        <time>2015-04-10T13:39:51Z</time>
      </trkpt>
      <trkpt lat="46.13892" lon="2.46712">
        <ele>446</ele>
        <time>2015-04-10T13:39:53Z</time>
      </trkpt>
      <trkpt lat="46.1389" lon="2.46709">
        <ele>446</ele>
        <time>2015-04-10T13:39:55Z</time>
      </trkpt>
      <trkpt lat="46.13889" lon="2.46706">
        <ele>446</ele>
        <time>2015-04-10T13:39:57Z</time>
      </trkpt>
      <trkpt lat="46.13888" lon="2.46702">
        <ele>446</ele>
        <time>2015-04-10T13:39:59Z</time>
      </trkpt>
      <trkpt lat="46.13887" lon="2.46699">
        <ele>446</ele>
        <time>2015-04-10T13:40:01Z</time>
      </trkpt>
      <trkpt lat="46.13886" lon="2.46695">
        <ele>446</ele>
        <time>2015-04-10T13:40:03Z</time>
      </trkpt>
      <trkpt lat="46.13884" lon="2.46692">
        <ele>446</ele>
        <time>2015-04-10T13:40:05Z</time>
      </trkpt>
      <trkpt lat="46.13884" lon="2.46689">
        <ele>446</ele>
        <time>2015-04-10T13:40:07Z</time>
      </trkpt>
      <trkpt lat="46.13883" lon="2.46686">
        <ele>446</ele>
        <time>2015-04-10T13:40:09Z</time>
      </trkpt>
      <trkpt lat="46.13882" lon="2.46683">
        <ele>446</ele>
        <time>2015-04-10T13:40:11Z</time>
      </trkpt>
      <trkpt lat="46.13882" lon="2.4668">
        <ele>446</ele>
        <time>2015-04-10T13:40:13Z</time>
      </trkpt>
      <trkpt lat="46.13881" lon="2.46676">
        <ele>446</ele>
        <time>2015-04-10T13:40:15Z</time>
      </trkpt>
      <trkpt lat="46.13879" lon="2.46673">
        <ele>446</ele>
        <time>2015-04-10T13:40:17Z</time>
      </trkpt>
      <trkpt lat="46.13879" lon="2.46669">
        <ele>446</ele>
        <time>2015-04-10T13:40:19Z</time>
      </trkpt>
      <trkpt lat="46.13878" lon="2.46665">
        <ele>446</ele>
        <time>2015-04-10T13:40:22Z</time>
      </trkpt>
      <trkpt lat="46.13876" lon="2.46661">
        <ele>446</ele>
        <time>2015-04-10T13:40:25Z</time>
      </trkpt>
      <trkpt lat="46.13875" lon="2.46658">
        <ele>447</ele>
        <time>2015-04-10T13:40:27Z</time>
      </trkpt>
      <trkpt lat="46.13874" lon="2.46657">
        <ele>447</ele>
        <time>2015-04-10T13:40:29Z</time>
      </trkpt>
      <trkpt lat="46.13873" lon="2.46654">
        <ele>447</ele>
        <time>2015-04-10T13:40:31Z</time>
      </trkpt>
      <trkpt lat="46.13872" lon="2.46652">
        <ele>448</ele>
        <time>2015-04-10T13:40:33Z</time>
      </trkpt>
      <trkpt lat="46.13869" lon="2.46651">
        <ele>449</ele>
        <time>2015-04-10T13:40:35Z</time>
      </trkpt>
      <trkpt lat="46.13867" lon="2.46649">
        <ele>450</ele>
        <time>2015-04-10T13:40:38Z</time>
      </trkpt>
      <trkpt lat="46.13864" lon="2.46647">
        <ele>451</ele>
        <time>2015-04-10T13:40:41Z</time>
      </trkpt>
      <trkpt lat="46.13862" lon="2.46646">
        <ele>451</ele>
        <time>2015-04-10T13:40:43Z</time>
      </trkpt>
      <trkpt lat="46.13861" lon="2.46644">
        <ele>451</ele>
        <time>2015-04-10T13:40:45Z</time>
      </trkpt>
      <trkpt lat="46.13859" lon="2.46643">
        <ele>451</ele>
        <time>2015-04-10T13:40:47Z</time>
      </trkpt>
      <trkpt lat="46.13858" lon="2.46641">
        <ele>451</ele>
        <time>2015-04-10T13:40:49Z</time>
      </trkpt>
      <trkpt lat="46.13857" lon="2.46639">
        <ele>451</ele>
        <time>2015-04-10T13:40:51Z</time>
      </trkpt>
      <trkpt lat="46.13855" lon="2.46637">
        <ele>451</ele>
        <time>2015-04-10T13:40:53Z</time>
      </trkpt>
      <trkpt lat="46.13855" lon="2.46635">
        <ele>452</ele>
        <time>2015-04-10T13:40:55Z</time>
      </trkpt>
      <trkpt lat="46.13852" lon="2.46632">
        <ele>452</ele>
        <time>2015-04-10T13:40:57Z</time>
      </trkpt>
      <trkpt lat="46.1385" lon="2.46629">
        <ele>453</ele>
        <time>2015-04-10T13:40:59Z</time>
      </trkpt>
      <trkpt lat="46.13848" lon="2.46625">
        <ele>454</ele>
        <time>2015-04-10T13:41:01Z</time>
      </trkpt>
      <trkpt lat="46.13846" lon="2.46623">
        <ele>455</ele>
        <time>2015-04-10T13:41:03Z</time>
      </trkpt>
      <trkpt lat="46.13845" lon="2.46619">
        <ele>455</ele>
        <time>2015-04-10T13:41:05Z</time>
      </trkpt>
      <trkpt lat="46.13844" lon="2.46615">
        <ele>455</ele>
        <time>2015-04-10T13:41:07Z</time>
      </trkpt>
      <trkpt lat="46.13842" lon="2.46612">
        <ele>456</ele>
        <time>2015-04-10T13:41:09Z</time>
      </trkpt>
      <trkpt lat="46.13842" lon="2.4661">
        <ele>456</ele>
        <time>2015-04-10T13:41:11Z</time>
      </trkpt>
      <trkpt lat="46.13841" lon="2.46606">
        <ele>458</ele>
        <time>2015-04-10T13:41:14Z</time>
      </trkpt>
      <trkpt lat="46.1384" lon="2.46604">
        <ele>458</ele>
        <time>2015-04-10T13:41:16Z</time>
      </trkpt>
      <trkpt lat="46.13839" lon="2.46601">
        <ele>459</ele>
        <time>2015-04-10T13:41:18Z</time>
      </trkpt>
      <trkpt lat="46.13838" lon="2.46598">
        <ele>460</ele>
        <time>2015-04-10T13:41:20Z</time>
      </trkpt>
      <trkpt lat="46.13837" lon="2.46595">
        <ele>460</ele>
        <time>2015-04-10T13:41:22Z</time>
      </trkpt>
      <trkpt lat="46.13836" lon="2.46591">
        <ele>461</ele>
        <time>2015-04-10T13:41:24Z</time>
      </trkpt>
      <trkpt lat="46.13834" lon="2.46587">
        <ele>462</ele>
        <time>2015-04-10T13:41:27Z</time>
      </trkpt>
      <trkpt lat="46.13833" lon="2.46584">
        <ele>463</ele>
        <time>2015-04-10T13:41:29Z</time>
      </trkpt>
      <trkpt lat="46.13831" lon="2.4658">
        <ele>464</ele>
        <time>2015-04-10T13:41:32Z</time>
      </trkpt>
      <trkpt lat="46.13829" lon="2.46577">
        <ele>464</ele>
        <time>2015-04-10T13:41:34Z</time>
      </trkpt>
      <trkpt lat="46.13828" lon="2.46574">
        <ele>464</ele>
        <time>2015-04-10T13:41:36Z</time>
      </trkpt>
      <trkpt lat="46.13826" lon="2.46572">
        <ele>464</ele>
        <time>2015-04-10T13:41:38Z</time>
      </trkpt>
      <trkpt lat="46.13824" lon="2.46569">
        <ele>464</ele>
        <time>2015-04-10T13:41:40Z</time>
      </trkpt>
      <trkpt lat="46.13822" lon="2.46567">
        <ele>465</ele>
        <time>2015-04-10T13:41:42Z</time>
      </trkpt>
      <trkpt lat="46.13821" lon="2.46564">
        <ele>465</ele>
        <time>2015-04-10T13:41:44Z</time>
      </trkpt>
      <trkpt lat="46.1382" lon="2.4656">
        <ele>465</ele>
        <time>2015-04-10T13:41:46Z</time>
      </trkpt>
      <trkpt lat="46.13818" lon="2.46558">
        <ele>465</ele>
        <time>2015-04-10T13:41:48Z</time>
      </trkpt>
      <trkpt lat="46.13817" lon="2.46554">
        <ele>465</ele>
        <time>2015-04-10T13:41:50Z</time>
      </trkpt>
      <trkpt lat="46.13816" lon="2.46552">
        <ele>465</ele>
        <time>2015-04-10T13:41:52Z</time>
      </trkpt>
      <trkpt lat="46.13814" lon="2.46549">
        <ele>465</ele>
        <time>2015-04-10T13:41:54Z</time>
      </trkpt>
      <trkpt lat="46.13812" lon="2.46545">
        <ele>465</ele>
        <time>2015-04-10T13:41:57Z</time>
      </trkpt>
      <trkpt lat="46.1381" lon="2.46542">
        <ele>465</ele>
        <time>2015-04-10T13:41:59Z</time>
      </trkpt>
      <trkpt lat="46.13809" lon="2.46539">
        <ele>465</ele>
        <time>2015-04-10T13:42:01Z</time>
      </trkpt>
      <trkpt lat="46.13808" lon="2.46536">
        <ele>465</ele>
        <time>2015-04-10T13:42:03Z</time>
      </trkpt>
      <trkpt lat="46.13807" lon="2.46533">
        <ele>465</ele>
        <time>2015-04-10T13:42:05Z</time>
      </trkpt>
      <trkpt lat="46.13805" lon="2.46529">
        <ele>465</ele>
        <time>2015-04-10T13:42:08Z</time>
      </trkpt>
      <trkpt lat="46.13803" lon="2.46524">
        <ele>465</ele>
        <time>2015-04-10T13:42:11Z</time>
      </trkpt>
      <trkpt lat="46.13801" lon="2.46521">
        <ele>465</ele>
        <time>2015-04-10T13:42:13Z</time>
      </trkpt>
      <trkpt lat="46.138" lon="2.46518">
        <ele>465</ele>
        <time>2015-04-10T13:42:15Z</time>
      </trkpt>
      <trkpt lat="46.13798" lon="2.46514">
        <ele>465</ele>
        <time>2015-04-10T13:42:18Z</time>
      </trkpt>
      <trkpt lat="46.13796" lon="2.46511">
        <ele>465</ele>
        <time>2015-04-10T13:42:20Z</time>
      </trkpt>
      <trkpt lat="46.13794" lon="2.46508">
        <ele>465</ele>
        <time>2015-04-10T13:42:22Z</time>
      </trkpt>
      <trkpt lat="46.13792" lon="2.46505">
        <ele>465</ele>
        <time>2015-04-10T13:42:24Z</time>
      </trkpt>
      <trkpt lat="46.1379" lon="2.46501">
        <ele>465</ele>
        <time>2015-04-10T13:42:26Z</time>
      </trkpt>
      <trkpt lat="46.13789" lon="2.46498">
        <ele>465</ele>
        <time>2015-04-10T13:42:28Z</time>
      </trkpt>
      <trkpt lat="46.13787" lon="2.46496">
        <ele>466</ele>
        <time>2015-04-10T13:42:30Z</time>
      </trkpt>
      <trkpt lat="46.13785" lon="2.46492">
        <ele>466</ele>
        <time>2015-04-10T13:42:32Z</time>
      </trkpt>
      <trkpt lat="46.13782" lon="2.46488">
        <ele>466</ele>
        <time>2015-04-10T13:42:35Z</time>
      </trkpt>
      <trkpt lat="46.1378" lon="2.46485">
        <ele>466</ele>
        <time>2015-04-10T13:42:37Z</time>
      </trkpt>
      <trkpt lat="46.13778" lon="2.46482">
        <ele>466</ele>
        <time>2015-04-10T13:42:39Z</time>
      </trkpt>
      <trkpt lat="46.13776" lon="2.4648">
        <ele>466</ele>
        <time>2015-04-10T13:42:41Z</time>
      </trkpt>
      <trkpt lat="46.13774" lon="2.46477">
        <ele>466</ele>
        <time>2015-04-10T13:42:43Z</time>
      </trkpt>
      <trkpt lat="46.13772" lon="2.46474">
        <ele>466</ele>
        <time>2015-04-10T13:42:45Z</time>
      </trkpt>
      <trkpt lat="46.1377" lon="2.46472">
        <ele>466</ele>
        <time>2015-04-10T13:42:47Z</time>
      </trkpt>
      <trkpt lat="46.13768" lon="2.46469">
        <ele>466</ele>
        <time>2015-04-10T13:42:49Z</time>
      </trkpt>
      <trkpt lat="46.13766" lon="2.46466">
        <ele>466</ele>
        <time>2015-04-10T13:42:51Z</time>
      </trkpt>
      <trkpt lat="46.13764" lon="2.46464">
        <ele>466</ele>
        <time>2015-04-10T13:42:53Z</time>
      </trkpt>
      <trkpt lat="46.13762" lon="2.46462">
        <ele>466</ele>
        <time>2015-04-10T13:42:55Z</time>
      </trkpt>
      <trkpt lat="46.1376" lon="2.46459">
        <ele>466</ele>
        <time>2015-04-10T13:42:57Z</time>
      </trkpt>
      <trkpt lat="46.13758" lon="2.46456">
        <ele>466</ele>
        <time>2015-04-10T13:42:59Z</time>
      </trkpt>
      <trkpt lat="46.13755" lon="2.46452">
        <ele>467</ele>
        <time>2015-04-10T13:43:02Z</time>
      </trkpt>
      <trkpt lat="46.13753" lon="2.46449">
        <ele>467</ele>
        <time>2015-04-10T13:43:04Z</time>
      </trkpt>
      <trkpt lat="46.13751" lon="2.46446">
        <ele>467</ele>
        <time>2015-04-10T13:43:06Z</time>
      </trkpt>
      <trkpt lat="46.13749" lon="2.46444">
        <ele>467</ele>
        <time>2015-04-10T13:43:08Z</time>
      </trkpt>
      <trkpt lat="46.13747" lon="2.46441">
        <ele>467</ele>
        <time>2015-04-10T13:43:10Z</time>
      </trkpt>
      <trkpt lat="46.13744" lon="2.46437">
        <ele>467</ele>
        <time>2015-04-10T13:43:13Z</time>
      </trkpt>
      <trkpt lat="46.13741" lon="2.46432">
        <ele>467</ele>
        <time>2015-04-10T13:43:16Z</time>
      </trkpt>
      <trkpt lat="46.13739" lon="2.4643">
        <ele>467</ele>
        <time>2015-04-10T13:43:18Z</time>
      </trkpt>
      <trkpt lat="46.13736" lon="2.46427">
        <ele>467</ele>
        <time>2015-04-10T13:43:21Z</time>
      </trkpt>
      <trkpt lat="46.13735" lon="2.46424">
        <ele>467</ele>
        <time>2015-04-10T13:43:23Z</time>
      </trkpt>
      <trkpt lat="46.13733" lon="2.4642">
        <ele>468</ele>
        <time>2015-04-10T13:43:26Z</time>
      </trkpt>
      <trkpt lat="46.13731" lon="2.46417">
        <ele>468</ele>
        <time>2015-04-10T13:43:28Z</time>
      </trkpt>
      <trkpt lat="46.13728" lon="2.46413">
        <ele>468</ele>
        <time>2015-04-10T13:43:31Z</time>
      </trkpt>
      <trkpt lat="46.13725" lon="2.46409">
        <ele>468</ele>
        <time>2015-04-10T13:43:34Z</time>
      </trkpt>
      <trkpt lat="46.13723" lon="2.46406">
        <ele>468</ele>
        <time>2015-04-10T13:43:36Z</time>
      </trkpt>
      <trkpt lat="46.13721" lon="2.46403">
        <ele>468</ele>
        <time>2015-04-10T13:43:38Z</time>
      </trkpt>
      <trkpt lat="46.13718" lon="2.46399">
        <ele>468</ele>
        <time>2015-04-10T13:43:41Z</time>
      </trkpt>
      <trkpt lat="46.13715" lon="2.46394">
        <ele>469</ele>
        <time>2015-04-10T13:43:44Z</time>
      </trkpt>
      <trkpt lat="46.13713" lon="2.46392">
        <ele>469</ele>
        <time>2015-04-10T13:43:46Z</time>
      </trkpt>
      <trkpt lat="46.13711" lon="2.46388">
        <ele>469</ele>
        <time>2015-04-10T13:43:48Z</time>
      </trkpt>
      <trkpt lat="46.13709" lon="2.46385">
        <ele>469</ele>
        <time>2015-04-10T13:43:50Z</time>
      </trkpt>
      <trkpt lat="46.13707" lon="2.46383">
        <ele>469</ele>
        <time>2015-04-10T13:43:52Z</time>
      </trkpt>
      <trkpt lat="46.13705" lon="2.4638">
        <ele>469</ele>
        <time>2015-04-10T13:43:54Z</time>
      </trkpt>
      <trkpt lat="46.13703" lon="2.46377">
        <ele>469</ele>
        <time>2015-04-10T13:43:57Z</time>
      </trkpt>
      <trkpt lat="46.13701" lon="2.46375">
        <ele>469</ele>
        <time>2015-04-10T13:43:59Z</time>
      </trkpt>
      <trkpt lat="46.13699" lon="2.46371">
        <ele>469</ele>
        <time>2015-04-10T13:44:02Z</time>
      </trkpt>
      <trkpt lat="46.13697" lon="2.46368">
        <ele>470</ele>
        <time>2015-04-10T13:44:04Z</time>
      </trkpt>
      <trkpt lat="46.13695" lon="2.46364">
        <ele>470</ele>
        <time>2015-04-10T13:44:06Z</time>
      </trkpt>
      <trkpt lat="46.13692" lon="2.4636">
        <ele>470</ele>
        <time>2015-04-10T13:44:09Z</time>
      </trkpt>
      <trkpt lat="46.1369" lon="2.46357">
        <ele>470</ele>
        <time>2015-04-10T13:44:11Z</time>
      </trkpt>
      <trkpt lat="46.13688" lon="2.46354">
        <ele>470</ele>
        <time>2015-04-10T13:44:13Z</time>
      </trkpt>
      <trkpt lat="46.13687" lon="2.46352">
        <ele>470</ele>
        <time>2015-04-10T13:44:15Z</time>
      </trkpt>
      <trkpt lat="46.13685" lon="2.46349">
        <ele>471</ele>
        <time>2015-04-10T13:44:17Z</time>
      </trkpt>
      <trkpt lat="46.13682" lon="2.46345">
        <ele>471</ele>
        <time>2015-04-10T13:44:20Z</time>
      </trkpt>
      <trkpt lat="46.1368" lon="2.46344">
        <ele>471</ele>
        <time>2015-04-10T13:44:22Z</time>
      </trkpt>
      <trkpt lat="46.13678" lon="2.46342">
        <ele>471</ele>
        <time>2015-04-10T13:44:24Z</time>
      </trkpt>
      <trkpt lat="46.13676" lon="2.4634">
        <ele>471</ele>
        <time>2015-04-10T13:44:26Z</time>
      </trkpt>
      <trkpt lat="46.13675" lon="2.46337">
        <ele>472</ele>
        <time>2015-04-10T13:44:28Z</time>
      </trkpt>
      <trkpt lat="46.13673" lon="2.46335">
        <ele>472</ele>
        <time>2015-04-10T13:44:30Z</time>
      </trkpt>
      <trkpt lat="46.13671" lon="2.46332">
        <ele>472</ele>
        <time>2015-04-10T13:44:32Z</time>
      </trkpt>
      <trkpt lat="46.13668" lon="2.46329">
        <ele>472</ele>
        <time>2015-04-10T13:44:35Z</time>
      </trkpt>
      <trkpt lat="46.13666" lon="2.46326">
        <ele>472</ele>
        <time>2015-04-10T13:44:37Z</time>
      </trkpt>
      <trkpt lat="46.13664" lon="2.46323">
        <ele>472</ele>
        <time>2015-04-10T13:44:39Z</time>
      </trkpt>
      <trkpt lat="46.13661" lon="2.46319">
        <ele>472</ele>
        <time>2015-04-10T13:44:42Z</time>
      </trkpt>
      <trkpt lat="46.13658" lon="2.46317">
        <ele>472</ele>
        <time>2015-04-10T13:44:44Z</time>
      </trkpt>
      <trkpt lat="46.13656" lon="2.46314">
        <ele>472</ele>
        <time>2015-04-10T13:44:46Z</time>
      </trkpt>
      <trkpt lat="46.13654" lon="2.46311">
        <ele>472</ele>
        <time>2015-04-10T13:44:48Z</time>
      </trkpt>
      <trkpt lat="46.13651" lon="2.46308">
        <ele>472</ele>
        <time>2015-04-10T13:44:50Z</time>
      </trkpt>
      <trkpt lat="46.13649" lon="2.46305">
        <ele>472</ele>
        <time>2015-04-10T13:44:52Z</time>
      </trkpt>
      <trkpt lat="46.13646" lon="2.46302">
        <ele>472</ele>
        <time>2015-04-10T13:44:54Z</time>
      </trkpt>
      <trkpt lat="46.13643" lon="2.46298">
        <ele>473</ele>
        <time>2015-04-10T13:44:57Z</time>
      </trkpt>
      <trkpt lat="46.13641" lon="2.46295">
        <ele>473</ele>
        <time>2015-04-10T13:44:59Z</time>
      </trkpt>
      <trkpt lat="46.13639" lon="2.46292">
        <ele>473</ele>
        <time>2015-04-10T13:45:01Z</time>
      </trkpt>
      <trkpt lat="46.13637" lon="2.4629">
        <ele>473</ele>
        <time>2015-04-10T13:45:03Z</time>
      </trkpt>
      <trkpt lat="46.13636" lon="2.46287">
        <ele>473</ele>
        <time>2015-04-10T13:45:05Z</time>
      </trkpt>
      <trkpt lat="46.13634" lon="2.46285">
        <ele>474</ele>
        <time>2015-04-10T13:45:07Z</time>
      </trkpt>
      <trkpt lat="46.13632" lon="2.46283">
        <ele>474</ele>
        <time>2015-04-10T13:45:09Z</time>
      </trkpt>
      <trkpt lat="46.1363" lon="2.46281">
        <ele>474</ele>
        <time>2015-04-10T13:45:11Z</time>
      </trkpt>
      <trkpt lat="46.13629" lon="2.4628">
        <ele>474</ele>
        <time>2015-04-10T13:45:13Z</time>
      </trkpt>
      <trkpt lat="46.13628" lon="2.46278">
        <ele>474</ele>
        <time>2015-04-10T13:45:17Z</time>
      </trkpt>
      <trkpt lat="46.13625" lon="2.46277">
        <ele>474</ele>
        <time>2015-04-10T13:45:19Z</time>
      </trkpt>
      <trkpt lat="46.13623" lon="2.46275">
        <ele>474</ele>
        <time>2015-04-10T13:45:21Z</time>
      </trkpt>
      <trkpt lat="46.13621" lon="2.46274">
        <ele>474</ele>
        <time>2015-04-10T13:45:23Z</time>
      </trkpt>
      <trkpt lat="46.13618" lon="2.46274">
        <ele>475</ele>
        <time>2015-04-10T13:45:25Z</time>
      </trkpt>
      <trkpt lat="46.13616" lon="2.46273">
        <ele>475</ele>
        <time>2015-04-10T13:45:27Z</time>
      </trkpt>
      <trkpt lat="46.13613" lon="2.46271">
        <ele>475</ele>
        <time>2015-04-10T13:45:29Z</time>
      </trkpt>
      <trkpt lat="46.1361" lon="2.4627">
        <ele>475</ele>
        <time>2015-04-10T13:45:31Z</time>
      </trkpt>
      <trkpt lat="46.13608" lon="2.46268">
        <ele>475</ele>
        <time>2015-04-10T13:45:33Z</time>
      </trkpt>
      <trkpt lat="46.13604" lon="2.46267">
        <ele>475</ele>
        <time>2015-04-10T13:45:35Z</time>
      </trkpt>
      <trkpt lat="46.13602" lon="2.46265">
        <ele>475</ele>
        <time>2015-04-10T13:45:37Z</time>
      </trkpt>
      <trkpt lat="46.13599" lon="2.46264">
        <ele>475</ele>
        <time>2015-04-10T13:45:39Z</time>
      </trkpt>
      <trkpt lat="46.13597" lon="2.46263">
        <ele>475</ele>
        <time>2015-04-10T13:45:41Z</time>
      </trkpt>
      <trkpt lat="46.13594" lon="2.46262">
        <ele>475</ele>
        <time>2015-04-10T13:45:43Z</time>
      </trkpt>
      <trkpt lat="46.13591" lon="2.46261">
        <ele>475</ele>
        <time>2015-04-10T13:45:46Z</time>
      </trkpt>
      <trkpt lat="46.13589" lon="2.4626">
        <ele>475</ele>
        <time>2015-04-10T13:45:48Z</time>
      </trkpt>
      <trkpt lat="46.13586" lon="2.46258">
        <ele>475</ele>
        <time>2015-04-10T13:45:50Z</time>
      </trkpt>
      <trkpt lat="46.13584" lon="2.46257">
        <ele>475</ele>
        <time>2015-04-10T13:45:52Z</time>
      </trkpt>
      <trkpt lat="46.13581" lon="2.46256">
        <ele>475</ele>
        <time>2015-04-10T13:45:54Z</time>
      </trkpt>
      <trkpt lat="46.13578" lon="2.46255">
        <ele>475</ele>
        <time>2015-04-10T13:45:56Z</time>
      </trkpt>
      <trkpt lat="46.13576" lon="2.46253">
        <ele>475</ele>
        <time>2015-04-10T13:45:58Z</time>
      </trkpt>
      <trkpt lat="46.13573" lon="2.46252">
        <ele>476</ele>
        <time>2015-04-10T13:46:00Z</time>
      </trkpt>
      <trkpt lat="46.1357" lon="2.46251">
        <ele>476</ele>
        <time>2015-04-10T13:46:02Z</time>
      </trkpt>
      <trkpt lat="46.13568" lon="2.4625">
        <ele>476</ele>
        <time>2015-04-10T13:46:04Z</time>
      </trkpt>
      <trkpt lat="46.13565" lon="2.46249">
        <ele>476</ele>
        <time>2015-04-10T13:46:06Z</time>
      </trkpt>
      <trkpt lat="46.13562" lon="2.46247">
        <ele>476</ele>
        <time>2015-04-10T13:46:08Z</time>
      </trkpt>
      <trkpt lat="46.13559" lon="2.46246">
        <ele>476</ele>
        <time>2015-04-10T13:46:10Z</time>
      </trkpt>
      <trkpt lat="46.13557" lon="2.46245">
        <ele>476</ele>
        <time>2015-04-10T13:46:12Z</time>
      </trkpt>
      <trkpt lat="46.13554" lon="2.46244">
        <ele>476</ele>
        <time>2015-04-10T13:46:14Z</time>
      </trkpt>
      <trkpt lat="46.13551" lon="2.46243">
        <ele>476</ele>
        <time>2015-04-10T13:46:16Z</time>
      </trkpt>
      <trkpt lat="46.13548" lon="2.46241">
        <ele>476</ele>
        <time>2015-04-10T13:46:18Z</time>
      </trkpt>
      <trkpt lat="46.13545" lon="2.46241">
        <ele>477</ele>
        <time>2015-04-10T13:46:20Z</time>
      </trkpt>
      <trkpt lat="46.13543" lon="2.4624">
        <ele>477</ele>
        <time>2015-04-10T13:46:22Z</time>
      </trkpt>
      <trkpt lat="46.13539" lon="2.46238">
        <ele>477</ele>
        <time>2015-04-10T13:46:24Z</time>
      </trkpt>
      <trkpt lat="46.13536" lon="2.46237">
        <ele>477</ele>
        <time>2015-04-10T13:46:26Z</time>
      </trkpt>
      <trkpt lat="46.13533" lon="2.46236">
        <ele>477</ele>
        <time>2015-04-10T13:46:28Z</time>
      </trkpt>
      <trkpt lat="46.13531" lon="2.46235">
        <ele>477</ele>
        <time>2015-04-10T13:46:30Z</time>
      </trkpt>
      <trkpt lat="46.13528" lon="2.46234">
        <ele>477</ele>
        <time>2015-04-10T13:46:32Z</time>
      </trkpt>
      <trkpt lat="46.13525" lon="2.46233">
        <ele>477</ele>
        <time>2015-04-10T13:46:34Z</time>
      </trkpt>
      <trkpt lat="46.13522" lon="2.46233">
        <ele>477</ele>
        <time>2015-04-10T13:46:37Z</time>
      </trkpt>
      <trkpt lat="46.13518" lon="2.46231">
        <ele>477</ele>
        <time>2015-04-10T13:46:39Z</time>
      </trkpt>
      <trkpt lat="46.13516" lon="2.46231">
        <ele>477</ele>
        <time>2015-04-10T13:46:41Z</time>
      </trkpt>
      <trkpt lat="46.13513" lon="2.4623">
        <ele>477</ele>
        <time>2015-04-10T13:46:43Z</time>
      </trkpt>
      <trkpt lat="46.1351" lon="2.46229">
        <ele>477</ele>
        <time>2015-04-10T13:46:45Z</time>
      </trkpt>
      <trkpt lat="46.13507" lon="2.46228">
        <ele>478</ele>
        <time>2015-04-10T13:46:47Z</time>
      </trkpt>
      <trkpt lat="46.13505" lon="2.46227">
        <ele>478</ele>
        <time>2015-04-10T13:46:49Z</time>
      </trkpt>
      <trkpt lat="46.13502" lon="2.46226">
        <ele>478</ele>
        <time>2015-04-10T13:46:51Z</time>
      </trkpt>
      <trkpt lat="46.13499" lon="2.46225">
        <ele>478</ele>
        <time>2015-04-10T13:46:53Z</time>
      </trkpt>
      <trkpt lat="46.13497" lon="2.46224">
        <ele>478</ele>
        <time>2015-04-10T13:46:55Z</time>
      </trkpt>
      <trkpt lat="46.13494" lon="2.46223">
        <ele>478</ele>
        <time>2015-04-10T13:46:57Z</time>
      </trkpt>
      <trkpt lat="46.13491" lon="2.46222">
        <ele>478</ele>
        <time>2015-04-10T13:46:59Z</time>
      </trkpt>
      <trkpt lat="46.13488" lon="2.46221">
        <ele>478</ele>
        <time>2015-04-10T13:47:01Z</time>
      </trkpt>
      <trkpt lat="46.13486" lon="2.46221">
        <ele>478</ele>
        <time>2015-04-10T13:47:03Z</time>
      </trkpt>
      <trkpt lat="46.13483" lon="2.4622">
        <ele>478</ele>
        <time>2015-04-10T13:47:05Z</time>
      </trkpt>
      <trkpt lat="46.13481" lon="2.46219">
        <ele>478</ele>
        <time>2015-04-10T13:47:07Z</time>
      </trkpt>
      <trkpt lat="46.13479" lon="2.46218">
        <ele>478</ele>
        <time>2015-04-10T13:47:09Z</time>
      </trkpt>
      <trkpt lat="46.13477" lon="2.46217">
        <ele>478</ele>
        <time>2015-04-10T13:47:11Z</time>
      </trkpt>
      <trkpt lat="46.13474" lon="2.46217">
        <ele>478</ele>
        <time>2015-04-10T13:47:13Z</time>
      </trkpt>
      <trkpt lat="46.13472" lon="2.46216">
        <ele>478</ele>
        <time>2015-04-10T13:47:15Z</time>
      </trkpt>
      <trkpt lat="46.13469" lon="2.46215">
        <ele>478</ele>
        <time>2015-04-10T13:47:17Z</time>
      </trkpt>
      <trkpt lat="46.13467" lon="2.46214">
        <ele>478</ele>
        <time>2015-04-10T13:47:19Z</time>
      </trkpt>
      <trkpt lat="46.13464" lon="2.46213">
        <ele>478</ele>
        <time>2015-04-10T13:47:21Z</time>
      </trkpt>
      <trkpt lat="46.13462" lon="2.46212">
        <ele>478</ele>
        <time>2015-04-10T13:47:23Z</time>
      </trkpt>
      <trkpt lat="46.13459" lon="2.46211">
        <ele>478</ele>
        <time>2015-04-10T13:47:25Z</time>
      </trkpt>
      <trkpt lat="46.13457" lon="2.46209">
        <ele>478</ele>
        <time>2015-04-10T13:47:28Z</time>
      </trkpt>
      <trkpt lat="46.13456" lon="2.46205">
        <ele>478</ele>
        <time>2015-04-10T13:47:30Z</time>
      </trkpt>
      <trkpt lat="46.13455" lon="2.46202">
        <ele>478</ele>
        <time>2015-04-10T13:47:32Z</time>
      </trkpt>
      <trkpt lat="46.13455" lon="2.46198">
        <ele>478</ele>
        <time>2015-04-10T13:47:34Z</time>
      </trkpt>
      <trkpt lat="46.13454" lon="2.46194">
        <ele>478</ele>
        <time>2015-04-10T13:47:36Z</time>
      </trkpt>
      <trkpt lat="46.13455" lon="2.4619">
        <ele>478</ele>
        <time>2015-04-10T13:47:38Z</time>
      </trkpt>
      <trkpt lat="46.13454" lon="2.46186">
        <ele>478</ele>
        <time>2015-04-10T13:47:40Z</time>
      </trkpt>
      <trkpt lat="46.13454" lon="2.46182">
        <ele>479</ele>
        <time>2015-04-10T13:47:42Z</time>
      </trkpt>
      <trkpt lat="46.13454" lon="2.46178">
        <ele>479</ele>
        <time>2015-04-10T13:47:44Z</time>
      </trkpt>
      <trkpt lat="46.13454" lon="2.46174">
        <ele>479</ele>
        <time>2015-04-10T13:47:46Z</time>
      </trkpt>
      <trkpt lat="46.13454" lon="2.4617">
        <ele>479</ele>
        <time>2015-04-10T13:47:48Z</time>
      </trkpt>
      <trkpt lat="46.13454" lon="2.46166">
        <ele>479</ele>
        <time>2015-04-10T13:47:50Z</time>
      </trkpt>
      <trkpt lat="46.13453" lon="2.46163">
        <ele>479</ele>
        <time>2015-04-10T13:47:52Z</time>
      </trkpt>
      <trkpt lat="46.13453" lon="2.46159">
        <ele>479</ele>
        <time>2015-04-10T13:47:54Z</time>
      </trkpt>
      <trkpt lat="46.13452" lon="2.46156">
        <ele>479</ele>
        <time>2015-04-10T13:47:56Z</time>
      </trkpt>
      <trkpt lat="46.13449" lon="2.46152">
        <ele>479</ele>
        <time>2015-04-10T13:47:59Z</time>
      </trkpt>
      <trkpt lat="46.13446" lon="2.46149">
        <ele>479</ele>
        <time>2015-04-10T13:48:02Z</time>
      </trkpt>
      <trkpt lat="46.13444" lon="2.46148">
        <ele>479</ele>
        <time>2015-04-10T13:48:04Z</time>
      </trkpt>
      <trkpt lat="46.13441" lon="2.46148">
        <ele>479</ele>
        <time>2015-04-10T13:48:06Z</time>
      </trkpt>
      <trkpt lat="46.13439" lon="2.46149">
        <ele>479</ele>
        <time>2015-04-10T13:48:08Z</time>
      </trkpt>
      <trkpt lat="46.13436" lon="2.4615">
        <ele>479</ele>
        <time>2015-04-10T13:48:10Z</time>
      </trkpt>
      <trkpt lat="46.13434" lon="2.46151">
        <ele>479</ele>
        <time>2015-04-10T13:48:12Z</time>
      </trkpt>
      <trkpt lat="46.13432" lon="2.46153">
        <ele>480</ele>
        <time>2015-04-10T13:48:14Z</time>
      </trkpt>
      <trkpt lat="46.13429" lon="2.46153">
        <ele>480</ele>
        <time>2015-04-10T13:48:16Z</time>
      </trkpt>
      <trkpt lat="46.13427" lon="2.46154">
        <ele>480</ele>
        <time>2015-04-10T13:48:18Z</time>
      </trkpt>
      <trkpt lat="46.13424" lon="2.46155">
        <ele>480</ele>
        <time>2015-04-10T13:48:20Z</time>
      </trkpt>
      <trkpt lat="46.13421" lon="2.46156">
        <ele>480</ele>
        <time>2015-04-10T13:48:22Z</time>
      </trkpt>
      <trkpt lat="46.13419" lon="2.46158">
        <ele>480</ele>
        <time>2015-04-10T13:48:24Z</time>
      </trkpt>
      <trkpt lat="46.13416" lon="2.46159">
        <ele>480</ele>
        <time>2015-04-10T13:48:26Z</time>
      </trkpt>
      <trkpt lat="46.13413" lon="2.4616">
        <ele>480</ele>
        <time>2015-04-10T13:48:28Z</time>
      </trkpt>
      <trkpt lat="46.1341" lon="2.46162">
        <ele>480</ele>
        <time>2015-04-10T13:48:30Z</time>
      </trkpt>
      <trkpt lat="46.13407" lon="2.46162">
        <ele>480</ele>
        <time>2015-04-10T13:48:32Z</time>
      </trkpt>
      <trkpt lat="46.13404" lon="2.46163">
        <ele>480</ele>
        <time>2015-04-10T13:48:34Z</time>
      </trkpt>
      <trkpt lat="46.13401" lon="2.46164">
        <ele>480</ele>
        <time>2015-04-10T13:48:36Z</time>
      </trkpt>
      <trkpt lat="46.13399" lon="2.46164">
        <ele>480</ele>
        <time>2015-04-10T13:48:38Z</time>
      </trkpt>
      <trkpt lat="46.13396" lon="2.46165">
        <ele>480</ele>
        <time>2015-04-10T13:48:40Z</time>
      </trkpt>
      <trkpt lat="46.13393" lon="2.46166">
        <ele>480</ele>
        <time>2015-04-10T13:48:42Z</time>
      </trkpt>
      <trkpt lat="46.1339" lon="2.46166">
        <ele>480</ele>
        <time>2015-04-10T13:48:44Z</time>
      </trkpt>
      <trkpt lat="46.13387" lon="2.46167">
        <ele>480</ele>
        <time>2015-04-10T13:48:46Z</time>
      </trkpt>
      <trkpt lat="46.13384" lon="2.46167">
        <ele>480</ele>
        <time>2015-04-10T13:48:48Z</time>
      </trkpt>
      <trkpt lat="46.13381" lon="2.46168">
        <ele>480</ele>
        <time>2015-04-10T13:48:50Z</time>
      </trkpt>
      <trkpt lat="46.13378" lon="2.46169">
        <ele>480</ele>
        <time>2015-04-10T13:48:52Z</time>
      </trkpt>
      <trkpt lat="46.13375" lon="2.4617">
        <ele>480</ele>
        <time>2015-04-10T13:48:54Z</time>
      </trkpt>
      <trkpt lat="46.13372" lon="2.46171">
        <ele>480</ele>
        <time>2015-04-10T13:48:56Z</time>
      </trkpt>
      <trkpt lat="46.13369" lon="2.46172">
        <ele>480</ele>
        <time>2015-04-10T13:48:58Z</time>
      </trkpt>
      <trkpt lat="46.13366" lon="2.46174">
        <ele>480</ele>
        <time>2015-04-10T13:49:00Z</time>
      </trkpt>
      <trkpt lat="46.13363" lon="2.46175">
        <ele>480</ele>
        <time>2015-04-10T13:49:02Z</time>
      </trkpt>
      <trkpt lat="46.1336" lon="2.46176">
        <ele>480</ele>
        <time>2015-04-10T13:49:04Z</time>
      </trkpt>
      <trkpt lat="46.13357" lon="2.46176">
        <ele>480</ele>
        <time>2015-04-10T13:49:06Z</time>
      </trkpt>
      <trkpt lat="46.13354" lon="2.46177">
        <ele>480</ele>
        <time>2015-04-10T13:49:08Z</time>
      </trkpt>
      <trkpt lat="46.13351" lon="2.46178">
        <ele>480</ele>
        <time>2015-04-10T13:49:10Z</time>
      </trkpt>
      <trkpt lat="46.13348" lon="2.46179">
        <ele>480</ele>
        <time>2015-04-10T13:49:12Z</time>
      </trkpt>
      <trkpt lat="46.13345" lon="2.4618">
        <ele>480</ele>
        <time>2015-04-10T13:49:14Z</time>
      </trkpt>
      <trkpt lat="46.13342" lon="2.46181">
        <ele>480</ele>
        <time>2015-04-10T13:49:16Z</time>
      </trkpt>
      <trkpt lat="46.13339" lon="2.46182">
        <ele>480</ele>
        <time>2015-04-10T13:49:18Z</time>
      </trkpt>
      <trkpt lat="46.13336" lon="2.46183">
        <ele>480</ele>
        <time>2015-04-10T13:49:20Z</time>
      </trkpt>
      <trkpt lat="46.13333" lon="2.46184">
        <ele>480</ele>
        <time>2015-04-10T13:49:22Z</time>
      </trkpt>
      <trkpt lat="46.1333" lon="2.46185">
        <ele>480</ele>
        <time>2015-04-10T13:49:24Z</time>
      </trkpt>
      <trkpt lat="46.13327" lon="2.46186">
        <ele>479</ele>
        <time>2015-04-10T13:49:26Z</time>
      </trkpt>
      <trkpt lat="46.13324" lon="2.46187">
        <ele>479</ele>
        <time>2015-04-10T13:49:28Z</time>
      </trkpt>
      <trkpt lat="46.13321" lon="2.46187">
        <ele>479</ele>
        <time>2015-04-10T13:49:30Z</time>
      </trkpt>
      <trkpt lat="46.13318" lon="2.46188">
        <ele>479</ele>
        <time>2015-04-10T13:49:32Z</time>
      </trkpt>
      <trkpt lat="46.13316" lon="2.46189">
        <ele>478</ele>
        <time>2015-04-10T13:49:34Z</time>
      </trkpt>
      <trkpt lat="46.13313" lon="2.4619">
        <ele>478</ele>
        <time>2015-04-10T13:49:36Z</time>
      </trkpt>
      <trkpt lat="46.13309" lon="2.46191">
        <ele>478</ele>
        <time>2015-04-10T13:49:38Z</time>
      </trkpt>
      <trkpt lat="46.13306" lon="2.46192">
        <ele>478</ele>
        <time>2015-04-10T13:49:40Z</time>
      </trkpt>
      <trkpt lat="46.13303" lon="2.46192">
        <ele>478</ele>
        <time>2015-04-10T13:49:42Z</time>
      </trkpt>
      <trkpt lat="46.133" lon="2.46193">
        <ele>478</ele>
        <time>2015-04-10T13:49:44Z</time>
      </trkpt>
      <trkpt lat="46.13297" lon="2.46193">
        <ele>478</ele>
        <time>2015-04-10T13:49:46Z</time>
      </trkpt>
      <trkpt lat="46.13294" lon="2.46194">
        <ele>478</ele>
        <time>2015-04-10T13:49:48Z</time>
      </trkpt>
      <trkpt lat="46.13291" lon="2.46195">
        <ele>478</ele>
        <time>2015-04-10T13:49:50Z</time>
      </trkpt>
      <trkpt lat="46.13287" lon="2.46195">
        <ele>478</ele>
        <time>2015-04-10T13:49:52Z</time>
      </trkpt>
      <trkpt lat="46.13285" lon="2.46195">
        <ele>478</ele>
        <time>2015-04-10T13:49:54Z</time>
      </trkpt>
      <trkpt lat="46.13282" lon="2.46196">
        <ele>478</ele>
        <time>2015-04-10T13:49:56Z</time>
      </trkpt>
      <trkpt lat="46.13279" lon="2.46196">
        <ele>478</ele>
        <time>2015-04-10T13:49:58Z</time>
      </trkpt>
      <trkpt lat="46.13276" lon="2.46196">
        <ele>478</ele>
        <time>2015-04-10T13:50:00Z</time>
      </trkpt>
      <trkpt lat="46.13273" lon="2.46197">
        <ele>478</ele>
        <time>2015-04-10T13:50:02Z</time>
      </trkpt>
      <trkpt lat="46.1327" lon="2.46197">
        <ele>478</ele>
        <time>2015-04-10T13:50:04Z</time>
      </trkpt>
      <trkpt lat="46.13267" lon="2.46197">
        <ele>478</ele>
        <time>2015-04-10T13:50:06Z</time>
      </trkpt>
      <trkpt lat="46.13264" lon="2.46196">
        <ele>478</ele>
        <time>2015-04-10T13:50:08Z</time>
      </trkpt>
      <trkpt lat="46.13261" lon="2.46196">
        <ele>478</ele>
        <time>2015-04-10T13:50:10Z</time>
      </trkpt>
      <trkpt lat="46.13258" lon="2.46195">
        <ele>478</ele>
        <time>2015-04-10T13:50:12Z</time>
      </trkpt>
      <trkpt lat="46.13255" lon="2.46195">
        <ele>478</ele>
        <time>2015-04-10T13:50:14Z</time>
      </trkpt>
      <trkpt lat="46.13253" lon="2.46193">
        <ele>478</ele>
        <time>2015-04-10T13:50:16Z</time>
      </trkpt>
      <trkpt lat="46.1325" lon="2.46192">
        <ele>478</ele>
        <time>2015-04-10T13:50:18Z</time>
      </trkpt>
      <trkpt lat="46.13247" lon="2.4619">
        <ele>478</ele>
        <time>2015-04-10T13:50:20Z</time>
      </trkpt>
      <trkpt lat="46.13244" lon="2.46189">
        <ele>478</ele>
        <time>2015-04-10T13:50:22Z</time>
      </trkpt>
      <trkpt lat="46.13242" lon="2.46187">
        <ele>478</ele>
        <time>2015-04-10T13:50:24Z</time>
      </trkpt>
      <trkpt lat="46.13239" lon="2.46185">
        <ele>478</ele>
        <time>2015-04-10T13:50:26Z</time>
      </trkpt>
      <trkpt lat="46.13237" lon="2.46184">
        <ele>478</ele>
        <time>2015-04-10T13:50:28Z</time>
      </trkpt>
      <trkpt lat="46.13234" lon="2.46182">
        <ele>479</ele>
        <time>2015-04-10T13:50:30Z</time>
      </trkpt>
      <trkpt lat="46.13231" lon="2.4618">
        <ele>479</ele>
        <time>2015-04-10T13:50:32Z</time>
      </trkpt>
      <trkpt lat="46.13229" lon="2.46178">
        <ele>479</ele>
        <time>2015-04-10T13:50:34Z</time>
      </trkpt>
      <trkpt lat="46.13226" lon="2.46178">
        <ele>479</ele>
        <time>2015-04-10T13:50:36Z</time>
      </trkpt>
      <trkpt lat="46.13223" lon="2.46179">
        <ele>479</ele>
        <time>2015-04-10T13:50:38Z</time>
      </trkpt>
      <trkpt lat="46.1322" lon="2.46181">
        <ele>479</ele>
        <time>2015-04-10T13:50:40Z</time>
      </trkpt>
      <trkpt lat="46.13218" lon="2.46184">
        <ele>480</ele>
        <time>2015-04-10T13:50:42Z</time>
      </trkpt>
      <trkpt lat="46.13216" lon="2.46188">
        <ele>480</ele>
        <time>2015-04-10T13:50:44Z</time>
      </trkpt>
      <trkpt lat="46.13214" lon="2.46192">
        <ele>480</ele>
        <time>2015-04-10T13:50:46Z</time>
      </trkpt>
      <trkpt lat="46.13213" lon="2.46196">
        <ele>481</ele>
        <time>2015-04-10T13:50:48Z</time>
      </trkpt>
      <trkpt lat="46.13212" lon="2.46199">
        <ele>481</ele>
        <time>2015-04-10T13:50:50Z</time>
      </trkpt>
      <trkpt lat="46.1321" lon="2.46203">
        <ele>481</ele>
        <time>2015-04-10T13:50:52Z</time>
      </trkpt>
      <trkpt lat="46.13208" lon="2.46206">
        <ele>482</ele>
        <time>2015-04-10T13:50:54Z</time>
      </trkpt>
      <trkpt lat="46.13206" lon="2.46209">
        <ele>482</ele>
        <time>2015-04-10T13:50:56Z</time>
      </trkpt>
      <trkpt lat="46.13204" lon="2.46211">
        <ele>483</ele>
        <time>2015-04-10T13:50:58Z</time>
      </trkpt>
      <trkpt lat="46.13202" lon="2.46213">
        <ele>483</ele>
        <time>2015-04-10T13:51:00Z</time>
      </trkpt>
      <trkpt lat="46.13199" lon="2.46213">
        <ele>483</ele>
        <time>2015-04-10T13:51:02Z</time>
      </trkpt>
      <trkpt lat="46.13197" lon="2.46215">
        <ele>483</ele>
        <time>2015-04-10T13:51:04Z</time>
      </trkpt>
      <trkpt lat="46.13195" lon="2.46215">
        <ele>484</ele>
        <time>2015-04-10T13:51:06Z</time>
      </trkpt>
      <trkpt lat="46.13192" lon="2.46216">
        <ele>484</ele>
        <time>2015-04-10T13:51:08Z</time>
      </trkpt>
      <trkpt lat="46.1319" lon="2.46217">
        <ele>484</ele>
        <time>2015-04-10T13:51:10Z</time>
      </trkpt>
      <trkpt lat="46.13188" lon="2.46219">
        <ele>484</ele>
        <time>2015-04-10T13:51:12Z</time>
      </trkpt>
      <trkpt lat="46.13186" lon="2.4622">
        <ele>484</ele>
        <time>2015-04-10T13:51:14Z</time>
      </trkpt>
      <trkpt lat="46.13183" lon="2.46221">
        <ele>484</ele>
        <time>2015-04-10T13:51:16Z</time>
      </trkpt>
      <trkpt lat="46.13181" lon="2.46221">
        <ele>484</ele>
        <time>2015-04-10T13:51:18Z</time>
      </trkpt>
      <trkpt lat="46.13178" lon="2.46222">
        <ele>484</ele>
        <time>2015-04-10T13:51:20Z</time>
      </trkpt>
      <trkpt lat="46.13175" lon="2.46224">
        <ele>484</ele>
        <time>2015-04-10T13:51:23Z</time>
      </trkpt>
      <trkpt lat="46.13173" lon="2.46226">
        <ele>484</ele>
        <time>2015-04-10T13:51:25Z</time>
      </trkpt>
      <trkpt lat="46.1317" lon="2.46228">
        <ele>484</ele>
        <time>2015-04-10T13:51:27Z</time>
      </trkpt>
      <trkpt lat="46.13168" lon="2.46229">
        <ele>484</ele>
        <time>2015-04-10T13:51:29Z</time>
      </trkpt>
      <trkpt lat="46.13166" lon="2.46231">
        <ele>484</ele>
        <time>2015-04-10T13:51:31Z</time>
      </trkpt>
      <trkpt lat="46.13164" lon="2.46234">
        <ele>484</ele>
        <time>2015-04-10T13:51:33Z</time>
      </trkpt>
      <trkpt lat="46.13163" lon="2.46236">
        <ele>484</ele>
        <time>2015-04-10T13:51:35Z</time>
      </trkpt>
      <trkpt lat="46.13161" lon="2.46238">
        <ele>484</ele>
        <time>2015-04-10T13:51:37Z</time>
      </trkpt>
      <trkpt lat="46.1316" lon="2.4624">
        <ele>484</ele>
        <time>2015-04-10T13:51:39Z</time>
      </trkpt>
      <trkpt lat="46.13158" lon="2.46243">
        <ele>484</ele>
        <time>2015-04-10T13:51:41Z</time>
      </trkpt>
      <trkpt lat="46.13156" lon="2.46247">
        <ele>484</ele>
        <time>2015-04-10T13:51:44Z</time>
      </trkpt>
      <trkpt lat="46.13155" lon="2.4625">
        <ele>484</ele>
        <time>2015-04-10T13:51:46Z</time>
      </trkpt>
      <trkpt lat="46.13153" lon="2.46253">
        <ele>484</ele>
        <time>2015-04-10T13:51:48Z</time>
      </trkpt>
      <trkpt lat="46.13152" lon="2.46256">
        <ele>484</ele>
        <time>2015-04-10T13:51:50Z</time>
      </trkpt>
      <trkpt lat="46.13151" lon="2.46259">
        <ele>484</ele>
        <time>2015-04-10T13:51:52Z</time>
      </trkpt>
      <trkpt lat="46.1315" lon="2.46262">
        <ele>485</ele>
        <time>2015-04-10T13:51:54Z</time>
      </trkpt>
      <trkpt lat="46.13148" lon="2.46267">
        <ele>485</ele>
        <time>2015-04-10T13:51:56Z</time>
      </trkpt>
      <trkpt lat="46.13146" lon="2.4627">
        <ele>486</ele>
        <time>2015-04-10T13:51:58Z</time>
      </trkpt>
      <trkpt lat="46.13144" lon="2.46275">
        <ele>487</ele>
        <time>2015-04-10T13:52:01Z</time>
      </trkpt>
      <trkpt lat="46.13142" lon="2.46278">
        <ele>487</ele>
        <time>2015-04-10T13:52:03Z</time>
      </trkpt>
      <trkpt lat="46.1314" lon="2.4628">
        <ele>487</ele>
        <time>2015-04-10T13:52:05Z</time>
      </trkpt>
      <trkpt lat="46.13137" lon="2.46285">
        <ele>487</ele>
        <time>2015-04-10T13:52:08Z</time>
      </trkpt>
      <trkpt lat="46.13135" lon="2.46288">
        <ele>487</ele>
        <time>2015-04-10T13:52:10Z</time>
      </trkpt>
      <trkpt lat="46.13133" lon="2.46292">
        <ele>487</ele>
        <time>2015-04-10T13:52:13Z</time>
      </trkpt>
      <trkpt lat="46.13131" lon="2.46294">
        <ele>487</ele>
        <time>2015-04-10T13:52:15Z</time>
      </trkpt>
      <trkpt lat="46.13129" lon="2.46297">
        <ele>487</ele>
        <time>2015-04-10T13:52:17Z</time>
      </trkpt>
      <trkpt lat="46.13128" lon="2.46299">
        <ele>487</ele>
        <time>2015-04-10T13:52:19Z</time>
      </trkpt>
      <trkpt lat="46.13126" lon="2.46301">
        <ele>487</ele>
        <time>2015-04-10T13:52:21Z</time>
      </trkpt>
      <trkpt lat="46.13123" lon="2.46304">
        <ele>487</ele>
        <time>2015-04-10T13:52:24Z</time>
      </trkpt>
      <trkpt lat="46.13121" lon="2.46307">
        <ele>487</ele>
        <time>2015-04-10T13:52:26Z</time>
      </trkpt>
      <trkpt lat="46.13119" lon="2.46309">
        <ele>487</ele>
        <time>2015-04-10T13:52:28Z</time>
      </trkpt>
      <trkpt lat="46.13116" lon="2.46312">
        <ele>487</ele>
        <time>2015-04-10T13:52:31Z</time>
      </trkpt>
      <trkpt lat="46.13114" lon="2.46314">
        <ele>487</ele>
        <time>2015-04-10T13:52:33Z</time>
      </trkpt>
      <trkpt lat="46.13112" lon="2.46316">
        <ele>487</ele>
        <time>2015-04-10T13:52:35Z</time>
      </trkpt>
      <trkpt lat="46.1311" lon="2.46318">
        <ele>487</ele>
        <time>2015-04-10T13:52:37Z</time>
      </trkpt>
      <trkpt lat="46.13108" lon="2.46319">
        <ele>487</ele>
        <time>2015-04-10T13:52:39Z</time>
      </trkpt>
      <trkpt lat="46.13107" lon="2.4632">
        <ele>487</ele>
        <time>2015-04-10T13:52:41Z</time>
      </trkpt>
      <trkpt lat="46.13104" lon="2.46321">
        <ele>487</ele>
        <time>2015-04-10T13:52:43Z</time>
      </trkpt>
      <trkpt lat="46.13102" lon="2.46322">
        <ele>487</ele>
        <time>2015-04-10T13:52:45Z</time>
      </trkpt>
      <trkpt lat="46.131" lon="2.46324">
        <ele>487</ele>
        <time>2015-04-10T13:52:47Z</time>
      </trkpt>
      <trkpt lat="46.13098" lon="2.46326">
        <ele>487</ele>
        <time>2015-04-10T13:52:49Z</time>
      </trkpt>
      <trkpt lat="46.13095" lon="2.46328">
        <ele>487</ele>
        <time>2015-04-10T13:52:51Z</time>
      </trkpt>
      <trkpt lat="46.13093" lon="2.46329">
        <ele>487</ele>
        <time>2015-04-10T13:52:53Z</time>
      </trkpt>
      <trkpt lat="46.1309" lon="2.4633">
        <ele>487</ele>
        <time>2015-04-10T13:52:55Z</time>
      </trkpt>
      <trkpt lat="46.13088" lon="2.46332">
        <ele>487</ele>
        <time>2015-04-10T13:52:57Z</time>
      </trkpt>
      <trkpt lat="46.13086" lon="2.46333">
        <ele>487</ele>
        <time>2015-04-10T13:52:59Z</time>
      </trkpt>
      <trkpt lat="46.13083" lon="2.46335">
        <ele>487</ele>
        <time>2015-04-10T13:53:02Z</time>
      </trkpt>
      <trkpt lat="46.1308" lon="2.46336">
        <ele>487</ele>
        <time>2015-04-10T13:53:04Z</time>
      </trkpt>
      <trkpt lat="46.13078" lon="2.46337">
        <ele>487</ele>
        <time>2015-04-10T13:53:06Z</time>
      </trkpt>
      <trkpt lat="46.13076" lon="2.46338">
        <ele>487</ele>
        <time>2015-04-10T13:53:08Z</time>
      </trkpt>
      <trkpt lat="46.13074" lon="2.46339">
        <ele>487</ele>
        <time>2015-04-10T13:53:10Z</time>
      </trkpt>
      <trkpt lat="46.13072" lon="2.4634">
        <ele>487</ele>
        <time>2015-04-10T13:53:12Z</time>
      </trkpt>
      <trkpt lat="46.1307" lon="2.46341">
        <ele>487</ele>
        <time>2015-04-10T13:53:14Z</time>
      </trkpt>
      <trkpt lat="46.13067" lon="2.46342">
        <ele>487</ele>
        <time>2015-04-10T13:53:16Z</time>
      </trkpt>
      <trkpt lat="46.13064" lon="2.46343">
        <ele>487</ele>
        <time>2015-04-10T13:53:18Z</time>
      </trkpt>
      <trkpt lat="46.13062" lon="2.46343">
        <ele>487</ele>
        <time>2015-04-10T13:53:20Z</time>
      </trkpt>
      <trkpt lat="46.13059" lon="2.46344">
        <ele>487</ele>
        <time>2015-04-10T13:53:22Z</time>
      </trkpt>
      <trkpt lat="46.13057" lon="2.46345">
        <ele>487</ele>
        <time>2015-04-10T13:53:24Z</time>
      </trkpt>
      <trkpt lat="46.13055" lon="2.46345">
        <ele>487</ele>
        <time>2015-04-10T13:53:26Z</time>
      </trkpt>
      <trkpt lat="46.13052" lon="2.46346">
        <ele>487</ele>
        <time>2015-04-10T13:53:28Z</time>
      </trkpt>
      <trkpt lat="46.1305" lon="2.46347">
        <ele>487</ele>
        <time>2015-04-10T13:53:30Z</time>
      </trkpt>
      <trkpt lat="46.13047" lon="2.46347">
        <ele>487</ele>
        <time>2015-04-10T13:53:32Z</time>
      </trkpt>
      <trkpt lat="46.13045" lon="2.46347">
        <ele>487</ele>
        <time>2015-04-10T13:53:34Z</time>
      </trkpt>
      <trkpt lat="46.13043" lon="2.46347">
        <ele>487</ele>
        <time>2015-04-10T13:53:36Z</time>
      </trkpt>
      <trkpt lat="46.1304" lon="2.46347">
        <ele>487</ele>
        <time>2015-04-10T13:53:38Z</time>
      </trkpt>
      <trkpt lat="46.13037" lon="2.46347">
        <ele>487</ele>
        <time>2015-04-10T13:53:40Z</time>
      </trkpt>
      <trkpt lat="46.13034" lon="2.46347">
        <ele>487</ele>
        <time>2015-04-10T13:53:42Z</time>
      </trkpt>
      <trkpt lat="46.13031" lon="2.46347">
        <ele>487</ele>
        <time>2015-04-10T13:53:45Z</time>
      </trkpt>
      <trkpt lat="46.13028" lon="2.46347">
        <ele>487</ele>
        <time>2015-04-10T13:53:47Z</time>
      </trkpt>
      <trkpt lat="46.13025" lon="2.46347">
        <ele>487</ele>
        <time>2015-04-10T13:53:49Z</time>
      </trkpt>
      <trkpt lat="46.13023" lon="2.46347">
        <ele>487</ele>
        <time>2015-04-10T13:53:51Z</time>
      </trkpt>
      <trkpt lat="46.1302" lon="2.46347">
        <ele>487</ele>
        <time>2015-04-10T13:53:53Z</time>
      </trkpt>
      <trkpt lat="46.13018" lon="2.46347">
        <ele>487</ele>
        <time>2015-04-10T13:53:55Z</time>
      </trkpt>
      <trkpt lat="46.13016" lon="2.46347">
        <ele>487</ele>
        <time>2015-04-10T13:53:57Z</time>
      </trkpt>
      <trkpt lat="46.13013" lon="2.46348">
        <ele>487</ele>
        <time>2015-04-10T13:53:59Z</time>
      </trkpt>
      <trkpt lat="46.1301" lon="2.46347">
        <ele>487</ele>
        <time>2015-04-10T13:54:01Z</time>
      </trkpt>
      <trkpt lat="46.13008" lon="2.46347">
        <ele>487</ele>
        <time>2015-04-10T13:54:03Z</time>
      </trkpt>
      <trkpt lat="46.13005" lon="2.46347">
        <ele>487</ele>
        <time>2015-04-10T13:54:05Z</time>
      </trkpt>
      <trkpt lat="46.13002" lon="2.46347">
        <ele>487</ele>
        <time>2015-04-10T13:54:07Z</time>
      </trkpt>
      <trkpt lat="46.13" lon="2.46347">
        <ele>487</ele>
        <time>2015-04-10T13:54:09Z</time>
      </trkpt>
      <trkpt lat="46.12997" lon="2.46346">
        <ele>487</ele>
        <time>2015-04-10T13:54:11Z</time>
      </trkpt>
      <trkpt lat="46.12994" lon="2.46347">
        <ele>487</ele>
        <time>2015-04-10T13:54:13Z</time>
      </trkpt>
      <trkpt lat="46.12992" lon="2.46346">
        <ele>487</ele>
        <time>2015-04-10T13:54:15Z</time>
      </trkpt>
      <trkpt lat="46.12989" lon="2.46346">
        <ele>487</ele>
        <time>2015-04-10T13:54:17Z</time>
      </trkpt>
      <trkpt lat="46.12986" lon="2.46346">
        <ele>487</ele>
        <time>2015-04-10T13:54:20Z</time>
      </trkpt>
      <trkpt lat="46.12983" lon="2.46346">
        <ele>487</ele>
        <time>2015-04-10T13:54:22Z</time>
      </trkpt>
      <trkpt lat="46.12981" lon="2.46345">
        <ele>487</ele>
        <time>2015-04-10T13:54:24Z</time>
      </trkpt>
      <trkpt lat="46.12978" lon="2.46345">
        <ele>487</ele>
        <time>2015-04-10T13:54:27Z</time>
      </trkpt>
      <trkpt lat="46.12975" lon="2.46345">
        <ele>487</ele>
        <time>2015-04-10T13:54:29Z</time>
      </trkpt>
      <trkpt lat="46.12973" lon="2.46345">
        <ele>487</ele>
        <time>2015-04-10T13:54:31Z</time>
      </trkpt>
      <trkpt lat="46.1297" lon="2.46345">
        <ele>487</ele>
        <time>2015-04-10T13:54:33Z</time>
      </trkpt>
      <trkpt lat="46.12968" lon="2.46345">
        <ele>487</ele>
        <time>2015-04-10T13:54:35Z</time>
      </trkpt>
      <trkpt lat="46.12965" lon="2.46345">
        <ele>487</ele>
        <time>2015-04-10T13:54:37Z</time>
      </trkpt>
      <trkpt lat="46.12962" lon="2.46345">
        <ele>487</ele>
        <time>2015-04-10T13:54:39Z</time>
      </trkpt>
      <trkpt lat="46.1296" lon="2.46345">
        <ele>488</ele>
        <time>2015-04-10T13:54:41Z</time>
      </trkpt>
      <trkpt lat="46.12957" lon="2.46345">
        <ele>488</ele>
        <time>2015-04-10T13:54:43Z</time>
      </trkpt>
      <trkpt lat="46.12955" lon="2.46345">
        <ele>488</ele>
        <time>2015-04-10T13:54:45Z</time>
      </trkpt>
      <trkpt lat="46.12952" lon="2.46344">
        <ele>488</ele>
        <time>2015-04-10T13:54:47Z</time>
      </trkpt>
      <trkpt lat="46.12949" lon="2.46344">
        <ele>488</ele>
        <time>2015-04-10T13:54:49Z</time>
      </trkpt>
      <trkpt lat="46.12946" lon="2.46343">
        <ele>488</ele>
        <time>2015-04-10T13:54:51Z</time>
      </trkpt>
      <trkpt lat="46.12944" lon="2.46343">
        <ele>488</ele>
        <time>2015-04-10T13:54:53Z</time>
      </trkpt>
      <trkpt lat="46.12942" lon="2.46343">
        <ele>488</ele>
        <time>2015-04-10T13:54:55Z</time>
      </trkpt>
      <trkpt lat="46.12939" lon="2.46342">
        <ele>488</ele>
        <time>2015-04-10T13:54:57Z</time>
      </trkpt>
      <trkpt lat="46.12937" lon="2.46342">
        <ele>488</ele>
        <time>2015-04-10T13:54:59Z</time>
      </trkpt>
      <trkpt lat="46.12934" lon="2.46342">
        <ele>488</ele>
        <time>2015-04-10T13:55:01Z</time>
      </trkpt>
      <trkpt lat="46.12932" lon="2.46342">
        <ele>488</ele>
        <time>2015-04-10T13:55:03Z</time>
      </trkpt>
      <trkpt lat="46.12929" lon="2.46342">
        <ele>488</ele>
        <time>2015-04-10T13:55:05Z</time>
      </trkpt>
      <trkpt lat="46.12926" lon="2.46341">
        <ele>488</ele>
        <time>2015-04-10T13:55:07Z</time>
      </trkpt>
      <trkpt lat="46.12924" lon="2.46341">
        <ele>488</ele>
        <time>2015-04-10T13:55:09Z</time>
      </trkpt>
      <trkpt lat="46.12923" lon="2.4634">
        <ele>488</ele>
        <time>2015-04-10T13:55:15Z</time>
      </trkpt>
      <trkpt lat="46.12921" lon="2.4634">
        <ele>488</ele>
        <time>2015-04-10T13:55:17Z</time>
      </trkpt>
      <trkpt lat="46.12919" lon="2.46341">
        <ele>488</ele>
        <time>2015-04-10T13:55:19Z</time>
      </trkpt>
      <trkpt lat="46.12917" lon="2.46341">
        <ele>488</ele>
        <time>2015-04-10T13:55:21Z</time>
      </trkpt>
      <trkpt lat="46.12913" lon="2.46342">
        <ele>488</ele>
        <time>2015-04-10T13:55:24Z</time>
      </trkpt>
      <trkpt lat="46.12911" lon="2.46343">
        <ele>488</ele>
        <time>2015-04-10T13:55:26Z</time>
      </trkpt>
      <trkpt lat="46.1291" lon="2.46343">
        <ele>490</ele>
        <time>2015-04-10T13:55:37Z</time>
      </trkpt>
      <trkpt lat="46.12908" lon="2.46344">
        <ele>490</ele>
        <time>2015-04-10T13:55:39Z</time>
      </trkpt>
      <trkpt lat="46.12906" lon="2.46345">
        <ele>490</ele>
        <time>2015-04-10T13:55:41Z</time>
      </trkpt>
      <trkpt lat="46.12905" lon="2.46346">
        <ele>490</ele>
        <time>2015-04-10T13:55:45Z</time>
      </trkpt>
      <trkpt lat="46.12903" lon="2.46347">
        <ele>490</ele>
        <time>2015-04-10T13:55:47Z</time>
      </trkpt>
      <trkpt lat="46.12901" lon="2.46349">
        <ele>491</ele>
        <time>2015-04-10T13:55:49Z</time>
      </trkpt>
      <trkpt lat="46.12899" lon="2.4635">
        <ele>491</ele>
        <time>2015-04-10T13:55:51Z</time>
      </trkpt>
      <trkpt lat="46.12896" lon="2.46353">
        <ele>491</ele>
        <time>2015-04-10T13:55:54Z</time>
      </trkpt>
      <trkpt lat="46.12894" lon="2.46354">
        <ele>492</ele>
        <time>2015-04-10T13:55:56Z</time>
      </trkpt>
      <trkpt lat="46.12891" lon="2.46355">
        <ele>492</ele>
        <time>2015-04-10T13:55:58Z</time>
      </trkpt>
      <trkpt lat="46.12888" lon="2.46356">
        <ele>492</ele>
        <time>2015-04-10T13:56:00Z</time>
      </trkpt>
      <trkpt lat="46.12886" lon="2.46357">
        <ele>492</ele>
        <time>2015-04-10T13:56:02Z</time>
      </trkpt>
      <trkpt lat="46.12884" lon="2.46357">
        <ele>492</ele>
        <time>2015-04-10T13:56:04Z</time>
      </trkpt>
      <trkpt lat="46.12881" lon="2.46358">
        <ele>492</ele>
        <time>2015-04-10T13:56:06Z</time>
      </trkpt>
      <trkpt lat="46.12878" lon="2.46358">
        <ele>492</ele>
        <time>2015-04-10T13:56:08Z</time>
      </trkpt>
      <trkpt lat="46.12876" lon="2.46359">
        <ele>493</ele>
        <time>2015-04-10T13:56:10Z</time>
      </trkpt>
      <trkpt lat="46.12873" lon="2.4636">
        <ele>493</ele>
        <time>2015-04-10T13:56:12Z</time>
      </trkpt>
      <trkpt lat="46.1287" lon="2.46361">
        <ele>493</ele>
        <time>2015-04-10T13:56:14Z</time>
      </trkpt>
      <trkpt lat="46.12868" lon="2.46362">
        <ele>493</ele>
        <time>2015-04-10T13:56:16Z</time>
      </trkpt>
      <trkpt lat="46.12865" lon="2.46363">
        <ele>493</ele>
        <time>2015-04-10T13:56:18Z</time>
      </trkpt>
      <trkpt lat="46.12862" lon="2.46363">
        <ele>493</ele>
        <time>2015-04-10T13:56:20Z</time>
      </trkpt>
      <trkpt lat="46.1286" lon="2.46364">
        <ele>493</ele>
        <time>2015-04-10T13:56:22Z</time>
      </trkpt>
      <trkpt lat="46.12857" lon="2.46365">
        <ele>493</ele>
        <time>2015-04-10T13:56:24Z</time>
      </trkpt>
      <trkpt lat="46.12854" lon="2.46365">
        <ele>493</ele>
        <time>2015-04-10T13:56:26Z</time>
      </trkpt>
      <trkpt lat="46.12852" lon="2.46366">
        <ele>493</ele>
        <time>2015-04-10T13:56:28Z</time>
      </trkpt>
      <trkpt lat="46.12849" lon="2.46367">
        <ele>493</ele>
        <time>2015-04-10T13:56:30Z</time>
      </trkpt>
      <trkpt lat="46.12847" lon="2.46368">
        <ele>493</ele>
        <time>2015-04-10T13:56:32Z</time>
      </trkpt>
      <trkpt lat="46.12844" lon="2.46369">
        <ele>493</ele>
        <time>2015-04-10T13:56:34Z</time>
      </trkpt>
      <trkpt lat="46.12841" lon="2.46369">
        <ele>493</ele>
        <time>2015-04-10T13:56:36Z</time>
      </trkpt>
      <trkpt lat="46.12838" lon="2.46371">
        <ele>493</ele>
        <time>2015-04-10T13:56:38Z</time>
      </trkpt>
      <trkpt lat="46.12835" lon="2.46373">
        <ele>493</ele>
        <time>2015-04-10T13:56:40Z</time>
      </trkpt>
      <trkpt lat="46.12832" lon="2.46374">
        <ele>494</ele>
        <time>2015-04-10T13:56:42Z</time>
      </trkpt>
      <trkpt lat="46.12829" lon="2.46374">
        <ele>494</ele>
        <time>2015-04-10T13:56:44Z</time>
      </trkpt>
      <trkpt lat="46.12827" lon="2.46375">
        <ele>494</ele>
        <time>2015-04-10T13:56:46Z</time>
      </trkpt>
      <trkpt lat="46.12824" lon="2.46376">
        <ele>494</ele>
        <time>2015-04-10T13:56:48Z</time>
      </trkpt>
      <trkpt lat="46.12821" lon="2.46377">
        <ele>495</ele>
        <time>2015-04-10T13:56:50Z</time>
      </trkpt>
      <trkpt lat="46.12818" lon="2.46379">
        <ele>495</ele>
        <time>2015-04-10T13:56:52Z</time>
      </trkpt>
      <trkpt lat="46.12815" lon="2.46379">
        <ele>495</ele>
        <time>2015-04-10T13:56:54Z</time>
      </trkpt>
      <trkpt lat="46.12812" lon="2.4638">
        <ele>495</ele>
        <time>2015-04-10T13:56:56Z</time>
      </trkpt>
      <trkpt lat="46.12809" lon="2.4638">
        <ele>495</ele>
        <time>2015-04-10T13:56:58Z</time>
      </trkpt>
      <trkpt lat="46.12806" lon="2.46381">
        <ele>496</ele>
        <time>2015-04-10T13:57:00Z</time>
      </trkpt>
      <trkpt lat="46.12803" lon="2.46381">
        <ele>496</ele>
        <time>2015-04-10T13:57:02Z</time>
      </trkpt>
      <trkpt lat="46.12801" lon="2.46381">
        <ele>496</ele>
        <time>2015-04-10T13:57:04Z</time>
      </trkpt>
      <trkpt lat="46.12798" lon="2.46381">
        <ele>496</ele>
        <time>2015-04-10T13:57:06Z</time>
      </trkpt>
      <trkpt lat="46.12795" lon="2.46381">
        <ele>496</ele>
        <time>2015-04-10T13:57:08Z</time>
      </trkpt>
      <trkpt lat="46.12792" lon="2.46382">
        <ele>496</ele>
        <time>2015-04-10T13:57:10Z</time>
      </trkpt>
      <trkpt lat="46.12789" lon="2.46382">
        <ele>496</ele>
        <time>2015-04-10T13:57:12Z</time>
      </trkpt>
      <trkpt lat="46.12786" lon="2.46382">
        <ele>496</ele>
        <time>2015-04-10T13:57:14Z</time>
      </trkpt>
      <trkpt lat="46.12784" lon="2.46383">
        <ele>496</ele>
        <time>2015-04-10T13:57:16Z</time>
      </trkpt>
      <trkpt lat="46.12781" lon="2.46383">
        <ele>496</ele>
        <time>2015-04-10T13:57:18Z</time>
      </trkpt>
      <trkpt lat="46.12778" lon="2.46384">
        <ele>496</ele>
        <time>2015-04-10T13:57:20Z</time>
      </trkpt>
      <trkpt lat="46.12775" lon="2.46384">
        <ele>496</ele>
        <time>2015-04-10T13:57:22Z</time>
      </trkpt>
      <trkpt lat="46.12772" lon="2.46384">
        <ele>496</ele>
        <time>2015-04-10T13:57:24Z</time>
      </trkpt>
      <trkpt lat="46.12768" lon="2.46383">
        <ele>496</ele>
        <time>2015-04-10T13:57:26Z</time>
      </trkpt>
      <trkpt lat="46.12765" lon="2.46382">
        <ele>496</ele>
        <time>2015-04-10T13:57:28Z</time>
      </trkpt>
      <trkpt lat="46.12762" lon="2.46383">
        <ele>496</ele>
        <time>2015-04-10T13:57:30Z</time>
      </trkpt>
      <trkpt lat="46.12759" lon="2.46383">
        <ele>496</ele>
        <time>2015-04-10T13:57:32Z</time>
      </trkpt>
      <trkpt lat="46.12756" lon="2.46383">
        <ele>496</ele>
        <time>2015-04-10T13:57:34Z</time>
      </trkpt>
      <trkpt lat="46.12753" lon="2.46383">
        <ele>496</ele>
        <time>2015-04-10T13:57:36Z</time>
      </trkpt>
      <trkpt lat="46.1275" lon="2.46383">
        <ele>496</ele>
        <time>2015-04-10T13:57:38Z</time>
      </trkpt>
      <trkpt lat="46.12747" lon="2.46383">
        <ele>496</ele>
        <time>2015-04-10T13:57:40Z</time>
      </trkpt>
      <trkpt lat="46.12744" lon="2.46383">
        <ele>496</ele>
        <time>2015-04-10T13:57:42Z</time>
      </trkpt>
      <trkpt lat="46.12741" lon="2.46383">
        <ele>496</ele>
        <time>2015-04-10T13:57:44Z</time>
      </trkpt>
      <trkpt lat="46.12738" lon="2.46383">
        <ele>496</ele>
        <time>2015-04-10T13:57:46Z</time>
      </trkpt>
      <trkpt lat="46.12735" lon="2.46383">
        <ele>496</ele>
        <time>2015-04-10T13:57:48Z</time>
      </trkpt>
      <trkpt lat="46.12732" lon="2.46384">
        <ele>496</ele>
        <time>2015-04-10T13:57:50Z</time>
      </trkpt>
      <trkpt lat="46.12729" lon="2.46384">
        <ele>496</ele>
        <time>2015-04-10T13:57:52Z</time>
      </trkpt>
      <trkpt lat="46.12727" lon="2.46383">
        <ele>496</ele>
        <time>2015-04-10T13:57:54Z</time>
      </trkpt>
      <trkpt lat="46.12724" lon="2.46382">
        <ele>496</ele>
        <time>2015-04-10T13:57:56Z</time>
      </trkpt>
      <trkpt lat="46.12721" lon="2.46382">
        <ele>496</ele>
        <time>2015-04-10T13:57:58Z</time>
      </trkpt>
      <trkpt lat="46.12718" lon="2.46381">
        <ele>496</ele>
        <time>2015-04-10T13:58:00Z</time>
      </trkpt>
      <trkpt lat="46.12716" lon="2.4638">
        <ele>496</ele>
        <time>2015-04-10T13:58:02Z</time>
      </trkpt>
      <trkpt lat="46.12713" lon="2.4638">
        <ele>496</ele>
        <time>2015-04-10T13:58:04Z</time>
      </trkpt>
      <trkpt lat="46.1271" lon="2.46379">
        <ele>496</ele>
        <time>2015-04-10T13:58:06Z</time>
      </trkpt>
      <trkpt lat="46.12707" lon="2.46378">
        <ele>496</ele>
        <time>2015-04-10T13:58:08Z</time>
      </trkpt>
      <trkpt lat="46.12704" lon="2.46377">
        <ele>496</ele>
        <time>2015-04-10T13:58:10Z</time>
      </trkpt>
      <trkpt lat="46.12701" lon="2.46377">
        <ele>496</ele>
        <time>2015-04-10T13:58:12Z</time>
      </trkpt>
      <trkpt lat="46.12698" lon="2.46376">
        <ele>496</ele>
        <time>2015-04-10T13:58:14Z</time>
      </trkpt>
      <trkpt lat="46.12695" lon="2.46376">
        <ele>496</ele>
        <time>2015-04-10T13:58:16Z</time>
      </trkpt>
      <trkpt lat="46.12693" lon="2.46375">
        <ele>496</ele>
        <time>2015-04-10T13:58:18Z</time>
      </trkpt>
      <trkpt lat="46.1269" lon="2.46374">
        <ele>496</ele>
        <time>2015-04-10T13:58:20Z</time>
      </trkpt>
      <trkpt lat="46.12688" lon="2.46373">
        <ele>496</ele>
        <time>2015-04-10T13:58:22Z</time>
      </trkpt>
      <trkpt lat="46.12685" lon="2.46371">
        <ele>496</ele>
        <time>2015-04-10T13:58:25Z</time>
      </trkpt>
      <trkpt lat="46.12682" lon="2.4637">
        <ele>496</ele>
        <time>2015-04-10T13:58:27Z</time>
      </trkpt>
      <trkpt lat="46.1268" lon="2.4637">
        <ele>496</ele>
        <time>2015-04-10T13:58:29Z</time>
      </trkpt>
      <trkpt lat="46.12677" lon="2.4637">
        <ele>496</ele>
        <time>2015-04-10T13:58:31Z</time>
      </trkpt>
      <trkpt lat="46.12674" lon="2.4637">
        <ele>496</ele>
        <time>2015-04-10T13:58:33Z</time>
      </trkpt>
      <trkpt lat="46.12671" lon="2.4637">
        <ele>496</ele>
        <time>2015-04-10T13:58:36Z</time>
      </trkpt>
      <trkpt lat="46.12668" lon="2.4637">
        <ele>495</ele>
        <time>2015-04-10T13:58:38Z</time>
      </trkpt>
      <trkpt lat="46.12665" lon="2.4637">
        <ele>495</ele>
        <time>2015-04-10T13:58:40Z</time>
      </trkpt>
      <trkpt lat="46.12662" lon="2.4637">
        <ele>495</ele>
        <time>2015-04-10T13:58:42Z</time>
      </trkpt>
      <trkpt lat="46.12659" lon="2.46369">
        <ele>495</ele>
        <time>2015-04-10T13:58:44Z</time>
      </trkpt>
      <trkpt lat="46.12656" lon="2.46369">
        <ele>495</ele>
        <time>2015-04-10T13:58:46Z</time>
      </trkpt>
      <trkpt lat="46.12653" lon="2.46369">
        <ele>495</ele>
        <time>2015-04-10T13:58:48Z</time>
      </trkpt>
      <trkpt lat="46.1265" lon="2.46369">
        <ele>495</ele>
        <time>2015-04-10T13:58:50Z</time>
      </trkpt>
      <trkpt lat="46.12648" lon="2.46368">
        <ele>495</ele>
        <time>2015-04-10T13:58:52Z</time>
      </trkpt>
      <trkpt lat="46.12645" lon="2.46368">
        <ele>495</ele>
        <time>2015-04-10T13:58:54Z</time>
      </trkpt>
      <trkpt lat="46.12642" lon="2.46368">
        <ele>495</ele>
        <time>2015-04-10T13:58:56Z</time>
      </trkpt>
      <trkpt lat="46.12639" lon="2.46367">
        <ele>495</ele>
        <time>2015-04-10T13:58:58Z</time>
      </trkpt>
      <trkpt lat="46.12637" lon="2.46365">
        <ele>495</ele>
        <time>2015-04-10T13:59:00Z</time>
      </trkpt>
      <trkpt lat="46.12635" lon="2.46363">
        <ele>495</ele>
        <time>2015-04-10T13:59:02Z</time>
      </trkpt>
      <trkpt lat="46.12633" lon="2.46358">
        <ele>495</ele>
        <time>2015-04-10T13:59:04Z</time>
      </trkpt>
      <trkpt lat="46.12631" lon="2.46354">
        <ele>495</ele>
        <time>2015-04-10T13:59:06Z</time>
      </trkpt>
      <trkpt lat="46.1263" lon="2.4635">
        <ele>495</ele>
        <time>2015-04-10T13:59:08Z</time>
      </trkpt>
      <trkpt lat="46.12629" lon="2.46346">
        <ele>495</ele>
        <time>2015-04-10T13:59:10Z</time>
      </trkpt>
      <trkpt lat="46.1263" lon="2.46342">
        <ele>495</ele>
        <time>2015-04-10T13:59:12Z</time>
      </trkpt>
      <trkpt lat="46.1263" lon="2.46338">
        <ele>495</ele>
        <time>2015-04-10T13:59:14Z</time>
      </trkpt>
      <trkpt lat="46.12629" lon="2.46335">
        <ele>495</ele>
        <time>2015-04-10T13:59:16Z</time>
      </trkpt>
      <trkpt lat="46.12629" lon="2.46331">
        <ele>495</ele>
        <time>2015-04-10T13:59:18Z</time>
      </trkpt>
      <trkpt lat="46.12628" lon="2.46327">
        <ele>495</ele>
        <time>2015-04-10T13:59:20Z</time>
      </trkpt>
      <trkpt lat="46.12627" lon="2.46323">
        <ele>495</ele>
        <time>2015-04-10T13:59:22Z</time>
      </trkpt>
      <trkpt lat="46.12627" lon="2.4632">
        <ele>495</ele>
        <time>2015-04-10T13:59:24Z</time>
      </trkpt>
      <trkpt lat="46.12628" lon="2.46316">
        <ele>495</ele>
        <time>2015-04-10T13:59:26Z</time>
      </trkpt>
      <trkpt lat="46.12628" lon="2.46313">
        <ele>495</ele>
        <time>2015-04-10T13:59:28Z</time>
      </trkpt>
      <trkpt lat="46.12627" lon="2.4631">
        <ele>495</ele>
        <time>2015-04-10T13:59:30Z</time>
      </trkpt>
      <trkpt lat="46.12626" lon="2.46307">
        <ele>495</ele>
        <time>2015-04-10T13:59:32Z</time>
      </trkpt>
      <trkpt lat="46.12626" lon="2.46305">
        <ele>495</ele>
        <time>2015-04-10T13:59:34Z</time>
      </trkpt>
      <trkpt lat="46.12626" lon="2.46303">
        <ele>495</ele>
        <time>2015-04-10T13:59:36Z</time>
      </trkpt>
      <trkpt lat="46.12626" lon="2.46301">
        <ele>495</ele>
        <time>2015-04-10T13:59:38Z</time>
      </trkpt>
      <trkpt lat="46.12624" lon="2.463">
        <ele>495</ele>
        <time>2015-04-10T13:59:40Z</time>
      </trkpt>
      <trkpt lat="46.12623" lon="2.463">
        <ele>495</ele>
        <time>2015-04-10T13:59:42Z</time>
      </trkpt>
      <trkpt lat="46.12622" lon="2.46299">
        <ele>495</ele>
        <time>2015-04-10T13:59:44Z</time>
      </trkpt>
      <trkpt lat="46.1262" lon="2.46298">
        <ele>495</ele>
        <time>2015-04-10T13:59:46Z</time>
      </trkpt>
      <trkpt lat="46.12618" lon="2.46297">
        <ele>495</ele>
        <time>2015-04-10T13:59:48Z</time>
      </trkpt>
      <trkpt lat="46.12616" lon="2.46295">
        <ele>495</ele>
        <time>2015-04-10T13:59:50Z</time>
      </trkpt>
      <trkpt lat="46.12615" lon="2.46293">
        <ele>495</ele>
        <time>2015-04-10T13:59:52Z</time>
      </trkpt>
      <trkpt lat="46.12613" lon="2.4629">
        <ele>495</ele>
        <time>2015-04-10T13:59:54Z</time>
      </trkpt>
      <trkpt lat="46.12611" lon="2.46288">
        <ele>495</ele>
        <time>2015-04-10T13:59:56Z</time>
      </trkpt>
      <trkpt lat="46.12607" lon="2.46284">
        <ele>495</ele>
        <time>2015-04-10T13:59:59Z</time>
      </trkpt>
      <trkpt lat="46.12605" lon="2.46282">
        <ele>495</ele>
        <time>2015-04-10T14:00:01Z</time>
      </trkpt>
      <trkpt lat="46.12602" lon="2.46278">
        <ele>495</ele>
        <time>2015-04-10T14:00:04Z</time>
      </trkpt>
      <trkpt lat="46.126" lon="2.46276">
        <ele>495</ele>
        <time>2015-04-10T14:00:06Z</time>
      </trkpt>
      <trkpt lat="46.12598" lon="2.46271">
        <ele>495</ele>
        <time>2015-04-10T14:00:09Z</time>
      </trkpt>
      <trkpt lat="46.12597" lon="2.46269">
        <ele>495</ele>
        <time>2015-04-10T14:00:11Z</time>
      </trkpt>
      <trkpt lat="46.12595" lon="2.46266">
        <ele>495</ele>
        <time>2015-04-10T14:00:13Z</time>
      </trkpt>
      <trkpt lat="46.12594" lon="2.46262">
        <ele>495</ele>
        <time>2015-04-10T14:00:15Z</time>
      </trkpt>
      <trkpt lat="46.12592" lon="2.46258">
        <ele>495</ele>
        <time>2015-04-10T14:00:18Z</time>
      </trkpt>
      <trkpt lat="46.1259" lon="2.46255">
        <ele>495</ele>
        <time>2015-04-10T14:00:20Z</time>
      </trkpt>
      <trkpt lat="46.12588" lon="2.46252">
        <ele>495</ele>
        <time>2015-04-10T14:00:22Z</time>
      </trkpt>
      <trkpt lat="46.12587" lon="2.46249">
        <ele>495</ele>
        <time>2015-04-10T14:00:24Z</time>
      </trkpt>
      <trkpt lat="46.12585" lon="2.46246">
        <ele>495</ele>
        <time>2015-04-10T14:00:26Z</time>
      </trkpt>
      <trkpt lat="46.12582" lon="2.46242">
        <ele>495</ele>
        <time>2015-04-10T14:00:28Z</time>
      </trkpt>
      <trkpt lat="46.12579" lon="2.4624">
        <ele>495</ele>
        <time>2015-04-10T14:00:30Z</time>
      </trkpt>
      <trkpt lat="46.12577" lon="2.46238">
        <ele>495</ele>
        <time>2015-04-10T14:00:32Z</time>
      </trkpt>
      <trkpt lat="46.12574" lon="2.46236">
        <ele>495</ele>
        <time>2015-04-10T14:00:34Z</time>
      </trkpt>
      <trkpt lat="46.12571" lon="2.46235">
        <ele>495</ele>
        <time>2015-04-10T14:00:36Z</time>
      </trkpt>
      <trkpt lat="46.12568" lon="2.46234">
        <ele>495</ele>
        <time>2015-04-10T14:00:38Z</time>
      </trkpt>
      <trkpt lat="46.12566" lon="2.46234">
        <ele>495</ele>
        <time>2015-04-10T14:00:40Z</time>
      </trkpt>
      <trkpt lat="46.12563" lon="2.46233">
        <ele>495</ele>
        <time>2015-04-10T14:00:42Z</time>
      </trkpt>
      <trkpt lat="46.1256" lon="2.46231">
        <ele>495</ele>
        <time>2015-04-10T14:00:44Z</time>
      </trkpt>
      <trkpt lat="46.12556" lon="2.4623">
        <ele>495</ele>
        <time>2015-04-10T14:00:47Z</time>
      </trkpt>
      <trkpt lat="46.12553" lon="2.4623">
        <ele>495</ele>
        <time>2015-04-10T14:00:49Z</time>
      </trkpt>
      <trkpt lat="46.1255" lon="2.46229">
        <ele>495</ele>
        <time>2015-04-10T14:00:51Z</time>
      </trkpt>
      <trkpt lat="46.12548" lon="2.46229">
        <ele>495</ele>
        <time>2015-04-10T14:00:53Z</time>
      </trkpt>
      <trkpt lat="46.12545" lon="2.46229">
        <ele>495</ele>
        <time>2015-04-10T14:00:55Z</time>
      </trkpt>
      <trkpt lat="46.12543" lon="2.46228">
        <ele>495</ele>
        <time>2015-04-10T14:00:57Z</time>
      </trkpt>
      <trkpt lat="46.12539" lon="2.46228">
        <ele>495</ele>
        <time>2015-04-10T14:01:00Z</time>
      </trkpt>
      <trkpt lat="46.12537" lon="2.46228">
        <ele>495</ele>
        <time>2015-04-10T14:01:02Z</time>
      </trkpt>
      <trkpt lat="46.12534" lon="2.46227">
        <ele>495</ele>
        <time>2015-04-10T14:01:05Z</time>
      </trkpt>
      <trkpt lat="46.12531" lon="2.46226">
        <ele>495</ele>
        <time>2015-04-10T14:01:08Z</time>
      </trkpt>
      <trkpt lat="46.12529" lon="2.46224">
        <ele>496</ele>
        <time>2015-04-10T14:01:13Z</time>
      </trkpt>
      <trkpt lat="46.12527" lon="2.46224">
        <ele>498</ele>
        <time>2015-04-10T14:01:20Z</time>
      </trkpt>
      <trkpt lat="46.12526" lon="2.46223">
        <ele>498</ele>
        <time>2015-04-10T14:01:22Z</time>
      </trkpt>
      <trkpt lat="46.12524" lon="2.46223">
        <ele>499</ele>
        <time>2015-04-10T14:01:24Z</time>
      </trkpt>
      <trkpt lat="46.12521" lon="2.46223">
        <ele>499</ele>
        <time>2015-04-10T14:01:26Z</time>
      </trkpt>
      <trkpt lat="46.12518" lon="2.46222">
        <ele>499</ele>
        <time>2015-04-10T14:01:28Z</time>
      </trkpt>
      <trkpt lat="46.12514" lon="2.46222">
        <ele>499</ele>
        <time>2015-04-10T14:01:31Z</time>
      </trkpt>
      <trkpt lat="46.12512" lon="2.46221">
        <ele>499</ele>
        <time>2015-04-10T14:01:33Z</time>
      </trkpt>
      <trkpt lat="46.12509" lon="2.46221">
        <ele>499</ele>
        <time>2015-04-10T14:01:35Z</time>
      </trkpt>
      <trkpt lat="46.12507" lon="2.4622">
        <ele>499</ele>
        <time>2015-04-10T14:01:37Z</time>
      </trkpt>
      <trkpt lat="46.12504" lon="2.4622">
        <ele>499</ele>
        <time>2015-04-10T14:01:39Z</time>
      </trkpt>
      <trkpt lat="46.12501" lon="2.46219">
        <ele>499</ele>
        <time>2015-04-10T14:01:41Z</time>
      </trkpt>
      <trkpt lat="46.12497" lon="2.46218">
        <ele>499</ele>
        <time>2015-04-10T14:01:43Z</time>
      </trkpt>
      <trkpt lat="46.12495" lon="2.46219">
        <ele>499</ele>
        <time>2015-04-10T14:01:45Z</time>
      </trkpt>
      <trkpt lat="46.12491" lon="2.46222">
        <ele>499</ele>
        <time>2015-04-10T14:01:48Z</time>
      </trkpt>
      <trkpt lat="46.12489" lon="2.46223">
        <ele>499</ele>
        <time>2015-04-10T14:01:50Z</time>
      </trkpt>
      <trkpt lat="46.12487" lon="2.46225">
        <ele>499</ele>
        <time>2015-04-10T14:01:52Z</time>
      </trkpt>
      <trkpt lat="46.12486" lon="2.46228">
        <ele>499</ele>
        <time>2015-04-10T14:01:54Z</time>
      </trkpt>
      <trkpt lat="46.12484" lon="2.46229">
        <ele>499</ele>
        <time>2015-04-10T14:01:56Z</time>
      </trkpt>
      <trkpt lat="46.12482" lon="2.46231">
        <ele>499</ele>
        <time>2015-04-10T14:01:58Z</time>
      </trkpt>
      <trkpt lat="46.1248" lon="2.46233">
        <ele>499</ele>
        <time>2015-04-10T14:02:00Z</time>
      </trkpt>
      <trkpt lat="46.12478" lon="2.46234">
        <ele>499</ele>
        <time>2015-04-10T14:02:02Z</time>
      </trkpt>
      <trkpt lat="46.12475" lon="2.46235">
        <ele>499</ele>
        <time>2015-04-10T14:02:04Z</time>
      </trkpt>
      <trkpt lat="46.12472" lon="2.46236">
        <ele>499</ele>
        <time>2015-04-10T14:02:06Z</time>
      </trkpt>
      <trkpt lat="46.1247" lon="2.46237">
        <ele>499</ele>
        <time>2015-04-10T14:02:08Z</time>
      </trkpt>
      <trkpt lat="46.12467" lon="2.46238">
        <ele>499</ele>
        <time>2015-04-10T14:02:10Z</time>
      </trkpt>
      <trkpt lat="46.12465" lon="2.46238">
        <ele>499</ele>
        <time>2015-04-10T14:02:12Z</time>
      </trkpt>
      <trkpt lat="46.12462" lon="2.46239">
        <ele>499</ele>
        <time>2015-04-10T14:02:15Z</time>
      </trkpt>
      <trkpt lat="46.1246" lon="2.46238">
        <ele>499</ele>
        <time>2015-04-10T14:02:18Z</time>
      </trkpt>
      <trkpt lat="46.12459" lon="2.46238">
        <ele>499</ele>
        <time>2015-04-10T14:02:20Z</time>
      </trkpt>
      <trkpt lat="46.12455" lon="2.46239">
        <ele>499</ele>
        <time>2015-04-10T14:02:23Z</time>
      </trkpt>
      <trkpt lat="46.12453" lon="2.4624">
        <ele>499</ele>
        <time>2015-04-10T14:02:25Z</time>
      </trkpt>
      <trkpt lat="46.12452" lon="2.4624">
        <ele>499</ele>
        <time>2015-04-10T14:02:27Z</time>
      </trkpt>
      <trkpt lat="46.12449" lon="2.46239">
        <ele>499</ele>
        <time>2015-04-10T14:02:29Z</time>
      </trkpt>
      <trkpt lat="46.12447" lon="2.46239">
        <ele>499</ele>
        <time>2015-04-10T14:02:31Z</time>
      </trkpt>
      <trkpt lat="46.12444" lon="2.46238">
        <ele>499</ele>
        <time>2015-04-10T14:02:33Z</time>
      </trkpt>
      <trkpt lat="46.12442" lon="2.46238">
        <ele>499</ele>
        <time>2015-04-10T14:02:35Z</time>
      </trkpt>
      <trkpt lat="46.12439" lon="2.46237">
        <ele>499</ele>
        <time>2015-04-10T14:02:37Z</time>
      </trkpt>
      <trkpt lat="46.12436" lon="2.46234">
        <ele>499</ele>
        <time>2015-04-10T14:02:39Z</time>
      </trkpt>
      <trkpt lat="46.12433" lon="2.46233">
        <ele>499</ele>
        <time>2015-04-10T14:02:41Z</time>
      </trkpt>
      <trkpt lat="46.12431" lon="2.46233">
        <ele>499</ele>
        <time>2015-04-10T14:02:43Z</time>
      </trkpt>
      <trkpt lat="46.12428" lon="2.46232">
        <ele>499</ele>
        <time>2015-04-10T14:02:45Z</time>
      </trkpt>
      <trkpt lat="46.12426" lon="2.46231">
        <ele>499</ele>
        <time>2015-04-10T14:02:47Z</time>
      </trkpt>
      <trkpt lat="46.12423" lon="2.46229">
        <ele>499</ele>
        <time>2015-04-10T14:02:49Z</time>
      </trkpt>
      <trkpt lat="46.12421" lon="2.46229">
        <ele>499</ele>
        <time>2015-04-10T14:02:51Z</time>
      </trkpt>
      <trkpt lat="46.12419" lon="2.46229">
        <ele>499</ele>
        <time>2015-04-10T14:02:53Z</time>
      </trkpt>
      <trkpt lat="46.12417" lon="2.46228">
        <ele>499</ele>
        <time>2015-04-10T14:02:55Z</time>
      </trkpt>
      <trkpt lat="46.12415" lon="2.46226">
        <ele>499</ele>
        <time>2015-04-10T14:02:58Z</time>
      </trkpt>
      <trkpt lat="46.12414" lon="2.46225">
        <ele>499</ele>
        <time>2015-04-10T14:03:00Z</time>
      </trkpt>
      <trkpt lat="46.12411" lon="2.46223">
        <ele>499</ele>
        <time>2015-04-10T14:03:02Z</time>
      </trkpt>
      <trkpt lat="46.1241" lon="2.46222">
        <ele>499</ele>
        <time>2015-04-10T14:03:04Z</time>
      </trkpt>
      <trkpt lat="46.12408" lon="2.4622">
        <ele>499</ele>
        <time>2015-04-10T14:03:06Z</time>
      </trkpt>
      <trkpt lat="46.12407" lon="2.46219">
        <ele>499</ele>
        <time>2015-04-10T14:03:16Z</time>
      </trkpt>
      <trkpt lat="46.12406" lon="2.46218">
        <ele>499</ele>
        <time>2015-04-10T14:03:18Z</time>
      </trkpt>
      <trkpt lat="46.12404" lon="2.46217">
        <ele>499</ele>
        <time>2015-04-10T14:03:20Z</time>
      </trkpt>
      <trkpt lat="46.12402" lon="2.46215">
        <ele>499</ele>
        <time>2015-04-10T14:03:22Z</time>
      </trkpt>
      <trkpt lat="46.12401" lon="2.46214">
        <ele>499</ele>
        <time>2015-04-10T14:03:24Z</time>
      </trkpt>
      <trkpt lat="46.12401" lon="2.46213">
        <ele>499</ele>
        <time>2015-04-10T14:03:27Z</time>
      </trkpt>
      <trkpt lat="46.124" lon="2.46211">
        <ele>499</ele>
        <time>2015-04-10T14:03:31Z</time>
      </trkpt>
      <trkpt lat="46.12399" lon="2.46211">
        <ele>499</ele>
        <time>2015-04-10T14:03:33Z</time>
      </trkpt>
      <trkpt lat="46.12397" lon="2.4621">
        <ele>499</ele>
        <time>2015-04-10T14:03:36Z</time>
      </trkpt>
      <trkpt lat="46.12394" lon="2.46209">
        <ele>499</ele>
        <time>2015-04-10T14:03:38Z</time>
      </trkpt>
      <trkpt lat="46.12392" lon="2.46209">
        <ele>499</ele>
        <time>2015-04-10T14:03:40Z</time>
      </trkpt>
      <trkpt lat="46.1239" lon="2.46208">
        <ele>499</ele>
        <time>2015-04-10T14:03:42Z</time>
      </trkpt>
      <trkpt lat="46.12388" lon="2.46208">
        <ele>499</ele>
        <time>2015-04-10T14:03:44Z</time>
      </trkpt>
      <trkpt lat="46.12386" lon="2.46206">
        <ele>499</ele>
        <time>2015-04-10T14:03:46Z</time>
      </trkpt>
      <trkpt lat="46.12385" lon="2.46204">
        <ele>499</ele>
        <time>2015-04-10T14:03:48Z</time>
      </trkpt>
      <trkpt lat="46.12383" lon="2.46202">
        <ele>499</ele>
        <time>2015-04-10T14:03:50Z</time>
      </trkpt>
      <trkpt lat="46.12381" lon="2.46199">
        <ele>499</ele>
        <time>2015-04-10T14:03:52Z</time>
      </trkpt>
      <trkpt lat="46.12379" lon="2.46197">
        <ele>499</ele>
        <time>2015-04-10T14:03:54Z</time>
      </trkpt>
      <trkpt lat="46.12376" lon="2.46194">
        <ele>499</ele>
        <time>2015-04-10T14:03:57Z</time>
      </trkpt>
      <trkpt lat="46.12374" lon="2.46191">
        <ele>498</ele>
        <time>2015-04-10T14:03:59Z</time>
      </trkpt>
      <trkpt lat="46.12372" lon="2.46188">
        <ele>498</ele>
        <time>2015-04-10T14:04:01Z</time>
      </trkpt>
      <trkpt lat="46.1237" lon="2.46185">
        <ele>498</ele>
        <time>2015-04-10T14:04:03Z</time>
      </trkpt>
      <trkpt lat="46.12366" lon="2.46182">
        <ele>498</ele>
        <time>2015-04-10T14:04:06Z</time>
      </trkpt>
      <trkpt lat="46.12363" lon="2.46179">
        <ele>498</ele>
        <time>2015-04-10T14:04:09Z</time>
      </trkpt>
      <trkpt lat="46.12359" lon="2.46176">
        <ele>498</ele>
        <time>2015-04-10T14:04:12Z</time>
      </trkpt>
      <trkpt lat="46.12355" lon="2.46172">
        <ele>497</ele>
        <time>2015-04-10T14:04:15Z</time>
      </trkpt>
      <trkpt lat="46.12353" lon="2.46171">
        <ele>497</ele>
        <time>2015-04-10T14:04:17Z</time>
      </trkpt>
      <trkpt lat="46.12349" lon="2.46166">
        <ele>497</ele>
        <time>2015-04-10T14:04:20Z</time>
      </trkpt>
      <trkpt lat="46.12346" lon="2.46164">
        <ele>497</ele>
        <time>2015-04-10T14:04:23Z</time>
      </trkpt>
      <trkpt lat="46.12343" lon="2.46162">
        <ele>497</ele>
        <time>2015-04-10T14:04:25Z</time>
      </trkpt>
      <trkpt lat="46.1234" lon="2.46158">
        <ele>497</ele>
        <time>2015-04-10T14:04:28Z</time>
      </trkpt>
      <trkpt lat="46.12338" lon="2.46156">
        <ele>497</ele>
        <time>2015-04-10T14:04:30Z</time>
      </trkpt>
      <trkpt lat="46.12336" lon="2.46153">
        <ele>497</ele>
        <time>2015-04-10T14:04:32Z</time>
      </trkpt>
      <trkpt lat="46.12333" lon="2.46151">
        <ele>497</ele>
        <time>2015-04-10T14:04:34Z</time>
      </trkpt>
      <trkpt lat="46.12331" lon="2.46148">
        <ele>497</ele>
        <time>2015-04-10T14:04:36Z</time>
      </trkpt>
      <trkpt lat="46.12328" lon="2.46145">
        <ele>497</ele>
        <time>2015-04-10T14:04:38Z</time>
      </trkpt>
      <trkpt lat="46.12326" lon="2.46142">
        <ele>497</ele>
        <time>2015-04-10T14:04:40Z</time>
      </trkpt>
      <trkpt lat="46.12323" lon="2.4614">
        <ele>497</ele>
        <time>2015-04-10T14:04:42Z</time>
      </trkpt>
      <trkpt lat="46.12321" lon="2.46137">
        <ele>497</ele>
        <time>2015-04-10T14:04:44Z</time>
      </trkpt>
      <trkpt lat="46.12319" lon="2.46134">
        <ele>497</ele>
        <time>2015-04-10T14:04:46Z</time>
      </trkpt>
      <trkpt lat="46.12317" lon="2.46132">
        <ele>497</ele>
        <time>2015-04-10T14:04:48Z</time>
      </trkpt>
      <trkpt lat="46.12316" lon="2.46131">
        <ele>497</ele>
        <time>2015-04-10T14:04:50Z</time>
      </trkpt>
      <trkpt lat="46.12314" lon="2.46129">
        <ele>497</ele>
        <time>2015-04-10T14:04:52Z</time>
      </trkpt>
      <trkpt lat="46.12311" lon="2.46126">
        <ele>497</ele>
        <time>2015-04-10T14:04:55Z</time>
      </trkpt>
      <trkpt lat="46.12308" lon="2.46123">
        <ele>497</ele>
        <time>2015-04-10T14:04:58Z</time>
      </trkpt>
      <trkpt lat="46.12306" lon="2.46122">
        <ele>497</ele>
        <time>2015-04-10T14:05:00Z</time>
      </trkpt>
      <trkpt lat="46.12305" lon="2.4612">
        <ele>497</ele>
        <time>2015-04-10T14:05:02Z</time>
      </trkpt>
      <trkpt lat="46.12304" lon="2.46118">
        <ele>497</ele>
        <time>2015-04-10T14:05:04Z</time>
      </trkpt>
      <trkpt lat="46.12303" lon="2.46118">
        <ele>497</ele>
        <time>2015-04-10T14:05:06Z</time>
      </trkpt>
      <trkpt lat="46.123" lon="2.46117">
        <ele>496</ele>
        <time>2015-04-10T14:05:09Z</time>
      </trkpt>
      <trkpt lat="46.12299" lon="2.46116">
        <ele>496</ele>
        <time>2015-04-10T14:05:11Z</time>
      </trkpt>
      <trkpt lat="46.12295" lon="2.46112">
        <ele>495</ele>
        <time>2015-04-10T14:05:15Z</time>
      </trkpt>
      <trkpt lat="46.12292" lon="2.4611">
        <ele>495</ele>
        <time>2015-04-10T14:05:17Z</time>
      </trkpt>
      <trkpt lat="46.12289" lon="2.46107">
        <ele>495</ele>
        <time>2015-04-10T14:05:20Z</time>
      </trkpt>
      <trkpt lat="46.12286" lon="2.46105">
        <ele>495</ele>
        <time>2015-04-10T14:05:22Z</time>
      </trkpt>
      <trkpt lat="46.12283" lon="2.46101">
        <ele>495</ele>
        <time>2015-04-10T14:05:25Z</time>
      </trkpt>
      <trkpt lat="46.12282" lon="2.461">
        <ele>495</ele>
        <time>2015-04-10T14:05:27Z</time>
      </trkpt>
      <trkpt lat="46.1228" lon="2.46098">
        <ele>495</ele>
        <time>2015-04-10T14:05:29Z</time>
      </trkpt>
      <trkpt lat="46.12277" lon="2.46095">
        <ele>495</ele>
        <time>2015-04-10T14:05:32Z</time>
      </trkpt>
      <trkpt lat="46.12275" lon="2.46092">
        <ele>495</ele>
        <time>2015-04-10T14:05:34Z</time>
      </trkpt>
      <trkpt lat="46.12272" lon="2.4609">
        <ele>495</ele>
        <time>2015-04-10T14:05:38Z</time>
      </trkpt>
      <trkpt lat="46.12271" lon="2.46088">
        <ele>495</ele>
        <time>2015-04-10T14:05:42Z</time>
      </trkpt>
      <trkpt lat="46.12267" lon="2.46084">
        <ele>495</ele>
        <time>2015-04-10T14:05:46Z</time>
      </trkpt>
      <trkpt lat="46.12264" lon="2.46081">
        <ele>495</ele>
        <time>2015-04-10T14:05:48Z</time>
      </trkpt>
      <trkpt lat="46.1226" lon="2.46078">
        <ele>495</ele>
        <time>2015-04-10T14:05:51Z</time>
      </trkpt>
      <trkpt lat="46.12257" lon="2.46076">
        <ele>495</ele>
        <time>2015-04-10T14:05:54Z</time>
      </trkpt>
      <trkpt lat="46.12254" lon="2.46073">
        <ele>494</ele>
        <time>2015-04-10T14:05:57Z</time>
      </trkpt>
      <trkpt lat="46.12252" lon="2.46071">
        <ele>494</ele>
        <time>2015-04-10T14:05:59Z</time>
      </trkpt>
      <trkpt lat="46.12249" lon="2.46069">
        <ele>493</ele>
        <time>2015-04-10T14:06:02Z</time>
      </trkpt>
      <trkpt lat="46.12247" lon="2.46068">
        <ele>493</ele>
        <time>2015-04-10T14:06:04Z</time>
      </trkpt>
      <trkpt lat="46.12244" lon="2.46065">
        <ele>492</ele>
        <time>2015-04-10T14:06:07Z</time>
      </trkpt>
      <trkpt lat="46.12242" lon="2.46063">
        <ele>492</ele>
        <time>2015-04-10T14:06:09Z</time>
      </trkpt>
      <trkpt lat="46.12241" lon="2.46062">
        <ele>492</ele>
        <time>2015-04-10T14:06:11Z</time>
      </trkpt>
      <trkpt lat="46.12237" lon="2.46059">
        <ele>492</ele>
        <time>2015-04-10T14:06:15Z</time>
      </trkpt>
      <trkpt lat="46.12233" lon="2.46056">
        <ele>491</ele>
        <time>2015-04-10T14:06:19Z</time>
      </trkpt>
      <trkpt lat="46.12231" lon="2.46055">
        <ele>491</ele>
        <time>2015-04-10T14:06:21Z</time>
      </trkpt>
      <trkpt lat="46.12228" lon="2.46053">
        <ele>491</ele>
        <time>2015-04-10T14:06:24Z</time>
      </trkpt>
      <trkpt lat="46.12225" lon="2.46049">
        <ele>490</ele>
        <time>2015-04-10T14:06:27Z</time>
      </trkpt>
      <trkpt lat="46.12222" lon="2.46045">
        <ele>490</ele>
        <time>2015-04-10T14:06:30Z</time>
      </trkpt>
      <trkpt lat="46.1222" lon="2.46042">
        <ele>490</ele>
        <time>2015-04-10T14:06:32Z</time>
      </trkpt>
      <trkpt lat="46.12217" lon="2.46038">
        <ele>489</ele>
        <time>2015-04-10T14:06:36Z</time>
      </trkpt>
      <trkpt lat="46.12216" lon="2.46036">
        <ele>489</ele>
        <time>2015-04-10T14:06:38Z</time>
      </trkpt>
      <trkpt lat="46.12213" lon="2.46031">
        <ele>488</ele>
        <time>2015-04-10T14:06:42Z</time>
      </trkpt>
      <trkpt lat="46.12212" lon="2.46028">
        <ele>488</ele>
        <time>2015-04-10T14:06:44Z</time>
      </trkpt>
      <trkpt lat="46.12209" lon="2.46023">
        <ele>488</ele>
        <time>2015-04-10T14:06:48Z</time>
      </trkpt>
      <trkpt lat="46.12208" lon="2.4602">
        <ele>488</ele>
        <time>2015-04-10T14:06:50Z</time>
      </trkpt>
      <trkpt lat="46.12206" lon="2.46016">
        <ele>488</ele>
        <time>2015-04-10T14:06:52Z</time>
      </trkpt>
      <trkpt lat="46.12205" lon="2.46012">
        <ele>488</ele>
        <time>2015-04-10T14:06:54Z</time>
      </trkpt>
      <trkpt lat="46.12203" lon="2.46007">
        <ele>488</ele>
        <time>2015-04-10T14:06:56Z</time>
      </trkpt>
      <trkpt lat="46.12202" lon="2.46004">
        <ele>487</ele>
        <time>2015-04-10T14:06:58Z</time>
      </trkpt>
      <trkpt lat="46.12199" lon="2.45998">
        <ele>487</ele>
        <time>2015-04-10T14:07:01Z</time>
      </trkpt>
      <trkpt lat="46.12196" lon="2.45993">
        <ele>487</ele>
        <time>2015-04-10T14:07:04Z</time>
      </trkpt>
      <trkpt lat="46.12193" lon="2.45989">
        <ele>487</ele>
        <time>2015-04-10T14:07:07Z</time>
      </trkpt>
      <trkpt lat="46.12191" lon="2.45987">
        <ele>487</ele>
        <time>2015-04-10T14:07:09Z</time>
      </trkpt>
      <trkpt lat="46.12188" lon="2.45986">
        <ele>487</ele>
        <time>2015-04-10T14:07:11Z</time>
      </trkpt>
      <trkpt lat="46.12186" lon="2.45983">
        <ele>487</ele>
        <time>2015-04-10T14:07:13Z</time>
      </trkpt>
      <trkpt lat="46.12181" lon="2.45981">
        <ele>487</ele>
        <time>2015-04-10T14:07:17Z</time>
      </trkpt>
      <trkpt lat="46.12179" lon="2.45979">
        <ele>487</ele>
        <time>2015-04-10T14:07:19Z</time>
      </trkpt>
      <trkpt lat="46.12175" lon="2.45977">
        <ele>487</ele>
        <time>2015-04-10T14:07:23Z</time>
      </trkpt>
      <trkpt lat="46.12171" lon="2.45975">
        <ele>487</ele>
        <time>2015-04-10T14:07:26Z</time>
      </trkpt>
      <trkpt lat="46.12167" lon="2.45974">
        <ele>487</ele>
        <time>2015-04-10T14:07:29Z</time>
      </trkpt>
      <trkpt lat="46.12163" lon="2.45972">
        <ele>487</ele>
        <time>2015-04-10T14:07:31Z</time>
      </trkpt>
      <trkpt lat="46.12158" lon="2.45971">
        <ele>487</ele>
        <time>2015-04-10T14:07:35Z</time>
      </trkpt>
      <trkpt lat="46.12155" lon="2.45967">
        <ele>487</ele>
        <time>2015-04-10T14:07:38Z</time>
      </trkpt>
      <trkpt lat="46.12153" lon="2.45965">
        <ele>487</ele>
        <time>2015-04-10T14:07:40Z</time>
      </trkpt>
      <trkpt lat="46.1215" lon="2.45962">
        <ele>487</ele>
        <time>2015-04-10T14:07:46Z</time>
      </trkpt>
      <trkpt lat="46.12149" lon="2.4596">
        <ele>487</ele>
        <time>2015-04-10T14:07:53Z</time>
      </trkpt>
      <trkpt lat="46.12148" lon="2.4596">
        <ele>487</ele>
        <time>2015-04-10T14:07:58Z</time>
      </trkpt>
      <trkpt lat="46.12146" lon="2.4596">
        <ele>487</ele>
        <time>2015-04-10T14:08:17Z</time>
      </trkpt>
      <trkpt lat="46.12145" lon="2.45959">
        <ele>487</ele>
        <time>2015-04-10T14:08:20Z</time>
      </trkpt>
      <trkpt lat="46.12144" lon="2.45958">
        <ele>487</ele>
        <time>2015-04-10T14:08:27Z</time>
      </trkpt>
      <trkpt lat="46.12142" lon="2.45956">
        <ele>487</ele>
        <time>2015-04-10T14:08:35Z</time>
      </trkpt>
      <trkpt lat="46.12139" lon="2.45951">
        <ele>487</ele>
        <time>2015-04-10T14:08:39Z</time>
      </trkpt>
      <trkpt lat="46.12138" lon="2.45949">
        <ele>487</ele>
        <time>2015-04-10T14:08:41Z</time>
      </trkpt>
      <trkpt lat="46.12136" lon="2.45944">
        <ele>487</ele>
        <time>2015-04-10T14:08:45Z</time>
      </trkpt>
      <trkpt lat="46.12135" lon="2.45942">
        <ele>487</ele>
        <time>2015-04-10T14:08:47Z</time>
      </trkpt>
      <trkpt lat="46.12131" lon="2.45937">
        <ele>487</ele>
        <time>2015-04-10T14:08:51Z</time>
      </trkpt>
      <trkpt lat="46.1213" lon="2.45935">
        <ele>487</ele>
        <time>2015-04-10T14:08:53Z</time>
      </trkpt>
      <trkpt lat="46.12126" lon="2.45931">
        <ele>487</ele>
        <time>2015-04-10T14:08:56Z</time>
      </trkpt>
      <trkpt lat="46.12124" lon="2.45928">
        <ele>487</ele>
        <time>2015-04-10T14:08:58Z</time>
      </trkpt>
      <trkpt lat="46.1212" lon="2.45923">
        <ele>487</ele>
        <time>2015-04-10T14:09:02Z</time>
      </trkpt>
      <trkpt lat="46.12119" lon="2.4592">
        <ele>487</ele>
        <time>2015-04-10T14:09:04Z</time>
      </trkpt>
      <trkpt lat="46.12116" lon="2.45917">
        <ele>487</ele>
        <time>2015-04-10T14:09:08Z</time>
      </trkpt>
      <trkpt lat="46.12115" lon="2.45915">
        <ele>487</ele>
        <time>2015-04-10T14:09:10Z</time>
      </trkpt>
      <trkpt lat="46.12113" lon="2.45913">
        <ele>487</ele>
        <time>2015-04-10T14:09:18Z</time>
      </trkpt>
      <trkpt lat="46.12111" lon="2.45907">
        <ele>487</ele>
        <time>2015-04-10T14:09:22Z</time>
      </trkpt>
      <trkpt lat="46.12109" lon="2.45905">
        <ele>487</ele>
        <time>2015-04-10T14:09:24Z</time>
      </trkpt>
      <trkpt lat="46.12107" lon="2.459">
        <ele>487</ele>
        <time>2015-04-10T14:09:27Z</time>
      </trkpt>
      <trkpt lat="46.12106" lon="2.45896">
        <ele>487</ele>
        <time>2015-04-10T14:09:30Z</time>
      </trkpt>
      <trkpt lat="46.12104" lon="2.45892">
        <ele>487</ele>
        <time>2015-04-10T14:09:34Z</time>
      </trkpt>
      <trkpt lat="46.12103" lon="2.4589">
        <ele>487</ele>
        <time>2015-04-10T14:09:36Z</time>
      </trkpt>
      <trkpt lat="46.12101" lon="2.45885">
        <ele>487</ele>
        <time>2015-04-10T14:09:39Z</time>
      </trkpt>
      <trkpt lat="46.121" lon="2.45883">
        <ele>487</ele>
        <time>2015-04-10T14:09:41Z</time>
      </trkpt>
      <trkpt lat="46.12097" lon="2.45878">
        <ele>487</ele>
        <time>2015-04-10T14:09:44Z</time>
      </trkpt>
      <trkpt lat="46.12096" lon="2.45874">
        <ele>487</ele>
        <time>2015-04-10T14:09:46Z</time>
      </trkpt>
      <trkpt lat="46.12093" lon="2.45868">
        <ele>487</ele>
        <time>2015-04-10T14:09:50Z</time>
      </trkpt>
      <trkpt lat="46.12092" lon="2.45866">
        <ele>488</ele>
        <time>2015-04-10T14:09:52Z</time>
      </trkpt>
      <trkpt lat="46.12089" lon="2.4586">
        <ele>488</ele>
        <time>2015-04-10T14:09:55Z</time>
      </trkpt>
      <trkpt lat="46.12088" lon="2.45858">
        <ele>488</ele>
        <time>2015-04-10T14:09:57Z</time>
      </trkpt>
      <trkpt lat="46.12087" lon="2.45855">
        <ele>489</ele>
        <time>2015-04-10T14:10:01Z</time>
      </trkpt>
      <trkpt lat="46.12086" lon="2.45855">
        <ele>490</ele>
        <time>2015-04-10T14:10:05Z</time>
      </trkpt>
      <trkpt lat="46.12085" lon="2.45854">
        <ele>490</ele>
        <time>2015-04-10T14:10:11Z</time>
      </trkpt>
      <trkpt lat="46.12085" lon="2.45856">
        <ele>490</ele>
        <time>2015-04-10T14:10:19Z</time>
      </trkpt>
      <trkpt lat="46.12084" lon="2.45854">
        <ele>490</ele>
        <time>2015-04-10T14:10:26Z</time>
      </trkpt>
      <trkpt lat="46.12082" lon="2.4585">
        <ele>490</ele>
        <time>2015-04-10T14:10:29Z</time>
      </trkpt>
      <trkpt lat="46.12081" lon="2.45847">
        <ele>490</ele>
        <time>2015-04-10T14:10:31Z</time>
      </trkpt>
      <trkpt lat="46.1208" lon="2.45845">
        <ele>490</ele>
        <time>2015-04-10T14:10:33Z</time>
      </trkpt>
      <trkpt lat="46.12079" lon="2.45842">
        <ele>490</ele>
        <time>2015-04-10T14:10:35Z</time>
      </trkpt>
      <trkpt lat="46.12077" lon="2.4584">
        <ele>490</ele>
        <time>2015-04-10T14:10:37Z</time>
      </trkpt>
      <trkpt lat="46.12076" lon="2.45837">
        <ele>490</ele>
        <time>2015-04-10T14:10:39Z</time>
      </trkpt>
      <trkpt lat="46.12074" lon="2.45834">
        <ele>490</ele>
        <time>2015-04-10T14:10:41Z</time>
      </trkpt>
      <trkpt lat="46.12073" lon="2.45831">
        <ele>490</ele>
        <time>2015-04-10T14:10:43Z</time>
      </trkpt>
      <trkpt lat="46.1207" lon="2.45827">
        <ele>490</ele>
        <time>2015-04-10T14:10:46Z</time>
      </trkpt>
      <trkpt lat="46.12068" lon="2.45825">
        <ele>490</ele>
        <time>2015-04-10T14:10:48Z</time>
      </trkpt>
      <trkpt lat="46.12066" lon="2.45821">
        <ele>490</ele>
        <time>2015-04-10T14:10:50Z</time>
      </trkpt>
      <trkpt lat="46.12064" lon="2.45816">
        <ele>490</ele>
        <time>2015-04-10T14:10:53Z</time>
      </trkpt>
      <trkpt lat="46.12063" lon="2.45813">
        <ele>491</ele>
        <time>2015-04-10T14:10:55Z</time>
      </trkpt>
      <trkpt lat="46.12061" lon="2.45808">
        <ele>492</ele>
        <time>2015-04-10T14:10:57Z</time>
      </trkpt>
      <trkpt lat="46.12059" lon="2.45804">
        <ele>493</ele>
        <time>2015-04-10T14:10:59Z</time>
      </trkpt>
      <trkpt lat="46.12057" lon="2.45801">
        <ele>494</ele>
        <time>2015-04-10T14:11:01Z</time>
      </trkpt>
      <trkpt lat="46.12054" lon="2.45797">
        <ele>495</ele>
        <time>2015-04-10T14:11:03Z</time>
      </trkpt>
      <trkpt lat="46.12053" lon="2.45794">
        <ele>495</ele>
        <time>2015-04-10T14:11:05Z</time>
      </trkpt>
      <trkpt lat="46.12051" lon="2.4579">
        <ele>495</ele>
        <time>2015-04-10T14:11:08Z</time>
      </trkpt>
      <trkpt lat="46.12049" lon="2.45786">
        <ele>495</ele>
        <time>2015-04-10T14:11:10Z</time>
      </trkpt>
      <trkpt lat="46.12047" lon="2.45784">
        <ele>496</ele>
        <time>2015-04-10T14:11:12Z</time>
      </trkpt>
      <trkpt lat="46.12046" lon="2.45782">
        <ele>496</ele>
        <time>2015-04-10T14:11:14Z</time>
      </trkpt>
      <trkpt lat="46.12043" lon="2.45777">
        <ele>496</ele>
        <time>2015-04-10T14:11:17Z</time>
      </trkpt>
      <trkpt lat="46.12042" lon="2.45773">
        <ele>496</ele>
        <time>2015-04-10T14:11:19Z</time>
      </trkpt>
      <trkpt lat="46.1204" lon="2.45771">
        <ele>496</ele>
        <time>2015-04-10T14:11:21Z</time>
      </trkpt>
      <trkpt lat="46.12039" lon="2.45768">
        <ele>496</ele>
        <time>2015-04-10T14:11:23Z</time>
      </trkpt>
      <trkpt lat="46.12036" lon="2.45764">
        <ele>496</ele>
        <time>2015-04-10T14:11:26Z</time>
      </trkpt>
      <trkpt lat="46.12035" lon="2.45762">
        <ele>496</ele>
        <time>2015-04-10T14:11:28Z</time>
      </trkpt>
      <trkpt lat="46.12034" lon="2.45759">
        <ele>496</ele>
        <time>2015-04-10T14:11:30Z</time>
      </trkpt>
      <trkpt lat="46.12033" lon="2.45754">
        <ele>497</ele>
        <time>2015-04-10T14:11:33Z</time>
      </trkpt>
      <trkpt lat="46.12032" lon="2.45751">
        <ele>497</ele>
        <time>2015-04-10T14:11:35Z</time>
      </trkpt>
      <trkpt lat="46.1203" lon="2.45747">
        <ele>497</ele>
        <time>2015-04-10T14:11:38Z</time>
      </trkpt>
      <trkpt lat="46.12027" lon="2.45743">
        <ele>498</ele>
        <time>2015-04-10T14:11:41Z</time>
      </trkpt>
      <trkpt lat="46.12026" lon="2.4574">
        <ele>498</ele>
        <time>2015-04-10T14:11:43Z</time>
      </trkpt>
      <trkpt lat="46.12024" lon="2.45738">
        <ele>498</ele>
        <time>2015-04-10T14:11:45Z</time>
      </trkpt>
      <trkpt lat="46.12023" lon="2.45736">
        <ele>498</ele>
        <time>2015-04-10T14:11:47Z</time>
      </trkpt>
      <trkpt lat="46.12021" lon="2.45733">
        <ele>499</ele>
        <time>2015-04-10T14:11:49Z</time>
      </trkpt>
      <trkpt lat="46.12019" lon="2.4573">
        <ele>499</ele>
        <time>2015-04-10T14:11:51Z</time>
      </trkpt>
      <trkpt lat="46.12018" lon="2.45727">
        <ele>499</ele>
        <time>2015-04-10T14:11:53Z</time>
      </trkpt>
      <trkpt lat="46.12016" lon="2.45725">
        <ele>499</ele>
        <time>2015-04-10T14:11:55Z</time>
      </trkpt>
      <trkpt lat="46.12014" lon="2.45722">
        <ele>500</ele>
        <time>2015-04-10T14:11:57Z</time>
      </trkpt>
      <trkpt lat="46.12011" lon="2.45719">
        <ele>500</ele>
        <time>2015-04-10T14:12:00Z</time>
      </trkpt>
      <trkpt lat="46.12009" lon="2.45717">
        <ele>500</ele>
        <time>2015-04-10T14:12:02Z</time>
      </trkpt>
      <trkpt lat="46.12007" lon="2.45714">
        <ele>500</ele>
        <time>2015-04-10T14:12:04Z</time>
      </trkpt>
      <trkpt lat="46.12005" lon="2.45712">
        <ele>500</ele>
        <time>2015-04-10T14:12:06Z</time>
      </trkpt>
      <trkpt lat="46.12003" lon="2.4571">
        <ele>500</ele>
        <time>2015-04-10T14:12:08Z</time>
      </trkpt>
      <trkpt lat="46.12" lon="2.45707">
        <ele>501</ele>
        <time>2015-04-10T14:12:10Z</time>
      </trkpt>
      <trkpt lat="46.11998" lon="2.45704">
        <ele>501</ele>
        <time>2015-04-10T14:12:12Z</time>
      </trkpt>
      <trkpt lat="46.11995" lon="2.45702">
        <ele>501</ele>
        <time>2015-04-10T14:12:14Z</time>
      </trkpt>
      <trkpt lat="46.11993" lon="2.45699">
        <ele>502</ele>
        <time>2015-04-10T14:12:16Z</time>
      </trkpt>
      <trkpt lat="46.11991" lon="2.45697">
        <ele>502</ele>
        <time>2015-04-10T14:12:18Z</time>
      </trkpt>
      <trkpt lat="46.11988" lon="2.45693">
        <ele>503</ele>
        <time>2015-04-10T14:12:21Z</time>
      </trkpt>
      <trkpt lat="46.11986" lon="2.45691">
        <ele>504</ele>
        <time>2015-04-10T14:12:29Z</time>
      </trkpt>
      <trkpt lat="46.11983" lon="2.45689">
        <ele>504</ele>
        <time>2015-04-10T14:12:32Z</time>
      </trkpt>
      <trkpt lat="46.1198" lon="2.45686">
        <ele>505</ele>
        <time>2015-04-10T14:12:34Z</time>
      </trkpt>
      <trkpt lat="46.11978" lon="2.45683">
        <ele>505</ele>
        <time>2015-04-10T14:12:36Z</time>
      </trkpt>
      <trkpt lat="46.11974" lon="2.45679">
        <ele>506</ele>
        <time>2015-04-10T14:12:39Z</time>
      </trkpt>
      <trkpt lat="46.11972" lon="2.45677">
        <ele>506</ele>
        <time>2015-04-10T14:12:41Z</time>
      </trkpt>
      <trkpt lat="46.11969" lon="2.45675">
        <ele>507</ele>
        <time>2015-04-10T14:12:43Z</time>
      </trkpt>
      <trkpt lat="46.11966" lon="2.45672">
        <ele>507</ele>
        <time>2015-04-10T14:12:45Z</time>
      </trkpt>
      <trkpt lat="46.11963" lon="2.45669">
        <ele>507</ele>
        <time>2015-04-10T14:12:47Z</time>
      </trkpt>
      <trkpt lat="46.1196" lon="2.45665">
        <ele>508</ele>
        <time>2015-04-10T14:12:50Z</time>
      </trkpt>
      <trkpt lat="46.11957" lon="2.45663">
        <ele>508</ele>
        <time>2015-04-10T14:12:52Z</time>
      </trkpt>
      <trkpt lat="46.11953" lon="2.45659">
        <ele>508</ele>
        <time>2015-04-10T14:12:55Z</time>
      </trkpt>
      <trkpt lat="46.1195" lon="2.45655">
        <ele>508</ele>
        <time>2015-04-10T14:12:58Z</time>
      </trkpt>
      <trkpt lat="46.11947" lon="2.45651">
        <ele>508</ele>
        <time>2015-04-10T14:13:01Z</time>
      </trkpt>
      <trkpt lat="46.11944" lon="2.45648">
        <ele>508</ele>
        <time>2015-04-10T14:13:03Z</time>
      </trkpt>
      <trkpt lat="46.11942" lon="2.45645">
        <ele>509</ele>
        <time>2015-04-10T14:13:05Z</time>
      </trkpt>
      <trkpt lat="46.11939" lon="2.45642">
        <ele>509</ele>
        <time>2015-04-10T14:13:07Z</time>
      </trkpt>
      <trkpt lat="46.11937" lon="2.4564">
        <ele>509</ele>
        <time>2015-04-10T14:13:09Z</time>
      </trkpt>
      <trkpt lat="46.11934" lon="2.45638">
        <ele>510</ele>
        <time>2015-04-10T14:13:11Z</time>
      </trkpt>
      <trkpt lat="46.11932" lon="2.45636">
        <ele>510</ele>
        <time>2015-04-10T14:13:13Z</time>
      </trkpt>
      <trkpt lat="46.11931" lon="2.45633">
        <ele>511</ele>
        <time>2015-04-10T14:13:15Z</time>
      </trkpt>
      <trkpt lat="46.11929" lon="2.45631">
        <ele>511</ele>
        <time>2015-04-10T14:13:17Z</time>
      </trkpt>
      <trkpt lat="46.11927" lon="2.45629">
        <ele>511</ele>
        <time>2015-04-10T14:13:19Z</time>
      </trkpt>
      <trkpt lat="46.11926" lon="2.45627">
        <ele>512</ele>
        <time>2015-04-10T14:13:22Z</time>
      </trkpt>
      <trkpt lat="46.11924" lon="2.45625">
        <ele>512</ele>
        <time>2015-04-10T14:13:24Z</time>
      </trkpt>
      <trkpt lat="46.11923" lon="2.45624">
        <ele>512</ele>
        <time>2015-04-10T14:13:26Z</time>
      </trkpt>
      <trkpt lat="46.11921" lon="2.45622">
        <ele>512</ele>
        <time>2015-04-10T14:13:28Z</time>
      </trkpt>
      <trkpt lat="46.1192" lon="2.4562">
        <ele>512</ele>
        <time>2015-04-10T14:13:30Z</time>
      </trkpt>
      <trkpt lat="46.11918" lon="2.45618">
        <ele>512</ele>
        <time>2015-04-10T14:13:32Z</time>
      </trkpt>
      <trkpt lat="46.11917" lon="2.45616">
        <ele>512</ele>
        <time>2015-04-10T14:13:34Z</time>
      </trkpt>
      <trkpt lat="46.11915" lon="2.45614">
        <ele>512</ele>
        <time>2015-04-10T14:13:36Z</time>
      </trkpt>
      <trkpt lat="46.11913" lon="2.45611">
        <ele>512</ele>
        <time>2015-04-10T14:13:38Z</time>
      </trkpt>
      <trkpt lat="46.11911" lon="2.45608">
        <ele>512</ele>
        <time>2015-04-10T14:13:40Z</time>
      </trkpt>
      <trkpt lat="46.11908" lon="2.45606">
        <ele>512</ele>
        <time>2015-04-10T14:13:42Z</time>
      </trkpt>
      <trkpt lat="46.11905" lon="2.45603">
        <ele>512</ele>
        <time>2015-04-10T14:13:44Z</time>
      </trkpt>
      <trkpt lat="46.11903" lon="2.45601">
        <ele>512</ele>
        <time>2015-04-10T14:13:46Z</time>
      </trkpt>
      <trkpt lat="46.11901" lon="2.456">
        <ele>512</ele>
        <time>2015-04-10T14:13:48Z</time>
      </trkpt>
      <trkpt lat="46.119" lon="2.45601">
        <ele>512</ele>
        <time>2015-04-10T14:13:50Z</time>
      </trkpt>
      <trkpt lat="46.11898" lon="2.45604">
        <ele>512</ele>
        <time>2015-04-10T14:13:52Z</time>
      </trkpt>
      <trkpt lat="46.11898" lon="2.45607">
        <ele>512</ele>
        <time>2015-04-10T14:13:54Z</time>
      </trkpt>
      <trkpt lat="46.11898" lon="2.45609">
        <ele>512</ele>
        <time>2015-04-10T14:13:56Z</time>
      </trkpt>
      <trkpt lat="46.11899" lon="2.45611">
        <ele>512</ele>
        <time>2015-04-10T14:14:03Z</time>
      </trkpt>
      <trkpt lat="46.11899" lon="2.45614">
        <ele>512</ele>
        <time>2015-04-10T14:14:05Z</time>
      </trkpt>
      <trkpt lat="46.11898" lon="2.45617">
        <ele>512</ele>
        <time>2015-04-10T14:14:07Z</time>
      </trkpt>
      <trkpt lat="46.11898" lon="2.45621">
        <ele>512</ele>
        <time>2015-04-10T14:14:09Z</time>
      </trkpt>
      <trkpt lat="46.11898" lon="2.45624">
        <ele>512</ele>
        <time>2015-04-10T14:14:11Z</time>
      </trkpt>
      <trkpt lat="46.11898" lon="2.45628">
        <ele>512</ele>
        <time>2015-04-10T14:14:13Z</time>
      </trkpt>
      <trkpt lat="46.11898" lon="2.45632">
        <ele>512</ele>
        <time>2015-04-10T14:14:15Z</time>
      </trkpt>
      <trkpt lat="46.11898" lon="2.45636">
        <ele>512</ele>
        <time>2015-04-10T14:14:17Z</time>
      </trkpt>
      <trkpt lat="46.11898" lon="2.4564">
        <ele>512</ele>
        <time>2015-04-10T14:14:19Z</time>
      </trkpt>
      <trkpt lat="46.11897" lon="2.45643">
        <ele>512</ele>
        <time>2015-04-10T14:14:21Z</time>
      </trkpt>
      <trkpt lat="46.11897" lon="2.45647">
        <ele>512</ele>
        <time>2015-04-10T14:14:23Z</time>
      </trkpt>
      <trkpt lat="46.11897" lon="2.45651">
        <ele>512</ele>
        <time>2015-04-10T14:14:25Z</time>
      </trkpt>
      <trkpt lat="46.11897" lon="2.45655">
        <ele>512</ele>
        <time>2015-04-10T14:14:27Z</time>
      </trkpt>
      <trkpt lat="46.11896" lon="2.45659">
        <ele>512</ele>
        <time>2015-04-10T14:14:29Z</time>
      </trkpt>
      <trkpt lat="46.11896" lon="2.45662">
        <ele>512</ele>
        <time>2015-04-10T14:14:31Z</time>
      </trkpt>
      <trkpt lat="46.11896" lon="2.45666">
        <ele>512</ele>
        <time>2015-04-10T14:14:33Z</time>
      </trkpt>
      <trkpt lat="46.11896" lon="2.4567">
        <ele>512</ele>
        <time>2015-04-10T14:14:35Z</time>
      </trkpt>
      <trkpt lat="46.11895" lon="2.45674">
        <ele>512</ele>
        <time>2015-04-10T14:14:37Z</time>
      </trkpt>
      <trkpt lat="46.11895" lon="2.45678">
        <ele>512</ele>
        <time>2015-04-10T14:14:39Z</time>
      </trkpt>
      <trkpt lat="46.11895" lon="2.45682">
        <ele>512</ele>
        <time>2015-04-10T14:14:41Z</time>
      </trkpt>
      <trkpt lat="46.11895" lon="2.45686">
        <ele>512</ele>
        <time>2015-04-10T14:14:43Z</time>
      </trkpt>
      <trkpt lat="46.11894" lon="2.4569">
        <ele>512</ele>
        <time>2015-04-10T14:14:45Z</time>
      </trkpt>
      <trkpt lat="46.11894" lon="2.45694">
        <ele>512</ele>
        <time>2015-04-10T14:14:47Z</time>
      </trkpt>
      <trkpt lat="46.11894" lon="2.45698">
        <ele>512</ele>
        <time>2015-04-10T14:14:49Z</time>
      </trkpt>
      <trkpt lat="46.11893" lon="2.45702">
        <ele>512</ele>
        <time>2015-04-10T14:14:51Z</time>
      </trkpt>
      <trkpt lat="46.11893" lon="2.45706">
        <ele>512</ele>
        <time>2015-04-10T14:14:53Z</time>
      </trkpt>
      <trkpt lat="46.11893" lon="2.4571">
        <ele>512</ele>
        <time>2015-04-10T14:14:55Z</time>
      </trkpt>
      <trkpt lat="46.11892" lon="2.45714">
        <ele>512</ele>
        <time>2015-04-10T14:14:57Z</time>
      </trkpt>
      <trkpt lat="46.11892" lon="2.45718">
        <ele>512</ele>
        <time>2015-04-10T14:14:59Z</time>
      </trkpt>
      <trkpt lat="46.11892" lon="2.45721">
        <ele>512</ele>
        <time>2015-04-10T14:15:01Z</time>
      </trkpt>
      <trkpt lat="46.11892" lon="2.45725">
        <ele>512</ele>
        <time>2015-04-10T14:15:03Z</time>
      </trkpt>
      <trkpt lat="46.11891" lon="2.45729">
        <ele>512</ele>
        <time>2015-04-10T14:15:05Z</time>
      </trkpt>
      <trkpt lat="46.11891" lon="2.45733">
        <ele>512</ele>
        <time>2015-04-10T14:15:07Z</time>
      </trkpt>
      <trkpt lat="46.11891" lon="2.45737">
        <ele>512</ele>
        <time>2015-04-10T14:15:09Z</time>
      </trkpt>
      <trkpt lat="46.1189" lon="2.4574">
        <ele>512</ele>
        <time>2015-04-10T14:15:11Z</time>
      </trkpt>
      <trkpt lat="46.1189" lon="2.45744">
        <ele>512</ele>
        <time>2015-04-10T14:15:13Z</time>
      </trkpt>
      <trkpt lat="46.1189" lon="2.45748">
        <ele>512</ele>
        <time>2015-04-10T14:15:15Z</time>
      </trkpt>
      <trkpt lat="46.1189" lon="2.45752">
        <ele>512</ele>
        <time>2015-04-10T14:15:17Z</time>
      </trkpt>
      <trkpt lat="46.11889" lon="2.45755">
        <ele>512</ele>
        <time>2015-04-10T14:15:19Z</time>
      </trkpt>
      <trkpt lat="46.11889" lon="2.45759">
        <ele>512</ele>
        <time>2015-04-10T14:15:21Z</time>
      </trkpt>
      <trkpt lat="46.11889" lon="2.45762">
        <ele>512</ele>
        <time>2015-04-10T14:15:23Z</time>
      </trkpt>
      <trkpt lat="46.11888" lon="2.45766">
        <ele>512</ele>
        <time>2015-04-10T14:15:25Z</time>
      </trkpt>
      <trkpt lat="46.11888" lon="2.4577">
        <ele>512</ele>
        <time>2015-04-10T14:15:27Z</time>
      </trkpt>
      <trkpt lat="46.11888" lon="2.45773">
        <ele>512</ele>
        <time>2015-04-10T14:15:29Z</time>
      </trkpt>
      <trkpt lat="46.11887" lon="2.45777">
        <ele>512</ele>
        <time>2015-04-10T14:15:31Z</time>
      </trkpt>
      <trkpt lat="46.11887" lon="2.4578">
        <ele>512</ele>
        <time>2015-04-10T14:15:33Z</time>
      </trkpt>
      <trkpt lat="46.11887" lon="2.45784">
        <ele>511</ele>
        <time>2015-04-10T14:15:35Z</time>
      </trkpt>
      <trkpt lat="46.11887" lon="2.45787">
        <ele>511</ele>
        <time>2015-04-10T14:15:37Z</time>
      </trkpt>
      <trkpt lat="46.11887" lon="2.45791">
        <ele>511</ele>
        <time>2015-04-10T14:15:39Z</time>
      </trkpt>
      <trkpt lat="46.11886" lon="2.45795">
        <ele>511</ele>
        <time>2015-04-10T14:15:41Z</time>
      </trkpt>
      <trkpt lat="46.11886" lon="2.45799">
        <ele>510</ele>
        <time>2015-04-10T14:15:43Z</time>
      </trkpt>
      <trkpt lat="46.11886" lon="2.45802">
        <ele>510</ele>
        <time>2015-04-10T14:15:45Z</time>
      </trkpt>
      <trkpt lat="46.11886" lon="2.45807">
        <ele>510</ele>
        <time>2015-04-10T14:15:47Z</time>
      </trkpt>
      <trkpt lat="46.11886" lon="2.45811">
        <ele>510</ele>
        <time>2015-04-10T14:15:49Z</time>
      </trkpt>
      <trkpt lat="46.11886" lon="2.45814">
        <ele>510</ele>
        <time>2015-04-10T14:15:51Z</time>
      </trkpt>
      <trkpt lat="46.11885" lon="2.45819">
        <ele>509</ele>
        <time>2015-04-10T14:15:53Z</time>
      </trkpt>
      <trkpt lat="46.11885" lon="2.45823">
        <ele>509</ele>
        <time>2015-04-10T14:15:55Z</time>
      </trkpt>
      <trkpt lat="46.11885" lon="2.45827">
        <ele>509</ele>
        <time>2015-04-10T14:15:57Z</time>
      </trkpt>
      <trkpt lat="46.11885" lon="2.45831">
        <ele>509</ele>
        <time>2015-04-10T14:15:59Z</time>
      </trkpt>
      <trkpt lat="46.11885" lon="2.45835">
        <ele>509</ele>
        <time>2015-04-10T14:16:01Z</time>
      </trkpt>
      <trkpt lat="46.11885" lon="2.45839">
        <ele>508</ele>
        <time>2015-04-10T14:16:03Z</time>
      </trkpt>
      <trkpt lat="46.11885" lon="2.45843">
        <ele>508</ele>
        <time>2015-04-10T14:16:05Z</time>
      </trkpt>
      <trkpt lat="46.11885" lon="2.45848">
        <ele>507</ele>
        <time>2015-04-10T14:16:07Z</time>
      </trkpt>
      <trkpt lat="46.11885" lon="2.45852">
        <ele>507</ele>
        <time>2015-04-10T14:16:09Z</time>
      </trkpt>
      <trkpt lat="46.11885" lon="2.45856">
        <ele>507</ele>
        <time>2015-04-10T14:16:11Z</time>
      </trkpt>
      <trkpt lat="46.11884" lon="2.4586">
        <ele>506</ele>
        <time>2015-04-10T14:16:13Z</time>
      </trkpt>
      <trkpt lat="46.11885" lon="2.45865">
        <ele>506</ele>
        <time>2015-04-10T14:16:15Z</time>
      </trkpt>
      <trkpt lat="46.11885" lon="2.45868">
        <ele>506</ele>
        <time>2015-04-10T14:16:17Z</time>
      </trkpt>
      <trkpt lat="46.11884" lon="2.45873">
        <ele>505</ele>
        <time>2015-04-10T14:16:19Z</time>
      </trkpt>
      <trkpt lat="46.11884" lon="2.45877">
        <ele>505</ele>
        <time>2015-04-10T14:16:21Z</time>
      </trkpt>
      <trkpt lat="46.11884" lon="2.45881">
        <ele>505</ele>
        <time>2015-04-10T14:16:23Z</time>
      </trkpt>
      <trkpt lat="46.11884" lon="2.45885">
        <ele>505</ele>
        <time>2015-04-10T14:16:25Z</time>
      </trkpt>
      <trkpt lat="46.11884" lon="2.4589">
        <ele>504</ele>
        <time>2015-04-10T14:16:27Z</time>
      </trkpt>
      <trkpt lat="46.11885" lon="2.45894">
        <ele>504</ele>
        <time>2015-04-10T14:16:29Z</time>
      </trkpt>
      <trkpt lat="46.11885" lon="2.45898">
        <ele>504</ele>
        <time>2015-04-10T14:16:31Z</time>
      </trkpt>
      <trkpt lat="46.11885" lon="2.45902">
        <ele>504</ele>
        <time>2015-04-10T14:16:33Z</time>
      </trkpt>
      <trkpt lat="46.11886" lon="2.45907">
        <ele>503</ele>
        <time>2015-04-10T14:16:35Z</time>
      </trkpt>
      <trkpt lat="46.11886" lon="2.45911">
        <ele>503</ele>
        <time>2015-04-10T14:16:37Z</time>
      </trkpt>
      <trkpt lat="46.11887" lon="2.45915">
        <ele>503</ele>
        <time>2015-04-10T14:16:39Z</time>
      </trkpt>
      <trkpt lat="46.11888" lon="2.45919">
        <ele>503</ele>
        <time>2015-04-10T14:16:41Z</time>
      </trkpt>
      <trkpt lat="46.11888" lon="2.45924">
        <ele>502</ele>
        <time>2015-04-10T14:16:43Z</time>
      </trkpt>
      <trkpt lat="46.11889" lon="2.45928">
        <ele>502</ele>
        <time>2015-04-10T14:16:45Z</time>
      </trkpt>
      <trkpt lat="46.1189" lon="2.45932">
        <ele>502</ele>
        <time>2015-04-10T14:16:47Z</time>
      </trkpt>
      <trkpt lat="46.11891" lon="2.45936">
        <ele>502</ele>
        <time>2015-04-10T14:16:49Z</time>
      </trkpt>
      <trkpt lat="46.11891" lon="2.4594">
        <ele>502</ele>
        <time>2015-04-10T14:16:51Z</time>
      </trkpt>
      <trkpt lat="46.11892" lon="2.45944">
        <ele>501</ele>
        <time>2015-04-10T14:16:53Z</time>
      </trkpt>
      <trkpt lat="46.11893" lon="2.45948">
        <ele>501</ele>
        <time>2015-04-10T14:16:55Z</time>
      </trkpt>
      <trkpt lat="46.11893" lon="2.45952">
        <ele>500</ele>
        <time>2015-04-10T14:16:57Z</time>
      </trkpt>
      <trkpt lat="46.11893" lon="2.45956">
        <ele>500</ele>
        <time>2015-04-10T14:16:59Z</time>
      </trkpt>
      <trkpt lat="46.11894" lon="2.45961">
        <ele>500</ele>
        <time>2015-04-10T14:17:01Z</time>
      </trkpt>
      <trkpt lat="46.11894" lon="2.45965">
        <ele>500</ele>
        <time>2015-04-10T14:17:03Z</time>
      </trkpt>
      <trkpt lat="46.11893" lon="2.4597">
        <ele>499</ele>
        <time>2015-04-10T14:17:05Z</time>
      </trkpt>
      <trkpt lat="46.11893" lon="2.45974">
        <ele>499</ele>
        <time>2015-04-10T14:17:07Z</time>
      </trkpt>
      <trkpt lat="46.11892" lon="2.45978">
        <ele>499</ele>
        <time>2015-04-10T14:17:09Z</time>
      </trkpt>
      <trkpt lat="46.11891" lon="2.45982">
        <ele>499</ele>
        <time>2015-04-10T14:17:11Z</time>
      </trkpt>
      <trkpt lat="46.1189" lon="2.45986">
        <ele>499</ele>
        <time>2015-04-10T14:17:13Z</time>
      </trkpt>
      <trkpt lat="46.11889" lon="2.4599">
        <ele>499</ele>
        <time>2015-04-10T14:17:15Z</time>
      </trkpt>
      <trkpt lat="46.11888" lon="2.45993">
        <ele>499</ele>
        <time>2015-04-10T14:17:17Z</time>
      </trkpt>
      <trkpt lat="46.11887" lon="2.45997">
        <ele>499</ele>
        <time>2015-04-10T14:17:19Z</time>
      </trkpt>
      <trkpt lat="46.11885" lon="2.46001">
        <ele>499</ele>
        <time>2015-04-10T14:17:21Z</time>
      </trkpt>
      <trkpt lat="46.11883" lon="2.46004">
        <ele>499</ele>
        <time>2015-04-10T14:17:23Z</time>
      </trkpt>
      <trkpt lat="46.11881" lon="2.46007">
        <ele>498</ele>
        <time>2015-04-10T14:17:25Z</time>
      </trkpt>
      <trkpt lat="46.11877" lon="2.4601">
        <ele>498</ele>
        <time>2015-04-10T14:17:28Z</time>
      </trkpt>
      <trkpt lat="46.11875" lon="2.46012">
        <ele>498</ele>
        <time>2015-04-10T14:17:30Z</time>
      </trkpt>
      <trkpt lat="46.11873" lon="2.46015">
        <ele>498</ele>
        <time>2015-04-10T14:17:32Z</time>
      </trkpt>
      <trkpt lat="46.1187" lon="2.46018">
        <ele>498</ele>
        <time>2015-04-10T14:17:34Z</time>
      </trkpt>
      <trkpt lat="46.11868" lon="2.46021">
        <ele>498</ele>
        <time>2015-04-10T14:17:36Z</time>
      </trkpt>
      <trkpt lat="46.11865" lon="2.46025">
        <ele>498</ele>
        <time>2015-04-10T14:17:39Z</time>
      </trkpt>
      <trkpt lat="46.11863" lon="2.46028">
        <ele>498</ele>
        <time>2015-04-10T14:17:41Z</time>
      </trkpt>
      <trkpt lat="46.11861" lon="2.46031">
        <ele>497</ele>
        <time>2015-04-10T14:17:43Z</time>
      </trkpt>
      <trkpt lat="46.11858" lon="2.46034">
        <ele>497</ele>
        <time>2015-04-10T14:17:45Z</time>
      </trkpt>
      <trkpt lat="46.11854" lon="2.46038">
        <ele>497</ele>
        <time>2015-04-10T14:17:48Z</time>
      </trkpt>
      <trkpt lat="46.11852" lon="2.46041">
        <ele>497</ele>
        <time>2015-04-10T14:17:50Z</time>
      </trkpt>
      <trkpt lat="46.1185" lon="2.46044">
        <ele>497</ele>
        <time>2015-04-10T14:17:52Z</time>
      </trkpt>
      <trkpt lat="46.11848" lon="2.46048">
        <ele>497</ele>
        <time>2015-04-10T14:17:54Z</time>
      </trkpt>
      <trkpt lat="46.11846" lon="2.46051">
        <ele>497</ele>
        <time>2015-04-10T14:17:56Z</time>
      </trkpt>
      <trkpt lat="46.11844" lon="2.46055">
        <ele>497</ele>
        <time>2015-04-10T14:17:59Z</time>
      </trkpt>
      <trkpt lat="46.11842" lon="2.46059">
        <ele>497</ele>
        <time>2015-04-10T14:18:01Z</time>
      </trkpt>
      <trkpt lat="46.1184" lon="2.46062">
        <ele>497</ele>
        <time>2015-04-10T14:18:03Z</time>
      </trkpt>
      <trkpt lat="46.11839" lon="2.46065">
        <ele>497</ele>
        <time>2015-04-10T14:18:05Z</time>
      </trkpt>
      <trkpt lat="46.11837" lon="2.46069">
        <ele>497</ele>
        <time>2015-04-10T14:18:07Z</time>
      </trkpt>
      <trkpt lat="46.11835" lon="2.46072">
        <ele>497</ele>
        <time>2015-04-10T14:18:09Z</time>
      </trkpt>
      <trkpt lat="46.11834" lon="2.46076">
        <ele>497</ele>
        <time>2015-04-10T14:18:11Z</time>
      </trkpt>
      <trkpt lat="46.11832" lon="2.46079">
        <ele>497</ele>
        <time>2015-04-10T14:18:13Z</time>
      </trkpt>
      <trkpt lat="46.11831" lon="2.46083">
        <ele>497</ele>
        <time>2015-04-10T14:18:15Z</time>
      </trkpt>
      <trkpt lat="46.1183" lon="2.46087">
        <ele>497</ele>
        <time>2015-04-10T14:18:17Z</time>
      </trkpt>
      <trkpt lat="46.11829" lon="2.4609">
        <ele>497</ele>
        <time>2015-04-10T14:18:19Z</time>
      </trkpt>
      <trkpt lat="46.11827" lon="2.46094">
        <ele>497</ele>
        <time>2015-04-10T14:18:21Z</time>
      </trkpt>
      <trkpt lat="46.11826" lon="2.46097">
        <ele>497</ele>
        <time>2015-04-10T14:18:23Z</time>
      </trkpt>
      <trkpt lat="46.11825" lon="2.46101">
        <ele>497</ele>
        <time>2015-04-10T14:18:25Z</time>
      </trkpt>
      <trkpt lat="46.11824" lon="2.46105">
        <ele>497</ele>
        <time>2015-04-10T14:18:27Z</time>
      </trkpt>
      <trkpt lat="46.11824" lon="2.46108">
        <ele>497</ele>
        <time>2015-04-10T14:18:29Z</time>
      </trkpt>
      <trkpt lat="46.11823" lon="2.46112">
        <ele>497</ele>
        <time>2015-04-10T14:18:31Z</time>
      </trkpt>
      <trkpt lat="46.11822" lon="2.46115">
        <ele>497</ele>
        <time>2015-04-10T14:18:33Z</time>
      </trkpt>
      <trkpt lat="46.11821" lon="2.46119">
        <ele>497</ele>
        <time>2015-04-10T14:18:35Z</time>
      </trkpt>
      <trkpt lat="46.11821" lon="2.46122">
        <ele>497</ele>
        <time>2015-04-10T14:18:37Z</time>
      </trkpt>
      <trkpt lat="46.1182" lon="2.46126">
        <ele>497</ele>
        <time>2015-04-10T14:18:39Z</time>
      </trkpt>
      <trkpt lat="46.11819" lon="2.4613">
        <ele>497</ele>
        <time>2015-04-10T14:18:41Z</time>
      </trkpt>
      <trkpt lat="46.11818" lon="2.46133">
        <ele>497</ele>
        <time>2015-04-10T14:18:43Z</time>
      </trkpt>
      <trkpt lat="46.11818" lon="2.46137">
        <ele>497</ele>
        <time>2015-04-10T14:18:45Z</time>
      </trkpt>
      <trkpt lat="46.11818" lon="2.46142">
        <ele>497</ele>
        <time>2015-04-10T14:18:47Z</time>
      </trkpt>
      <trkpt lat="46.11817" lon="2.46146">
        <ele>497</ele>
        <time>2015-04-10T14:18:49Z</time>
      </trkpt>
      <trkpt lat="46.11816" lon="2.4615">
        <ele>497</ele>
        <time>2015-04-10T14:18:51Z</time>
      </trkpt>
      <trkpt lat="46.11816" lon="2.46153">
        <ele>497</ele>
        <time>2015-04-10T14:18:53Z</time>
      </trkpt>
      <trkpt lat="46.11816" lon="2.46157">
        <ele>497</ele>
        <time>2015-04-10T14:18:55Z</time>
      </trkpt>
      <trkpt lat="46.11816" lon="2.46161">
        <ele>497</ele>
        <time>2015-04-10T14:18:57Z</time>
      </trkpt>
      <trkpt lat="46.11816" lon="2.46164">
        <ele>497</ele>
        <time>2015-04-10T14:18:59Z</time>
      </trkpt>
      <trkpt lat="46.11816" lon="2.46168">
        <ele>497</ele>
        <time>2015-04-10T14:19:01Z</time>
      </trkpt>
      <trkpt lat="46.11816" lon="2.46172">
        <ele>497</ele>
        <time>2015-04-10T14:19:03Z</time>
      </trkpt>
      <trkpt lat="46.11816" lon="2.46176">
        <ele>497</ele>
        <time>2015-04-10T14:19:05Z</time>
      </trkpt>
      <trkpt lat="46.11816" lon="2.4618">
        <ele>497</ele>
        <time>2015-04-10T14:19:07Z</time>
      </trkpt>
      <trkpt lat="46.11816" lon="2.46184">
        <ele>497</ele>
        <time>2015-04-10T14:19:09Z</time>
      </trkpt>
      <trkpt lat="46.11816" lon="2.46188">
        <ele>497</ele>
        <time>2015-04-10T14:19:11Z</time>
      </trkpt>
      <trkpt lat="46.11817" lon="2.46192">
        <ele>498</ele>
        <time>2015-04-10T14:19:13Z</time>
      </trkpt>
      <trkpt lat="46.11817" lon="2.46196">
        <ele>498</ele>
        <time>2015-04-10T14:19:15Z</time>
      </trkpt>
      <trkpt lat="46.11818" lon="2.462">
        <ele>498</ele>
        <time>2015-04-10T14:19:17Z</time>
      </trkpt>
      <trkpt lat="46.11818" lon="2.46204">
        <ele>498</ele>
        <time>2015-04-10T14:19:19Z</time>
      </trkpt>
      <trkpt lat="46.11818" lon="2.46207">
        <ele>499</ele>
        <time>2015-04-10T14:19:21Z</time>
      </trkpt>
      <trkpt lat="46.11818" lon="2.46211">
        <ele>499</ele>
        <time>2015-04-10T14:19:23Z</time>
      </trkpt>
      <trkpt lat="46.11819" lon="2.46215">
        <ele>500</ele>
        <time>2015-04-10T14:19:25Z</time>
      </trkpt>
      <trkpt lat="46.11819" lon="2.46219">
        <ele>500</ele>
        <time>2015-04-10T14:19:27Z</time>
      </trkpt>
      <trkpt lat="46.11819" lon="2.46223">
        <ele>500</ele>
        <time>2015-04-10T14:19:29Z</time>
      </trkpt>
      <trkpt lat="46.11819" lon="2.46227">
        <ele>500</ele>
        <time>2015-04-10T14:19:31Z</time>
      </trkpt>
      <trkpt lat="46.1182" lon="2.4623">
        <ele>501</ele>
        <time>2015-04-10T14:19:33Z</time>
      </trkpt>
      <trkpt lat="46.1182" lon="2.46234">
        <ele>501</ele>
        <time>2015-04-10T14:19:35Z</time>
      </trkpt>
      <trkpt lat="46.1182" lon="2.46237">
        <ele>501</ele>
        <time>2015-04-10T14:19:37Z</time>
      </trkpt>
      <trkpt lat="46.1182" lon="2.46241">
        <ele>501</ele>
        <time>2015-04-10T14:19:39Z</time>
      </trkpt>
      <trkpt lat="46.1182" lon="2.46245">
        <ele>502</ele>
        <time>2015-04-10T14:19:41Z</time>
      </trkpt>
      <trkpt lat="46.11821" lon="2.46249">
        <ele>502</ele>
        <time>2015-04-10T14:19:43Z</time>
      </trkpt>
      <trkpt lat="46.11821" lon="2.46253">
        <ele>502</ele>
        <time>2015-04-10T14:19:45Z</time>
      </trkpt>
      <trkpt lat="46.11821" lon="2.46256">
        <ele>502</ele>
        <time>2015-04-10T14:19:47Z</time>
      </trkpt>
      <trkpt lat="46.11822" lon="2.4626">
        <ele>502</ele>
        <time>2015-04-10T14:19:49Z</time>
      </trkpt>
      <trkpt lat="46.11822" lon="2.46264">
        <ele>503</ele>
        <time>2015-04-10T14:19:51Z</time>
      </trkpt>
      <trkpt lat="46.11822" lon="2.46267">
        <ele>503</ele>
        <time>2015-04-10T14:19:53Z</time>
      </trkpt>
      <trkpt lat="46.11822" lon="2.46271">
        <ele>503</ele>
        <time>2015-04-10T14:19:55Z</time>
      </trkpt>
      <trkpt lat="46.11822" lon="2.46274">
        <ele>503</ele>
        <time>2015-04-10T14:19:57Z</time>
      </trkpt>
      <trkpt lat="46.11822" lon="2.46278">
        <ele>503</ele>
        <time>2015-04-10T14:19:59Z</time>
      </trkpt>
      <trkpt lat="46.11822" lon="2.46282">
        <ele>503</ele>
        <time>2015-04-10T14:20:01Z</time>
      </trkpt>
      <trkpt lat="46.11823" lon="2.46286">
        <ele>503</ele>
        <time>2015-04-10T14:20:03Z</time>
      </trkpt>
      <trkpt lat="46.11823" lon="2.4629">
        <ele>504</ele>
        <time>2015-04-10T14:20:05Z</time>
      </trkpt>
      <trkpt lat="46.11823" lon="2.46294">
        <ele>504</ele>
        <time>2015-04-10T14:20:07Z</time>
      </trkpt>
      <trkpt lat="46.11823" lon="2.46299">
        <ele>505</ele>
        <time>2015-04-10T14:20:09Z</time>
      </trkpt>
      <trkpt lat="46.11823" lon="2.46304">
        <ele>506</ele>
        <time>2015-04-10T14:20:11Z</time>
      </trkpt>
      <trkpt lat="46.11823" lon="2.46308">
        <ele>506</ele>
        <time>2015-04-10T14:20:13Z</time>
      </trkpt>
      <trkpt lat="46.11823" lon="2.46311">
        <ele>507</ele>
        <time>2015-04-10T14:20:15Z</time>
      </trkpt>
      <trkpt lat="46.11823" lon="2.46315">
        <ele>507</ele>
        <time>2015-04-10T14:20:17Z</time>
      </trkpt>
      <trkpt lat="46.11823" lon="2.46319">
        <ele>507</ele>
        <time>2015-04-10T14:20:19Z</time>
      </trkpt>
      <trkpt lat="46.11823" lon="2.46323">
        <ele>507</ele>
        <time>2015-04-10T14:20:21Z</time>
      </trkpt>
      <trkpt lat="46.11823" lon="2.46327">
        <ele>508</ele>
        <time>2015-04-10T14:20:23Z</time>
      </trkpt>
      <trkpt lat="46.11823" lon="2.46331">
        <ele>508</ele>
        <time>2015-04-10T14:20:25Z</time>
      </trkpt>
      <trkpt lat="46.11823" lon="2.46335">
        <ele>508</ele>
        <time>2015-04-10T14:20:27Z</time>
      </trkpt>
      <trkpt lat="46.11823" lon="2.46339">
        <ele>508</ele>
        <time>2015-04-10T14:20:29Z</time>
      </trkpt>
      <trkpt lat="46.11824" lon="2.46343">
        <ele>508</ele>
        <time>2015-04-10T14:20:31Z</time>
      </trkpt>
      <trkpt lat="46.11824" lon="2.46347">
        <ele>508</ele>
        <time>2015-04-10T14:20:33Z</time>
      </trkpt>
      <trkpt lat="46.11825" lon="2.46351">
        <ele>508</ele>
        <time>2015-04-10T14:20:35Z</time>
      </trkpt>
      <trkpt lat="46.11825" lon="2.46355">
        <ele>508</ele>
        <time>2015-04-10T14:20:37Z</time>
      </trkpt>
      <trkpt lat="46.11825" lon="2.46359">
        <ele>508</ele>
        <time>2015-04-10T14:20:39Z</time>
      </trkpt>
      <trkpt lat="46.11826" lon="2.46363">
        <ele>508</ele>
        <time>2015-04-10T14:20:41Z</time>
      </trkpt>
      <trkpt lat="46.11826" lon="2.46367">
        <ele>508</ele>
        <time>2015-04-10T14:20:43Z</time>
      </trkpt>
      <trkpt lat="46.11826" lon="2.4637">
        <ele>508</ele>
        <time>2015-04-10T14:20:45Z</time>
      </trkpt>
      <trkpt lat="46.11827" lon="2.46373">
        <ele>508</ele>
        <time>2015-04-10T14:20:47Z</time>
      </trkpt>
      <trkpt lat="46.11827" lon="2.46378">
        <ele>508</ele>
        <time>2015-04-10T14:20:49Z</time>
      </trkpt>
      <trkpt lat="46.11827" lon="2.46382">
        <ele>508</ele>
        <time>2015-04-10T14:20:51Z</time>
      </trkpt>
      <trkpt lat="46.11827" lon="2.46387">
        <ele>509</ele>
        <time>2015-04-10T14:20:53Z</time>
      </trkpt>
      <trkpt lat="46.11828" lon="2.46391">
        <ele>509</ele>
        <time>2015-04-10T14:20:55Z</time>
      </trkpt>
      <trkpt lat="46.11828" lon="2.46394">
        <ele>510</ele>
        <time>2015-04-10T14:20:57Z</time>
      </trkpt>
      <trkpt lat="46.11829" lon="2.46398">
        <ele>510</ele>
        <time>2015-04-10T14:20:59Z</time>
      </trkpt>
      <trkpt lat="46.11829" lon="2.46402">
        <ele>510</ele>
        <time>2015-04-10T14:21:01Z</time>
      </trkpt>
      <trkpt lat="46.11829" lon="2.46406">
        <ele>510</ele>
        <time>2015-04-10T14:21:03Z</time>
      </trkpt>
      <trkpt lat="46.1183" lon="2.4641">
        <ele>510</ele>
        <time>2015-04-10T14:21:05Z</time>
      </trkpt>
      <trkpt lat="46.1183" lon="2.46414">
        <ele>510</ele>
        <time>2015-04-10T14:21:07Z</time>
      </trkpt>
      <trkpt lat="46.1183" lon="2.46418">
        <ele>510</ele>
        <time>2015-04-10T14:21:09Z</time>
      </trkpt>
      <trkpt lat="46.1183" lon="2.46422">
        <ele>510</ele>
        <time>2015-04-10T14:21:11Z</time>
      </trkpt>
      <trkpt lat="46.1183" lon="2.46426">
        <ele>510</ele>
        <time>2015-04-10T14:21:13Z</time>
      </trkpt>
      <trkpt lat="46.1183" lon="2.46429">
        <ele>510</ele>
        <time>2015-04-10T14:21:15Z</time>
      </trkpt>
      <trkpt lat="46.1183" lon="2.46433">
        <ele>510</ele>
        <time>2015-04-10T14:21:17Z</time>
      </trkpt>
      <trkpt lat="46.1183" lon="2.46437">
        <ele>510</ele>
        <time>2015-04-10T14:21:19Z</time>
      </trkpt>
      <trkpt lat="46.1183" lon="2.46441">
        <ele>510</ele>
        <time>2015-04-10T14:21:21Z</time>
      </trkpt>
      <trkpt lat="46.1183" lon="2.46445">
        <ele>510</ele>
        <time>2015-04-10T14:21:23Z</time>
      </trkpt>
      <trkpt lat="46.1183" lon="2.46448">
        <ele>510</ele>
        <time>2015-04-10T14:21:25Z</time>
      </trkpt>
      <trkpt lat="46.11829" lon="2.46452">
        <ele>510</ele>
        <time>2015-04-10T14:21:27Z</time>
      </trkpt>
      <trkpt lat="46.11829" lon="2.46456">
        <ele>510</ele>
        <time>2015-04-10T14:21:29Z</time>
      </trkpt>
      <trkpt lat="46.11829" lon="2.4646">
        <ele>510</ele>
        <time>2015-04-10T14:21:31Z</time>
      </trkpt>
      <trkpt lat="46.11829" lon="2.46464">
        <ele>510</ele>
        <time>2015-04-10T14:21:33Z</time>
      </trkpt>
      <trkpt lat="46.11829" lon="2.46468">
        <ele>510</ele>
        <time>2015-04-10T14:21:35Z</time>
      </trkpt>
      <trkpt lat="46.11828" lon="2.46472">
        <ele>510</ele>
        <time>2015-04-10T14:21:37Z</time>
      </trkpt>
      <trkpt lat="46.11827" lon="2.46476">
        <ele>510</ele>
        <time>2015-04-10T14:21:39Z</time>
      </trkpt>
      <trkpt lat="46.11827" lon="2.4648">
        <ele>510</ele>
        <time>2015-04-10T14:21:41Z</time>
      </trkpt>
      <trkpt lat="46.11826" lon="2.46483">
        <ele>510</ele>
        <time>2015-04-10T14:21:43Z</time>
      </trkpt>
      <trkpt lat="46.11826" lon="2.46487">
        <ele>510</ele>
        <time>2015-04-10T14:21:45Z</time>
      </trkpt>
      <trkpt lat="46.11825" lon="2.46491">
        <ele>510</ele>
        <time>2015-04-10T14:21:47Z</time>
      </trkpt>
      <trkpt lat="46.11824" lon="2.46495">
        <ele>510</ele>
        <time>2015-04-10T14:21:49Z</time>
      </trkpt>
      <trkpt lat="46.11824" lon="2.46498">
        <ele>510</ele>
        <time>2015-04-10T14:21:51Z</time>
      </trkpt>
      <trkpt lat="46.11823" lon="2.46501">
        <ele>510</ele>
        <time>2015-04-10T14:21:53Z</time>
      </trkpt>
      <trkpt lat="46.11823" lon="2.46504">
        <ele>510</ele>
        <time>2015-04-10T14:21:55Z</time>
      </trkpt>
      <trkpt lat="46.11823" lon="2.46507">
        <ele>511</ele>
        <time>2015-04-10T14:21:57Z</time>
      </trkpt>
      <trkpt lat="46.11822" lon="2.46511">
        <ele>511</ele>
        <time>2015-04-10T14:21:59Z</time>
      </trkpt>
      <trkpt lat="46.11821" lon="2.46515">
        <ele>511</ele>
        <time>2015-04-10T14:22:01Z</time>
      </trkpt>
      <trkpt lat="46.11821" lon="2.46518">
        <ele>512</ele>
        <time>2015-04-10T14:22:03Z</time>
      </trkpt>
      <trkpt lat="46.1182" lon="2.46521">
        <ele>512</ele>
        <time>2015-04-10T14:22:05Z</time>
      </trkpt>
      <trkpt lat="46.11819" lon="2.46525">
        <ele>512</ele>
        <time>2015-04-10T14:22:07Z</time>
      </trkpt>
      <trkpt lat="46.11819" lon="2.46529">
        <ele>512</ele>
        <time>2015-04-10T14:22:09Z</time>
      </trkpt>
      <trkpt lat="46.11819" lon="2.46533">
        <ele>513</ele>
        <time>2015-04-10T14:22:11Z</time>
      </trkpt>
      <trkpt lat="46.11818" lon="2.46536">
        <ele>513</ele>
        <time>2015-04-10T14:22:13Z</time>
      </trkpt>
      <trkpt lat="46.11817" lon="2.4654">
        <ele>513</ele>
        <time>2015-04-10T14:22:15Z</time>
      </trkpt>
      <trkpt lat="46.11817" lon="2.46543">
        <ele>513</ele>
        <time>2015-04-10T14:22:17Z</time>
      </trkpt>
      <trkpt lat="46.11816" lon="2.46547">
        <ele>513</ele>
        <time>2015-04-10T14:22:19Z</time>
      </trkpt>
      <trkpt lat="46.11816" lon="2.46551">
        <ele>513</ele>
        <time>2015-04-10T14:22:21Z</time>
      </trkpt>
      <trkpt lat="46.11815" lon="2.46555">
        <ele>513</ele>
        <time>2015-04-10T14:22:23Z</time>
      </trkpt>
      <trkpt lat="46.11815" lon="2.46558">
        <ele>513</ele>
        <time>2015-04-10T14:22:25Z</time>
      </trkpt>
      <trkpt lat="46.11814" lon="2.46562">
        <ele>514</ele>
        <time>2015-04-10T14:22:27Z</time>
      </trkpt>
      <trkpt lat="46.11813" lon="2.46566">
        <ele>514</ele>
        <time>2015-04-10T14:22:29Z</time>
      </trkpt>
      <trkpt lat="46.11813" lon="2.46569">
        <ele>514</ele>
        <time>2015-04-10T14:22:31Z</time>
      </trkpt>
      <trkpt lat="46.11812" lon="2.46573">
        <ele>514</ele>
        <time>2015-04-10T14:22:33Z</time>
      </trkpt>
      <trkpt lat="46.11812" lon="2.46577">
        <ele>514</ele>
        <time>2015-04-10T14:22:35Z</time>
      </trkpt>
      <trkpt lat="46.11811" lon="2.4658">
        <ele>514</ele>
        <time>2015-04-10T14:22:37Z</time>
      </trkpt>
      <trkpt lat="46.11811" lon="2.46584">
        <ele>514</ele>
        <time>2015-04-10T14:22:39Z</time>
      </trkpt>
      <trkpt lat="46.1181" lon="2.46588">
        <ele>514</ele>
        <time>2015-04-10T14:22:41Z</time>
      </trkpt>
      <trkpt lat="46.11809" lon="2.46592">
        <ele>515</ele>
        <time>2015-04-10T14:22:43Z</time>
      </trkpt>
      <trkpt lat="46.11808" lon="2.46596">
        <ele>515</ele>
        <time>2015-04-10T14:22:45Z</time>
      </trkpt>
      <trkpt lat="46.11808" lon="2.46599">
        <ele>515</ele>
        <time>2015-04-10T14:22:47Z</time>
      </trkpt>
      <trkpt lat="46.11807" lon="2.46603">
        <ele>515</ele>
        <time>2015-04-10T14:22:49Z</time>
      </trkpt>
      <trkpt lat="46.11807" lon="2.46607">
        <ele>515</ele>
        <time>2015-04-10T14:22:51Z</time>
      </trkpt>
      <trkpt lat="46.11806" lon="2.46611">
        <ele>515</ele>
        <time>2015-04-10T14:22:53Z</time>
      </trkpt>
      <trkpt lat="46.11806" lon="2.46615">
        <ele>515</ele>
        <time>2015-04-10T14:22:55Z</time>
      </trkpt>
      <trkpt lat="46.11806" lon="2.46619">
        <ele>515</ele>
        <time>2015-04-10T14:22:57Z</time>
      </trkpt>
      <trkpt lat="46.11806" lon="2.46623">
        <ele>515</ele>
        <time>2015-04-10T14:22:59Z</time>
      </trkpt>
      <trkpt lat="46.11805" lon="2.46626">
        <ele>515</ele>
        <time>2015-04-10T14:23:01Z</time>
      </trkpt>
      <trkpt lat="46.11806" lon="2.4663">
        <ele>515</ele>
        <time>2015-04-10T14:23:03Z</time>
      </trkpt>
      <trkpt lat="46.11808" lon="2.46634">
        <ele>515</ele>
        <time>2015-04-10T14:23:06Z</time>
      </trkpt>
      <trkpt lat="46.1181" lon="2.46635">
        <ele>515</ele>
        <time>2015-04-10T14:23:08Z</time>
      </trkpt>
      <trkpt lat="46.11812" lon="2.46637">
        <ele>515</ele>
        <time>2015-04-10T14:23:10Z</time>
      </trkpt>
      <trkpt lat="46.11815" lon="2.46638">
        <ele>515</ele>
        <time>2015-04-10T14:23:12Z</time>
      </trkpt>
      <trkpt lat="46.11817" lon="2.46638">
        <ele>515</ele>
        <time>2015-04-10T14:23:14Z</time>
      </trkpt>
      <trkpt lat="46.1182" lon="2.46638">
        <ele>515</ele>
        <time>2015-04-10T14:23:16Z</time>
      </trkpt>
      <trkpt lat="46.11822" lon="2.46638">
        <ele>515</ele>
        <time>2015-04-10T14:23:18Z</time>
      </trkpt>
      <trkpt lat="46.11825" lon="2.46638">
        <ele>516</ele>
        <time>2015-04-10T14:23:20Z</time>
      </trkpt>
      <trkpt lat="46.11828" lon="2.46638">
        <ele>516</ele>
        <time>2015-04-10T14:23:22Z</time>
      </trkpt>
      <trkpt lat="46.1183" lon="2.46638">
        <ele>516</ele>
        <time>2015-04-10T14:23:24Z</time>
      </trkpt>
      <trkpt lat="46.11833" lon="2.46637">
        <ele>516</ele>
        <time>2015-04-10T14:23:26Z</time>
      </trkpt>
      <trkpt lat="46.11835" lon="2.46637">
        <ele>516</ele>
        <time>2015-04-10T14:23:28Z</time>
      </trkpt>
      <trkpt lat="46.11838" lon="2.46636">
        <ele>516</ele>
        <time>2015-04-10T14:23:30Z</time>
      </trkpt>
      <trkpt lat="46.11841" lon="2.46636">
        <ele>516</ele>
        <time>2015-04-10T14:23:32Z</time>
      </trkpt>
      <trkpt lat="46.11844" lon="2.46635">
        <ele>516</ele>
        <time>2015-04-10T14:23:34Z</time>
      </trkpt>
      <trkpt lat="46.11847" lon="2.46635">
        <ele>516</ele>
        <time>2015-04-10T14:23:36Z</time>
      </trkpt>
      <trkpt lat="46.1185" lon="2.46635">
        <ele>516</ele>
        <time>2015-04-10T14:23:38Z</time>
      </trkpt>
      <trkpt lat="46.11853" lon="2.46635">
        <ele>516</ele>
        <time>2015-04-10T14:23:40Z</time>
      </trkpt>
      <trkpt lat="46.11855" lon="2.46634">
        <ele>516</ele>
        <time>2015-04-10T14:23:42Z</time>
      </trkpt>
      <trkpt lat="46.11858" lon="2.46634">
        <ele>516</ele>
        <time>2015-04-10T14:23:44Z</time>
      </trkpt>
      <trkpt lat="46.11861" lon="2.46633">
        <ele>516</ele>
        <time>2015-04-10T14:23:46Z</time>
      </trkpt>
      <trkpt lat="46.11864" lon="2.46633">
        <ele>516</ele>
        <time>2015-04-10T14:23:48Z</time>
      </trkpt>
      <trkpt lat="46.11867" lon="2.46632">
        <ele>516</ele>
        <time>2015-04-10T14:23:50Z</time>
      </trkpt>
      <trkpt lat="46.1187" lon="2.46632">
        <ele>516</ele>
        <time>2015-04-10T14:23:52Z</time>
      </trkpt>
      <trkpt lat="46.11873" lon="2.46631">
        <ele>516</ele>
        <time>2015-04-10T14:23:54Z</time>
      </trkpt>
      <trkpt lat="46.11876" lon="2.46631">
        <ele>516</ele>
        <time>2015-04-10T14:23:56Z</time>
      </trkpt>
      <trkpt lat="46.11879" lon="2.46631">
        <ele>516</ele>
        <time>2015-04-10T14:23:58Z</time>
      </trkpt>
      <trkpt lat="46.11882" lon="2.4663">
        <ele>516</ele>
        <time>2015-04-10T14:24:00Z</time>
      </trkpt>
      <trkpt lat="46.11885" lon="2.4663">
        <ele>516</ele>
        <time>2015-04-10T14:24:02Z</time>
      </trkpt>
      <trkpt lat="46.11887" lon="2.4663">
        <ele>516</ele>
        <time>2015-04-10T14:24:04Z</time>
      </trkpt>
      <trkpt lat="46.1189" lon="2.4663">
        <ele>516</ele>
        <time>2015-04-10T14:24:06Z</time>
      </trkpt>
      <trkpt lat="46.11893" lon="2.46629">
        <ele>516</ele>
        <time>2015-04-10T14:24:08Z</time>
      </trkpt>
      <trkpt lat="46.11896" lon="2.46629">
        <ele>516</ele>
        <time>2015-04-10T14:24:10Z</time>
      </trkpt>
      <trkpt lat="46.11899" lon="2.46629">
        <ele>516</ele>
        <time>2015-04-10T14:24:12Z</time>
      </trkpt>
      <trkpt lat="46.11902" lon="2.46628">
        <ele>516</ele>
        <time>2015-04-10T14:24:14Z</time>
      </trkpt>
      <trkpt lat="46.11905" lon="2.46628">
        <ele>516</ele>
        <time>2015-04-10T14:24:16Z</time>
      </trkpt>
      <trkpt lat="46.11908" lon="2.46627">
        <ele>516</ele>
        <time>2015-04-10T14:24:18Z</time>
      </trkpt>
      <trkpt lat="46.1191" lon="2.46627">
        <ele>516</ele>
        <time>2015-04-10T14:24:20Z</time>
      </trkpt>
      <trkpt lat="46.11913" lon="2.46627">
        <ele>516</ele>
        <time>2015-04-10T14:24:22Z</time>
      </trkpt>
      <trkpt lat="46.11916" lon="2.46626">
        <ele>516</ele>
        <time>2015-04-10T14:24:24Z</time>
      </trkpt>
      <trkpt lat="46.11918" lon="2.46626">
        <ele>516</ele>
        <time>2015-04-10T14:24:26Z</time>
      </trkpt>
      <trkpt lat="46.11921" lon="2.46626">
        <ele>516</ele>
        <time>2015-04-10T14:24:28Z</time>
      </trkpt>
      <trkpt lat="46.11924" lon="2.46625">
        <ele>516</ele>
        <time>2015-04-10T14:24:30Z</time>
      </trkpt>
      <trkpt lat="46.11927" lon="2.46625">
        <ele>516</ele>
        <time>2015-04-10T14:24:32Z</time>
      </trkpt>
      <trkpt lat="46.11929" lon="2.46625">
        <ele>516</ele>
        <time>2015-04-10T14:24:34Z</time>
      </trkpt>
      <trkpt lat="46.11932" lon="2.46624">
        <ele>516</ele>
        <time>2015-04-10T14:24:36Z</time>
      </trkpt>
      <trkpt lat="46.11935" lon="2.46624">
        <ele>516</ele>
        <time>2015-04-10T14:24:38Z</time>
      </trkpt>
      <trkpt lat="46.11938" lon="2.46624">
        <ele>516</ele>
        <time>2015-04-10T14:24:40Z</time>
      </trkpt>
      <trkpt lat="46.11941" lon="2.46624">
        <ele>516</ele>
        <time>2015-04-10T14:24:42Z</time>
      </trkpt>
      <trkpt lat="46.11944" lon="2.46623">
        <ele>516</ele>
        <time>2015-04-10T14:24:44Z</time>
      </trkpt>
      <trkpt lat="46.11947" lon="2.46623">
        <ele>516</ele>
        <time>2015-04-10T14:24:46Z</time>
      </trkpt>
      <trkpt lat="46.1195" lon="2.46622">
        <ele>516</ele>
        <time>2015-04-10T14:24:48Z</time>
      </trkpt>
      <trkpt lat="46.11952" lon="2.46622">
        <ele>516</ele>
        <time>2015-04-10T14:24:50Z</time>
      </trkpt>
      <trkpt lat="46.11955" lon="2.46621">
        <ele>516</ele>
        <time>2015-04-10T14:24:52Z</time>
      </trkpt>
      <trkpt lat="46.11958" lon="2.4662">
        <ele>516</ele>
        <time>2015-04-10T14:24:54Z</time>
      </trkpt>
      <trkpt lat="46.1196" lon="2.46619">
        <ele>516</ele>
        <time>2015-04-10T14:24:56Z</time>
      </trkpt>
      <trkpt lat="46.11963" lon="2.46618">
        <ele>516</ele>
        <time>2015-04-10T14:24:58Z</time>
      </trkpt>
      <trkpt lat="46.11966" lon="2.46618">
        <ele>516</ele>
        <time>2015-04-10T14:25:00Z</time>
      </trkpt>
      <trkpt lat="46.11969" lon="2.46619">
        <ele>516</ele>
        <time>2015-04-10T14:25:02Z</time>
      </trkpt>
      <trkpt lat="46.11972" lon="2.46619">
        <ele>516</ele>
        <time>2015-04-10T14:25:04Z</time>
      </trkpt>
      <trkpt lat="46.11974" lon="2.46619">
        <ele>516</ele>
        <time>2015-04-10T14:25:06Z</time>
      </trkpt>
      <trkpt lat="46.11977" lon="2.46618">
        <ele>516</ele>
        <time>2015-04-10T14:25:08Z</time>
      </trkpt>
      <trkpt lat="46.1198" lon="2.46618">
        <ele>516</ele>
        <time>2015-04-10T14:25:10Z</time>
      </trkpt>
      <trkpt lat="46.11983" lon="2.46618">
        <ele>516</ele>
        <time>2015-04-10T14:25:12Z</time>
      </trkpt>
      <trkpt lat="46.11986" lon="2.46617">
        <ele>516</ele>
        <time>2015-04-10T14:25:14Z</time>
      </trkpt>
      <trkpt lat="46.11989" lon="2.46617">
        <ele>516</ele>
        <time>2015-04-10T14:25:16Z</time>
      </trkpt>
      <trkpt lat="46.11992" lon="2.46619">
        <ele>516</ele>
        <time>2015-04-10T14:25:18Z</time>
      </trkpt>
      <trkpt lat="46.11995" lon="2.4662">
        <ele>516</ele>
        <time>2015-04-10T14:25:20Z</time>
      </trkpt>
      <trkpt lat="46.11998" lon="2.46622">
        <ele>516</ele>
        <time>2015-04-10T14:25:22Z</time>
      </trkpt>
      <trkpt lat="46.12" lon="2.46623">
        <ele>516</ele>
        <time>2015-04-10T14:25:24Z</time>
      </trkpt>
      <trkpt lat="46.12003" lon="2.46625">
        <ele>516</ele>
        <time>2015-04-10T14:25:26Z</time>
      </trkpt>
      <trkpt lat="46.12006" lon="2.46627">
        <ele>516</ele>
        <time>2015-04-10T14:25:28Z</time>
      </trkpt>
      <trkpt lat="46.12009" lon="2.46628">
        <ele>516</ele>
        <time>2015-04-10T14:25:30Z</time>
      </trkpt>
      <trkpt lat="46.12012" lon="2.46631">
        <ele>516</ele>
        <time>2015-04-10T14:25:33Z</time>
      </trkpt>
      <trkpt lat="46.12014" lon="2.46632">
        <ele>516</ele>
        <time>2015-04-10T14:25:35Z</time>
      </trkpt>
      <trkpt lat="46.12017" lon="2.46633">
        <ele>516</ele>
        <time>2015-04-10T14:25:37Z</time>
      </trkpt>
      <trkpt lat="46.12019" lon="2.46634">
        <ele>516</ele>
        <time>2015-04-10T14:25:39Z</time>
      </trkpt>
      <trkpt lat="46.12019" lon="2.46635">
        <ele>516</ele>
        <time>2015-04-10T14:25:42Z</time>
      </trkpt>
      <trkpt lat="46.12019" lon="2.46637">
        <ele>516</ele>
        <time>2015-04-10T14:25:45Z</time>
      </trkpt>
      <trkpt lat="46.12021" lon="2.46637">
        <ele>516</ele>
        <time>2015-04-10T14:25:48Z</time>
      </trkpt>
      <trkpt lat="46.12023" lon="2.46636">
        <ele>516</ele>
        <time>2015-04-10T14:25:50Z</time>
      </trkpt>
      <trkpt lat="46.12026" lon="2.46637">
        <ele>516</ele>
        <time>2015-04-10T14:25:52Z</time>
      </trkpt>
      <trkpt lat="46.1203" lon="2.46638">
        <ele>516</ele>
        <time>2015-04-10T14:25:54Z</time>
      </trkpt>
      <trkpt lat="46.12033" lon="2.46638">
        <ele>516</ele>
        <time>2015-04-10T14:25:56Z</time>
      </trkpt>
      <trkpt lat="46.12036" lon="2.46639">
        <ele>516</ele>
        <time>2015-04-10T14:25:58Z</time>
      </trkpt>
      <trkpt lat="46.12039" lon="2.46641">
        <ele>516</ele>
        <time>2015-04-10T14:26:00Z</time>
      </trkpt>
      <trkpt lat="46.12042" lon="2.46642">
        <ele>516</ele>
        <time>2015-04-10T14:26:02Z</time>
      </trkpt>
      <trkpt lat="46.12045" lon="2.46643">
        <ele>516</ele>
        <time>2015-04-10T14:26:04Z</time>
      </trkpt>
      <trkpt lat="46.12048" lon="2.46644">
        <ele>516</ele>
        <time>2015-04-10T14:26:06Z</time>
      </trkpt>
      <trkpt lat="46.1205" lon="2.46645">
        <ele>516</ele>
        <time>2015-04-10T14:26:08Z</time>
      </trkpt>
      <trkpt lat="46.12053" lon="2.46646">
        <ele>516</ele>
        <time>2015-04-10T14:26:10Z</time>
      </trkpt>
      <trkpt lat="46.12056" lon="2.46647">
        <ele>516</ele>
        <time>2015-04-10T14:26:12Z</time>
      </trkpt>
      <trkpt lat="46.12059" lon="2.46648">
        <ele>516</ele>
        <time>2015-04-10T14:26:14Z</time>
      </trkpt>
      <trkpt lat="46.12061" lon="2.46648">
        <ele>516</ele>
        <time>2015-04-10T14:26:16Z</time>
      </trkpt>
      <trkpt lat="46.12064" lon="2.46649">
        <ele>516</ele>
        <time>2015-04-10T14:26:18Z</time>
      </trkpt>
      <trkpt lat="46.12066" lon="2.4665">
        <ele>516</ele>
        <time>2015-04-10T14:26:20Z</time>
      </trkpt>
      <trkpt lat="46.12069" lon="2.4665">
        <ele>516</ele>
        <time>2015-04-10T14:26:22Z</time>
      </trkpt>
      <trkpt lat="46.12071" lon="2.46651">
        <ele>516</ele>
        <time>2015-04-10T14:26:24Z</time>
      </trkpt>
      <trkpt lat="46.12074" lon="2.46652">
        <ele>516</ele>
        <time>2015-04-10T14:26:26Z</time>
      </trkpt>
      <trkpt lat="46.12077" lon="2.46654">
        <ele>516</ele>
        <time>2015-04-10T14:26:28Z</time>
      </trkpt>
      <trkpt lat="46.1208" lon="2.46655">
        <ele>516</ele>
        <time>2015-04-10T14:26:30Z</time>
      </trkpt>
      <trkpt lat="46.12082" lon="2.46656">
        <ele>516</ele>
        <time>2015-04-10T14:26:32Z</time>
      </trkpt>
      <trkpt lat="46.12085" lon="2.46657">
        <ele>516</ele>
        <time>2015-04-10T14:26:34Z</time>
      </trkpt>
      <trkpt lat="46.12088" lon="2.46659">
        <ele>516</ele>
        <time>2015-04-10T14:26:36Z</time>
      </trkpt>
      <trkpt lat="46.12091" lon="2.4666">
        <ele>516</ele>
        <time>2015-04-10T14:26:38Z</time>
      </trkpt>
      <trkpt lat="46.12093" lon="2.46662">
        <ele>516</ele>
        <time>2015-04-10T14:26:40Z</time>
      </trkpt>
      <trkpt lat="46.12096" lon="2.46661">
        <ele>516</ele>
        <time>2015-04-10T14:26:43Z</time>
      </trkpt>
      <trkpt lat="46.12098" lon="2.46661">
        <ele>516</ele>
        <time>2015-04-10T14:26:45Z</time>
      </trkpt>
      <trkpt lat="46.121" lon="2.46663">
        <ele>516</ele>
        <time>2015-04-10T14:26:47Z</time>
      </trkpt>
      <trkpt lat="46.12103" lon="2.46665">
        <ele>516</ele>
        <time>2015-04-10T14:26:49Z</time>
      </trkpt>
      <trkpt lat="46.12106" lon="2.46667">
        <ele>516</ele>
        <time>2015-04-10T14:26:51Z</time>
      </trkpt>
      <trkpt lat="46.12109" lon="2.46669">
        <ele>516</ele>
        <time>2015-04-10T14:26:53Z</time>
      </trkpt>
      <trkpt lat="46.12113" lon="2.4667">
        <ele>516</ele>
        <time>2015-04-10T14:26:55Z</time>
      </trkpt>
      <trkpt lat="46.12116" lon="2.46672">
        <ele>516</ele>
        <time>2015-04-10T14:26:57Z</time>
      </trkpt>
      <trkpt lat="46.12119" lon="2.46673">
        <ele>516</ele>
        <time>2015-04-10T14:26:59Z</time>
      </trkpt>
      <trkpt lat="46.12121" lon="2.46675">
        <ele>516</ele>
        <time>2015-04-10T14:27:01Z</time>
      </trkpt>
      <trkpt lat="46.12124" lon="2.46678">
        <ele>516</ele>
        <time>2015-04-10T14:27:03Z</time>
      </trkpt>
      <trkpt lat="46.12127" lon="2.4668">
        <ele>516</ele>
        <time>2015-04-10T14:27:05Z</time>
      </trkpt>
      <trkpt lat="46.1213" lon="2.46682">
        <ele>516</ele>
        <time>2015-04-10T14:27:07Z</time>
      </trkpt>
      <trkpt lat="46.12133" lon="2.46684">
        <ele>516</ele>
        <time>2015-04-10T14:27:09Z</time>
      </trkpt>
      <trkpt lat="46.12136" lon="2.46686">
        <ele>516</ele>
        <time>2015-04-10T14:27:11Z</time>
      </trkpt>
      <trkpt lat="46.12138" lon="2.46688">
        <ele>516</ele>
        <time>2015-04-10T14:27:13Z</time>
      </trkpt>
      <trkpt lat="46.12142" lon="2.46692">
        <ele>516</ele>
        <time>2015-04-10T14:27:16Z</time>
      </trkpt>
      <trkpt lat="46.12145" lon="2.46693">
        <ele>516</ele>
        <time>2015-04-10T14:27:18Z</time>
      </trkpt>
      <trkpt lat="46.12148" lon="2.46695">
        <ele>516</ele>
        <time>2015-04-10T14:27:20Z</time>
      </trkpt>
      <trkpt lat="46.1215" lon="2.46697">
        <ele>516</ele>
        <time>2015-04-10T14:27:22Z</time>
      </trkpt>
      <trkpt lat="46.12153" lon="2.467">
        <ele>516</ele>
        <time>2015-04-10T14:27:24Z</time>
      </trkpt>
      <trkpt lat="46.12156" lon="2.46701">
        <ele>516</ele>
        <time>2015-04-10T14:27:26Z</time>
      </trkpt>
      <trkpt lat="46.12159" lon="2.46703">
        <ele>516</ele>
        <time>2015-04-10T14:27:28Z</time>
      </trkpt>
      <trkpt lat="46.12162" lon="2.46706">
        <ele>516</ele>
        <time>2015-04-10T14:27:30Z</time>
      </trkpt>
      <trkpt lat="46.12164" lon="2.46708">
        <ele>516</ele>
        <time>2015-04-10T14:27:32Z</time>
      </trkpt>
      <trkpt lat="46.12167" lon="2.4671">
        <ele>516</ele>
        <time>2015-04-10T14:27:34Z</time>
      </trkpt>
      <trkpt lat="46.12169" lon="2.46712">
        <ele>516</ele>
        <time>2015-04-10T14:27:36Z</time>
      </trkpt>
      <trkpt lat="46.12171" lon="2.46714">
        <ele>516</ele>
        <time>2015-04-10T14:27:38Z</time>
      </trkpt>
      <trkpt lat="46.12174" lon="2.46717">
        <ele>516</ele>
        <time>2015-04-10T14:27:40Z</time>
      </trkpt>
      <trkpt lat="46.12177" lon="2.46719">
        <ele>516</ele>
        <time>2015-04-10T14:27:42Z</time>
      </trkpt>
      <trkpt lat="46.1218" lon="2.46721">
        <ele>516</ele>
        <time>2015-04-10T14:27:44Z</time>
      </trkpt>
      <trkpt lat="46.12182" lon="2.46723">
        <ele>516</ele>
        <time>2015-04-10T14:27:46Z</time>
      </trkpt>
      <trkpt lat="46.12185" lon="2.46725">
        <ele>516</ele>
        <time>2015-04-10T14:27:48Z</time>
      </trkpt>
      <trkpt lat="46.12187" lon="2.46728">
        <ele>515</ele>
        <time>2015-04-10T14:27:50Z</time>
      </trkpt>
      <trkpt lat="46.1219" lon="2.4673">
        <ele>515</ele>
        <time>2015-04-10T14:27:52Z</time>
      </trkpt>
      <trkpt lat="46.12193" lon="2.46732">
        <ele>515</ele>
        <time>2015-04-10T14:27:54Z</time>
      </trkpt>
      <trkpt lat="46.12195" lon="2.46734">
        <ele>515</ele>
        <time>2015-04-10T14:27:56Z</time>
      </trkpt>
      <trkpt lat="46.12197" lon="2.46737">
        <ele>515</ele>
        <time>2015-04-10T14:27:58Z</time>
      </trkpt>
      <trkpt lat="46.122" lon="2.46739">
        <ele>514</ele>
        <time>2015-04-10T14:28:00Z</time>
      </trkpt>
      <trkpt lat="46.12202" lon="2.46742">
        <ele>514</ele>
        <time>2015-04-10T14:28:02Z</time>
      </trkpt>
      <trkpt lat="46.12205" lon="2.46744">
        <ele>514</ele>
        <time>2015-04-10T14:28:04Z</time>
      </trkpt>
      <trkpt lat="46.12207" lon="2.46746">
        <ele>513</ele>
        <time>2015-04-10T14:28:06Z</time>
      </trkpt>
      <trkpt lat="46.1221" lon="2.46749">
        <ele>513</ele>
        <time>2015-04-10T14:28:08Z</time>
      </trkpt>
      <trkpt lat="46.12212" lon="2.46752">
        <ele>513</ele>
        <time>2015-04-10T14:28:10Z</time>
      </trkpt>
      <trkpt lat="46.12215" lon="2.46754">
        <ele>513</ele>
        <time>2015-04-10T14:28:12Z</time>
      </trkpt>
      <trkpt lat="46.12217" lon="2.46757">
        <ele>513</ele>
        <time>2015-04-10T14:28:14Z</time>
      </trkpt>
      <trkpt lat="46.1222" lon="2.46759">
        <ele>513</ele>
        <time>2015-04-10T14:28:16Z</time>
      </trkpt>
      <trkpt lat="46.12222" lon="2.46761">
        <ele>513</ele>
        <time>2015-04-10T14:28:18Z</time>
      </trkpt>
      <trkpt lat="46.12225" lon="2.46764">
        <ele>513</ele>
        <time>2015-04-10T14:28:20Z</time>
      </trkpt>
      <trkpt lat="46.12227" lon="2.46766">
        <ele>513</ele>
        <time>2015-04-10T14:28:22Z</time>
      </trkpt>
      <trkpt lat="46.1223" lon="2.46768">
        <ele>513</ele>
        <time>2015-04-10T14:28:24Z</time>
      </trkpt>
      <trkpt lat="46.12232" lon="2.46771">
        <ele>513</ele>
        <time>2015-04-10T14:28:26Z</time>
      </trkpt>
      <trkpt lat="46.12235" lon="2.46774">
        <ele>513</ele>
        <time>2015-04-10T14:28:28Z</time>
      </trkpt>
      <trkpt lat="46.12237" lon="2.46777">
        <ele>513</ele>
        <time>2015-04-10T14:28:30Z</time>
      </trkpt>
      <trkpt lat="46.1224" lon="2.46779">
        <ele>513</ele>
        <time>2015-04-10T14:28:32Z</time>
      </trkpt>
      <trkpt lat="46.12242" lon="2.46781">
        <ele>513</ele>
        <time>2015-04-10T14:28:34Z</time>
      </trkpt>
      <trkpt lat="46.12245" lon="2.46784">
        <ele>513</ele>
        <time>2015-04-10T14:28:36Z</time>
      </trkpt>
      <trkpt lat="46.12247" lon="2.46786">
        <ele>513</ele>
        <time>2015-04-10T14:28:38Z</time>
      </trkpt>
      <trkpt lat="46.1225" lon="2.46789">
        <ele>513</ele>
        <time>2015-04-10T14:28:40Z</time>
      </trkpt>
      <trkpt lat="46.12252" lon="2.46791">
        <ele>513</ele>
        <time>2015-04-10T14:28:42Z</time>
      </trkpt>
      <trkpt lat="46.12255" lon="2.46793">
        <ele>513</ele>
        <time>2015-04-10T14:28:44Z</time>
      </trkpt>
      <trkpt lat="46.12258" lon="2.46796">
        <ele>513</ele>
        <time>2015-04-10T14:28:46Z</time>
      </trkpt>
      <trkpt lat="46.1226" lon="2.46797">
        <ele>513</ele>
        <time>2015-04-10T14:28:48Z</time>
      </trkpt>
      <trkpt lat="46.12263" lon="2.468">
        <ele>513</ele>
        <time>2015-04-10T14:28:50Z</time>
      </trkpt>
      <trkpt lat="46.12265" lon="2.46802">
        <ele>513</ele>
        <time>2015-04-10T14:28:52Z</time>
      </trkpt>
      <trkpt lat="46.12268" lon="2.46803">
        <ele>513</ele>
        <time>2015-04-10T14:28:54Z</time>
      </trkpt>
      <trkpt lat="46.1227" lon="2.46806">
        <ele>513</ele>
        <time>2015-04-10T14:28:56Z</time>
      </trkpt>
      <trkpt lat="46.12273" lon="2.46808">
        <ele>513</ele>
        <time>2015-04-10T14:28:58Z</time>
      </trkpt>
      <trkpt lat="46.12276" lon="2.4681">
        <ele>512</ele>
        <time>2015-04-10T14:29:00Z</time>
      </trkpt>
      <trkpt lat="46.12278" lon="2.46811">
        <ele>512</ele>
        <time>2015-04-10T14:29:02Z</time>
      </trkpt>
      <trkpt lat="46.12281" lon="2.46813">
        <ele>512</ele>
        <time>2015-04-10T14:29:04Z</time>
      </trkpt>
      <trkpt lat="46.12284" lon="2.46815">
        <ele>512</ele>
        <time>2015-04-10T14:29:06Z</time>
      </trkpt>
      <trkpt lat="46.12287" lon="2.46817">
        <ele>512</ele>
        <time>2015-04-10T14:29:08Z</time>
      </trkpt>
      <trkpt lat="46.12289" lon="2.46819">
        <ele>512</ele>
        <time>2015-04-10T14:29:10Z</time>
      </trkpt>
      <trkpt lat="46.12292" lon="2.4682">
        <ele>512</ele>
        <time>2015-04-10T14:29:12Z</time>
      </trkpt>
      <trkpt lat="46.12295" lon="2.46822">
        <ele>512</ele>
        <time>2015-04-10T14:29:14Z</time>
      </trkpt>
      <trkpt lat="46.12297" lon="2.46824">
        <ele>512</ele>
        <time>2015-04-10T14:29:16Z</time>
      </trkpt>
      <trkpt lat="46.123" lon="2.46827">
        <ele>512</ele>
        <time>2015-04-10T14:29:18Z</time>
      </trkpt>
      <trkpt lat="46.12303" lon="2.46829">
        <ele>512</ele>
        <time>2015-04-10T14:29:20Z</time>
      </trkpt>
      <trkpt lat="46.12307" lon="2.46831">
        <ele>512</ele>
        <time>2015-04-10T14:29:23Z</time>
      </trkpt>
      <trkpt lat="46.1231" lon="2.46833">
        <ele>512</ele>
        <time>2015-04-10T14:29:25Z</time>
      </trkpt>
      <trkpt lat="46.12312" lon="2.46835">
        <ele>512</ele>
        <time>2015-04-10T14:29:27Z</time>
      </trkpt>
      <trkpt lat="46.12315" lon="2.46837">
        <ele>512</ele>
        <time>2015-04-10T14:29:29Z</time>
      </trkpt>
      <trkpt lat="46.12318" lon="2.46839">
        <ele>512</ele>
        <time>2015-04-10T14:29:31Z</time>
      </trkpt>
      <trkpt lat="46.12321" lon="2.46841">
        <ele>512</ele>
        <time>2015-04-10T14:29:33Z</time>
      </trkpt>
      <trkpt lat="46.12324" lon="2.46843">
        <ele>512</ele>
        <time>2015-04-10T14:29:35Z</time>
      </trkpt>
      <trkpt lat="46.12327" lon="2.46845">
        <ele>512</ele>
        <time>2015-04-10T14:29:37Z</time>
      </trkpt>
      <trkpt lat="46.12331" lon="2.46847">
        <ele>512</ele>
        <time>2015-04-10T14:29:39Z</time>
      </trkpt>
      <trkpt lat="46.12333" lon="2.46849">
        <ele>512</ele>
        <time>2015-04-10T14:29:41Z</time>
      </trkpt>
      <trkpt lat="46.12336" lon="2.4685">
        <ele>512</ele>
        <time>2015-04-10T14:29:43Z</time>
      </trkpt>
      <trkpt lat="46.12339" lon="2.46852">
        <ele>511</ele>
        <time>2015-04-10T14:29:45Z</time>
      </trkpt>
      <trkpt lat="46.12342" lon="2.46854">
        <ele>511</ele>
        <time>2015-04-10T14:29:47Z</time>
      </trkpt>
      <trkpt lat="46.12344" lon="2.46856">
        <ele>511</ele>
        <time>2015-04-10T14:29:49Z</time>
      </trkpt>
      <trkpt lat="46.12347" lon="2.46858">
        <ele>511</ele>
        <time>2015-04-10T14:29:51Z</time>
      </trkpt>
      <trkpt lat="46.1235" lon="2.46859">
        <ele>511</ele>
        <time>2015-04-10T14:29:53Z</time>
      </trkpt>
      <trkpt lat="46.12353" lon="2.46861">
        <ele>511</ele>
        <time>2015-04-10T14:29:55Z</time>
      </trkpt>
      <trkpt lat="46.12356" lon="2.46863">
        <ele>510</ele>
        <time>2015-04-10T14:29:57Z</time>
      </trkpt>
      <trkpt lat="46.12358" lon="2.46865">
        <ele>510</ele>
        <time>2015-04-10T14:29:59Z</time>
      </trkpt>
      <trkpt lat="46.12361" lon="2.46867">
        <ele>509</ele>
        <time>2015-04-10T14:30:01Z</time>
      </trkpt>
      <trkpt lat="46.12364" lon="2.46868">
        <ele>509</ele>
        <time>2015-04-10T14:30:03Z</time>
      </trkpt>
      <trkpt lat="46.12367" lon="2.4687">
        <ele>509</ele>
        <time>2015-04-10T14:30:05Z</time>
      </trkpt>
      <trkpt lat="46.1237" lon="2.46872">
        <ele>509</ele>
        <time>2015-04-10T14:30:07Z</time>
      </trkpt>
      <trkpt lat="46.12372" lon="2.46874">
        <ele>508</ele>
        <time>2015-04-10T14:30:09Z</time>
      </trkpt>
      <trkpt lat="46.12375" lon="2.46876">
        <ele>508</ele>
        <time>2015-04-10T14:30:11Z</time>
      </trkpt>
      <trkpt lat="46.12378" lon="2.46878">
        <ele>508</ele>
        <time>2015-04-10T14:30:13Z</time>
      </trkpt>
      <trkpt lat="46.12381" lon="2.4688">
        <ele>508</ele>
        <time>2015-04-10T14:30:15Z</time>
      </trkpt>
      <trkpt lat="46.12384" lon="2.46883">
        <ele>508</ele>
        <time>2015-04-10T14:30:18Z</time>
      </trkpt>
      <trkpt lat="46.12387" lon="2.46885">
        <ele>508</ele>
        <time>2015-04-10T14:30:20Z</time>
      </trkpt>
      <trkpt lat="46.1239" lon="2.46887">
        <ele>507</ele>
        <time>2015-04-10T14:30:22Z</time>
      </trkpt>
      <trkpt lat="46.12392" lon="2.46888">
        <ele>507</ele>
        <time>2015-04-10T14:30:24Z</time>
      </trkpt>
      <trkpt lat="46.12396" lon="2.4689">
        <ele>507</ele>
        <time>2015-04-10T14:30:26Z</time>
      </trkpt>
      <trkpt lat="46.12399" lon="2.46893">
        <ele>507</ele>
        <time>2015-04-10T14:30:28Z</time>
      </trkpt>
      <trkpt lat="46.12402" lon="2.46896">
        <ele>507</ele>
        <time>2015-04-10T14:30:30Z</time>
      </trkpt>
      <trkpt lat="46.12405" lon="2.46897">
        <ele>507</ele>
        <time>2015-04-10T14:30:32Z</time>
      </trkpt>
      <trkpt lat="46.12407" lon="2.46899">
        <ele>506</ele>
        <time>2015-04-10T14:30:34Z</time>
      </trkpt>
      <trkpt lat="46.1241" lon="2.46902">
        <ele>506</ele>
        <time>2015-04-10T14:30:36Z</time>
      </trkpt>
      <trkpt lat="46.12413" lon="2.46904">
        <ele>506</ele>
        <time>2015-04-10T14:30:38Z</time>
      </trkpt>
      <trkpt lat="46.12415" lon="2.46905">
        <ele>505</ele>
        <time>2015-04-10T14:30:40Z</time>
      </trkpt>
      <trkpt lat="46.12418" lon="2.46907">
        <ele>505</ele>
        <time>2015-04-10T14:30:42Z</time>
      </trkpt>
      <trkpt lat="46.12421" lon="2.46909">
        <ele>505</ele>
        <time>2015-04-10T14:30:44Z</time>
      </trkpt>
      <trkpt lat="46.12424" lon="2.46911">
        <ele>505</ele>
        <time>2015-04-10T14:30:46Z</time>
      </trkpt>
      <trkpt lat="46.12427" lon="2.46913">
        <ele>505</ele>
        <time>2015-04-10T14:30:48Z</time>
      </trkpt>
      <trkpt lat="46.1243" lon="2.46916">
        <ele>504</ele>
        <time>2015-04-10T14:30:50Z</time>
      </trkpt>
      <trkpt lat="46.12433" lon="2.46918">
        <ele>504</ele>
        <time>2015-04-10T14:30:52Z</time>
      </trkpt>
      <trkpt lat="46.12436" lon="2.4692">
        <ele>504</ele>
        <time>2015-04-10T14:30:54Z</time>
      </trkpt>
      <trkpt lat="46.12439" lon="2.46922">
        <ele>504</ele>
        <time>2015-04-10T14:30:56Z</time>
      </trkpt>
      <trkpt lat="46.12442" lon="2.46924">
        <ele>504</ele>
        <time>2015-04-10T14:30:58Z</time>
      </trkpt>
      <trkpt lat="46.12445" lon="2.46926">
        <ele>504</ele>
        <time>2015-04-10T14:31:00Z</time>
      </trkpt>
      <trkpt lat="46.12448" lon="2.46928">
        <ele>504</ele>
        <time>2015-04-10T14:31:02Z</time>
      </trkpt>
      <trkpt lat="46.12451" lon="2.4693">
        <ele>504</ele>
        <time>2015-04-10T14:31:04Z</time>
      </trkpt>
      <trkpt lat="46.12454" lon="2.46931">
        <ele>504</ele>
        <time>2015-04-10T14:31:06Z</time>
      </trkpt>
      <trkpt lat="46.12457" lon="2.46932">
        <ele>504</ele>
        <time>2015-04-10T14:31:08Z</time>
      </trkpt>
      <trkpt lat="46.1246" lon="2.46933">
        <ele>504</ele>
        <time>2015-04-10T14:31:10Z</time>
      </trkpt>
      <trkpt lat="46.12463" lon="2.46934">
        <ele>504</ele>
        <time>2015-04-10T14:31:12Z</time>
      </trkpt>
      <trkpt lat="46.12466" lon="2.46934">
        <ele>504</ele>
        <time>2015-04-10T14:31:14Z</time>
      </trkpt>
      <trkpt lat="46.12469" lon="2.46935">
        <ele>504</ele>
        <time>2015-04-10T14:31:16Z</time>
      </trkpt>
      <trkpt lat="46.12472" lon="2.46935">
        <ele>504</ele>
        <time>2015-04-10T14:31:18Z</time>
      </trkpt>
      <trkpt lat="46.12476" lon="2.46936">
        <ele>504</ele>
        <time>2015-04-10T14:31:20Z</time>
      </trkpt>
      <trkpt lat="46.12479" lon="2.46936">
        <ele>504</ele>
        <time>2015-04-10T14:31:22Z</time>
      </trkpt>
      <trkpt lat="46.12482" lon="2.46936">
        <ele>504</ele>
        <time>2015-04-10T14:31:24Z</time>
      </trkpt>
      <trkpt lat="46.12485" lon="2.46937">
        <ele>504</ele>
        <time>2015-04-10T14:31:26Z</time>
      </trkpt>
      <trkpt lat="46.12488" lon="2.46937">
        <ele>504</ele>
        <time>2015-04-10T14:31:28Z</time>
      </trkpt>
      <trkpt lat="46.12491" lon="2.46937">
        <ele>504</ele>
        <time>2015-04-10T14:31:30Z</time>
      </trkpt>
      <trkpt lat="46.12494" lon="2.46937">
        <ele>504</ele>
        <time>2015-04-10T14:31:32Z</time>
      </trkpt>
      <trkpt lat="46.12497" lon="2.46938">
        <ele>504</ele>
        <time>2015-04-10T14:31:34Z</time>
      </trkpt>
      <trkpt lat="46.125" lon="2.46938">
        <ele>503</ele>
        <time>2015-04-10T14:31:36Z</time>
      </trkpt>
      <trkpt lat="46.12503" lon="2.46937">
        <ele>503</ele>
        <time>2015-04-10T14:31:38Z</time>
      </trkpt>
      <trkpt lat="46.12506" lon="2.46938">
        <ele>503</ele>
        <time>2015-04-10T14:31:40Z</time>
      </trkpt>
      <trkpt lat="46.1251" lon="2.46938">
        <ele>503</ele>
        <time>2015-04-10T14:31:42Z</time>
      </trkpt>
      <trkpt lat="46.12513" lon="2.46939">
        <ele>503</ele>
        <time>2015-04-10T14:31:44Z</time>
      </trkpt>
      <trkpt lat="46.12516" lon="2.46939">
        <ele>503</ele>
        <time>2015-04-10T14:31:46Z</time>
      </trkpt>
      <trkpt lat="46.12519" lon="2.4694">
        <ele>502</ele>
        <time>2015-04-10T14:31:48Z</time>
      </trkpt>
      <trkpt lat="46.12522" lon="2.4694">
        <ele>502</ele>
        <time>2015-04-10T14:31:50Z</time>
      </trkpt>
      <trkpt lat="46.12525" lon="2.4694">
        <ele>501</ele>
        <time>2015-04-10T14:31:52Z</time>
      </trkpt>
      <trkpt lat="46.12528" lon="2.46941">
        <ele>501</ele>
        <time>2015-04-10T14:31:54Z</time>
      </trkpt>
      <trkpt lat="46.12532" lon="2.46941">
        <ele>501</ele>
        <time>2015-04-10T14:31:56Z</time>
      </trkpt>
      <trkpt lat="46.12535" lon="2.46941">
        <ele>501</ele>
        <time>2015-04-10T14:31:58Z</time>
      </trkpt>
      <trkpt lat="46.12538" lon="2.46942">
        <ele>500</ele>
        <time>2015-04-10T14:32:00Z</time>
      </trkpt>
      <trkpt lat="46.12541" lon="2.46942">
        <ele>500</ele>
        <time>2015-04-10T14:32:02Z</time>
      </trkpt>
      <trkpt lat="46.12544" lon="2.46943">
        <ele>500</ele>
        <time>2015-04-10T14:32:05Z</time>
      </trkpt>
      <trkpt lat="46.12545" lon="2.46941">
        <ele>500</ele>
        <time>2015-04-10T14:32:21Z</time>
      </trkpt>
      <trkpt lat="46.12546" lon="2.46941">
        <ele>500</ele>
        <time>2015-04-10T14:32:31Z</time>
      </trkpt>
      <trkpt lat="46.12547" lon="2.4694">
        <ele>500</ele>
        <time>2015-04-10T14:32:37Z</time>
      </trkpt>
      <trkpt lat="46.12548" lon="2.4694">
        <ele>500</ele>
        <time>2015-04-10T14:32:46Z</time>
      </trkpt>
      <trkpt lat="46.1255" lon="2.46941">
        <ele>500</ele>
        <time>2015-04-10T14:32:48Z</time>
      </trkpt>
      <trkpt lat="46.12553" lon="2.46941">
        <ele>500</ele>
        <time>2015-04-10T14:32:50Z</time>
      </trkpt>
      <trkpt lat="46.12556" lon="2.46942">
        <ele>500</ele>
        <time>2015-04-10T14:32:52Z</time>
      </trkpt>
      <trkpt lat="46.12558" lon="2.46943">
        <ele>500</ele>
        <time>2015-04-10T14:32:54Z</time>
      </trkpt>
      <trkpt lat="46.1256" lon="2.46943">
        <ele>500</ele>
        <time>2015-04-10T14:32:56Z</time>
      </trkpt>
      <trkpt lat="46.12563" lon="2.46944">
        <ele>500</ele>
        <time>2015-04-10T14:32:58Z</time>
      </trkpt>
      <trkpt lat="46.12566" lon="2.46945">
        <ele>500</ele>
        <time>2015-04-10T14:33:00Z</time>
      </trkpt>
      <trkpt lat="46.12569" lon="2.46945">
        <ele>500</ele>
        <time>2015-04-10T14:33:02Z</time>
      </trkpt>
      <trkpt lat="46.12571" lon="2.46945">
        <ele>500</ele>
        <time>2015-04-10T14:33:04Z</time>
      </trkpt>
      <trkpt lat="46.12574" lon="2.46945">
        <ele>500</ele>
        <time>2015-04-10T14:33:06Z</time>
      </trkpt>
      <trkpt lat="46.12577" lon="2.46946">
        <ele>500</ele>
        <time>2015-04-10T14:33:08Z</time>
      </trkpt>
      <trkpt lat="46.1258" lon="2.46946">
        <ele>499</ele>
        <time>2015-04-10T14:33:10Z</time>
      </trkpt>
      <trkpt lat="46.12584" lon="2.46946">
        <ele>498</ele>
        <time>2015-04-10T14:33:12Z</time>
      </trkpt>
      <trkpt lat="46.12586" lon="2.46947">
        <ele>498</ele>
        <time>2015-04-10T14:33:14Z</time>
      </trkpt>
      <trkpt lat="46.12589" lon="2.46948">
        <ele>497</ele>
        <time>2015-04-10T14:33:16Z</time>
      </trkpt>
      <trkpt lat="46.12592" lon="2.46948">
        <ele>497</ele>
        <time>2015-04-10T14:33:18Z</time>
      </trkpt>
      <trkpt lat="46.12594" lon="2.4695">
        <ele>496</ele>
        <time>2015-04-10T14:33:20Z</time>
      </trkpt>
      <trkpt lat="46.12597" lon="2.46951">
        <ele>496</ele>
        <time>2015-04-10T14:33:22Z</time>
      </trkpt>
      <trkpt lat="46.126" lon="2.46953">
        <ele>495</ele>
        <time>2015-04-10T14:33:24Z</time>
      </trkpt>
      <trkpt lat="46.12603" lon="2.46954">
        <ele>495</ele>
        <time>2015-04-10T14:33:26Z</time>
      </trkpt>
      <trkpt lat="46.12606" lon="2.46955">
        <ele>495</ele>
        <time>2015-04-10T14:33:28Z</time>
      </trkpt>
      <trkpt lat="46.12608" lon="2.46957">
        <ele>495</ele>
        <time>2015-04-10T14:33:30Z</time>
      </trkpt>
      <trkpt lat="46.12612" lon="2.46959">
        <ele>495</ele>
        <time>2015-04-10T14:33:32Z</time>
      </trkpt>
      <trkpt lat="46.12614" lon="2.4696">
        <ele>495</ele>
        <time>2015-04-10T14:33:34Z</time>
      </trkpt>
      <trkpt lat="46.12617" lon="2.46962">
        <ele>495</ele>
        <time>2015-04-10T14:33:36Z</time>
      </trkpt>
      <trkpt lat="46.12619" lon="2.46964">
        <ele>495</ele>
        <time>2015-04-10T14:33:38Z</time>
      </trkpt>
      <trkpt lat="46.12622" lon="2.46965">
        <ele>495</ele>
        <time>2015-04-10T14:33:40Z</time>
      </trkpt>
      <trkpt lat="46.12626" lon="2.46967">
        <ele>495</ele>
        <time>2015-04-10T14:33:42Z</time>
      </trkpt>
      <trkpt lat="46.12629" lon="2.46967">
        <ele>495</ele>
        <time>2015-04-10T14:33:44Z</time>
      </trkpt>
      <trkpt lat="46.12631" lon="2.46969">
        <ele>495</ele>
        <time>2015-04-10T14:33:46Z</time>
      </trkpt>
      <trkpt lat="46.12634" lon="2.4697">
        <ele>495</ele>
        <time>2015-04-10T14:33:48Z</time>
      </trkpt>
      <trkpt lat="46.12637" lon="2.4697">
        <ele>494</ele>
        <time>2015-04-10T14:33:50Z</time>
      </trkpt>
      <trkpt lat="46.12639" lon="2.46971">
        <ele>494</ele>
        <time>2015-04-10T14:33:52Z</time>
      </trkpt>
      <trkpt lat="46.12642" lon="2.46972">
        <ele>493</ele>
        <time>2015-04-10T14:33:54Z</time>
      </trkpt>
      <trkpt lat="46.12645" lon="2.46973">
        <ele>493</ele>
        <time>2015-04-10T14:33:56Z</time>
      </trkpt>
      <trkpt lat="46.12648" lon="2.46974">
        <ele>493</ele>
        <time>2015-04-10T14:33:58Z</time>
      </trkpt>
      <trkpt lat="46.12651" lon="2.46975">
        <ele>493</ele>
        <time>2015-04-10T14:34:00Z</time>
      </trkpt>
      <trkpt lat="46.12653" lon="2.46976">
        <ele>493</ele>
        <time>2015-04-10T14:34:02Z</time>
      </trkpt>
      <trkpt lat="46.12656" lon="2.46977">
        <ele>493</ele>
        <time>2015-04-10T14:34:04Z</time>
      </trkpt>
      <trkpt lat="46.12659" lon="2.46978">
        <ele>493</ele>
        <time>2015-04-10T14:34:06Z</time>
      </trkpt>
      <trkpt lat="46.12662" lon="2.46981">
        <ele>493</ele>
        <time>2015-04-10T14:34:08Z</time>
      </trkpt>
      <trkpt lat="46.12665" lon="2.46982">
        <ele>493</ele>
        <time>2015-04-10T14:34:10Z</time>
      </trkpt>
      <trkpt lat="46.12667" lon="2.46983">
        <ele>493</ele>
        <time>2015-04-10T14:34:12Z</time>
      </trkpt>
      <trkpt lat="46.12669" lon="2.46984">
        <ele>492</ele>
        <time>2015-04-10T14:34:14Z</time>
      </trkpt>
      <trkpt lat="46.12672" lon="2.46985">
        <ele>492</ele>
        <time>2015-04-10T14:34:16Z</time>
      </trkpt>
      <trkpt lat="46.12674" lon="2.46986">
        <ele>492</ele>
        <time>2015-04-10T14:34:18Z</time>
      </trkpt>
      <trkpt lat="46.12677" lon="2.46987">
        <ele>491</ele>
        <time>2015-04-10T14:34:20Z</time>
      </trkpt>
      <trkpt lat="46.12679" lon="2.46988">
        <ele>491</ele>
        <time>2015-04-10T14:34:22Z</time>
      </trkpt>
      <trkpt lat="46.12682" lon="2.46989">
        <ele>490</ele>
        <time>2015-04-10T14:34:24Z</time>
      </trkpt>
      <trkpt lat="46.12684" lon="2.46992">
        <ele>490</ele>
        <time>2015-04-10T14:34:26Z</time>
      </trkpt>
      <trkpt lat="46.12686" lon="2.46994">
        <ele>489</ele>
        <time>2015-04-10T14:34:28Z</time>
      </trkpt>
      <trkpt lat="46.1269" lon="2.46995">
        <ele>489</ele>
        <time>2015-04-10T14:34:30Z</time>
      </trkpt>
      <trkpt lat="46.12693" lon="2.46995">
        <ele>489</ele>
        <time>2015-04-10T14:34:32Z</time>
      </trkpt>
      <trkpt lat="46.12696" lon="2.46995">
        <ele>489</ele>
        <time>2015-04-10T14:34:34Z</time>
      </trkpt>
      <trkpt lat="46.12699" lon="2.46997">
        <ele>489</ele>
        <time>2015-04-10T14:34:36Z</time>
      </trkpt>
      <trkpt lat="46.12702" lon="2.46999">
        <ele>489</ele>
        <time>2015-04-10T14:34:38Z</time>
      </trkpt>
      <trkpt lat="46.12705" lon="2.47001">
        <ele>489</ele>
        <time>2015-04-10T14:34:40Z</time>
      </trkpt>
      <trkpt lat="46.12708" lon="2.47004">
        <ele>489</ele>
        <time>2015-04-10T14:34:42Z</time>
      </trkpt>
      <trkpt lat="46.12711" lon="2.47005">
        <ele>489</ele>
        <time>2015-04-10T14:34:44Z</time>
      </trkpt>
      <trkpt lat="46.12714" lon="2.47006">
        <ele>489</ele>
        <time>2015-04-10T14:34:46Z</time>
      </trkpt>
      <trkpt lat="46.12717" lon="2.47008">
        <ele>489</ele>
        <time>2015-04-10T14:34:48Z</time>
      </trkpt>
      <trkpt lat="46.1272" lon="2.4701">
        <ele>489</ele>
        <time>2015-04-10T14:34:50Z</time>
      </trkpt>
      <trkpt lat="46.12723" lon="2.47012">
        <ele>489</ele>
        <time>2015-04-10T14:34:52Z</time>
      </trkpt>
      <trkpt lat="46.12726" lon="2.47015">
        <ele>489</ele>
        <time>2015-04-10T14:34:54Z</time>
      </trkpt>
      <trkpt lat="46.12729" lon="2.47016">
        <ele>489</ele>
        <time>2015-04-10T14:34:56Z</time>
      </trkpt>
      <trkpt lat="46.12733" lon="2.47017">
        <ele>489</ele>
        <time>2015-04-10T14:34:58Z</time>
      </trkpt>
      <trkpt lat="46.12736" lon="2.47017">
        <ele>489</ele>
        <time>2015-04-10T14:35:00Z</time>
      </trkpt>
      <trkpt lat="46.12739" lon="2.47018">
        <ele>489</ele>
        <time>2015-04-10T14:35:02Z</time>
      </trkpt>
      <trkpt lat="46.12741" lon="2.47018">
        <ele>489</ele>
        <time>2015-04-10T14:35:04Z</time>
      </trkpt>
      <trkpt lat="46.12743" lon="2.47019">
        <ele>489</ele>
        <time>2015-04-10T14:35:06Z</time>
      </trkpt>
      <trkpt lat="46.12746" lon="2.4702">
        <ele>489</ele>
        <time>2015-04-10T14:35:08Z</time>
      </trkpt>
      <trkpt lat="46.12749" lon="2.4702">
        <ele>489</ele>
        <time>2015-04-10T14:35:10Z</time>
      </trkpt>
      <trkpt lat="46.12752" lon="2.47021">
        <ele>489</ele>
        <time>2015-04-10T14:35:12Z</time>
      </trkpt>
      <trkpt lat="46.12755" lon="2.47022">
        <ele>489</ele>
        <time>2015-04-10T14:35:14Z</time>
      </trkpt>
      <trkpt lat="46.12757" lon="2.47022">
        <ele>489</ele>
        <time>2015-04-10T14:35:16Z</time>
      </trkpt>
      <trkpt lat="46.1276" lon="2.47023">
        <ele>489</ele>
        <time>2015-04-10T14:35:18Z</time>
      </trkpt>
      <trkpt lat="46.12763" lon="2.47024">
        <ele>489</ele>
        <time>2015-04-10T14:35:20Z</time>
      </trkpt>
      <trkpt lat="46.12767" lon="2.47025">
        <ele>489</ele>
        <time>2015-04-10T14:35:22Z</time>
      </trkpt>
      <trkpt lat="46.1277" lon="2.47027">
        <ele>489</ele>
        <time>2015-04-10T14:35:24Z</time>
      </trkpt>
      <trkpt lat="46.12774" lon="2.47028">
        <ele>489</ele>
        <time>2015-04-10T14:35:26Z</time>
      </trkpt>
      <trkpt lat="46.12777" lon="2.47029">
        <ele>489</ele>
        <time>2015-04-10T14:35:28Z</time>
      </trkpt>
      <trkpt lat="46.12781" lon="2.4703">
        <ele>489</ele>
        <time>2015-04-10T14:35:30Z</time>
      </trkpt>
      <trkpt lat="46.12784" lon="2.4703">
        <ele>489</ele>
        <time>2015-04-10T14:35:32Z</time>
      </trkpt>
      <trkpt lat="46.12788" lon="2.47031">
        <ele>489</ele>
        <time>2015-04-10T14:35:34Z</time>
      </trkpt>
      <trkpt lat="46.12791" lon="2.47032">
        <ele>489</ele>
        <time>2015-04-10T14:35:36Z</time>
      </trkpt>
      <trkpt lat="46.12794" lon="2.47033">
        <ele>489</ele>
        <time>2015-04-10T14:35:38Z</time>
      </trkpt>
      <trkpt lat="46.12797" lon="2.47034">
        <ele>489</ele>
        <time>2015-04-10T14:35:40Z</time>
      </trkpt>
      <trkpt lat="46.128" lon="2.47035">
        <ele>489</ele>
        <time>2015-04-10T14:35:42Z</time>
      </trkpt>
      <trkpt lat="46.12803" lon="2.47035">
        <ele>489</ele>
        <time>2015-04-10T14:35:44Z</time>
      </trkpt>
      <trkpt lat="46.12806" lon="2.47036">
        <ele>489</ele>
        <time>2015-04-10T14:35:46Z</time>
      </trkpt>
      <trkpt lat="46.1281" lon="2.47037">
        <ele>489</ele>
        <time>2015-04-10T14:35:48Z</time>
      </trkpt>
      <trkpt lat="46.12813" lon="2.47038">
        <ele>489</ele>
        <time>2015-04-10T14:35:50Z</time>
      </trkpt>
      <trkpt lat="46.12815" lon="2.47039">
        <ele>489</ele>
        <time>2015-04-10T14:35:52Z</time>
      </trkpt>
      <trkpt lat="46.12819" lon="2.4704">
        <ele>489</ele>
        <time>2015-04-10T14:35:54Z</time>
      </trkpt>
      <trkpt lat="46.12822" lon="2.4704">
        <ele>489</ele>
        <time>2015-04-10T14:35:56Z</time>
      </trkpt>
      <trkpt lat="46.12825" lon="2.47041">
        <ele>489</ele>
        <time>2015-04-10T14:35:58Z</time>
      </trkpt>
      <trkpt lat="46.12828" lon="2.47042">
        <ele>489</ele>
        <time>2015-04-10T14:36:00Z</time>
      </trkpt>
      <trkpt lat="46.12831" lon="2.47042">
        <ele>489</ele>
        <time>2015-04-10T14:36:02Z</time>
      </trkpt>
      <trkpt lat="46.12834" lon="2.47043">
        <ele>489</ele>
        <time>2015-04-10T14:36:04Z</time>
      </trkpt>
      <trkpt lat="46.12838" lon="2.47044">
        <ele>489</ele>
        <time>2015-04-10T14:36:06Z</time>
      </trkpt>
      <trkpt lat="46.12841" lon="2.47045">
        <ele>489</ele>
        <time>2015-04-10T14:36:08Z</time>
      </trkpt>
      <trkpt lat="46.12844" lon="2.47046">
        <ele>489</ele>
        <time>2015-04-10T14:36:10Z</time>
      </trkpt>
      <trkpt lat="46.12847" lon="2.47047">
        <ele>489</ele>
        <time>2015-04-10T14:36:12Z</time>
      </trkpt>
      <trkpt lat="46.12848" lon="2.47047">
        <ele>489</ele>
        <time>2015-04-10T14:36:14Z</time>
      </trkpt>
      <trkpt lat="46.12852" lon="2.47047">
        <ele>489</ele>
        <time>2015-04-10T14:36:17Z</time>
      </trkpt>
      <trkpt lat="46.12854" lon="2.47047">
        <ele>489</ele>
        <time>2015-04-10T14:36:19Z</time>
      </trkpt>
      <trkpt lat="46.12857" lon="2.47047">
        <ele>489</ele>
        <time>2015-04-10T14:36:21Z</time>
      </trkpt>
      <trkpt lat="46.12859" lon="2.47049">
        <ele>488</ele>
        <time>2015-04-10T14:36:23Z</time>
      </trkpt>
      <trkpt lat="46.12863" lon="2.4705">
        <ele>488</ele>
        <time>2015-04-10T14:36:25Z</time>
      </trkpt>
      <trkpt lat="46.12866" lon="2.4705">
        <ele>488</ele>
        <time>2015-04-10T14:36:27Z</time>
      </trkpt>
      <trkpt lat="46.12869" lon="2.47049">
        <ele>488</ele>
        <time>2015-04-10T14:36:29Z</time>
      </trkpt>
      <trkpt lat="46.12872" lon="2.47049">
        <ele>488</ele>
        <time>2015-04-10T14:36:31Z</time>
      </trkpt>
      <trkpt lat="46.12875" lon="2.47049">
        <ele>488</ele>
        <time>2015-04-10T14:36:33Z</time>
      </trkpt>
      <trkpt lat="46.12879" lon="2.47049">
        <ele>488</ele>
        <time>2015-04-10T14:36:35Z</time>
      </trkpt>
      <trkpt lat="46.12882" lon="2.4705">
        <ele>488</ele>
        <time>2015-04-10T14:36:37Z</time>
      </trkpt>
      <trkpt lat="46.12884" lon="2.4705">
        <ele>488</ele>
        <time>2015-04-10T14:36:39Z</time>
      </trkpt>
      <trkpt lat="46.12887" lon="2.4705">
        <ele>487</ele>
        <time>2015-04-10T14:36:41Z</time>
      </trkpt>
      <trkpt lat="46.1289" lon="2.4705">
        <ele>487</ele>
        <time>2015-04-10T14:36:43Z</time>
      </trkpt>
      <trkpt lat="46.12892" lon="2.4705">
        <ele>487</ele>
        <time>2015-04-10T14:36:45Z</time>
      </trkpt>
      <trkpt lat="46.12896" lon="2.47051">
        <ele>486</ele>
        <time>2015-04-10T14:36:48Z</time>
      </trkpt>
      <trkpt lat="46.12898" lon="2.47052">
        <ele>486</ele>
        <time>2015-04-10T14:36:50Z</time>
      </trkpt>
      <trkpt lat="46.12901" lon="2.47052">
        <ele>486</ele>
        <time>2015-04-10T14:36:52Z</time>
      </trkpt>
      <trkpt lat="46.12904" lon="2.47052">
        <ele>486</ele>
        <time>2015-04-10T14:36:54Z</time>
      </trkpt>
      <trkpt lat="46.12906" lon="2.47052">
        <ele>486</ele>
        <time>2015-04-10T14:36:56Z</time>
      </trkpt>
      <trkpt lat="46.12909" lon="2.47052">
        <ele>485</ele>
        <time>2015-04-10T14:36:58Z</time>
      </trkpt>
      <trkpt lat="46.12911" lon="2.47052">
        <ele>485</ele>
        <time>2015-04-10T14:37:00Z</time>
      </trkpt>
      <trkpt lat="46.12914" lon="2.47052">
        <ele>485</ele>
        <time>2015-04-10T14:37:04Z</time>
      </trkpt>
      <trkpt lat="46.12915" lon="2.47052">
        <ele>485</ele>
        <time>2015-04-10T14:37:06Z</time>
      </trkpt>
      <trkpt lat="46.12918" lon="2.47052">
        <ele>485</ele>
        <time>2015-04-10T14:37:08Z</time>
      </trkpt>
      <trkpt lat="46.1292" lon="2.47052">
        <ele>485</ele>
        <time>2015-04-10T14:37:10Z</time>
      </trkpt>
      <trkpt lat="46.12923" lon="2.47053">
        <ele>485</ele>
        <time>2015-04-10T14:37:12Z</time>
      </trkpt>
      <trkpt lat="46.12926" lon="2.47053">
        <ele>485</ele>
        <time>2015-04-10T14:37:14Z</time>
      </trkpt>
      <trkpt lat="46.12928" lon="2.47053">
        <ele>485</ele>
        <time>2015-04-10T14:37:16Z</time>
      </trkpt>
      <trkpt lat="46.12931" lon="2.47053">
        <ele>485</ele>
        <time>2015-04-10T14:37:18Z</time>
      </trkpt>
      <trkpt lat="46.12935" lon="2.47053">
        <ele>485</ele>
        <time>2015-04-10T14:37:20Z</time>
      </trkpt>
      <trkpt lat="46.12939" lon="2.47052">
        <ele>485</ele>
        <time>2015-04-10T14:37:23Z</time>
      </trkpt>
      <trkpt lat="46.12942" lon="2.47052">
        <ele>485</ele>
        <time>2015-04-10T14:37:25Z</time>
      </trkpt>
      <trkpt lat="46.12944" lon="2.47052">
        <ele>485</ele>
        <time>2015-04-10T14:37:27Z</time>
      </trkpt>
      <trkpt lat="46.12947" lon="2.47052">
        <ele>485</ele>
        <time>2015-04-10T14:37:29Z</time>
      </trkpt>
      <trkpt lat="46.1295" lon="2.47052">
        <ele>485</ele>
        <time>2015-04-10T14:37:31Z</time>
      </trkpt>
      <trkpt lat="46.12953" lon="2.47052">
        <ele>484</ele>
        <time>2015-04-10T14:37:33Z</time>
      </trkpt>
      <trkpt lat="46.12955" lon="2.47051">
        <ele>484</ele>
        <time>2015-04-10T14:37:36Z</time>
      </trkpt>
      <trkpt lat="46.12957" lon="2.4705">
        <ele>484</ele>
        <time>2015-04-10T14:37:38Z</time>
      </trkpt>
      <trkpt lat="46.12961" lon="2.47052">
        <ele>484</ele>
        <time>2015-04-10T14:37:41Z</time>
      </trkpt>
      <trkpt lat="46.12962" lon="2.47053">
        <ele>483</ele>
        <time>2015-04-10T14:37:43Z</time>
      </trkpt>
      <trkpt lat="46.12964" lon="2.47053">
        <ele>483</ele>
        <time>2015-04-10T14:37:45Z</time>
      </trkpt>
      <trkpt lat="46.12966" lon="2.47053">
        <ele>483</ele>
        <time>2015-04-10T14:37:47Z</time>
      </trkpt>
      <trkpt lat="46.12969" lon="2.47052">
        <ele>483</ele>
        <time>2015-04-10T14:37:49Z</time>
      </trkpt>
      <trkpt lat="46.12971" lon="2.47052">
        <ele>483</ele>
        <time>2015-04-10T14:37:51Z</time>
      </trkpt>
      <trkpt lat="46.12974" lon="2.47052">
        <ele>483</ele>
        <time>2015-04-10T14:37:53Z</time>
      </trkpt>
      <trkpt lat="46.12976" lon="2.47051">
        <ele>483</ele>
        <time>2015-04-10T14:37:55Z</time>
      </trkpt>
      <trkpt lat="46.12979" lon="2.47051">
        <ele>483</ele>
        <time>2015-04-10T14:37:57Z</time>
      </trkpt>
      <trkpt lat="46.12982" lon="2.47051">
        <ele>483</ele>
        <time>2015-04-10T14:37:59Z</time>
      </trkpt>
      <trkpt lat="46.12985" lon="2.47052">
        <ele>483</ele>
        <time>2015-04-10T14:38:01Z</time>
      </trkpt>
      <trkpt lat="46.12988" lon="2.47052">
        <ele>483</ele>
        <time>2015-04-10T14:38:03Z</time>
      </trkpt>
      <trkpt lat="46.1299" lon="2.47052">
        <ele>483</ele>
        <time>2015-04-10T14:38:05Z</time>
      </trkpt>
      <trkpt lat="46.12991" lon="2.47052">
        <ele>483</ele>
        <time>2015-04-10T14:38:07Z</time>
      </trkpt>
      <trkpt lat="46.12993" lon="2.47054">
        <ele>483</ele>
        <time>2015-04-10T14:38:09Z</time>
      </trkpt>
      <trkpt lat="46.12995" lon="2.47056">
        <ele>483</ele>
        <time>2015-04-10T14:38:11Z</time>
      </trkpt>
      <trkpt lat="46.12996" lon="2.47057">
        <ele>483</ele>
        <time>2015-04-10T14:38:13Z</time>
      </trkpt>
      <trkpt lat="46.12997" lon="2.47059">
        <ele>482</ele>
        <time>2015-04-10T14:38:15Z</time>
      </trkpt>
      <trkpt lat="46.12998" lon="2.47062">
        <ele>482</ele>
        <time>2015-04-10T14:38:17Z</time>
      </trkpt>
      <trkpt lat="46.12998" lon="2.47064">
        <ele>482</ele>
        <time>2015-04-10T14:38:19Z</time>
      </trkpt>
      <trkpt lat="46.12998" lon="2.47066">
        <ele>482</ele>
        <time>2015-04-10T14:38:21Z</time>
      </trkpt>
      <trkpt lat="46.12999" lon="2.47068">
        <ele>482</ele>
        <time>2015-04-10T14:38:23Z</time>
      </trkpt>
      <trkpt lat="46.12998" lon="2.4707">
        <ele>482</ele>
        <time>2015-04-10T14:38:26Z</time>
      </trkpt>
      <trkpt lat="46.12999" lon="2.47071">
        <ele>482</ele>
        <time>2015-04-10T14:38:30Z</time>
      </trkpt>
      <trkpt lat="46.12999" lon="2.47073">
        <ele>482</ele>
        <time>2015-04-10T14:38:32Z</time>
      </trkpt>
      <trkpt lat="46.12999" lon="2.47076">
        <ele>482</ele>
        <time>2015-04-10T14:38:34Z</time>
      </trkpt>
      <trkpt lat="46.12999" lon="2.47079">
        <ele>482</ele>
        <time>2015-04-10T14:38:36Z</time>
      </trkpt>
      <trkpt lat="46.12999" lon="2.47082">
        <ele>482</ele>
        <time>2015-04-10T14:38:38Z</time>
      </trkpt>
      <trkpt lat="46.12999" lon="2.47086">
        <ele>482</ele>
        <time>2015-04-10T14:38:40Z</time>
      </trkpt>
      <trkpt lat="46.12999" lon="2.4709">
        <ele>482</ele>
        <time>2015-04-10T14:38:42Z</time>
      </trkpt>
      <trkpt lat="46.12999" lon="2.47094">
        <ele>482</ele>
        <time>2015-04-10T14:38:44Z</time>
      </trkpt>
      <trkpt lat="46.12999" lon="2.47098">
        <ele>482</ele>
        <time>2015-04-10T14:38:46Z</time>
      </trkpt>
      <trkpt lat="46.12999" lon="2.47102">
        <ele>482</ele>
        <time>2015-04-10T14:38:48Z</time>
      </trkpt>
      <trkpt lat="46.12999" lon="2.47106">
        <ele>482</ele>
        <time>2015-04-10T14:38:50Z</time>
      </trkpt>
      <trkpt lat="46.12999" lon="2.47109">
        <ele>482</ele>
        <time>2015-04-10T14:38:52Z</time>
      </trkpt>
      <trkpt lat="46.12999" lon="2.47113">
        <ele>482</ele>
        <time>2015-04-10T14:38:54Z</time>
      </trkpt>
      <trkpt lat="46.12999" lon="2.47117">
        <ele>482</ele>
        <time>2015-04-10T14:38:56Z</time>
      </trkpt>
      <trkpt lat="46.12999" lon="2.47121">
        <ele>482</ele>
        <time>2015-04-10T14:38:58Z</time>
      </trkpt>
      <trkpt lat="46.12999" lon="2.47125">
        <ele>482</ele>
        <time>2015-04-10T14:39:00Z</time>
      </trkpt>
      <trkpt lat="46.12999" lon="2.47129">
        <ele>482</ele>
        <time>2015-04-10T14:39:02Z</time>
      </trkpt>
      <trkpt lat="46.12999" lon="2.47132">
        <ele>482</ele>
        <time>2015-04-10T14:39:04Z</time>
      </trkpt>
      <trkpt lat="46.12999" lon="2.47136">
        <ele>482</ele>
        <time>2015-04-10T14:39:06Z</time>
      </trkpt>
      <trkpt lat="46.12999" lon="2.4714">
        <ele>482</ele>
        <time>2015-04-10T14:39:08Z</time>
      </trkpt>
      <trkpt lat="46.12999" lon="2.47144">
        <ele>482</ele>
        <time>2015-04-10T14:39:10Z</time>
      </trkpt>
      <trkpt lat="46.12999" lon="2.47148">
        <ele>482</ele>
        <time>2015-04-10T14:39:12Z</time>
      </trkpt>
      <trkpt lat="46.12999" lon="2.47152">
        <ele>482</ele>
        <time>2015-04-10T14:39:14Z</time>
      </trkpt>
      <trkpt lat="46.12999" lon="2.47156">
        <ele>482</ele>
        <time>2015-04-10T14:39:16Z</time>
      </trkpt>
      <trkpt lat="46.12999" lon="2.4716">
        <ele>482</ele>
        <time>2015-04-10T14:39:18Z</time>
      </trkpt>
      <trkpt lat="46.12999" lon="2.47164">
        <ele>482</ele>
        <time>2015-04-10T14:39:20Z</time>
      </trkpt>
      <trkpt lat="46.12999" lon="2.47168">
        <ele>482</ele>
        <time>2015-04-10T14:39:22Z</time>
      </trkpt>
      <trkpt lat="46.13" lon="2.47172">
        <ele>482</ele>
        <time>2015-04-10T14:39:24Z</time>
      </trkpt>
      <trkpt lat="46.13001" lon="2.47176">
        <ele>482</ele>
        <time>2015-04-10T14:39:26Z</time>
      </trkpt>
      <trkpt lat="46.13002" lon="2.4718">
        <ele>482</ele>
        <time>2015-04-10T14:39:28Z</time>
      </trkpt>
      <trkpt lat="46.13003" lon="2.47184">
        <ele>482</ele>
        <time>2015-04-10T14:39:30Z</time>
      </trkpt>
      <trkpt lat="46.13004" lon="2.47188">
        <ele>482</ele>
        <time>2015-04-10T14:39:32Z</time>
      </trkpt>
      <trkpt lat="46.13005" lon="2.47192">
        <ele>482</ele>
        <time>2015-04-10T14:39:34Z</time>
      </trkpt>
      <trkpt lat="46.13005" lon="2.47196">
        <ele>482</ele>
        <time>2015-04-10T14:39:36Z</time>
      </trkpt>
      <trkpt lat="46.13005" lon="2.47199">
        <ele>482</ele>
        <time>2015-04-10T14:39:38Z</time>
      </trkpt>
      <trkpt lat="46.13006" lon="2.47203">
        <ele>482</ele>
        <time>2015-04-10T14:39:40Z</time>
      </trkpt>
      <trkpt lat="46.13006" lon="2.47207">
        <ele>482</ele>
        <time>2015-04-10T14:39:42Z</time>
      </trkpt>
      <trkpt lat="46.13007" lon="2.47211">
        <ele>482</ele>
        <time>2015-04-10T14:39:44Z</time>
      </trkpt>
      <trkpt lat="46.13008" lon="2.47214">
        <ele>482</ele>
        <time>2015-04-10T14:39:47Z</time>
      </trkpt>
      <trkpt lat="46.1301" lon="2.47217">
        <ele>482</ele>
        <time>2015-04-10T14:39:49Z</time>
      </trkpt>
      <trkpt lat="46.1301" lon="2.47221">
        <ele>482</ele>
        <time>2015-04-10T14:39:51Z</time>
      </trkpt>
      <trkpt lat="46.13011" lon="2.47224">
        <ele>482</ele>
        <time>2015-04-10T14:39:53Z</time>
      </trkpt>
      <trkpt lat="46.13011" lon="2.47228">
        <ele>482</ele>
        <time>2015-04-10T14:39:55Z</time>
      </trkpt>
      <trkpt lat="46.13012" lon="2.47232">
        <ele>482</ele>
        <time>2015-04-10T14:39:57Z</time>
      </trkpt>
      <trkpt lat="46.13012" lon="2.47236">
        <ele>482</ele>
        <time>2015-04-10T14:39:59Z</time>
      </trkpt>
      <trkpt lat="46.13013" lon="2.47239">
        <ele>482</ele>
        <time>2015-04-10T14:40:01Z</time>
      </trkpt>
      <trkpt lat="46.13013" lon="2.47243">
        <ele>482</ele>
        <time>2015-04-10T14:40:03Z</time>
      </trkpt>
      <trkpt lat="46.13013" lon="2.47247">
        <ele>482</ele>
        <time>2015-04-10T14:40:05Z</time>
      </trkpt>
      <trkpt lat="46.13014" lon="2.47251">
        <ele>482</ele>
        <time>2015-04-10T14:40:07Z</time>
      </trkpt>
      <trkpt lat="46.13015" lon="2.47255">
        <ele>482</ele>
        <time>2015-04-10T14:40:09Z</time>
      </trkpt>
      <trkpt lat="46.13015" lon="2.47259">
        <ele>482</ele>
        <time>2015-04-10T14:40:11Z</time>
      </trkpt>
      <trkpt lat="46.13016" lon="2.47263">
        <ele>482</ele>
        <time>2015-04-10T14:40:13Z</time>
      </trkpt>
      <trkpt lat="46.13016" lon="2.47267">
        <ele>482</ele>
        <time>2015-04-10T14:40:15Z</time>
      </trkpt>
      <trkpt lat="46.13016" lon="2.47271">
        <ele>482</ele>
        <time>2015-04-10T14:40:17Z</time>
      </trkpt>
      <trkpt lat="46.13017" lon="2.47275">
        <ele>482</ele>
        <time>2015-04-10T14:40:19Z</time>
      </trkpt>
      <trkpt lat="46.13017" lon="2.4728">
        <ele>482</ele>
        <time>2015-04-10T14:40:21Z</time>
      </trkpt>
      <trkpt lat="46.13017" lon="2.47284">
        <ele>482</ele>
        <time>2015-04-10T14:40:23Z</time>
      </trkpt>
      <trkpt lat="46.13017" lon="2.47288">
        <ele>482</ele>
        <time>2015-04-10T14:40:25Z</time>
      </trkpt>
      <trkpt lat="46.13017" lon="2.47292">
        <ele>482</ele>
        <time>2015-04-10T14:40:27Z</time>
      </trkpt>
      <trkpt lat="46.13017" lon="2.47297">
        <ele>482</ele>
        <time>2015-04-10T14:40:29Z</time>
      </trkpt>
      <trkpt lat="46.13017" lon="2.47301">
        <ele>482</ele>
        <time>2015-04-10T14:40:31Z</time>
      </trkpt>
      <trkpt lat="46.13017" lon="2.47305">
        <ele>482</ele>
        <time>2015-04-10T14:40:33Z</time>
      </trkpt>
      <trkpt lat="46.13018" lon="2.47309">
        <ele>482</ele>
        <time>2015-04-10T14:40:35Z</time>
      </trkpt>
      <trkpt lat="46.13017" lon="2.47313">
        <ele>482</ele>
        <time>2015-04-10T14:40:37Z</time>
      </trkpt>
      <trkpt lat="46.13017" lon="2.47317">
        <ele>482</ele>
        <time>2015-04-10T14:40:39Z</time>
      </trkpt>
      <trkpt lat="46.13017" lon="2.47322">
        <ele>482</ele>
        <time>2015-04-10T14:40:41Z</time>
      </trkpt>
      <trkpt lat="46.13017" lon="2.47326">
        <ele>482</ele>
        <time>2015-04-10T14:40:43Z</time>
      </trkpt>
      <trkpt lat="46.13017" lon="2.4733">
        <ele>482</ele>
        <time>2015-04-10T14:40:45Z</time>
      </trkpt>
      <trkpt lat="46.13017" lon="2.47334">
        <ele>482</ele>
        <time>2015-04-10T14:40:47Z</time>
      </trkpt>
      <trkpt lat="46.13017" lon="2.47338">
        <ele>481</ele>
        <time>2015-04-10T14:40:49Z</time>
      </trkpt>
      <trkpt lat="46.13017" lon="2.47342">
        <ele>481</ele>
        <time>2015-04-10T14:40:51Z</time>
      </trkpt>
      <trkpt lat="46.13017" lon="2.47346">
        <ele>481</ele>
        <time>2015-04-10T14:40:53Z</time>
      </trkpt>
      <trkpt lat="46.13016" lon="2.4735">
        <ele>481</ele>
        <time>2015-04-10T14:40:55Z</time>
      </trkpt>
      <trkpt lat="46.13016" lon="2.47354">
        <ele>481</ele>
        <time>2015-04-10T14:40:57Z</time>
      </trkpt>
      <trkpt lat="46.13016" lon="2.47357">
        <ele>481</ele>
        <time>2015-04-10T14:40:59Z</time>
      </trkpt>
      <trkpt lat="46.13016" lon="2.47356">
        <ele>481</ele>
        <time>2015-04-10T14:41:02Z</time>
      </trkpt>
      <trkpt lat="46.13016" lon="2.47358">
        <ele>480</ele>
        <time>2015-04-10T14:41:05Z</time>
      </trkpt>
      <trkpt lat="46.13015" lon="2.47362">
        <ele>480</ele>
        <time>2015-04-10T14:41:07Z</time>
      </trkpt>
      <trkpt lat="46.13014" lon="2.47365">
        <ele>480</ele>
        <time>2015-04-10T14:41:09Z</time>
      </trkpt>
      <trkpt lat="46.13012" lon="2.47369">
        <ele>480</ele>
        <time>2015-04-10T14:41:11Z</time>
      </trkpt>
      <trkpt lat="46.13011" lon="2.47372">
        <ele>480</ele>
        <time>2015-04-10T14:41:13Z</time>
      </trkpt>
      <trkpt lat="46.13009" lon="2.47374">
        <ele>480</ele>
        <time>2015-04-10T14:41:15Z</time>
      </trkpt>
      <trkpt lat="46.13006" lon="2.47376">
        <ele>480</ele>
        <time>2015-04-10T14:41:17Z</time>
      </trkpt>
      <trkpt lat="46.13004" lon="2.47376">
        <ele>480</ele>
        <time>2015-04-10T14:41:19Z</time>
      </trkpt>
      <trkpt lat="46.13002" lon="2.47377">
        <ele>480</ele>
        <time>2015-04-10T14:41:21Z</time>
      </trkpt>
      <trkpt lat="46.12999" lon="2.47378">
        <ele>480</ele>
        <time>2015-04-10T14:41:23Z</time>
      </trkpt>
      <trkpt lat="46.12997" lon="2.47378">
        <ele>480</ele>
        <time>2015-04-10T14:41:25Z</time>
      </trkpt>
      <trkpt lat="46.12994" lon="2.47379">
        <ele>480</ele>
        <time>2015-04-10T14:41:27Z</time>
      </trkpt>
      <trkpt lat="46.12992" lon="2.4738">
        <ele>480</ele>
        <time>2015-04-10T14:41:29Z</time>
      </trkpt>
      <trkpt lat="46.12989" lon="2.47381">
        <ele>480</ele>
        <time>2015-04-10T14:41:31Z</time>
      </trkpt>
      <trkpt lat="46.12986" lon="2.47383">
        <ele>480</ele>
        <time>2015-04-10T14:41:34Z</time>
      </trkpt>
      <trkpt lat="46.12983" lon="2.47385">
        <ele>480</ele>
        <time>2015-04-10T14:41:37Z</time>
      </trkpt>
      <trkpt lat="46.1298" lon="2.47387">
        <ele>480</ele>
        <time>2015-04-10T14:41:39Z</time>
      </trkpt>
      <trkpt lat="46.12978" lon="2.47389">
        <ele>480</ele>
        <time>2015-04-10T14:41:41Z</time>
      </trkpt>
      <trkpt lat="46.12975" lon="2.47391">
        <ele>480</ele>
        <time>2015-04-10T14:41:43Z</time>
      </trkpt>
      <trkpt lat="46.12973" lon="2.47393">
        <ele>480</ele>
        <time>2015-04-10T14:41:45Z</time>
      </trkpt>
      <trkpt lat="46.1297" lon="2.47396">
        <ele>480</ele>
        <time>2015-04-10T14:41:47Z</time>
      </trkpt>
      <trkpt lat="46.12968" lon="2.47398">
        <ele>480</ele>
        <time>2015-04-10T14:41:49Z</time>
      </trkpt>
      <trkpt lat="46.12965" lon="2.47401">
        <ele>480</ele>
        <time>2015-04-10T14:41:51Z</time>
      </trkpt>
      <trkpt lat="46.12961" lon="2.47404">
        <ele>480</ele>
        <time>2015-04-10T14:41:54Z</time>
      </trkpt>
      <trkpt lat="46.12959" lon="2.47405">
        <ele>480</ele>
        <time>2015-04-10T14:41:56Z</time>
      </trkpt>
      <trkpt lat="46.12956" lon="2.47406">
        <ele>480</ele>
        <time>2015-04-10T14:41:58Z</time>
      </trkpt>
      <trkpt lat="46.12953" lon="2.47408">
        <ele>480</ele>
        <time>2015-04-10T14:42:00Z</time>
      </trkpt>
      <trkpt lat="46.1295" lon="2.4741">
        <ele>480</ele>
        <time>2015-04-10T14:42:02Z</time>
      </trkpt>
      <trkpt lat="46.12947" lon="2.47412">
        <ele>480</ele>
        <time>2015-04-10T14:42:04Z</time>
      </trkpt>
      <trkpt lat="46.12944" lon="2.47415">
        <ele>480</ele>
        <time>2015-04-10T14:42:06Z</time>
      </trkpt>
      <trkpt lat="46.12942" lon="2.47417">
        <ele>480</ele>
        <time>2015-04-10T14:42:08Z</time>
      </trkpt>
      <trkpt lat="46.12939" lon="2.47419">
        <ele>480</ele>
        <time>2015-04-10T14:42:10Z</time>
      </trkpt>
      <trkpt lat="46.12937" lon="2.47422">
        <ele>480</ele>
        <time>2015-04-10T14:42:12Z</time>
      </trkpt>
      <trkpt lat="46.12934" lon="2.47424">
        <ele>480</ele>
        <time>2015-04-10T14:42:14Z</time>
      </trkpt>
      <trkpt lat="46.12931" lon="2.47427">
        <ele>480</ele>
        <time>2015-04-10T14:42:17Z</time>
      </trkpt>
      <trkpt lat="46.12928" lon="2.47429">
        <ele>480</ele>
        <time>2015-04-10T14:42:19Z</time>
      </trkpt>
      <trkpt lat="46.12925" lon="2.47431">
        <ele>480</ele>
        <time>2015-04-10T14:42:21Z</time>
      </trkpt>
      <trkpt lat="46.12923" lon="2.47433">
        <ele>480</ele>
        <time>2015-04-10T14:42:23Z</time>
      </trkpt>
      <trkpt lat="46.1292" lon="2.47434">
        <ele>481</ele>
        <time>2015-04-10T14:42:25Z</time>
      </trkpt>
      <trkpt lat="46.12917" lon="2.47436">
        <ele>481</ele>
        <time>2015-04-10T14:42:27Z</time>
      </trkpt>
      <trkpt lat="46.12915" lon="2.47438">
        <ele>482</ele>
        <time>2015-04-10T14:42:29Z</time>
      </trkpt>
      <trkpt lat="46.12912" lon="2.4744">
        <ele>482</ele>
        <time>2015-04-10T14:42:31Z</time>
      </trkpt>
      <trkpt lat="46.12909" lon="2.47442">
        <ele>482</ele>
        <time>2015-04-10T14:42:33Z</time>
      </trkpt>
      <trkpt lat="46.12907" lon="2.47445">
        <ele>483</ele>
        <time>2015-04-10T14:42:35Z</time>
      </trkpt>
      <trkpt lat="46.12904" lon="2.47447">
        <ele>483</ele>
        <time>2015-04-10T14:42:37Z</time>
      </trkpt>
      <trkpt lat="46.12902" lon="2.4745">
        <ele>483</ele>
        <time>2015-04-10T14:42:39Z</time>
      </trkpt>
      <trkpt lat="46.129" lon="2.47452">
        <ele>483</ele>
        <time>2015-04-10T14:42:41Z</time>
      </trkpt>
      <trkpt lat="46.12898" lon="2.47457">
        <ele>483</ele>
        <time>2015-04-10T14:42:43Z</time>
      </trkpt>
      <trkpt lat="46.12896" lon="2.4746">
        <ele>483</ele>
        <time>2015-04-10T14:42:45Z</time>
      </trkpt>
      <trkpt lat="46.12893" lon="2.47463">
        <ele>483</ele>
        <time>2015-04-10T14:42:47Z</time>
      </trkpt>
      <trkpt lat="46.12891" lon="2.47467">
        <ele>483</ele>
        <time>2015-04-10T14:42:49Z</time>
      </trkpt>
      <trkpt lat="46.12889" lon="2.4747">
        <ele>483</ele>
        <time>2015-04-10T14:42:51Z</time>
      </trkpt>
      <trkpt lat="46.12887" lon="2.47474">
        <ele>483</ele>
        <time>2015-04-10T14:42:53Z</time>
      </trkpt>
      <trkpt lat="46.12886" lon="2.47477">
        <ele>483</ele>
        <time>2015-04-10T14:42:55Z</time>
      </trkpt>
      <trkpt lat="46.12883" lon="2.47481">
        <ele>483</ele>
        <time>2015-04-10T14:42:57Z</time>
      </trkpt>
      <trkpt lat="46.12882" lon="2.47484">
        <ele>483</ele>
        <time>2015-04-10T14:42:59Z</time>
      </trkpt>
      <trkpt lat="46.1288" lon="2.47488">
        <ele>483</ele>
        <time>2015-04-10T14:43:01Z</time>
      </trkpt>
      <trkpt lat="46.12878" lon="2.47492">
        <ele>483</ele>
        <time>2015-04-10T14:43:03Z</time>
      </trkpt>
      <trkpt lat="46.12876" lon="2.47495">
        <ele>483</ele>
        <time>2015-04-10T14:43:05Z</time>
      </trkpt>
      <trkpt lat="46.12875" lon="2.47499">
        <ele>483</ele>
        <time>2015-04-10T14:43:07Z</time>
      </trkpt>
      <trkpt lat="46.12873" lon="2.47502">
        <ele>483</ele>
        <time>2015-04-10T14:43:09Z</time>
      </trkpt>
      <trkpt lat="46.12871" lon="2.47505">
        <ele>484</ele>
        <time>2015-04-10T14:43:11Z</time>
      </trkpt>
      <trkpt lat="46.12869" lon="2.47509">
        <ele>484</ele>
        <time>2015-04-10T14:43:13Z</time>
      </trkpt>
      <trkpt lat="46.12867" lon="2.47512">
        <ele>485</ele>
        <time>2015-04-10T14:43:15Z</time>
      </trkpt>
      <trkpt lat="46.12866" lon="2.47516">
        <ele>485</ele>
        <time>2015-04-10T14:43:17Z</time>
      </trkpt>
      <trkpt lat="46.12864" lon="2.47519">
        <ele>485</ele>
        <time>2015-04-10T14:43:19Z</time>
      </trkpt>
      <trkpt lat="46.12862" lon="2.47523">
        <ele>485</ele>
        <time>2015-04-10T14:43:21Z</time>
      </trkpt>
      <trkpt lat="46.1286" lon="2.47526">
        <ele>485</ele>
        <time>2015-04-10T14:43:23Z</time>
      </trkpt>
      <trkpt lat="46.12859" lon="2.47529">
        <ele>485</ele>
        <time>2015-04-10T14:43:25Z</time>
      </trkpt>
      <trkpt lat="46.12857" lon="2.47533">
        <ele>486</ele>
        <time>2015-04-10T14:43:27Z</time>
      </trkpt>
      <trkpt lat="46.12856" lon="2.47536">
        <ele>486</ele>
        <time>2015-04-10T14:43:29Z</time>
      </trkpt>
      <trkpt lat="46.12855" lon="2.4754">
        <ele>486</ele>
        <time>2015-04-10T14:43:31Z</time>
      </trkpt>
      <trkpt lat="46.12854" lon="2.47545">
        <ele>486</ele>
        <time>2015-04-10T14:43:33Z</time>
      </trkpt>
      <trkpt lat="46.12852" lon="2.47549">
        <ele>486</ele>
        <time>2015-04-10T14:43:35Z</time>
      </trkpt>
      <trkpt lat="46.12851" lon="2.47553">
        <ele>486</ele>
        <time>2015-04-10T14:43:37Z</time>
      </trkpt>
      <trkpt lat="46.1285" lon="2.47557">
        <ele>486</ele>
        <time>2015-04-10T14:43:39Z</time>
      </trkpt>
      <trkpt lat="46.12849" lon="2.47561">
        <ele>486</ele>
        <time>2015-04-10T14:43:41Z</time>
      </trkpt>
      <trkpt lat="46.12848" lon="2.47565">
        <ele>486</ele>
        <time>2015-04-10T14:43:43Z</time>
      </trkpt>
      <trkpt lat="46.12847" lon="2.47569">
        <ele>486</ele>
        <time>2015-04-10T14:43:45Z</time>
      </trkpt>
      <trkpt lat="46.12846" lon="2.47573">
        <ele>486</ele>
        <time>2015-04-10T14:43:47Z</time>
      </trkpt>
      <trkpt lat="46.12844" lon="2.47577">
        <ele>486</ele>
        <time>2015-04-10T14:43:49Z</time>
      </trkpt>
      <trkpt lat="46.12842" lon="2.47581">
        <ele>486</ele>
        <time>2015-04-10T14:43:51Z</time>
      </trkpt>
      <trkpt lat="46.12841" lon="2.47585">
        <ele>487</ele>
        <time>2015-04-10T14:43:53Z</time>
      </trkpt>
      <trkpt lat="46.1284" lon="2.47589">
        <ele>487</ele>
        <time>2015-04-10T14:43:55Z</time>
      </trkpt>
      <trkpt lat="46.12839" lon="2.47593">
        <ele>487</ele>
        <time>2015-04-10T14:43:57Z</time>
      </trkpt>
      <trkpt lat="46.12837" lon="2.47597">
        <ele>487</ele>
        <time>2015-04-10T14:43:59Z</time>
      </trkpt>
      <trkpt lat="46.12835" lon="2.476">
        <ele>487</ele>
        <time>2015-04-10T14:44:01Z</time>
      </trkpt>
      <trkpt lat="46.12834" lon="2.47604">
        <ele>487</ele>
        <time>2015-04-10T14:44:03Z</time>
      </trkpt>
      <trkpt lat="46.12833" lon="2.47608">
        <ele>487</ele>
        <time>2015-04-10T14:44:05Z</time>
      </trkpt>
      <trkpt lat="46.12831" lon="2.47611">
        <ele>487</ele>
        <time>2015-04-10T14:44:07Z</time>
      </trkpt>
      <trkpt lat="46.1283" lon="2.47616">
        <ele>487</ele>
        <time>2015-04-10T14:44:09Z</time>
      </trkpt>
      <trkpt lat="46.12828" lon="2.47619">
        <ele>487</ele>
        <time>2015-04-10T14:44:11Z</time>
      </trkpt>
      <trkpt lat="46.12827" lon="2.47623">
        <ele>487</ele>
        <time>2015-04-10T14:44:13Z</time>
      </trkpt>
      <trkpt lat="46.12826" lon="2.47627">
        <ele>487</ele>
        <time>2015-04-10T14:44:15Z</time>
      </trkpt>
      <trkpt lat="46.12825" lon="2.47631">
        <ele>487</ele>
        <time>2015-04-10T14:44:17Z</time>
      </trkpt>
      <trkpt lat="46.12823" lon="2.47634">
        <ele>487</ele>
        <time>2015-04-10T14:44:19Z</time>
      </trkpt>
      <trkpt lat="46.12822" lon="2.47638">
        <ele>487</ele>
        <time>2015-04-10T14:44:21Z</time>
      </trkpt>
      <trkpt lat="46.1282" lon="2.47642">
        <ele>487</ele>
        <time>2015-04-10T14:44:23Z</time>
      </trkpt>
      <trkpt lat="46.12819" lon="2.47645">
        <ele>487</ele>
        <time>2015-04-10T14:44:25Z</time>
      </trkpt>
      <trkpt lat="46.12818" lon="2.47649">
        <ele>487</ele>
        <time>2015-04-10T14:44:27Z</time>
      </trkpt>
      <trkpt lat="46.12817" lon="2.47653">
        <ele>488</ele>
        <time>2015-04-10T14:44:29Z</time>
      </trkpt>
      <trkpt lat="46.12815" lon="2.47657">
        <ele>488</ele>
        <time>2015-04-10T14:44:31Z</time>
      </trkpt>
      <trkpt lat="46.12814" lon="2.47661">
        <ele>488</ele>
        <time>2015-04-10T14:44:33Z</time>
      </trkpt>
      <trkpt lat="46.12812" lon="2.47664">
        <ele>489</ele>
        <time>2015-04-10T14:44:35Z</time>
      </trkpt>
      <trkpt lat="46.12811" lon="2.47668">
        <ele>489</ele>
        <time>2015-04-10T14:44:37Z</time>
      </trkpt>
      <trkpt lat="46.1281" lon="2.47672">
        <ele>489</ele>
        <time>2015-04-10T14:44:39Z</time>
      </trkpt>
      <trkpt lat="46.12809" lon="2.47676">
        <ele>489</ele>
        <time>2015-04-10T14:44:41Z</time>
      </trkpt>
      <trkpt lat="46.12807" lon="2.47679">
        <ele>490</ele>
        <time>2015-04-10T14:44:43Z</time>
      </trkpt>
      <trkpt lat="46.12806" lon="2.47683">
        <ele>490</ele>
        <time>2015-04-10T14:44:45Z</time>
      </trkpt>
      <trkpt lat="46.12805" lon="2.47687">
        <ele>490</ele>
        <time>2015-04-10T14:44:47Z</time>
      </trkpt>
      <trkpt lat="46.12803" lon="2.4769">
        <ele>490</ele>
        <time>2015-04-10T14:44:49Z</time>
      </trkpt>
      <trkpt lat="46.12802" lon="2.47694">
        <ele>490</ele>
        <time>2015-04-10T14:44:51Z</time>
      </trkpt>
      <trkpt lat="46.12801" lon="2.47698">
        <ele>490</ele>
        <time>2015-04-10T14:44:53Z</time>
      </trkpt>
      <trkpt lat="46.12799" lon="2.47701">
        <ele>491</ele>
        <time>2015-04-10T14:44:55Z</time>
      </trkpt>
      <trkpt lat="46.12798" lon="2.47705">
        <ele>491</ele>
        <time>2015-04-10T14:44:57Z</time>
      </trkpt>
      <trkpt lat="46.12796" lon="2.47709">
        <ele>491</ele>
        <time>2015-04-10T14:44:59Z</time>
      </trkpt>
      <trkpt lat="46.12795" lon="2.47712">
        <ele>491</ele>
        <time>2015-04-10T14:45:01Z</time>
      </trkpt>
      <trkpt lat="46.12794" lon="2.47716">
        <ele>491</ele>
        <time>2015-04-10T14:45:03Z</time>
      </trkpt>
      <trkpt lat="46.12793" lon="2.4772">
        <ele>491</ele>
        <time>2015-04-10T14:45:05Z</time>
      </trkpt>
      <trkpt lat="46.12791" lon="2.47724">
        <ele>491</ele>
        <time>2015-04-10T14:45:07Z</time>
      </trkpt>
      <trkpt lat="46.1279" lon="2.47727">
        <ele>492</ele>
        <time>2015-04-10T14:45:09Z</time>
      </trkpt>
      <trkpt lat="46.12788" lon="2.47731">
        <ele>492</ele>
        <time>2015-04-10T14:45:11Z</time>
      </trkpt>
      <trkpt lat="46.12787" lon="2.47734">
        <ele>492</ele>
        <time>2015-04-10T14:45:13Z</time>
      </trkpt>
      <trkpt lat="46.12786" lon="2.47738">
        <ele>492</ele>
        <time>2015-04-10T14:45:15Z</time>
      </trkpt>
      <trkpt lat="46.12785" lon="2.47742">
        <ele>492</ele>
        <time>2015-04-10T14:45:17Z</time>
      </trkpt>
      <trkpt lat="46.12783" lon="2.47745">
        <ele>492</ele>
        <time>2015-04-10T14:45:19Z</time>
      </trkpt>
      <trkpt lat="46.12782" lon="2.47749">
        <ele>492</ele>
        <time>2015-04-10T14:45:21Z</time>
      </trkpt>
      <trkpt lat="46.1278" lon="2.47752">
        <ele>492</ele>
        <time>2015-04-10T14:45:23Z</time>
      </trkpt>
      <trkpt lat="46.12779" lon="2.47755">
        <ele>492</ele>
        <time>2015-04-10T14:45:25Z</time>
      </trkpt>
      <trkpt lat="46.12777" lon="2.47758">
        <ele>492</ele>
        <time>2015-04-10T14:45:27Z</time>
      </trkpt>
      <trkpt lat="46.12775" lon="2.47761">
        <ele>492</ele>
        <time>2015-04-10T14:45:29Z</time>
      </trkpt>
      <trkpt lat="46.12772" lon="2.47762">
        <ele>493</ele>
        <time>2015-04-10T14:45:31Z</time>
      </trkpt>
      <trkpt lat="46.1277" lon="2.47764">
        <ele>493</ele>
        <time>2015-04-10T14:45:33Z</time>
      </trkpt>
      <trkpt lat="46.12767" lon="2.47764">
        <ele>493</ele>
        <time>2015-04-10T14:45:35Z</time>
      </trkpt>
      <trkpt lat="46.12764" lon="2.47764">
        <ele>493</ele>
        <time>2015-04-10T14:45:37Z</time>
      </trkpt>
      <trkpt lat="46.12762" lon="2.47764">
        <ele>493</ele>
        <time>2015-04-10T14:45:39Z</time>
      </trkpt>
      <trkpt lat="46.12759" lon="2.47764">
        <ele>493</ele>
        <time>2015-04-10T14:45:41Z</time>
      </trkpt>
      <trkpt lat="46.12756" lon="2.47762">
        <ele>493</ele>
        <time>2015-04-10T14:45:43Z</time>
      </trkpt>
      <trkpt lat="46.12753" lon="2.47761">
        <ele>493</ele>
        <time>2015-04-10T14:45:45Z</time>
      </trkpt>
      <trkpt lat="46.12751" lon="2.4776">
        <ele>493</ele>
        <time>2015-04-10T14:45:47Z</time>
      </trkpt>
      <trkpt lat="46.12748" lon="2.47759">
        <ele>493</ele>
        <time>2015-04-10T14:45:49Z</time>
      </trkpt>
      <trkpt lat="46.12745" lon="2.47758">
        <ele>493</ele>
        <time>2015-04-10T14:45:51Z</time>
      </trkpt>
      <trkpt lat="46.12742" lon="2.47757">
        <ele>493</ele>
        <time>2015-04-10T14:45:53Z</time>
      </trkpt>
      <trkpt lat="46.12739" lon="2.47756">
        <ele>493</ele>
        <time>2015-04-10T14:45:55Z</time>
      </trkpt>
      <trkpt lat="46.12737" lon="2.47755">
        <ele>493</ele>
        <time>2015-04-10T14:45:57Z</time>
      </trkpt>
      <trkpt lat="46.12734" lon="2.47755">
        <ele>493</ele>
        <time>2015-04-10T14:45:59Z</time>
      </trkpt>
      <trkpt lat="46.12731" lon="2.47754">
        <ele>493</ele>
        <time>2015-04-10T14:46:01Z</time>
      </trkpt>
      <trkpt lat="46.12727" lon="2.47753">
        <ele>493</ele>
        <time>2015-04-10T14:46:03Z</time>
      </trkpt>
      <trkpt lat="46.12725" lon="2.47752">
        <ele>493</ele>
        <time>2015-04-10T14:46:05Z</time>
      </trkpt>
      <trkpt lat="46.12722" lon="2.47751">
        <ele>493</ele>
        <time>2015-04-10T14:46:07Z</time>
      </trkpt>
      <trkpt lat="46.12719" lon="2.4775">
        <ele>493</ele>
        <time>2015-04-10T14:46:09Z</time>
      </trkpt>
      <trkpt lat="46.12716" lon="2.47749">
        <ele>493</ele>
        <time>2015-04-10T14:46:11Z</time>
      </trkpt>
      <trkpt lat="46.12713" lon="2.47748">
        <ele>493</ele>
        <time>2015-04-10T14:46:13Z</time>
      </trkpt>
      <trkpt lat="46.1271" lon="2.47747">
        <ele>493</ele>
        <time>2015-04-10T14:46:15Z</time>
      </trkpt>
      <trkpt lat="46.12707" lon="2.47746">
        <ele>493</ele>
        <time>2015-04-10T14:46:17Z</time>
      </trkpt>
      <trkpt lat="46.12704" lon="2.47746">
        <ele>493</ele>
        <time>2015-04-10T14:46:19Z</time>
      </trkpt>
      <trkpt lat="46.12702" lon="2.47745">
        <ele>493</ele>
        <time>2015-04-10T14:46:21Z</time>
      </trkpt>
      <trkpt lat="46.12698" lon="2.47744">
        <ele>493</ele>
        <time>2015-04-10T14:46:23Z</time>
      </trkpt>
      <trkpt lat="46.12695" lon="2.47743">
        <ele>493</ele>
        <time>2015-04-10T14:46:25Z</time>
      </trkpt>
      <trkpt lat="46.12693" lon="2.47743">
        <ele>493</ele>
        <time>2015-04-10T14:46:27Z</time>
      </trkpt>
      <trkpt lat="46.1269" lon="2.47742">
        <ele>493</ele>
        <time>2015-04-10T14:46:29Z</time>
      </trkpt>
      <trkpt lat="46.12687" lon="2.47741">
        <ele>493</ele>
        <time>2015-04-10T14:46:31Z</time>
      </trkpt>
      <trkpt lat="46.12684" lon="2.4774">
        <ele>493</ele>
        <time>2015-04-10T14:46:33Z</time>
      </trkpt>
      <trkpt lat="46.12682" lon="2.47739">
        <ele>493</ele>
        <time>2015-04-10T14:46:35Z</time>
      </trkpt>
      <trkpt lat="46.12679" lon="2.47738">
        <ele>493</ele>
        <time>2015-04-10T14:46:37Z</time>
      </trkpt>
      <trkpt lat="46.12675" lon="2.47736">
        <ele>493</ele>
        <time>2015-04-10T14:46:40Z</time>
      </trkpt>
      <trkpt lat="46.12672" lon="2.47735">
        <ele>493</ele>
        <time>2015-04-10T14:46:42Z</time>
      </trkpt>
      <trkpt lat="46.1267" lon="2.47733">
        <ele>493</ele>
        <time>2015-04-10T14:46:44Z</time>
      </trkpt>
      <trkpt lat="46.12667" lon="2.47731">
        <ele>493</ele>
        <time>2015-04-10T14:46:46Z</time>
      </trkpt>
      <trkpt lat="46.12665" lon="2.4773">
        <ele>493</ele>
        <time>2015-04-10T14:46:48Z</time>
      </trkpt>
      <trkpt lat="46.12662" lon="2.47728">
        <ele>493</ele>
        <time>2015-04-10T14:46:50Z</time>
      </trkpt>
      <trkpt lat="46.12659" lon="2.47726">
        <ele>493</ele>
        <time>2015-04-10T14:46:52Z</time>
      </trkpt>
      <trkpt lat="46.12656" lon="2.47724">
        <ele>493</ele>
        <time>2015-04-10T14:46:54Z</time>
      </trkpt>
      <trkpt lat="46.12654" lon="2.47722">
        <ele>493</ele>
        <time>2015-04-10T14:46:56Z</time>
      </trkpt>
      <trkpt lat="46.12651" lon="2.4772">
        <ele>493</ele>
        <time>2015-04-10T14:46:58Z</time>
      </trkpt>
      <trkpt lat="46.12649" lon="2.47718">
        <ele>493</ele>
        <time>2015-04-10T14:47:00Z</time>
      </trkpt>
      <trkpt lat="46.12646" lon="2.47717">
        <ele>493</ele>
        <time>2015-04-10T14:47:02Z</time>
      </trkpt>
      <trkpt lat="46.12643" lon="2.47716">
        <ele>493</ele>
        <time>2015-04-10T14:47:04Z</time>
      </trkpt>
      <trkpt lat="46.1264" lon="2.47715">
        <ele>493</ele>
        <time>2015-04-10T14:47:06Z</time>
      </trkpt>
      <trkpt lat="46.12637" lon="2.47715">
        <ele>493</ele>
        <time>2015-04-10T14:47:08Z</time>
      </trkpt>
      <trkpt lat="46.12635" lon="2.47714">
        <ele>493</ele>
        <time>2015-04-10T14:47:10Z</time>
      </trkpt>
      <trkpt lat="46.12632" lon="2.47715">
        <ele>493</ele>
        <time>2015-04-10T14:47:12Z</time>
      </trkpt>
      <trkpt lat="46.1263" lon="2.47716">
        <ele>493</ele>
        <time>2015-04-10T14:47:14Z</time>
      </trkpt>
      <trkpt lat="46.12626" lon="2.47716">
        <ele>493</ele>
        <time>2015-04-10T14:47:16Z</time>
      </trkpt>
      <trkpt lat="46.12623" lon="2.47717">
        <ele>494</ele>
        <time>2015-04-10T14:47:18Z</time>
      </trkpt>
      <trkpt lat="46.1262" lon="2.47719">
        <ele>495</ele>
        <time>2015-04-10T14:47:20Z</time>
      </trkpt>
      <trkpt lat="46.12617" lon="2.47723">
        <ele>496</ele>
        <time>2015-04-10T14:47:23Z</time>
      </trkpt>
      <trkpt lat="46.12614" lon="2.47725">
        <ele>496</ele>
        <time>2015-04-10T14:47:25Z</time>
      </trkpt>
      <trkpt lat="46.12612" lon="2.47727">
        <ele>496</ele>
        <time>2015-04-10T14:47:27Z</time>
      </trkpt>
      <trkpt lat="46.12609" lon="2.47729">
        <ele>496</ele>
        <time>2015-04-10T14:47:29Z</time>
      </trkpt>
      <trkpt lat="46.12607" lon="2.47731">
        <ele>496</ele>
        <time>2015-04-10T14:47:31Z</time>
      </trkpt>
      <trkpt lat="46.12605" lon="2.47734">
        <ele>496</ele>
        <time>2015-04-10T14:47:33Z</time>
      </trkpt>
      <trkpt lat="46.12602" lon="2.47736">
        <ele>496</ele>
        <time>2015-04-10T14:47:35Z</time>
      </trkpt>
      <trkpt lat="46.126" lon="2.47738">
        <ele>496</ele>
        <time>2015-04-10T14:47:37Z</time>
      </trkpt>
      <trkpt lat="46.12597" lon="2.4774">
        <ele>496</ele>
        <time>2015-04-10T14:47:39Z</time>
      </trkpt>
      <trkpt lat="46.12593" lon="2.47744">
        <ele>496</ele>
        <time>2015-04-10T14:47:42Z</time>
      </trkpt>
      <trkpt lat="46.12591" lon="2.47746">
        <ele>496</ele>
        <time>2015-04-10T14:47:44Z</time>
      </trkpt>
      <trkpt lat="46.12589" lon="2.47749">
        <ele>496</ele>
        <time>2015-04-10T14:47:46Z</time>
      </trkpt>
      <trkpt lat="46.12586" lon="2.47752">
        <ele>496</ele>
        <time>2015-04-10T14:47:48Z</time>
      </trkpt>
      <trkpt lat="46.12583" lon="2.47754">
        <ele>496</ele>
        <time>2015-04-10T14:47:50Z</time>
      </trkpt>
      <trkpt lat="46.1258" lon="2.47757">
        <ele>496</ele>
        <time>2015-04-10T14:47:52Z</time>
      </trkpt>
      <trkpt lat="46.12578" lon="2.47759">
        <ele>496</ele>
        <time>2015-04-10T14:47:54Z</time>
      </trkpt>
      <trkpt lat="46.12575" lon="2.47761">
        <ele>496</ele>
        <time>2015-04-10T14:47:56Z</time>
      </trkpt>
      <trkpt lat="46.12572" lon="2.47763">
        <ele>496</ele>
        <time>2015-04-10T14:47:58Z</time>
      </trkpt>
      <trkpt lat="46.1257" lon="2.47765">
        <ele>496</ele>
        <time>2015-04-10T14:48:00Z</time>
      </trkpt>
      <trkpt lat="46.12566" lon="2.47769">
        <ele>496</ele>
        <time>2015-04-10T14:48:03Z</time>
      </trkpt>
      <trkpt lat="46.12564" lon="2.4777">
        <ele>496</ele>
        <time>2015-04-10T14:48:05Z</time>
      </trkpt>
      <trkpt lat="46.12561" lon="2.47772">
        <ele>496</ele>
        <time>2015-04-10T14:48:07Z</time>
      </trkpt>
      <trkpt lat="46.12559" lon="2.47773">
        <ele>496</ele>
        <time>2015-04-10T14:48:09Z</time>
      </trkpt>
      <trkpt lat="46.12556" lon="2.47775">
        <ele>496</ele>
        <time>2015-04-10T14:48:11Z</time>
      </trkpt>
      <trkpt lat="46.12554" lon="2.47777">
        <ele>496</ele>
        <time>2015-04-10T14:48:13Z</time>
      </trkpt>
      <trkpt lat="46.12551" lon="2.47779">
        <ele>497</ele>
        <time>2015-04-10T14:48:15Z</time>
      </trkpt>
      <trkpt lat="46.12549" lon="2.47781">
        <ele>497</ele>
        <time>2015-04-10T14:48:17Z</time>
      </trkpt>
      <trkpt lat="46.12547" lon="2.47783">
        <ele>497</ele>
        <time>2015-04-10T14:48:19Z</time>
      </trkpt>
      <trkpt lat="46.12544" lon="2.47785">
        <ele>497</ele>
        <time>2015-04-10T14:48:21Z</time>
      </trkpt>
      <trkpt lat="46.12542" lon="2.47789">
        <ele>497</ele>
        <time>2015-04-10T14:48:23Z</time>
      </trkpt>
      <trkpt lat="46.12542" lon="2.47794">
        <ele>497</ele>
        <time>2015-04-10T14:48:25Z</time>
      </trkpt>
      <trkpt lat="46.12542" lon="2.47798">
        <ele>497</ele>
        <time>2015-04-10T14:48:27Z</time>
      </trkpt>
      <trkpt lat="46.12543" lon="2.47802">
        <ele>497</ele>
        <time>2015-04-10T14:48:29Z</time>
      </trkpt>
      <trkpt lat="46.12544" lon="2.47806">
        <ele>497</ele>
        <time>2015-04-10T14:48:31Z</time>
      </trkpt>
      <trkpt lat="46.12546" lon="2.4781">
        <ele>497</ele>
        <time>2015-04-10T14:48:33Z</time>
      </trkpt>
      <trkpt lat="46.12547" lon="2.47813">
        <ele>497</ele>
        <time>2015-04-10T14:48:35Z</time>
      </trkpt>
      <trkpt lat="46.12549" lon="2.47817">
        <ele>497</ele>
        <time>2015-04-10T14:48:37Z</time>
      </trkpt>
      <trkpt lat="46.1255" lon="2.47821">
        <ele>497</ele>
        <time>2015-04-10T14:48:39Z</time>
      </trkpt>
      <trkpt lat="46.12551" lon="2.47825">
        <ele>497</ele>
        <time>2015-04-10T14:48:41Z</time>
      </trkpt>
      <trkpt lat="46.12552" lon="2.47828">
        <ele>497</ele>
        <time>2015-04-10T14:48:43Z</time>
      </trkpt>
      <trkpt lat="46.12552" lon="2.47832">
        <ele>497</ele>
        <time>2015-04-10T14:48:45Z</time>
      </trkpt>
      <trkpt lat="46.12551" lon="2.47837">
        <ele>497</ele>
        <time>2015-04-10T14:48:47Z</time>
      </trkpt>
      <trkpt lat="46.1255" lon="2.47841">
        <ele>497</ele>
        <time>2015-04-10T14:48:49Z</time>
      </trkpt>
      <trkpt lat="46.12548" lon="2.47845">
        <ele>497</ele>
        <time>2015-04-10T14:48:51Z</time>
      </trkpt>
      <trkpt lat="46.12546" lon="2.47848">
        <ele>497</ele>
        <time>2015-04-10T14:48:53Z</time>
      </trkpt>
      <trkpt lat="46.12544" lon="2.47851">
        <ele>497</ele>
        <time>2015-04-10T14:48:55Z</time>
      </trkpt>
      <trkpt lat="46.12542" lon="2.47855">
        <ele>497</ele>
        <time>2015-04-10T14:48:57Z</time>
      </trkpt>
      <trkpt lat="46.1254" lon="2.47858">
        <ele>497</ele>
        <time>2015-04-10T14:48:59Z</time>
      </trkpt>
      <trkpt lat="46.12539" lon="2.47861">
        <ele>497</ele>
        <time>2015-04-10T14:49:01Z</time>
      </trkpt>
      <trkpt lat="46.12537" lon="2.47864">
        <ele>497</ele>
        <time>2015-04-10T14:49:03Z</time>
      </trkpt>
      <trkpt lat="46.12535" lon="2.47868">
        <ele>497</ele>
        <time>2015-04-10T14:49:05Z</time>
      </trkpt>
      <trkpt lat="46.12533" lon="2.47871">
        <ele>497</ele>
        <time>2015-04-10T14:49:07Z</time>
      </trkpt>
      <trkpt lat="46.12531" lon="2.47874">
        <ele>497</ele>
        <time>2015-04-10T14:49:09Z</time>
      </trkpt>
      <trkpt lat="46.12529" lon="2.47878">
        <ele>497</ele>
        <time>2015-04-10T14:49:11Z</time>
      </trkpt>
      <trkpt lat="46.12528" lon="2.47882">
        <ele>497</ele>
        <time>2015-04-10T14:49:13Z</time>
      </trkpt>
      <trkpt lat="46.12526" lon="2.47885">
        <ele>497</ele>
        <time>2015-04-10T14:49:15Z</time>
      </trkpt>
      <trkpt lat="46.12524" lon="2.47888">
        <ele>497</ele>
        <time>2015-04-10T14:49:17Z</time>
      </trkpt>
      <trkpt lat="46.12523" lon="2.47892">
        <ele>497</ele>
        <time>2015-04-10T14:49:19Z</time>
      </trkpt>
      <trkpt lat="46.12521" lon="2.47895">
        <ele>497</ele>
        <time>2015-04-10T14:49:21Z</time>
      </trkpt>
      <trkpt lat="46.12519" lon="2.47898">
        <ele>497</ele>
        <time>2015-04-10T14:49:23Z</time>
      </trkpt>
      <trkpt lat="46.12518" lon="2.47902">
        <ele>497</ele>
        <time>2015-04-10T14:49:25Z</time>
      </trkpt>
      <trkpt lat="46.12516" lon="2.47905">
        <ele>497</ele>
        <time>2015-04-10T14:49:27Z</time>
      </trkpt>
      <trkpt lat="46.12514" lon="2.47909">
        <ele>497</ele>
        <time>2015-04-10T14:49:29Z</time>
      </trkpt>
      <trkpt lat="46.12513" lon="2.47912">
        <ele>497</ele>
        <time>2015-04-10T14:49:31Z</time>
      </trkpt>
      <trkpt lat="46.12512" lon="2.47916">
        <ele>497</ele>
        <time>2015-04-10T14:49:33Z</time>
      </trkpt>
      <trkpt lat="46.1251" lon="2.4792">
        <ele>497</ele>
        <time>2015-04-10T14:49:35Z</time>
      </trkpt>
      <trkpt lat="46.1251" lon="2.47924">
        <ele>497</ele>
        <time>2015-04-10T14:49:37Z</time>
      </trkpt>
      <trkpt lat="46.12509" lon="2.47928">
        <ele>497</ele>
        <time>2015-04-10T14:49:39Z</time>
      </trkpt>
      <trkpt lat="46.12509" lon="2.47932">
        <ele>497</ele>
        <time>2015-04-10T14:49:41Z</time>
      </trkpt>
      <trkpt lat="46.12509" lon="2.47936">
        <ele>497</ele>
        <time>2015-04-10T14:49:43Z</time>
      </trkpt>
      <trkpt lat="46.1251" lon="2.4794">
        <ele>497</ele>
        <time>2015-04-10T14:49:45Z</time>
      </trkpt>
      <trkpt lat="46.12511" lon="2.47944">
        <ele>497</ele>
        <time>2015-04-10T14:49:47Z</time>
      </trkpt>
      <trkpt lat="46.12512" lon="2.47948">
        <ele>497</ele>
        <time>2015-04-10T14:49:49Z</time>
      </trkpt>
      <trkpt lat="46.12514" lon="2.47951">
        <ele>497</ele>
        <time>2015-04-10T14:49:51Z</time>
      </trkpt>
      <trkpt lat="46.12516" lon="2.47954">
        <ele>497</ele>
        <time>2015-04-10T14:49:53Z</time>
      </trkpt>
      <trkpt lat="46.12517" lon="2.47957">
        <ele>497</ele>
        <time>2015-04-10T14:49:55Z</time>
      </trkpt>
      <trkpt lat="46.12518" lon="2.47961">
        <ele>497</ele>
        <time>2015-04-10T14:49:57Z</time>
      </trkpt>
      <trkpt lat="46.12519" lon="2.47965">
        <ele>496</ele>
        <time>2015-04-10T14:49:59Z</time>
      </trkpt>
      <trkpt lat="46.1252" lon="2.47969">
        <ele>496</ele>
        <time>2015-04-10T14:50:01Z</time>
      </trkpt>
      <trkpt lat="46.1252" lon="2.47972">
        <ele>496</ele>
        <time>2015-04-10T14:50:03Z</time>
      </trkpt>
      <trkpt lat="46.12521" lon="2.47976">
        <ele>496</ele>
        <time>2015-04-10T14:50:05Z</time>
      </trkpt>
      <trkpt lat="46.1252" lon="2.4798">
        <ele>495</ele>
        <time>2015-04-10T14:50:07Z</time>
      </trkpt>
      <trkpt lat="46.1252" lon="2.47984">
        <ele>495</ele>
        <time>2015-04-10T14:50:09Z</time>
      </trkpt>
      <trkpt lat="46.12519" lon="2.47988">
        <ele>495</ele>
        <time>2015-04-10T14:50:11Z</time>
      </trkpt>
      <trkpt lat="46.12518" lon="2.47991">
        <ele>495</ele>
        <time>2015-04-10T14:50:13Z</time>
      </trkpt>
      <trkpt lat="46.12517" lon="2.47995">
        <ele>495</ele>
        <time>2015-04-10T14:50:15Z</time>
      </trkpt>
      <trkpt lat="46.12516" lon="2.47999">
        <ele>495</ele>
        <time>2015-04-10T14:50:17Z</time>
      </trkpt>
      <trkpt lat="46.12514" lon="2.48003">
        <ele>495</ele>
        <time>2015-04-10T14:50:19Z</time>
      </trkpt>
      <trkpt lat="46.12513" lon="2.48007">
        <ele>495</ele>
        <time>2015-04-10T14:50:21Z</time>
      </trkpt>
      <trkpt lat="46.12512" lon="2.48012">
        <ele>495</ele>
        <time>2015-04-10T14:50:23Z</time>
      </trkpt>
      <trkpt lat="46.12511" lon="2.48016">
        <ele>495</ele>
        <time>2015-04-10T14:50:25Z</time>
      </trkpt>
      <trkpt lat="46.12511" lon="2.4802">
        <ele>495</ele>
        <time>2015-04-10T14:50:27Z</time>
      </trkpt>
      <trkpt lat="46.12511" lon="2.48025">
        <ele>494</ele>
        <time>2015-04-10T14:50:29Z</time>
      </trkpt>
      <trkpt lat="46.1251" lon="2.48029">
        <ele>494</ele>
        <time>2015-04-10T14:50:31Z</time>
      </trkpt>
      <trkpt lat="46.1251" lon="2.48033">
        <ele>493</ele>
        <time>2015-04-10T14:50:33Z</time>
      </trkpt>
      <trkpt lat="46.1251" lon="2.48038">
        <ele>493</ele>
        <time>2015-04-10T14:50:35Z</time>
      </trkpt>
      <trkpt lat="46.1251" lon="2.48042">
        <ele>493</ele>
        <time>2015-04-10T14:50:37Z</time>
      </trkpt>
      <trkpt lat="46.12511" lon="2.48045">
        <ele>492</ele>
        <time>2015-04-10T14:50:39Z</time>
      </trkpt>
      <trkpt lat="46.12511" lon="2.48049">
        <ele>492</ele>
        <time>2015-04-10T14:50:41Z</time>
      </trkpt>
      <trkpt lat="46.12511" lon="2.48053">
        <ele>492</ele>
        <time>2015-04-10T14:50:44Z</time>
      </trkpt>
      <trkpt lat="46.12511" lon="2.48055">
        <ele>492</ele>
        <time>2015-04-10T14:50:48Z</time>
      </trkpt>
      <trkpt lat="46.12511" lon="2.48058">
        <ele>492</ele>
        <time>2015-04-10T14:50:50Z</time>
      </trkpt>
      <trkpt lat="46.12512" lon="2.48062">
        <ele>492</ele>
        <time>2015-04-10T14:50:52Z</time>
      </trkpt>
      <trkpt lat="46.12513" lon="2.48066">
        <ele>492</ele>
        <time>2015-04-10T14:50:54Z</time>
      </trkpt>
      <trkpt lat="46.12513" lon="2.48071">
        <ele>492</ele>
        <time>2015-04-10T14:50:56Z</time>
      </trkpt>
      <trkpt lat="46.12513" lon="2.48076">
        <ele>492</ele>
        <time>2015-04-10T14:50:58Z</time>
      </trkpt>
      <trkpt lat="46.12513" lon="2.4808">
        <ele>492</ele>
        <time>2015-04-10T14:51:00Z</time>
      </trkpt>
      <trkpt lat="46.12514" lon="2.48084">
        <ele>492</ele>
        <time>2015-04-10T14:51:02Z</time>
      </trkpt>
      <trkpt lat="46.12514" lon="2.48088">
        <ele>492</ele>
        <time>2015-04-10T14:51:04Z</time>
      </trkpt>
      <trkpt lat="46.12515" lon="2.48092">
        <ele>492</ele>
        <time>2015-04-10T14:51:06Z</time>
      </trkpt>
      <trkpt lat="46.12515" lon="2.48096">
        <ele>492</ele>
        <time>2015-04-10T14:51:08Z</time>
      </trkpt>
      <trkpt lat="46.12515" lon="2.48101">
        <ele>492</ele>
        <time>2015-04-10T14:51:10Z</time>
      </trkpt>
      <trkpt lat="46.12516" lon="2.48105">
        <ele>492</ele>
        <time>2015-04-10T14:51:12Z</time>
      </trkpt>
      <trkpt lat="46.12516" lon="2.48109">
        <ele>492</ele>
        <time>2015-04-10T14:51:14Z</time>
      </trkpt>
      <trkpt lat="46.12516" lon="2.48113">
        <ele>492</ele>
        <time>2015-04-10T14:51:16Z</time>
      </trkpt>
      <trkpt lat="46.12517" lon="2.48117">
        <ele>492</ele>
        <time>2015-04-10T14:51:18Z</time>
      </trkpt>
      <trkpt lat="46.12517" lon="2.48122">
        <ele>492</ele>
        <time>2015-04-10T14:51:20Z</time>
      </trkpt>
      <trkpt lat="46.12518" lon="2.48126">
        <ele>492</ele>
        <time>2015-04-10T14:51:22Z</time>
      </trkpt>
      <trkpt lat="46.12518" lon="2.4813">
        <ele>492</ele>
        <time>2015-04-10T14:51:24Z</time>
      </trkpt>
      <trkpt lat="46.12519" lon="2.48133">
        <ele>492</ele>
        <time>2015-04-10T14:51:26Z</time>
      </trkpt>
      <trkpt lat="46.12519" lon="2.48134">
        <ele>492</ele>
        <time>2015-04-10T14:51:35Z</time>
      </trkpt>
      <trkpt lat="46.12519" lon="2.48136">
        <ele>492</ele>
        <time>2015-04-10T14:51:42Z</time>
      </trkpt>
      <trkpt lat="46.12521" lon="2.48137">
        <ele>492</ele>
        <time>2015-04-10T14:51:47Z</time>
      </trkpt>
      <trkpt lat="46.12524" lon="2.48138">
        <ele>492</ele>
        <time>2015-04-10T14:51:50Z</time>
      </trkpt>
      <trkpt lat="46.12527" lon="2.48138">
        <ele>492</ele>
        <time>2015-04-10T14:51:52Z</time>
      </trkpt>
      <trkpt lat="46.12529" lon="2.48138">
        <ele>492</ele>
        <time>2015-04-10T14:51:54Z</time>
      </trkpt>
      <trkpt lat="46.12532" lon="2.48138">
        <ele>492</ele>
        <time>2015-04-10T14:51:56Z</time>
      </trkpt>
      <trkpt lat="46.12535" lon="2.48139">
        <ele>492</ele>
        <time>2015-04-10T14:51:58Z</time>
      </trkpt>
      <trkpt lat="46.12538" lon="2.4814">
        <ele>492</ele>
        <time>2015-04-10T14:52:00Z</time>
      </trkpt>
      <trkpt lat="46.12541" lon="2.4814">
        <ele>492</ele>
        <time>2015-04-10T14:52:02Z</time>
      </trkpt>
      <trkpt lat="46.12544" lon="2.4814">
        <ele>492</ele>
        <time>2015-04-10T14:52:04Z</time>
      </trkpt>
      <trkpt lat="46.12547" lon="2.4814">
        <ele>492</ele>
        <time>2015-04-10T14:52:06Z</time>
      </trkpt>
      <trkpt lat="46.12547" lon="2.48138">
        <ele>491</ele>
        <time>2015-04-10T14:52:11Z</time>
      </trkpt>
      <trkpt lat="46.12544" lon="2.48138">
        <ele>491</ele>
        <time>2015-04-10T14:52:13Z</time>
      </trkpt>
      <trkpt lat="46.12541" lon="2.48139">
        <ele>491</ele>
        <time>2015-04-10T14:52:15Z</time>
      </trkpt>
      <trkpt lat="46.12538" lon="2.48139">
        <ele>491</ele>
        <time>2015-04-10T14:52:17Z</time>
      </trkpt>
      <trkpt lat="46.12535" lon="2.48138">
        <ele>491</ele>
        <time>2015-04-10T14:52:19Z</time>
      </trkpt>
      <trkpt lat="46.12533" lon="2.48137">
        <ele>491</ele>
        <time>2015-04-10T14:52:21Z</time>
      </trkpt>
      <trkpt lat="46.1253" lon="2.48137">
        <ele>490</ele>
        <time>2015-04-10T14:52:23Z</time>
      </trkpt>
      <trkpt lat="46.12527" lon="2.48137">
        <ele>490</ele>
        <time>2015-04-10T14:52:25Z</time>
      </trkpt>
      <trkpt lat="46.12524" lon="2.4814">
        <ele>490</ele>
        <time>2015-04-10T14:52:28Z</time>
      </trkpt>
      <trkpt lat="46.12522" lon="2.48142">
        <ele>490</ele>
        <time>2015-04-10T14:52:30Z</time>
      </trkpt>
      <trkpt lat="46.12521" lon="2.48145">
        <ele>490</ele>
        <time>2015-04-10T14:52:32Z</time>
      </trkpt>
      <trkpt lat="46.12521" lon="2.48149">
        <ele>490</ele>
        <time>2015-04-10T14:52:34Z</time>
      </trkpt>
      <trkpt lat="46.12522" lon="2.48153">
        <ele>490</ele>
        <time>2015-04-10T14:52:36Z</time>
      </trkpt>
      <trkpt lat="46.12522" lon="2.48157">
        <ele>490</ele>
        <time>2015-04-10T14:52:38Z</time>
      </trkpt>
      <trkpt lat="46.12522" lon="2.48161">
        <ele>490</ele>
        <time>2015-04-10T14:52:40Z</time>
      </trkpt>
      <trkpt lat="46.12522" lon="2.48165">
        <ele>490</ele>
        <time>2015-04-10T14:52:42Z</time>
      </trkpt>
      <trkpt lat="46.12522" lon="2.48169">
        <ele>490</ele>
        <time>2015-04-10T14:52:44Z</time>
      </trkpt>
      <trkpt lat="46.12523" lon="2.48172">
        <ele>490</ele>
        <time>2015-04-10T14:52:46Z</time>
      </trkpt>
      <trkpt lat="46.12523" lon="2.48176">
        <ele>490</ele>
        <time>2015-04-10T14:52:48Z</time>
      </trkpt>
      <trkpt lat="46.12523" lon="2.4818">
        <ele>490</ele>
        <time>2015-04-10T14:52:50Z</time>
      </trkpt>
      <trkpt lat="46.12523" lon="2.48184">
        <ele>490</ele>
        <time>2015-04-10T14:52:52Z</time>
      </trkpt>
      <trkpt lat="46.12523" lon="2.48188">
        <ele>490</ele>
        <time>2015-04-10T14:52:54Z</time>
      </trkpt>
      <trkpt lat="46.12523" lon="2.48192">
        <ele>490</ele>
        <time>2015-04-10T14:52:56Z</time>
      </trkpt>
      <trkpt lat="46.12524" lon="2.48196">
        <ele>490</ele>
        <time>2015-04-10T14:52:58Z</time>
      </trkpt>
      <trkpt lat="46.12524" lon="2.482">
        <ele>490</ele>
        <time>2015-04-10T14:53:00Z</time>
      </trkpt>
      <trkpt lat="46.12525" lon="2.48203">
        <ele>490</ele>
        <time>2015-04-10T14:53:02Z</time>
      </trkpt>
      <trkpt lat="46.12526" lon="2.48207">
        <ele>490</ele>
        <time>2015-04-10T14:53:04Z</time>
      </trkpt>
      <trkpt lat="46.12528" lon="2.48211">
        <ele>490</ele>
        <time>2015-04-10T14:53:06Z</time>
      </trkpt>
      <trkpt lat="46.12531" lon="2.48215">
        <ele>490</ele>
        <time>2015-04-10T14:53:09Z</time>
      </trkpt>
      <trkpt lat="46.12533" lon="2.48219">
        <ele>490</ele>
        <time>2015-04-10T14:53:12Z</time>
      </trkpt>
      <trkpt lat="46.12535" lon="2.48221">
        <ele>490</ele>
        <time>2015-04-10T14:53:14Z</time>
      </trkpt>
      <trkpt lat="46.12538" lon="2.48223">
        <ele>490</ele>
        <time>2015-04-10T14:53:16Z</time>
      </trkpt>
      <trkpt lat="46.12542" lon="2.48225">
        <ele>490</ele>
        <time>2015-04-10T14:53:19Z</time>
      </trkpt>
      <trkpt lat="46.12545" lon="2.48226">
        <ele>491</ele>
        <time>2015-04-10T14:53:22Z</time>
      </trkpt>
      <trkpt lat="46.12548" lon="2.48227">
        <ele>491</ele>
        <time>2015-04-10T14:53:24Z</time>
      </trkpt>
      <trkpt lat="46.12552" lon="2.48228">
        <ele>491</ele>
        <time>2015-04-10T14:53:27Z</time>
      </trkpt>
      <trkpt lat="46.12555" lon="2.48228">
        <ele>491</ele>
        <time>2015-04-10T14:53:29Z</time>
      </trkpt>
      <trkpt lat="46.12558" lon="2.48228">
        <ele>491</ele>
        <time>2015-04-10T14:53:31Z</time>
      </trkpt>
      <trkpt lat="46.12561" lon="2.48228">
        <ele>491</ele>
        <time>2015-04-10T14:53:33Z</time>
      </trkpt>
      <trkpt lat="46.12563" lon="2.48229">
        <ele>492</ele>
        <time>2015-04-10T14:53:35Z</time>
      </trkpt>
      <trkpt lat="46.12568" lon="2.4823">
        <ele>492</ele>
        <time>2015-04-10T14:53:38Z</time>
      </trkpt>
      <trkpt lat="46.12571" lon="2.4823">
        <ele>492</ele>
        <time>2015-04-10T14:53:40Z</time>
      </trkpt>
      <trkpt lat="46.12575" lon="2.48232">
        <ele>492</ele>
        <time>2015-04-10T14:53:43Z</time>
      </trkpt>
      <trkpt lat="46.12579" lon="2.48233">
        <ele>493</ele>
        <time>2015-04-10T14:53:45Z</time>
      </trkpt>
      <trkpt lat="46.12583" lon="2.48235">
        <ele>493</ele>
        <time>2015-04-10T14:53:48Z</time>
      </trkpt>
      <trkpt lat="46.12586" lon="2.48236">
        <ele>494</ele>
        <time>2015-04-10T14:53:50Z</time>
      </trkpt>
      <trkpt lat="46.12589" lon="2.48237">
        <ele>494</ele>
        <time>2015-04-10T14:53:52Z</time>
      </trkpt>
      <trkpt lat="46.12593" lon="2.4824">
        <ele>494</ele>
        <time>2015-04-10T14:53:55Z</time>
      </trkpt>
      <trkpt lat="46.12597" lon="2.48242">
        <ele>494</ele>
        <time>2015-04-10T14:53:57Z</time>
      </trkpt>
      <trkpt lat="46.12599" lon="2.48243">
        <ele>494</ele>
        <time>2015-04-10T14:53:59Z</time>
      </trkpt>
      <trkpt lat="46.12601" lon="2.48244">
        <ele>494</ele>
        <time>2015-04-10T14:54:01Z</time>
      </trkpt>
      <trkpt lat="46.12604" lon="2.48246">
        <ele>494</ele>
        <time>2015-04-10T14:54:03Z</time>
      </trkpt>
      <trkpt lat="46.12608" lon="2.48249">
        <ele>494</ele>
        <time>2015-04-10T14:54:06Z</time>
      </trkpt>
      <trkpt lat="46.12611" lon="2.48251">
        <ele>494</ele>
        <time>2015-04-10T14:54:08Z</time>
      </trkpt>
      <trkpt lat="46.12616" lon="2.48254">
        <ele>494</ele>
        <time>2015-04-10T14:54:11Z</time>
      </trkpt>
      <trkpt lat="46.12619" lon="2.48256">
        <ele>494</ele>
        <time>2015-04-10T14:54:13Z</time>
      </trkpt>
      <trkpt lat="46.12623" lon="2.48258">
        <ele>494</ele>
        <time>2015-04-10T14:54:16Z</time>
      </trkpt>
      <trkpt lat="46.12626" lon="2.4826">
        <ele>494</ele>
        <time>2015-04-10T14:54:18Z</time>
      </trkpt>
      <trkpt lat="46.12629" lon="2.48261">
        <ele>494</ele>
        <time>2015-04-10T14:54:20Z</time>
      </trkpt>
      <trkpt lat="46.12634" lon="2.48263">
        <ele>494</ele>
        <time>2015-04-10T14:54:23Z</time>
      </trkpt>
      <trkpt lat="46.12638" lon="2.48266">
        <ele>494</ele>
        <time>2015-04-10T14:54:26Z</time>
      </trkpt>
      <trkpt lat="46.12641" lon="2.48267">
        <ele>494</ele>
        <time>2015-04-10T14:54:28Z</time>
      </trkpt>
      <trkpt lat="46.12646" lon="2.4827">
        <ele>494</ele>
        <time>2015-04-10T14:54:31Z</time>
      </trkpt>
      <trkpt lat="46.12648" lon="2.48271">
        <ele>494</ele>
        <time>2015-04-10T14:54:33Z</time>
      </trkpt>
      <trkpt lat="46.12653" lon="2.48273">
        <ele>494</ele>
        <time>2015-04-10T14:54:36Z</time>
      </trkpt>
      <trkpt lat="46.12656" lon="2.48274">
        <ele>494</ele>
        <time>2015-04-10T14:54:38Z</time>
      </trkpt>
      <trkpt lat="46.1266" lon="2.48275">
        <ele>494</ele>
        <time>2015-04-10T14:54:41Z</time>
      </trkpt>
      <trkpt lat="46.12663" lon="2.48275">
        <ele>494</ele>
        <time>2015-04-10T14:54:43Z</time>
      </trkpt>
      <trkpt lat="46.12667" lon="2.48276">
        <ele>494</ele>
        <time>2015-04-10T14:54:46Z</time>
      </trkpt>
      <trkpt lat="46.1267" lon="2.48277">
        <ele>494</ele>
        <time>2015-04-10T14:54:48Z</time>
      </trkpt>
      <trkpt lat="46.12675" lon="2.48278">
        <ele>494</ele>
        <time>2015-04-10T14:54:51Z</time>
      </trkpt>
      <trkpt lat="46.12678" lon="2.48278">
        <ele>494</ele>
        <time>2015-04-10T14:54:53Z</time>
      </trkpt>
      <trkpt lat="46.12681" lon="2.48278">
        <ele>494</ele>
        <time>2015-04-10T14:54:55Z</time>
      </trkpt>
      <trkpt lat="46.12684" lon="2.48279">
        <ele>494</ele>
        <time>2015-04-10T14:54:57Z</time>
      </trkpt>
      <trkpt lat="46.12687" lon="2.4828">
        <ele>494</ele>
        <time>2015-04-10T14:54:59Z</time>
      </trkpt>
      <trkpt lat="46.12692" lon="2.48281">
        <ele>494</ele>
        <time>2015-04-10T14:55:02Z</time>
      </trkpt>
      <trkpt lat="46.12696" lon="2.48281">
        <ele>494</ele>
        <time>2015-04-10T14:55:04Z</time>
      </trkpt>
      <trkpt lat="46.12701" lon="2.48282">
        <ele>494</ele>
        <time>2015-04-10T14:55:07Z</time>
      </trkpt>
      <trkpt lat="46.12703" lon="2.48283">
        <ele>494</ele>
        <time>2015-04-10T14:55:09Z</time>
      </trkpt>
      <trkpt lat="46.12707" lon="2.48283">
        <ele>494</ele>
        <time>2015-04-10T14:55:12Z</time>
      </trkpt>
      <trkpt lat="46.1271" lon="2.48284">
        <ele>494</ele>
        <time>2015-04-10T14:55:14Z</time>
      </trkpt>
      <trkpt lat="46.12715" lon="2.48285">
        <ele>494</ele>
        <time>2015-04-10T14:55:17Z</time>
      </trkpt>
      <trkpt lat="46.12718" lon="2.48286">
        <ele>494</ele>
        <time>2015-04-10T14:55:19Z</time>
      </trkpt>
      <trkpt lat="46.12722" lon="2.48286">
        <ele>494</ele>
        <time>2015-04-10T14:55:22Z</time>
      </trkpt>
      <trkpt lat="46.12725" lon="2.48287">
        <ele>494</ele>
        <time>2015-04-10T14:55:24Z</time>
      </trkpt>
      <trkpt lat="46.1273" lon="2.48287">
        <ele>494</ele>
        <time>2015-04-10T14:55:27Z</time>
      </trkpt>
      <trkpt lat="46.12733" lon="2.48287">
        <ele>494</ele>
        <time>2015-04-10T14:55:29Z</time>
      </trkpt>
      <trkpt lat="46.12737" lon="2.48288">
        <ele>494</ele>
        <time>2015-04-10T14:55:32Z</time>
      </trkpt>
      <trkpt lat="46.1274" lon="2.48288">
        <ele>494</ele>
        <time>2015-04-10T14:55:34Z</time>
      </trkpt>
      <trkpt lat="46.12745" lon="2.48288">
        <ele>494</ele>
        <time>2015-04-10T14:55:37Z</time>
      </trkpt>
      <trkpt lat="46.12748" lon="2.48288">
        <ele>494</ele>
        <time>2015-04-10T14:55:39Z</time>
      </trkpt>
      <trkpt lat="46.12752" lon="2.48289">
        <ele>494</ele>
        <time>2015-04-10T14:55:42Z</time>
      </trkpt>
      <trkpt lat="46.12756" lon="2.48289">
        <ele>494</ele>
        <time>2015-04-10T14:55:44Z</time>
      </trkpt>
      <trkpt lat="46.1276" lon="2.48289">
        <ele>494</ele>
        <time>2015-04-10T14:55:47Z</time>
      </trkpt>
      <trkpt lat="46.12764" lon="2.48289">
        <ele>494</ele>
        <time>2015-04-10T14:55:49Z</time>
      </trkpt>
      <trkpt lat="46.12769" lon="2.48289">
        <ele>494</ele>
        <time>2015-04-10T14:55:52Z</time>
      </trkpt>
      <trkpt lat="46.12772" lon="2.48289">
        <ele>494</ele>
        <time>2015-04-10T14:55:54Z</time>
      </trkpt>
      <trkpt lat="46.12776" lon="2.4829">
        <ele>494</ele>
        <time>2015-04-10T14:55:57Z</time>
      </trkpt>
      <trkpt lat="46.12779" lon="2.4829">
        <ele>494</ele>
        <time>2015-04-10T14:55:59Z</time>
      </trkpt>
      <trkpt lat="46.12785" lon="2.4829">
        <ele>494</ele>
        <time>2015-04-10T14:56:02Z</time>
      </trkpt>
      <trkpt lat="46.12788" lon="2.4829">
        <ele>494</ele>
        <time>2015-04-10T14:56:04Z</time>
      </trkpt>
      <trkpt lat="46.12792" lon="2.4829">
        <ele>494</ele>
        <time>2015-04-10T14:56:07Z</time>
      </trkpt>
      <trkpt lat="46.12796" lon="2.4829">
        <ele>494</ele>
        <time>2015-04-10T14:56:09Z</time>
      </trkpt>
      <trkpt lat="46.12801" lon="2.4829">
        <ele>494</ele>
        <time>2015-04-10T14:56:12Z</time>
      </trkpt>
      <trkpt lat="46.12804" lon="2.4829">
        <ele>494</ele>
        <time>2015-04-10T14:56:14Z</time>
      </trkpt>
      <trkpt lat="46.12808" lon="2.4829">
        <ele>494</ele>
        <time>2015-04-10T14:56:17Z</time>
      </trkpt>
      <trkpt lat="46.12811" lon="2.4829">
        <ele>494</ele>
        <time>2015-04-10T14:56:19Z</time>
      </trkpt>
      <trkpt lat="46.12816" lon="2.4829">
        <ele>494</ele>
        <time>2015-04-10T14:56:22Z</time>
      </trkpt>
      <trkpt lat="46.12819" lon="2.48291">
        <ele>494</ele>
        <time>2015-04-10T14:56:24Z</time>
      </trkpt>
      <trkpt lat="46.12823" lon="2.4829">
        <ele>494</ele>
        <time>2015-04-10T14:56:27Z</time>
      </trkpt>
      <trkpt lat="46.12826" lon="2.4829">
        <ele>494</ele>
        <time>2015-04-10T14:56:29Z</time>
      </trkpt>
      <trkpt lat="46.12829" lon="2.4829">
        <ele>495</ele>
        <time>2015-04-10T14:56:31Z</time>
      </trkpt>
      <trkpt lat="46.12832" lon="2.4829">
        <ele>495</ele>
        <time>2015-04-10T14:56:33Z</time>
      </trkpt>
      <trkpt lat="46.12835" lon="2.4829">
        <ele>495</ele>
        <time>2015-04-10T14:56:35Z</time>
      </trkpt>
      <trkpt lat="46.12838" lon="2.4829">
        <ele>495</ele>
        <time>2015-04-10T14:56:37Z</time>
      </trkpt>
      <trkpt lat="46.12841" lon="2.4829">
        <ele>495</ele>
        <time>2015-04-10T14:56:39Z</time>
      </trkpt>
      <trkpt lat="46.12845" lon="2.4829">
        <ele>495</ele>
        <time>2015-04-10T14:56:42Z</time>
      </trkpt>
      <trkpt lat="46.12848" lon="2.4829">
        <ele>495</ele>
        <time>2015-04-10T14:56:44Z</time>
      </trkpt>
      <trkpt lat="46.12853" lon="2.4829">
        <ele>495</ele>
        <time>2015-04-10T14:56:47Z</time>
      </trkpt>
      <trkpt lat="46.12856" lon="2.4829">
        <ele>495</ele>
        <time>2015-04-10T14:56:49Z</time>
      </trkpt>
      <trkpt lat="46.1286" lon="2.4829">
        <ele>495</ele>
        <time>2015-04-10T14:56:52Z</time>
      </trkpt>
      <trkpt lat="46.12864" lon="2.4829">
        <ele>495</ele>
        <time>2015-04-10T14:56:54Z</time>
      </trkpt>
      <trkpt lat="46.12869" lon="2.4829">
        <ele>495</ele>
        <time>2015-04-10T14:56:57Z</time>
      </trkpt>
      <trkpt lat="46.12872" lon="2.48289">
        <ele>496</ele>
        <time>2015-04-10T14:56:59Z</time>
      </trkpt>
      <trkpt lat="46.12877" lon="2.48289">
        <ele>496</ele>
        <time>2015-04-10T14:57:02Z</time>
      </trkpt>
      <trkpt lat="46.1288" lon="2.48289">
        <ele>496</ele>
        <time>2015-04-10T14:57:04Z</time>
      </trkpt>
      <trkpt lat="46.12884" lon="2.48289">
        <ele>496</ele>
        <time>2015-04-10T14:57:07Z</time>
      </trkpt>
      <trkpt lat="46.12887" lon="2.48289">
        <ele>496</ele>
        <time>2015-04-10T14:57:09Z</time>
      </trkpt>
      <trkpt lat="46.12891" lon="2.48288">
        <ele>496</ele>
        <time>2015-04-10T14:57:12Z</time>
      </trkpt>
      <trkpt lat="46.12894" lon="2.48288">
        <ele>496</ele>
        <time>2015-04-10T14:57:14Z</time>
      </trkpt>
      <trkpt lat="46.12899" lon="2.48288">
        <ele>496</ele>
        <time>2015-04-10T14:57:17Z</time>
      </trkpt>
      <trkpt lat="46.12902" lon="2.48288">
        <ele>496</ele>
        <time>2015-04-10T14:57:19Z</time>
      </trkpt>
      <trkpt lat="46.12906" lon="2.48288">
        <ele>496</ele>
        <time>2015-04-10T14:57:22Z</time>
      </trkpt>
      <trkpt lat="46.1291" lon="2.48287">
        <ele>497</ele>
        <time>2015-04-10T14:57:24Z</time>
      </trkpt>
      <trkpt lat="46.12914" lon="2.48287">
        <ele>497</ele>
        <time>2015-04-10T14:57:27Z</time>
      </trkpt>
      <trkpt lat="46.12917" lon="2.48287">
        <ele>497</ele>
        <time>2015-04-10T14:57:29Z</time>
      </trkpt>
      <trkpt lat="46.12921" lon="2.48287">
        <ele>497</ele>
        <time>2015-04-10T14:57:32Z</time>
      </trkpt>
      <trkpt lat="46.12924" lon="2.48287">
        <ele>497</ele>
        <time>2015-04-10T14:57:34Z</time>
      </trkpt>
      <trkpt lat="46.12928" lon="2.48286">
        <ele>497</ele>
        <time>2015-04-10T14:57:36Z</time>
      </trkpt>
      <trkpt lat="46.12931" lon="2.48286">
        <ele>497</ele>
        <time>2015-04-10T14:57:38Z</time>
      </trkpt>
      <trkpt lat="46.12933" lon="2.48286">
        <ele>497</ele>
        <time>2015-04-10T14:57:40Z</time>
      </trkpt>
      <trkpt lat="46.12937" lon="2.48285">
        <ele>497</ele>
        <time>2015-04-10T14:57:42Z</time>
      </trkpt>
      <trkpt lat="46.1294" lon="2.48285">
        <ele>497</ele>
        <time>2015-04-10T14:57:44Z</time>
      </trkpt>
      <trkpt lat="46.12945" lon="2.48284">
        <ele>497</ele>
        <time>2015-04-10T14:57:47Z</time>
      </trkpt>
      <trkpt lat="46.12948" lon="2.48283">
        <ele>497</ele>
        <time>2015-04-10T14:57:49Z</time>
      </trkpt>
      <trkpt lat="46.12953" lon="2.48283">
        <ele>497</ele>
        <time>2015-04-10T14:57:52Z</time>
      </trkpt>
      <trkpt lat="46.12955" lon="2.48283">
        <ele>497</ele>
        <time>2015-04-10T14:57:54Z</time>
      </trkpt>
      <trkpt lat="46.12959" lon="2.48283">
        <ele>497</ele>
        <time>2015-04-10T14:57:57Z</time>
      </trkpt>
      <trkpt lat="46.12962" lon="2.48283">
        <ele>497</ele>
        <time>2015-04-10T14:57:59Z</time>
      </trkpt>
      <trkpt lat="46.12965" lon="2.48283">
        <ele>497</ele>
        <time>2015-04-10T14:58:01Z</time>
      </trkpt>
      <trkpt lat="46.12968" lon="2.48283">
        <ele>497</ele>
        <time>2015-04-10T14:58:03Z</time>
      </trkpt>
      <trkpt lat="46.12971" lon="2.48283">
        <ele>497</ele>
        <time>2015-04-10T14:58:05Z</time>
      </trkpt>
      <trkpt lat="46.12974" lon="2.48283">
        <ele>497</ele>
        <time>2015-04-10T14:58:07Z</time>
      </trkpt>
      <trkpt lat="46.12977" lon="2.48283">
        <ele>497</ele>
        <time>2015-04-10T14:58:09Z</time>
      </trkpt>
      <trkpt lat="46.1298" lon="2.48283">
        <ele>497</ele>
        <time>2015-04-10T14:58:11Z</time>
      </trkpt>
      <trkpt lat="46.12983" lon="2.48283">
        <ele>497</ele>
        <time>2015-04-10T14:58:13Z</time>
      </trkpt>
      <trkpt lat="46.12986" lon="2.48283">
        <ele>497</ele>
        <time>2015-04-10T14:58:15Z</time>
      </trkpt>
      <trkpt lat="46.12989" lon="2.48284">
        <ele>497</ele>
        <time>2015-04-10T14:58:17Z</time>
      </trkpt>
      <trkpt lat="46.12992" lon="2.48284">
        <ele>497</ele>
        <time>2015-04-10T14:58:19Z</time>
      </trkpt>
      <trkpt lat="46.12997" lon="2.48284">
        <ele>497</ele>
        <time>2015-04-10T14:58:22Z</time>
      </trkpt>
      <trkpt lat="46.13" lon="2.48284">
        <ele>497</ele>
        <time>2015-04-10T14:58:24Z</time>
      </trkpt>
      <trkpt lat="46.13005" lon="2.48285">
        <ele>497</ele>
        <time>2015-04-10T14:58:27Z</time>
      </trkpt>
      <trkpt lat="46.13009" lon="2.48285">
        <ele>497</ele>
        <time>2015-04-10T14:58:29Z</time>
      </trkpt>
      <trkpt lat="46.13013" lon="2.48285">
        <ele>497</ele>
        <time>2015-04-10T14:58:32Z</time>
      </trkpt>
      <trkpt lat="46.13017" lon="2.48286">
        <ele>497</ele>
        <time>2015-04-10T14:58:34Z</time>
      </trkpt>
      <trkpt lat="46.13021" lon="2.48286">
        <ele>497</ele>
        <time>2015-04-10T14:58:37Z</time>
      </trkpt>
      <trkpt lat="46.13024" lon="2.48286">
        <ele>497</ele>
        <time>2015-04-10T14:58:39Z</time>
      </trkpt>
      <trkpt lat="46.13028" lon="2.48286">
        <ele>497</ele>
        <time>2015-04-10T14:58:42Z</time>
      </trkpt>
      <trkpt lat="46.13031" lon="2.48286">
        <ele>497</ele>
        <time>2015-04-10T14:58:44Z</time>
      </trkpt>
      <trkpt lat="46.13036" lon="2.48287">
        <ele>497</ele>
        <time>2015-04-10T14:58:47Z</time>
      </trkpt>
      <trkpt lat="46.13039" lon="2.48287">
        <ele>497</ele>
        <time>2015-04-10T14:58:49Z</time>
      </trkpt>
      <trkpt lat="46.13044" lon="2.48288">
        <ele>497</ele>
        <time>2015-04-10T14:58:52Z</time>
      </trkpt>
      <trkpt lat="46.13047" lon="2.48288">
        <ele>497</ele>
        <time>2015-04-10T14:58:54Z</time>
      </trkpt>
      <trkpt lat="46.13051" lon="2.48289">
        <ele>497</ele>
        <time>2015-04-10T14:58:57Z</time>
      </trkpt>
      <trkpt lat="46.13054" lon="2.48289">
        <ele>497</ele>
        <time>2015-04-10T14:58:59Z</time>
      </trkpt>
      <trkpt lat="46.13057" lon="2.48289">
        <ele>497</ele>
        <time>2015-04-10T14:59:01Z</time>
      </trkpt>
      <trkpt lat="46.1306" lon="2.4829">
        <ele>497</ele>
        <time>2015-04-10T14:59:03Z</time>
      </trkpt>
      <trkpt lat="46.13063" lon="2.4829">
        <ele>497</ele>
        <time>2015-04-10T14:59:05Z</time>
      </trkpt>
      <trkpt lat="46.13067" lon="2.48291">
        <ele>497</ele>
        <time>2015-04-10T14:59:08Z</time>
      </trkpt>
      <trkpt lat="46.1307" lon="2.48292">
        <ele>497</ele>
        <time>2015-04-10T14:59:10Z</time>
      </trkpt>
      <trkpt lat="46.13075" lon="2.48292">
        <ele>497</ele>
        <time>2015-04-10T14:59:13Z</time>
      </trkpt>
      <trkpt lat="46.13077" lon="2.48293">
        <ele>497</ele>
        <time>2015-04-10T14:59:15Z</time>
      </trkpt>
      <trkpt lat="46.13082" lon="2.48292">
        <ele>497</ele>
        <time>2015-04-10T14:59:18Z</time>
      </trkpt>
      <trkpt lat="46.13086" lon="2.48292">
        <ele>497</ele>
        <time>2015-04-10T14:59:20Z</time>
      </trkpt>
      <trkpt lat="46.1309" lon="2.4829">
        <ele>497</ele>
        <time>2015-04-10T14:59:23Z</time>
      </trkpt>
      <trkpt lat="46.13093" lon="2.48289">
        <ele>497</ele>
        <time>2015-04-10T14:59:25Z</time>
      </trkpt>
      <trkpt lat="46.13098" lon="2.48288">
        <ele>497</ele>
        <time>2015-04-10T14:59:28Z</time>
      </trkpt>
      <trkpt lat="46.13101" lon="2.48287">
        <ele>497</ele>
        <time>2015-04-10T14:59:30Z</time>
      </trkpt>
      <trkpt lat="46.13106" lon="2.48284">
        <ele>497</ele>
        <time>2015-04-10T14:59:33Z</time>
      </trkpt>
      <trkpt lat="46.13109" lon="2.48282">
        <ele>497</ele>
        <time>2015-04-10T14:59:35Z</time>
      </trkpt>
      <trkpt lat="46.13113" lon="2.48279">
        <ele>497</ele>
        <time>2015-04-10T14:59:38Z</time>
      </trkpt>
      <trkpt lat="46.13116" lon="2.48277">
        <ele>497</ele>
        <time>2015-04-10T14:59:40Z</time>
      </trkpt>
      <trkpt lat="46.13121" lon="2.48274">
        <ele>497</ele>
        <time>2015-04-10T14:59:43Z</time>
      </trkpt>
      <trkpt lat="46.13123" lon="2.48272">
        <ele>497</ele>
        <time>2015-04-10T14:59:45Z</time>
      </trkpt>
      <trkpt lat="46.13127" lon="2.4827">
        <ele>497</ele>
        <time>2015-04-10T14:59:48Z</time>
      </trkpt>
      <trkpt lat="46.1313" lon="2.48268">
        <ele>497</ele>
        <time>2015-04-10T14:59:50Z</time>
      </trkpt>
      <trkpt lat="46.13134" lon="2.48265">
        <ele>497</ele>
        <time>2015-04-10T14:59:53Z</time>
      </trkpt>
      <trkpt lat="46.13138" lon="2.48262">
        <ele>497</ele>
        <time>2015-04-10T14:59:55Z</time>
      </trkpt>
      <trkpt lat="46.13142" lon="2.48259">
        <ele>497</ele>
        <time>2015-04-10T14:59:58Z</time>
      </trkpt>
      <trkpt lat="46.13145" lon="2.48257">
        <ele>497</ele>
        <time>2015-04-10T15:00:00Z</time>
      </trkpt>
      <trkpt lat="46.1315" lon="2.48255">
        <ele>497</ele>
        <time>2015-04-10T15:00:03Z</time>
      </trkpt>
      <trkpt lat="46.13152" lon="2.48253">
        <ele>497</ele>
        <time>2015-04-10T15:00:05Z</time>
      </trkpt>
      <trkpt lat="46.13155" lon="2.48252">
        <ele>497</ele>
        <time>2015-04-10T15:00:07Z</time>
      </trkpt>
      <trkpt lat="46.13158" lon="2.4825">
        <ele>497</ele>
        <time>2015-04-10T15:00:09Z</time>
      </trkpt>
      <trkpt lat="46.13161" lon="2.48249">
        <ele>497</ele>
        <time>2015-04-10T15:00:11Z</time>
      </trkpt>
      <trkpt lat="46.13163" lon="2.48247">
        <ele>497</ele>
        <time>2015-04-10T15:00:13Z</time>
      </trkpt>
      <trkpt lat="46.13166" lon="2.48246">
        <ele>497</ele>
        <time>2015-04-10T15:00:15Z</time>
      </trkpt>
      <trkpt lat="46.13171" lon="2.48244">
        <ele>497</ele>
        <time>2015-04-10T15:00:18Z</time>
      </trkpt>
      <trkpt lat="46.13174" lon="2.48242">
        <ele>497</ele>
        <time>2015-04-10T15:00:20Z</time>
      </trkpt>
      <trkpt lat="46.13178" lon="2.4824">
        <ele>497</ele>
        <time>2015-04-10T15:00:23Z</time>
      </trkpt>
      <trkpt lat="46.13181" lon="2.48239">
        <ele>497</ele>
        <time>2015-04-10T15:00:25Z</time>
      </trkpt>
      <trkpt lat="46.13185" lon="2.48237">
        <ele>497</ele>
        <time>2015-04-10T15:00:28Z</time>
      </trkpt>
      <trkpt lat="46.13189" lon="2.48236">
        <ele>497</ele>
        <time>2015-04-10T15:00:30Z</time>
      </trkpt>
      <trkpt lat="46.13193" lon="2.48233">
        <ele>497</ele>
        <time>2015-04-10T15:00:33Z</time>
      </trkpt>
      <trkpt lat="46.13196" lon="2.48232">
        <ele>497</ele>
        <time>2015-04-10T15:00:35Z</time>
      </trkpt>
      <trkpt lat="46.13199" lon="2.48231">
        <ele>497</ele>
        <time>2015-04-10T15:00:37Z</time>
      </trkpt>
      <trkpt lat="46.13202" lon="2.48229">
        <ele>497</ele>
        <time>2015-04-10T15:00:39Z</time>
      </trkpt>
      <trkpt lat="46.13205" lon="2.48228">
        <ele>497</ele>
        <time>2015-04-10T15:00:41Z</time>
      </trkpt>
      <trkpt lat="46.13208" lon="2.48227">
        <ele>497</ele>
        <time>2015-04-10T15:00:43Z</time>
      </trkpt>
      <trkpt lat="46.1321" lon="2.48225">
        <ele>497</ele>
        <time>2015-04-10T15:00:45Z</time>
      </trkpt>
      <trkpt lat="46.13215" lon="2.48223">
        <ele>497</ele>
        <time>2015-04-10T15:00:48Z</time>
      </trkpt>
      <trkpt lat="46.13218" lon="2.48221">
        <ele>497</ele>
        <time>2015-04-10T15:00:50Z</time>
      </trkpt>
      <trkpt lat="46.13222" lon="2.48219">
        <ele>497</ele>
        <time>2015-04-10T15:00:53Z</time>
      </trkpt>
      <trkpt lat="46.13225" lon="2.48217">
        <ele>497</ele>
        <time>2015-04-10T15:00:55Z</time>
      </trkpt>
      <trkpt lat="46.13229" lon="2.48215">
        <ele>497</ele>
        <time>2015-04-10T15:00:58Z</time>
      </trkpt>
      <trkpt lat="46.13232" lon="2.48213">
        <ele>497</ele>
        <time>2015-04-10T15:01:00Z</time>
      </trkpt>
      <trkpt lat="46.13237" lon="2.4821">
        <ele>497</ele>
        <time>2015-04-10T15:01:03Z</time>
      </trkpt>
      <trkpt lat="46.13239" lon="2.48209">
        <ele>497</ele>
        <time>2015-04-10T15:01:05Z</time>
      </trkpt>
      <trkpt lat="46.13242" lon="2.48207">
        <ele>497</ele>
        <time>2015-04-10T15:01:07Z</time>
      </trkpt>
      <trkpt lat="46.13245" lon="2.48206">
        <ele>497</ele>
        <time>2015-04-10T15:01:09Z</time>
      </trkpt>
      <trkpt lat="46.13248" lon="2.48204">
        <ele>497</ele>
        <time>2015-04-10T15:01:11Z</time>
      </trkpt>
      <trkpt lat="46.1325" lon="2.48202">
        <ele>497</ele>
        <time>2015-04-10T15:01:13Z</time>
      </trkpt>
      <trkpt lat="46.13253" lon="2.48201">
        <ele>497</ele>
        <time>2015-04-10T15:01:15Z</time>
      </trkpt>
      <trkpt lat="46.13258" lon="2.48199">
        <ele>497</ele>
        <time>2015-04-10T15:01:18Z</time>
      </trkpt>
      <trkpt lat="46.13261" lon="2.48197">
        <ele>497</ele>
        <time>2015-04-10T15:01:20Z</time>
      </trkpt>
      <trkpt lat="46.13265" lon="2.48195">
        <ele>497</ele>
        <time>2015-04-10T15:01:23Z</time>
      </trkpt>
      <trkpt lat="46.13268" lon="2.48193">
        <ele>497</ele>
        <time>2015-04-10T15:01:25Z</time>
      </trkpt>
      <trkpt lat="46.13271" lon="2.48191">
        <ele>497</ele>
        <time>2015-04-10T15:01:27Z</time>
      </trkpt>
      <trkpt lat="46.13274" lon="2.48189">
        <ele>497</ele>
        <time>2015-04-10T15:01:29Z</time>
      </trkpt>
      <trkpt lat="46.13277" lon="2.48188">
        <ele>497</ele>
        <time>2015-04-10T15:01:31Z</time>
      </trkpt>
      <trkpt lat="46.1328" lon="2.48186">
        <ele>497</ele>
        <time>2015-04-10T15:01:33Z</time>
      </trkpt>
      <trkpt lat="46.13283" lon="2.48185">
        <ele>497</ele>
        <time>2015-04-10T15:01:35Z</time>
      </trkpt>
      <trkpt lat="46.13286" lon="2.48183">
        <ele>497</ele>
        <time>2015-04-10T15:01:37Z</time>
      </trkpt>
      <trkpt lat="46.13289" lon="2.48182">
        <ele>497</ele>
        <time>2015-04-10T15:01:39Z</time>
      </trkpt>
      <trkpt lat="46.13292" lon="2.4818">
        <ele>497</ele>
        <time>2015-04-10T15:01:41Z</time>
      </trkpt>
      <trkpt lat="46.13295" lon="2.48179">
        <ele>497</ele>
        <time>2015-04-10T15:01:43Z</time>
      </trkpt>
      <trkpt lat="46.13298" lon="2.48178">
        <ele>497</ele>
        <time>2015-04-10T15:01:45Z</time>
      </trkpt>
      <trkpt lat="46.13301" lon="2.48176">
        <ele>497</ele>
        <time>2015-04-10T15:01:47Z</time>
      </trkpt>
      <trkpt lat="46.13304" lon="2.48175">
        <ele>497</ele>
        <time>2015-04-10T15:01:49Z</time>
      </trkpt>
      <trkpt lat="46.13307" lon="2.48174">
        <ele>497</ele>
        <time>2015-04-10T15:01:51Z</time>
      </trkpt>
      <trkpt lat="46.13309" lon="2.48173">
        <ele>497</ele>
        <time>2015-04-10T15:01:53Z</time>
      </trkpt>
      <trkpt lat="46.13313" lon="2.48172">
        <ele>497</ele>
        <time>2015-04-10T15:01:55Z</time>
      </trkpt>
      <trkpt lat="46.13315" lon="2.48171">
        <ele>497</ele>
        <time>2015-04-10T15:01:57Z</time>
      </trkpt>
      <trkpt lat="46.13318" lon="2.4817">
        <ele>497</ele>
        <time>2015-04-10T15:01:59Z</time>
      </trkpt>
      <trkpt lat="46.13321" lon="2.48169">
        <ele>497</ele>
        <time>2015-04-10T15:02:01Z</time>
      </trkpt>
      <trkpt lat="46.13324" lon="2.48168">
        <ele>497</ele>
        <time>2015-04-10T15:02:03Z</time>
      </trkpt>
      <trkpt lat="46.13327" lon="2.48167">
        <ele>497</ele>
        <time>2015-04-10T15:02:05Z</time>
      </trkpt>
      <trkpt lat="46.1333" lon="2.48166">
        <ele>497</ele>
        <time>2015-04-10T15:02:07Z</time>
      </trkpt>
      <trkpt lat="46.13333" lon="2.48165">
        <ele>497</ele>
        <time>2015-04-10T15:02:09Z</time>
      </trkpt>
      <trkpt lat="46.13336" lon="2.48164">
        <ele>497</ele>
        <time>2015-04-10T15:02:11Z</time>
      </trkpt>
      <trkpt lat="46.13339" lon="2.48163">
        <ele>497</ele>
        <time>2015-04-10T15:02:13Z</time>
      </trkpt>
      <trkpt lat="46.13342" lon="2.48162">
        <ele>497</ele>
        <time>2015-04-10T15:02:15Z</time>
      </trkpt>
      <trkpt lat="46.13345" lon="2.4816">
        <ele>497</ele>
        <time>2015-04-10T15:02:17Z</time>
      </trkpt>
      <trkpt lat="46.13348" lon="2.4816">
        <ele>497</ele>
        <time>2015-04-10T15:02:19Z</time>
      </trkpt>
      <trkpt lat="46.13351" lon="2.48159">
        <ele>497</ele>
        <time>2015-04-10T15:02:21Z</time>
      </trkpt>
      <trkpt lat="46.13354" lon="2.48158">
        <ele>497</ele>
        <time>2015-04-10T15:02:23Z</time>
      </trkpt>
      <trkpt lat="46.13357" lon="2.48157">
        <ele>497</ele>
        <time>2015-04-10T15:02:25Z</time>
      </trkpt>
      <trkpt lat="46.1336" lon="2.48156">
        <ele>497</ele>
        <time>2015-04-10T15:02:27Z</time>
      </trkpt>
      <trkpt lat="46.13363" lon="2.48155">
        <ele>497</ele>
        <time>2015-04-10T15:02:29Z</time>
      </trkpt>
      <trkpt lat="46.13366" lon="2.48154">
        <ele>497</ele>
        <time>2015-04-10T15:02:31Z</time>
      </trkpt>
      <trkpt lat="46.13369" lon="2.48153">
        <ele>497</ele>
        <time>2015-04-10T15:02:33Z</time>
      </trkpt>
      <trkpt lat="46.13372" lon="2.48152">
        <ele>497</ele>
        <time>2015-04-10T15:02:35Z</time>
      </trkpt>
      <trkpt lat="46.13375" lon="2.48151">
        <ele>497</ele>
        <time>2015-04-10T15:02:37Z</time>
      </trkpt>
      <trkpt lat="46.13378" lon="2.4815">
        <ele>497</ele>
        <time>2015-04-10T15:02:39Z</time>
      </trkpt>
      <trkpt lat="46.13381" lon="2.48149">
        <ele>497</ele>
        <time>2015-04-10T15:02:41Z</time>
      </trkpt>
      <trkpt lat="46.13384" lon="2.48148">
        <ele>497</ele>
        <time>2015-04-10T15:02:43Z</time>
      </trkpt>
      <trkpt lat="46.13387" lon="2.48147">
        <ele>497</ele>
        <time>2015-04-10T15:02:45Z</time>
      </trkpt>
      <trkpt lat="46.1339" lon="2.48146">
        <ele>497</ele>
        <time>2015-04-10T15:02:47Z</time>
      </trkpt>
      <trkpt lat="46.13393" lon="2.48145">
        <ele>497</ele>
        <time>2015-04-10T15:02:49Z</time>
      </trkpt>
      <trkpt lat="46.13396" lon="2.48144">
        <ele>497</ele>
        <time>2015-04-10T15:02:51Z</time>
      </trkpt>
      <trkpt lat="46.13399" lon="2.48143">
        <ele>497</ele>
        <time>2015-04-10T15:02:53Z</time>
      </trkpt>
      <trkpt lat="46.13403" lon="2.48142">
        <ele>497</ele>
        <time>2015-04-10T15:02:55Z</time>
      </trkpt>
      <trkpt lat="46.13406" lon="2.48141">
        <ele>497</ele>
        <time>2015-04-10T15:02:57Z</time>
      </trkpt>
      <trkpt lat="46.13409" lon="2.4814">
        <ele>497</ele>
        <time>2015-04-10T15:02:59Z</time>
      </trkpt>
      <trkpt lat="46.13411" lon="2.48139">
        <ele>497</ele>
        <time>2015-04-10T15:03:01Z</time>
      </trkpt>
      <trkpt lat="46.13414" lon="2.48137">
        <ele>497</ele>
        <time>2015-04-10T15:03:03Z</time>
      </trkpt>
      <trkpt lat="46.13417" lon="2.48136">
        <ele>497</ele>
        <time>2015-04-10T15:03:05Z</time>
      </trkpt>
      <trkpt lat="46.1342" lon="2.48135">
        <ele>497</ele>
        <time>2015-04-10T15:03:07Z</time>
      </trkpt>
      <trkpt lat="46.13423" lon="2.48134">
        <ele>497</ele>
        <time>2015-04-10T15:03:09Z</time>
      </trkpt>
      <trkpt lat="46.13426" lon="2.48132">
        <ele>497</ele>
        <time>2015-04-10T15:03:11Z</time>
      </trkpt>
      <trkpt lat="46.13429" lon="2.48131">
        <ele>497</ele>
        <time>2015-04-10T15:03:13Z</time>
      </trkpt>
      <trkpt lat="46.13432" lon="2.4813">
        <ele>497</ele>
        <time>2015-04-10T15:03:15Z</time>
      </trkpt>
      <trkpt lat="46.13435" lon="2.48128">
        <ele>497</ele>
        <time>2015-04-10T15:03:17Z</time>
      </trkpt>
      <trkpt lat="46.13438" lon="2.48127">
        <ele>497</ele>
        <time>2015-04-10T15:03:19Z</time>
      </trkpt>
      <trkpt lat="46.13441" lon="2.48125">
        <ele>497</ele>
        <time>2015-04-10T15:03:21Z</time>
      </trkpt>
      <trkpt lat="46.13444" lon="2.48124">
        <ele>497</ele>
        <time>2015-04-10T15:03:23Z</time>
      </trkpt>
      <trkpt lat="46.13447" lon="2.48122">
        <ele>497</ele>
        <time>2015-04-10T15:03:25Z</time>
      </trkpt>
      <trkpt lat="46.1345" lon="2.4812">
        <ele>497</ele>
        <time>2015-04-10T15:03:27Z</time>
      </trkpt>
      <trkpt lat="46.13453" lon="2.48119">
        <ele>497</ele>
        <time>2015-04-10T15:03:29Z</time>
      </trkpt>
      <trkpt lat="46.13456" lon="2.48117">
        <ele>497</ele>
        <time>2015-04-10T15:03:31Z</time>
      </trkpt>
      <trkpt lat="46.13459" lon="2.48115">
        <ele>497</ele>
        <time>2015-04-10T15:03:33Z</time>
      </trkpt>
      <trkpt lat="46.13462" lon="2.48114">
        <ele>497</ele>
        <time>2015-04-10T15:03:35Z</time>
      </trkpt>
      <trkpt lat="46.13465" lon="2.48112">
        <ele>497</ele>
        <time>2015-04-10T15:03:37Z</time>
      </trkpt>
      <trkpt lat="46.13468" lon="2.4811">
        <ele>497</ele>
        <time>2015-04-10T15:03:39Z</time>
      </trkpt>
      <trkpt lat="46.13471" lon="2.48109">
        <ele>497</ele>
        <time>2015-04-10T15:03:41Z</time>
      </trkpt>
      <trkpt lat="46.13474" lon="2.48107">
        <ele>497</ele>
        <time>2015-04-10T15:03:43Z</time>
      </trkpt>
      <trkpt lat="46.13477" lon="2.48105">
        <ele>497</ele>
        <time>2015-04-10T15:03:45Z</time>
      </trkpt>
      <trkpt lat="46.1348" lon="2.48103">
        <ele>497</ele>
        <time>2015-04-10T15:03:47Z</time>
      </trkpt>
      <trkpt lat="46.13483" lon="2.48102">
        <ele>497</ele>
        <time>2015-04-10T15:03:49Z</time>
      </trkpt>
      <trkpt lat="46.13486" lon="2.481">
        <ele>497</ele>
        <time>2015-04-10T15:03:51Z</time>
      </trkpt>
      <trkpt lat="46.13489" lon="2.48099">
        <ele>497</ele>
        <time>2015-04-10T15:03:53Z</time>
      </trkpt>
      <trkpt lat="46.13492" lon="2.48097">
        <ele>497</ele>
        <time>2015-04-10T15:03:55Z</time>
      </trkpt>
      <trkpt lat="46.13495" lon="2.48095">
        <ele>497</ele>
        <time>2015-04-10T15:03:57Z</time>
      </trkpt>
      <trkpt lat="46.13498" lon="2.48094">
        <ele>497</ele>
        <time>2015-04-10T15:03:59Z</time>
      </trkpt>
      <trkpt lat="46.13501" lon="2.48092">
        <ele>497</ele>
        <time>2015-04-10T15:04:01Z</time>
      </trkpt>
      <trkpt lat="46.13504" lon="2.4809">
        <ele>497</ele>
        <time>2015-04-10T15:04:03Z</time>
      </trkpt>
      <trkpt lat="46.13506" lon="2.48089">
        <ele>497</ele>
        <time>2015-04-10T15:04:05Z</time>
      </trkpt>
      <trkpt lat="46.13509" lon="2.48087">
        <ele>497</ele>
        <time>2015-04-10T15:04:07Z</time>
      </trkpt>
      <trkpt lat="46.13512" lon="2.48086">
        <ele>497</ele>
        <time>2015-04-10T15:04:09Z</time>
      </trkpt>
      <trkpt lat="46.13514" lon="2.48084">
        <ele>497</ele>
        <time>2015-04-10T15:04:11Z</time>
      </trkpt>
      <trkpt lat="46.13517" lon="2.48082">
        <ele>497</ele>
        <time>2015-04-10T15:04:13Z</time>
      </trkpt>
      <trkpt lat="46.1352" lon="2.48081">
        <ele>497</ele>
        <time>2015-04-10T15:04:15Z</time>
      </trkpt>
      <trkpt lat="46.13523" lon="2.48079">
        <ele>497</ele>
        <time>2015-04-10T15:04:17Z</time>
      </trkpt>
      <trkpt lat="46.13525" lon="2.48078">
        <ele>497</ele>
        <time>2015-04-10T15:04:19Z</time>
      </trkpt>
      <trkpt lat="46.13528" lon="2.48077">
        <ele>497</ele>
        <time>2015-04-10T15:04:21Z</time>
      </trkpt>
      <trkpt lat="46.13531" lon="2.48078">
        <ele>497</ele>
        <time>2015-04-10T15:04:23Z</time>
      </trkpt>
      <trkpt lat="46.13533" lon="2.48081">
        <ele>497</ele>
        <time>2015-04-10T15:04:25Z</time>
      </trkpt>
      <trkpt lat="46.13534" lon="2.48084">
        <ele>497</ele>
        <time>2015-04-10T15:04:27Z</time>
      </trkpt>
      <trkpt lat="46.13536" lon="2.48088">
        <ele>497</ele>
        <time>2015-04-10T15:04:29Z</time>
      </trkpt>
      <trkpt lat="46.13538" lon="2.48091">
        <ele>497</ele>
        <time>2015-04-10T15:04:31Z</time>
      </trkpt>
      <trkpt lat="46.1354" lon="2.48095">
        <ele>497</ele>
        <time>2015-04-10T15:04:33Z</time>
      </trkpt>
      <trkpt lat="46.13541" lon="2.48098">
        <ele>497</ele>
        <time>2015-04-10T15:04:35Z</time>
      </trkpt>
      <trkpt lat="46.13543" lon="2.48101">
        <ele>497</ele>
        <time>2015-04-10T15:04:37Z</time>
      </trkpt>
      <trkpt lat="46.13544" lon="2.48105">
        <ele>497</ele>
        <time>2015-04-10T15:04:39Z</time>
      </trkpt>
      <trkpt lat="46.13546" lon="2.48109">
        <ele>497</ele>
        <time>2015-04-10T15:04:41Z</time>
      </trkpt>
      <trkpt lat="46.13548" lon="2.48112">
        <ele>497</ele>
        <time>2015-04-10T15:04:43Z</time>
      </trkpt>
      <trkpt lat="46.13549" lon="2.48116">
        <ele>497</ele>
        <time>2015-04-10T15:04:45Z</time>
      </trkpt>
      <trkpt lat="46.13551" lon="2.4812">
        <ele>497</ele>
        <time>2015-04-10T15:04:47Z</time>
      </trkpt>
      <trkpt lat="46.13554" lon="2.48124">
        <ele>497</ele>
        <time>2015-04-10T15:04:49Z</time>
      </trkpt>
      <trkpt lat="46.13555" lon="2.48127">
        <ele>497</ele>
        <time>2015-04-10T15:04:51Z</time>
      </trkpt>
      <trkpt lat="46.13557" lon="2.48131">
        <ele>497</ele>
        <time>2015-04-10T15:04:53Z</time>
      </trkpt>
      <trkpt lat="46.13559" lon="2.48134">
        <ele>497</ele>
        <time>2015-04-10T15:04:55Z</time>
      </trkpt>
      <trkpt lat="46.1356" lon="2.48138">
        <ele>497</ele>
        <time>2015-04-10T15:04:57Z</time>
      </trkpt>
      <trkpt lat="46.13562" lon="2.48141">
        <ele>496</ele>
        <time>2015-04-10T15:04:59Z</time>
      </trkpt>
      <trkpt lat="46.13564" lon="2.48145">
        <ele>496</ele>
        <time>2015-04-10T15:05:01Z</time>
      </trkpt>
      <trkpt lat="46.13566" lon="2.48149">
        <ele>496</ele>
        <time>2015-04-10T15:05:03Z</time>
      </trkpt>
      <trkpt lat="46.13567" lon="2.48153">
        <ele>496</ele>
        <time>2015-04-10T15:05:05Z</time>
      </trkpt>
      <trkpt lat="46.13569" lon="2.48158">
        <ele>496</ele>
        <time>2015-04-10T15:05:07Z</time>
      </trkpt>
      <trkpt lat="46.1357" lon="2.48161">
        <ele>496</ele>
        <time>2015-04-10T15:05:09Z</time>
      </trkpt>
      <trkpt lat="46.13572" lon="2.48164">
        <ele>495</ele>
        <time>2015-04-10T15:05:11Z</time>
      </trkpt>
      <trkpt lat="46.13575" lon="2.48168">
        <ele>495</ele>
        <time>2015-04-10T15:05:13Z</time>
      </trkpt>
      <trkpt lat="46.13576" lon="2.48172">
        <ele>494</ele>
        <time>2015-04-10T15:05:15Z</time>
      </trkpt>
      <trkpt lat="46.13577" lon="2.48176">
        <ele>494</ele>
        <time>2015-04-10T15:05:17Z</time>
      </trkpt>
      <trkpt lat="46.13578" lon="2.48179">
        <ele>494</ele>
        <time>2015-04-10T15:05:19Z</time>
      </trkpt>
      <trkpt lat="46.1358" lon="2.48182">
        <ele>494</ele>
        <time>2015-04-10T15:05:21Z</time>
      </trkpt>
      <trkpt lat="46.13582" lon="2.48185">
        <ele>493</ele>
        <time>2015-04-10T15:05:23Z</time>
      </trkpt>
      <trkpt lat="46.13584" lon="2.48188">
        <ele>493</ele>
        <time>2015-04-10T15:05:25Z</time>
      </trkpt>
      <trkpt lat="46.13585" lon="2.48191">
        <ele>493</ele>
        <time>2015-04-10T15:05:27Z</time>
      </trkpt>
      <trkpt lat="46.13588" lon="2.48195">
        <ele>493</ele>
        <time>2015-04-10T15:05:30Z</time>
      </trkpt>
      <trkpt lat="46.13591" lon="2.48198">
        <ele>493</ele>
        <time>2015-04-10T15:05:32Z</time>
      </trkpt>
      <trkpt lat="46.13592" lon="2.48201">
        <ele>493</ele>
        <time>2015-04-10T15:05:34Z</time>
      </trkpt>
      <trkpt lat="46.13594" lon="2.48203">
        <ele>493</ele>
        <time>2015-04-10T15:05:36Z</time>
      </trkpt>
      <trkpt lat="46.13596" lon="2.48206">
        <ele>493</ele>
        <time>2015-04-10T15:05:38Z</time>
      </trkpt>
      <trkpt lat="46.13599" lon="2.48209">
        <ele>493</ele>
        <time>2015-04-10T15:05:40Z</time>
      </trkpt>
      <trkpt lat="46.13601" lon="2.48212">
        <ele>493</ele>
        <time>2015-04-10T15:05:42Z</time>
      </trkpt>
      <trkpt lat="46.13603" lon="2.48215">
        <ele>493</ele>
        <time>2015-04-10T15:05:44Z</time>
      </trkpt>
      <trkpt lat="46.13606" lon="2.48217">
        <ele>493</ele>
        <time>2015-04-10T15:05:46Z</time>
      </trkpt>
      <trkpt lat="46.13609" lon="2.48219">
        <ele>492</ele>
        <time>2015-04-10T15:05:48Z</time>
      </trkpt>
      <trkpt lat="46.13612" lon="2.48222">
        <ele>492</ele>
        <time>2015-04-10T15:05:50Z</time>
      </trkpt>
      <trkpt lat="46.13614" lon="2.48225">
        <ele>492</ele>
        <time>2015-04-10T15:05:52Z</time>
      </trkpt>
      <trkpt lat="46.13617" lon="2.48227">
        <ele>492</ele>
        <time>2015-04-10T15:05:54Z</time>
      </trkpt>
      <trkpt lat="46.13619" lon="2.4823">
        <ele>492</ele>
        <time>2015-04-10T15:05:56Z</time>
      </trkpt>
      <trkpt lat="46.13622" lon="2.48232">
        <ele>492</ele>
        <time>2015-04-10T15:05:58Z</time>
      </trkpt>
      <trkpt lat="46.13624" lon="2.48234">
        <ele>492</ele>
        <time>2015-04-10T15:06:00Z</time>
      </trkpt>
      <trkpt lat="46.13627" lon="2.48236">
        <ele>492</ele>
        <time>2015-04-10T15:06:02Z</time>
      </trkpt>
      <trkpt lat="46.1363" lon="2.48237">
        <ele>492</ele>
        <time>2015-04-10T15:06:04Z</time>
      </trkpt>
      <trkpt lat="46.13633" lon="2.48238">
        <ele>492</ele>
        <time>2015-04-10T15:06:06Z</time>
      </trkpt>
      <trkpt lat="46.13636" lon="2.4824">
        <ele>492</ele>
        <time>2015-04-10T15:06:08Z</time>
      </trkpt>
      <trkpt lat="46.13639" lon="2.48241">
        <ele>492</ele>
        <time>2015-04-10T15:06:10Z</time>
      </trkpt>
      <trkpt lat="46.13641" lon="2.48243">
        <ele>492</ele>
        <time>2015-04-10T15:06:12Z</time>
      </trkpt>
      <trkpt lat="46.13644" lon="2.48244">
        <ele>492</ele>
        <time>2015-04-10T15:06:14Z</time>
      </trkpt>
      <trkpt lat="46.13647" lon="2.48245">
        <ele>492</ele>
        <time>2015-04-10T15:06:16Z</time>
      </trkpt>
      <trkpt lat="46.1365" lon="2.48246">
        <ele>492</ele>
        <time>2015-04-10T15:06:18Z</time>
      </trkpt>
      <trkpt lat="46.13652" lon="2.48247">
        <ele>492</ele>
        <time>2015-04-10T15:06:20Z</time>
      </trkpt>
      <trkpt lat="46.13655" lon="2.48249">
        <ele>492</ele>
        <time>2015-04-10T15:06:22Z</time>
      </trkpt>
      <trkpt lat="46.13657" lon="2.4825">
        <ele>492</ele>
        <time>2015-04-10T15:06:24Z</time>
      </trkpt>
      <trkpt lat="46.13659" lon="2.48251">
        <ele>492</ele>
        <time>2015-04-10T15:06:26Z</time>
      </trkpt>
      <trkpt lat="46.13662" lon="2.48253">
        <ele>492</ele>
        <time>2015-04-10T15:06:28Z</time>
      </trkpt>
      <trkpt lat="46.13665" lon="2.48254">
        <ele>492</ele>
        <time>2015-04-10T15:06:30Z</time>
      </trkpt>
      <trkpt lat="46.13667" lon="2.48256">
        <ele>491</ele>
        <time>2015-04-10T15:06:32Z</time>
      </trkpt>
      <trkpt lat="46.1367" lon="2.48258">
        <ele>491</ele>
        <time>2015-04-10T15:06:34Z</time>
      </trkpt>
      <trkpt lat="46.13673" lon="2.4826">
        <ele>491</ele>
        <time>2015-04-10T15:06:36Z</time>
      </trkpt>
      <trkpt lat="46.13675" lon="2.48262">
        <ele>491</ele>
        <time>2015-04-10T15:06:38Z</time>
      </trkpt>
      <trkpt lat="46.13678" lon="2.48264">
        <ele>491</ele>
        <time>2015-04-10T15:06:40Z</time>
      </trkpt>
      <trkpt lat="46.13681" lon="2.48266">
        <ele>490</ele>
        <time>2015-04-10T15:06:42Z</time>
      </trkpt>
      <trkpt lat="46.13683" lon="2.48268">
        <ele>490</ele>
        <time>2015-04-10T15:06:44Z</time>
      </trkpt>
      <trkpt lat="46.13686" lon="2.48269">
        <ele>490</ele>
        <time>2015-04-10T15:06:46Z</time>
      </trkpt>
      <trkpt lat="46.13689" lon="2.48271">
        <ele>490</ele>
        <time>2015-04-10T15:06:48Z</time>
      </trkpt>
      <trkpt lat="46.13691" lon="2.48273">
        <ele>490</ele>
        <time>2015-04-10T15:06:50Z</time>
      </trkpt>
      <trkpt lat="46.13694" lon="2.48275">
        <ele>490</ele>
        <time>2015-04-10T15:06:52Z</time>
      </trkpt>
      <trkpt lat="46.13697" lon="2.48276">
        <ele>489</ele>
        <time>2015-04-10T15:06:54Z</time>
      </trkpt>
      <trkpt lat="46.13699" lon="2.48278">
        <ele>489</ele>
        <time>2015-04-10T15:06:56Z</time>
      </trkpt>
      <trkpt lat="46.13702" lon="2.4828">
        <ele>489</ele>
        <time>2015-04-10T15:06:58Z</time>
      </trkpt>
      <trkpt lat="46.13705" lon="2.48281">
        <ele>489</ele>
        <time>2015-04-10T15:07:00Z</time>
      </trkpt>
      <trkpt lat="46.13707" lon="2.48281">
        <ele>488</ele>
        <time>2015-04-10T15:07:02Z</time>
      </trkpt>
      <trkpt lat="46.1371" lon="2.48283">
        <ele>488</ele>
        <time>2015-04-10T15:07:04Z</time>
      </trkpt>
      <trkpt lat="46.13712" lon="2.48285">
        <ele>488</ele>
        <time>2015-04-10T15:07:06Z</time>
      </trkpt>
      <trkpt lat="46.13714" lon="2.48286">
        <ele>488</ele>
        <time>2015-04-10T15:07:08Z</time>
      </trkpt>
      <trkpt lat="46.13717" lon="2.48288">
        <ele>488</ele>
        <time>2015-04-10T15:07:10Z</time>
      </trkpt>
      <trkpt lat="46.13719" lon="2.4829">
        <ele>488</ele>
        <time>2015-04-10T15:07:12Z</time>
      </trkpt>
      <trkpt lat="46.13721" lon="2.48292">
        <ele>487</ele>
        <time>2015-04-10T15:07:14Z</time>
      </trkpt>
      <trkpt lat="46.13724" lon="2.48294">
        <ele>487</ele>
        <time>2015-04-10T15:07:16Z</time>
      </trkpt>
      <trkpt lat="46.13726" lon="2.48295">
        <ele>486</ele>
        <time>2015-04-10T15:07:18Z</time>
      </trkpt>
      <trkpt lat="46.13729" lon="2.48297">
        <ele>486</ele>
        <time>2015-04-10T15:07:20Z</time>
      </trkpt>
      <trkpt lat="46.13731" lon="2.48299">
        <ele>485</ele>
        <time>2015-04-10T15:07:22Z</time>
      </trkpt>
      <trkpt lat="46.13734" lon="2.48301">
        <ele>485</ele>
        <time>2015-04-10T15:07:24Z</time>
      </trkpt>
      <trkpt lat="46.13736" lon="2.48303">
        <ele>484</ele>
        <time>2015-04-10T15:07:26Z</time>
      </trkpt>
      <trkpt lat="46.13739" lon="2.48305">
        <ele>484</ele>
        <time>2015-04-10T15:07:28Z</time>
      </trkpt>
      <trkpt lat="46.13741" lon="2.48307">
        <ele>484</ele>
        <time>2015-04-10T15:07:30Z</time>
      </trkpt>
      <trkpt lat="46.13743" lon="2.4831">
        <ele>484</ele>
        <time>2015-04-10T15:07:32Z</time>
      </trkpt>
      <trkpt lat="46.13746" lon="2.48312">
        <ele>483</ele>
        <time>2015-04-10T15:07:34Z</time>
      </trkpt>
      <trkpt lat="46.13749" lon="2.48316">
        <ele>483</ele>
        <time>2015-04-10T15:07:37Z</time>
      </trkpt>
      <trkpt lat="46.13752" lon="2.48318">
        <ele>483</ele>
        <time>2015-04-10T15:07:40Z</time>
      </trkpt>
      <trkpt lat="46.13755" lon="2.48321">
        <ele>482</ele>
        <time>2015-04-10T15:07:42Z</time>
      </trkpt>
      <trkpt lat="46.13757" lon="2.48323">
        <ele>482</ele>
        <time>2015-04-10T15:07:44Z</time>
      </trkpt>
      <trkpt lat="46.13759" lon="2.48325">
        <ele>482</ele>
        <time>2015-04-10T15:07:46Z</time>
      </trkpt>
      <trkpt lat="46.13762" lon="2.48328">
        <ele>482</ele>
        <time>2015-04-10T15:07:48Z</time>
      </trkpt>
      <trkpt lat="46.13765" lon="2.48332">
        <ele>481</ele>
        <time>2015-04-10T15:07:51Z</time>
      </trkpt>
      <trkpt lat="46.13767" lon="2.48335">
        <ele>481</ele>
        <time>2015-04-10T15:07:53Z</time>
      </trkpt>
      <trkpt lat="46.13769" lon="2.48338">
        <ele>481</ele>
        <time>2015-04-10T15:07:55Z</time>
      </trkpt>
      <trkpt lat="46.13771" lon="2.4834">
        <ele>481</ele>
        <time>2015-04-10T15:07:57Z</time>
      </trkpt>
      <trkpt lat="46.13773" lon="2.48343">
        <ele>480</ele>
        <time>2015-04-10T15:07:59Z</time>
      </trkpt>
      <trkpt lat="46.13775" lon="2.48346">
        <ele>480</ele>
        <time>2015-04-10T15:08:01Z</time>
      </trkpt>
      <trkpt lat="46.13778" lon="2.48344">
        <ele>480</ele>
        <time>2015-04-10T15:08:03Z</time>
      </trkpt>
      <trkpt lat="46.13781" lon="2.48348">
        <ele>479</ele>
        <time>2015-04-10T15:08:06Z</time>
      </trkpt>
      <trkpt lat="46.13783" lon="2.48351">
        <ele>479</ele>
        <time>2015-04-10T15:08:08Z</time>
      </trkpt>
      <trkpt lat="46.13785" lon="2.48353">
        <ele>479</ele>
        <time>2015-04-10T15:08:10Z</time>
      </trkpt>
      <trkpt lat="46.13787" lon="2.48356">
        <ele>479</ele>
        <time>2015-04-10T15:08:12Z</time>
      </trkpt>
      <trkpt lat="46.13789" lon="2.48358">
        <ele>479</ele>
        <time>2015-04-10T15:08:14Z</time>
      </trkpt>
      <trkpt lat="46.13791" lon="2.48359">
        <ele>479</ele>
        <time>2015-04-10T15:08:16Z</time>
      </trkpt>
      <trkpt lat="46.13794" lon="2.48361">
        <ele>479</ele>
        <time>2015-04-10T15:08:18Z</time>
      </trkpt>
      <trkpt lat="46.13796" lon="2.48359">
        <ele>479</ele>
        <time>2015-04-10T15:08:20Z</time>
      </trkpt>
      <trkpt lat="46.13797" lon="2.48357">
        <ele>479</ele>
        <time>2015-04-10T15:08:22Z</time>
      </trkpt>
      <trkpt lat="46.13799" lon="2.48355">
        <ele>479</ele>
        <time>2015-04-10T15:08:24Z</time>
      </trkpt>
      <trkpt lat="46.13801" lon="2.48352">
        <ele>479</ele>
        <time>2015-04-10T15:08:26Z</time>
      </trkpt>
      <trkpt lat="46.13802" lon="2.48349">
        <ele>479</ele>
        <time>2015-04-10T15:08:28Z</time>
      </trkpt>
      <trkpt lat="46.13803" lon="2.48346">
        <ele>479</ele>
        <time>2015-04-10T15:08:30Z</time>
      </trkpt>
      <trkpt lat="46.13804" lon="2.48342">
        <ele>479</ele>
        <time>2015-04-10T15:08:32Z</time>
      </trkpt>
      <trkpt lat="46.13805" lon="2.48339">
        <ele>479</ele>
        <time>2015-04-10T15:08:34Z</time>
      </trkpt>
      <trkpt lat="46.13807" lon="2.48336">
        <ele>479</ele>
        <time>2015-04-10T15:08:36Z</time>
      </trkpt>
      <trkpt lat="46.13808" lon="2.48333">
        <ele>479</ele>
        <time>2015-04-10T15:08:38Z</time>
      </trkpt>
      <trkpt lat="46.13809" lon="2.4833">
        <ele>479</ele>
        <time>2015-04-10T15:08:40Z</time>
      </trkpt>
      <trkpt lat="46.1381" lon="2.48326">
        <ele>479</ele>
        <time>2015-04-10T15:08:42Z</time>
      </trkpt>
      <trkpt lat="46.13811" lon="2.48323">
        <ele>479</ele>
        <time>2015-04-10T15:08:44Z</time>
      </trkpt>
      <trkpt lat="46.13813" lon="2.4832">
        <ele>479</ele>
        <time>2015-04-10T15:08:46Z</time>
      </trkpt>
      <trkpt lat="46.13814" lon="2.48317">
        <ele>479</ele>
        <time>2015-04-10T15:08:48Z</time>
      </trkpt>
      <trkpt lat="46.13815" lon="2.48314">
        <ele>479</ele>
        <time>2015-04-10T15:08:50Z</time>
      </trkpt>
      <trkpt lat="46.13816" lon="2.4831">
        <ele>479</ele>
        <time>2015-04-10T15:08:52Z</time>
      </trkpt>
      <trkpt lat="46.13817" lon="2.48307">
        <ele>479</ele>
        <time>2015-04-10T15:08:54Z</time>
      </trkpt>
      <trkpt lat="46.13818" lon="2.48304">
        <ele>479</ele>
        <time>2015-04-10T15:08:56Z</time>
      </trkpt>
      <trkpt lat="46.1382" lon="2.483">
        <ele>479</ele>
        <time>2015-04-10T15:08:58Z</time>
      </trkpt>
      <trkpt lat="46.13821" lon="2.48297">
        <ele>479</ele>
        <time>2015-04-10T15:09:00Z</time>
      </trkpt>
      <trkpt lat="46.13822" lon="2.48293">
        <ele>479</ele>
        <time>2015-04-10T15:09:02Z</time>
      </trkpt>
      <trkpt lat="46.13823" lon="2.48289">
        <ele>479</ele>
        <time>2015-04-10T15:09:04Z</time>
      </trkpt>
      <trkpt lat="46.13825" lon="2.48286">
        <ele>479</ele>
        <time>2015-04-10T15:09:06Z</time>
      </trkpt>
      <trkpt lat="46.13826" lon="2.48282">
        <ele>479</ele>
        <time>2015-04-10T15:09:08Z</time>
      </trkpt>
      <trkpt lat="46.13827" lon="2.48278">
        <ele>479</ele>
        <time>2015-04-10T15:09:10Z</time>
      </trkpt>
      <trkpt lat="46.13829" lon="2.48275">
        <ele>479</ele>
        <time>2015-04-10T15:09:12Z</time>
      </trkpt>
      <trkpt lat="46.1383" lon="2.48271">
        <ele>479</ele>
        <time>2015-04-10T15:09:14Z</time>
      </trkpt>
      <trkpt lat="46.13832" lon="2.48267">
        <ele>479</ele>
        <time>2015-04-10T15:09:16Z</time>
      </trkpt>
      <trkpt lat="46.13833" lon="2.48263">
        <ele>479</ele>
        <time>2015-04-10T15:09:18Z</time>
      </trkpt>
      <trkpt lat="46.13834" lon="2.48259">
        <ele>479</ele>
        <time>2015-04-10T15:09:20Z</time>
      </trkpt>
      <trkpt lat="46.13836" lon="2.48255">
        <ele>479</ele>
        <time>2015-04-10T15:09:22Z</time>
      </trkpt>
      <trkpt lat="46.13837" lon="2.48251">
        <ele>479</ele>
        <time>2015-04-10T15:09:24Z</time>
      </trkpt>
      <trkpt lat="46.13838" lon="2.48248">
        <ele>479</ele>
        <time>2015-04-10T15:09:26Z</time>
      </trkpt>
      <trkpt lat="46.1384" lon="2.48243">
        <ele>479</ele>
        <time>2015-04-10T15:09:28Z</time>
      </trkpt>
      <trkpt lat="46.13841" lon="2.48239">
        <ele>479</ele>
        <time>2015-04-10T15:09:30Z</time>
      </trkpt>
      <trkpt lat="46.13842" lon="2.48236">
        <ele>479</ele>
        <time>2015-04-10T15:09:32Z</time>
      </trkpt>
      <trkpt lat="46.13844" lon="2.48232">
        <ele>479</ele>
        <time>2015-04-10T15:09:34Z</time>
      </trkpt>
      <trkpt lat="46.13845" lon="2.48228">
        <ele>479</ele>
        <time>2015-04-10T15:09:36Z</time>
      </trkpt>
      <trkpt lat="46.13846" lon="2.48224">
        <ele>479</ele>
        <time>2015-04-10T15:09:38Z</time>
      </trkpt>
      <trkpt lat="46.13847" lon="2.4822">
        <ele>479</ele>
        <time>2015-04-10T15:09:40Z</time>
      </trkpt>
      <trkpt lat="46.13849" lon="2.48216">
        <ele>479</ele>
        <time>2015-04-10T15:09:42Z</time>
      </trkpt>
      <trkpt lat="46.1385" lon="2.48212">
        <ele>479</ele>
        <time>2015-04-10T15:09:44Z</time>
      </trkpt>
      <trkpt lat="46.13852" lon="2.48208">
        <ele>479</ele>
        <time>2015-04-10T15:09:46Z</time>
      </trkpt>
      <trkpt lat="46.13853" lon="2.48204">
        <ele>479</ele>
        <time>2015-04-10T15:09:48Z</time>
      </trkpt>
      <trkpt lat="46.13854" lon="2.482">
        <ele>479</ele>
        <time>2015-04-10T15:09:50Z</time>
      </trkpt>
      <trkpt lat="46.13856" lon="2.48197">
        <ele>479</ele>
        <time>2015-04-10T15:09:52Z</time>
      </trkpt>
      <trkpt lat="46.13857" lon="2.48193">
        <ele>479</ele>
        <time>2015-04-10T15:09:54Z</time>
      </trkpt>
      <trkpt lat="46.13858" lon="2.48188">
        <ele>479</ele>
        <time>2015-04-10T15:09:56Z</time>
      </trkpt>
      <trkpt lat="46.1386" lon="2.48184">
        <ele>479</ele>
        <time>2015-04-10T15:09:58Z</time>
      </trkpt>
      <trkpt lat="46.13861" lon="2.48181">
        <ele>479</ele>
        <time>2015-04-10T15:10:00Z</time>
      </trkpt>
      <trkpt lat="46.13862" lon="2.48177">
        <ele>479</ele>
        <time>2015-04-10T15:10:02Z</time>
      </trkpt>
      <trkpt lat="46.13863" lon="2.48173">
        <ele>479</ele>
        <time>2015-04-10T15:10:04Z</time>
      </trkpt>
      <trkpt lat="46.13865" lon="2.48169">
        <ele>479</ele>
        <time>2015-04-10T15:10:06Z</time>
      </trkpt>
      <trkpt lat="46.13866" lon="2.48165">
        <ele>479</ele>
        <time>2015-04-10T15:10:08Z</time>
      </trkpt>
      <trkpt lat="46.13866" lon="2.48161">
        <ele>479</ele>
        <time>2015-04-10T15:10:10Z</time>
      </trkpt>
      <trkpt lat="46.13868" lon="2.48157">
        <ele>479</ele>
        <time>2015-04-10T15:10:12Z</time>
      </trkpt>
      <trkpt lat="46.13869" lon="2.48153">
        <ele>479</ele>
        <time>2015-04-10T15:10:14Z</time>
      </trkpt>
      <trkpt lat="46.1387" lon="2.4815">
        <ele>479</ele>
        <time>2015-04-10T15:10:16Z</time>
      </trkpt>
      <trkpt lat="46.13871" lon="2.48146">
        <ele>479</ele>
        <time>2015-04-10T15:10:18Z</time>
      </trkpt>
      <trkpt lat="46.13873" lon="2.48142">
        <ele>479</ele>
        <time>2015-04-10T15:10:20Z</time>
      </trkpt>
      <trkpt lat="46.13874" lon="2.48138">
        <ele>479</ele>
        <time>2015-04-10T15:10:22Z</time>
      </trkpt>
      <trkpt lat="46.13876" lon="2.48134">
        <ele>479</ele>
        <time>2015-04-10T15:10:24Z</time>
      </trkpt>
      <trkpt lat="46.13877" lon="2.4813">
        <ele>479</ele>
        <time>2015-04-10T15:10:26Z</time>
      </trkpt>
      <trkpt lat="46.13878" lon="2.48127">
        <ele>479</ele>
        <time>2015-04-10T15:10:28Z</time>
      </trkpt>
      <trkpt lat="46.1388" lon="2.48123">
        <ele>479</ele>
        <time>2015-04-10T15:10:30Z</time>
      </trkpt>
      <trkpt lat="46.13881" lon="2.48119">
        <ele>479</ele>
        <time>2015-04-10T15:10:32Z</time>
      </trkpt>
      <trkpt lat="46.13882" lon="2.48116">
        <ele>479</ele>
        <time>2015-04-10T15:10:34Z</time>
      </trkpt>
      <trkpt lat="46.13884" lon="2.48113">
        <ele>479</ele>
        <time>2015-04-10T15:10:36Z</time>
      </trkpt>
      <trkpt lat="46.13885" lon="2.48109">
        <ele>479</ele>
        <time>2015-04-10T15:10:38Z</time>
      </trkpt>
      <trkpt lat="46.13886" lon="2.48106">
        <ele>479</ele>
        <time>2015-04-10T15:10:40Z</time>
      </trkpt>
      <trkpt lat="46.13888" lon="2.48102">
        <ele>479</ele>
        <time>2015-04-10T15:10:43Z</time>
      </trkpt>
      <trkpt lat="46.1389" lon="2.48101">
        <ele>479</ele>
        <time>2015-04-10T15:10:45Z</time>
      </trkpt>
      <trkpt lat="46.13893" lon="2.48101">
        <ele>478</ele>
        <time>2015-04-10T15:10:47Z</time>
      </trkpt>
      <trkpt lat="46.13896" lon="2.48102">
        <ele>478</ele>
        <time>2015-04-10T15:10:49Z</time>
      </trkpt>
      <trkpt lat="46.13898" lon="2.48104">
        <ele>477</ele>
        <time>2015-04-10T15:10:51Z</time>
      </trkpt>
      <trkpt lat="46.13901" lon="2.48106">
        <ele>477</ele>
        <time>2015-04-10T15:10:53Z</time>
      </trkpt>
      <trkpt lat="46.13904" lon="2.48107">
        <ele>476</ele>
        <time>2015-04-10T15:10:55Z</time>
      </trkpt>
      <trkpt lat="46.13906" lon="2.48109">
        <ele>476</ele>
        <time>2015-04-10T15:10:57Z</time>
      </trkpt>
      <trkpt lat="46.13909" lon="2.48112">
        <ele>476</ele>
        <time>2015-04-10T15:10:59Z</time>
      </trkpt>
      <trkpt lat="46.13911" lon="2.48114">
        <ele>476</ele>
        <time>2015-04-10T15:11:01Z</time>
      </trkpt>
      <trkpt lat="46.13914" lon="2.48116">
        <ele>475</ele>
        <time>2015-04-10T15:11:03Z</time>
      </trkpt>
      <trkpt lat="46.13918" lon="2.48118">
        <ele>475</ele>
        <time>2015-04-10T15:11:05Z</time>
      </trkpt>
      <trkpt lat="46.1392" lon="2.4812">
        <ele>475</ele>
        <time>2015-04-10T15:11:07Z</time>
      </trkpt>
      <trkpt lat="46.13923" lon="2.48121">
        <ele>474</ele>
        <time>2015-04-10T15:11:09Z</time>
      </trkpt>
      <trkpt lat="46.13925" lon="2.48124">
        <ele>474</ele>
        <time>2015-04-10T15:11:11Z</time>
      </trkpt>
      <trkpt lat="46.13927" lon="2.48125">
        <ele>474</ele>
        <time>2015-04-10T15:11:13Z</time>
      </trkpt>
      <trkpt lat="46.1393" lon="2.4813">
        <ele>473</ele>
        <time>2015-04-10T15:11:16Z</time>
      </trkpt>
      <trkpt lat="46.13932" lon="2.48132">
        <ele>473</ele>
        <time>2015-04-10T15:11:18Z</time>
      </trkpt>
      <trkpt lat="46.13935" lon="2.48135">
        <ele>473</ele>
        <time>2015-04-10T15:11:20Z</time>
      </trkpt>
      <trkpt lat="46.13937" lon="2.48137">
        <ele>473</ele>
        <time>2015-04-10T15:11:22Z</time>
      </trkpt>
      <trkpt lat="46.1394" lon="2.48139">
        <ele>473</ele>
        <time>2015-04-10T15:11:24Z</time>
      </trkpt>
      <trkpt lat="46.13942" lon="2.4814">
        <ele>472</ele>
        <time>2015-04-10T15:11:26Z</time>
      </trkpt>
      <trkpt lat="46.13945" lon="2.48142">
        <ele>472</ele>
        <time>2015-04-10T15:11:28Z</time>
      </trkpt>
      <trkpt lat="46.13948" lon="2.48145">
        <ele>471</ele>
        <time>2015-04-10T15:11:30Z</time>
      </trkpt>
      <trkpt lat="46.1395" lon="2.48147">
        <ele>471</ele>
        <time>2015-04-10T15:11:32Z</time>
      </trkpt>
      <trkpt lat="46.13952" lon="2.48149">
        <ele>470</ele>
        <time>2015-04-10T15:11:34Z</time>
      </trkpt>
      <trkpt lat="46.13955" lon="2.4815">
        <ele>470</ele>
        <time>2015-04-10T15:11:36Z</time>
      </trkpt>
      <trkpt lat="46.13957" lon="2.48153">
        <ele>470</ele>
        <time>2015-04-10T15:11:38Z</time>
      </trkpt>
      <trkpt lat="46.1396" lon="2.48154">
        <ele>470</ele>
        <time>2015-04-10T15:11:40Z</time>
      </trkpt>
      <trkpt lat="46.13962" lon="2.48156">
        <ele>469</ele>
        <time>2015-04-10T15:11:42Z</time>
      </trkpt>
      <trkpt lat="46.13965" lon="2.48157">
        <ele>469</ele>
        <time>2015-04-10T15:11:44Z</time>
      </trkpt>
      <trkpt lat="46.13968" lon="2.48159">
        <ele>468</ele>
        <time>2015-04-10T15:11:46Z</time>
      </trkpt>
      <trkpt lat="46.13971" lon="2.4816">
        <ele>468</ele>
        <time>2015-04-10T15:11:48Z</time>
      </trkpt>
      <trkpt lat="46.13973" lon="2.48161">
        <ele>468</ele>
        <time>2015-04-10T15:11:50Z</time>
      </trkpt>
      <trkpt lat="46.13976" lon="2.48162">
        <ele>467</ele>
        <time>2015-04-10T15:11:52Z</time>
      </trkpt>
      <trkpt lat="46.13978" lon="2.48163">
        <ele>467</ele>
        <time>2015-04-10T15:11:54Z</time>
      </trkpt>
      <trkpt lat="46.13981" lon="2.48165">
        <ele>467</ele>
        <time>2015-04-10T15:11:56Z</time>
      </trkpt>
      <trkpt lat="46.13984" lon="2.48166">
        <ele>467</ele>
        <time>2015-04-10T15:11:58Z</time>
      </trkpt>
      <trkpt lat="46.13986" lon="2.48168">
        <ele>467</ele>
        <time>2015-04-10T15:12:00Z</time>
      </trkpt>
      <trkpt lat="46.13988" lon="2.4817">
        <ele>467</ele>
        <time>2015-04-10T15:12:02Z</time>
      </trkpt>
      <trkpt lat="46.13991" lon="2.48172">
        <ele>467</ele>
        <time>2015-04-10T15:12:04Z</time>
      </trkpt>
      <trkpt lat="46.13994" lon="2.48173">
        <ele>467</ele>
        <time>2015-04-10T15:12:06Z</time>
      </trkpt>
      <trkpt lat="46.13995" lon="2.48174">
        <ele>467</ele>
        <time>2015-04-10T15:12:11Z</time>
      </trkpt>
      <trkpt lat="46.13997" lon="2.48175">
        <ele>467</ele>
        <time>2015-04-10T15:12:14Z</time>
      </trkpt>
      <trkpt lat="46.13999" lon="2.48175">
        <ele>467</ele>
        <time>2015-04-10T15:12:16Z</time>
      </trkpt>
      <trkpt lat="46.14002" lon="2.48175">
        <ele>467</ele>
        <time>2015-04-10T15:12:18Z</time>
      </trkpt>
      <trkpt lat="46.14005" lon="2.48175">
        <ele>467</ele>
        <time>2015-04-10T15:12:20Z</time>
      </trkpt>
      <trkpt lat="46.14008" lon="2.48175">
        <ele>467</ele>
        <time>2015-04-10T15:12:22Z</time>
      </trkpt>
      <trkpt lat="46.14011" lon="2.48175">
        <ele>466</ele>
        <time>2015-04-10T15:12:24Z</time>
      </trkpt>
      <trkpt lat="46.14013" lon="2.48176">
        <ele>466</ele>
        <time>2015-04-10T15:12:26Z</time>
      </trkpt>
      <trkpt lat="46.14016" lon="2.48176">
        <ele>465</ele>
        <time>2015-04-10T15:12:28Z</time>
      </trkpt>
      <trkpt lat="46.14019" lon="2.48176">
        <ele>465</ele>
        <time>2015-04-10T15:12:30Z</time>
      </trkpt>
      <trkpt lat="46.14022" lon="2.48177">
        <ele>465</ele>
        <time>2015-04-10T15:12:32Z</time>
      </trkpt>
      <trkpt lat="46.14024" lon="2.48177">
        <ele>464</ele>
        <time>2015-04-10T15:12:34Z</time>
      </trkpt>
      <trkpt lat="46.14026" lon="2.48178">
        <ele>464</ele>
        <time>2015-04-10T15:12:36Z</time>
      </trkpt>
      <trkpt lat="46.14026" lon="2.4818">
        <ele>462</ele>
        <time>2015-04-10T15:12:42Z</time>
      </trkpt>
      <trkpt lat="46.14027" lon="2.48181">
        <ele>462</ele>
        <time>2015-04-10T15:12:44Z</time>
      </trkpt>
      <trkpt lat="46.14028" lon="2.48182">
        <ele>462</ele>
        <time>2015-04-10T15:12:46Z</time>
      </trkpt>
      <trkpt lat="46.14029" lon="2.48182">
        <ele>462</ele>
        <time>2015-04-10T15:12:49Z</time>
      </trkpt>
      <trkpt lat="46.1403" lon="2.48184">
        <ele>462</ele>
        <time>2015-04-10T15:12:57Z</time>
      </trkpt>
      <trkpt lat="46.14032" lon="2.48183">
        <ele>462</ele>
        <time>2015-04-10T15:13:18Z</time>
      </trkpt>
      <trkpt lat="46.14036" lon="2.48184">
        <ele>462</ele>
        <time>2015-04-10T15:13:21Z</time>
      </trkpt>
      <trkpt lat="46.14038" lon="2.48185">
        <ele>462</ele>
        <time>2015-04-10T15:13:23Z</time>
      </trkpt>
      <trkpt lat="46.14041" lon="2.48185">
        <ele>462</ele>
        <time>2015-04-10T15:13:25Z</time>
      </trkpt>
      <trkpt lat="46.14043" lon="2.48185">
        <ele>462</ele>
        <time>2015-04-10T15:13:27Z</time>
      </trkpt>
      <trkpt lat="46.14046" lon="2.48185">
        <ele>462</ele>
        <time>2015-04-10T15:13:29Z</time>
      </trkpt>
      <trkpt lat="46.14049" lon="2.48185">
        <ele>462</ele>
        <time>2015-04-10T15:13:31Z</time>
      </trkpt>
      <trkpt lat="46.14052" lon="2.48186">
        <ele>462</ele>
        <time>2015-04-10T15:13:33Z</time>
      </trkpt>
      <trkpt lat="46.14054" lon="2.48187">
        <ele>462</ele>
        <time>2015-04-10T15:13:35Z</time>
      </trkpt>
      <trkpt lat="46.14057" lon="2.48188">
        <ele>461</ele>
        <time>2015-04-10T15:13:37Z</time>
      </trkpt>
      <trkpt lat="46.14059" lon="2.4819">
        <ele>461</ele>
        <time>2015-04-10T15:13:39Z</time>
      </trkpt>
      <trkpt lat="46.14062" lon="2.48191">
        <ele>460</ele>
        <time>2015-04-10T15:13:41Z</time>
      </trkpt>
      <trkpt lat="46.14065" lon="2.48192">
        <ele>460</ele>
        <time>2015-04-10T15:13:43Z</time>
      </trkpt>
      <trkpt lat="46.14068" lon="2.48193">
        <ele>459</ele>
        <time>2015-04-10T15:13:45Z</time>
      </trkpt>
      <trkpt lat="46.14071" lon="2.48197">
        <ele>458</ele>
        <time>2015-04-10T15:13:48Z</time>
      </trkpt>
      <trkpt lat="46.14073" lon="2.48199">
        <ele>457</ele>
        <time>2015-04-10T15:13:50Z</time>
      </trkpt>
      <trkpt lat="46.14075" lon="2.48201">
        <ele>457</ele>
        <time>2015-04-10T15:13:52Z</time>
      </trkpt>
      <trkpt lat="46.14078" lon="2.48203">
        <ele>456</ele>
        <time>2015-04-10T15:13:54Z</time>
      </trkpt>
      <trkpt lat="46.14081" lon="2.48204">
        <ele>456</ele>
        <time>2015-04-10T15:13:56Z</time>
      </trkpt>
      <trkpt lat="46.14083" lon="2.48206">
        <ele>456</ele>
        <time>2015-04-10T15:13:58Z</time>
      </trkpt>
      <trkpt lat="46.14086" lon="2.48208">
        <ele>455</ele>
        <time>2015-04-10T15:14:00Z</time>
      </trkpt>
      <trkpt lat="46.14088" lon="2.48211">
        <ele>455</ele>
        <time>2015-04-10T15:14:02Z</time>
      </trkpt>
      <trkpt lat="46.1409" lon="2.48215">
        <ele>454</ele>
        <time>2015-04-10T15:14:04Z</time>
      </trkpt>
      <trkpt lat="46.14092" lon="2.48218">
        <ele>454</ele>
        <time>2015-04-10T15:14:06Z</time>
      </trkpt>
      <trkpt lat="46.14094" lon="2.48223">
        <ele>454</ele>
        <time>2015-04-10T15:14:08Z</time>
      </trkpt>
      <trkpt lat="46.14095" lon="2.48227">
        <ele>454</ele>
        <time>2015-04-10T15:14:10Z</time>
      </trkpt>
      <trkpt lat="46.14096" lon="2.48231">
        <ele>454</ele>
        <time>2015-04-10T15:14:12Z</time>
      </trkpt>
      <trkpt lat="46.14098" lon="2.48236">
        <ele>454</ele>
        <time>2015-04-10T15:14:14Z</time>
      </trkpt>
      <trkpt lat="46.14098" lon="2.4824">
        <ele>454</ele>
        <time>2015-04-10T15:14:16Z</time>
      </trkpt>
      <trkpt lat="46.14098" lon="2.48244">
        <ele>454</ele>
        <time>2015-04-10T15:14:18Z</time>
      </trkpt>
      <trkpt lat="46.14097" lon="2.48248">
        <ele>453</ele>
        <time>2015-04-10T15:14:20Z</time>
      </trkpt>
      <trkpt lat="46.14097" lon="2.48253">
        <ele>453</ele>
        <time>2015-04-10T15:14:22Z</time>
      </trkpt>
      <trkpt lat="46.14096" lon="2.48257">
        <ele>452</ele>
        <time>2015-04-10T15:14:24Z</time>
      </trkpt>
      <trkpt lat="46.14095" lon="2.48261">
        <ele>452</ele>
        <time>2015-04-10T15:14:26Z</time>
      </trkpt>
      <trkpt lat="46.14094" lon="2.48265">
        <ele>451</ele>
        <time>2015-04-10T15:14:28Z</time>
      </trkpt>
      <trkpt lat="46.14092" lon="2.48268">
        <ele>451</ele>
        <time>2015-04-10T15:14:30Z</time>
      </trkpt>
      <trkpt lat="46.14091" lon="2.48271">
        <ele>451</ele>
        <time>2015-04-10T15:14:32Z</time>
      </trkpt>
      <trkpt lat="46.14091" lon="2.48276">
        <ele>451</ele>
        <time>2015-04-10T15:14:34Z</time>
      </trkpt>
      <trkpt lat="46.14093" lon="2.4828">
        <ele>451</ele>
        <time>2015-04-10T15:14:36Z</time>
      </trkpt>
      <trkpt lat="46.14096" lon="2.48279">
        <ele>451</ele>
        <time>2015-04-10T15:14:38Z</time>
      </trkpt>
      <trkpt lat="46.14099" lon="2.48277">
        <ele>450</ele>
        <time>2015-04-10T15:14:40Z</time>
      </trkpt>
      <trkpt lat="46.14101" lon="2.48274">
        <ele>450</ele>
        <time>2015-04-10T15:14:42Z</time>
      </trkpt>
      <trkpt lat="46.14103" lon="2.48271">
        <ele>449</ele>
        <time>2015-04-10T15:14:44Z</time>
      </trkpt>
      <trkpt lat="46.14105" lon="2.48267">
        <ele>449</ele>
        <time>2015-04-10T15:14:46Z</time>
      </trkpt>
      <trkpt lat="46.14109" lon="2.48263">
        <ele>449</ele>
        <time>2015-04-10T15:14:48Z</time>
      </trkpt>
      <trkpt lat="46.1411" lon="2.48259">
        <ele>449</ele>
        <time>2015-04-10T15:14:50Z</time>
      </trkpt>
      <trkpt lat="46.14111" lon="2.48256">
        <ele>449</ele>
        <time>2015-04-10T15:14:52Z</time>
      </trkpt>
      <trkpt lat="46.14114" lon="2.48253">
        <ele>448</ele>
        <time>2015-04-10T15:14:54Z</time>
      </trkpt>
      <trkpt lat="46.14115" lon="2.4825">
        <ele>448</ele>
        <time>2015-04-10T15:14:56Z</time>
      </trkpt>
      <trkpt lat="46.14117" lon="2.48246">
        <ele>448</ele>
        <time>2015-04-10T15:14:58Z</time>
      </trkpt>
      <trkpt lat="46.14117" lon="2.48243">
        <ele>447</ele>
        <time>2015-04-10T15:15:00Z</time>
      </trkpt>
      <trkpt lat="46.14119" lon="2.4824">
        <ele>446</ele>
        <time>2015-04-10T15:15:02Z</time>
      </trkpt>
      <trkpt lat="46.1412" lon="2.48236">
        <ele>446</ele>
        <time>2015-04-10T15:15:04Z</time>
      </trkpt>
      <trkpt lat="46.14121" lon="2.48233">
        <ele>445</ele>
        <time>2015-04-10T15:15:06Z</time>
      </trkpt>
      <trkpt lat="46.14122" lon="2.48229">
        <ele>444</ele>
        <time>2015-04-10T15:15:08Z</time>
      </trkpt>
      <trkpt lat="46.14123" lon="2.48225">
        <ele>443</ele>
        <time>2015-04-10T15:15:10Z</time>
      </trkpt>
      <trkpt lat="46.14125" lon="2.48222">
        <ele>443</ele>
        <time>2015-04-10T15:15:12Z</time>
      </trkpt>
      <trkpt lat="46.14127" lon="2.48218">
        <ele>442</ele>
        <time>2015-04-10T15:15:14Z</time>
      </trkpt>
      <trkpt lat="46.14128" lon="2.48215">
        <ele>442</ele>
        <time>2015-04-10T15:15:16Z</time>
      </trkpt>
      <trkpt lat="46.1413" lon="2.48212">
        <ele>441</ele>
        <time>2015-04-10T15:15:18Z</time>
      </trkpt>
      <trkpt lat="46.14133" lon="2.48209">
        <ele>441</ele>
        <time>2015-04-10T15:15:20Z</time>
      </trkpt>
      <trkpt lat="46.14135" lon="2.48208">
        <ele>441</ele>
        <time>2015-04-10T15:15:22Z</time>
      </trkpt>
      <trkpt lat="46.14137" lon="2.48208">
        <ele>441</ele>
        <time>2015-04-10T15:15:24Z</time>
      </trkpt>
      <trkpt lat="46.14139" lon="2.48207">
        <ele>440</ele>
        <time>2015-04-10T15:15:26Z</time>
      </trkpt>
      <trkpt lat="46.14142" lon="2.48206">
        <ele>440</ele>
        <time>2015-04-10T15:15:28Z</time>
      </trkpt>
      <trkpt lat="46.14146" lon="2.48204">
        <ele>440</ele>
        <time>2015-04-10T15:15:30Z</time>
      </trkpt>
      <trkpt lat="46.14148" lon="2.48202">
        <ele>440</ele>
        <time>2015-04-10T15:15:32Z</time>
      </trkpt>
      <trkpt lat="46.14151" lon="2.482">
        <ele>440</ele>
        <time>2015-04-10T15:15:34Z</time>
      </trkpt>
      <trkpt lat="46.14154" lon="2.48199">
        <ele>440</ele>
        <time>2015-04-10T15:15:36Z</time>
      </trkpt>
      <trkpt lat="46.14157" lon="2.48199">
        <ele>440</ele>
        <time>2015-04-10T15:15:38Z</time>
      </trkpt>
      <trkpt lat="46.14161" lon="2.48198">
        <ele>440</ele>
        <time>2015-04-10T15:15:40Z</time>
      </trkpt>
      <trkpt lat="46.14164" lon="2.48197">
        <ele>440</ele>
        <time>2015-04-10T15:15:42Z</time>
      </trkpt>
      <trkpt lat="46.14167" lon="2.48196">
        <ele>440</ele>
        <time>2015-04-10T15:15:44Z</time>
      </trkpt>
      <trkpt lat="46.14171" lon="2.48195">
        <ele>440</ele>
        <time>2015-04-10T15:15:46Z</time>
      </trkpt>
      <trkpt lat="46.14175" lon="2.48195">
        <ele>440</ele>
        <time>2015-04-10T15:15:48Z</time>
      </trkpt>
      <trkpt lat="46.14178" lon="2.48195">
        <ele>440</ele>
        <time>2015-04-10T15:15:50Z</time>
      </trkpt>
      <trkpt lat="46.14182" lon="2.48194">
        <ele>440</ele>
        <time>2015-04-10T15:15:52Z</time>
      </trkpt>
      <trkpt lat="46.14186" lon="2.48195">
        <ele>440</ele>
        <time>2015-04-10T15:15:54Z</time>
      </trkpt>
      <trkpt lat="46.14188" lon="2.48194">
        <ele>440</ele>
        <time>2015-04-10T15:15:56Z</time>
      </trkpt>
      <trkpt lat="46.14191" lon="2.48195">
        <ele>440</ele>
        <time>2015-04-10T15:15:58Z</time>
      </trkpt>
      <trkpt lat="46.14193" lon="2.48197">
        <ele>440</ele>
        <time>2015-04-10T15:16:00Z</time>
      </trkpt>
      <trkpt lat="46.14196" lon="2.48198">
        <ele>440</ele>
        <time>2015-04-10T15:16:02Z</time>
      </trkpt>
      <trkpt lat="46.14197" lon="2.48199">
        <ele>440</ele>
        <time>2015-04-10T15:16:04Z</time>
      </trkpt>
      <trkpt lat="46.14199" lon="2.48201">
        <ele>440</ele>
        <time>2015-04-10T15:16:06Z</time>
      </trkpt>
      <trkpt lat="46.14201" lon="2.48202">
        <ele>440</ele>
        <time>2015-04-10T15:16:08Z</time>
      </trkpt>
      <trkpt lat="46.14203" lon="2.48202">
        <ele>440</ele>
        <time>2015-04-10T15:16:10Z</time>
      </trkpt>
      <trkpt lat="46.14205" lon="2.48202">
        <ele>440</ele>
        <time>2015-04-10T15:16:12Z</time>
      </trkpt>
      <trkpt lat="46.14208" lon="2.48201">
        <ele>440</ele>
        <time>2015-04-10T15:16:14Z</time>
      </trkpt>
      <trkpt lat="46.1421" lon="2.48198">
        <ele>440</ele>
        <time>2015-04-10T15:16:16Z</time>
      </trkpt>
      <trkpt lat="46.14212" lon="2.48195">
        <ele>440</ele>
        <time>2015-04-10T15:16:18Z</time>
      </trkpt>
      <trkpt lat="46.14214" lon="2.48192">
        <ele>440</ele>
        <time>2015-04-10T15:16:20Z</time>
      </trkpt>
      <trkpt lat="46.14217" lon="2.48187">
        <ele>440</ele>
        <time>2015-04-10T15:16:23Z</time>
      </trkpt>
      <trkpt lat="46.14219" lon="2.48183">
        <ele>440</ele>
        <time>2015-04-10T15:16:25Z</time>
      </trkpt>
      <trkpt lat="46.14222" lon="2.48181">
        <ele>441</ele>
        <time>2015-04-10T15:16:27Z</time>
      </trkpt>
      <trkpt lat="46.14224" lon="2.48178">
        <ele>442</ele>
        <time>2015-04-10T15:16:29Z</time>
      </trkpt>
      <trkpt lat="46.14225" lon="2.48175">
        <ele>444</ele>
        <time>2015-04-10T15:16:31Z</time>
      </trkpt>
      <trkpt lat="46.14226" lon="2.48171">
        <ele>445</ele>
        <time>2015-04-10T15:16:33Z</time>
      </trkpt>
      <trkpt lat="46.14227" lon="2.48169">
        <ele>446</ele>
        <time>2015-04-10T15:16:35Z</time>
      </trkpt>
      <trkpt lat="46.14229" lon="2.48164">
        <ele>447</ele>
        <time>2015-04-10T15:16:37Z</time>
      </trkpt>
      <trkpt lat="46.14231" lon="2.4816">
        <ele>448</ele>
        <time>2015-04-10T15:16:39Z</time>
      </trkpt>
      <trkpt lat="46.14233" lon="2.48155">
        <ele>449</ele>
        <time>2015-04-10T15:16:41Z</time>
      </trkpt>
      <trkpt lat="46.14235" lon="2.48151">
        <ele>450</ele>
        <time>2015-04-10T15:16:43Z</time>
      </trkpt>
      <trkpt lat="46.14237" lon="2.48146">
        <ele>452</ele>
        <time>2015-04-10T15:16:45Z</time>
      </trkpt>
      <trkpt lat="46.14239" lon="2.48141">
        <ele>453</ele>
        <time>2015-04-10T15:16:47Z</time>
      </trkpt>
      <trkpt lat="46.1424" lon="2.48136">
        <ele>453</ele>
        <time>2015-04-10T15:16:49Z</time>
      </trkpt>
      <trkpt lat="46.14242" lon="2.48133">
        <ele>453</ele>
        <time>2015-04-10T15:16:51Z</time>
      </trkpt>
      <trkpt lat="46.14243" lon="2.48128">
        <ele>453</ele>
        <time>2015-04-10T15:16:53Z</time>
      </trkpt>
      <trkpt lat="46.14246" lon="2.48124">
        <ele>454</ele>
        <time>2015-04-10T15:16:55Z</time>
      </trkpt>
      <trkpt lat="46.14246" lon="2.48119">
        <ele>454</ele>
        <time>2015-04-10T15:16:57Z</time>
      </trkpt>
      <trkpt lat="46.14248" lon="2.48114">
        <ele>455</ele>
        <time>2015-04-10T15:16:59Z</time>
      </trkpt>
      <trkpt lat="46.14249" lon="2.4811">
        <ele>455</ele>
        <time>2015-04-10T15:17:01Z</time>
      </trkpt>
      <trkpt lat="46.14251" lon="2.48107">
        <ele>455</ele>
        <time>2015-04-10T15:17:03Z</time>
      </trkpt>
      <trkpt lat="46.14252" lon="2.48103">
        <ele>455</ele>
        <time>2015-04-10T15:17:05Z</time>
      </trkpt>
      <trkpt lat="46.14254" lon="2.481">
        <ele>455</ele>
        <time>2015-04-10T15:17:07Z</time>
      </trkpt>
      <trkpt lat="46.14255" lon="2.48096">
        <ele>455</ele>
        <time>2015-04-10T15:17:09Z</time>
      </trkpt>
      <trkpt lat="46.14256" lon="2.48092">
        <ele>455</ele>
        <time>2015-04-10T15:17:11Z</time>
      </trkpt>
      <trkpt lat="46.14259" lon="2.48088">
        <ele>455</ele>
        <time>2015-04-10T15:17:13Z</time>
      </trkpt>
      <trkpt lat="46.14259" lon="2.48084">
        <ele>455</ele>
        <time>2015-04-10T15:17:15Z</time>
      </trkpt>
      <trkpt lat="46.14262" lon="2.48081">
        <ele>455</ele>
        <time>2015-04-10T15:17:17Z</time>
      </trkpt>
      <trkpt lat="46.14263" lon="2.48077">
        <ele>455</ele>
        <time>2015-04-10T15:17:19Z</time>
      </trkpt>
      <trkpt lat="46.14264" lon="2.48074">
        <ele>455</ele>
        <time>2015-04-10T15:17:21Z</time>
      </trkpt>
      <trkpt lat="46.14266" lon="2.48072">
        <ele>455</ele>
        <time>2015-04-10T15:17:23Z</time>
      </trkpt>
      <trkpt lat="46.14268" lon="2.4807">
        <ele>455</ele>
        <time>2015-04-10T15:17:25Z</time>
      </trkpt>
      <trkpt lat="46.14271" lon="2.48065">
        <ele>455</ele>
        <time>2015-04-10T15:17:28Z</time>
      </trkpt>
      <trkpt lat="46.14274" lon="2.48062">
        <ele>455</ele>
        <time>2015-04-10T15:17:31Z</time>
      </trkpt>
      <trkpt lat="46.14276" lon="2.4806">
        <ele>455</ele>
        <time>2015-04-10T15:17:33Z</time>
      </trkpt>
      <trkpt lat="46.14278" lon="2.48059">
        <ele>454</ele>
        <time>2015-04-10T15:17:35Z</time>
      </trkpt>
      <trkpt lat="46.14281" lon="2.48057">
        <ele>451</ele>
        <time>2015-04-10T15:17:38Z</time>
      </trkpt>
      <trkpt lat="46.14283" lon="2.48055">
        <ele>450</ele>
        <time>2015-04-10T15:17:40Z</time>
      </trkpt>
      <trkpt lat="46.14286" lon="2.48053">
        <ele>450</ele>
        <time>2015-04-10T15:17:42Z</time>
      </trkpt>
      <trkpt lat="46.14287" lon="2.48051">
        <ele>450</ele>
        <time>2015-04-10T15:17:44Z</time>
      </trkpt>
      <trkpt lat="46.1429" lon="2.48047">
        <ele>450</ele>
        <time>2015-04-10T15:17:46Z</time>
      </trkpt>
      <trkpt lat="46.14293" lon="2.48044">
        <ele>450</ele>
        <time>2015-04-10T15:17:48Z</time>
      </trkpt>
      <trkpt lat="46.14296" lon="2.48041">
        <ele>450</ele>
        <time>2015-04-10T15:17:50Z</time>
      </trkpt>
      <trkpt lat="46.14299" lon="2.4804">
        <ele>450</ele>
        <time>2015-04-10T15:17:52Z</time>
      </trkpt>
      <trkpt lat="46.14302" lon="2.48038">
        <ele>450</ele>
        <time>2015-04-10T15:17:54Z</time>
      </trkpt>
      <trkpt lat="46.14305" lon="2.48036">
        <ele>451</ele>
        <time>2015-04-10T15:17:56Z</time>
      </trkpt>
      <trkpt lat="46.14307" lon="2.48036">
        <ele>452</ele>
        <time>2015-04-10T15:17:58Z</time>
      </trkpt>
      <trkpt lat="46.14309" lon="2.48036">
        <ele>452</ele>
        <time>2015-04-10T15:18:00Z</time>
      </trkpt>
      <trkpt lat="46.14311" lon="2.48035">
        <ele>452</ele>
        <time>2015-04-10T15:18:02Z</time>
      </trkpt>
      <trkpt lat="46.14313" lon="2.48037">
        <ele>452</ele>
        <time>2015-04-10T15:18:04Z</time>
      </trkpt>
      <trkpt lat="46.14315" lon="2.48037">
        <ele>452</ele>
        <time>2015-04-10T15:18:06Z</time>
      </trkpt>
      <trkpt lat="46.14317" lon="2.48038">
        <ele>452</ele>
        <time>2015-04-10T15:18:08Z</time>
      </trkpt>
      <trkpt lat="46.14319" lon="2.48039">
        <ele>452</ele>
        <time>2015-04-10T15:18:10Z</time>
      </trkpt>
      <trkpt lat="46.14321" lon="2.4804">
        <ele>452</ele>
        <time>2015-04-10T15:18:12Z</time>
      </trkpt>
      <trkpt lat="46.14325" lon="2.48043">
        <ele>452</ele>
        <time>2015-04-10T15:18:15Z</time>
      </trkpt>
      <trkpt lat="46.14326" lon="2.48044">
        <ele>452</ele>
        <time>2015-04-10T15:18:17Z</time>
      </trkpt>
      <trkpt lat="46.14328" lon="2.48045">
        <ele>452</ele>
        <time>2015-04-10T15:18:19Z</time>
      </trkpt>
      <trkpt lat="46.1433" lon="2.48047">
        <ele>452</ele>
        <time>2015-04-10T15:18:21Z</time>
      </trkpt>
      <trkpt lat="46.14331" lon="2.4805">
        <ele>452</ele>
        <time>2015-04-10T15:18:23Z</time>
      </trkpt>
      <trkpt lat="46.14333" lon="2.48052">
        <ele>452</ele>
        <time>2015-04-10T15:18:25Z</time>
      </trkpt>
      <trkpt lat="46.14335" lon="2.48054">
        <ele>452</ele>
        <time>2015-04-10T15:18:27Z</time>
      </trkpt>
      <trkpt lat="46.14337" lon="2.48055">
        <ele>452</ele>
        <time>2015-04-10T15:18:29Z</time>
      </trkpt>
      <trkpt lat="46.14339" lon="2.48057">
        <ele>452</ele>
        <time>2015-04-10T15:18:31Z</time>
      </trkpt>
      <trkpt lat="46.14342" lon="2.48059">
        <ele>452</ele>
        <time>2015-04-10T15:18:33Z</time>
      </trkpt>
      <trkpt lat="46.14344" lon="2.4806">
        <ele>452</ele>
        <time>2015-04-10T15:18:35Z</time>
      </trkpt>
      <trkpt lat="46.14346" lon="2.48063">
        <ele>452</ele>
        <time>2015-04-10T15:18:37Z</time>
      </trkpt>
      <trkpt lat="46.14347" lon="2.48065">
        <ele>452</ele>
        <time>2015-04-10T15:18:39Z</time>
      </trkpt>
      <trkpt lat="46.14349" lon="2.48068">
        <ele>452</ele>
        <time>2015-04-10T15:18:41Z</time>
      </trkpt>
      <trkpt lat="46.14351" lon="2.4807">
        <ele>452</ele>
        <time>2015-04-10T15:18:43Z</time>
      </trkpt>
      <trkpt lat="46.14353" lon="2.48073">
        <ele>452</ele>
        <time>2015-04-10T15:18:45Z</time>
      </trkpt>
      <trkpt lat="46.14356" lon="2.48076">
        <ele>452</ele>
        <time>2015-04-10T15:18:47Z</time>
      </trkpt>
      <trkpt lat="46.14359" lon="2.48077">
        <ele>452</ele>
        <time>2015-04-10T15:18:49Z</time>
      </trkpt>
      <trkpt lat="46.14361" lon="2.48079">
        <ele>452</ele>
        <time>2015-04-10T15:18:51Z</time>
      </trkpt>
      <trkpt lat="46.14363" lon="2.48081">
        <ele>452</ele>
        <time>2015-04-10T15:18:53Z</time>
      </trkpt>
      <trkpt lat="46.14365" lon="2.48083">
        <ele>452</ele>
        <time>2015-04-10T15:18:55Z</time>
      </trkpt>
      <trkpt lat="46.14368" lon="2.48085">
        <ele>452</ele>
        <time>2015-04-10T15:18:57Z</time>
      </trkpt>
      <trkpt lat="46.14369" lon="2.48088">
        <ele>452</ele>
        <time>2015-04-10T15:18:59Z</time>
      </trkpt>
      <trkpt lat="46.14371" lon="2.4809">
        <ele>452</ele>
        <time>2015-04-10T15:19:01Z</time>
      </trkpt>
      <trkpt lat="46.14374" lon="2.48094">
        <ele>452</ele>
        <time>2015-04-10T15:19:04Z</time>
      </trkpt>
      <trkpt lat="46.14375" lon="2.48096">
        <ele>452</ele>
        <time>2015-04-10T15:19:06Z</time>
      </trkpt>
      <trkpt lat="46.14377" lon="2.48098">
        <ele>452</ele>
        <time>2015-04-10T15:19:08Z</time>
      </trkpt>
      <trkpt lat="46.14378" lon="2.481">
        <ele>452</ele>
        <time>2015-04-10T15:19:10Z</time>
      </trkpt>
      <trkpt lat="46.1438" lon="2.48103">
        <ele>452</ele>
        <time>2015-04-10T15:19:12Z</time>
      </trkpt>
      <trkpt lat="46.14382" lon="2.48106">
        <ele>452</ele>
        <time>2015-04-10T15:19:14Z</time>
      </trkpt>
      <trkpt lat="46.14383" lon="2.48108">
        <ele>452</ele>
        <time>2015-04-10T15:19:16Z</time>
      </trkpt>
      <trkpt lat="46.14385" lon="2.4811">
        <ele>452</ele>
        <time>2015-04-10T15:19:19Z</time>
      </trkpt>
      <trkpt lat="46.14387" lon="2.48111">
        <ele>452</ele>
        <time>2015-04-10T15:19:22Z</time>
      </trkpt>
      <trkpt lat="46.14389" lon="2.48113">
        <ele>453</ele>
        <time>2015-04-10T15:19:24Z</time>
      </trkpt>
      <trkpt lat="46.14391" lon="2.48114">
        <ele>453</ele>
        <time>2015-04-10T15:19:26Z</time>
      </trkpt>
      <trkpt lat="46.14394" lon="2.48116">
        <ele>453</ele>
        <time>2015-04-10T15:19:28Z</time>
      </trkpt>
      <trkpt lat="46.14397" lon="2.48118">
        <ele>454</ele>
        <time>2015-04-10T15:19:31Z</time>
      </trkpt>
      <trkpt lat="46.14401" lon="2.48121">
        <ele>454</ele>
        <time>2015-04-10T15:19:34Z</time>
      </trkpt>
      <trkpt lat="46.14403" lon="2.48123">
        <ele>454</ele>
        <time>2015-04-10T15:19:36Z</time>
      </trkpt>
      <trkpt lat="46.14405" lon="2.48124">
        <ele>454</ele>
        <time>2015-04-10T15:19:38Z</time>
      </trkpt>
      <trkpt lat="46.14408" lon="2.48125">
        <ele>455</ele>
        <time>2015-04-10T15:19:40Z</time>
      </trkpt>
      <trkpt lat="46.1441" lon="2.48126">
        <ele>455</ele>
        <time>2015-04-10T15:19:42Z</time>
      </trkpt>
      <trkpt lat="46.14412" lon="2.48127">
        <ele>456</ele>
        <time>2015-04-10T15:19:44Z</time>
      </trkpt>
      <trkpt lat="46.14414" lon="2.48129">
        <ele>456</ele>
        <time>2015-04-10T15:19:46Z</time>
      </trkpt>
      <trkpt lat="46.14416" lon="2.4813">
        <ele>457</ele>
        <time>2015-04-10T15:19:48Z</time>
      </trkpt>
      <trkpt lat="46.14418" lon="2.48131">
        <ele>457</ele>
        <time>2015-04-10T15:19:50Z</time>
      </trkpt>
      <trkpt lat="46.1442" lon="2.48132">
        <ele>457</ele>
        <time>2015-04-10T15:19:52Z</time>
      </trkpt>
      <trkpt lat="46.14422" lon="2.48133">
        <ele>458</ele>
        <time>2015-04-10T15:19:54Z</time>
      </trkpt>
      <trkpt lat="46.14424" lon="2.48135">
        <ele>458</ele>
        <time>2015-04-10T15:19:56Z</time>
      </trkpt>
      <trkpt lat="46.14425" lon="2.48136">
        <ele>459</ele>
        <time>2015-04-10T15:19:58Z</time>
      </trkpt>
      <trkpt lat="46.14426" lon="2.48138">
        <ele>459</ele>
        <time>2015-04-10T15:20:00Z</time>
      </trkpt>
      <trkpt lat="46.14428" lon="2.4814">
        <ele>460</ele>
        <time>2015-04-10T15:20:02Z</time>
      </trkpt>
      <trkpt lat="46.14429" lon="2.48142">
        <ele>460</ele>
        <time>2015-04-10T15:20:04Z</time>
      </trkpt>
      <trkpt lat="46.1443" lon="2.48144">
        <ele>461</ele>
        <time>2015-04-10T15:20:06Z</time>
      </trkpt>
      <trkpt lat="46.14432" lon="2.48145">
        <ele>461</ele>
        <time>2015-04-10T15:20:08Z</time>
      </trkpt>
      <trkpt lat="46.14433" lon="2.48147">
        <ele>462</ele>
        <time>2015-04-10T15:20:10Z</time>
      </trkpt>
      <trkpt lat="46.14435" lon="2.48149">
        <ele>462</ele>
        <time>2015-04-10T15:20:12Z</time>
      </trkpt>
      <trkpt lat="46.14436" lon="2.4815">
        <ele>462</ele>
        <time>2015-04-10T15:20:14Z</time>
      </trkpt>
      <trkpt lat="46.14438" lon="2.48151">
        <ele>463</ele>
        <time>2015-04-10T15:20:16Z</time>
      </trkpt>
      <trkpt lat="46.14439" lon="2.48152">
        <ele>463</ele>
        <time>2015-04-10T15:20:18Z</time>
      </trkpt>
      <trkpt lat="46.14441" lon="2.48153">
        <ele>464</ele>
        <time>2015-04-10T15:20:20Z</time>
      </trkpt>
      <trkpt lat="46.14443" lon="2.48156">
        <ele>465</ele>
        <time>2015-04-10T15:20:23Z</time>
      </trkpt>
      <trkpt lat="46.14445" lon="2.48157">
        <ele>465</ele>
        <time>2015-04-10T15:20:25Z</time>
      </trkpt>
      <trkpt lat="46.14447" lon="2.48159">
        <ele>465</ele>
        <time>2015-04-10T15:20:27Z</time>
      </trkpt>
      <trkpt lat="46.14449" lon="2.48161">
        <ele>465</ele>
        <time>2015-04-10T15:20:29Z</time>
      </trkpt>
      <trkpt lat="46.14451" lon="2.48162">
        <ele>466</ele>
        <time>2015-04-10T15:20:31Z</time>
      </trkpt>
      <trkpt lat="46.14452" lon="2.48164">
        <ele>467</ele>
        <time>2015-04-10T15:20:33Z</time>
      </trkpt>
      <trkpt lat="46.14453" lon="2.48165">
        <ele>467</ele>
        <time>2015-04-10T15:20:35Z</time>
      </trkpt>
      <trkpt lat="46.14454" lon="2.48167">
        <ele>468</ele>
        <time>2015-04-10T15:20:37Z</time>
      </trkpt>
      <trkpt lat="46.14456" lon="2.48169">
        <ele>468</ele>
        <time>2015-04-10T15:20:39Z</time>
      </trkpt>
      <trkpt lat="46.14458" lon="2.4817">
        <ele>469</ele>
        <time>2015-04-10T15:20:41Z</time>
      </trkpt>
      <trkpt lat="46.14459" lon="2.48171">
        <ele>469</ele>
        <time>2015-04-10T15:20:43Z</time>
      </trkpt>
      <trkpt lat="46.14461" lon="2.48172">
        <ele>469</ele>
        <time>2015-04-10T15:20:45Z</time>
      </trkpt>
      <trkpt lat="46.14463" lon="2.48173">
        <ele>470</ele>
        <time>2015-04-10T15:20:47Z</time>
      </trkpt>
      <trkpt lat="46.14464" lon="2.48175">
        <ele>470</ele>
        <time>2015-04-10T15:20:49Z</time>
      </trkpt>
      <trkpt lat="46.14466" lon="2.48177">
        <ele>470</ele>
        <time>2015-04-10T15:20:51Z</time>
      </trkpt>
      <trkpt lat="46.14468" lon="2.48178">
        <ele>471</ele>
        <time>2015-04-10T15:20:53Z</time>
      </trkpt>
      <trkpt lat="46.1447" lon="2.4818">
        <ele>471</ele>
        <time>2015-04-10T15:20:56Z</time>
      </trkpt>
      <trkpt lat="46.14472" lon="2.48181">
        <ele>471</ele>
        <time>2015-04-10T15:20:58Z</time>
      </trkpt>
      <trkpt lat="46.14475" lon="2.48183">
        <ele>472</ele>
        <time>2015-04-10T15:21:01Z</time>
      </trkpt>
      <trkpt lat="46.14476" lon="2.48184">
        <ele>472</ele>
        <time>2015-04-10T15:21:03Z</time>
      </trkpt>
      <trkpt lat="46.14479" lon="2.48185">
        <ele>472</ele>
        <time>2015-04-10T15:21:05Z</time>
      </trkpt>
      <trkpt lat="46.14481" lon="2.48186">
        <ele>472</ele>
        <time>2015-04-10T15:21:07Z</time>
      </trkpt>
      <trkpt lat="46.14483" lon="2.48188">
        <ele>472</ele>
        <time>2015-04-10T15:21:09Z</time>
      </trkpt>
      <trkpt lat="46.14485" lon="2.4819">
        <ele>472</ele>
        <time>2015-04-10T15:21:11Z</time>
      </trkpt>
      <trkpt lat="46.14487" lon="2.48191">
        <ele>473</ele>
        <time>2015-04-10T15:21:13Z</time>
      </trkpt>
      <trkpt lat="46.14489" lon="2.48192">
        <ele>473</ele>
        <time>2015-04-10T15:21:15Z</time>
      </trkpt>
      <trkpt lat="46.14491" lon="2.48193">
        <ele>473</ele>
        <time>2015-04-10T15:21:17Z</time>
      </trkpt>
      <trkpt lat="46.14494" lon="2.48195">
        <ele>473</ele>
        <time>2015-04-10T15:21:20Z</time>
      </trkpt>
      <trkpt lat="46.14496" lon="2.48196">
        <ele>473</ele>
        <time>2015-04-10T15:21:22Z</time>
      </trkpt>
      <trkpt lat="46.14499" lon="2.48197">
        <ele>474</ele>
        <time>2015-04-10T15:21:24Z</time>
      </trkpt>
      <trkpt lat="46.14501" lon="2.48199">
        <ele>474</ele>
        <time>2015-04-10T15:21:26Z</time>
      </trkpt>
      <trkpt lat="46.14505" lon="2.48202">
        <ele>475</ele>
        <time>2015-04-10T15:21:29Z</time>
      </trkpt>
      <trkpt lat="46.14508" lon="2.48205">
        <ele>475</ele>
        <time>2015-04-10T15:21:32Z</time>
      </trkpt>
      <trkpt lat="46.14511" lon="2.48207">
        <ele>475</ele>
        <time>2015-04-10T15:21:35Z</time>
      </trkpt>
      <trkpt lat="46.14515" lon="2.48209">
        <ele>475</ele>
        <time>2015-04-10T15:21:38Z</time>
      </trkpt>
      <trkpt lat="46.14517" lon="2.48211">
        <ele>475</ele>
        <time>2015-04-10T15:21:40Z</time>
      </trkpt>
      <trkpt lat="46.1452" lon="2.48213">
        <ele>475</ele>
        <time>2015-04-10T15:21:42Z</time>
      </trkpt>
      <trkpt lat="46.14521" lon="2.48215">
        <ele>475</ele>
        <time>2015-04-10T15:21:44Z</time>
      </trkpt>
      <trkpt lat="46.14523" lon="2.48217">
        <ele>475</ele>
        <time>2015-04-10T15:21:46Z</time>
      </trkpt>
      <trkpt lat="46.14525" lon="2.48219">
        <ele>475</ele>
        <time>2015-04-10T15:21:48Z</time>
      </trkpt>
      <trkpt lat="46.14526" lon="2.48221">
        <ele>475</ele>
        <time>2015-04-10T15:21:50Z</time>
      </trkpt>
      <trkpt lat="46.14529" lon="2.48223">
        <ele>475</ele>
        <time>2015-04-10T15:21:52Z</time>
      </trkpt>
      <trkpt lat="46.14531" lon="2.48225">
        <ele>475</ele>
        <time>2015-04-10T15:21:54Z</time>
      </trkpt>
      <trkpt lat="46.14533" lon="2.48227">
        <ele>476</ele>
        <time>2015-04-10T15:21:56Z</time>
      </trkpt>
      <trkpt lat="46.14535" lon="2.48229">
        <ele>476</ele>
        <time>2015-04-10T15:21:58Z</time>
      </trkpt>
      <trkpt lat="46.14537" lon="2.48231">
        <ele>477</ele>
        <time>2015-04-10T15:22:00Z</time>
      </trkpt>
      <trkpt lat="46.14539" lon="2.48233">
        <ele>477</ele>
        <time>2015-04-10T15:22:02Z</time>
      </trkpt>
      <trkpt lat="46.14542" lon="2.48236">
        <ele>477</ele>
        <time>2015-04-10T15:22:04Z</time>
      </trkpt>
      <trkpt lat="46.14544" lon="2.48237">
        <ele>477</ele>
        <time>2015-04-10T15:22:06Z</time>
      </trkpt>
      <trkpt lat="46.14547" lon="2.4824">
        <ele>477</ele>
        <time>2015-04-10T15:22:08Z</time>
      </trkpt>
      <trkpt lat="46.14549" lon="2.48242">
        <ele>478</ele>
        <time>2015-04-10T15:22:10Z</time>
      </trkpt>
      <trkpt lat="46.14552" lon="2.48245">
        <ele>478</ele>
        <time>2015-04-10T15:22:12Z</time>
      </trkpt>
      <trkpt lat="46.14555" lon="2.48247">
        <ele>478</ele>
        <time>2015-04-10T15:22:14Z</time>
      </trkpt>
      <trkpt lat="46.14558" lon="2.48249">
        <ele>478</ele>
        <time>2015-04-10T15:22:16Z</time>
      </trkpt>
      <trkpt lat="46.1456" lon="2.48251">
        <ele>478</ele>
        <time>2015-04-10T15:22:18Z</time>
      </trkpt>
      <trkpt lat="46.14563" lon="2.48253">
        <ele>478</ele>
        <time>2015-04-10T15:22:20Z</time>
      </trkpt>
      <trkpt lat="46.14566" lon="2.48256">
        <ele>478</ele>
        <time>2015-04-10T15:22:23Z</time>
      </trkpt>
      <trkpt lat="46.14569" lon="2.48257">
        <ele>478</ele>
        <time>2015-04-10T15:22:25Z</time>
      </trkpt>
      <trkpt lat="46.14572" lon="2.48259">
        <ele>478</ele>
        <time>2015-04-10T15:22:27Z</time>
      </trkpt>
      <trkpt lat="46.14575" lon="2.48263">
        <ele>478</ele>
        <time>2015-04-10T15:22:30Z</time>
      </trkpt>
      <trkpt lat="46.14577" lon="2.48264">
        <ele>478</ele>
        <time>2015-04-10T15:22:32Z</time>
      </trkpt>
      <trkpt lat="46.14579" lon="2.48266">
        <ele>478</ele>
        <time>2015-04-10T15:22:34Z</time>
      </trkpt>
      <trkpt lat="46.14582" lon="2.48267">
        <ele>478</ele>
        <time>2015-04-10T15:22:36Z</time>
      </trkpt>
      <trkpt lat="46.14584" lon="2.48269">
        <ele>478</ele>
        <time>2015-04-10T15:22:38Z</time>
      </trkpt>
      <trkpt lat="46.14586" lon="2.4827">
        <ele>478</ele>
        <time>2015-04-10T15:22:40Z</time>
      </trkpt>
      <trkpt lat="46.14589" lon="2.48272">
        <ele>478</ele>
        <time>2015-04-10T15:22:43Z</time>
      </trkpt>
      <trkpt lat="46.14592" lon="2.48273">
        <ele>478</ele>
        <time>2015-04-10T15:22:45Z</time>
      </trkpt>
      <trkpt lat="46.14594" lon="2.48274">
        <ele>478</ele>
        <time>2015-04-10T15:22:47Z</time>
      </trkpt>
      <trkpt lat="46.14596" lon="2.48277">
        <ele>478</ele>
        <time>2015-04-10T15:22:49Z</time>
      </trkpt>
      <trkpt lat="46.14598" lon="2.48278">
        <ele>478</ele>
        <time>2015-04-10T15:22:51Z</time>
      </trkpt>
      <trkpt lat="46.14601" lon="2.48281">
        <ele>478</ele>
        <time>2015-04-10T15:22:53Z</time>
      </trkpt>
      <trkpt lat="46.14604" lon="2.48284">
        <ele>478</ele>
        <time>2015-04-10T15:22:55Z</time>
      </trkpt>
      <trkpt lat="46.14606" lon="2.48285">
        <ele>478</ele>
        <time>2015-04-10T15:22:57Z</time>
      </trkpt>
      <trkpt lat="46.14609" lon="2.48285">
        <ele>478</ele>
        <time>2015-04-10T15:22:59Z</time>
      </trkpt>
      <trkpt lat="46.14613" lon="2.48286">
        <ele>478</ele>
        <time>2015-04-10T15:23:02Z</time>
      </trkpt>
      <trkpt lat="46.14616" lon="2.48287">
        <ele>479</ele>
        <time>2015-04-10T15:23:04Z</time>
      </trkpt>
      <trkpt lat="46.14618" lon="2.48288">
        <ele>479</ele>
        <time>2015-04-10T15:23:06Z</time>
      </trkpt>
      <trkpt lat="46.14621" lon="2.48288">
        <ele>479</ele>
        <time>2015-04-10T15:23:08Z</time>
      </trkpt>
      <trkpt lat="46.14623" lon="2.48289">
        <ele>479</ele>
        <time>2015-04-10T15:23:10Z</time>
      </trkpt>
      <trkpt lat="46.14626" lon="2.4829">
        <ele>480</ele>
        <time>2015-04-10T15:23:12Z</time>
      </trkpt>
      <trkpt lat="46.14629" lon="2.4829">
        <ele>480</ele>
        <time>2015-04-10T15:23:14Z</time>
      </trkpt>
      <trkpt lat="46.14632" lon="2.48291">
        <ele>480</ele>
        <time>2015-04-10T15:23:16Z</time>
      </trkpt>
      <trkpt lat="46.14635" lon="2.48291">
        <ele>481</ele>
        <time>2015-04-10T15:23:18Z</time>
      </trkpt>
      <trkpt lat="46.14637" lon="2.48292">
        <ele>481</ele>
        <time>2015-04-10T15:23:20Z</time>
      </trkpt>
      <trkpt lat="46.14639" lon="2.48292">
        <ele>482</ele>
        <time>2015-04-10T15:23:22Z</time>
      </trkpt>
      <trkpt lat="46.14641" lon="2.48292">
        <ele>482</ele>
        <time>2015-04-10T15:23:24Z</time>
      </trkpt>
      <trkpt lat="46.14644" lon="2.48292">
        <ele>482</ele>
        <time>2015-04-10T15:23:26Z</time>
      </trkpt>
      <trkpt lat="46.14646" lon="2.48292">
        <ele>482</ele>
        <time>2015-04-10T15:23:28Z</time>
      </trkpt>
      <trkpt lat="46.14648" lon="2.48292">
        <ele>482</ele>
        <time>2015-04-10T15:23:30Z</time>
      </trkpt>
      <trkpt lat="46.14651" lon="2.48291">
        <ele>482</ele>
        <time>2015-04-10T15:23:32Z</time>
      </trkpt>
      <trkpt lat="46.14654" lon="2.4829">
        <ele>483</ele>
        <time>2015-04-10T15:23:34Z</time>
      </trkpt>
      <trkpt lat="46.14657" lon="2.4829">
        <ele>483</ele>
        <time>2015-04-10T15:23:36Z</time>
      </trkpt>
      <trkpt lat="46.1466" lon="2.48289">
        <ele>484</ele>
        <time>2015-04-10T15:23:38Z</time>
      </trkpt>
      <trkpt lat="46.14662" lon="2.48288">
        <ele>484</ele>
        <time>2015-04-10T15:23:40Z</time>
      </trkpt>
      <trkpt lat="46.14664" lon="2.48287">
        <ele>485</ele>
        <time>2015-04-10T15:23:42Z</time>
      </trkpt>
      <trkpt lat="46.14667" lon="2.48286">
        <ele>485</ele>
        <time>2015-04-10T15:23:44Z</time>
      </trkpt>
      <trkpt lat="46.1467" lon="2.48285">
        <ele>485</ele>
        <time>2015-04-10T15:23:46Z</time>
      </trkpt>
      <trkpt lat="46.14673" lon="2.48284">
        <ele>485</ele>
        <time>2015-04-10T15:23:48Z</time>
      </trkpt>
      <trkpt lat="46.14676" lon="2.48283">
        <ele>485</ele>
        <time>2015-04-10T15:23:50Z</time>
      </trkpt>
      <trkpt lat="46.14679" lon="2.48282">
        <ele>486</ele>
        <time>2015-04-10T15:23:52Z</time>
      </trkpt>
      <trkpt lat="46.14681" lon="2.48282">
        <ele>486</ele>
        <time>2015-04-10T15:23:54Z</time>
      </trkpt>
      <trkpt lat="46.14684" lon="2.48281">
        <ele>486</ele>
        <time>2015-04-10T15:23:56Z</time>
      </trkpt>
      <trkpt lat="46.14686" lon="2.4828">
        <ele>486</ele>
        <time>2015-04-10T15:23:58Z</time>
      </trkpt>
      <trkpt lat="46.14689" lon="2.48279">
        <ele>486</ele>
        <time>2015-04-10T15:24:00Z</time>
      </trkpt>
      <trkpt lat="46.14692" lon="2.48279">
        <ele>486</ele>
        <time>2015-04-10T15:24:02Z</time>
      </trkpt>
      <trkpt lat="46.14694" lon="2.48279">
        <ele>486</ele>
        <time>2015-04-10T15:24:04Z</time>
      </trkpt>
      <trkpt lat="46.14696" lon="2.48278">
        <ele>486</ele>
        <time>2015-04-10T15:24:06Z</time>
      </trkpt>
      <trkpt lat="46.14699" lon="2.48278">
        <ele>486</ele>
        <time>2015-04-10T15:24:08Z</time>
      </trkpt>
      <trkpt lat="46.14703" lon="2.48278">
        <ele>486</ele>
        <time>2015-04-10T15:24:10Z</time>
      </trkpt>
      <trkpt lat="46.14706" lon="2.48277">
        <ele>486</ele>
        <time>2015-04-10T15:24:12Z</time>
      </trkpt>
      <trkpt lat="46.14709" lon="2.48276">
        <ele>486</ele>
        <time>2015-04-10T15:24:14Z</time>
      </trkpt>
      <trkpt lat="46.14712" lon="2.48276">
        <ele>487</ele>
        <time>2015-04-10T15:24:16Z</time>
      </trkpt>
      <trkpt lat="46.14715" lon="2.48276">
        <ele>487</ele>
        <time>2015-04-10T15:24:18Z</time>
      </trkpt>
      <trkpt lat="46.14719" lon="2.48276">
        <ele>487</ele>
        <time>2015-04-10T15:24:20Z</time>
      </trkpt>
      <trkpt lat="46.14721" lon="2.48276">
        <ele>487</ele>
        <time>2015-04-10T15:24:22Z</time>
      </trkpt>
      <trkpt lat="46.14724" lon="2.48276">
        <ele>487</ele>
        <time>2015-04-10T15:24:24Z</time>
      </trkpt>
      <trkpt lat="46.14726" lon="2.48277">
        <ele>487</ele>
        <time>2015-04-10T15:24:26Z</time>
      </trkpt>
      <trkpt lat="46.14729" lon="2.48276">
        <ele>487</ele>
        <time>2015-04-10T15:24:28Z</time>
      </trkpt>
      <trkpt lat="46.14732" lon="2.48277">
        <ele>487</ele>
        <time>2015-04-10T15:24:30Z</time>
      </trkpt>
      <trkpt lat="46.14736" lon="2.48277">
        <ele>487</ele>
        <time>2015-04-10T15:24:32Z</time>
      </trkpt>
      <trkpt lat="46.14739" lon="2.48278">
        <ele>487</ele>
        <time>2015-04-10T15:24:34Z</time>
      </trkpt>
      <trkpt lat="46.14741" lon="2.48278">
        <ele>487</ele>
        <time>2015-04-10T15:24:36Z</time>
      </trkpt>
      <trkpt lat="46.14744" lon="2.48278">
        <ele>487</ele>
        <time>2015-04-10T15:24:38Z</time>
      </trkpt>
      <trkpt lat="46.14746" lon="2.48278">
        <ele>487</ele>
        <time>2015-04-10T15:24:40Z</time>
      </trkpt>
      <trkpt lat="46.14749" lon="2.48277">
        <ele>487</ele>
        <time>2015-04-10T15:24:42Z</time>
      </trkpt>
      <trkpt lat="46.14752" lon="2.48277">
        <ele>487</ele>
        <time>2015-04-10T15:24:44Z</time>
      </trkpt>
      <trkpt lat="46.14756" lon="2.48278">
        <ele>487</ele>
        <time>2015-04-10T15:24:46Z</time>
      </trkpt>
      <trkpt lat="46.14759" lon="2.48278">
        <ele>487</ele>
        <time>2015-04-10T15:24:48Z</time>
      </trkpt>
      <trkpt lat="46.14761" lon="2.48279">
        <ele>487</ele>
        <time>2015-04-10T15:24:50Z</time>
      </trkpt>
      <trkpt lat="46.14764" lon="2.4828">
        <ele>487</ele>
        <time>2015-04-10T15:24:52Z</time>
      </trkpt>
      <trkpt lat="46.14767" lon="2.4828">
        <ele>487</ele>
        <time>2015-04-10T15:24:54Z</time>
      </trkpt>
      <trkpt lat="46.1477" lon="2.48281">
        <ele>487</ele>
        <time>2015-04-10T15:24:56Z</time>
      </trkpt>
      <trkpt lat="46.14773" lon="2.48282">
        <ele>487</ele>
        <time>2015-04-10T15:24:58Z</time>
      </trkpt>
      <trkpt lat="46.14776" lon="2.48283">
        <ele>487</ele>
        <time>2015-04-10T15:25:00Z</time>
      </trkpt>
      <trkpt lat="46.14779" lon="2.48283">
        <ele>487</ele>
        <time>2015-04-10T15:25:02Z</time>
      </trkpt>
      <trkpt lat="46.14782" lon="2.48284">
        <ele>487</ele>
        <time>2015-04-10T15:25:04Z</time>
      </trkpt>
      <trkpt lat="46.14785" lon="2.48284">
        <ele>487</ele>
        <time>2015-04-10T15:25:06Z</time>
      </trkpt>
      <trkpt lat="46.14788" lon="2.48285">
        <ele>487</ele>
        <time>2015-04-10T15:25:08Z</time>
      </trkpt>
      <trkpt lat="46.14791" lon="2.48286">
        <ele>487</ele>
        <time>2015-04-10T15:25:10Z</time>
      </trkpt>
      <trkpt lat="46.14794" lon="2.48287">
        <ele>487</ele>
        <time>2015-04-10T15:25:12Z</time>
      </trkpt>
      <trkpt lat="46.14798" lon="2.48287">
        <ele>487</ele>
        <time>2015-04-10T15:25:14Z</time>
      </trkpt>
      <trkpt lat="46.14801" lon="2.48288">
        <ele>487</ele>
        <time>2015-04-10T15:25:16Z</time>
      </trkpt>
      <trkpt lat="46.14803" lon="2.48289">
        <ele>487</ele>
        <time>2015-04-10T15:25:18Z</time>
      </trkpt>
      <trkpt lat="46.14807" lon="2.48289">
        <ele>487</ele>
        <time>2015-04-10T15:25:20Z</time>
      </trkpt>
      <trkpt lat="46.14811" lon="2.4829">
        <ele>487</ele>
        <time>2015-04-10T15:25:22Z</time>
      </trkpt>
      <trkpt lat="46.14814" lon="2.48291">
        <ele>487</ele>
        <time>2015-04-10T15:25:24Z</time>
      </trkpt>
      <trkpt lat="46.14817" lon="2.48292">
        <ele>487</ele>
        <time>2015-04-10T15:25:26Z</time>
      </trkpt>
      <trkpt lat="46.1482" lon="2.48294">
        <ele>487</ele>
        <time>2015-04-10T15:25:28Z</time>
      </trkpt>
      <trkpt lat="46.14823" lon="2.48295">
        <ele>487</ele>
        <time>2015-04-10T15:25:30Z</time>
      </trkpt>
      <trkpt lat="46.14827" lon="2.48297">
        <ele>487</ele>
        <time>2015-04-10T15:25:32Z</time>
      </trkpt>
      <trkpt lat="46.14829" lon="2.48298">
        <ele>488</ele>
        <time>2015-04-10T15:25:34Z</time>
      </trkpt>
      <trkpt lat="46.14832" lon="2.48298">
        <ele>488</ele>
        <time>2015-04-10T15:25:36Z</time>
      </trkpt>
      <trkpt lat="46.14835" lon="2.48298">
        <ele>489</ele>
        <time>2015-04-10T15:25:38Z</time>
      </trkpt>
      <trkpt lat="46.14837" lon="2.48298">
        <ele>489</ele>
        <time>2015-04-10T15:25:40Z</time>
      </trkpt>
      <trkpt lat="46.1484" lon="2.48298">
        <ele>489</ele>
        <time>2015-04-10T15:25:42Z</time>
      </trkpt>
      <trkpt lat="46.14843" lon="2.48297">
        <ele>489</ele>
        <time>2015-04-10T15:25:44Z</time>
      </trkpt>
      <trkpt lat="46.14846" lon="2.48296">
        <ele>489</ele>
        <time>2015-04-10T15:25:46Z</time>
      </trkpt>
      <trkpt lat="46.14848" lon="2.48296">
        <ele>489</ele>
        <time>2015-04-10T15:25:48Z</time>
      </trkpt>
      <trkpt lat="46.14851" lon="2.48295">
        <ele>489</ele>
        <time>2015-04-10T15:25:50Z</time>
      </trkpt>
      <trkpt lat="46.14854" lon="2.48294">
        <ele>489</ele>
        <time>2015-04-10T15:25:52Z</time>
      </trkpt>
      <trkpt lat="46.14856" lon="2.48292">
        <ele>489</ele>
        <time>2015-04-10T15:25:54Z</time>
      </trkpt>
      <trkpt lat="46.14859" lon="2.4829">
        <ele>489</ele>
        <time>2015-04-10T15:25:56Z</time>
      </trkpt>
      <trkpt lat="46.14862" lon="2.48288">
        <ele>490</ele>
        <time>2015-04-10T15:25:58Z</time>
      </trkpt>
      <trkpt lat="46.14865" lon="2.48284">
        <ele>490</ele>
        <time>2015-04-10T15:26:01Z</time>
      </trkpt>
      <trkpt lat="46.14867" lon="2.4828">
        <ele>490</ele>
        <time>2015-04-10T15:26:03Z</time>
      </trkpt>
      <trkpt lat="46.14869" lon="2.48277">
        <ele>490</ele>
        <time>2015-04-10T15:26:05Z</time>
      </trkpt>
      <trkpt lat="46.14871" lon="2.48274">
        <ele>490</ele>
        <time>2015-04-10T15:26:07Z</time>
      </trkpt>
      <trkpt lat="46.14873" lon="2.48271">
        <ele>490</ele>
        <time>2015-04-10T15:26:09Z</time>
      </trkpt>
      <trkpt lat="46.14875" lon="2.48267">
        <ele>490</ele>
        <time>2015-04-10T15:26:11Z</time>
      </trkpt>
      <trkpt lat="46.14878" lon="2.48263">
        <ele>490</ele>
        <time>2015-04-10T15:26:14Z</time>
      </trkpt>
      <trkpt lat="46.1488" lon="2.48259">
        <ele>490</ele>
        <time>2015-04-10T15:26:16Z</time>
      </trkpt>
      <trkpt lat="46.14882" lon="2.48256">
        <ele>490</ele>
        <time>2015-04-10T15:26:18Z</time>
      </trkpt>
      <trkpt lat="46.14884" lon="2.48253">
        <ele>490</ele>
        <time>2015-04-10T15:26:20Z</time>
      </trkpt>
      <trkpt lat="46.14886" lon="2.48249">
        <ele>490</ele>
        <time>2015-04-10T15:26:22Z</time>
      </trkpt>
      <trkpt lat="46.14888" lon="2.48246">
        <ele>490</ele>
        <time>2015-04-10T15:26:24Z</time>
      </trkpt>
      <trkpt lat="46.1489" lon="2.48243">
        <ele>490</ele>
        <time>2015-04-10T15:26:26Z</time>
      </trkpt>
      <trkpt lat="46.14892" lon="2.4824">
        <ele>490</ele>
        <time>2015-04-10T15:26:28Z</time>
      </trkpt>
      <trkpt lat="46.14894" lon="2.48237">
        <ele>490</ele>
        <time>2015-04-10T15:26:30Z</time>
      </trkpt>
      <trkpt lat="46.14896" lon="2.48233">
        <ele>490</ele>
        <time>2015-04-10T15:26:32Z</time>
      </trkpt>
      <trkpt lat="46.14898" lon="2.4823">
        <ele>490</ele>
        <time>2015-04-10T15:26:34Z</time>
      </trkpt>
      <trkpt lat="46.149" lon="2.48227">
        <ele>490</ele>
        <time>2015-04-10T15:26:36Z</time>
      </trkpt>
      <trkpt lat="46.14902" lon="2.48224">
        <ele>490</ele>
        <time>2015-04-10T15:26:38Z</time>
      </trkpt>
      <trkpt lat="46.14905" lon="2.4822">
        <ele>490</ele>
        <time>2015-04-10T15:26:40Z</time>
      </trkpt>
      <trkpt lat="46.14907" lon="2.48217">
        <ele>490</ele>
        <time>2015-04-10T15:26:42Z</time>
      </trkpt>
      <trkpt lat="46.14909" lon="2.48214">
        <ele>490</ele>
        <time>2015-04-10T15:26:44Z</time>
      </trkpt>
      <trkpt lat="46.14911" lon="2.48211">
        <ele>490</ele>
        <time>2015-04-10T15:26:46Z</time>
      </trkpt>
      <trkpt lat="46.14913" lon="2.48208">
        <ele>490</ele>
        <time>2015-04-10T15:26:48Z</time>
      </trkpt>
      <trkpt lat="46.14915" lon="2.48204">
        <ele>490</ele>
        <time>2015-04-10T15:26:50Z</time>
      </trkpt>
      <trkpt lat="46.14917" lon="2.48202">
        <ele>490</ele>
        <time>2015-04-10T15:26:52Z</time>
      </trkpt>
      <trkpt lat="46.1492" lon="2.48198">
        <ele>490</ele>
        <time>2015-04-10T15:26:54Z</time>
      </trkpt>
      <trkpt lat="46.14922" lon="2.48195">
        <ele>490</ele>
        <time>2015-04-10T15:26:56Z</time>
      </trkpt>
      <trkpt lat="46.14924" lon="2.48192">
        <ele>490</ele>
        <time>2015-04-10T15:26:58Z</time>
      </trkpt>
      <trkpt lat="46.14926" lon="2.48189">
        <ele>490</ele>
        <time>2015-04-10T15:27:00Z</time>
      </trkpt>
      <trkpt lat="46.14929" lon="2.48186">
        <ele>490</ele>
        <time>2015-04-10T15:27:02Z</time>
      </trkpt>
      <trkpt lat="46.14931" lon="2.48183">
        <ele>490</ele>
        <time>2015-04-10T15:27:04Z</time>
      </trkpt>
      <trkpt lat="46.14933" lon="2.4818">
        <ele>490</ele>
        <time>2015-04-10T15:27:06Z</time>
      </trkpt>
      <trkpt lat="46.14935" lon="2.48177">
        <ele>490</ele>
        <time>2015-04-10T15:27:08Z</time>
      </trkpt>
      <trkpt lat="46.14938" lon="2.48174">
        <ele>490</ele>
        <time>2015-04-10T15:27:10Z</time>
      </trkpt>
      <trkpt lat="46.1494" lon="2.48171">
        <ele>490</ele>
        <time>2015-04-10T15:27:12Z</time>
      </trkpt>
      <trkpt lat="46.14942" lon="2.48168">
        <ele>490</ele>
        <time>2015-04-10T15:27:14Z</time>
      </trkpt>
      <trkpt lat="46.14944" lon="2.48166">
        <ele>490</ele>
        <time>2015-04-10T15:27:16Z</time>
      </trkpt>
      <trkpt lat="46.14947" lon="2.48163">
        <ele>490</ele>
        <time>2015-04-10T15:27:18Z</time>
      </trkpt>
      <trkpt lat="46.14949" lon="2.4816">
        <ele>490</ele>
        <time>2015-04-10T15:27:20Z</time>
      </trkpt>
      <trkpt lat="46.14952" lon="2.48157">
        <ele>490</ele>
        <time>2015-04-10T15:27:22Z</time>
      </trkpt>
      <trkpt lat="46.14954" lon="2.48154">
        <ele>490</ele>
        <time>2015-04-10T15:27:24Z</time>
      </trkpt>
      <trkpt lat="46.14956" lon="2.48152">
        <ele>490</ele>
        <time>2015-04-10T15:27:26Z</time>
      </trkpt>
      <trkpt lat="46.14959" lon="2.48149">
        <ele>490</ele>
        <time>2015-04-10T15:27:28Z</time>
      </trkpt>
      <trkpt lat="46.14961" lon="2.48146">
        <ele>490</ele>
        <time>2015-04-10T15:27:30Z</time>
      </trkpt>
      <trkpt lat="46.14964" lon="2.48143">
        <ele>490</ele>
        <time>2015-04-10T15:27:32Z</time>
      </trkpt>
      <trkpt lat="46.14966" lon="2.4814">
        <ele>490</ele>
        <time>2015-04-10T15:27:34Z</time>
      </trkpt>
      <trkpt lat="46.14968" lon="2.48137">
        <ele>490</ele>
        <time>2015-04-10T15:27:36Z</time>
      </trkpt>
      <trkpt lat="46.1497" lon="2.48134">
        <ele>490</ele>
        <time>2015-04-10T15:27:38Z</time>
      </trkpt>
      <trkpt lat="46.14972" lon="2.4813">
        <ele>490</ele>
        <time>2015-04-10T15:27:40Z</time>
      </trkpt>
      <trkpt lat="46.14974" lon="2.48127">
        <ele>490</ele>
        <time>2015-04-10T15:27:42Z</time>
      </trkpt>
      <trkpt lat="46.14976" lon="2.48124">
        <ele>490</ele>
        <time>2015-04-10T15:27:44Z</time>
      </trkpt>
      <trkpt lat="46.14978" lon="2.4812">
        <ele>490</ele>
        <time>2015-04-10T15:27:46Z</time>
      </trkpt>
      <trkpt lat="46.1498" lon="2.48117">
        <ele>490</ele>
        <time>2015-04-10T15:27:48Z</time>
      </trkpt>
      <trkpt lat="46.14982" lon="2.48114">
        <ele>490</ele>
        <time>2015-04-10T15:27:50Z</time>
      </trkpt>
      <trkpt lat="46.14984" lon="2.48111">
        <ele>490</ele>
        <time>2015-04-10T15:27:52Z</time>
      </trkpt>
      <trkpt lat="46.14986" lon="2.48107">
        <ele>490</ele>
        <time>2015-04-10T15:27:54Z</time>
      </trkpt>
      <trkpt lat="46.14988" lon="2.48104">
        <ele>490</ele>
        <time>2015-04-10T15:27:56Z</time>
      </trkpt>
      <trkpt lat="46.1499" lon="2.481">
        <ele>490</ele>
        <time>2015-04-10T15:27:58Z</time>
      </trkpt>
      <trkpt lat="46.14992" lon="2.48096">
        <ele>490</ele>
        <time>2015-04-10T15:28:00Z</time>
      </trkpt>
      <trkpt lat="46.14994" lon="2.48093">
        <ele>490</ele>
        <time>2015-04-10T15:28:02Z</time>
      </trkpt>
      <trkpt lat="46.14996" lon="2.4809">
        <ele>490</ele>
        <time>2015-04-10T15:28:04Z</time>
      </trkpt>
      <trkpt lat="46.14998" lon="2.48086">
        <ele>490</ele>
        <time>2015-04-10T15:28:06Z</time>
      </trkpt>
      <trkpt lat="46.14999" lon="2.48082">
        <ele>490</ele>
        <time>2015-04-10T15:28:08Z</time>
      </trkpt>
      <trkpt lat="46.15001" lon="2.48078">
        <ele>490</ele>
        <time>2015-04-10T15:28:10Z</time>
      </trkpt>
      <trkpt lat="46.15003" lon="2.48074">
        <ele>490</ele>
        <time>2015-04-10T15:28:12Z</time>
      </trkpt>
      <trkpt lat="46.15004" lon="2.4807">
        <ele>490</ele>
        <time>2015-04-10T15:28:14Z</time>
      </trkpt>
      <trkpt lat="46.15006" lon="2.48066">
        <ele>490</ele>
        <time>2015-04-10T15:28:16Z</time>
      </trkpt>
      <trkpt lat="46.15007" lon="2.48062">
        <ele>490</ele>
        <time>2015-04-10T15:28:18Z</time>
      </trkpt>
      <trkpt lat="46.15009" lon="2.48058">
        <ele>490</ele>
        <time>2015-04-10T15:28:20Z</time>
      </trkpt>
      <trkpt lat="46.1501" lon="2.48054">
        <ele>490</ele>
        <time>2015-04-10T15:28:22Z</time>
      </trkpt>
      <trkpt lat="46.15011" lon="2.4805">
        <ele>490</ele>
        <time>2015-04-10T15:28:24Z</time>
      </trkpt>
      <trkpt lat="46.15013" lon="2.48046">
        <ele>490</ele>
        <time>2015-04-10T15:28:26Z</time>
      </trkpt>
      <trkpt lat="46.15014" lon="2.48042">
        <ele>490</ele>
        <time>2015-04-10T15:28:28Z</time>
      </trkpt>
      <trkpt lat="46.15015" lon="2.48038">
        <ele>490</ele>
        <time>2015-04-10T15:28:30Z</time>
      </trkpt>
      <trkpt lat="46.15017" lon="2.48034">
        <ele>490</ele>
        <time>2015-04-10T15:28:32Z</time>
      </trkpt>
      <trkpt lat="46.15018" lon="2.4803">
        <ele>490</ele>
        <time>2015-04-10T15:28:34Z</time>
      </trkpt>
      <trkpt lat="46.15019" lon="2.48026">
        <ele>490</ele>
        <time>2015-04-10T15:28:36Z</time>
      </trkpt>
      <trkpt lat="46.1502" lon="2.48022">
        <ele>490</ele>
        <time>2015-04-10T15:28:38Z</time>
      </trkpt>
      <trkpt lat="46.15022" lon="2.48018">
        <ele>490</ele>
        <time>2015-04-10T15:28:40Z</time>
      </trkpt>
      <trkpt lat="46.15023" lon="2.48014">
        <ele>490</ele>
        <time>2015-04-10T15:28:42Z</time>
      </trkpt>
      <trkpt lat="46.15024" lon="2.4801">
        <ele>490</ele>
        <time>2015-04-10T15:28:44Z</time>
      </trkpt>
      <trkpt lat="46.15025" lon="2.48006">
        <ele>490</ele>
        <time>2015-04-10T15:28:46Z</time>
      </trkpt>
      <trkpt lat="46.15026" lon="2.48002">
        <ele>490</ele>
        <time>2015-04-10T15:28:48Z</time>
      </trkpt>
      <trkpt lat="46.15028" lon="2.47997">
        <ele>490</ele>
        <time>2015-04-10T15:28:50Z</time>
      </trkpt>
      <trkpt lat="46.15029" lon="2.47993">
        <ele>490</ele>
        <time>2015-04-10T15:28:52Z</time>
      </trkpt>
      <trkpt lat="46.1503" lon="2.47989">
        <ele>490</ele>
        <time>2015-04-10T15:28:54Z</time>
      </trkpt>
      <trkpt lat="46.15032" lon="2.47985">
        <ele>490</ele>
        <time>2015-04-10T15:28:56Z</time>
      </trkpt>
      <trkpt lat="46.15033" lon="2.47981">
        <ele>490</ele>
        <time>2015-04-10T15:28:58Z</time>
      </trkpt>
      <trkpt lat="46.15034" lon="2.47977">
        <ele>490</ele>
        <time>2015-04-10T15:29:00Z</time>
      </trkpt>
      <trkpt lat="46.15036" lon="2.47973">
        <ele>490</ele>
        <time>2015-04-10T15:29:02Z</time>
      </trkpt>
      <trkpt lat="46.15037" lon="2.47969">
        <ele>490</ele>
        <time>2015-04-10T15:29:04Z</time>
      </trkpt>
      <trkpt lat="46.15038" lon="2.47965">
        <ele>490</ele>
        <time>2015-04-10T15:29:06Z</time>
      </trkpt>
      <trkpt lat="46.15039" lon="2.4796">
        <ele>490</ele>
        <time>2015-04-10T15:29:08Z</time>
      </trkpt>
      <trkpt lat="46.15041" lon="2.47956">
        <ele>490</ele>
        <time>2015-04-10T15:29:10Z</time>
      </trkpt>
      <trkpt lat="46.15042" lon="2.47953">
        <ele>490</ele>
        <time>2015-04-10T15:29:12Z</time>
      </trkpt>
      <trkpt lat="46.15043" lon="2.47949">
        <ele>490</ele>
        <time>2015-04-10T15:29:14Z</time>
      </trkpt>
      <trkpt lat="46.15045" lon="2.47945">
        <ele>490</ele>
        <time>2015-04-10T15:29:16Z</time>
      </trkpt>
      <trkpt lat="46.15046" lon="2.47941">
        <ele>490</ele>
        <time>2015-04-10T15:29:18Z</time>
      </trkpt>
      <trkpt lat="46.15047" lon="2.47937">
        <ele>490</ele>
        <time>2015-04-10T15:29:20Z</time>
      </trkpt>
      <trkpt lat="46.15048" lon="2.47933">
        <ele>490</ele>
        <time>2015-04-10T15:29:22Z</time>
      </trkpt>
      <trkpt lat="46.15049" lon="2.47929">
        <ele>490</ele>
        <time>2015-04-10T15:29:24Z</time>
      </trkpt>
      <trkpt lat="46.15051" lon="2.47925">
        <ele>490</ele>
        <time>2015-04-10T15:29:26Z</time>
      </trkpt>
      <trkpt lat="46.15052" lon="2.47921">
        <ele>490</ele>
        <time>2015-04-10T15:29:28Z</time>
      </trkpt>
      <trkpt lat="46.15053" lon="2.47917">
        <ele>490</ele>
        <time>2015-04-10T15:29:30Z</time>
      </trkpt>
      <trkpt lat="46.15054" lon="2.47913">
        <ele>490</ele>
        <time>2015-04-10T15:29:32Z</time>
      </trkpt>
      <trkpt lat="46.15055" lon="2.47909">
        <ele>490</ele>
        <time>2015-04-10T15:29:34Z</time>
      </trkpt>
      <trkpt lat="46.15057" lon="2.47905">
        <ele>490</ele>
        <time>2015-04-10T15:29:36Z</time>
      </trkpt>
      <trkpt lat="46.15059" lon="2.47901">
        <ele>490</ele>
        <time>2015-04-10T15:29:38Z</time>
      </trkpt>
      <trkpt lat="46.1506" lon="2.47897">
        <ele>490</ele>
        <time>2015-04-10T15:29:40Z</time>
      </trkpt>
      <trkpt lat="46.15062" lon="2.47893">
        <ele>490</ele>
        <time>2015-04-10T15:29:42Z</time>
      </trkpt>
      <trkpt lat="46.15063" lon="2.47889">
        <ele>490</ele>
        <time>2015-04-10T15:29:44Z</time>
      </trkpt>
      <trkpt lat="46.15065" lon="2.47886">
        <ele>490</ele>
        <time>2015-04-10T15:29:46Z</time>
      </trkpt>
      <trkpt lat="46.15067" lon="2.47882">
        <ele>490</ele>
        <time>2015-04-10T15:29:48Z</time>
      </trkpt>
      <trkpt lat="46.15068" lon="2.47879">
        <ele>490</ele>
        <time>2015-04-10T15:29:50Z</time>
      </trkpt>
      <trkpt lat="46.1507" lon="2.47875">
        <ele>490</ele>
        <time>2015-04-10T15:29:52Z</time>
      </trkpt>
      <trkpt lat="46.15072" lon="2.47871">
        <ele>490</ele>
        <time>2015-04-10T15:29:54Z</time>
      </trkpt>
      <trkpt lat="46.15074" lon="2.47868">
        <ele>490</ele>
        <time>2015-04-10T15:29:56Z</time>
      </trkpt>
      <trkpt lat="46.15076" lon="2.47866">
        <ele>490</ele>
        <time>2015-04-10T15:29:58Z</time>
      </trkpt>
      <trkpt lat="46.15079" lon="2.47864">
        <ele>490</ele>
        <time>2015-04-10T15:30:00Z</time>
      </trkpt>
      <trkpt lat="46.15081" lon="2.47862">
        <ele>490</ele>
        <time>2015-04-10T15:30:02Z</time>
      </trkpt>
      <trkpt lat="46.15084" lon="2.47863">
        <ele>490</ele>
        <time>2015-04-10T15:30:04Z</time>
      </trkpt>
      <trkpt lat="46.15088" lon="2.47865">
        <ele>490</ele>
        <time>2015-04-10T15:30:06Z</time>
      </trkpt>
      <trkpt lat="46.15091" lon="2.47866">
        <ele>490</ele>
        <time>2015-04-10T15:30:08Z</time>
      </trkpt>
      <trkpt lat="46.15094" lon="2.47867">
        <ele>490</ele>
        <time>2015-04-10T15:30:10Z</time>
      </trkpt>
      <trkpt lat="46.15097" lon="2.47869">
        <ele>490</ele>
        <time>2015-04-10T15:30:12Z</time>
      </trkpt>
      <trkpt lat="46.151" lon="2.4787">
        <ele>490</ele>
        <time>2015-04-10T15:30:14Z</time>
      </trkpt>
      <trkpt lat="46.15103" lon="2.47871">
        <ele>490</ele>
        <time>2015-04-10T15:30:16Z</time>
      </trkpt>
      <trkpt lat="46.15106" lon="2.47872">
        <ele>490</ele>
        <time>2015-04-10T15:30:18Z</time>
      </trkpt>
      <trkpt lat="46.15109" lon="2.47873">
        <ele>490</ele>
        <time>2015-04-10T15:30:20Z</time>
      </trkpt>
      <trkpt lat="46.15112" lon="2.47875">
        <ele>490</ele>
        <time>2015-04-10T15:30:22Z</time>
      </trkpt>
      <trkpt lat="46.15115" lon="2.47876">
        <ele>490</ele>
        <time>2015-04-10T15:30:24Z</time>
      </trkpt>
      <trkpt lat="46.15118" lon="2.47877">
        <ele>490</ele>
        <time>2015-04-10T15:30:26Z</time>
      </trkpt>
      <trkpt lat="46.15123" lon="2.4788">
        <ele>490</ele>
        <time>2015-04-10T15:30:29Z</time>
      </trkpt>
      <trkpt lat="46.15127" lon="2.47881">
        <ele>490</ele>
        <time>2015-04-10T15:30:31Z</time>
      </trkpt>
      <trkpt lat="46.1513" lon="2.47883">
        <ele>490</ele>
        <time>2015-04-10T15:30:33Z</time>
      </trkpt>
      <trkpt lat="46.15133" lon="2.47884">
        <ele>490</ele>
        <time>2015-04-10T15:30:35Z</time>
      </trkpt>
      <trkpt lat="46.15136" lon="2.47885">
        <ele>490</ele>
        <time>2015-04-10T15:30:37Z</time>
      </trkpt>
      <trkpt lat="46.15139" lon="2.47886">
        <ele>490</ele>
        <time>2015-04-10T15:30:39Z</time>
      </trkpt>
      <trkpt lat="46.15141" lon="2.47887">
        <ele>490</ele>
        <time>2015-04-10T15:30:41Z</time>
      </trkpt>
      <trkpt lat="46.15144" lon="2.47889">
        <ele>490</ele>
        <time>2015-04-10T15:30:43Z</time>
      </trkpt>
      <trkpt lat="46.15147" lon="2.4789">
        <ele>490</ele>
        <time>2015-04-10T15:30:45Z</time>
      </trkpt>
      <trkpt lat="46.1515" lon="2.47891">
        <ele>490</ele>
        <time>2015-04-10T15:30:47Z</time>
      </trkpt>
      <trkpt lat="46.15153" lon="2.47892">
        <ele>490</ele>
        <time>2015-04-10T15:30:49Z</time>
      </trkpt>
      <trkpt lat="46.15156" lon="2.47892">
        <ele>490</ele>
        <time>2015-04-10T15:30:51Z</time>
      </trkpt>
      <trkpt lat="46.15158" lon="2.47893">
        <ele>490</ele>
        <time>2015-04-10T15:30:53Z</time>
      </trkpt>
      <trkpt lat="46.15161" lon="2.47893">
        <ele>490</ele>
        <time>2015-04-10T15:30:55Z</time>
      </trkpt>
      <trkpt lat="46.15164" lon="2.47894">
        <ele>490</ele>
        <time>2015-04-10T15:30:57Z</time>
      </trkpt>
      <trkpt lat="46.15166" lon="2.47894">
        <ele>490</ele>
        <time>2015-04-10T15:30:59Z</time>
      </trkpt>
      <trkpt lat="46.15169" lon="2.47894">
        <ele>489</ele>
        <time>2015-04-10T15:31:01Z</time>
      </trkpt>
      <trkpt lat="46.15172" lon="2.47895">
        <ele>489</ele>
        <time>2015-04-10T15:31:03Z</time>
      </trkpt>
      <trkpt lat="46.15174" lon="2.47896">
        <ele>489</ele>
        <time>2015-04-10T15:31:05Z</time>
      </trkpt>
      <trkpt lat="46.15178" lon="2.47897">
        <ele>489</ele>
        <time>2015-04-10T15:31:07Z</time>
      </trkpt>
      <trkpt lat="46.15181" lon="2.47898">
        <ele>489</ele>
        <time>2015-04-10T15:31:09Z</time>
      </trkpt>
      <trkpt lat="46.15183" lon="2.47899">
        <ele>489</ele>
        <time>2015-04-10T15:31:11Z</time>
      </trkpt>
      <trkpt lat="46.15186" lon="2.479">
        <ele>489</ele>
        <time>2015-04-10T15:31:13Z</time>
      </trkpt>
      <trkpt lat="46.15189" lon="2.47902">
        <ele>489</ele>
        <time>2015-04-10T15:31:15Z</time>
      </trkpt>
      <trkpt lat="46.15192" lon="2.47902">
        <ele>488</ele>
        <time>2015-04-10T15:31:17Z</time>
      </trkpt>
      <trkpt lat="46.15195" lon="2.47904">
        <ele>488</ele>
        <time>2015-04-10T15:31:19Z</time>
      </trkpt>
      <trkpt lat="46.15198" lon="2.47905">
        <ele>488</ele>
        <time>2015-04-10T15:31:21Z</time>
      </trkpt>
      <trkpt lat="46.15201" lon="2.47906">
        <ele>488</ele>
        <time>2015-04-10T15:31:23Z</time>
      </trkpt>
      <trkpt lat="46.15204" lon="2.47907">
        <ele>488</ele>
        <time>2015-04-10T15:31:25Z</time>
      </trkpt>
      <trkpt lat="46.15207" lon="2.47909">
        <ele>488</ele>
        <time>2015-04-10T15:31:27Z</time>
      </trkpt>
      <trkpt lat="46.1521" lon="2.4791">
        <ele>488</ele>
        <time>2015-04-10T15:31:29Z</time>
      </trkpt>
      <trkpt lat="46.15213" lon="2.47911">
        <ele>488</ele>
        <time>2015-04-10T15:31:31Z</time>
      </trkpt>
      <trkpt lat="46.15216" lon="2.47912">
        <ele>488</ele>
        <time>2015-04-10T15:31:33Z</time>
      </trkpt>
      <trkpt lat="46.15219" lon="2.47913">
        <ele>488</ele>
        <time>2015-04-10T15:31:35Z</time>
      </trkpt>
      <trkpt lat="46.15222" lon="2.47914">
        <ele>488</ele>
        <time>2015-04-10T15:31:37Z</time>
      </trkpt>
      <trkpt lat="46.15225" lon="2.47915">
        <ele>488</ele>
        <time>2015-04-10T15:31:39Z</time>
      </trkpt>
      <trkpt lat="46.15228" lon="2.47915">
        <ele>488</ele>
        <time>2015-04-10T15:31:41Z</time>
      </trkpt>
      <trkpt lat="46.15231" lon="2.47916">
        <ele>488</ele>
        <time>2015-04-10T15:31:43Z</time>
      </trkpt>
      <trkpt lat="46.15234" lon="2.47916">
        <ele>488</ele>
        <time>2015-04-10T15:31:45Z</time>
      </trkpt>
      <trkpt lat="46.15237" lon="2.47916">
        <ele>488</ele>
        <time>2015-04-10T15:31:47Z</time>
      </trkpt>
      <trkpt lat="46.1524" lon="2.47916">
        <ele>488</ele>
        <time>2015-04-10T15:31:49Z</time>
      </trkpt>
      <trkpt lat="46.15243" lon="2.47915">
        <ele>488</ele>
        <time>2015-04-10T15:31:51Z</time>
      </trkpt>
      <trkpt lat="46.15246" lon="2.47915">
        <ele>488</ele>
        <time>2015-04-10T15:31:53Z</time>
      </trkpt>
      <trkpt lat="46.15249" lon="2.47915">
        <ele>488</ele>
        <time>2015-04-10T15:31:55Z</time>
      </trkpt>
      <trkpt lat="46.15252" lon="2.47915">
        <ele>488</ele>
        <time>2015-04-10T15:31:57Z</time>
      </trkpt>
      <trkpt lat="46.15255" lon="2.47914">
        <ele>488</ele>
        <time>2015-04-10T15:31:59Z</time>
      </trkpt>
      <trkpt lat="46.15258" lon="2.47914">
        <ele>488</ele>
        <time>2015-04-10T15:32:01Z</time>
      </trkpt>
      <trkpt lat="46.1526" lon="2.47914">
        <ele>488</ele>
        <time>2015-04-10T15:32:03Z</time>
      </trkpt>
      <trkpt lat="46.15264" lon="2.47913">
        <ele>488</ele>
        <time>2015-04-10T15:32:05Z</time>
      </trkpt>
      <trkpt lat="46.15266" lon="2.47913">
        <ele>488</ele>
        <time>2015-04-10T15:32:07Z</time>
      </trkpt>
      <trkpt lat="46.15269" lon="2.47912">
        <ele>488</ele>
        <time>2015-04-10T15:32:09Z</time>
      </trkpt>
      <trkpt lat="46.15272" lon="2.47912">
        <ele>488</ele>
        <time>2015-04-10T15:32:11Z</time>
      </trkpt>
      <trkpt lat="46.15274" lon="2.47913">
        <ele>488</ele>
        <time>2015-04-10T15:32:13Z</time>
      </trkpt>
      <trkpt lat="46.15277" lon="2.47914">
        <ele>488</ele>
        <time>2015-04-10T15:32:15Z</time>
      </trkpt>
      <trkpt lat="46.1528" lon="2.47914">
        <ele>488</ele>
        <time>2015-04-10T15:32:17Z</time>
      </trkpt>
      <trkpt lat="46.15283" lon="2.47916">
        <ele>488</ele>
        <time>2015-04-10T15:32:19Z</time>
      </trkpt>
      <trkpt lat="46.15286" lon="2.47916">
        <ele>488</ele>
        <time>2015-04-10T15:32:21Z</time>
      </trkpt>
      <trkpt lat="46.15289" lon="2.47917">
        <ele>488</ele>
        <time>2015-04-10T15:32:23Z</time>
      </trkpt>
      <trkpt lat="46.15292" lon="2.47918">
        <ele>488</ele>
        <time>2015-04-10T15:32:25Z</time>
      </trkpt>
      <trkpt lat="46.15294" lon="2.4792">
        <ele>488</ele>
        <time>2015-04-10T15:32:27Z</time>
      </trkpt>
      <trkpt lat="46.15297" lon="2.47922">
        <ele>488</ele>
        <time>2015-04-10T15:32:29Z</time>
      </trkpt>
      <trkpt lat="46.15299" lon="2.47923">
        <ele>488</ele>
        <time>2015-04-10T15:32:31Z</time>
      </trkpt>
      <trkpt lat="46.15302" lon="2.47926">
        <ele>488</ele>
        <time>2015-04-10T15:32:33Z</time>
      </trkpt>
      <trkpt lat="46.15304" lon="2.47928">
        <ele>488</ele>
        <time>2015-04-10T15:32:35Z</time>
      </trkpt>
      <trkpt lat="46.15308" lon="2.47931">
        <ele>488</ele>
        <time>2015-04-10T15:32:38Z</time>
      </trkpt>
      <trkpt lat="46.15311" lon="2.47933">
        <ele>488</ele>
        <time>2015-04-10T15:32:40Z</time>
      </trkpt>
      <trkpt lat="46.15313" lon="2.47934">
        <ele>488</ele>
        <time>2015-04-10T15:32:42Z</time>
      </trkpt>
      <trkpt lat="46.15316" lon="2.47936">
        <ele>488</ele>
        <time>2015-04-10T15:32:44Z</time>
      </trkpt>
      <trkpt lat="46.15319" lon="2.47937">
        <ele>488</ele>
        <time>2015-04-10T15:32:46Z</time>
      </trkpt>
      <trkpt lat="46.15321" lon="2.4794">
        <ele>488</ele>
        <time>2015-04-10T15:32:48Z</time>
      </trkpt>
      <trkpt lat="46.15324" lon="2.47941">
        <ele>488</ele>
        <time>2015-04-10T15:32:50Z</time>
      </trkpt>
      <trkpt lat="46.15327" lon="2.47942">
        <ele>488</ele>
        <time>2015-04-10T15:32:52Z</time>
      </trkpt>
      <trkpt lat="46.15329" lon="2.47943">
        <ele>488</ele>
        <time>2015-04-10T15:32:54Z</time>
      </trkpt>
      <trkpt lat="46.15332" lon="2.47944">
        <ele>488</ele>
        <time>2015-04-10T15:32:56Z</time>
      </trkpt>
      <trkpt lat="46.15335" lon="2.47946">
        <ele>488</ele>
        <time>2015-04-10T15:32:58Z</time>
      </trkpt>
      <trkpt lat="46.15338" lon="2.47947">
        <ele>488</ele>
        <time>2015-04-10T15:33:00Z</time>
      </trkpt>
      <trkpt lat="46.1534" lon="2.47949">
        <ele>488</ele>
        <time>2015-04-10T15:33:02Z</time>
      </trkpt>
      <trkpt lat="46.15343" lon="2.47951">
        <ele>488</ele>
        <time>2015-04-10T15:33:04Z</time>
      </trkpt>
      <trkpt lat="46.15346" lon="2.47953">
        <ele>488</ele>
        <time>2015-04-10T15:33:06Z</time>
      </trkpt>
      <trkpt lat="46.15348" lon="2.47954">
        <ele>488</ele>
        <time>2015-04-10T15:33:08Z</time>
      </trkpt>
      <trkpt lat="46.15352" lon="2.47956">
        <ele>488</ele>
        <time>2015-04-10T15:33:10Z</time>
      </trkpt>
      <trkpt lat="46.15355" lon="2.47958">
        <ele>488</ele>
        <time>2015-04-10T15:33:12Z</time>
      </trkpt>
      <trkpt lat="46.15358" lon="2.47959">
        <ele>488</ele>
        <time>2015-04-10T15:33:14Z</time>
      </trkpt>
      <trkpt lat="46.15361" lon="2.47959">
        <ele>488</ele>
        <time>2015-04-10T15:33:16Z</time>
      </trkpt>
      <trkpt lat="46.15365" lon="2.47959">
        <ele>488</ele>
        <time>2015-04-10T15:33:18Z</time>
      </trkpt>
      <trkpt lat="46.15368" lon="2.47959">
        <ele>488</ele>
        <time>2015-04-10T15:33:20Z</time>
      </trkpt>
      <trkpt lat="46.15371" lon="2.47958">
        <ele>488</ele>
        <time>2015-04-10T15:33:22Z</time>
      </trkpt>
      <trkpt lat="46.15373" lon="2.47957">
        <ele>488</ele>
        <time>2015-04-10T15:33:24Z</time>
      </trkpt>
      <trkpt lat="46.15376" lon="2.47954">
        <ele>488</ele>
        <time>2015-04-10T15:33:26Z</time>
      </trkpt>
      <trkpt lat="46.1538" lon="2.4795">
        <ele>488</ele>
        <time>2015-04-10T15:33:29Z</time>
      </trkpt>
      <trkpt lat="46.15382" lon="2.47947">
        <ele>488</ele>
        <time>2015-04-10T15:33:31Z</time>
      </trkpt>
      <trkpt lat="46.15384" lon="2.47944">
        <ele>488</ele>
        <time>2015-04-10T15:33:33Z</time>
      </trkpt>
      <trkpt lat="46.15386" lon="2.47941">
        <ele>488</ele>
        <time>2015-04-10T15:33:35Z</time>
      </trkpt>
      <trkpt lat="46.15388" lon="2.47937">
        <ele>488</ele>
        <time>2015-04-10T15:33:37Z</time>
      </trkpt>
      <trkpt lat="46.1539" lon="2.47934">
        <ele>488</ele>
        <time>2015-04-10T15:33:39Z</time>
      </trkpt>
      <trkpt lat="46.15392" lon="2.47931">
        <ele>488</ele>
        <time>2015-04-10T15:33:41Z</time>
      </trkpt>
      <trkpt lat="46.15394" lon="2.47928">
        <ele>488</ele>
        <time>2015-04-10T15:33:43Z</time>
      </trkpt>
      <trkpt lat="46.15396" lon="2.47925">
        <ele>488</ele>
        <time>2015-04-10T15:33:45Z</time>
      </trkpt>
      <trkpt lat="46.15398" lon="2.47922">
        <ele>488</ele>
        <time>2015-04-10T15:33:47Z</time>
      </trkpt>
      <trkpt lat="46.154" lon="2.47918">
        <ele>488</ele>
        <time>2015-04-10T15:33:49Z</time>
      </trkpt>
      <trkpt lat="46.15401" lon="2.47915">
        <ele>488</ele>
        <time>2015-04-10T15:33:51Z</time>
      </trkpt>
      <trkpt lat="46.15403" lon="2.47911">
        <ele>488</ele>
        <time>2015-04-10T15:33:53Z</time>
      </trkpt>
      <trkpt lat="46.15405" lon="2.47908">
        <ele>488</ele>
        <time>2015-04-10T15:33:55Z</time>
      </trkpt>
      <trkpt lat="46.15407" lon="2.47905">
        <ele>488</ele>
        <time>2015-04-10T15:33:57Z</time>
      </trkpt>
      <trkpt lat="46.15408" lon="2.47903">
        <ele>488</ele>
        <time>2015-04-10T15:33:59Z</time>
      </trkpt>
      <trkpt lat="46.15411" lon="2.479">
        <ele>488</ele>
        <time>2015-04-10T15:34:01Z</time>
      </trkpt>
      <trkpt lat="46.15413" lon="2.47897">
        <ele>488</ele>
        <time>2015-04-10T15:34:03Z</time>
      </trkpt>
      <trkpt lat="46.15415" lon="2.47894">
        <ele>488</ele>
        <time>2015-04-10T15:34:05Z</time>
      </trkpt>
      <trkpt lat="46.15417" lon="2.47891">
        <ele>488</ele>
        <time>2015-04-10T15:34:07Z</time>
      </trkpt>
      <trkpt lat="46.15419" lon="2.47888">
        <ele>488</ele>
        <time>2015-04-10T15:34:09Z</time>
      </trkpt>
      <trkpt lat="46.15421" lon="2.47885">
        <ele>488</ele>
        <time>2015-04-10T15:34:11Z</time>
      </trkpt>
      <trkpt lat="46.15423" lon="2.47882">
        <ele>488</ele>
        <time>2015-04-10T15:34:13Z</time>
      </trkpt>
      <trkpt lat="46.15425" lon="2.47878">
        <ele>488</ele>
        <time>2015-04-10T15:34:15Z</time>
      </trkpt>
      <trkpt lat="46.15428" lon="2.47875">
        <ele>488</ele>
        <time>2015-04-10T15:34:17Z</time>
      </trkpt>
      <trkpt lat="46.1543" lon="2.47872">
        <ele>488</ele>
        <time>2015-04-10T15:34:19Z</time>
      </trkpt>
      <trkpt lat="46.15431" lon="2.47868">
        <ele>488</ele>
        <time>2015-04-10T15:34:21Z</time>
      </trkpt>
      <trkpt lat="46.15433" lon="2.47865">
        <ele>488</ele>
        <time>2015-04-10T15:34:23Z</time>
      </trkpt>
      <trkpt lat="46.15435" lon="2.47862">
        <ele>488</ele>
        <time>2015-04-10T15:34:25Z</time>
      </trkpt>
      <trkpt lat="46.15437" lon="2.47858">
        <ele>488</ele>
        <time>2015-04-10T15:34:27Z</time>
      </trkpt>
      <trkpt lat="46.15439" lon="2.47855">
        <ele>488</ele>
        <time>2015-04-10T15:34:29Z</time>
      </trkpt>
      <trkpt lat="46.15441" lon="2.47851">
        <ele>488</ele>
        <time>2015-04-10T15:34:31Z</time>
      </trkpt>
      <trkpt lat="46.15443" lon="2.47848">
        <ele>488</ele>
        <time>2015-04-10T15:34:33Z</time>
      </trkpt>
      <trkpt lat="46.15445" lon="2.47845">
        <ele>488</ele>
        <time>2015-04-10T15:34:35Z</time>
      </trkpt>
      <trkpt lat="46.15446" lon="2.47841">
        <ele>488</ele>
        <time>2015-04-10T15:34:37Z</time>
      </trkpt>
      <trkpt lat="46.15448" lon="2.47838">
        <ele>488</ele>
        <time>2015-04-10T15:34:39Z</time>
      </trkpt>
      <trkpt lat="46.1545" lon="2.47834">
        <ele>488</ele>
        <time>2015-04-10T15:34:41Z</time>
      </trkpt>
      <trkpt lat="46.15452" lon="2.47831">
        <ele>488</ele>
        <time>2015-04-10T15:34:43Z</time>
      </trkpt>
      <trkpt lat="46.15454" lon="2.47827">
        <ele>488</ele>
        <time>2015-04-10T15:34:45Z</time>
      </trkpt>
      <trkpt lat="46.15456" lon="2.47824">
        <ele>488</ele>
        <time>2015-04-10T15:34:47Z</time>
      </trkpt>
      <trkpt lat="46.15458" lon="2.47821">
        <ele>488</ele>
        <time>2015-04-10T15:34:49Z</time>
      </trkpt>
      <trkpt lat="46.15459" lon="2.47817">
        <ele>488</ele>
        <time>2015-04-10T15:34:51Z</time>
      </trkpt>
      <trkpt lat="46.15461" lon="2.47814">
        <ele>488</ele>
        <time>2015-04-10T15:34:53Z</time>
      </trkpt>
      <trkpt lat="46.15463" lon="2.47811">
        <ele>488</ele>
        <time>2015-04-10T15:34:55Z</time>
      </trkpt>
      <trkpt lat="46.15465" lon="2.47808">
        <ele>488</ele>
        <time>2015-04-10T15:34:57Z</time>
      </trkpt>
      <trkpt lat="46.15467" lon="2.47804">
        <ele>488</ele>
        <time>2015-04-10T15:34:59Z</time>
      </trkpt>
      <trkpt lat="46.15469" lon="2.47801">
        <ele>488</ele>
        <time>2015-04-10T15:35:01Z</time>
      </trkpt>
      <trkpt lat="46.15471" lon="2.47797">
        <ele>488</ele>
        <time>2015-04-10T15:35:03Z</time>
      </trkpt>
      <trkpt lat="46.15472" lon="2.47794">
        <ele>488</ele>
        <time>2015-04-10T15:35:05Z</time>
      </trkpt>
      <trkpt lat="46.15474" lon="2.47791">
        <ele>488</ele>
        <time>2015-04-10T15:35:07Z</time>
      </trkpt>
      <trkpt lat="46.15476" lon="2.47787">
        <ele>488</ele>
        <time>2015-04-10T15:35:09Z</time>
      </trkpt>
      <trkpt lat="46.15477" lon="2.47784">
        <ele>488</ele>
        <time>2015-04-10T15:35:11Z</time>
      </trkpt>
      <trkpt lat="46.15479" lon="2.4778">
        <ele>488</ele>
        <time>2015-04-10T15:35:13Z</time>
      </trkpt>
      <trkpt lat="46.1548" lon="2.47777">
        <ele>488</ele>
        <time>2015-04-10T15:35:15Z</time>
      </trkpt>
      <trkpt lat="46.15482" lon="2.47774">
        <ele>488</ele>
        <time>2015-04-10T15:35:17Z</time>
      </trkpt>
      <trkpt lat="46.15483" lon="2.4777">
        <ele>488</ele>
        <time>2015-04-10T15:35:19Z</time>
      </trkpt>
      <trkpt lat="46.15485" lon="2.47767">
        <ele>488</ele>
        <time>2015-04-10T15:35:21Z</time>
      </trkpt>
      <trkpt lat="46.15487" lon="2.47763">
        <ele>488</ele>
        <time>2015-04-10T15:35:23Z</time>
      </trkpt>
      <trkpt lat="46.15489" lon="2.47761">
        <ele>488</ele>
        <time>2015-04-10T15:35:25Z</time>
      </trkpt>
      <trkpt lat="46.15491" lon="2.47757">
        <ele>488</ele>
        <time>2015-04-10T15:35:27Z</time>
      </trkpt>
      <trkpt lat="46.15494" lon="2.47755">
        <ele>488</ele>
        <time>2015-04-10T15:35:29Z</time>
      </trkpt>
      <trkpt lat="46.15496" lon="2.47752">
        <ele>488</ele>
        <time>2015-04-10T15:35:31Z</time>
      </trkpt>
      <trkpt lat="46.15499" lon="2.47748">
        <ele>488</ele>
        <time>2015-04-10T15:35:34Z</time>
      </trkpt>
      <trkpt lat="46.15501" lon="2.47745">
        <ele>488</ele>
        <time>2015-04-10T15:35:36Z</time>
      </trkpt>
      <trkpt lat="46.15504" lon="2.47743">
        <ele>488</ele>
        <time>2015-04-10T15:35:38Z</time>
      </trkpt>
      <trkpt lat="46.15507" lon="2.47739">
        <ele>488</ele>
        <time>2015-04-10T15:35:40Z</time>
      </trkpt>
      <trkpt lat="46.15509" lon="2.47737">
        <ele>488</ele>
        <time>2015-04-10T15:35:42Z</time>
      </trkpt>
      <trkpt lat="46.15511" lon="2.47734">
        <ele>488</ele>
        <time>2015-04-10T15:35:44Z</time>
      </trkpt>
      <trkpt lat="46.15514" lon="2.47732">
        <ele>488</ele>
        <time>2015-04-10T15:35:46Z</time>
      </trkpt>
      <trkpt lat="46.15517" lon="2.47729">
        <ele>488</ele>
        <time>2015-04-10T15:35:48Z</time>
      </trkpt>
      <trkpt lat="46.15519" lon="2.47726">
        <ele>488</ele>
        <time>2015-04-10T15:35:50Z</time>
      </trkpt>
      <trkpt lat="46.15522" lon="2.47724">
        <ele>488</ele>
        <time>2015-04-10T15:35:52Z</time>
      </trkpt>
      <trkpt lat="46.15524" lon="2.47722">
        <ele>488</ele>
        <time>2015-04-10T15:35:54Z</time>
      </trkpt>
      <trkpt lat="46.15527" lon="2.47719">
        <ele>488</ele>
        <time>2015-04-10T15:35:56Z</time>
      </trkpt>
      <trkpt lat="46.1553" lon="2.47716">
        <ele>488</ele>
        <time>2015-04-10T15:35:58Z</time>
      </trkpt>
      <trkpt lat="46.15532" lon="2.47714">
        <ele>488</ele>
        <time>2015-04-10T15:36:00Z</time>
      </trkpt>
      <trkpt lat="46.15535" lon="2.47711">
        <ele>488</ele>
        <time>2015-04-10T15:36:02Z</time>
      </trkpt>
      <trkpt lat="46.15538" lon="2.47708">
        <ele>488</ele>
        <time>2015-04-10T15:36:05Z</time>
      </trkpt>
      <trkpt lat="46.1554" lon="2.47705">
        <ele>488</ele>
        <time>2015-04-10T15:36:07Z</time>
      </trkpt>
      <trkpt lat="46.15543" lon="2.47703">
        <ele>488</ele>
        <time>2015-04-10T15:36:09Z</time>
      </trkpt>
      <trkpt lat="46.15545" lon="2.477">
        <ele>488</ele>
        <time>2015-04-10T15:36:11Z</time>
      </trkpt>
      <trkpt lat="46.15549" lon="2.47696">
        <ele>488</ele>
        <time>2015-04-10T15:36:14Z</time>
      </trkpt>
      <trkpt lat="46.15551" lon="2.47694">
        <ele>488</ele>
        <time>2015-04-10T15:36:16Z</time>
      </trkpt>
      <trkpt lat="46.15553" lon="2.47692">
        <ele>488</ele>
        <time>2015-04-10T15:36:18Z</time>
      </trkpt>
      <trkpt lat="46.15556" lon="2.4769">
        <ele>488</ele>
        <time>2015-04-10T15:36:20Z</time>
      </trkpt>
      <trkpt lat="46.15559" lon="2.47688">
        <ele>488</ele>
        <time>2015-04-10T15:36:22Z</time>
      </trkpt>
      <trkpt lat="46.15562" lon="2.47685">
        <ele>488</ele>
        <time>2015-04-10T15:36:24Z</time>
      </trkpt>
      <trkpt lat="46.15564" lon="2.47683">
        <ele>488</ele>
        <time>2015-04-10T15:36:26Z</time>
      </trkpt>
      <trkpt lat="46.15567" lon="2.47681">
        <ele>488</ele>
        <time>2015-04-10T15:36:28Z</time>
      </trkpt>
      <trkpt lat="46.1557" lon="2.47679">
        <ele>488</ele>
        <time>2015-04-10T15:36:30Z</time>
      </trkpt>
      <trkpt lat="46.15573" lon="2.47678">
        <ele>488</ele>
        <time>2015-04-10T15:36:32Z</time>
      </trkpt>
      <trkpt lat="46.15576" lon="2.47676">
        <ele>488</ele>
        <time>2015-04-10T15:36:34Z</time>
      </trkpt>
      <trkpt lat="46.15578" lon="2.47674">
        <ele>488</ele>
        <time>2015-04-10T15:36:36Z</time>
      </trkpt>
      <trkpt lat="46.15581" lon="2.47672">
        <ele>488</ele>
        <time>2015-04-10T15:36:38Z</time>
      </trkpt>
      <trkpt lat="46.15584" lon="2.47671">
        <ele>488</ele>
        <time>2015-04-10T15:36:40Z</time>
      </trkpt>
      <trkpt lat="46.15588" lon="2.4767">
        <ele>488</ele>
        <time>2015-04-10T15:36:42Z</time>
      </trkpt>
      <trkpt lat="46.1559" lon="2.47668">
        <ele>488</ele>
        <time>2015-04-10T15:36:44Z</time>
      </trkpt>
      <trkpt lat="46.15593" lon="2.47667">
        <ele>488</ele>
        <time>2015-04-10T15:36:46Z</time>
      </trkpt>
      <trkpt lat="46.15596" lon="2.47665">
        <ele>488</ele>
        <time>2015-04-10T15:36:48Z</time>
      </trkpt>
      <trkpt lat="46.15599" lon="2.47664">
        <ele>488</ele>
        <time>2015-04-10T15:36:50Z</time>
      </trkpt>
      <trkpt lat="46.15601" lon="2.47662">
        <ele>488</ele>
        <time>2015-04-10T15:36:52Z</time>
      </trkpt>
      <trkpt lat="46.15604" lon="2.4766">
        <ele>488</ele>
        <time>2015-04-10T15:36:54Z</time>
      </trkpt>
      <trkpt lat="46.15607" lon="2.47658">
        <ele>488</ele>
        <time>2015-04-10T15:36:57Z</time>
      </trkpt>
      <trkpt lat="46.15611" lon="2.47656">
        <ele>488</ele>
        <time>2015-04-10T15:37:00Z</time>
      </trkpt>
      <trkpt lat="46.15614" lon="2.47655">
        <ele>488</ele>
        <time>2015-04-10T15:37:02Z</time>
      </trkpt>
      <trkpt lat="46.15617" lon="2.47653">
        <ele>488</ele>
        <time>2015-04-10T15:37:04Z</time>
      </trkpt>
      <trkpt lat="46.1562" lon="2.47652">
        <ele>488</ele>
        <time>2015-04-10T15:37:06Z</time>
      </trkpt>
      <trkpt lat="46.15622" lon="2.47651">
        <ele>488</ele>
        <time>2015-04-10T15:37:08Z</time>
      </trkpt>
      <trkpt lat="46.15626" lon="2.47649">
        <ele>488</ele>
        <time>2015-04-10T15:37:11Z</time>
      </trkpt>
      <trkpt lat="46.15629" lon="2.47648">
        <ele>488</ele>
        <time>2015-04-10T15:37:13Z</time>
      </trkpt>
      <trkpt lat="46.15632" lon="2.47647">
        <ele>488</ele>
        <time>2015-04-10T15:37:15Z</time>
      </trkpt>
      <trkpt lat="46.15636" lon="2.47646">
        <ele>488</ele>
        <time>2015-04-10T15:37:17Z</time>
      </trkpt>
      <trkpt lat="46.15639" lon="2.47645">
        <ele>488</ele>
        <time>2015-04-10T15:37:19Z</time>
      </trkpt>
      <trkpt lat="46.15642" lon="2.47645">
        <ele>488</ele>
        <time>2015-04-10T15:37:21Z</time>
      </trkpt>
      <trkpt lat="46.15646" lon="2.47644">
        <ele>488</ele>
        <time>2015-04-10T15:37:23Z</time>
      </trkpt>
      <trkpt lat="46.15649" lon="2.47644">
        <ele>488</ele>
        <time>2015-04-10T15:37:25Z</time>
      </trkpt>
      <trkpt lat="46.15652" lon="2.47643">
        <ele>488</ele>
        <time>2015-04-10T15:37:27Z</time>
      </trkpt>
      <trkpt lat="46.15655" lon="2.47642">
        <ele>488</ele>
        <time>2015-04-10T15:37:29Z</time>
      </trkpt>
      <trkpt lat="46.15657" lon="2.47641">
        <ele>487</ele>
        <time>2015-04-10T15:37:31Z</time>
      </trkpt>
      <trkpt lat="46.1566" lon="2.47641">
        <ele>487</ele>
        <time>2015-04-10T15:37:33Z</time>
      </trkpt>
      <trkpt lat="46.15663" lon="2.4764">
        <ele>487</ele>
        <time>2015-04-10T15:37:35Z</time>
      </trkpt>
      <trkpt lat="46.15665" lon="2.4764">
        <ele>487</ele>
        <time>2015-04-10T15:37:37Z</time>
      </trkpt>
      <trkpt lat="46.15669" lon="2.4764">
        <ele>487</ele>
        <time>2015-04-10T15:37:39Z</time>
      </trkpt>
      <trkpt lat="46.15673" lon="2.47641">
        <ele>487</ele>
        <time>2015-04-10T15:37:41Z</time>
      </trkpt>
      <trkpt lat="46.15676" lon="2.47641">
        <ele>487</ele>
        <time>2015-04-10T15:37:43Z</time>
      </trkpt>
      <trkpt lat="46.15679" lon="2.47642">
        <ele>487</ele>
        <time>2015-04-10T15:37:45Z</time>
      </trkpt>
      <trkpt lat="46.15682" lon="2.47642">
        <ele>487</ele>
        <time>2015-04-10T15:37:47Z</time>
      </trkpt>
      <trkpt lat="46.15686" lon="2.47643">
        <ele>487</ele>
        <time>2015-04-10T15:37:49Z</time>
      </trkpt>
      <trkpt lat="46.15688" lon="2.47642">
        <ele>487</ele>
        <time>2015-04-10T15:37:51Z</time>
      </trkpt>
      <trkpt lat="46.15691" lon="2.47642">
        <ele>487</ele>
        <time>2015-04-10T15:37:53Z</time>
      </trkpt>
      <trkpt lat="46.15694" lon="2.47642">
        <ele>487</ele>
        <time>2015-04-10T15:37:55Z</time>
      </trkpt>
      <trkpt lat="46.15696" lon="2.47642">
        <ele>486</ele>
        <time>2015-04-10T15:37:57Z</time>
      </trkpt>
      <trkpt lat="46.15699" lon="2.47643">
        <ele>485</ele>
        <time>2015-04-10T15:37:59Z</time>
      </trkpt>
      <trkpt lat="46.15702" lon="2.47643">
        <ele>485</ele>
        <time>2015-04-10T15:38:01Z</time>
      </trkpt>
      <trkpt lat="46.15704" lon="2.47643">
        <ele>485</ele>
        <time>2015-04-10T15:38:03Z</time>
      </trkpt>
      <trkpt lat="46.15707" lon="2.47643">
        <ele>484</ele>
        <time>2015-04-10T15:38:05Z</time>
      </trkpt>
      <trkpt lat="46.1571" lon="2.47645">
        <ele>484</ele>
        <time>2015-04-10T15:38:07Z</time>
      </trkpt>
      <trkpt lat="46.15713" lon="2.47645">
        <ele>483</ele>
        <time>2015-04-10T15:38:09Z</time>
      </trkpt>
      <trkpt lat="46.15715" lon="2.47645">
        <ele>483</ele>
        <time>2015-04-10T15:38:11Z</time>
      </trkpt>
      <trkpt lat="46.15718" lon="2.47645">
        <ele>483</ele>
        <time>2015-04-10T15:38:13Z</time>
      </trkpt>
      <trkpt lat="46.15721" lon="2.47643">
        <ele>483</ele>
        <time>2015-04-10T15:38:15Z</time>
      </trkpt>
      <trkpt lat="46.15724" lon="2.47641">
        <ele>483</ele>
        <time>2015-04-10T15:38:17Z</time>
      </trkpt>
      <trkpt lat="46.15727" lon="2.47639">
        <ele>483</ele>
        <time>2015-04-10T15:38:19Z</time>
      </trkpt>
      <trkpt lat="46.15729" lon="2.47636">
        <ele>483</ele>
        <time>2015-04-10T15:38:21Z</time>
      </trkpt>
      <trkpt lat="46.15731" lon="2.47632">
        <ele>483</ele>
        <time>2015-04-10T15:38:23Z</time>
      </trkpt>
      <trkpt lat="46.15732" lon="2.47629">
        <ele>483</ele>
        <time>2015-04-10T15:38:25Z</time>
      </trkpt>
      <trkpt lat="46.15734" lon="2.47626">
        <ele>483</ele>
        <time>2015-04-10T15:38:27Z</time>
      </trkpt>
      <trkpt lat="46.15736" lon="2.47623">
        <ele>483</ele>
        <time>2015-04-10T15:38:29Z</time>
      </trkpt>
      <trkpt lat="46.15737" lon="2.47619">
        <ele>483</ele>
        <time>2015-04-10T15:38:31Z</time>
      </trkpt>
      <trkpt lat="46.15738" lon="2.47616">
        <ele>483</ele>
        <time>2015-04-10T15:38:33Z</time>
      </trkpt>
      <trkpt lat="46.1574" lon="2.47612">
        <ele>483</ele>
        <time>2015-04-10T15:38:35Z</time>
      </trkpt>
      <trkpt lat="46.15741" lon="2.47609">
        <ele>483</ele>
        <time>2015-04-10T15:38:37Z</time>
      </trkpt>
      <trkpt lat="46.15742" lon="2.47605">
        <ele>483</ele>
        <time>2015-04-10T15:38:39Z</time>
      </trkpt>
      <trkpt lat="46.15744" lon="2.47602">
        <ele>483</ele>
        <time>2015-04-10T15:38:41Z</time>
      </trkpt>
      <trkpt lat="46.15746" lon="2.47599">
        <ele>483</ele>
        <time>2015-04-10T15:38:43Z</time>
      </trkpt>
      <trkpt lat="46.15747" lon="2.47595">
        <ele>483</ele>
        <time>2015-04-10T15:38:45Z</time>
      </trkpt>
      <trkpt lat="46.15748" lon="2.47592">
        <ele>483</ele>
        <time>2015-04-10T15:38:47Z</time>
      </trkpt>
      <trkpt lat="46.1575" lon="2.47588">
        <ele>483</ele>
        <time>2015-04-10T15:38:49Z</time>
      </trkpt>
      <trkpt lat="46.15751" lon="2.47585">
        <ele>483</ele>
        <time>2015-04-10T15:38:51Z</time>
      </trkpt>
      <trkpt lat="46.15752" lon="2.47582">
        <ele>483</ele>
        <time>2015-04-10T15:38:53Z</time>
      </trkpt>
      <trkpt lat="46.15754" lon="2.47579">
        <ele>483</ele>
        <time>2015-04-10T15:38:55Z</time>
      </trkpt>
      <trkpt lat="46.15755" lon="2.47575">
        <ele>483</ele>
        <time>2015-04-10T15:38:57Z</time>
      </trkpt>
      <trkpt lat="46.15757" lon="2.47572">
        <ele>483</ele>
        <time>2015-04-10T15:38:59Z</time>
      </trkpt>
      <trkpt lat="46.15758" lon="2.47569">
        <ele>483</ele>
        <time>2015-04-10T15:39:01Z</time>
      </trkpt>
      <trkpt lat="46.15759" lon="2.47571">
        <ele>483</ele>
        <time>2015-04-10T15:39:14Z</time>
      </trkpt>
      <trkpt lat="46.1576" lon="2.47569">
        <ele>483</ele>
        <time>2015-04-10T15:40:21Z</time>
      </trkpt>
      <trkpt lat="46.1576" lon="2.47566">
        <ele>483</ele>
        <time>2015-04-10T15:40:23Z</time>
      </trkpt>
      <trkpt lat="46.15762" lon="2.47563">
        <ele>483</ele>
        <time>2015-04-10T15:40:25Z</time>
      </trkpt>
      <trkpt lat="46.15763" lon="2.47559">
        <ele>483</ele>
        <time>2015-04-10T15:40:27Z</time>
      </trkpt>
      <trkpt lat="46.15764" lon="2.47556">
        <ele>483</ele>
        <time>2015-04-10T15:40:29Z</time>
      </trkpt>
      <trkpt lat="46.15765" lon="2.47552">
        <ele>483</ele>
        <time>2015-04-10T15:40:31Z</time>
      </trkpt>
      <trkpt lat="46.15767" lon="2.47549">
        <ele>483</ele>
        <time>2015-04-10T15:40:33Z</time>
      </trkpt>
      <trkpt lat="46.15768" lon="2.47546">
        <ele>483</ele>
        <time>2015-04-10T15:40:35Z</time>
      </trkpt>
      <trkpt lat="46.1577" lon="2.47543">
        <ele>483</ele>
        <time>2015-04-10T15:40:37Z</time>
      </trkpt>
      <trkpt lat="46.15772" lon="2.47539">
        <ele>483</ele>
        <time>2015-04-10T15:40:40Z</time>
      </trkpt>
      <trkpt lat="46.15775" lon="2.47539">
        <ele>483</ele>
        <time>2015-04-10T15:40:42Z</time>
      </trkpt>
      <trkpt lat="46.15777" lon="2.4754">
        <ele>483</ele>
        <time>2015-04-10T15:40:44Z</time>
      </trkpt>
      <trkpt lat="46.1578" lon="2.47542">
        <ele>483</ele>
        <time>2015-04-10T15:40:46Z</time>
      </trkpt>
      <trkpt lat="46.15783" lon="2.47544">
        <ele>483</ele>
        <time>2015-04-10T15:40:48Z</time>
      </trkpt>
      <trkpt lat="46.15785" lon="2.47546">
        <ele>483</ele>
        <time>2015-04-10T15:40:50Z</time>
      </trkpt>
      <trkpt lat="46.15787" lon="2.47548">
        <ele>483</ele>
        <time>2015-04-10T15:40:52Z</time>
      </trkpt>
      <trkpt lat="46.1579" lon="2.47551">
        <ele>483</ele>
        <time>2015-04-10T15:40:54Z</time>
      </trkpt>
      <trkpt lat="46.15792" lon="2.47553">
        <ele>483</ele>
        <time>2015-04-10T15:40:56Z</time>
      </trkpt>
      <trkpt lat="46.15796" lon="2.47556">
        <ele>483</ele>
        <time>2015-04-10T15:40:59Z</time>
      </trkpt>
      <trkpt lat="46.15798" lon="2.47558">
        <ele>483</ele>
        <time>2015-04-10T15:41:01Z</time>
      </trkpt>
      <trkpt lat="46.15801" lon="2.4756">
        <ele>483</ele>
        <time>2015-04-10T15:41:03Z</time>
      </trkpt>
      <trkpt lat="46.15804" lon="2.47561">
        <ele>483</ele>
        <time>2015-04-10T15:41:05Z</time>
      </trkpt>
      <trkpt lat="46.15806" lon="2.47563">
        <ele>483</ele>
        <time>2015-04-10T15:41:07Z</time>
      </trkpt>
      <trkpt lat="46.15808" lon="2.47564">
        <ele>483</ele>
        <time>2015-04-10T15:41:09Z</time>
      </trkpt>
      <trkpt lat="46.1581" lon="2.47566">
        <ele>483</ele>
        <time>2015-04-10T15:41:11Z</time>
      </trkpt>
      <trkpt lat="46.15813" lon="2.47567">
        <ele>482</ele>
        <time>2015-04-10T15:41:14Z</time>
      </trkpt>
      <trkpt lat="46.15815" lon="2.47568">
        <ele>482</ele>
        <time>2015-04-10T15:41:17Z</time>
      </trkpt>
      <trkpt lat="46.15817" lon="2.4757">
        <ele>482</ele>
        <time>2015-04-10T15:41:19Z</time>
      </trkpt>
      <trkpt lat="46.1582" lon="2.47571">
        <ele>482</ele>
        <time>2015-04-10T15:41:21Z</time>
      </trkpt>
      <trkpt lat="46.15823" lon="2.47573">
        <ele>482</ele>
        <time>2015-04-10T15:41:23Z</time>
      </trkpt>
      <trkpt lat="46.15826" lon="2.47575">
        <ele>481</ele>
        <time>2015-04-10T15:41:25Z</time>
      </trkpt>
      <trkpt lat="46.15828" lon="2.47576">
        <ele>481</ele>
        <time>2015-04-10T15:41:27Z</time>
      </trkpt>
      <trkpt lat="46.15831" lon="2.47578">
        <ele>481</ele>
        <time>2015-04-10T15:41:29Z</time>
      </trkpt>
      <trkpt lat="46.15834" lon="2.4758">
        <ele>481</ele>
        <time>2015-04-10T15:41:31Z</time>
      </trkpt>
      <trkpt lat="46.15836" lon="2.47582">
        <ele>481</ele>
        <time>2015-04-10T15:41:33Z</time>
      </trkpt>
      <trkpt lat="46.15839" lon="2.47583">
        <ele>481</ele>
        <time>2015-04-10T15:41:35Z</time>
      </trkpt>
      <trkpt lat="46.15842" lon="2.47585">
        <ele>480</ele>
        <time>2015-04-10T15:41:37Z</time>
      </trkpt>
      <trkpt lat="46.15844" lon="2.47587">
        <ele>480</ele>
        <time>2015-04-10T15:41:39Z</time>
      </trkpt>
      <trkpt lat="46.15847" lon="2.47588">
        <ele>480</ele>
        <time>2015-04-10T15:41:41Z</time>
      </trkpt>
      <trkpt lat="46.1585" lon="2.4759">
        <ele>480</ele>
        <time>2015-04-10T15:41:43Z</time>
      </trkpt>
      <trkpt lat="46.15855" lon="2.47592">
        <ele>479</ele>
        <time>2015-04-10T15:41:46Z</time>
      </trkpt>
      <trkpt lat="46.15858" lon="2.47594">
        <ele>479</ele>
        <time>2015-04-10T15:41:48Z</time>
      </trkpt>
      <trkpt lat="46.1586" lon="2.47595">
        <ele>479</ele>
        <time>2015-04-10T15:41:50Z</time>
      </trkpt>
      <trkpt lat="46.15863" lon="2.47596">
        <ele>479</ele>
        <time>2015-04-10T15:41:52Z</time>
      </trkpt>
      <trkpt lat="46.15866" lon="2.47598">
        <ele>479</ele>
        <time>2015-04-10T15:41:54Z</time>
      </trkpt>
      <trkpt lat="46.1587" lon="2.476">
        <ele>479</ele>
        <time>2015-04-10T15:41:56Z</time>
      </trkpt>
      <trkpt lat="46.15873" lon="2.47601">
        <ele>479</ele>
        <time>2015-04-10T15:41:58Z</time>
      </trkpt>
      <trkpt lat="46.15876" lon="2.47603">
        <ele>479</ele>
        <time>2015-04-10T15:42:00Z</time>
      </trkpt>
      <trkpt lat="46.15879" lon="2.47603">
        <ele>478</ele>
        <time>2015-04-10T15:42:02Z</time>
      </trkpt>
      <trkpt lat="46.15882" lon="2.47605">
        <ele>478</ele>
        <time>2015-04-10T15:42:04Z</time>
      </trkpt>
      <trkpt lat="46.15885" lon="2.47607">
        <ele>478</ele>
        <time>2015-04-10T15:42:06Z</time>
      </trkpt>
      <trkpt lat="46.15887" lon="2.47608">
        <ele>478</ele>
        <time>2015-04-10T15:42:08Z</time>
      </trkpt>
      <trkpt lat="46.1589" lon="2.47609">
        <ele>478</ele>
        <time>2015-04-10T15:42:10Z</time>
      </trkpt>
      <trkpt lat="46.15893" lon="2.47611">
        <ele>478</ele>
        <time>2015-04-10T15:42:12Z</time>
      </trkpt>
      <trkpt lat="46.15896" lon="2.47613">
        <ele>477</ele>
        <time>2015-04-10T15:42:14Z</time>
      </trkpt>
      <trkpt lat="46.15899" lon="2.47615">
        <ele>477</ele>
        <time>2015-04-10T15:42:16Z</time>
      </trkpt>
      <trkpt lat="46.15902" lon="2.47617">
        <ele>477</ele>
        <time>2015-04-10T15:42:18Z</time>
      </trkpt>
      <trkpt lat="46.15905" lon="2.47618">
        <ele>477</ele>
        <time>2015-04-10T15:42:20Z</time>
      </trkpt>
      <trkpt lat="46.15909" lon="2.47621">
        <ele>476</ele>
        <time>2015-04-10T15:42:23Z</time>
      </trkpt>
      <trkpt lat="46.15912" lon="2.47624">
        <ele>476</ele>
        <time>2015-04-10T15:42:26Z</time>
      </trkpt>
      <trkpt lat="46.15915" lon="2.47625">
        <ele>476</ele>
        <time>2015-04-10T15:42:28Z</time>
      </trkpt>
      <trkpt lat="46.15917" lon="2.47627">
        <ele>476</ele>
        <time>2015-04-10T15:42:30Z</time>
      </trkpt>
      <trkpt lat="46.15921" lon="2.47629">
        <ele>476</ele>
        <time>2015-04-10T15:42:33Z</time>
      </trkpt>
      <trkpt lat="46.15923" lon="2.47631">
        <ele>475</ele>
        <time>2015-04-10T15:42:35Z</time>
      </trkpt>
      <trkpt lat="46.15926" lon="2.47633">
        <ele>474</ele>
        <time>2015-04-10T15:42:37Z</time>
      </trkpt>
      <trkpt lat="46.15929" lon="2.47635">
        <ele>474</ele>
        <time>2015-04-10T15:42:39Z</time>
      </trkpt>
      <trkpt lat="46.15933" lon="2.47637">
        <ele>473</ele>
        <time>2015-04-10T15:42:41Z</time>
      </trkpt>
      <trkpt lat="46.15935" lon="2.47639">
        <ele>473</ele>
        <time>2015-04-10T15:42:43Z</time>
      </trkpt>
      <trkpt lat="46.15938" lon="2.4764">
        <ele>472</ele>
        <time>2015-04-10T15:42:45Z</time>
      </trkpt>
      <trkpt lat="46.15941" lon="2.47643">
        <ele>472</ele>
        <time>2015-04-10T15:42:47Z</time>
      </trkpt>
      <trkpt lat="46.15944" lon="2.47645">
        <ele>471</ele>
        <time>2015-04-10T15:42:49Z</time>
      </trkpt>
      <trkpt lat="46.15946" lon="2.47647">
        <ele>470</ele>
        <time>2015-04-10T15:42:51Z</time>
      </trkpt>
      <trkpt lat="46.1595" lon="2.4765">
        <ele>468</ele>
        <time>2015-04-10T15:42:54Z</time>
      </trkpt>
      <trkpt lat="46.15953" lon="2.47652">
        <ele>468</ele>
        <time>2015-04-10T15:42:56Z</time>
      </trkpt>
      <trkpt lat="46.15956" lon="2.47654">
        <ele>467</ele>
        <time>2015-04-10T15:42:58Z</time>
      </trkpt>
      <trkpt lat="46.15958" lon="2.47656">
        <ele>466</ele>
        <time>2015-04-10T15:43:00Z</time>
      </trkpt>
      <trkpt lat="46.15961" lon="2.47658">
        <ele>465</ele>
        <time>2015-04-10T15:43:02Z</time>
      </trkpt>
      <trkpt lat="46.15964" lon="2.47659">
        <ele>465</ele>
        <time>2015-04-10T15:43:04Z</time>
      </trkpt>
      <trkpt lat="46.15966" lon="2.47662">
        <ele>464</ele>
        <time>2015-04-10T15:43:06Z</time>
      </trkpt>
      <trkpt lat="46.15968" lon="2.47665">
        <ele>464</ele>
        <time>2015-04-10T15:43:08Z</time>
      </trkpt>
      <trkpt lat="46.15969" lon="2.47668">
        <ele>464</ele>
        <time>2015-04-10T15:43:10Z</time>
      </trkpt>
      <trkpt lat="46.15971" lon="2.47672">
        <ele>464</ele>
        <time>2015-04-10T15:43:12Z</time>
      </trkpt>
      <trkpt lat="46.15974" lon="2.47675">
        <ele>464</ele>
        <time>2015-04-10T15:43:14Z</time>
      </trkpt>
      <trkpt lat="46.15976" lon="2.47679">
        <ele>464</ele>
        <time>2015-04-10T15:43:16Z</time>
      </trkpt>
      <trkpt lat="46.15979" lon="2.47683">
        <ele>464</ele>
        <time>2015-04-10T15:43:18Z</time>
      </trkpt>
      <trkpt lat="46.15982" lon="2.47687">
        <ele>464</ele>
        <time>2015-04-10T15:43:20Z</time>
      </trkpt>
      <trkpt lat="46.15984" lon="2.47691">
        <ele>464</ele>
        <time>2015-04-10T15:43:22Z</time>
      </trkpt>
      <trkpt lat="46.15987" lon="2.47694">
        <ele>464</ele>
        <time>2015-04-10T15:43:24Z</time>
      </trkpt>
      <trkpt lat="46.15989" lon="2.47697">
        <ele>464</ele>
        <time>2015-04-10T15:43:26Z</time>
      </trkpt>
      <trkpt lat="46.15991" lon="2.477">
        <ele>464</ele>
        <time>2015-04-10T15:43:28Z</time>
      </trkpt>
      <trkpt lat="46.15994" lon="2.47704">
        <ele>464</ele>
        <time>2015-04-10T15:43:30Z</time>
      </trkpt>
      <trkpt lat="46.15997" lon="2.47707">
        <ele>464</ele>
        <time>2015-04-10T15:43:32Z</time>
      </trkpt>
      <trkpt lat="46.15999" lon="2.4771">
        <ele>464</ele>
        <time>2015-04-10T15:43:34Z</time>
      </trkpt>
      <trkpt lat="46.16002" lon="2.47712">
        <ele>464</ele>
        <time>2015-04-10T15:43:36Z</time>
      </trkpt>
      <trkpt lat="46.16005" lon="2.47715">
        <ele>464</ele>
        <time>2015-04-10T15:43:38Z</time>
      </trkpt>
      <trkpt lat="46.16008" lon="2.47716">
        <ele>464</ele>
        <time>2015-04-10T15:43:40Z</time>
      </trkpt>
      <trkpt lat="46.16011" lon="2.47718">
        <ele>464</ele>
        <time>2015-04-10T15:43:42Z</time>
      </trkpt>
      <trkpt lat="46.16014" lon="2.47721">
        <ele>464</ele>
        <time>2015-04-10T15:43:44Z</time>
      </trkpt>
      <trkpt lat="46.16017" lon="2.47723">
        <ele>464</ele>
        <time>2015-04-10T15:43:46Z</time>
      </trkpt>
      <trkpt lat="46.1602" lon="2.47725">
        <ele>464</ele>
        <time>2015-04-10T15:43:48Z</time>
      </trkpt>
      <trkpt lat="46.16023" lon="2.47727">
        <ele>464</ele>
        <time>2015-04-10T15:43:50Z</time>
      </trkpt>
      <trkpt lat="46.16027" lon="2.47729">
        <ele>464</ele>
        <time>2015-04-10T15:43:52Z</time>
      </trkpt>
      <trkpt lat="46.1603" lon="2.47731">
        <ele>464</ele>
        <time>2015-04-10T15:43:54Z</time>
      </trkpt>
      <trkpt lat="46.16034" lon="2.47731">
        <ele>464</ele>
        <time>2015-04-10T15:43:56Z</time>
      </trkpt>
      <trkpt lat="46.16037" lon="2.47731">
        <ele>464</ele>
        <time>2015-04-10T15:43:58Z</time>
      </trkpt>
      <trkpt lat="46.16042" lon="2.47731">
        <ele>464</ele>
        <time>2015-04-10T15:44:01Z</time>
      </trkpt>
      <trkpt lat="46.16045" lon="2.47732">
        <ele>464</ele>
        <time>2015-04-10T15:44:03Z</time>
      </trkpt>
      <trkpt lat="46.16049" lon="2.47734">
        <ele>464</ele>
        <time>2015-04-10T15:44:06Z</time>
      </trkpt>
      <trkpt lat="46.16053" lon="2.47736">
        <ele>464</ele>
        <time>2015-04-10T15:44:09Z</time>
      </trkpt>
      <trkpt lat="46.16057" lon="2.47737">
        <ele>464</ele>
        <time>2015-04-10T15:44:11Z</time>
      </trkpt>
      <trkpt lat="46.16062" lon="2.47737">
        <ele>464</ele>
        <time>2015-04-10T15:44:14Z</time>
      </trkpt>
      <trkpt lat="46.16066" lon="2.47738">
        <ele>464</ele>
        <time>2015-04-10T15:44:17Z</time>
      </trkpt>
      <trkpt lat="46.1607" lon="2.47739">
        <ele>464</ele>
        <time>2015-04-10T15:44:19Z</time>
      </trkpt>
      <trkpt lat="46.16074" lon="2.47739">
        <ele>464</ele>
        <time>2015-04-10T15:44:22Z</time>
      </trkpt>
      <trkpt lat="46.16079" lon="2.4774">
        <ele>464</ele>
        <time>2015-04-10T15:44:25Z</time>
      </trkpt>
      <trkpt lat="46.16082" lon="2.47741">
        <ele>464</ele>
        <time>2015-04-10T15:44:27Z</time>
      </trkpt>
      <trkpt lat="46.16087" lon="2.47743">
        <ele>464</ele>
        <time>2015-04-10T15:44:30Z</time>
      </trkpt>
      <trkpt lat="46.1609" lon="2.47743">
        <ele>464</ele>
        <time>2015-04-10T15:44:32Z</time>
      </trkpt>
      <trkpt lat="46.16093" lon="2.47744">
        <ele>464</ele>
        <time>2015-04-10T15:44:34Z</time>
      </trkpt>
      <trkpt lat="46.16098" lon="2.47745">
        <ele>464</ele>
        <time>2015-04-10T15:44:37Z</time>
      </trkpt>
      <trkpt lat="46.16101" lon="2.47746">
        <ele>464</ele>
        <time>2015-04-10T15:44:39Z</time>
      </trkpt>
      <trkpt lat="46.16104" lon="2.47747">
        <ele>464</ele>
        <time>2015-04-10T15:44:41Z</time>
      </trkpt>
      <trkpt lat="46.16107" lon="2.47748">
        <ele>464</ele>
        <time>2015-04-10T15:44:43Z</time>
      </trkpt>
      <trkpt lat="46.1611" lon="2.47749">
        <ele>464</ele>
        <time>2015-04-10T15:44:45Z</time>
      </trkpt>
      <trkpt lat="46.16114" lon="2.47751">
        <ele>464</ele>
        <time>2015-04-10T15:44:47Z</time>
      </trkpt>
      <trkpt lat="46.16117" lon="2.47752">
        <ele>464</ele>
        <time>2015-04-10T15:44:49Z</time>
      </trkpt>
      <trkpt lat="46.1612" lon="2.47754">
        <ele>464</ele>
        <time>2015-04-10T15:44:51Z</time>
      </trkpt>
      <trkpt lat="46.16124" lon="2.47756">
        <ele>464</ele>
        <time>2015-04-10T15:44:54Z</time>
      </trkpt>
      <trkpt lat="46.16128" lon="2.47758">
        <ele>464</ele>
        <time>2015-04-10T15:44:57Z</time>
      </trkpt>
      <trkpt lat="46.16131" lon="2.47759">
        <ele>464</ele>
        <time>2015-04-10T15:44:59Z</time>
      </trkpt>
      <trkpt lat="46.16136" lon="2.47762">
        <ele>464</ele>
        <time>2015-04-10T15:45:02Z</time>
      </trkpt>
      <trkpt lat="46.16139" lon="2.47763">
        <ele>464</ele>
        <time>2015-04-10T15:45:04Z</time>
      </trkpt>
      <trkpt lat="46.16142" lon="2.47765">
        <ele>464</ele>
        <time>2015-04-10T15:45:06Z</time>
      </trkpt>
      <trkpt lat="46.16145" lon="2.47767">
        <ele>464</ele>
        <time>2015-04-10T15:45:08Z</time>
      </trkpt>
      <trkpt lat="46.16148" lon="2.47768">
        <ele>464</ele>
        <time>2015-04-10T15:45:10Z</time>
      </trkpt>
      <trkpt lat="46.16153" lon="2.4777">
        <ele>464</ele>
        <time>2015-04-10T15:45:13Z</time>
      </trkpt>
      <trkpt lat="46.16155" lon="2.47772">
        <ele>464</ele>
        <time>2015-04-10T15:45:15Z</time>
      </trkpt>
      <trkpt lat="46.16159" lon="2.47775">
        <ele>464</ele>
        <time>2015-04-10T15:45:18Z</time>
      </trkpt>
      <trkpt lat="46.16162" lon="2.47778">
        <ele>464</ele>
        <time>2015-04-10T15:45:20Z</time>
      </trkpt>
      <trkpt lat="46.16165" lon="2.4778">
        <ele>464</ele>
        <time>2015-04-10T15:45:22Z</time>
      </trkpt>
      <trkpt lat="46.16168" lon="2.47782">
        <ele>465</ele>
        <time>2015-04-10T15:45:24Z</time>
      </trkpt>
      <trkpt lat="46.16171" lon="2.47783">
        <ele>465</ele>
        <time>2015-04-10T15:45:26Z</time>
      </trkpt>
      <trkpt lat="46.16176" lon="2.47785">
        <ele>466</ele>
        <time>2015-04-10T15:45:29Z</time>
      </trkpt>
      <trkpt lat="46.16179" lon="2.47787">
        <ele>466</ele>
        <time>2015-04-10T15:45:31Z</time>
      </trkpt>
      <trkpt lat="46.16183" lon="2.47789">
        <ele>466</ele>
        <time>2015-04-10T15:45:34Z</time>
      </trkpt>
      <trkpt lat="46.16187" lon="2.47791">
        <ele>466</ele>
        <time>2015-04-10T15:45:36Z</time>
      </trkpt>
      <trkpt lat="46.1619" lon="2.47792">
        <ele>466</ele>
        <time>2015-04-10T15:45:38Z</time>
      </trkpt>
      <trkpt lat="46.16193" lon="2.47794">
        <ele>466</ele>
        <time>2015-04-10T15:45:40Z</time>
      </trkpt>
      <trkpt lat="46.16196" lon="2.47795">
        <ele>466</ele>
        <time>2015-04-10T15:45:42Z</time>
      </trkpt>
      <trkpt lat="46.16199" lon="2.47797">
        <ele>466</ele>
        <time>2015-04-10T15:45:44Z</time>
      </trkpt>
      <trkpt lat="46.16203" lon="2.47798">
        <ele>467</ele>
        <time>2015-04-10T15:45:46Z</time>
      </trkpt>
      <trkpt lat="46.16206" lon="2.478">
        <ele>467</ele>
        <time>2015-04-10T15:45:48Z</time>
      </trkpt>
      <trkpt lat="46.1621" lon="2.47802">
        <ele>467</ele>
        <time>2015-04-10T15:45:51Z</time>
      </trkpt>
      <trkpt lat="46.16213" lon="2.47804">
        <ele>467</ele>
        <time>2015-04-10T15:45:53Z</time>
      </trkpt>
      <trkpt lat="46.16217" lon="2.47807">
        <ele>467</ele>
        <time>2015-04-10T15:45:56Z</time>
      </trkpt>
      <trkpt lat="46.1622" lon="2.47808">
        <ele>467</ele>
        <time>2015-04-10T15:45:58Z</time>
      </trkpt>
      <trkpt lat="46.16225" lon="2.47811">
        <ele>468</ele>
        <time>2015-04-10T15:46:01Z</time>
      </trkpt>
      <trkpt lat="46.16228" lon="2.47812">
        <ele>468</ele>
        <time>2015-04-10T15:46:03Z</time>
      </trkpt>
      <trkpt lat="46.16232" lon="2.47815">
        <ele>468</ele>
        <time>2015-04-10T15:46:06Z</time>
      </trkpt>
      <trkpt lat="46.16235" lon="2.47816">
        <ele>468</ele>
        <time>2015-04-10T15:46:08Z</time>
      </trkpt>
      <trkpt lat="46.16238" lon="2.47818">
        <ele>468</ele>
        <time>2015-04-10T15:46:10Z</time>
      </trkpt>
      <trkpt lat="46.16241" lon="2.47819">
        <ele>468</ele>
        <time>2015-04-10T15:46:12Z</time>
      </trkpt>
      <trkpt lat="46.16244" lon="2.47821">
        <ele>468</ele>
        <time>2015-04-10T15:46:14Z</time>
      </trkpt>
      <trkpt lat="46.16249" lon="2.47823">
        <ele>469</ele>
        <time>2015-04-10T15:46:17Z</time>
      </trkpt>
      <trkpt lat="46.16252" lon="2.47824">
        <ele>469</ele>
        <time>2015-04-10T15:46:19Z</time>
      </trkpt>
      <trkpt lat="46.16256" lon="2.47826">
        <ele>469</ele>
        <time>2015-04-10T15:46:22Z</time>
      </trkpt>
      <trkpt lat="46.16259" lon="2.47828">
        <ele>469</ele>
        <time>2015-04-10T15:46:24Z</time>
      </trkpt>
      <trkpt lat="46.16264" lon="2.4783">
        <ele>469</ele>
        <time>2015-04-10T15:46:27Z</time>
      </trkpt>
      <trkpt lat="46.16267" lon="2.4783">
        <ele>469</ele>
        <time>2015-04-10T15:46:29Z</time>
      </trkpt>
      <trkpt lat="46.16272" lon="2.47832">
        <ele>469</ele>
        <time>2015-04-10T15:46:32Z</time>
      </trkpt>
      <trkpt lat="46.16275" lon="2.47833">
        <ele>469</ele>
        <time>2015-04-10T15:46:34Z</time>
      </trkpt>
      <trkpt lat="46.1628" lon="2.47835">
        <ele>470</ele>
        <time>2015-04-10T15:46:37Z</time>
      </trkpt>
      <trkpt lat="46.16283" lon="2.47836">
        <ele>470</ele>
        <time>2015-04-10T15:46:39Z</time>
      </trkpt>
      <trkpt lat="46.16288" lon="2.47837">
        <ele>470</ele>
        <time>2015-04-10T15:46:42Z</time>
      </trkpt>
      <trkpt lat="46.16291" lon="2.47838">
        <ele>470</ele>
        <time>2015-04-10T15:46:44Z</time>
      </trkpt>
      <trkpt lat="46.16295" lon="2.4784">
        <ele>470</ele>
        <time>2015-04-10T15:46:47Z</time>
      </trkpt>
      <trkpt lat="46.16299" lon="2.47841">
        <ele>470</ele>
        <time>2015-04-10T15:46:49Z</time>
      </trkpt>
      <trkpt lat="46.16303" lon="2.47842">
        <ele>470</ele>
        <time>2015-04-10T15:46:52Z</time>
      </trkpt>
      <trkpt lat="46.16306" lon="2.47843">
        <ele>470</ele>
        <time>2015-04-10T15:46:54Z</time>
      </trkpt>
      <trkpt lat="46.16311" lon="2.47845">
        <ele>470</ele>
        <time>2015-04-10T15:46:57Z</time>
      </trkpt>
      <trkpt lat="46.16314" lon="2.47846">
        <ele>470</ele>
        <time>2015-04-10T15:46:59Z</time>
      </trkpt>
      <trkpt lat="46.16319" lon="2.47848">
        <ele>470</ele>
        <time>2015-04-10T15:47:02Z</time>
      </trkpt>
      <trkpt lat="46.16322" lon="2.47849">
        <ele>470</ele>
        <time>2015-04-10T15:47:04Z</time>
      </trkpt>
      <trkpt lat="46.16326" lon="2.47852">
        <ele>470</ele>
        <time>2015-04-10T15:47:07Z</time>
      </trkpt>
      <trkpt lat="46.16329" lon="2.47853">
        <ele>470</ele>
        <time>2015-04-10T15:47:09Z</time>
      </trkpt>
      <trkpt lat="46.16334" lon="2.47856">
        <ele>470</ele>
        <time>2015-04-10T15:47:12Z</time>
      </trkpt>
      <trkpt lat="46.16337" lon="2.47857">
        <ele>470</ele>
        <time>2015-04-10T15:47:14Z</time>
      </trkpt>
      <trkpt lat="46.16341" lon="2.47859">
        <ele>470</ele>
        <time>2015-04-10T15:47:17Z</time>
      </trkpt>
      <trkpt lat="46.16344" lon="2.47861">
        <ele>470</ele>
        <time>2015-04-10T15:47:19Z</time>
      </trkpt>
      <trkpt lat="46.16349" lon="2.47863">
        <ele>470</ele>
        <time>2015-04-10T15:47:22Z</time>
      </trkpt>
      <trkpt lat="46.16352" lon="2.47864">
        <ele>470</ele>
        <time>2015-04-10T15:47:24Z</time>
      </trkpt>
      <trkpt lat="46.16356" lon="2.47867">
        <ele>470</ele>
        <time>2015-04-10T15:47:27Z</time>
      </trkpt>
      <trkpt lat="46.16359" lon="2.47868">
        <ele>470</ele>
        <time>2015-04-10T15:47:29Z</time>
      </trkpt>
      <trkpt lat="46.16364" lon="2.4787">
        <ele>470</ele>
        <time>2015-04-10T15:47:32Z</time>
      </trkpt>
      <trkpt lat="46.16366" lon="2.47872">
        <ele>470</ele>
        <time>2015-04-10T15:47:34Z</time>
      </trkpt>
      <trkpt lat="46.16371" lon="2.47874">
        <ele>470</ele>
        <time>2015-04-10T15:47:37Z</time>
      </trkpt>
      <trkpt lat="46.16374" lon="2.47875">
        <ele>470</ele>
        <time>2015-04-10T15:47:39Z</time>
      </trkpt>
      <trkpt lat="46.16378" lon="2.47878">
        <ele>470</ele>
        <time>2015-04-10T15:47:42Z</time>
      </trkpt>
      <trkpt lat="46.16381" lon="2.4788">
        <ele>470</ele>
        <time>2015-04-10T15:47:44Z</time>
      </trkpt>
      <trkpt lat="46.16386" lon="2.47882">
        <ele>470</ele>
        <time>2015-04-10T15:47:47Z</time>
      </trkpt>
      <trkpt lat="46.16388" lon="2.47883">
        <ele>470</ele>
        <time>2015-04-10T15:47:49Z</time>
      </trkpt>
      <trkpt lat="46.16393" lon="2.47886">
        <ele>470</ele>
        <time>2015-04-10T15:47:52Z</time>
      </trkpt>
      <trkpt lat="46.16396" lon="2.47888">
        <ele>470</ele>
        <time>2015-04-10T15:47:54Z</time>
      </trkpt>
      <trkpt lat="46.164" lon="2.47891">
        <ele>470</ele>
        <time>2015-04-10T15:47:57Z</time>
      </trkpt>
      <trkpt lat="46.16403" lon="2.47892">
        <ele>470</ele>
        <time>2015-04-10T15:47:59Z</time>
      </trkpt>
      <trkpt lat="46.16408" lon="2.47893">
        <ele>470</ele>
        <time>2015-04-10T15:48:02Z</time>
      </trkpt>
      <trkpt lat="46.16411" lon="2.47894">
        <ele>470</ele>
        <time>2015-04-10T15:48:04Z</time>
      </trkpt>
      <trkpt lat="46.16416" lon="2.47894">
        <ele>470</ele>
        <time>2015-04-10T15:48:07Z</time>
      </trkpt>
      <trkpt lat="46.16419" lon="2.47893">
        <ele>470</ele>
        <time>2015-04-10T15:48:09Z</time>
      </trkpt>
      <trkpt lat="46.16424" lon="2.47892">
        <ele>470</ele>
        <time>2015-04-10T15:48:12Z</time>
      </trkpt>
      <trkpt lat="46.16427" lon="2.4789">
        <ele>470</ele>
        <time>2015-04-10T15:48:14Z</time>
      </trkpt>
      <trkpt lat="46.16431" lon="2.47887">
        <ele>470</ele>
        <time>2015-04-10T15:48:17Z</time>
      </trkpt>
      <trkpt lat="46.16433" lon="2.47885">
        <ele>470</ele>
        <time>2015-04-10T15:48:19Z</time>
      </trkpt>
      <trkpt lat="46.16438" lon="2.47882">
        <ele>470</ele>
        <time>2015-04-10T15:48:22Z</time>
      </trkpt>
      <trkpt lat="46.1644" lon="2.4788">
        <ele>470</ele>
        <time>2015-04-10T15:48:24Z</time>
      </trkpt>
      <trkpt lat="46.16443" lon="2.47878">
        <ele>470</ele>
        <time>2015-04-10T15:48:26Z</time>
      </trkpt>
      <trkpt lat="46.16446" lon="2.47877">
        <ele>470</ele>
        <time>2015-04-10T15:48:28Z</time>
      </trkpt>
      <trkpt lat="46.16449" lon="2.47876">
        <ele>470</ele>
        <time>2015-04-10T15:48:30Z</time>
      </trkpt>
      <trkpt lat="46.16452" lon="2.47876">
        <ele>470</ele>
        <time>2015-04-10T15:48:32Z</time>
      </trkpt>
      <trkpt lat="46.16455" lon="2.47876">
        <ele>470</ele>
        <time>2015-04-10T15:48:34Z</time>
      </trkpt>
      <trkpt lat="46.1646" lon="2.47878">
        <ele>470</ele>
        <time>2015-04-10T15:48:37Z</time>
      </trkpt>
      <trkpt lat="46.16463" lon="2.4788">
        <ele>470</ele>
        <time>2015-04-10T15:48:39Z</time>
      </trkpt>
      <trkpt lat="46.16467" lon="2.47885">
        <ele>470</ele>
        <time>2015-04-10T15:48:42Z</time>
      </trkpt>
      <trkpt lat="46.16469" lon="2.47888">
        <ele>470</ele>
        <time>2015-04-10T15:48:44Z</time>
      </trkpt>
      <trkpt lat="46.16472" lon="2.47894">
        <ele>470</ele>
        <time>2015-04-10T15:48:47Z</time>
      </trkpt>
      <trkpt lat="46.16473" lon="2.47897">
        <ele>470</ele>
        <time>2015-04-10T15:48:49Z</time>
      </trkpt>
      <trkpt lat="46.16475" lon="2.47904">
        <ele>470</ele>
        <time>2015-04-10T15:48:52Z</time>
      </trkpt>
      <trkpt lat="46.16477" lon="2.47908">
        <ele>470</ele>
        <time>2015-04-10T15:48:54Z</time>
      </trkpt>
      <trkpt lat="46.16479" lon="2.47915">
        <ele>470</ele>
        <time>2015-04-10T15:48:57Z</time>
      </trkpt>
      <trkpt lat="46.1648" lon="2.47919">
        <ele>470</ele>
        <time>2015-04-10T15:48:59Z</time>
      </trkpt>
      <trkpt lat="46.16482" lon="2.47926">
        <ele>470</ele>
        <time>2015-04-10T15:49:02Z</time>
      </trkpt>
      <trkpt lat="46.16484" lon="2.47929">
        <ele>470</ele>
        <time>2015-04-10T15:49:04Z</time>
      </trkpt>
      <trkpt lat="46.16487" lon="2.47935">
        <ele>470</ele>
        <time>2015-04-10T15:49:07Z</time>
      </trkpt>
      <trkpt lat="46.16489" lon="2.47938">
        <ele>470</ele>
        <time>2015-04-10T15:49:09Z</time>
      </trkpt>
      <trkpt lat="46.16492" lon="2.47943">
        <ele>470</ele>
        <time>2015-04-10T15:49:12Z</time>
      </trkpt>
      <trkpt lat="46.16495" lon="2.47946">
        <ele>470</ele>
        <time>2015-04-10T15:49:14Z</time>
      </trkpt>
      <trkpt lat="46.16499" lon="2.4795">
        <ele>470</ele>
        <time>2015-04-10T15:49:17Z</time>
      </trkpt>
      <trkpt lat="46.16502" lon="2.47952">
        <ele>470</ele>
        <time>2015-04-10T15:49:19Z</time>
      </trkpt>
      <trkpt lat="46.16506" lon="2.47956">
        <ele>470</ele>
        <time>2015-04-10T15:49:23Z</time>
      </trkpt>
      <trkpt lat="46.16509" lon="2.47959">
        <ele>470</ele>
        <time>2015-04-10T15:49:25Z</time>
      </trkpt>
      <trkpt lat="46.16511" lon="2.47961">
        <ele>470</ele>
        <time>2015-04-10T15:49:27Z</time>
      </trkpt>
      <trkpt lat="46.16514" lon="2.47964">
        <ele>470</ele>
        <time>2015-04-10T15:49:29Z</time>
      </trkpt>
      <trkpt lat="46.16517" lon="2.47965">
        <ele>470</ele>
        <time>2015-04-10T15:49:31Z</time>
      </trkpt>
      <trkpt lat="46.1652" lon="2.47968">
        <ele>470</ele>
        <time>2015-04-10T15:49:33Z</time>
      </trkpt>
      <trkpt lat="46.16523" lon="2.47971">
        <ele>470</ele>
        <time>2015-04-10T15:49:35Z</time>
      </trkpt>
      <trkpt lat="46.16526" lon="2.47972">
        <ele>470</ele>
        <time>2015-04-10T15:49:37Z</time>
      </trkpt>
      <trkpt lat="46.16528" lon="2.47974">
        <ele>470</ele>
        <time>2015-04-10T15:49:39Z</time>
      </trkpt>
      <trkpt lat="46.16533" lon="2.47977">
        <ele>470</ele>
        <time>2015-04-10T15:49:42Z</time>
      </trkpt>
      <trkpt lat="46.16536" lon="2.47979">
        <ele>470</ele>
        <time>2015-04-10T15:49:44Z</time>
      </trkpt>
      <trkpt lat="46.16539" lon="2.47982">
        <ele>470</ele>
        <time>2015-04-10T15:49:46Z</time>
      </trkpt>
      <trkpt lat="46.16542" lon="2.47984">
        <ele>470</ele>
        <time>2015-04-10T15:49:48Z</time>
      </trkpt>
      <trkpt lat="46.16544" lon="2.47986">
        <ele>470</ele>
        <time>2015-04-10T15:49:50Z</time>
      </trkpt>
      <trkpt lat="46.16547" lon="2.47988">
        <ele>470</ele>
        <time>2015-04-10T15:49:52Z</time>
      </trkpt>
      <trkpt lat="46.1655" lon="2.4799">
        <ele>470</ele>
        <time>2015-04-10T15:49:54Z</time>
      </trkpt>
      <trkpt lat="46.16553" lon="2.47993">
        <ele>470</ele>
        <time>2015-04-10T15:49:56Z</time>
      </trkpt>
      <trkpt lat="46.16555" lon="2.47995">
        <ele>470</ele>
        <time>2015-04-10T15:49:58Z</time>
      </trkpt>
      <trkpt lat="46.16558" lon="2.47997">
        <ele>470</ele>
        <time>2015-04-10T15:50:00Z</time>
      </trkpt>
      <trkpt lat="46.16561" lon="2.47999">
        <ele>470</ele>
        <time>2015-04-10T15:50:02Z</time>
      </trkpt>
      <trkpt lat="46.16563" lon="2.48002">
        <ele>470</ele>
        <time>2015-04-10T15:50:04Z</time>
      </trkpt>
      <trkpt lat="46.16568" lon="2.48005">
        <ele>470</ele>
        <time>2015-04-10T15:50:07Z</time>
      </trkpt>
      <trkpt lat="46.16571" lon="2.48007">
        <ele>470</ele>
        <time>2015-04-10T15:50:09Z</time>
      </trkpt>
      <trkpt lat="46.16573" lon="2.4801">
        <ele>470</ele>
        <time>2015-04-10T15:50:11Z</time>
      </trkpt>
      <trkpt lat="46.16576" lon="2.48013">
        <ele>470</ele>
        <time>2015-04-10T15:50:13Z</time>
      </trkpt>
      <trkpt lat="46.16579" lon="2.48015">
        <ele>470</ele>
        <time>2015-04-10T15:50:15Z</time>
      </trkpt>
      <trkpt lat="46.16581" lon="2.48018">
        <ele>470</ele>
        <time>2015-04-10T15:50:17Z</time>
      </trkpt>
      <trkpt lat="46.16585" lon="2.48021">
        <ele>470</ele>
        <time>2015-04-10T15:50:20Z</time>
      </trkpt>
      <trkpt lat="46.16587" lon="2.48023">
        <ele>470</ele>
        <time>2015-04-10T15:50:22Z</time>
      </trkpt>
      <trkpt lat="46.16589" lon="2.48024">
        <ele>470</ele>
        <time>2015-04-10T15:50:24Z</time>
      </trkpt>
      <trkpt lat="46.16592" lon="2.48026">
        <ele>470</ele>
        <time>2015-04-10T15:50:26Z</time>
      </trkpt>
      <trkpt lat="46.16595" lon="2.48028">
        <ele>470</ele>
        <time>2015-04-10T15:50:28Z</time>
      </trkpt>
      <trkpt lat="46.16598" lon="2.48031">
        <ele>470</ele>
        <time>2015-04-10T15:50:30Z</time>
      </trkpt>
      <trkpt lat="46.166" lon="2.48034">
        <ele>470</ele>
        <time>2015-04-10T15:50:32Z</time>
      </trkpt>
      <trkpt lat="46.16602" lon="2.48038">
        <ele>470</ele>
        <time>2015-04-10T15:50:34Z</time>
      </trkpt>
      <trkpt lat="46.16605" lon="2.48041">
        <ele>470</ele>
        <time>2015-04-10T15:50:36Z</time>
      </trkpt>
      <trkpt lat="46.16608" lon="2.48045">
        <ele>470</ele>
        <time>2015-04-10T15:50:38Z</time>
      </trkpt>
      <trkpt lat="46.1661" lon="2.48048">
        <ele>470</ele>
        <time>2015-04-10T15:50:40Z</time>
      </trkpt>
      <trkpt lat="46.16612" lon="2.48052">
        <ele>470</ele>
        <time>2015-04-10T15:50:42Z</time>
      </trkpt>
      <trkpt lat="46.16615" lon="2.48056">
        <ele>470</ele>
        <time>2015-04-10T15:50:44Z</time>
      </trkpt>
      <trkpt lat="46.16618" lon="2.48059">
        <ele>470</ele>
        <time>2015-04-10T15:50:46Z</time>
      </trkpt>
      <trkpt lat="46.16621" lon="2.48061">
        <ele>470</ele>
        <time>2015-04-10T15:50:48Z</time>
      </trkpt>
      <trkpt lat="46.16624" lon="2.48063">
        <ele>470</ele>
        <time>2015-04-10T15:50:50Z</time>
      </trkpt>
      <trkpt lat="46.16627" lon="2.48064">
        <ele>470</ele>
        <time>2015-04-10T15:50:52Z</time>
      </trkpt>
      <trkpt lat="46.16631" lon="2.48064">
        <ele>470</ele>
        <time>2015-04-10T15:50:54Z</time>
      </trkpt>
      <trkpt lat="46.16634" lon="2.48065">
        <ele>470</ele>
        <time>2015-04-10T15:50:56Z</time>
      </trkpt>
      <trkpt lat="46.16637" lon="2.48065">
        <ele>470</ele>
        <time>2015-04-10T15:50:58Z</time>
      </trkpt>
      <trkpt lat="46.1664" lon="2.48066">
        <ele>470</ele>
        <time>2015-04-10T15:51:00Z</time>
      </trkpt>
      <trkpt lat="46.16644" lon="2.48067">
        <ele>470</ele>
        <time>2015-04-10T15:51:02Z</time>
      </trkpt>
      <trkpt lat="46.16647" lon="2.48067">
        <ele>470</ele>
        <time>2015-04-10T15:51:04Z</time>
      </trkpt>
      <trkpt lat="46.1665" lon="2.48067">
        <ele>470</ele>
        <time>2015-04-10T15:51:06Z</time>
      </trkpt>
      <trkpt lat="46.16653" lon="2.48067">
        <ele>470</ele>
        <time>2015-04-10T15:51:08Z</time>
      </trkpt>
      <trkpt lat="46.16657" lon="2.48068">
        <ele>470</ele>
        <time>2015-04-10T15:51:10Z</time>
      </trkpt>
      <trkpt lat="46.1666" lon="2.48068">
        <ele>470</ele>
        <time>2015-04-10T15:51:12Z</time>
      </trkpt>
      <trkpt lat="46.16663" lon="2.48069">
        <ele>470</ele>
        <time>2015-04-10T15:51:14Z</time>
      </trkpt>
      <trkpt lat="46.16667" lon="2.4807">
        <ele>470</ele>
        <time>2015-04-10T15:51:16Z</time>
      </trkpt>
      <trkpt lat="46.1667" lon="2.4807">
        <ele>470</ele>
        <time>2015-04-10T15:51:18Z</time>
      </trkpt>
      <trkpt lat="46.16673" lon="2.4807">
        <ele>470</ele>
        <time>2015-04-10T15:51:20Z</time>
      </trkpt>
      <trkpt lat="46.16676" lon="2.48071">
        <ele>470</ele>
        <time>2015-04-10T15:51:22Z</time>
      </trkpt>
      <trkpt lat="46.16679" lon="2.48071">
        <ele>470</ele>
        <time>2015-04-10T15:51:24Z</time>
      </trkpt>
      <trkpt lat="46.16682" lon="2.48072">
        <ele>470</ele>
        <time>2015-04-10T15:51:26Z</time>
      </trkpt>
      <trkpt lat="46.16686" lon="2.48072">
        <ele>470</ele>
        <time>2015-04-10T15:51:28Z</time>
      </trkpt>
      <trkpt lat="46.16689" lon="2.48073">
        <ele>470</ele>
        <time>2015-04-10T15:51:30Z</time>
      </trkpt>
      <trkpt lat="46.16692" lon="2.48073">
        <ele>470</ele>
        <time>2015-04-10T15:51:32Z</time>
      </trkpt>
      <trkpt lat="46.16695" lon="2.48073">
        <ele>470</ele>
        <time>2015-04-10T15:51:34Z</time>
      </trkpt>
      <trkpt lat="46.16698" lon="2.48073">
        <ele>470</ele>
        <time>2015-04-10T15:51:36Z</time>
      </trkpt>
      <trkpt lat="46.16701" lon="2.48073">
        <ele>470</ele>
        <time>2015-04-10T15:51:38Z</time>
      </trkpt>
      <trkpt lat="46.16704" lon="2.48073">
        <ele>470</ele>
        <time>2015-04-10T15:51:40Z</time>
      </trkpt>
      <trkpt lat="46.16707" lon="2.48074">
        <ele>470</ele>
        <time>2015-04-10T15:51:42Z</time>
      </trkpt>
      <trkpt lat="46.16711" lon="2.48075">
        <ele>470</ele>
        <time>2015-04-10T15:51:44Z</time>
      </trkpt>
      <trkpt lat="46.16714" lon="2.48075">
        <ele>470</ele>
        <time>2015-04-10T15:51:46Z</time>
      </trkpt>
      <trkpt lat="46.16717" lon="2.48075">
        <ele>470</ele>
        <time>2015-04-10T15:51:48Z</time>
      </trkpt>
      <trkpt lat="46.1672" lon="2.48075">
        <ele>470</ele>
        <time>2015-04-10T15:51:50Z</time>
      </trkpt>
      <trkpt lat="46.16724" lon="2.48076">
        <ele>470</ele>
        <time>2015-04-10T15:51:52Z</time>
      </trkpt>
      <trkpt lat="46.16727" lon="2.48077">
        <ele>470</ele>
        <time>2015-04-10T15:51:54Z</time>
      </trkpt>
      <trkpt lat="46.1673" lon="2.48077">
        <ele>470</ele>
        <time>2015-04-10T15:51:56Z</time>
      </trkpt>
      <trkpt lat="46.16733" lon="2.48078">
        <ele>470</ele>
        <time>2015-04-10T15:51:58Z</time>
      </trkpt>
      <trkpt lat="46.16736" lon="2.48078">
        <ele>470</ele>
        <time>2015-04-10T15:52:00Z</time>
      </trkpt>
      <trkpt lat="46.1674" lon="2.48078">
        <ele>470</ele>
        <time>2015-04-10T15:52:02Z</time>
      </trkpt>
      <trkpt lat="46.16744" lon="2.48079">
        <ele>470</ele>
        <time>2015-04-10T15:52:04Z</time>
      </trkpt>
      <trkpt lat="46.16748" lon="2.4808">
        <ele>470</ele>
        <time>2015-04-10T15:52:06Z</time>
      </trkpt>
      <trkpt lat="46.16751" lon="2.48082">
        <ele>470</ele>
        <time>2015-04-10T15:52:08Z</time>
      </trkpt>
      <trkpt lat="46.16755" lon="2.48084">
        <ele>470</ele>
        <time>2015-04-10T15:52:10Z</time>
      </trkpt>
      <trkpt lat="46.16758" lon="2.48084">
        <ele>470</ele>
        <time>2015-04-10T15:52:12Z</time>
      </trkpt>
      <trkpt lat="46.16761" lon="2.48085">
        <ele>470</ele>
        <time>2015-04-10T15:52:14Z</time>
      </trkpt>
      <trkpt lat="46.16765" lon="2.48087">
        <ele>470</ele>
        <time>2015-04-10T15:52:16Z</time>
      </trkpt>
      <trkpt lat="46.16768" lon="2.48087">
        <ele>470</ele>
        <time>2015-04-10T15:52:18Z</time>
      </trkpt>
      <trkpt lat="46.16771" lon="2.48086">
        <ele>470</ele>
        <time>2015-04-10T15:52:21Z</time>
      </trkpt>
      <trkpt lat="46.16774" lon="2.48085">
        <ele>470</ele>
        <time>2015-04-10T15:52:23Z</time>
      </trkpt>
      <trkpt lat="46.16778" lon="2.48085">
        <ele>470</ele>
        <time>2015-04-10T15:52:25Z</time>
      </trkpt>
      <trkpt lat="46.16781" lon="2.48085">
        <ele>470</ele>
        <time>2015-04-10T15:52:27Z</time>
      </trkpt>
      <trkpt lat="46.16785" lon="2.48084">
        <ele>470</ele>
        <time>2015-04-10T15:52:29Z</time>
      </trkpt>
      <trkpt lat="46.16787" lon="2.48084">
        <ele>470</ele>
        <time>2015-04-10T15:52:31Z</time>
      </trkpt>
      <trkpt lat="46.16791" lon="2.48084">
        <ele>470</ele>
        <time>2015-04-10T15:52:33Z</time>
      </trkpt>
      <trkpt lat="46.16794" lon="2.48084">
        <ele>470</ele>
        <time>2015-04-10T15:52:35Z</time>
      </trkpt>
      <trkpt lat="46.16797" lon="2.48085">
        <ele>469</ele>
        <time>2015-04-10T15:52:37Z</time>
      </trkpt>
      <trkpt lat="46.168" lon="2.48085">
        <ele>469</ele>
        <time>2015-04-10T15:52:39Z</time>
      </trkpt>
      <trkpt lat="46.16803" lon="2.48086">
        <ele>469</ele>
        <time>2015-04-10T15:52:41Z</time>
      </trkpt>
      <trkpt lat="46.16805" lon="2.48086">
        <ele>469</ele>
        <time>2015-04-10T15:52:43Z</time>
      </trkpt>
      <trkpt lat="46.16804" lon="2.48084">
        <ele>469</ele>
        <time>2015-04-10T15:52:52Z</time>
      </trkpt>
      <trkpt lat="46.16803" lon="2.48086">
        <ele>469</ele>
        <time>2015-04-10T15:53:00Z</time>
      </trkpt>
      <trkpt lat="46.16805" lon="2.48086">
        <ele>470</ele>
        <time>2015-04-10T15:53:05Z</time>
      </trkpt>
      <trkpt lat="46.16808" lon="2.48086">
        <ele>470</ele>
        <time>2015-04-10T15:53:07Z</time>
      </trkpt>
      <trkpt lat="46.16811" lon="2.48086">
        <ele>470</ele>
        <time>2015-04-10T15:53:09Z</time>
      </trkpt>
      <trkpt lat="46.16815" lon="2.48087">
        <ele>470</ele>
        <time>2015-04-10T15:53:11Z</time>
      </trkpt>
      <trkpt lat="46.16818" lon="2.48087">
        <ele>470</ele>
        <time>2015-04-10T15:53:13Z</time>
      </trkpt>
      <trkpt lat="46.16822" lon="2.48087">
        <ele>470</ele>
        <time>2015-04-10T15:53:15Z</time>
      </trkpt>
      <trkpt lat="46.16826" lon="2.48088">
        <ele>470</ele>
        <time>2015-04-10T15:53:17Z</time>
      </trkpt>
      <trkpt lat="46.16829" lon="2.48088">
        <ele>470</ele>
        <time>2015-04-10T15:53:19Z</time>
      </trkpt>
      <trkpt lat="46.16833" lon="2.48089">
        <ele>470</ele>
        <time>2015-04-10T15:53:21Z</time>
      </trkpt>
      <trkpt lat="46.16837" lon="2.48089">
        <ele>470</ele>
        <time>2015-04-10T15:53:23Z</time>
      </trkpt>
      <trkpt lat="46.1684" lon="2.48088">
        <ele>470</ele>
        <time>2015-04-10T15:53:25Z</time>
      </trkpt>
      <trkpt lat="46.16843" lon="2.48088">
        <ele>470</ele>
        <time>2015-04-10T15:53:27Z</time>
      </trkpt>
      <trkpt lat="46.16845" lon="2.48087">
        <ele>470</ele>
        <time>2015-04-10T15:53:29Z</time>
      </trkpt>
      <trkpt lat="46.16849" lon="2.48087">
        <ele>470</ele>
        <time>2015-04-10T15:53:31Z</time>
      </trkpt>
      <trkpt lat="46.16853" lon="2.48088">
        <ele>470</ele>
        <time>2015-04-10T15:53:33Z</time>
      </trkpt>
      <trkpt lat="46.16856" lon="2.48089">
        <ele>470</ele>
        <time>2015-04-10T15:53:35Z</time>
      </trkpt>
      <trkpt lat="46.16859" lon="2.48089">
        <ele>470</ele>
        <time>2015-04-10T15:53:37Z</time>
      </trkpt>
      <trkpt lat="46.16863" lon="2.48089">
        <ele>469</ele>
        <time>2015-04-10T15:53:39Z</time>
      </trkpt>
      <trkpt lat="46.16866" lon="2.48089">
        <ele>469</ele>
        <time>2015-04-10T15:53:41Z</time>
      </trkpt>
      <trkpt lat="46.16869" lon="2.4809">
        <ele>469</ele>
        <time>2015-04-10T15:53:43Z</time>
      </trkpt>
      <trkpt lat="46.16873" lon="2.4809">
        <ele>469</ele>
        <time>2015-04-10T15:53:45Z</time>
      </trkpt>
      <trkpt lat="46.16877" lon="2.48091">
        <ele>469</ele>
        <time>2015-04-10T15:53:47Z</time>
      </trkpt>
      <trkpt lat="46.1688" lon="2.48092">
        <ele>469</ele>
        <time>2015-04-10T15:53:49Z</time>
      </trkpt>
      <trkpt lat="46.16884" lon="2.48092">
        <ele>469</ele>
        <time>2015-04-10T15:53:51Z</time>
      </trkpt>
      <trkpt lat="46.16887" lon="2.48093">
        <ele>469</ele>
        <time>2015-04-10T15:53:53Z</time>
      </trkpt>
      <trkpt lat="46.1689" lon="2.48093">
        <ele>469</ele>
        <time>2015-04-10T15:53:55Z</time>
      </trkpt>
      <trkpt lat="46.16894" lon="2.48094">
        <ele>469</ele>
        <time>2015-04-10T15:53:57Z</time>
      </trkpt>
      <trkpt lat="46.16897" lon="2.48094">
        <ele>469</ele>
        <time>2015-04-10T15:53:59Z</time>
      </trkpt>
      <trkpt lat="46.16901" lon="2.48095">
        <ele>469</ele>
        <time>2015-04-10T15:54:01Z</time>
      </trkpt>
      <trkpt lat="46.16904" lon="2.48095">
        <ele>469</ele>
        <time>2015-04-10T15:54:03Z</time>
      </trkpt>
      <trkpt lat="46.16907" lon="2.48095">
        <ele>469</ele>
        <time>2015-04-10T15:54:05Z</time>
      </trkpt>
      <trkpt lat="46.1691" lon="2.48095">
        <ele>469</ele>
        <time>2015-04-10T15:54:07Z</time>
      </trkpt>
      <trkpt lat="46.16913" lon="2.48094">
        <ele>469</ele>
        <time>2015-04-10T15:54:09Z</time>
      </trkpt>
      <trkpt lat="46.16917" lon="2.48095">
        <ele>469</ele>
        <time>2015-04-10T15:54:11Z</time>
      </trkpt>
      <trkpt lat="46.16921" lon="2.48096">
        <ele>469</ele>
        <time>2015-04-10T15:54:13Z</time>
      </trkpt>
      <trkpt lat="46.16925" lon="2.48097">
        <ele>469</ele>
        <time>2015-04-10T15:54:15Z</time>
      </trkpt>
      <trkpt lat="46.1693" lon="2.48099">
        <ele>469</ele>
        <time>2015-04-10T15:54:17Z</time>
      </trkpt>
      <trkpt lat="46.16933" lon="2.48099">
        <ele>469</ele>
        <time>2015-04-10T15:54:19Z</time>
      </trkpt>
      <trkpt lat="46.16936" lon="2.481">
        <ele>469</ele>
        <time>2015-04-10T15:54:21Z</time>
      </trkpt>
      <trkpt lat="46.16939" lon="2.481">
        <ele>469</ele>
        <time>2015-04-10T15:54:23Z</time>
      </trkpt>
      <trkpt lat="46.16942" lon="2.48099">
        <ele>469</ele>
        <time>2015-04-10T15:54:25Z</time>
      </trkpt>
      <trkpt lat="46.16945" lon="2.481">
        <ele>469</ele>
        <time>2015-04-10T15:54:27Z</time>
      </trkpt>
      <trkpt lat="46.16948" lon="2.48099">
        <ele>469</ele>
        <time>2015-04-10T15:54:29Z</time>
      </trkpt>
      <trkpt lat="46.16951" lon="2.481">
        <ele>468</ele>
        <time>2015-04-10T15:54:31Z</time>
      </trkpt>
      <trkpt lat="46.16954" lon="2.481">
        <ele>468</ele>
        <time>2015-04-10T15:54:33Z</time>
      </trkpt>
      <trkpt lat="46.16957" lon="2.481">
        <ele>468</ele>
        <time>2015-04-10T15:54:35Z</time>
      </trkpt>
      <trkpt lat="46.16961" lon="2.481">
        <ele>468</ele>
        <time>2015-04-10T15:54:37Z</time>
      </trkpt>
      <trkpt lat="46.16964" lon="2.48101">
        <ele>468</ele>
        <time>2015-04-10T15:54:39Z</time>
      </trkpt>
      <trkpt lat="46.16966" lon="2.481">
        <ele>468</ele>
        <time>2015-04-10T15:54:41Z</time>
      </trkpt>
      <trkpt lat="46.16969" lon="2.48099">
        <ele>468</ele>
        <time>2015-04-10T15:54:43Z</time>
      </trkpt>
      <trkpt lat="46.1697" lon="2.48098">
        <ele>468</ele>
        <time>2015-04-10T15:54:45Z</time>
      </trkpt>
      <trkpt lat="46.16973" lon="2.48098">
        <ele>468</ele>
        <time>2015-04-10T15:54:47Z</time>
      </trkpt>
      <trkpt lat="46.16976" lon="2.481">
        <ele>468</ele>
        <time>2015-04-10T15:54:49Z</time>
      </trkpt>
      <trkpt lat="46.1698" lon="2.48101">
        <ele>468</ele>
        <time>2015-04-10T15:54:51Z</time>
      </trkpt>
      <trkpt lat="46.16985" lon="2.48103">
        <ele>468</ele>
        <time>2015-04-10T15:54:53Z</time>
      </trkpt>
      <trkpt lat="46.16988" lon="2.48103">
        <ele>468</ele>
        <time>2015-04-10T15:54:55Z</time>
      </trkpt>
      <trkpt lat="46.16991" lon="2.48104">
        <ele>468</ele>
        <time>2015-04-10T15:54:57Z</time>
      </trkpt>
      <trkpt lat="46.16994" lon="2.48105">
        <ele>468</ele>
        <time>2015-04-10T15:54:59Z</time>
      </trkpt>
      <trkpt lat="46.16998" lon="2.48107">
        <ele>468</ele>
        <time>2015-04-10T15:55:01Z</time>
      </trkpt>
      <trkpt lat="46.17002" lon="2.48108">
        <ele>468</ele>
        <time>2015-04-10T15:55:03Z</time>
      </trkpt>
      <trkpt lat="46.17005" lon="2.48109">
        <ele>468</ele>
        <time>2015-04-10T15:55:05Z</time>
      </trkpt>
      <trkpt lat="46.17008" lon="2.48111">
        <ele>468</ele>
        <time>2015-04-10T15:55:07Z</time>
      </trkpt>
      <trkpt lat="46.17011" lon="2.48112">
        <ele>468</ele>
        <time>2015-04-10T15:55:09Z</time>
      </trkpt>
      <trkpt lat="46.17015" lon="2.48113">
        <ele>468</ele>
        <time>2015-04-10T15:55:11Z</time>
      </trkpt>
      <trkpt lat="46.17017" lon="2.48114">
        <ele>468</ele>
        <time>2015-04-10T15:55:13Z</time>
      </trkpt>
      <trkpt lat="46.1702" lon="2.48114">
        <ele>468</ele>
        <time>2015-04-10T15:55:15Z</time>
      </trkpt>
      <trkpt lat="46.17024" lon="2.48116">
        <ele>468</ele>
        <time>2015-04-10T15:55:17Z</time>
      </trkpt>
      <trkpt lat="46.17027" lon="2.48118">
        <ele>468</ele>
        <time>2015-04-10T15:55:19Z</time>
      </trkpt>
      <trkpt lat="46.1703" lon="2.48119">
        <ele>468</ele>
        <time>2015-04-10T15:55:21Z</time>
      </trkpt>
      <trkpt lat="46.17033" lon="2.48121">
        <ele>468</ele>
        <time>2015-04-10T15:55:23Z</time>
      </trkpt>
      <trkpt lat="46.17037" lon="2.48122">
        <ele>468</ele>
        <time>2015-04-10T15:55:25Z</time>
      </trkpt>
      <trkpt lat="46.1704" lon="2.48124">
        <ele>468</ele>
        <time>2015-04-10T15:55:27Z</time>
      </trkpt>
      <trkpt lat="46.17043" lon="2.48125">
        <ele>468</ele>
        <time>2015-04-10T15:55:29Z</time>
      </trkpt>
      <trkpt lat="46.17046" lon="2.48127">
        <ele>468</ele>
        <time>2015-04-10T15:55:31Z</time>
      </trkpt>
      <trkpt lat="46.17049" lon="2.4813">
        <ele>468</ele>
        <time>2015-04-10T15:55:33Z</time>
      </trkpt>
      <trkpt lat="46.17052" lon="2.4813">
        <ele>468</ele>
        <time>2015-04-10T15:55:35Z</time>
      </trkpt>
      <trkpt lat="46.17055" lon="2.48131">
        <ele>468</ele>
        <time>2015-04-10T15:55:37Z</time>
      </trkpt>
      <trkpt lat="46.17058" lon="2.48131">
        <ele>468</ele>
        <time>2015-04-10T15:55:39Z</time>
      </trkpt>
      <trkpt lat="46.17061" lon="2.48132">
        <ele>468</ele>
        <time>2015-04-10T15:55:41Z</time>
      </trkpt>
      <trkpt lat="46.17063" lon="2.48133">
        <ele>468</ele>
        <time>2015-04-10T15:55:43Z</time>
      </trkpt>
      <trkpt lat="46.17066" lon="2.48134">
        <ele>468</ele>
        <time>2015-04-10T15:55:45Z</time>
      </trkpt>
      <trkpt lat="46.17069" lon="2.48135">
        <ele>468</ele>
        <time>2015-04-10T15:55:47Z</time>
      </trkpt>
      <trkpt lat="46.17072" lon="2.48136">
        <ele>468</ele>
        <time>2015-04-10T15:55:49Z</time>
      </trkpt>
      <trkpt lat="46.17074" lon="2.48137">
        <ele>468</ele>
        <time>2015-04-10T15:55:51Z</time>
      </trkpt>
      <trkpt lat="46.17076" lon="2.48137">
        <ele>467</ele>
        <time>2015-04-10T15:55:53Z</time>
      </trkpt>
      <trkpt lat="46.17079" lon="2.48138">
        <ele>467</ele>
        <time>2015-04-10T15:55:55Z</time>
      </trkpt>
      <trkpt lat="46.17083" lon="2.4814">
        <ele>466</ele>
        <time>2015-04-10T15:55:57Z</time>
      </trkpt>
      <trkpt lat="46.17086" lon="2.48141">
        <ele>466</ele>
        <time>2015-04-10T15:55:59Z</time>
      </trkpt>
      <trkpt lat="46.17089" lon="2.48141">
        <ele>466</ele>
        <time>2015-04-10T15:56:01Z</time>
      </trkpt>
      <trkpt lat="46.17092" lon="2.48142">
        <ele>466</ele>
        <time>2015-04-10T15:56:03Z</time>
      </trkpt>
      <trkpt lat="46.17095" lon="2.48144">
        <ele>466</ele>
        <time>2015-04-10T15:56:05Z</time>
      </trkpt>
      <trkpt lat="46.17098" lon="2.48145">
        <ele>466</ele>
        <time>2015-04-10T15:56:07Z</time>
      </trkpt>
      <trkpt lat="46.17102" lon="2.48147">
        <ele>466</ele>
        <time>2015-04-10T15:56:09Z</time>
      </trkpt>
      <trkpt lat="46.17104" lon="2.48147">
        <ele>466</ele>
        <time>2015-04-10T15:56:11Z</time>
      </trkpt>
      <trkpt lat="46.17108" lon="2.48148">
        <ele>466</ele>
        <time>2015-04-10T15:56:13Z</time>
      </trkpt>
      <trkpt lat="46.17111" lon="2.4815">
        <ele>466</ele>
        <time>2015-04-10T15:56:15Z</time>
      </trkpt>
      <trkpt lat="46.17114" lon="2.48151">
        <ele>466</ele>
        <time>2015-04-10T15:56:17Z</time>
      </trkpt>
      <trkpt lat="46.17117" lon="2.48153">
        <ele>466</ele>
        <time>2015-04-10T15:56:19Z</time>
      </trkpt>
      <trkpt lat="46.1712" lon="2.48154">
        <ele>466</ele>
        <time>2015-04-10T15:56:21Z</time>
      </trkpt>
      <trkpt lat="46.17124" lon="2.48155">
        <ele>466</ele>
        <time>2015-04-10T15:56:23Z</time>
      </trkpt>
      <trkpt lat="46.17127" lon="2.48157">
        <ele>466</ele>
        <time>2015-04-10T15:56:25Z</time>
      </trkpt>
      <trkpt lat="46.1713" lon="2.48159">
        <ele>466</ele>
        <time>2015-04-10T15:56:27Z</time>
      </trkpt>
      <trkpt lat="46.17133" lon="2.4816">
        <ele>466</ele>
        <time>2015-04-10T15:56:29Z</time>
      </trkpt>
      <trkpt lat="46.17136" lon="2.48161">
        <ele>466</ele>
        <time>2015-04-10T15:56:31Z</time>
      </trkpt>
      <trkpt lat="46.1714" lon="2.48162">
        <ele>466</ele>
        <time>2015-04-10T15:56:33Z</time>
      </trkpt>
      <trkpt lat="46.17143" lon="2.48163">
        <ele>466</ele>
        <time>2015-04-10T15:56:35Z</time>
      </trkpt>
      <trkpt lat="46.17146" lon="2.48165">
        <ele>466</ele>
        <time>2015-04-10T15:56:37Z</time>
      </trkpt>
      <trkpt lat="46.17149" lon="2.48167">
        <ele>466</ele>
        <time>2015-04-10T15:56:39Z</time>
      </trkpt>
      <trkpt lat="46.17152" lon="2.48169">
        <ele>466</ele>
        <time>2015-04-10T15:56:41Z</time>
      </trkpt>
      <trkpt lat="46.17156" lon="2.4817">
        <ele>466</ele>
        <time>2015-04-10T15:56:43Z</time>
      </trkpt>
      <trkpt lat="46.17159" lon="2.48171">
        <ele>466</ele>
        <time>2015-04-10T15:56:45Z</time>
      </trkpt>
      <trkpt lat="46.17163" lon="2.48172">
        <ele>466</ele>
        <time>2015-04-10T15:56:47Z</time>
      </trkpt>
      <trkpt lat="46.17165" lon="2.48173">
        <ele>466</ele>
        <time>2015-04-10T15:56:49Z</time>
      </trkpt>
      <trkpt lat="46.17167" lon="2.48173">
        <ele>466</ele>
        <time>2015-04-10T15:56:51Z</time>
      </trkpt>
      <trkpt lat="46.1717" lon="2.48175">
        <ele>466</ele>
        <time>2015-04-10T15:56:53Z</time>
      </trkpt>
      <trkpt lat="46.17173" lon="2.48176">
        <ele>466</ele>
        <time>2015-04-10T15:56:55Z</time>
      </trkpt>
      <trkpt lat="46.17176" lon="2.48177">
        <ele>466</ele>
        <time>2015-04-10T15:56:57Z</time>
      </trkpt>
      <trkpt lat="46.1718" lon="2.48177">
        <ele>466</ele>
        <time>2015-04-10T15:56:59Z</time>
      </trkpt>
      <trkpt lat="46.17183" lon="2.48179">
        <ele>466</ele>
        <time>2015-04-10T15:57:01Z</time>
      </trkpt>
      <trkpt lat="46.17186" lon="2.4818">
        <ele>466</ele>
        <time>2015-04-10T15:57:03Z</time>
      </trkpt>
      <trkpt lat="46.1719" lon="2.48181">
        <ele>466</ele>
        <time>2015-04-10T15:57:05Z</time>
      </trkpt>
      <trkpt lat="46.17193" lon="2.48183">
        <ele>466</ele>
        <time>2015-04-10T15:57:07Z</time>
      </trkpt>
      <trkpt lat="46.17196" lon="2.48184">
        <ele>466</ele>
        <time>2015-04-10T15:57:09Z</time>
      </trkpt>
      <trkpt lat="46.17198" lon="2.48184">
        <ele>466</ele>
        <time>2015-04-10T15:57:11Z</time>
      </trkpt>
      <trkpt lat="46.17201" lon="2.48185">
        <ele>466</ele>
        <time>2015-04-10T15:57:13Z</time>
      </trkpt>
      <trkpt lat="46.17204" lon="2.48186">
        <ele>466</ele>
        <time>2015-04-10T15:57:15Z</time>
      </trkpt>
      <trkpt lat="46.17207" lon="2.48186">
        <ele>466</ele>
        <time>2015-04-10T15:57:17Z</time>
      </trkpt>
      <trkpt lat="46.1721" lon="2.48188">
        <ele>465</ele>
        <time>2015-04-10T15:57:19Z</time>
      </trkpt>
      <trkpt lat="46.17213" lon="2.48189">
        <ele>465</ele>
        <time>2015-04-10T15:57:21Z</time>
      </trkpt>
      <trkpt lat="46.17216" lon="2.4819">
        <ele>465</ele>
        <time>2015-04-10T15:57:23Z</time>
      </trkpt>
      <trkpt lat="46.1722" lon="2.48192">
        <ele>465</ele>
        <time>2015-04-10T15:57:25Z</time>
      </trkpt>
      <trkpt lat="46.17223" lon="2.48192">
        <ele>465</ele>
        <time>2015-04-10T15:57:27Z</time>
      </trkpt>
      <trkpt lat="46.17227" lon="2.48193">
        <ele>465</ele>
        <time>2015-04-10T15:57:29Z</time>
      </trkpt>
      <trkpt lat="46.1723" lon="2.48196">
        <ele>465</ele>
        <time>2015-04-10T15:57:31Z</time>
      </trkpt>
      <trkpt lat="46.17234" lon="2.48197">
        <ele>465</ele>
        <time>2015-04-10T15:57:33Z</time>
      </trkpt>
      <trkpt lat="46.17237" lon="2.48199">
        <ele>465</ele>
        <time>2015-04-10T15:57:35Z</time>
      </trkpt>
      <trkpt lat="46.1724" lon="2.482">
        <ele>465</ele>
        <time>2015-04-10T15:57:37Z</time>
      </trkpt>
      <trkpt lat="46.17243" lon="2.48202">
        <ele>465</ele>
        <time>2015-04-10T15:57:39Z</time>
      </trkpt>
      <trkpt lat="46.17246" lon="2.48203">
        <ele>465</ele>
        <time>2015-04-10T15:57:41Z</time>
      </trkpt>
      <trkpt lat="46.17248" lon="2.48204">
        <ele>465</ele>
        <time>2015-04-10T15:57:43Z</time>
      </trkpt>
      <trkpt lat="46.17252" lon="2.48205">
        <ele>465</ele>
        <time>2015-04-10T15:57:45Z</time>
      </trkpt>
      <trkpt lat="46.17255" lon="2.48207">
        <ele>465</ele>
        <time>2015-04-10T15:57:47Z</time>
      </trkpt>
      <trkpt lat="46.17258" lon="2.48207">
        <ele>465</ele>
        <time>2015-04-10T15:57:49Z</time>
      </trkpt>
      <trkpt lat="46.17262" lon="2.48207">
        <ele>465</ele>
        <time>2015-04-10T15:57:51Z</time>
      </trkpt>
      <trkpt lat="46.17265" lon="2.48208">
        <ele>465</ele>
        <time>2015-04-10T15:57:53Z</time>
      </trkpt>
      <trkpt lat="46.17268" lon="2.48209">
        <ele>465</ele>
        <time>2015-04-10T15:57:55Z</time>
      </trkpt>
      <trkpt lat="46.17271" lon="2.4821">
        <ele>465</ele>
        <time>2015-04-10T15:57:57Z</time>
      </trkpt>
      <trkpt lat="46.17274" lon="2.48209">
        <ele>464</ele>
        <time>2015-04-10T15:57:59Z</time>
      </trkpt>
      <trkpt lat="46.17278" lon="2.48209">
        <ele>464</ele>
        <time>2015-04-10T15:58:01Z</time>
      </trkpt>
      <trkpt lat="46.17281" lon="2.48208">
        <ele>464</ele>
        <time>2015-04-10T15:58:03Z</time>
      </trkpt>
      <trkpt lat="46.17284" lon="2.48208">
        <ele>464</ele>
        <time>2015-04-10T15:58:05Z</time>
      </trkpt>
      <trkpt lat="46.17288" lon="2.48207">
        <ele>464</ele>
        <time>2015-04-10T15:58:07Z</time>
      </trkpt>
      <trkpt lat="46.17291" lon="2.48206">
        <ele>464</ele>
        <time>2015-04-10T15:58:09Z</time>
      </trkpt>
      <trkpt lat="46.17294" lon="2.48205">
        <ele>464</ele>
        <time>2015-04-10T15:58:11Z</time>
      </trkpt>
      <trkpt lat="46.17297" lon="2.48205">
        <ele>464</ele>
        <time>2015-04-10T15:58:15Z</time>
      </trkpt>
      <trkpt lat="46.17298" lon="2.48205">
        <ele>464</ele>
        <time>2015-04-10T15:58:22Z</time>
      </trkpt>
      <trkpt lat="46.17299" lon="2.48204">
        <ele>464</ele>
        <time>2015-04-10T15:58:27Z</time>
      </trkpt>
      <trkpt lat="46.17301" lon="2.48204">
        <ele>464</ele>
        <time>2015-04-10T15:58:29Z</time>
      </trkpt>
      <trkpt lat="46.17303" lon="2.48204">
        <ele>464</ele>
        <time>2015-04-10T15:58:31Z</time>
      </trkpt>
      <trkpt lat="46.17305" lon="2.48204">
        <ele>464</ele>
        <time>2015-04-10T15:58:33Z</time>
      </trkpt>
      <trkpt lat="46.17308" lon="2.48203">
        <ele>464</ele>
        <time>2015-04-10T15:58:35Z</time>
      </trkpt>
      <trkpt lat="46.1731" lon="2.48204">
        <ele>464</ele>
        <time>2015-04-10T15:58:37Z</time>
      </trkpt>
      <trkpt lat="46.17312" lon="2.48203">
        <ele>464</ele>
        <time>2015-04-10T15:58:39Z</time>
      </trkpt>
      <trkpt lat="46.17314" lon="2.48201">
        <ele>464</ele>
        <time>2015-04-10T15:58:41Z</time>
      </trkpt>
      <trkpt lat="46.17317" lon="2.482">
        <ele>464</ele>
        <time>2015-04-10T15:58:43Z</time>
      </trkpt>
      <trkpt lat="46.17319" lon="2.48199">
        <ele>464</ele>
        <time>2015-04-10T15:58:45Z</time>
      </trkpt>
      <trkpt lat="46.17321" lon="2.48198">
        <ele>464</ele>
        <time>2015-04-10T15:58:47Z</time>
      </trkpt>
      <trkpt lat="46.17325" lon="2.48197">
        <ele>464</ele>
        <time>2015-04-10T15:58:50Z</time>
      </trkpt>
      <trkpt lat="46.17327" lon="2.48196">
        <ele>464</ele>
        <time>2015-04-10T15:58:52Z</time>
      </trkpt>
      <trkpt lat="46.17329" lon="2.48195">
        <ele>464</ele>
        <time>2015-04-10T15:58:54Z</time>
      </trkpt>
      <trkpt lat="46.17332" lon="2.48194">
        <ele>464</ele>
        <time>2015-04-10T15:58:56Z</time>
      </trkpt>
      <trkpt lat="46.17334" lon="2.48194">
        <ele>464</ele>
        <time>2015-04-10T15:58:58Z</time>
      </trkpt>
      <trkpt lat="46.17337" lon="2.48195">
        <ele>465</ele>
        <time>2015-04-10T15:59:00Z</time>
      </trkpt>
      <trkpt lat="46.17339" lon="2.48195">
        <ele>465</ele>
        <time>2015-04-10T15:59:02Z</time>
      </trkpt>
      <trkpt lat="46.1734" lon="2.48196">
        <ele>467</ele>
        <time>2015-04-10T15:59:04Z</time>
      </trkpt>
      <trkpt lat="46.17342" lon="2.48196">
        <ele>468</ele>
        <time>2015-04-10T15:59:06Z</time>
      </trkpt>
      <trkpt lat="46.17345" lon="2.48195">
        <ele>470</ele>
        <time>2015-04-10T15:59:08Z</time>
      </trkpt>
      <trkpt lat="46.17347" lon="2.48196">
        <ele>471</ele>
        <time>2015-04-10T15:59:10Z</time>
      </trkpt>
      <trkpt lat="46.17349" lon="2.48197">
        <ele>471</ele>
        <time>2015-04-10T15:59:12Z</time>
      </trkpt>
      <trkpt lat="46.17352" lon="2.48197">
        <ele>471</ele>
        <time>2015-04-10T15:59:14Z</time>
      </trkpt>
      <trkpt lat="46.17355" lon="2.48198">
        <ele>472</ele>
        <time>2015-04-10T15:59:17Z</time>
      </trkpt>
      <trkpt lat="46.17357" lon="2.48199">
        <ele>473</ele>
        <time>2015-04-10T15:59:19Z</time>
      </trkpt>
      <trkpt lat="46.1736" lon="2.48199">
        <ele>473</ele>
        <time>2015-04-10T15:59:22Z</time>
      </trkpt>
      <trkpt lat="46.17363" lon="2.48199">
        <ele>474</ele>
        <time>2015-04-10T15:59:24Z</time>
      </trkpt>
      <trkpt lat="46.17366" lon="2.482">
        <ele>475</ele>
        <time>2015-04-10T15:59:27Z</time>
      </trkpt>
      <trkpt lat="46.17368" lon="2.48201">
        <ele>475</ele>
        <time>2015-04-10T15:59:29Z</time>
      </trkpt>
      <trkpt lat="46.17372" lon="2.48202">
        <ele>475</ele>
        <time>2015-04-10T15:59:31Z</time>
      </trkpt>
      <trkpt lat="46.17374" lon="2.48201">
        <ele>475</ele>
        <time>2015-04-10T15:59:33Z</time>
      </trkpt>
      <trkpt lat="46.17376" lon="2.48202">
        <ele>475</ele>
        <time>2015-04-10T15:59:35Z</time>
      </trkpt>
      <trkpt lat="46.17379" lon="2.48203">
        <ele>475</ele>
        <time>2015-04-10T15:59:37Z</time>
      </trkpt>
      <trkpt lat="46.17382" lon="2.48206">
        <ele>475</ele>
        <time>2015-04-10T15:59:39Z</time>
      </trkpt>
      <trkpt lat="46.17385" lon="2.48208">
        <ele>475</ele>
        <time>2015-04-10T15:59:41Z</time>
      </trkpt>
      <trkpt lat="46.17388" lon="2.4821">
        <ele>475</ele>
        <time>2015-04-10T15:59:43Z</time>
      </trkpt>
      <trkpt lat="46.17391" lon="2.48213">
        <ele>475</ele>
        <time>2015-04-10T15:59:45Z</time>
      </trkpt>
      <trkpt lat="46.17396" lon="2.48214">
        <ele>475</ele>
        <time>2015-04-10T15:59:48Z</time>
      </trkpt>
      <trkpt lat="46.174" lon="2.48214">
        <ele>474</ele>
        <time>2015-04-10T15:59:50Z</time>
      </trkpt>
      <trkpt lat="46.17405" lon="2.48215">
        <ele>472</ele>
        <time>2015-04-10T15:59:52Z</time>
      </trkpt>
      <trkpt lat="46.17408" lon="2.48217">
        <ele>470</ele>
        <time>2015-04-10T15:59:54Z</time>
      </trkpt>
      <trkpt lat="46.17409" lon="2.4822">
        <ele>470</ele>
        <time>2015-04-10T15:59:56Z</time>
      </trkpt>
      <trkpt lat="46.17411" lon="2.48224">
        <ele>470</ele>
        <time>2015-04-10T15:59:58Z</time>
      </trkpt>
      <trkpt lat="46.17412" lon="2.48228">
        <ele>470</ele>
        <time>2015-04-10T16:00:00Z</time>
      </trkpt>
      <trkpt lat="46.17413" lon="2.48232">
        <ele>470</ele>
        <time>2015-04-10T16:00:02Z</time>
      </trkpt>
      <trkpt lat="46.17415" lon="2.48236">
        <ele>470</ele>
        <time>2015-04-10T16:00:04Z</time>
      </trkpt>
      <trkpt lat="46.17416" lon="2.4824">
        <ele>470</ele>
        <time>2015-04-10T16:00:06Z</time>
      </trkpt>
      <trkpt lat="46.17417" lon="2.48244">
        <ele>470</ele>
        <time>2015-04-10T16:00:08Z</time>
      </trkpt>
      <trkpt lat="46.17418" lon="2.48248">
        <ele>470</ele>
        <time>2015-04-10T16:00:10Z</time>
      </trkpt>
      <trkpt lat="46.17419" lon="2.48252">
        <ele>470</ele>
        <time>2015-04-10T16:00:12Z</time>
      </trkpt>
      <trkpt lat="46.17421" lon="2.48255">
        <ele>470</ele>
        <time>2015-04-10T16:00:14Z</time>
      </trkpt>
      <trkpt lat="46.17422" lon="2.48258">
        <ele>470</ele>
        <time>2015-04-10T16:00:17Z</time>
      </trkpt>
      <trkpt lat="46.17422" lon="2.4826">
        <ele>470</ele>
        <time>2015-04-10T16:00:25Z</time>
      </trkpt>
      <trkpt lat="46.17424" lon="2.48263">
        <ele>470</ele>
        <time>2015-04-10T16:00:27Z</time>
      </trkpt>
      <trkpt lat="46.17424" lon="2.48267">
        <ele>470</ele>
        <time>2015-04-10T16:00:29Z</time>
      </trkpt>
      <trkpt lat="46.17425" lon="2.48272">
        <ele>470</ele>
        <time>2015-04-10T16:00:31Z</time>
      </trkpt>
      <trkpt lat="46.17426" lon="2.48277">
        <ele>470</ele>
        <time>2015-04-10T16:00:33Z</time>
      </trkpt>
      <trkpt lat="46.17426" lon="2.48281">
        <ele>470</ele>
        <time>2015-04-10T16:00:35Z</time>
      </trkpt>
      <trkpt lat="46.17428" lon="2.48288">
        <ele>470</ele>
        <time>2015-04-10T16:00:38Z</time>
      </trkpt>
      <trkpt lat="46.17429" lon="2.48291">
        <ele>470</ele>
        <time>2015-04-10T16:00:40Z</time>
      </trkpt>
      <trkpt lat="46.17429" lon="2.48295">
        <ele>470</ele>
        <time>2015-04-10T16:00:42Z</time>
      </trkpt>
      <trkpt lat="46.1743" lon="2.48299">
        <ele>470</ele>
        <time>2015-04-10T16:00:44Z</time>
      </trkpt>
      <trkpt lat="46.17432" lon="2.48303">
        <ele>470</ele>
        <time>2015-04-10T16:00:46Z</time>
      </trkpt>
      <trkpt lat="46.17433" lon="2.48307">
        <ele>470</ele>
        <time>2015-04-10T16:00:48Z</time>
      </trkpt>
      <trkpt lat="46.17435" lon="2.48312">
        <ele>470</ele>
        <time>2015-04-10T16:00:50Z</time>
      </trkpt>
      <trkpt lat="46.17435" lon="2.48317">
        <ele>470</ele>
        <time>2015-04-10T16:00:52Z</time>
      </trkpt>
      <trkpt lat="46.17435" lon="2.48321">
        <ele>470</ele>
        <time>2015-04-10T16:00:54Z</time>
      </trkpt>
      <trkpt lat="46.17436" lon="2.48325">
        <ele>470</ele>
        <time>2015-04-10T16:00:56Z</time>
      </trkpt>
      <trkpt lat="46.17437" lon="2.48329">
        <ele>470</ele>
        <time>2015-04-10T16:00:58Z</time>
      </trkpt>
      <trkpt lat="46.17437" lon="2.48332">
        <ele>470</ele>
        <time>2015-04-10T16:01:00Z</time>
      </trkpt>
      <trkpt lat="46.17436" lon="2.48335">
        <ele>470</ele>
        <time>2015-04-10T16:01:02Z</time>
      </trkpt>
      <trkpt lat="46.17435" lon="2.48339">
        <ele>470</ele>
        <time>2015-04-10T16:01:04Z</time>
      </trkpt>
      <trkpt lat="46.17435" lon="2.48345">
        <ele>470</ele>
        <time>2015-04-10T16:01:06Z</time>
      </trkpt>
      <trkpt lat="46.17436" lon="2.4835">
        <ele>470</ele>
        <time>2015-04-10T16:01:08Z</time>
      </trkpt>
      <trkpt lat="46.17438" lon="2.48355">
        <ele>471</ele>
        <time>2015-04-10T16:01:10Z</time>
      </trkpt>
      <trkpt lat="46.17441" lon="2.48362">
        <ele>471</ele>
        <time>2015-04-10T16:01:13Z</time>
      </trkpt>
      <trkpt lat="46.17442" lon="2.48366">
        <ele>471</ele>
        <time>2015-04-10T16:01:15Z</time>
      </trkpt>
      <trkpt lat="46.17443" lon="2.48371">
        <ele>471</ele>
        <time>2015-04-10T16:01:17Z</time>
      </trkpt>
      <trkpt lat="46.17444" lon="2.48376">
        <ele>471</ele>
        <time>2015-04-10T16:01:19Z</time>
      </trkpt>
      <trkpt lat="46.17445" lon="2.4838">
        <ele>471</ele>
        <time>2015-04-10T16:01:21Z</time>
      </trkpt>
      <trkpt lat="46.17445" lon="2.48385">
        <ele>471</ele>
        <time>2015-04-10T16:01:23Z</time>
      </trkpt>
      <trkpt lat="46.17445" lon="2.48389">
        <ele>471</ele>
        <time>2015-04-10T16:01:25Z</time>
      </trkpt>
      <trkpt lat="46.17446" lon="2.48393">
        <ele>471</ele>
        <time>2015-04-10T16:01:27Z</time>
      </trkpt>
      <trkpt lat="46.17446" lon="2.48396">
        <ele>471</ele>
        <time>2015-04-10T16:01:29Z</time>
      </trkpt>
      <trkpt lat="46.17446" lon="2.484">
        <ele>472</ele>
        <time>2015-04-10T16:01:31Z</time>
      </trkpt>
      <trkpt lat="46.17447" lon="2.48405">
        <ele>473</ele>
        <time>2015-04-10T16:01:33Z</time>
      </trkpt>
      <trkpt lat="46.17447" lon="2.48409">
        <ele>473</ele>
        <time>2015-04-10T16:01:35Z</time>
      </trkpt>
      <trkpt lat="46.17447" lon="2.48413">
        <ele>473</ele>
        <time>2015-04-10T16:01:37Z</time>
      </trkpt>
      <trkpt lat="46.17446" lon="2.48418">
        <ele>473</ele>
        <time>2015-04-10T16:01:39Z</time>
      </trkpt>
      <trkpt lat="46.17447" lon="2.48423">
        <ele>473</ele>
        <time>2015-04-10T16:01:41Z</time>
      </trkpt>
      <trkpt lat="46.17448" lon="2.48429">
        <ele>473</ele>
        <time>2015-04-10T16:01:43Z</time>
      </trkpt>
      <trkpt lat="46.17448" lon="2.48433">
        <ele>473</ele>
        <time>2015-04-10T16:01:45Z</time>
      </trkpt>
      <trkpt lat="46.17449" lon="2.48438">
        <ele>473</ele>
        <time>2015-04-10T16:01:47Z</time>
      </trkpt>
      <trkpt lat="46.17448" lon="2.48443">
        <ele>473</ele>
        <time>2015-04-10T16:01:49Z</time>
      </trkpt>
      <trkpt lat="46.17447" lon="2.48448">
        <ele>473</ele>
        <time>2015-04-10T16:01:51Z</time>
      </trkpt>
      <trkpt lat="46.17447" lon="2.48452">
        <ele>473</ele>
        <time>2015-04-10T16:01:53Z</time>
      </trkpt>
      <trkpt lat="46.17448" lon="2.48459">
        <ele>473</ele>
        <time>2015-04-10T16:01:55Z</time>
      </trkpt>
      <trkpt lat="46.17449" lon="2.48465">
        <ele>473</ele>
        <time>2015-04-10T16:01:57Z</time>
      </trkpt>
      <trkpt lat="46.17448" lon="2.48468">
        <ele>473</ele>
        <time>2015-04-10T16:01:59Z</time>
      </trkpt>
      <trkpt lat="46.17448" lon="2.48473">
        <ele>473</ele>
        <time>2015-04-10T16:02:01Z</time>
      </trkpt>
      <trkpt lat="46.17449" lon="2.48477">
        <ele>473</ele>
        <time>2015-04-10T16:02:03Z</time>
      </trkpt>
      <trkpt lat="46.17448" lon="2.48481">
        <ele>473</ele>
        <time>2015-04-10T16:02:05Z</time>
      </trkpt>
      <trkpt lat="46.17447" lon="2.48485">
        <ele>473</ele>
        <time>2015-04-10T16:02:07Z</time>
      </trkpt>
      <trkpt lat="46.17447" lon="2.48489">
        <ele>473</ele>
        <time>2015-04-10T16:02:09Z</time>
      </trkpt>
      <trkpt lat="46.17446" lon="2.48493">
        <ele>473</ele>
        <time>2015-04-10T16:02:11Z</time>
      </trkpt>
      <trkpt lat="46.17445" lon="2.48497">
        <ele>473</ele>
        <time>2015-04-10T16:02:13Z</time>
      </trkpt>
      <trkpt lat="46.17442" lon="2.485">
        <ele>473</ele>
        <time>2015-04-10T16:02:15Z</time>
      </trkpt>
      <trkpt lat="46.1744" lon="2.48502">
        <ele>473</ele>
        <time>2015-04-10T16:02:17Z</time>
      </trkpt>
      <trkpt lat="46.17437" lon="2.48506">
        <ele>473</ele>
        <time>2015-04-10T16:02:19Z</time>
      </trkpt>
      <trkpt lat="46.17435" lon="2.4851">
        <ele>473</ele>
        <time>2015-04-10T16:02:21Z</time>
      </trkpt>
      <trkpt lat="46.17432" lon="2.48513">
        <ele>472</ele>
        <time>2015-04-10T16:02:23Z</time>
      </trkpt>
      <trkpt lat="46.1743" lon="2.48516">
        <ele>471</ele>
        <time>2015-04-10T16:02:25Z</time>
      </trkpt>
      <trkpt lat="46.1743" lon="2.4852">
        <ele>470</ele>
        <time>2015-04-10T16:02:27Z</time>
      </trkpt>
      <trkpt lat="46.17428" lon="2.48524">
        <ele>470</ele>
        <time>2015-04-10T16:02:29Z</time>
      </trkpt>
      <trkpt lat="46.17426" lon="2.48528">
        <ele>470</ele>
        <time>2015-04-10T16:02:31Z</time>
      </trkpt>
      <trkpt lat="46.17424" lon="2.48531">
        <ele>470</ele>
        <time>2015-04-10T16:02:33Z</time>
      </trkpt>
      <trkpt lat="46.17422" lon="2.48536">
        <ele>470</ele>
        <time>2015-04-10T16:02:35Z</time>
      </trkpt>
      <trkpt lat="46.17422" lon="2.48541">
        <ele>470</ele>
        <time>2015-04-10T16:02:37Z</time>
      </trkpt>
      <trkpt lat="46.1742" lon="2.48546">
        <ele>470</ele>
        <time>2015-04-10T16:02:39Z</time>
      </trkpt>
      <trkpt lat="46.1742" lon="2.4855">
        <ele>470</ele>
        <time>2015-04-10T16:02:41Z</time>
      </trkpt>
      <trkpt lat="46.1742" lon="2.48555">
        <ele>470</ele>
        <time>2015-04-10T16:02:43Z</time>
      </trkpt>
      <trkpt lat="46.17418" lon="2.48557">
        <ele>470</ele>
        <time>2015-04-10T16:02:46Z</time>
      </trkpt>
      <trkpt lat="46.17415" lon="2.48563">
        <ele>470</ele>
        <time>2015-04-10T16:02:48Z</time>
      </trkpt>
      <trkpt lat="46.17414" lon="2.48568">
        <ele>470</ele>
        <time>2015-04-10T16:02:50Z</time>
      </trkpt>
      <trkpt lat="46.17416" lon="2.48574">
        <ele>470</ele>
        <time>2015-04-10T16:02:52Z</time>
      </trkpt>
      <trkpt lat="46.17415" lon="2.4858">
        <ele>470</ele>
        <time>2015-04-10T16:02:54Z</time>
      </trkpt>
      <trkpt lat="46.17415" lon="2.48586">
        <ele>470</ele>
        <time>2015-04-10T16:02:56Z</time>
      </trkpt>
      <trkpt lat="46.17413" lon="2.4859">
        <ele>470</ele>
        <time>2015-04-10T16:02:58Z</time>
      </trkpt>
      <trkpt lat="46.17412" lon="2.48594">
        <ele>470</ele>
        <time>2015-04-10T16:03:00Z</time>
      </trkpt>
      <trkpt lat="46.17411" lon="2.48599">
        <ele>470</ele>
        <time>2015-04-10T16:03:02Z</time>
      </trkpt>
      <trkpt lat="46.17411" lon="2.48604">
        <ele>470</ele>
        <time>2015-04-10T16:03:04Z</time>
      </trkpt>
      <trkpt lat="46.17412" lon="2.48609">
        <ele>471</ele>
        <time>2015-04-10T16:03:06Z</time>
      </trkpt>
      <trkpt lat="46.17412" lon="2.48613">
        <ele>471</ele>
        <time>2015-04-10T16:03:08Z</time>
      </trkpt>
      <trkpt lat="46.17412" lon="2.48618">
        <ele>471</ele>
        <time>2015-04-10T16:03:10Z</time>
      </trkpt>
      <trkpt lat="46.17414" lon="2.48623">
        <ele>471</ele>
        <time>2015-04-10T16:03:12Z</time>
      </trkpt>
      <trkpt lat="46.17414" lon="2.48627">
        <ele>471</ele>
        <time>2015-04-10T16:03:14Z</time>
      </trkpt>
      <trkpt lat="46.17412" lon="2.48631">
        <ele>471</ele>
        <time>2015-04-10T16:03:16Z</time>
      </trkpt>
      <trkpt lat="46.17411" lon="2.48636">
        <ele>471</ele>
        <time>2015-04-10T16:03:18Z</time>
      </trkpt>
      <trkpt lat="46.1741" lon="2.48641">
        <ele>471</ele>
        <time>2015-04-10T16:03:20Z</time>
      </trkpt>
      <trkpt lat="46.1741" lon="2.48645">
        <ele>471</ele>
        <time>2015-04-10T16:03:22Z</time>
      </trkpt>
      <trkpt lat="46.17409" lon="2.48649">
        <ele>471</ele>
        <time>2015-04-10T16:03:24Z</time>
      </trkpt>
      <trkpt lat="46.17409" lon="2.48654">
        <ele>473</ele>
        <time>2015-04-10T16:03:26Z</time>
      </trkpt>
      <trkpt lat="46.17411" lon="2.4866">
        <ele>473</ele>
        <time>2015-04-10T16:03:28Z</time>
      </trkpt>
      <trkpt lat="46.17412" lon="2.48665">
        <ele>473</ele>
        <time>2015-04-10T16:03:30Z</time>
      </trkpt>
      <trkpt lat="46.17413" lon="2.48669">
        <ele>473</ele>
        <time>2015-04-10T16:03:32Z</time>
      </trkpt>
      <trkpt lat="46.17414" lon="2.48675">
        <ele>473</ele>
        <time>2015-04-10T16:03:34Z</time>
      </trkpt>
      <trkpt lat="46.17415" lon="2.48681">
        <ele>473</ele>
        <time>2015-04-10T16:03:36Z</time>
      </trkpt>
      <trkpt lat="46.17415" lon="2.48686">
        <ele>473</ele>
        <time>2015-04-10T16:03:38Z</time>
      </trkpt>
      <trkpt lat="46.17417" lon="2.4869">
        <ele>473</ele>
        <time>2015-04-10T16:03:40Z</time>
      </trkpt>
      <trkpt lat="46.17416" lon="2.48693">
        <ele>473</ele>
        <time>2015-04-10T16:03:42Z</time>
      </trkpt>
      <trkpt lat="46.17416" lon="2.48698">
        <ele>472</ele>
        <time>2015-04-10T16:03:44Z</time>
      </trkpt>
      <trkpt lat="46.17416" lon="2.48702">
        <ele>472</ele>
        <time>2015-04-10T16:03:46Z</time>
      </trkpt>
      <trkpt lat="46.17417" lon="2.48706">
        <ele>472</ele>
        <time>2015-04-10T16:03:48Z</time>
      </trkpt>
      <trkpt lat="46.17416" lon="2.48709">
        <ele>472</ele>
        <time>2015-04-10T16:03:50Z</time>
      </trkpt>
      <trkpt lat="46.17418" lon="2.48714">
        <ele>472</ele>
        <time>2015-04-10T16:03:52Z</time>
      </trkpt>
      <trkpt lat="46.1742" lon="2.48718">
        <ele>472</ele>
        <time>2015-04-10T16:03:55Z</time>
      </trkpt>
      <trkpt lat="46.17424" lon="2.48719">
        <ele>472</ele>
        <time>2015-04-10T16:03:57Z</time>
      </trkpt>
      <trkpt lat="46.17427" lon="2.48719">
        <ele>472</ele>
        <time>2015-04-10T16:03:59Z</time>
      </trkpt>
      <trkpt lat="46.17431" lon="2.48717">
        <ele>472</ele>
        <time>2015-04-10T16:04:01Z</time>
      </trkpt>
      <trkpt lat="46.17435" lon="2.48716">
        <ele>472</ele>
        <time>2015-04-10T16:04:03Z</time>
      </trkpt>
      <trkpt lat="46.17441" lon="2.48718">
        <ele>471</ele>
        <time>2015-04-10T16:04:05Z</time>
      </trkpt>
      <trkpt lat="46.17442" lon="2.48722">
        <ele>469</ele>
        <time>2015-04-10T16:04:07Z</time>
      </trkpt>
      <trkpt lat="46.17445" lon="2.48725">
        <ele>467</ele>
        <time>2015-04-10T16:04:09Z</time>
      </trkpt>
      <trkpt lat="46.17448" lon="2.48728">
        <ele>466</ele>
        <time>2015-04-10T16:04:11Z</time>
      </trkpt>
      <trkpt lat="46.17451" lon="2.48728">
        <ele>466</ele>
        <time>2015-04-10T16:04:13Z</time>
      </trkpt>
      <trkpt lat="46.17454" lon="2.48729">
        <ele>465</ele>
        <time>2015-04-10T16:04:15Z</time>
      </trkpt>
      <trkpt lat="46.17457" lon="2.48729">
        <ele>465</ele>
        <time>2015-04-10T16:04:17Z</time>
      </trkpt>
      <trkpt lat="46.1746" lon="2.48728">
        <ele>465</ele>
        <time>2015-04-10T16:04:19Z</time>
      </trkpt>
      <trkpt lat="46.17463" lon="2.48729">
        <ele>465</ele>
        <time>2015-04-10T16:04:22Z</time>
      </trkpt>
      <trkpt lat="46.17467" lon="2.4873">
        <ele>465</ele>
        <time>2015-04-10T16:04:24Z</time>
      </trkpt>
      <trkpt lat="46.17471" lon="2.48731">
        <ele>465</ele>
        <time>2015-04-10T16:04:26Z</time>
      </trkpt>
      <trkpt lat="46.17474" lon="2.48731">
        <ele>465</ele>
        <time>2015-04-10T16:04:28Z</time>
      </trkpt>
      <trkpt lat="46.17477" lon="2.48731">
        <ele>465</ele>
        <time>2015-04-10T16:04:30Z</time>
      </trkpt>
      <trkpt lat="46.17481" lon="2.48732">
        <ele>465</ele>
        <time>2015-04-10T16:04:32Z</time>
      </trkpt>
      <trkpt lat="46.17484" lon="2.48732">
        <ele>465</ele>
        <time>2015-04-10T16:04:34Z</time>
      </trkpt>
      <trkpt lat="46.17488" lon="2.48733">
        <ele>465</ele>
        <time>2015-04-10T16:04:36Z</time>
      </trkpt>
      <trkpt lat="46.17492" lon="2.48732">
        <ele>465</ele>
        <time>2015-04-10T16:04:38Z</time>
      </trkpt>
      <trkpt lat="46.17497" lon="2.48733">
        <ele>465</ele>
        <time>2015-04-10T16:04:40Z</time>
      </trkpt>
      <trkpt lat="46.17501" lon="2.48735">
        <ele>466</ele>
        <time>2015-04-10T16:04:42Z</time>
      </trkpt>
      <trkpt lat="46.17504" lon="2.48733">
        <ele>467</ele>
        <time>2015-04-10T16:04:44Z</time>
      </trkpt>
      <trkpt lat="46.17508" lon="2.4873">
        <ele>467</ele>
        <time>2015-04-10T16:04:46Z</time>
      </trkpt>
      <trkpt lat="46.17512" lon="2.48728">
        <ele>467</ele>
        <time>2015-04-10T16:04:48Z</time>
      </trkpt>
      <trkpt lat="46.17513" lon="2.48723">
        <ele>467</ele>
        <time>2015-04-10T16:04:50Z</time>
      </trkpt>
      <trkpt lat="46.17516" lon="2.4872">
        <ele>467</ele>
        <time>2015-04-10T16:04:52Z</time>
      </trkpt>
      <trkpt lat="46.17517" lon="2.48717">
        <ele>467</ele>
        <time>2015-04-10T16:04:54Z</time>
      </trkpt>
      <trkpt lat="46.17519" lon="2.48714">
        <ele>468</ele>
        <time>2015-04-10T16:04:56Z</time>
      </trkpt>
      <trkpt lat="46.17522" lon="2.48711">
        <ele>468</ele>
        <time>2015-04-10T16:04:58Z</time>
      </trkpt>
      <trkpt lat="46.17526" lon="2.48709">
        <ele>468</ele>
        <time>2015-04-10T16:05:00Z</time>
      </trkpt>
      <trkpt lat="46.17529" lon="2.48708">
        <ele>468</ele>
        <time>2015-04-10T16:05:02Z</time>
      </trkpt>
      <trkpt lat="46.17532" lon="2.48706">
        <ele>469</ele>
        <time>2015-04-10T16:05:04Z</time>
      </trkpt>
      <trkpt lat="46.17538" lon="2.48705">
        <ele>469</ele>
        <time>2015-04-10T16:05:06Z</time>
      </trkpt>
      <trkpt lat="46.17542" lon="2.48705">
        <ele>469</ele>
        <time>2015-04-10T16:05:08Z</time>
      </trkpt>
      <trkpt lat="46.17545" lon="2.48703">
        <ele>469</ele>
        <time>2015-04-10T16:05:10Z</time>
      </trkpt>
      <trkpt lat="46.17549" lon="2.48703">
        <ele>469</ele>
        <time>2015-04-10T16:05:12Z</time>
      </trkpt>
      <trkpt lat="46.17552" lon="2.48702">
        <ele>469</ele>
        <time>2015-04-10T16:05:14Z</time>
      </trkpt>
      <trkpt lat="46.17595" lon="2.48656">
        <ele>466</ele>
        <time>2015-04-10T16:05:18Z</time>
      </trkpt>
      <trkpt lat="46.17597" lon="2.48652">
        <ele>465</ele>
        <time>2015-04-10T16:05:20Z</time>
      </trkpt>
      <trkpt lat="46.17599" lon="2.48649">
        <ele>465</ele>
        <time>2015-04-10T16:05:22Z</time>
      </trkpt>
      <trkpt lat="46.17601" lon="2.48646">
        <ele>464</ele>
        <time>2015-04-10T16:05:24Z</time>
      </trkpt>
      <trkpt lat="46.17605" lon="2.48645">
        <ele>463</ele>
        <time>2015-04-10T16:05:26Z</time>
      </trkpt>
      <trkpt lat="46.1761" lon="2.48643">
        <ele>462</ele>
        <time>2015-04-10T16:05:28Z</time>
      </trkpt>
      <trkpt lat="46.17613" lon="2.4864">
        <ele>461</ele>
        <time>2015-04-10T16:05:30Z</time>
      </trkpt>
      <trkpt lat="46.17615" lon="2.48638">
        <ele>461</ele>
        <time>2015-04-10T16:05:32Z</time>
      </trkpt>
      <trkpt lat="46.17618" lon="2.48635">
        <ele>461</ele>
        <time>2015-04-10T16:05:34Z</time>
      </trkpt>
      <trkpt lat="46.1762" lon="2.48632">
        <ele>461</ele>
        <time>2015-04-10T16:05:36Z</time>
      </trkpt>
      <trkpt lat="46.17622" lon="2.48629">
        <ele>461</ele>
        <time>2015-04-10T16:05:38Z</time>
      </trkpt>
      <trkpt lat="46.17625" lon="2.48625">
        <ele>461</ele>
        <time>2015-04-10T16:05:40Z</time>
      </trkpt>
      <trkpt lat="46.17627" lon="2.48624">
        <ele>461</ele>
        <time>2015-04-10T16:05:42Z</time>
      </trkpt>
      <trkpt lat="46.17629" lon="2.48621">
        <ele>461</ele>
        <time>2015-04-10T16:05:44Z</time>
      </trkpt>
      <trkpt lat="46.17633" lon="2.4862">
        <ele>461</ele>
        <time>2015-04-10T16:05:46Z</time>
      </trkpt>
      <trkpt lat="46.17635" lon="2.48619">
        <ele>461</ele>
        <time>2015-04-10T16:05:48Z</time>
      </trkpt>
      <trkpt lat="46.17638" lon="2.48619">
        <ele>461</ele>
        <time>2015-04-10T16:05:50Z</time>
      </trkpt>
      <trkpt lat="46.17642" lon="2.48617">
        <ele>461</ele>
        <time>2015-04-10T16:05:53Z</time>
      </trkpt>
      <trkpt lat="46.17645" lon="2.48617">
        <ele>461</ele>
        <time>2015-04-10T16:05:55Z</time>
      </trkpt>
      <trkpt lat="46.17649" lon="2.48617">
        <ele>461</ele>
        <time>2015-04-10T16:05:57Z</time>
      </trkpt>
      <trkpt lat="46.17653" lon="2.48616">
        <ele>460</ele>
        <time>2015-04-10T16:06:00Z</time>
      </trkpt>
      <trkpt lat="46.17656" lon="2.48616">
        <ele>460</ele>
        <time>2015-04-10T16:06:02Z</time>
      </trkpt>
      <trkpt lat="46.1766" lon="2.48615">
        <ele>460</ele>
        <time>2015-04-10T16:06:04Z</time>
      </trkpt>
      <trkpt lat="46.17663" lon="2.48615">
        <ele>460</ele>
        <time>2015-04-10T16:06:06Z</time>
      </trkpt>
      <trkpt lat="46.17666" lon="2.48615">
        <ele>460</ele>
        <time>2015-04-10T16:06:08Z</time>
      </trkpt>
      <trkpt lat="46.17669" lon="2.48615">
        <ele>460</ele>
        <time>2015-04-10T16:06:10Z</time>
      </trkpt>
      <trkpt lat="46.17672" lon="2.48615">
        <ele>460</ele>
        <time>2015-04-10T16:06:12Z</time>
      </trkpt>
      <trkpt lat="46.17674" lon="2.48616">
        <ele>460</ele>
        <time>2015-04-10T16:06:14Z</time>
      </trkpt>
      <trkpt lat="46.17677" lon="2.48619">
        <ele>460</ele>
        <time>2015-04-10T16:06:16Z</time>
      </trkpt>
      <trkpt lat="46.17679" lon="2.48623">
        <ele>460</ele>
        <time>2015-04-10T16:06:19Z</time>
      </trkpt>
      <trkpt lat="46.1768" lon="2.48627">
        <ele>459</ele>
        <time>2015-04-10T16:06:21Z</time>
      </trkpt>
      <trkpt lat="46.17681" lon="2.48631">
        <ele>459</ele>
        <time>2015-04-10T16:06:23Z</time>
      </trkpt>
      <trkpt lat="46.17682" lon="2.48635">
        <ele>459</ele>
        <time>2015-04-10T16:06:25Z</time>
      </trkpt>
      <trkpt lat="46.17682" lon="2.48639">
        <ele>459</ele>
        <time>2015-04-10T16:06:27Z</time>
      </trkpt>
      <trkpt lat="46.17683" lon="2.48644">
        <ele>459</ele>
        <time>2015-04-10T16:06:29Z</time>
      </trkpt>
      <trkpt lat="46.17684" lon="2.48648">
        <ele>459</ele>
        <time>2015-04-10T16:06:31Z</time>
      </trkpt>
      <trkpt lat="46.17684" lon="2.48653">
        <ele>459</ele>
        <time>2015-04-10T16:06:33Z</time>
      </trkpt>
      <trkpt lat="46.17684" lon="2.48657">
        <ele>459</ele>
        <time>2015-04-10T16:06:35Z</time>
      </trkpt>
      <trkpt lat="46.17686" lon="2.4866">
        <ele>459</ele>
        <time>2015-04-10T16:06:37Z</time>
      </trkpt>
      <trkpt lat="46.17689" lon="2.48662">
        <ele>459</ele>
        <time>2015-04-10T16:06:39Z</time>
      </trkpt>
      <trkpt lat="46.17691" lon="2.48665">
        <ele>459</ele>
        <time>2015-04-10T16:06:41Z</time>
      </trkpt>
      <trkpt lat="46.17694" lon="2.48669">
        <ele>458</ele>
        <time>2015-04-10T16:06:44Z</time>
      </trkpt>
      <trkpt lat="46.17697" lon="2.48673">
        <ele>458</ele>
        <time>2015-04-10T16:06:46Z</time>
      </trkpt>
      <trkpt lat="46.17699" lon="2.48677">
        <ele>458</ele>
        <time>2015-04-10T16:06:48Z</time>
      </trkpt>
      <trkpt lat="46.17701" lon="2.4868">
        <ele>458</ele>
        <time>2015-04-10T16:06:50Z</time>
      </trkpt>
      <trkpt lat="46.17703" lon="2.48683">
        <ele>457</ele>
        <time>2015-04-10T16:06:52Z</time>
      </trkpt>
      <trkpt lat="46.17706" lon="2.48686">
        <ele>457</ele>
        <time>2015-04-10T16:06:54Z</time>
      </trkpt>
      <trkpt lat="46.17708" lon="2.48688">
        <ele>456</ele>
        <time>2015-04-10T16:06:56Z</time>
      </trkpt>
      <trkpt lat="46.1771" lon="2.48691">
        <ele>456</ele>
        <time>2015-04-10T16:06:58Z</time>
      </trkpt>
      <trkpt lat="46.17712" lon="2.48696">
        <ele>456</ele>
        <time>2015-04-10T16:07:00Z</time>
      </trkpt>
      <trkpt lat="46.17712" lon="2.48701">
        <ele>456</ele>
        <time>2015-04-10T16:07:02Z</time>
      </trkpt>
      <trkpt lat="46.17712" lon="2.48706">
        <ele>455</ele>
        <time>2015-04-10T16:07:04Z</time>
      </trkpt>
      <trkpt lat="46.17712" lon="2.4871">
        <ele>455</ele>
        <time>2015-04-10T16:07:06Z</time>
      </trkpt>
      <trkpt lat="46.17712" lon="2.48715">
        <ele>455</ele>
        <time>2015-04-10T16:07:08Z</time>
      </trkpt>
      <trkpt lat="46.17712" lon="2.48721">
        <ele>455</ele>
        <time>2015-04-10T16:07:10Z</time>
      </trkpt>
      <trkpt lat="46.17712" lon="2.48726">
        <ele>455</ele>
        <time>2015-04-10T16:07:12Z</time>
      </trkpt>
      <trkpt lat="46.17713" lon="2.48731">
        <ele>455</ele>
        <time>2015-04-10T16:07:14Z</time>
      </trkpt>
      <trkpt lat="46.17714" lon="2.48736">
        <ele>455</ele>
        <time>2015-04-10T16:07:16Z</time>
      </trkpt>
      <trkpt lat="46.17715" lon="2.4874">
        <ele>455</ele>
        <time>2015-04-10T16:07:18Z</time>
      </trkpt>
      <trkpt lat="46.17716" lon="2.48744">
        <ele>455</ele>
        <time>2015-04-10T16:07:20Z</time>
      </trkpt>
      <trkpt lat="46.17717" lon="2.48748">
        <ele>455</ele>
        <time>2015-04-10T16:07:22Z</time>
      </trkpt>
      <trkpt lat="46.17717" lon="2.48753">
        <ele>455</ele>
        <time>2015-04-10T16:07:24Z</time>
      </trkpt>
      <trkpt lat="46.17718" lon="2.48758">
        <ele>455</ele>
        <time>2015-04-10T16:07:26Z</time>
      </trkpt>
      <trkpt lat="46.17719" lon="2.48762">
        <ele>455</ele>
        <time>2015-04-10T16:07:28Z</time>
      </trkpt>
      <trkpt lat="46.1772" lon="2.48767">
        <ele>455</ele>
        <time>2015-04-10T16:07:30Z</time>
      </trkpt>
      <trkpt lat="46.17721" lon="2.48771">
        <ele>455</ele>
        <time>2015-04-10T16:07:32Z</time>
      </trkpt>
      <trkpt lat="46.17721" lon="2.48776">
        <ele>455</ele>
        <time>2015-04-10T16:07:34Z</time>
      </trkpt>
      <trkpt lat="46.17722" lon="2.4878">
        <ele>455</ele>
        <time>2015-04-10T16:07:36Z</time>
      </trkpt>
      <trkpt lat="46.17722" lon="2.48785">
        <ele>455</ele>
        <time>2015-04-10T16:07:38Z</time>
      </trkpt>
      <trkpt lat="46.17722" lon="2.48791">
        <ele>455</ele>
        <time>2015-04-10T16:07:40Z</time>
      </trkpt>
      <trkpt lat="46.17723" lon="2.48796">
        <ele>455</ele>
        <time>2015-04-10T16:07:42Z</time>
      </trkpt>
      <trkpt lat="46.17723" lon="2.488">
        <ele>455</ele>
        <time>2015-04-10T16:07:44Z</time>
      </trkpt>
      <trkpt lat="46.17724" lon="2.48805">
        <ele>455</ele>
        <time>2015-04-10T16:07:46Z</time>
      </trkpt>
      <trkpt lat="46.17724" lon="2.4881">
        <ele>455</ele>
        <time>2015-04-10T16:07:48Z</time>
      </trkpt>
      <trkpt lat="46.17725" lon="2.48814">
        <ele>455</ele>
        <time>2015-04-10T16:07:50Z</time>
      </trkpt>
      <trkpt lat="46.17726" lon="2.48818">
        <ele>455</ele>
        <time>2015-04-10T16:07:52Z</time>
      </trkpt>
      <trkpt lat="46.17728" lon="2.48822">
        <ele>455</ele>
        <time>2015-04-10T16:07:54Z</time>
      </trkpt>
      <trkpt lat="46.1773" lon="2.48828">
        <ele>455</ele>
        <time>2015-04-10T16:07:56Z</time>
      </trkpt>
      <trkpt lat="46.17732" lon="2.48832">
        <ele>455</ele>
        <time>2015-04-10T16:07:58Z</time>
      </trkpt>
      <trkpt lat="46.17734" lon="2.48834">
        <ele>455</ele>
        <time>2015-04-10T16:08:00Z</time>
      </trkpt>
      <trkpt lat="46.17736" lon="2.48839">
        <ele>454</ele>
        <time>2015-04-10T16:08:02Z</time>
      </trkpt>
      <trkpt lat="46.17738" lon="2.48842">
        <ele>454</ele>
        <time>2015-04-10T16:08:04Z</time>
      </trkpt>
      <trkpt lat="46.1774" lon="2.48845">
        <ele>454</ele>
        <time>2015-04-10T16:08:06Z</time>
      </trkpt>
      <trkpt lat="46.17742" lon="2.48849">
        <ele>454</ele>
        <time>2015-04-10T16:08:08Z</time>
      </trkpt>
      <trkpt lat="46.17744" lon="2.48851">
        <ele>454</ele>
        <time>2015-04-10T16:08:10Z</time>
      </trkpt>
      <trkpt lat="46.17747" lon="2.48855">
        <ele>453</ele>
        <time>2015-04-10T16:08:13Z</time>
      </trkpt>
      <trkpt lat="46.1775" lon="2.48858">
        <ele>453</ele>
        <time>2015-04-10T16:08:15Z</time>
      </trkpt>
      <trkpt lat="46.17753" lon="2.48862">
        <ele>453</ele>
        <time>2015-04-10T16:08:17Z</time>
      </trkpt>
      <trkpt lat="46.17755" lon="2.48865">
        <ele>453</ele>
        <time>2015-04-10T16:08:19Z</time>
      </trkpt>
      <trkpt lat="46.17758" lon="2.48868">
        <ele>453</ele>
        <time>2015-04-10T16:08:21Z</time>
      </trkpt>
      <trkpt lat="46.1776" lon="2.48871">
        <ele>452</ele>
        <time>2015-04-10T16:08:23Z</time>
      </trkpt>
      <trkpt lat="46.17762" lon="2.48874">
        <ele>452</ele>
        <time>2015-04-10T16:08:25Z</time>
      </trkpt>
      <trkpt lat="46.17765" lon="2.48877">
        <ele>452</ele>
        <time>2015-04-10T16:08:27Z</time>
      </trkpt>
      <trkpt lat="46.17768" lon="2.4888">
        <ele>452</ele>
        <time>2015-04-10T16:08:29Z</time>
      </trkpt>
      <trkpt lat="46.1777" lon="2.48883">
        <ele>452</ele>
        <time>2015-04-10T16:08:31Z</time>
      </trkpt>
      <trkpt lat="46.17773" lon="2.48887">
        <ele>452</ele>
        <time>2015-04-10T16:08:33Z</time>
      </trkpt>
      <trkpt lat="46.17775" lon="2.48889">
        <ele>451</ele>
        <time>2015-04-10T16:08:35Z</time>
      </trkpt>
      <trkpt lat="46.17777" lon="2.48893">
        <ele>451</ele>
        <time>2015-04-10T16:08:37Z</time>
      </trkpt>
      <trkpt lat="46.17778" lon="2.48897">
        <ele>451</ele>
        <time>2015-04-10T16:08:39Z</time>
      </trkpt>
      <trkpt lat="46.17779" lon="2.48902">
        <ele>450</ele>
        <time>2015-04-10T16:08:41Z</time>
      </trkpt>
      <trkpt lat="46.1778" lon="2.48906">
        <ele>450</ele>
        <time>2015-04-10T16:08:43Z</time>
      </trkpt>
      <trkpt lat="46.17781" lon="2.48911">
        <ele>450</ele>
        <time>2015-04-10T16:08:45Z</time>
      </trkpt>
      <trkpt lat="46.17781" lon="2.48916">
        <ele>450</ele>
        <time>2015-04-10T16:08:47Z</time>
      </trkpt>
      <trkpt lat="46.17781" lon="2.48921">
        <ele>449</ele>
        <time>2015-04-10T16:08:49Z</time>
      </trkpt>
      <trkpt lat="46.17781" lon="2.48927">
        <ele>449</ele>
        <time>2015-04-10T16:08:51Z</time>
      </trkpt>
      <trkpt lat="46.17782" lon="2.48931">
        <ele>449</ele>
        <time>2015-04-10T16:08:53Z</time>
      </trkpt>
      <trkpt lat="46.17782" lon="2.48936">
        <ele>449</ele>
        <time>2015-04-10T16:08:55Z</time>
      </trkpt>
      <trkpt lat="46.17782" lon="2.4894">
        <ele>449</ele>
        <time>2015-04-10T16:08:57Z</time>
      </trkpt>
      <trkpt lat="46.17784" lon="2.48944">
        <ele>449</ele>
        <time>2015-04-10T16:08:59Z</time>
      </trkpt>
      <trkpt lat="46.17784" lon="2.48949">
        <ele>449</ele>
        <time>2015-04-10T16:09:01Z</time>
      </trkpt>
      <trkpt lat="46.17785" lon="2.48953">
        <ele>449</ele>
        <time>2015-04-10T16:09:03Z</time>
      </trkpt>
      <trkpt lat="46.17785" lon="2.48959">
        <ele>449</ele>
        <time>2015-04-10T16:09:05Z</time>
      </trkpt>
      <trkpt lat="46.17786" lon="2.48963">
        <ele>449</ele>
        <time>2015-04-10T16:09:07Z</time>
      </trkpt>
      <trkpt lat="46.17787" lon="2.48967">
        <ele>449</ele>
        <time>2015-04-10T16:09:09Z</time>
      </trkpt>
      <trkpt lat="46.17788" lon="2.48972">
        <ele>449</ele>
        <time>2015-04-10T16:09:11Z</time>
      </trkpt>
      <trkpt lat="46.17789" lon="2.48977">
        <ele>449</ele>
        <time>2015-04-10T16:09:13Z</time>
      </trkpt>
      <trkpt lat="46.17791" lon="2.48982">
        <ele>449</ele>
        <time>2015-04-10T16:09:15Z</time>
      </trkpt>
      <trkpt lat="46.17792" lon="2.48986">
        <ele>449</ele>
        <time>2015-04-10T16:09:17Z</time>
      </trkpt>
      <trkpt lat="46.17794" lon="2.48989">
        <ele>449</ele>
        <time>2015-04-10T16:09:19Z</time>
      </trkpt>
      <trkpt lat="46.17796" lon="2.48992">
        <ele>449</ele>
        <time>2015-04-10T16:09:21Z</time>
      </trkpt>
      <trkpt lat="46.17799" lon="2.48994">
        <ele>449</ele>
        <time>2015-04-10T16:09:23Z</time>
      </trkpt>
      <trkpt lat="46.17801" lon="2.48997">
        <ele>449</ele>
        <time>2015-04-10T16:09:25Z</time>
      </trkpt>
      <trkpt lat="46.17805" lon="2.48999">
        <ele>449</ele>
        <time>2015-04-10T16:09:27Z</time>
      </trkpt>
      <trkpt lat="46.17808" lon="2.49001">
        <ele>449</ele>
        <time>2015-04-10T16:09:29Z</time>
      </trkpt>
      <trkpt lat="46.17811" lon="2.49003">
        <ele>449</ele>
        <time>2015-04-10T16:09:31Z</time>
      </trkpt>
      <trkpt lat="46.17813" lon="2.49006">
        <ele>449</ele>
        <time>2015-04-10T16:09:33Z</time>
      </trkpt>
      <trkpt lat="46.17816" lon="2.49008">
        <ele>449</ele>
        <time>2015-04-10T16:09:35Z</time>
      </trkpt>
      <trkpt lat="46.17819" lon="2.49009">
        <ele>449</ele>
        <time>2015-04-10T16:09:37Z</time>
      </trkpt>
      <trkpt lat="46.17823" lon="2.4901">
        <ele>449</ele>
        <time>2015-04-10T16:09:39Z</time>
      </trkpt>
      <trkpt lat="46.17826" lon="2.4901">
        <ele>449</ele>
        <time>2015-04-10T16:09:41Z</time>
      </trkpt>
      <trkpt lat="46.17829" lon="2.4901">
        <ele>449</ele>
        <time>2015-04-10T16:09:43Z</time>
      </trkpt>
      <trkpt lat="46.17832" lon="2.4901">
        <ele>449</ele>
        <time>2015-04-10T16:09:45Z</time>
      </trkpt>
      <trkpt lat="46.17834" lon="2.49009">
        <ele>449</ele>
        <time>2015-04-10T16:09:47Z</time>
      </trkpt>
      <trkpt lat="46.17837" lon="2.49007">
        <ele>449</ele>
        <time>2015-04-10T16:09:49Z</time>
      </trkpt>
      <trkpt lat="46.1784" lon="2.49005">
        <ele>449</ele>
        <time>2015-04-10T16:09:51Z</time>
      </trkpt>
      <trkpt lat="46.17843" lon="2.49003">
        <ele>449</ele>
        <time>2015-04-10T16:09:53Z</time>
      </trkpt>
      <trkpt lat="46.17846" lon="2.49001">
        <ele>449</ele>
        <time>2015-04-10T16:09:55Z</time>
      </trkpt>
      <trkpt lat="46.17848" lon="2.48998">
        <ele>449</ele>
        <time>2015-04-10T16:09:57Z</time>
      </trkpt>
      <trkpt lat="46.1785" lon="2.48995">
        <ele>449</ele>
        <time>2015-04-10T16:09:59Z</time>
      </trkpt>
      <trkpt lat="46.17853" lon="2.48992">
        <ele>449</ele>
        <time>2015-04-10T16:10:01Z</time>
      </trkpt>
      <trkpt lat="46.17855" lon="2.48989">
        <ele>449</ele>
        <time>2015-04-10T16:10:03Z</time>
      </trkpt>
      <trkpt lat="46.17858" lon="2.48986">
        <ele>449</ele>
        <time>2015-04-10T16:10:05Z</time>
      </trkpt>
      <trkpt lat="46.1786" lon="2.48983">
        <ele>449</ele>
        <time>2015-04-10T16:10:07Z</time>
      </trkpt>
      <trkpt lat="46.17863" lon="2.48979">
        <ele>449</ele>
        <time>2015-04-10T16:10:10Z</time>
      </trkpt>
      <trkpt lat="46.17865" lon="2.48975">
        <ele>449</ele>
        <time>2015-04-10T16:10:12Z</time>
      </trkpt>
      <trkpt lat="46.17868" lon="2.48972">
        <ele>449</ele>
        <time>2015-04-10T16:10:14Z</time>
      </trkpt>
      <trkpt lat="46.17869" lon="2.48967">
        <ele>449</ele>
        <time>2015-04-10T16:10:16Z</time>
      </trkpt>
      <trkpt lat="46.1787" lon="2.48962">
        <ele>449</ele>
        <time>2015-04-10T16:10:18Z</time>
      </trkpt>
      <trkpt lat="46.1787" lon="2.48956">
        <ele>449</ele>
        <time>2015-04-10T16:10:20Z</time>
      </trkpt>
      <trkpt lat="46.1787" lon="2.48951">
        <ele>449</ele>
        <time>2015-04-10T16:10:22Z</time>
      </trkpt>
      <trkpt lat="46.1787" lon="2.48946">
        <ele>449</ele>
        <time>2015-04-10T16:10:24Z</time>
      </trkpt>
      <trkpt lat="46.17869" lon="2.4894">
        <ele>449</ele>
        <time>2015-04-10T16:10:26Z</time>
      </trkpt>
      <trkpt lat="46.17868" lon="2.48935">
        <ele>449</ele>
        <time>2015-04-10T16:10:28Z</time>
      </trkpt>
      <trkpt lat="46.17867" lon="2.48929">
        <ele>449</ele>
        <time>2015-04-10T16:10:30Z</time>
      </trkpt>
      <trkpt lat="46.17866" lon="2.48925">
        <ele>449</ele>
        <time>2015-04-10T16:10:32Z</time>
      </trkpt>
      <trkpt lat="46.17865" lon="2.48921">
        <ele>449</ele>
        <time>2015-04-10T16:10:34Z</time>
      </trkpt>
      <trkpt lat="46.17865" lon="2.48917">
        <ele>449</ele>
        <time>2015-04-10T16:10:36Z</time>
      </trkpt>
      <trkpt lat="46.17864" lon="2.48913">
        <ele>449</ele>
        <time>2015-04-10T16:10:38Z</time>
      </trkpt>
      <trkpt lat="46.17864" lon="2.48908">
        <ele>449</ele>
        <time>2015-04-10T16:10:40Z</time>
      </trkpt>
      <trkpt lat="46.17865" lon="2.48905">
        <ele>448</ele>
        <time>2015-04-10T16:10:42Z</time>
      </trkpt>
      <trkpt lat="46.17866" lon="2.48902">
        <ele>448</ele>
        <time>2015-04-10T16:10:44Z</time>
      </trkpt>
    </trkseg>
  </trk>
</gpx>